<?xml version='1.0' encoding='UTF-8'?><gpx version="1.1" creator="JPX - https://github.com/jenetics/jpx" xmlns="http://www.topografix.com/GPX/1/1"><trk><trkseg><trkpt lat="44.5107867" lon="11.28319"><ele>45.0</ele><time>2026-03-28T06:55:09.739Z</time></trkpt><trkpt lat="44.510735" lon="11.2829817"><ele>45.0</ele><time>2026-03-28T06:55:57.404Z</time></trkpt><trkpt lat="44.5107883" lon="11.2831183"><ele>45.0</ele><time>2026-03-28T06:56:01.736Z</time></trkpt><trkpt lat="44.510725" lon="11.2830533"><ele>45.0</ele><time>2026-03-28T06:56:10.736Z</time></trkpt><trkpt lat="44.5106617" lon="11.2830017"><ele>45.0</ele><time>2026-03-28T06:56:12.736Z</time></trkpt><trkpt lat="44.510575" lon="11.2829467"><ele>45.0</ele><time>2026-03-28T06:56:14.736Z</time></trkpt><trkpt lat="44.51049" lon="11.2828867"><ele>45.0</ele><time>2026-03-28T06:56:16.735Z</time></trkpt><trkpt lat="44.5103917" lon="11.282855"><ele>45.0</ele><time>2026-03-28T06:56:18.735Z</time></trkpt><trkpt lat="44.5102933" lon="11.2828067"><ele>45.0</ele><time>2026-03-28T06:56:20.736Z</time></trkpt><trkpt lat="44.5101967" lon="11.2827517"><ele>45.0</ele><time>2026-03-28T06:56:22.736Z</time></trkpt><trkpt lat="44.5100917" lon="11.2827033"><ele>45.6</ele><time>2026-03-28T06:56:24.736Z</time></trkpt><trkpt lat="44.5099967" lon="11.2826583"><ele>46.2</ele><time>2026-03-28T06:56:26.736Z</time></trkpt><trkpt lat="44.5099" lon="11.2826083"><ele>46.8</ele><time>2026-03-28T06:56:28.735Z</time></trkpt><trkpt lat="44.5098233" lon="11.2825267"><ele>47.4</ele><time>2026-03-28T06:56:30.736Z</time></trkpt><trkpt lat="44.5097417" lon="11.2824967"><ele>48.0</ele><time>2026-03-28T06:56:32.736Z</time></trkpt><trkpt lat="44.5096617" lon="11.282565"><ele>48.0</ele><time>2026-03-28T06:56:34.736Z</time></trkpt><trkpt lat="44.5095817" lon="11.282665"><ele>48.0</ele><time>2026-03-28T06:56:36.735Z</time></trkpt><trkpt lat="44.5094967" lon="11.2827733"><ele>48.0</ele><time>2026-03-28T06:56:38.736Z</time></trkpt><trkpt lat="44.5094167" lon="11.2828583"><ele>48.0</ele><time>2026-03-28T06:56:40.735Z</time></trkpt><trkpt lat="44.509345" lon="11.2829583"><ele>48.0</ele><time>2026-03-28T06:56:42.735Z</time></trkpt><trkpt lat="44.5092533" lon="11.283055"><ele>48.25</ele><time>2026-03-28T06:56:44.736Z</time></trkpt><trkpt lat="44.5091733" lon="11.2831617"><ele>48.5</ele><time>2026-03-28T06:56:46.736Z</time></trkpt><trkpt lat="44.50909" lon="11.2832667"><ele>48.75</ele><time>2026-03-28T06:56:48.736Z</time></trkpt><trkpt lat="44.5090067" lon="11.2833733"><ele>49.0</ele><time>2026-03-28T06:56:50.736Z</time></trkpt><trkpt lat="44.5089217" lon="11.283485"><ele>49.0</ele><time>2026-03-28T06:56:52.735Z</time></trkpt><trkpt lat="44.5088417" lon="11.283585"><ele>49.0</ele><time>2026-03-28T06:56:54.735Z</time></trkpt><trkpt lat="44.5087733" lon="11.2837033"><ele>49.0</ele><time>2026-03-28T06:56:56.735Z</time></trkpt><trkpt lat="44.5087133" lon="11.2838233"><ele>49.0</ele><time>2026-03-28T06:56:58.736Z</time></trkpt><trkpt lat="44.5086517" lon="11.28393"><ele>49.0</ele><time>2026-03-28T06:57:00.735Z</time></trkpt><trkpt lat="44.50859" lon="11.2839883"><ele>49.57142857142857</ele><time>2026-03-28T06:57:02.736Z</time></trkpt><trkpt lat="44.5085283" lon="11.2840133"><ele>50.14285714285714</ele><time>2026-03-28T06:57:06.736Z</time></trkpt><trkpt lat="44.5084883" lon="11.2840983"><ele>50.714285714285715</ele><time>2026-03-28T06:57:13.736Z</time></trkpt><trkpt lat="44.5084617" lon="11.2841817"><ele>51.285714285714285</ele><time>2026-03-28T06:57:16.736Z</time></trkpt><trkpt lat="44.50843" lon="11.2842917"><ele>51.857142857142854</ele><time>2026-03-28T06:57:19.735Z</time></trkpt><trkpt lat="44.5083817" lon="11.284375"><ele>52.42857142857143</ele><time>2026-03-28T06:57:21.735Z</time></trkpt><trkpt lat="44.5083033" lon="11.2844167"><ele>53.0</ele><time>2026-03-28T06:57:23.736Z</time></trkpt><trkpt lat="44.508195" lon="11.28438"><ele>53.0</ele><time>2026-03-28T06:57:25.735Z</time></trkpt><trkpt lat="44.50809" lon="11.284315"><ele>53.0</ele><time>2026-03-28T06:57:27.736Z</time></trkpt><trkpt lat="44.5079867" lon="11.2842733"><ele>53.0</ele><time>2026-03-28T06:57:29.736Z</time></trkpt><trkpt lat="44.5078883" lon="11.2842367"><ele>53.0</ele><time>2026-03-28T06:57:31.736Z</time></trkpt><trkpt lat="44.5077867" lon="11.2841933"><ele>53.0</ele><time>2026-03-28T06:57:33.736Z</time></trkpt><trkpt lat="44.507695" lon="11.2841383"><ele>52.4</ele><time>2026-03-28T06:57:35.736Z</time></trkpt><trkpt lat="44.5076017" lon="11.28409"><ele>51.8</ele><time>2026-03-28T06:57:37.736Z</time></trkpt><trkpt lat="44.5075033" lon="11.2840433"><ele>51.2</ele><time>2026-03-28T06:57:39.735Z</time></trkpt><trkpt lat="44.5074133" lon="11.2839883"><ele>50.6</ele><time>2026-03-28T06:57:41.735Z</time></trkpt><trkpt lat="44.507325" lon="11.2839333"><ele>50.0</ele><time>2026-03-28T06:57:43.736Z</time></trkpt><trkpt lat="44.5072567" lon="11.2838817"><ele>50.00000000000001</ele><time>2026-03-28T06:57:45.736Z</time></trkpt><trkpt lat="44.50719" lon="11.2838517"><ele>50.0</ele><time>2026-03-28T06:57:47.736Z</time></trkpt><trkpt lat="44.50713" lon="11.28382"><ele>50.0</ele><time>2026-03-28T06:57:50.736Z</time></trkpt><trkpt lat="44.507105" lon="11.283935"><ele>50.0</ele><time>2026-03-28T06:57:54.736Z</time></trkpt><trkpt lat="44.50707" lon="11.284045"><ele>50.0</ele><time>2026-03-28T06:57:57.736Z</time></trkpt><trkpt lat="44.50702" lon="11.2841133"><ele>50.00000000000001</ele><time>2026-03-28T06:58:01.736Z</time></trkpt><trkpt lat="44.5069483" lon="11.2840983"><ele>50.0</ele><time>2026-03-28T06:58:58.735Z</time></trkpt><trkpt lat="44.5068867" lon="11.28405"><ele>49.4</ele><time>2026-03-28T06:59:00.736Z</time></trkpt><trkpt lat="44.506815" lon="11.28404"><ele>48.8</ele><time>2026-03-28T06:59:02.736Z</time></trkpt><trkpt lat="44.5067467" lon="11.2841083"><ele>48.2</ele><time>2026-03-28T06:59:04.735Z</time></trkpt><trkpt lat="44.5067017" lon="11.2842333"><ele>47.6</ele><time>2026-03-28T06:59:06.736Z</time></trkpt><trkpt lat="44.5066667" lon="11.28438"><ele>47.0</ele><time>2026-03-28T06:59:08.736Z</time></trkpt><trkpt lat="44.506635" lon="11.284535"><ele>47.0</ele><time>2026-03-28T06:59:10.736Z</time></trkpt><trkpt lat="44.506595" lon="11.2846817"><ele>47.0</ele><time>2026-03-28T06:59:12.735Z</time></trkpt><trkpt lat="44.50655" lon="11.2848233"><ele>47.0</ele><time>2026-03-28T06:59:14.736Z</time></trkpt><trkpt lat="44.50651" lon="11.2849633"><ele>47.0</ele><time>2026-03-28T06:59:16.736Z</time></trkpt><trkpt lat="44.5064667" lon="11.2851083"><ele>47.0</ele><time>2026-03-28T06:59:18.735Z</time></trkpt><trkpt lat="44.5064217" lon="11.28526"><ele>47.0</ele><time>2026-03-28T06:59:20.736Z</time></trkpt><trkpt lat="44.5063767" lon="11.2854217"><ele>47.0</ele><time>2026-03-28T06:59:22.736Z</time></trkpt><trkpt lat="44.5063267" lon="11.28557"><ele>47.0</ele><time>2026-03-28T06:59:24.736Z</time></trkpt><trkpt lat="44.5062817" lon="11.2857233"><ele>47.0</ele><time>2026-03-28T06:59:26.736Z</time></trkpt><trkpt lat="44.506235" lon="11.2858717"><ele>46.25</ele><time>2026-03-28T06:59:28.737Z</time></trkpt><trkpt lat="44.5061917" lon="11.2860233"><ele>45.5</ele><time>2026-03-28T06:59:30.736Z</time></trkpt><trkpt lat="44.5061417" lon="11.286175"><ele>44.75</ele><time>2026-03-28T06:59:32.737Z</time></trkpt><trkpt lat="44.5060967" lon="11.2863383"><ele>44.0</ele><time>2026-03-28T06:59:34.737Z</time></trkpt><trkpt lat="44.50605" lon="11.2864933"><ele>44.0</ele><time>2026-03-28T06:59:36.737Z</time></trkpt><trkpt lat="44.5060067" lon="11.2866517"><ele>44.0</ele><time>2026-03-28T06:59:38.736Z</time></trkpt><trkpt lat="44.5059583" lon="11.2868"><ele>44.0</ele><time>2026-03-28T06:59:40.737Z</time></trkpt><trkpt lat="44.50591" lon="11.28696"><ele>44.0</ele><time>2026-03-28T06:59:42.737Z</time></trkpt><trkpt lat="44.5058567" lon="11.287115"><ele>43.75</ele><time>2026-03-28T06:59:44.737Z</time></trkpt><trkpt lat="44.5058117" lon="11.2872767"><ele>43.5</ele><time>2026-03-28T06:59:46.737Z</time></trkpt><trkpt lat="44.5057683" lon="11.287435"><ele>43.25</ele><time>2026-03-28T06:59:48.737Z</time></trkpt><trkpt lat="44.5057217" lon="11.2875917"><ele>43.0</ele><time>2026-03-28T06:59:50.737Z</time></trkpt><trkpt lat="44.5056783" lon="11.2877483"><ele>43.0</ele><time>2026-03-28T06:59:52.737Z</time></trkpt><trkpt lat="44.50564" lon="11.2879083"><ele>43.0</ele><time>2026-03-28T06:59:54.737Z</time></trkpt><trkpt lat="44.5055967" lon="11.288065"><ele>43.0</ele><time>2026-03-28T06:59:56.737Z</time></trkpt><trkpt lat="44.50555" lon="11.2882233"><ele>43.0</ele><time>2026-03-28T06:59:58.737Z</time></trkpt><trkpt lat="44.505495" lon="11.288375"><ele>43.0</ele><time>2026-03-28T07:00:00.737Z</time></trkpt><trkpt lat="44.5054683" lon="11.288455"><ele>43.0</ele><time>2026-03-28T07:00:01.736Z</time></trkpt><trkpt lat="44.5054267" lon="11.28862"><ele>43.0</ele><time>2026-03-28T07:00:03.737Z</time></trkpt><trkpt lat="44.50538" lon="11.28877"><ele>43.0</ele><time>2026-03-28T07:00:05.737Z</time></trkpt><trkpt lat="44.50534" lon="11.28892"><ele>43.0</ele><time>2026-03-28T07:00:07.737Z</time></trkpt><trkpt lat="44.5052883" lon="11.289075"><ele>42.75</ele><time>2026-03-28T07:00:09.737Z</time></trkpt><trkpt lat="44.5052383" lon="11.2892267"><ele>42.5</ele><time>2026-03-28T07:00:11.737Z</time></trkpt><trkpt lat="44.50519" lon="11.28938"><ele>42.25</ele><time>2026-03-28T07:00:13.737Z</time></trkpt><trkpt lat="44.505145" lon="11.2895317"><ele>42.0</ele><time>2026-03-28T07:00:15.737Z</time></trkpt><trkpt lat="44.5050983" lon="11.2896883"><ele>41.5</ele><time>2026-03-28T07:00:17.737Z</time></trkpt><trkpt lat="44.505055" lon="11.2898367"><ele>41.0</ele><time>2026-03-28T07:00:19.736Z</time></trkpt><trkpt lat="44.5050067" lon="11.2899867"><ele>40.5</ele><time>2026-03-28T07:00:21.736Z</time></trkpt><trkpt lat="44.504965" lon="11.2901333"><ele>40.0</ele><time>2026-03-28T07:00:23.736Z</time></trkpt><trkpt lat="44.5049217" lon="11.290285"><ele>40.0</ele><time>2026-03-28T07:00:25.737Z</time></trkpt><trkpt lat="44.5048767" lon="11.29044"><ele>40.0</ele><time>2026-03-28T07:00:27.737Z</time></trkpt><trkpt lat="44.50486" lon="11.2905283"><ele>40.0</ele><time>2026-03-28T07:00:28.737Z</time></trkpt><trkpt lat="44.50481" lon="11.2906833"><ele>40.0</ele><time>2026-03-28T07:00:30.737Z</time></trkpt><trkpt lat="44.504765" lon="11.2908367"><ele>40.0</ele><time>2026-03-28T07:00:32.736Z</time></trkpt><trkpt lat="44.5047383" lon="11.2909167"><ele>40.0</ele><time>2026-03-28T07:00:33.737Z</time></trkpt><trkpt lat="44.5046967" lon="11.2910567"><ele>40.0</ele><time>2026-03-28T07:00:35.737Z</time></trkpt><trkpt lat="44.5046517" lon="11.2911983"><ele>40.0</ele><time>2026-03-28T07:00:37.737Z</time></trkpt><trkpt lat="44.504615" lon="11.2912933"><ele>40.0</ele><time>2026-03-28T07:00:39.737Z</time></trkpt><trkpt lat="44.5045567" lon="11.2913333"><ele>40.0</ele><time>2026-03-28T07:00:41.736Z</time></trkpt><trkpt lat="44.5044817" lon="11.291355"><ele>40.0</ele><time>2026-03-28T07:00:44.737Z</time></trkpt><trkpt lat="44.5044017" lon="11.2913117"><ele>40.4</ele><time>2026-03-28T07:00:46.737Z</time></trkpt><trkpt lat="44.5042983" lon="11.2912533"><ele>40.8</ele><time>2026-03-28T07:00:48.737Z</time></trkpt><trkpt lat="44.50419" lon="11.291195"><ele>41.2</ele><time>2026-03-28T07:00:50.736Z</time></trkpt><trkpt lat="44.5040767" lon="11.2911367"><ele>41.6</ele><time>2026-03-28T07:00:52.737Z</time></trkpt><trkpt lat="44.504015" lon="11.291105"><ele>42.0</ele><time>2026-03-28T07:00:53.737Z</time></trkpt><trkpt lat="44.5038917" lon="11.29106"><ele>42.0</ele><time>2026-03-28T07:00:55.737Z</time></trkpt><trkpt lat="44.5038267" lon="11.2910383"><ele>42.0</ele><time>2026-03-28T07:00:56.737Z</time></trkpt><trkpt lat="44.50376" lon="11.2910167"><ele>42.0</ele><time>2026-03-28T07:00:57.736Z</time></trkpt><trkpt lat="44.5036933" lon="11.290995"><ele>42.0</ele><time>2026-03-28T07:00:58.736Z</time></trkpt><trkpt lat="44.503625" lon="11.2909733"><ele>42.0</ele><time>2026-03-28T07:00:59.737Z</time></trkpt><trkpt lat="44.5035567" lon="11.2909567"><ele>42.0</ele><time>2026-03-28T07:01:00.737Z</time></trkpt><trkpt lat="44.5034817" lon="11.2909467"><ele>42.0</ele><time>2026-03-28T07:01:01.737Z</time></trkpt><trkpt lat="44.50341" lon="11.29094"><ele>42.42857142857143</ele><time>2026-03-28T07:01:02.736Z</time></trkpt><trkpt lat="44.5033433" lon="11.2909333"><ele>42.85714285714286</ele><time>2026-03-28T07:01:03.737Z</time></trkpt><trkpt lat="44.5032733" lon="11.2909233"><ele>43.285714285714285</ele><time>2026-03-28T07:01:04.737Z</time></trkpt><trkpt lat="44.5032033" lon="11.2909217"><ele>43.714285714285715</ele><time>2026-03-28T07:01:05.736Z</time></trkpt><trkpt lat="44.503135" lon="11.2909167"><ele>44.142857142857146</ele><time>2026-03-28T07:01:06.737Z</time></trkpt><trkpt lat="44.503065" lon="11.2909167"><ele>44.57142857142857</ele><time>2026-03-28T07:01:07.736Z</time></trkpt><trkpt lat="44.5029983" lon="11.2909233"><ele>45.0</ele><time>2026-03-28T07:01:08.737Z</time></trkpt><trkpt lat="44.5029283" lon="11.2909317"><ele>45.14285714285714</ele><time>2026-03-28T07:01:09.737Z</time></trkpt><trkpt lat="44.5028617" lon="11.2909283"><ele>45.28571428571429</ele><time>2026-03-28T07:01:10.736Z</time></trkpt><trkpt lat="44.5027983" lon="11.2909317"><ele>45.42857142857143</ele><time>2026-03-28T07:01:11.736Z</time></trkpt><trkpt lat="44.5027317" lon="11.2909367"><ele>45.57142857142857</ele><time>2026-03-28T07:01:12.737Z</time></trkpt><trkpt lat="44.5026633" lon="11.2909333"><ele>45.71428571428571</ele><time>2026-03-28T07:01:13.737Z</time></trkpt><trkpt lat="44.5025983" lon="11.2909433"><ele>45.85714285714286</ele><time>2026-03-28T07:01:14.737Z</time></trkpt><trkpt lat="44.50253" lon="11.2909483"><ele>46.0</ele><time>2026-03-28T07:01:15.737Z</time></trkpt><trkpt lat="44.5024617" lon="11.29095"><ele>46.0</ele><time>2026-03-28T07:01:16.736Z</time></trkpt><trkpt lat="44.5023867" lon="11.290945"><ele>46.0</ele><time>2026-03-28T07:01:17.737Z</time></trkpt><trkpt lat="44.5023217" lon="11.29094"><ele>46.0</ele><time>2026-03-28T07:01:18.737Z</time></trkpt><trkpt lat="44.5022583" lon="11.2909367"><ele>46.0</ele><time>2026-03-28T07:01:19.737Z</time></trkpt><trkpt lat="44.502195" lon="11.2909417"><ele>46.0</ele><time>2026-03-28T07:01:20.737Z</time></trkpt><trkpt lat="44.5021283" lon="11.2909467"><ele>46.0</ele><time>2026-03-28T07:01:21.736Z</time></trkpt><trkpt lat="44.5020617" lon="11.29095"><ele>46.0</ele><time>2026-03-28T07:01:22.737Z</time></trkpt><trkpt lat="44.5019317" lon="11.2909617"><ele>46.42857142857143</ele><time>2026-03-28T07:01:24.737Z</time></trkpt><trkpt lat="44.5018633" lon="11.2909683"><ele>46.857142857142854</ele><time>2026-03-28T07:01:25.736Z</time></trkpt><trkpt lat="44.5017933" lon="11.2909817"><ele>47.285714285714285</ele><time>2026-03-28T07:01:26.736Z</time></trkpt><trkpt lat="44.5017217" lon="11.2909933"><ele>47.714285714285715</ele><time>2026-03-28T07:01:27.737Z</time></trkpt><trkpt lat="44.5016533" lon="11.2909933"><ele>48.14285714285714</ele><time>2026-03-28T07:01:28.737Z</time></trkpt><trkpt lat="44.501585" lon="11.29099"><ele>48.57142857142857</ele><time>2026-03-28T07:01:29.737Z</time></trkpt><trkpt lat="44.5015183" lon="11.2909933"><ele>49.0</ele><time>2026-03-28T07:01:30.736Z</time></trkpt><trkpt lat="44.5014483" lon="11.2909933"><ele>49.0</ele><time>2026-03-28T07:01:31.736Z</time></trkpt><trkpt lat="44.5013817" lon="11.2909933"><ele>49.0</ele><time>2026-03-28T07:01:32.737Z</time></trkpt><trkpt lat="44.501315" lon="11.29099"><ele>49.0</ele><time>2026-03-28T07:01:33.737Z</time></trkpt><trkpt lat="44.50125" lon="11.29099"><ele>49.0</ele><time>2026-03-28T07:01:34.737Z</time></trkpt><trkpt lat="44.5011867" lon="11.2909883"><ele>49.0</ele><time>2026-03-28T07:01:35.737Z</time></trkpt><trkpt lat="44.5011217" lon="11.2909867"><ele>49.0</ele><time>2026-03-28T07:01:36.737Z</time></trkpt><trkpt lat="44.5010583" lon="11.2909767"><ele>49.0</ele><time>2026-03-28T07:01:37.737Z</time></trkpt><trkpt lat="44.5009367" lon="11.2909533"><ele>49.142857142857146</ele><time>2026-03-28T07:01:39.737Z</time></trkpt><trkpt lat="44.5008733" lon="11.290935"><ele>49.285714285714285</ele><time>2026-03-28T07:01:40.737Z</time></trkpt><trkpt lat="44.50081" lon="11.2909217"><ele>49.42857142857143</ele><time>2026-03-28T07:01:41.737Z</time></trkpt><trkpt lat="44.50074" lon="11.2909083"><ele>49.57142857142857</ele><time>2026-03-28T07:01:42.736Z</time></trkpt><trkpt lat="44.5006767" lon="11.2908917"><ele>49.714285714285715</ele><time>2026-03-28T07:01:43.737Z</time></trkpt><trkpt lat="44.5006167" lon="11.2908583"><ele>49.85714285714286</ele><time>2026-03-28T07:01:44.736Z</time></trkpt><trkpt lat="44.5005183" lon="11.2907783"><ele>50.0</ele><time>2026-03-28T07:01:46.737Z</time></trkpt><trkpt lat="44.5004617" lon="11.2907317"><ele>50.00000000000001</ele><time>2026-03-28T07:01:47.737Z</time></trkpt><trkpt lat="44.5004017" lon="11.2906883"><ele>50.0</ele><time>2026-03-28T07:01:48.737Z</time></trkpt><trkpt lat="44.500335" lon="11.290655"><ele>50.0</ele><time>2026-03-28T07:01:49.737Z</time></trkpt><trkpt lat="44.5002717" lon="11.2906267"><ele>50.0</ele><time>2026-03-28T07:01:50.736Z</time></trkpt><trkpt lat="44.5002083" lon="11.2905983"><ele>50.00000000000001</ele><time>2026-03-28T07:01:51.737Z</time></trkpt><trkpt lat="44.500095" lon="11.2905333"><ele>50.0</ele><time>2026-03-28T07:01:53.737Z</time></trkpt><trkpt lat="44.49999" lon="11.2904567"><ele>50.0</ele><time>2026-03-28T07:01:55.736Z</time></trkpt><trkpt lat="44.4998733" lon="11.29039"><ele>50.0</ele><time>2026-03-28T07:01:57.737Z</time></trkpt><trkpt lat="44.4997517" lon="11.29032"><ele>50.0</ele><time>2026-03-28T07:01:59.737Z</time></trkpt><trkpt lat="44.4996833" lon="11.290285"><ele>50.0</ele><time>2026-03-28T07:02:00.737Z</time></trkpt><trkpt lat="44.49962" lon="11.29025"><ele>50.0</ele><time>2026-03-28T07:02:01.737Z</time></trkpt><trkpt lat="44.4995567" lon="11.290215"><ele>50.50000000000001</ele><time>2026-03-28T07:02:02.737Z</time></trkpt><trkpt lat="44.4994967" lon="11.29018"><ele>51.0</ele><time>2026-03-28T07:02:03.737Z</time></trkpt><trkpt lat="44.4994367" lon="11.2901417"><ele>51.5</ele><time>2026-03-28T07:02:04.737Z</time></trkpt><trkpt lat="44.4993783" lon="11.290105"><ele>52.0</ele><time>2026-03-28T07:02:05.736Z</time></trkpt><trkpt lat="44.4992633" lon="11.2900367"><ele>52.50000000000001</ele><time>2026-03-28T07:02:07.736Z</time></trkpt><trkpt lat="44.4992017" lon="11.2900167"><ele>53.0</ele><time>2026-03-28T07:02:08.737Z</time></trkpt><trkpt lat="44.499135" lon="11.2899867"><ele>53.00000000000001</ele><time>2026-03-28T07:02:09.736Z</time></trkpt><trkpt lat="44.49907" lon="11.2899633"><ele>53.0</ele><time>2026-03-28T07:02:10.737Z</time></trkpt><trkpt lat="44.4990033" lon="11.2899417"><ele>53.0</ele><time>2026-03-28T07:02:11.736Z</time></trkpt><trkpt lat="44.4989367" lon="11.2899133"><ele>53.0</ele><time>2026-03-28T07:02:12.737Z</time></trkpt><trkpt lat="44.4988717" lon="11.28989"><ele>53.00000000000001</ele><time>2026-03-28T07:02:13.736Z</time></trkpt><trkpt lat="44.49881" lon="11.289865"><ele>53.0</ele><time>2026-03-28T07:02:14.737Z</time></trkpt><trkpt lat="44.4986883" lon="11.2898183"><ele>52.50000000000001</ele><time>2026-03-28T07:02:16.736Z</time></trkpt><trkpt lat="44.498625" lon="11.2898017"><ele>52.0</ele><time>2026-03-28T07:02:17.737Z</time></trkpt><trkpt lat="44.4985533" lon="11.2897883"><ele>51.5</ele><time>2026-03-28T07:02:18.737Z</time></trkpt><trkpt lat="44.4984833" lon="11.2897733"><ele>51.0</ele><time>2026-03-28T07:02:19.737Z</time></trkpt><trkpt lat="44.49842" lon="11.289755"><ele>50.50000000000001</ele><time>2026-03-28T07:02:20.736Z</time></trkpt><trkpt lat="44.4983567" lon="11.2897367"><ele>50.0</ele><time>2026-03-28T07:02:21.737Z</time></trkpt><trkpt lat="44.4982333" lon="11.2896933"><ele>49.714285714285715</ele><time>2026-03-28T07:02:23.737Z</time></trkpt><trkpt lat="44.498165" lon="11.28968"><ele>49.42857142857143</ele><time>2026-03-28T07:02:24.737Z</time></trkpt><trkpt lat="44.4980917" lon="11.2896683"><ele>49.14285714285714</ele><time>2026-03-28T07:02:25.737Z</time></trkpt><trkpt lat="44.4980217" lon="11.289655"><ele>48.85714285714286</ele><time>2026-03-28T07:02:26.737Z</time></trkpt><trkpt lat="44.4979533" lon="11.2896367"><ele>48.57142857142857</ele><time>2026-03-28T07:02:27.737Z</time></trkpt><trkpt lat="44.49789" lon="11.2896167"><ele>48.285714285714285</ele><time>2026-03-28T07:02:28.737Z</time></trkpt><trkpt lat="44.4978233" lon="11.2895983"><ele>48.0</ele><time>2026-03-28T07:02:29.737Z</time></trkpt><trkpt lat="44.49776" lon="11.28958"><ele>47.99999999999999</ele><time>2026-03-28T07:02:30.737Z</time></trkpt><trkpt lat="44.4976967" lon="11.2895683"><ele>48.0</ele><time>2026-03-28T07:02:31.736Z</time></trkpt><trkpt lat="44.497625" lon="11.28955"><ele>48.0</ele><time>2026-03-28T07:02:32.737Z</time></trkpt><trkpt lat="44.4975567" lon="11.28953"><ele>48.0</ele><time>2026-03-28T07:02:33.736Z</time></trkpt><trkpt lat="44.49749" lon="11.2895133"><ele>48.0</ele><time>2026-03-28T07:02:34.737Z</time></trkpt><trkpt lat="44.4974267" lon="11.2894983"><ele>47.99999999999999</ele><time>2026-03-28T07:02:35.737Z</time></trkpt><trkpt lat="44.4973633" lon="11.2894817"><ele>48.0</ele><time>2026-03-28T07:02:36.737Z</time></trkpt><trkpt lat="44.4973" lon="11.2894617"><ele>47.99999999999999</ele><time>2026-03-28T07:02:37.737Z</time></trkpt><trkpt lat="44.4972367" lon="11.2894417"><ele>48.0</ele><time>2026-03-28T07:02:38.737Z</time></trkpt><trkpt lat="44.497165" lon="11.2894083"><ele>48.0</ele><time>2026-03-28T07:02:39.736Z</time></trkpt><trkpt lat="44.4971" lon="11.2893717"><ele>48.0</ele><time>2026-03-28T07:02:40.736Z</time></trkpt><trkpt lat="44.4970383" lon="11.2893467"><ele>48.0</ele><time>2026-03-28T07:02:41.737Z</time></trkpt><trkpt lat="44.4969717" lon="11.28931"><ele>47.99999999999999</ele><time>2026-03-28T07:02:42.736Z</time></trkpt><trkpt lat="44.49691" lon="11.2892867"><ele>48.0</ele><time>2026-03-28T07:02:43.737Z</time></trkpt><trkpt lat="44.4968467" lon="11.2892533"><ele>48.0</ele><time>2026-03-28T07:02:44.736Z</time></trkpt><trkpt lat="44.4967783" lon="11.28922"><ele>48.0</ele><time>2026-03-28T07:02:45.737Z</time></trkpt><trkpt lat="44.4967133" lon="11.289195"><ele>48.0</ele><time>2026-03-28T07:02:46.737Z</time></trkpt><trkpt lat="44.4966483" lon="11.2891667"><ele>48.0</ele><time>2026-03-28T07:02:47.737Z</time></trkpt><trkpt lat="44.49658" lon="11.2891383"><ele>48.0</ele><time>2026-03-28T07:02:48.736Z</time></trkpt><trkpt lat="44.4965183" lon="11.2891067"><ele>48.0</ele><time>2026-03-28T07:02:49.737Z</time></trkpt><trkpt lat="44.4964167" lon="11.2890517"><ele>48.0</ele><time>2026-03-28T07:02:51.737Z</time></trkpt><trkpt lat="44.49631" lon="11.2890033"><ele>48.0</ele><time>2026-03-28T07:02:53.737Z</time></trkpt><trkpt lat="44.4962133" lon="11.2889317"><ele>48.0</ele><time>2026-03-28T07:02:55.737Z</time></trkpt><trkpt lat="44.49613" lon="11.2888783"><ele>48.0</ele><time>2026-03-28T07:02:57.737Z</time></trkpt><trkpt lat="44.4960367" lon="11.288915"><ele>48.0</ele><time>2026-03-28T07:02:59.737Z</time></trkpt><trkpt lat="44.4960067" lon="11.289055"><ele>48.285714285714285</ele><time>2026-03-28T07:03:01.737Z</time></trkpt><trkpt lat="44.4960367" lon="11.2892033"><ele>48.57142857142857</ele><time>2026-03-28T07:03:03.736Z</time></trkpt><trkpt lat="44.4960667" lon="11.2892833"><ele>48.85714285714286</ele><time>2026-03-28T07:03:04.737Z</time></trkpt><trkpt lat="44.4960883" lon="11.2893717"><ele>49.14285714285714</ele><time>2026-03-28T07:03:05.737Z</time></trkpt><trkpt lat="44.4960983" lon="11.28946"><ele>49.42857142857143</ele><time>2026-03-28T07:03:06.737Z</time></trkpt><trkpt lat="44.4960983" lon="11.2895483"><ele>49.714285714285715</ele><time>2026-03-28T07:03:07.737Z</time></trkpt><trkpt lat="44.4960967" lon="11.2896417"><ele>50.0</ele><time>2026-03-28T07:03:08.737Z</time></trkpt><trkpt lat="44.4960783" lon="11.2898117"><ele>50.333333333333336</ele><time>2026-03-28T07:03:10.736Z</time></trkpt><trkpt lat="44.4960633" lon="11.2899"><ele>50.66666666666667</ele><time>2026-03-28T07:03:11.737Z</time></trkpt><trkpt lat="44.49604" lon="11.290075"><ele>51.0</ele><time>2026-03-28T07:03:13.737Z</time></trkpt><trkpt lat="44.4960267" lon="11.2901633"><ele>51.33333333333333</ele><time>2026-03-28T07:03:14.737Z</time></trkpt><trkpt lat="44.4960167" lon="11.2902533"><ele>51.666666666666664</ele><time>2026-03-28T07:03:15.738Z</time></trkpt><trkpt lat="44.4960083" lon="11.290345"><ele>52.0</ele><time>2026-03-28T07:03:16.737Z</time></trkpt><trkpt lat="44.4959917" lon="11.29044"><ele>52.0</ele><time>2026-03-28T07:03:17.738Z</time></trkpt><trkpt lat="44.49598" lon="11.29053"><ele>52.0</ele><time>2026-03-28T07:03:18.738Z</time></trkpt><trkpt lat="44.4959683" lon="11.29062"><ele>52.0</ele><time>2026-03-28T07:03:19.738Z</time></trkpt><trkpt lat="44.4959617" lon="11.29071"><ele>52.0</ele><time>2026-03-28T07:03:20.738Z</time></trkpt><trkpt lat="44.4959533" lon="11.2908033"><ele>52.0</ele><time>2026-03-28T07:03:21.738Z</time></trkpt><trkpt lat="44.4959483" lon="11.290895"><ele>52.0</ele><time>2026-03-28T07:03:22.738Z</time></trkpt><trkpt lat="44.4959417" lon="11.2909867"><ele>52.0</ele><time>2026-03-28T07:03:23.738Z</time></trkpt><trkpt lat="44.4959317" lon="11.2910767"><ele>52.14285714285714</ele><time>2026-03-28T07:03:24.737Z</time></trkpt><trkpt lat="44.4959233" lon="11.2911667"><ele>52.28571428571429</ele><time>2026-03-28T07:03:25.737Z</time></trkpt><trkpt lat="44.4959133" lon="11.291265"><ele>52.42857142857143</ele><time>2026-03-28T07:03:26.738Z</time></trkpt><trkpt lat="44.4959067" lon="11.2913583"><ele>52.57142857142857</ele><time>2026-03-28T07:03:27.738Z</time></trkpt><trkpt lat="44.4958967" lon="11.29146"><ele>52.71428571428571</ele><time>2026-03-28T07:03:28.737Z</time></trkpt><trkpt lat="44.495875" lon="11.2915533"><ele>52.85714285714286</ele><time>2026-03-28T07:03:29.737Z</time></trkpt><trkpt lat="44.4958567" lon="11.291645"><ele>53.0</ele><time>2026-03-28T07:03:30.738Z</time></trkpt><trkpt lat="44.4958383" lon="11.291735"><ele>53.00000000000001</ele><time>2026-03-28T07:03:31.738Z</time></trkpt><trkpt lat="44.4958283" lon="11.2918267"><ele>53.0</ele><time>2026-03-28T07:03:32.738Z</time></trkpt><trkpt lat="44.4958167" lon="11.2919217"><ele>53.0</ele><time>2026-03-28T07:03:33.737Z</time></trkpt><trkpt lat="44.4957967" lon="11.2920167"><ele>53.0</ele><time>2026-03-28T07:03:34.738Z</time></trkpt><trkpt lat="44.4957767" lon="11.2921083"><ele>53.00000000000001</ele><time>2026-03-28T07:03:35.738Z</time></trkpt><trkpt lat="44.4957567" lon="11.2921983"><ele>53.0</ele><time>2026-03-28T07:03:36.738Z</time></trkpt><trkpt lat="44.49572" lon="11.2923633"><ele>53.0</ele><time>2026-03-28T07:03:38.738Z</time></trkpt><trkpt lat="44.4956933" lon="11.2924483"><ele>53.0</ele><time>2026-03-28T07:03:39.738Z</time></trkpt><trkpt lat="44.4956733" lon="11.2925383"><ele>53.0</ele><time>2026-03-28T07:03:40.738Z</time></trkpt><trkpt lat="44.4956533" lon="11.2926283"><ele>53.0</ele><time>2026-03-28T07:03:41.738Z</time></trkpt><trkpt lat="44.49564" lon="11.2927217"><ele>53.0</ele><time>2026-03-28T07:03:42.738Z</time></trkpt><trkpt lat="44.495625" lon="11.2928117"><ele>53.0</ele><time>2026-03-28T07:03:43.738Z</time></trkpt><trkpt lat="44.4955967" lon="11.2929"><ele>53.0</ele><time>2026-03-28T07:03:44.737Z</time></trkpt><trkpt lat="44.4955717" lon="11.2929883"><ele>53.00000000000001</ele><time>2026-03-28T07:03:45.738Z</time></trkpt><trkpt lat="44.4955583" lon="11.2930817"><ele>53.0</ele><time>2026-03-28T07:03:46.738Z</time></trkpt><trkpt lat="44.4955283" lon="11.2931667"><ele>53.0</ele><time>2026-03-28T07:03:47.738Z</time></trkpt><trkpt lat="44.4954733" lon="11.2933217"><ele>53.0</ele><time>2026-03-28T07:03:49.738Z</time></trkpt><trkpt lat="44.4954233" lon="11.2934833"><ele>53.00000000000001</ele><time>2026-03-28T07:03:51.738Z</time></trkpt><trkpt lat="44.4954" lon="11.2935667"><ele>53.0</ele><time>2026-03-28T07:03:52.738Z</time></trkpt><trkpt lat="44.49537" lon="11.2936517"><ele>52.599999999999994</ele><time>2026-03-28T07:03:53.738Z</time></trkpt><trkpt lat="44.4953033" lon="11.2937983"><ele>52.199999999999996</ele><time>2026-03-28T07:03:55.738Z</time></trkpt><trkpt lat="44.49527" lon="11.293875"><ele>51.8</ele><time>2026-03-28T07:03:56.738Z</time></trkpt><trkpt lat="44.4952033" lon="11.2940267"><ele>51.4</ele><time>2026-03-28T07:03:58.738Z</time></trkpt><trkpt lat="44.4951533" lon="11.29411"><ele>51.0</ele><time>2026-03-28T07:03:59.738Z</time></trkpt><trkpt lat="44.4951133" lon="11.2941867"><ele>51.0</ele><time>2026-03-28T07:04:00.738Z</time></trkpt><trkpt lat="44.49507" lon="11.29426"><ele>51.0</ele><time>2026-03-28T07:04:01.738Z</time></trkpt><trkpt lat="44.494995" lon="11.2944"><ele>51.0</ele><time>2026-03-28T07:04:03.738Z</time></trkpt><trkpt lat="44.49494" lon="11.2945333"><ele>51.0</ele><time>2026-03-28T07:04:05.737Z</time></trkpt><trkpt lat="44.4948833" lon="11.294645"><ele>51.0</ele><time>2026-03-28T07:04:07.738Z</time></trkpt><trkpt lat="44.4948317" lon="11.294755"><ele>51.0</ele><time>2026-03-28T07:04:09.738Z</time></trkpt><trkpt lat="44.4947833" lon="11.2948583"><ele>51.0</ele><time>2026-03-28T07:04:11.738Z</time></trkpt><trkpt lat="44.494745" lon="11.2949467"><ele>51.0</ele><time>2026-03-28T07:04:14.738Z</time></trkpt><trkpt lat="44.4947067" lon="11.29503"><ele>51.0</ele><time>2026-03-28T07:05:03.738Z</time></trkpt><trkpt lat="44.4946533" lon="11.2951433"><ele>51.0</ele><time>2026-03-28T07:05:05.738Z</time></trkpt><trkpt lat="44.4946017" lon="11.2952617"><ele>51.0</ele><time>2026-03-28T07:05:07.738Z</time></trkpt><trkpt lat="44.4945533" lon="11.2953833"><ele>50.4</ele><time>2026-03-28T07:05:09.737Z</time></trkpt><trkpt lat="44.4944883" lon="11.2955317"><ele>49.8</ele><time>2026-03-28T07:05:11.738Z</time></trkpt><trkpt lat="44.4944283" lon="11.29568"><ele>49.199999999999996</ele><time>2026-03-28T07:05:13.738Z</time></trkpt><trkpt lat="44.494365" lon="11.2958283"><ele>48.599999999999994</ele><time>2026-03-28T07:05:15.738Z</time></trkpt><trkpt lat="44.4943383" lon="11.2959133"><ele>48.0</ele><time>2026-03-28T07:05:16.738Z</time></trkpt><trkpt lat="44.4943083" lon="11.2960017"><ele>47.99999999999999</ele><time>2026-03-28T07:05:17.738Z</time></trkpt><trkpt lat="44.4942733" lon="11.2960833"><ele>48.0</ele><time>2026-03-28T07:05:18.737Z</time></trkpt><trkpt lat="44.4942367" lon="11.2961667"><ele>48.0</ele><time>2026-03-28T07:05:19.738Z</time></trkpt><trkpt lat="44.494205" lon="11.296245"><ele>48.0</ele><time>2026-03-28T07:05:20.737Z</time></trkpt><trkpt lat="44.4941717" lon="11.2963233"><ele>48.0</ele><time>2026-03-28T07:05:21.737Z</time></trkpt><trkpt lat="44.4941367" lon="11.296405"><ele>47.99999999999999</ele><time>2026-03-28T07:05:22.738Z</time></trkpt><trkpt lat="44.4940967" lon="11.2964833"><ele>48.0</ele><time>2026-03-28T07:05:23.738Z</time></trkpt><trkpt lat="44.4940533" lon="11.2965667"><ele>48.285714285714285</ele><time>2026-03-28T07:05:24.738Z</time></trkpt><trkpt lat="44.4940133" lon="11.296645"><ele>48.57142857142857</ele><time>2026-03-28T07:05:25.738Z</time></trkpt><trkpt lat="44.493975" lon="11.2967233"><ele>48.85714285714286</ele><time>2026-03-28T07:05:26.738Z</time></trkpt><trkpt lat="44.493935" lon="11.2968083"><ele>49.14285714285714</ele><time>2026-03-28T07:05:27.738Z</time></trkpt><trkpt lat="44.4938983" lon="11.29689"><ele>49.42857142857143</ele><time>2026-03-28T07:05:28.738Z</time></trkpt><trkpt lat="44.49386" lon="11.296975"><ele>49.714285714285715</ele><time>2026-03-28T07:05:29.738Z</time></trkpt><trkpt lat="44.493825" lon="11.2970533"><ele>50.0</ele><time>2026-03-28T07:05:30.738Z</time></trkpt><trkpt lat="44.49378" lon="11.297135"><ele>50.142857142857146</ele><time>2026-03-28T07:05:31.738Z</time></trkpt><trkpt lat="44.4937433" lon="11.2972217"><ele>50.285714285714285</ele><time>2026-03-28T07:05:32.738Z</time></trkpt><trkpt lat="44.4937183" lon="11.29731"><ele>50.42857142857143</ele><time>2026-03-28T07:05:33.738Z</time></trkpt><trkpt lat="44.493695" lon="11.2973967"><ele>50.57142857142857</ele><time>2026-03-28T07:05:34.738Z</time></trkpt><trkpt lat="44.4936717" lon="11.2974833"><ele>50.714285714285715</ele><time>2026-03-28T07:05:35.738Z</time></trkpt><trkpt lat="44.4936467" lon="11.2975717"><ele>50.85714285714286</ele><time>2026-03-28T07:05:36.738Z</time></trkpt><trkpt lat="44.4936267" lon="11.297665"><ele>51.0</ele><time>2026-03-28T07:05:37.737Z</time></trkpt><trkpt lat="44.4936067" lon="11.2977583"><ele>51.142857142857146</ele><time>2026-03-28T07:05:38.738Z</time></trkpt><trkpt lat="44.4935883" lon="11.297845"><ele>51.28571428571429</ele><time>2026-03-28T07:05:39.738Z</time></trkpt><trkpt lat="44.49357" lon="11.2979367"><ele>51.42857142857143</ele><time>2026-03-28T07:05:40.738Z</time></trkpt><trkpt lat="44.4935517" lon="11.29803"><ele>51.57142857142857</ele><time>2026-03-28T07:05:41.738Z</time></trkpt><trkpt lat="44.493535" lon="11.2981233"><ele>51.714285714285715</ele><time>2026-03-28T07:05:42.738Z</time></trkpt><trkpt lat="44.49352" lon="11.2982167"><ele>51.857142857142854</ele><time>2026-03-28T07:05:43.738Z</time></trkpt><trkpt lat="44.4934983" lon="11.2983067"><ele>52.0</ele><time>2026-03-28T07:05:44.738Z</time></trkpt><trkpt lat="44.493475" lon="11.2984"><ele>52.14285714285714</ele><time>2026-03-28T07:05:45.737Z</time></trkpt><trkpt lat="44.4934567" lon="11.2984967"><ele>52.28571428571429</ele><time>2026-03-28T07:05:46.738Z</time></trkpt><trkpt lat="44.493435" lon="11.2985817"><ele>52.42857142857143</ele><time>2026-03-28T07:05:47.738Z</time></trkpt><trkpt lat="44.4934133" lon="11.29867"><ele>52.57142857142857</ele><time>2026-03-28T07:05:48.738Z</time></trkpt><trkpt lat="44.4933917" lon="11.298765"><ele>52.71428571428571</ele><time>2026-03-28T07:05:49.738Z</time></trkpt><trkpt lat="44.4933667" lon="11.298855"><ele>52.85714285714286</ele><time>2026-03-28T07:05:50.738Z</time></trkpt><trkpt lat="44.4933383" lon="11.2989417"><ele>53.0</ele><time>2026-03-28T07:05:51.738Z</time></trkpt><trkpt lat="44.4933183" lon="11.2990267"><ele>53.142857142857146</ele><time>2026-03-28T07:05:52.738Z</time></trkpt><trkpt lat="44.493295" lon="11.2991167"><ele>53.285714285714285</ele><time>2026-03-28T07:05:53.738Z</time></trkpt><trkpt lat="44.4932733" lon="11.2992"><ele>53.42857142857143</ele><time>2026-03-28T07:05:54.738Z</time></trkpt><trkpt lat="44.4932467" lon="11.29929"><ele>53.57142857142857</ele><time>2026-03-28T07:05:55.738Z</time></trkpt><trkpt lat="44.4932167" lon="11.2993767"><ele>53.71428571428571</ele><time>2026-03-28T07:05:56.738Z</time></trkpt><trkpt lat="44.493185" lon="11.2994583"><ele>53.857142857142854</ele><time>2026-03-28T07:05:57.738Z</time></trkpt><trkpt lat="44.4931583" lon="11.299545"><ele>54.0</ele><time>2026-03-28T07:05:58.738Z</time></trkpt><trkpt lat="44.4931367" lon="11.299635"><ele>54.0</ele><time>2026-03-28T07:05:59.738Z</time></trkpt><trkpt lat="44.49311" lon="11.2997233"><ele>54.0</ele><time>2026-03-28T07:06:00.738Z</time></trkpt><trkpt lat="44.4930833" lon="11.2998083"><ele>54.0</ele><time>2026-03-28T07:06:01.738Z</time></trkpt><trkpt lat="44.4930583" lon="11.2998933"><ele>54.0</ele><time>2026-03-28T07:06:02.738Z</time></trkpt><trkpt lat="44.4930317" lon="11.2999767"><ele>54.0</ele><time>2026-03-28T07:06:03.738Z</time></trkpt><trkpt lat="44.493005" lon="11.30006"><ele>54.0</ele><time>2026-03-28T07:06:04.737Z</time></trkpt><trkpt lat="44.4929767" lon="11.30014"><ele>54.0</ele><time>2026-03-28T07:06:05.738Z</time></trkpt><trkpt lat="44.4929483" lon="11.30022"><ele>54.833333333333336</ele><time>2026-03-28T07:06:06.738Z</time></trkpt><trkpt lat="44.4928967" lon="11.3003733"><ele>55.66666666666667</ele><time>2026-03-28T07:06:08.738Z</time></trkpt><trkpt lat="44.492875" lon="11.3004583"><ele>56.5</ele><time>2026-03-28T07:06:09.738Z</time></trkpt><trkpt lat="44.4928533" lon="11.300545"><ele>57.333333333333336</ele><time>2026-03-28T07:06:10.738Z</time></trkpt><trkpt lat="44.4928267" lon="11.30063"><ele>58.16666666666667</ele><time>2026-03-28T07:06:11.738Z</time></trkpt><trkpt lat="44.4928017" lon="11.3007183"><ele>59.0</ele><time>2026-03-28T07:06:12.737Z</time></trkpt><trkpt lat="44.4927783" lon="11.300805"><ele>59.0</ele><time>2026-03-28T07:06:13.738Z</time></trkpt><trkpt lat="44.4927583" lon="11.3008933"><ele>59.00000000000001</ele><time>2026-03-28T07:06:14.738Z</time></trkpt><trkpt lat="44.4927117" lon="11.30105"><ele>59.00000000000001</ele><time>2026-03-28T07:06:16.738Z</time></trkpt><trkpt lat="44.4926667" lon="11.3011983"><ele>59.0</ele><time>2026-03-28T07:06:18.738Z</time></trkpt><trkpt lat="44.4926217" lon="11.301335"><ele>59.0</ele><time>2026-03-28T07:06:20.738Z</time></trkpt><trkpt lat="44.4925917" lon="11.301485"><ele>58.6</ele><time>2026-03-28T07:06:22.738Z</time></trkpt><trkpt lat="44.4925467" lon="11.3016117"><ele>58.2</ele><time>2026-03-28T07:06:24.738Z</time></trkpt><trkpt lat="44.4924917" lon="11.3017333"><ele>57.800000000000004</ele><time>2026-03-28T07:06:26.738Z</time></trkpt><trkpt lat="44.4924183" lon="11.3018483"><ele>57.400000000000006</ele><time>2026-03-28T07:06:28.738Z</time></trkpt><trkpt lat="44.4923283" lon="11.3019583"><ele>57.0</ele><time>2026-03-28T07:06:30.738Z</time></trkpt><trkpt lat="44.4922333" lon="11.302045"><ele>57.0</ele><time>2026-03-28T07:06:32.738Z</time></trkpt><trkpt lat="44.492135" lon="11.302065"><ele>57.0</ele><time>2026-03-28T07:06:34.738Z</time></trkpt><trkpt lat="44.4920533" lon="11.3020567"><ele>57.0</ele><time>2026-03-28T07:06:36.738Z</time></trkpt><trkpt lat="44.4919833" lon="11.3020883"><ele>57.0</ele><time>2026-03-28T07:06:40.137Z</time></trkpt><trkpt lat="44.491985" lon="11.3022183"><ele>57.0</ele><time>2026-03-28T07:06:42.238Z</time></trkpt><trkpt lat="44.4920583" lon="11.3022783"><ele>57.0</ele><time>2026-03-28T07:06:44.738Z</time></trkpt><trkpt lat="44.4921217" lon="11.3022967"><ele>57.166666666666664</ele><time>2026-03-28T07:06:47.738Z</time></trkpt><trkpt lat="44.4922267" lon="11.3023567"><ele>57.33333333333333</ele><time>2026-03-28T07:07:40.738Z</time></trkpt><trkpt lat="44.4923083" lon="11.302395"><ele>57.5</ele><time>2026-03-28T07:07:42.739Z</time></trkpt><trkpt lat="44.492365" lon="11.30244"><ele>57.666666666666664</ele><time>2026-03-28T07:07:43.739Z</time></trkpt><trkpt lat="44.4924283" lon="11.302485"><ele>57.83333333333333</ele><time>2026-03-28T07:07:44.739Z</time></trkpt><trkpt lat="44.49248" lon="11.3025383"><ele>58.0</ele><time>2026-03-28T07:07:45.739Z</time></trkpt><trkpt lat="44.492535" lon="11.302605"><ele>57.99999999999999</ele><time>2026-03-28T07:07:46.739Z</time></trkpt><trkpt lat="44.4925783" lon="11.3026833"><ele>58.0</ele><time>2026-03-28T07:07:47.739Z</time></trkpt><trkpt lat="44.4926217" lon="11.3027783"><ele>58.0</ele><time>2026-03-28T07:07:48.739Z</time></trkpt><trkpt lat="44.4926617" lon="11.302865"><ele>58.0</ele><time>2026-03-28T07:07:49.739Z</time></trkpt><trkpt lat="44.4926967" lon="11.3029583"><ele>57.99999999999999</ele><time>2026-03-28T07:07:50.738Z</time></trkpt><trkpt lat="44.4927283" lon="11.30306"><ele>58.0</ele><time>2026-03-28T07:07:51.739Z</time></trkpt><trkpt lat="44.49276" lon="11.3031517"><ele>58.25</ele><time>2026-03-28T07:07:52.739Z</time></trkpt><trkpt lat="44.4927883" lon="11.3032367"><ele>58.5</ele><time>2026-03-28T07:07:53.738Z</time></trkpt><trkpt lat="44.4928633" lon="11.30351"><ele>58.75</ele><time>2026-03-28T07:07:56.236Z</time></trkpt><trkpt lat="44.4928533" lon="11.3036933"><ele>59.0</ele><time>2026-03-28T07:07:58.742Z</time></trkpt><trkpt lat="44.4928717" lon="11.3037983"><ele>59.0</ele><time>2026-03-28T07:07:59.742Z</time></trkpt><trkpt lat="44.4928867" lon="11.3038917"><ele>59.0</ele><time>2026-03-28T07:08:00.742Z</time></trkpt><trkpt lat="44.4928983" lon="11.3039867"><ele>59.0</ele><time>2026-03-28T07:08:01.742Z</time></trkpt><trkpt lat="44.492905" lon="11.30409"><ele>59.0</ele><time>2026-03-28T07:08:02.742Z</time></trkpt><trkpt lat="44.49292" lon="11.3041867"><ele>59.0</ele><time>2026-03-28T07:08:03.742Z</time></trkpt><trkpt lat="44.4929333" lon="11.3042833"><ele>59.0</ele><time>2026-03-28T07:08:04.742Z</time></trkpt><trkpt lat="44.492945" lon="11.304385"><ele>59.0</ele><time>2026-03-28T07:08:05.742Z</time></trkpt><trkpt lat="44.4929567" lon="11.3044817"><ele>57.66666666666667</ele><time>2026-03-28T07:08:06.742Z</time></trkpt><trkpt lat="44.4929717" lon="11.3045767"><ele>56.333333333333336</ele><time>2026-03-28T07:08:07.742Z</time></trkpt><trkpt lat="44.492985" lon="11.304675"><ele>55.0</ele><time>2026-03-28T07:08:08.742Z</time></trkpt><trkpt lat="44.4929883" lon="11.3047683"><ele>53.66666666666667</ele><time>2026-03-28T07:08:09.742Z</time></trkpt><trkpt lat="44.49303" lon="11.30493"><ele>52.333333333333336</ele><time>2026-03-28T07:08:11.741Z</time></trkpt><trkpt lat="44.493045" lon="11.3050233"><ele>51.0</ele><time>2026-03-28T07:08:12.742Z</time></trkpt><trkpt lat="44.4930567" lon="11.30512"><ele>51.0</ele><time>2026-03-28T07:08:13.741Z</time></trkpt><trkpt lat="44.4930767" lon="11.30521"><ele>51.0</ele><time>2026-03-28T07:08:14.742Z</time></trkpt><trkpt lat="44.4930867" lon="11.3053"><ele>51.0</ele><time>2026-03-28T07:08:15.742Z</time></trkpt><trkpt lat="44.4931083" lon="11.30539"><ele>51.0</ele><time>2026-03-28T07:08:16.741Z</time></trkpt><trkpt lat="44.4931233" lon="11.3055483"><ele>51.0</ele><time>2026-03-28T07:08:18.741Z</time></trkpt><trkpt lat="44.493155" lon="11.3057"><ele>51.0</ele><time>2026-03-28T07:08:20.741Z</time></trkpt><trkpt lat="44.4931683" lon="11.3058567"><ele>51.4</ele><time>2026-03-28T07:08:22.742Z</time></trkpt><trkpt lat="44.4931817" lon="11.3060133"><ele>51.8</ele><time>2026-03-28T07:08:24.742Z</time></trkpt><trkpt lat="44.4932017" lon="11.3061667"><ele>52.199999999999996</ele><time>2026-03-28T07:08:26.742Z</time></trkpt><trkpt lat="44.4932283" lon="11.3063167"><ele>52.599999999999994</ele><time>2026-03-28T07:08:28.742Z</time></trkpt><trkpt lat="44.4932517" lon="11.3064583"><ele>53.0</ele><time>2026-03-28T07:08:30.742Z</time></trkpt><trkpt lat="44.4932767" lon="11.3066033"><ele>53.4</ele><time>2026-03-28T07:08:32.741Z</time></trkpt><trkpt lat="44.49329" lon="11.3067517"><ele>53.8</ele><time>2026-03-28T07:08:34.742Z</time></trkpt><trkpt lat="44.4933017" lon="11.3068883"><ele>54.2</ele><time>2026-03-28T07:08:36.742Z</time></trkpt><trkpt lat="44.4933133" lon="11.3070133"><ele>54.6</ele><time>2026-03-28T07:08:38.742Z</time></trkpt><trkpt lat="44.4933283" lon="11.3071433"><ele>55.0</ele><time>2026-03-28T07:08:40.742Z</time></trkpt><trkpt lat="44.4933467" lon="11.3072967"><ele>55.0</ele><time>2026-03-28T07:08:42.742Z</time></trkpt><trkpt lat="44.4933667" lon="11.3074567"><ele>55.0</ele><time>2026-03-28T07:08:44.741Z</time></trkpt><trkpt lat="44.4933967" lon="11.3076117"><ele>55.0</ele><time>2026-03-28T07:08:46.742Z</time></trkpt><trkpt lat="44.4934167" lon="11.3077533"><ele>55.0</ele><time>2026-03-28T07:08:48.742Z</time></trkpt><trkpt lat="44.4934333" lon="11.307845"><ele>55.0</ele><time>2026-03-28T07:08:50.742Z</time></trkpt><trkpt lat="44.4934583" lon="11.3079283"><ele>55.0</ele><time>2026-03-28T07:08:58.741Z</time></trkpt><trkpt lat="44.4934633" lon="11.3080267"><ele>55.0</ele><time>2026-03-28T07:09:00.742Z</time></trkpt><trkpt lat="44.4934783" lon="11.3081533"><ele>55.0</ele><time>2026-03-28T07:09:02.741Z</time></trkpt><trkpt lat="44.4935033" lon="11.3082983"><ele>55.0</ele><time>2026-03-28T07:09:04.742Z</time></trkpt><trkpt lat="44.493605" lon="11.3083217"><ele>55.0</ele><time>2026-03-28T07:09:06.835Z</time></trkpt><trkpt lat="44.493595" lon="11.3085883"><ele>55.166666666666664</ele><time>2026-03-28T07:09:08.054Z</time></trkpt><trkpt lat="44.493615" lon="11.3086733"><ele>55.33333333333333</ele><time>2026-03-28T07:09:09.239Z</time></trkpt><trkpt lat="44.49365" lon="11.308835"><ele>55.5</ele><time>2026-03-28T07:09:11.239Z</time></trkpt><trkpt lat="44.493655" lon="11.3089817"><ele>55.66666666666667</ele><time>2026-03-28T07:09:12.739Z</time></trkpt><trkpt lat="44.4936617" lon="11.3090767"><ele>55.833333333333336</ele><time>2026-03-28T07:09:13.739Z</time></trkpt><trkpt lat="44.49366" lon="11.3091817"><ele>56.0</ele><time>2026-03-28T07:09:14.739Z</time></trkpt><trkpt lat="44.4936683" lon="11.3092717"><ele>56.833333333333336</ele><time>2026-03-28T07:09:15.738Z</time></trkpt><trkpt lat="44.4936767" lon="11.3093717"><ele>57.66666666666667</ele><time>2026-03-28T07:09:16.739Z</time></trkpt><trkpt lat="44.4936933" lon="11.3095433"><ele>58.5</ele><time>2026-03-28T07:09:18.739Z</time></trkpt><trkpt lat="44.4937183" lon="11.3097167"><ele>59.33333333333333</ele><time>2026-03-28T07:09:20.738Z</time></trkpt><trkpt lat="44.4937317" lon="11.309805"><ele>60.166666666666664</ele><time>2026-03-28T07:09:21.738Z</time></trkpt><trkpt lat="44.493745" lon="11.3098917"><ele>61.0</ele><time>2026-03-28T07:09:22.739Z</time></trkpt><trkpt lat="44.493755" lon="11.3099817"><ele>60.166666666666664</ele><time>2026-03-28T07:09:23.739Z</time></trkpt><trkpt lat="44.4937667" lon="11.31007"><ele>59.33333333333333</ele><time>2026-03-28T07:09:24.739Z</time></trkpt><trkpt lat="44.4937817" lon="11.3101567"><ele>58.5</ele><time>2026-03-28T07:09:25.739Z</time></trkpt><trkpt lat="44.493795" lon="11.310245"><ele>57.66666666666667</ele><time>2026-03-28T07:09:26.739Z</time></trkpt><trkpt lat="44.4938117" lon="11.310335"><ele>56.833333333333336</ele><time>2026-03-28T07:09:27.739Z</time></trkpt><trkpt lat="44.4938467" lon="11.310495"><ele>56.0</ele><time>2026-03-28T07:09:29.738Z</time></trkpt><trkpt lat="44.4938817" lon="11.31065"><ele>56.0</ele><time>2026-03-28T07:09:31.739Z</time></trkpt><trkpt lat="44.493895" lon="11.3107933"><ele>55.99999999999999</ele><time>2026-03-28T07:09:33.738Z</time></trkpt><trkpt lat="44.493845" lon="11.3108767"><ele>55.99999999999999</ele><time>2026-03-28T07:09:35.738Z</time></trkpt><trkpt lat="44.49375" lon="11.3108933"><ele>56.0</ele><time>2026-03-28T07:09:37.738Z</time></trkpt><trkpt lat="44.4936417" lon="11.3108967"><ele>56.0</ele><time>2026-03-28T07:09:39.739Z</time></trkpt><trkpt lat="44.4935317" lon="11.3109133"><ele>57.75</ele><time>2026-03-28T07:09:41.739Z</time></trkpt><trkpt lat="44.493405" lon="11.31093"><ele>59.5</ele><time>2026-03-28T07:09:43.738Z</time></trkpt><trkpt lat="44.4932817" lon="11.3109417"><ele>61.25</ele><time>2026-03-28T07:09:45.738Z</time></trkpt><trkpt lat="44.49317" lon="11.3109483"><ele>63.0</ele><time>2026-03-28T07:09:47.739Z</time></trkpt><trkpt lat="44.49306" lon="11.310955"><ele>63.0</ele><time>2026-03-28T07:09:49.739Z</time></trkpt><trkpt lat="44.4929467" lon="11.310975"><ele>63.0</ele><time>2026-03-28T07:09:51.739Z</time></trkpt><trkpt lat="44.4928317" lon="11.3109917"><ele>63.0</ele><time>2026-03-28T07:09:53.739Z</time></trkpt><trkpt lat="44.49272" lon="11.3110017"><ele>63.0</ele><time>2026-03-28T07:09:55.739Z</time></trkpt><trkpt lat="44.4926083" lon="11.311015"><ele>63.2</ele><time>2026-03-28T07:09:57.739Z</time></trkpt><trkpt lat="44.4924983" lon="11.311025"><ele>63.4</ele><time>2026-03-28T07:09:59.738Z</time></trkpt><trkpt lat="44.492385" lon="11.31103"><ele>63.60000000000001</ele><time>2026-03-28T07:10:01.738Z</time></trkpt><trkpt lat="44.4922717" lon="11.3110467"><ele>63.800000000000004</ele><time>2026-03-28T07:10:03.739Z</time></trkpt><trkpt lat="44.4921617" lon="11.3110583"><ele>64.0</ele><time>2026-03-28T07:10:05.739Z</time></trkpt><trkpt lat="44.4920533" lon="11.311075"><ele>64.2</ele><time>2026-03-28T07:10:07.739Z</time></trkpt><trkpt lat="44.491945" lon="11.311095"><ele>64.4</ele><time>2026-03-28T07:10:09.739Z</time></trkpt><trkpt lat="44.4918367" lon="11.3111233"><ele>64.6</ele><time>2026-03-28T07:10:11.738Z</time></trkpt><trkpt lat="44.4917267" lon="11.3111383"><ele>64.8</ele><time>2026-03-28T07:10:13.739Z</time></trkpt><trkpt lat="44.4916183" lon="11.311155"><ele>65.0</ele><time>2026-03-28T07:10:15.739Z</time></trkpt><trkpt lat="44.4915033" lon="11.311175"><ele>65.0</ele><time>2026-03-28T07:10:17.739Z</time></trkpt><trkpt lat="44.49142" lon="11.31123"><ele>65.0</ele><time>2026-03-28T07:10:21.242Z</time></trkpt><trkpt lat="44.491375" lon="11.3113017"><ele>65.0</ele><time>2026-03-28T07:10:22.449Z</time></trkpt><trkpt lat="44.49119" lon="11.31139"><ele>65.0</ele><time>2026-03-28T07:10:23.74Z</time></trkpt><trkpt lat="44.4910983" lon="11.31137"><ele>65.0</ele><time>2026-03-28T07:10:25.74Z</time></trkpt><trkpt lat="44.4910317" lon="11.31137"><ele>65.6</ele><time>2026-03-28T07:10:26.74Z</time></trkpt><trkpt lat="44.4909167" lon="11.3113717"><ele>66.2</ele><time>2026-03-28T07:10:28.74Z</time></trkpt><trkpt lat="44.4908117" lon="11.3113467"><ele>66.8</ele><time>2026-03-28T07:10:30.739Z</time></trkpt><trkpt lat="44.4907083" lon="11.311345"><ele>67.4</ele><time>2026-03-28T07:10:32.74Z</time></trkpt><trkpt lat="44.4906233" lon="11.3113617"><ele>68.0</ele><time>2026-03-28T07:10:34.739Z</time></trkpt><trkpt lat="44.49055" lon="11.3113683"><ele>68.0</ele><time>2026-03-28T07:10:38.74Z</time></trkpt><trkpt lat="44.4904817" lon="11.3113783"><ele>68.0</ele><time>2026-03-28T07:10:41.74Z</time></trkpt><trkpt lat="44.4903967" lon="11.3113883"><ele>68.0</ele><time>2026-03-28T07:10:44.74Z</time></trkpt><trkpt lat="44.49031" lon="11.3113933"><ele>68.0</ele><time>2026-03-28T07:10:47.741Z</time></trkpt><trkpt lat="44.4902283" lon="11.3113967"><ele>68.0</ele><time>2026-03-28T07:10:50.741Z</time></trkpt><trkpt lat="44.49017" lon="11.311445"><ele>68.0</ele><time>2026-03-28T07:12:22.741Z</time></trkpt><trkpt lat="44.4901033" lon="11.31154"><ele>68.85714285714285</ele><time>2026-03-28T07:12:25.741Z</time></trkpt><trkpt lat="44.4900617" lon="11.31166"><ele>69.71428571428571</ele><time>2026-03-28T07:12:27.741Z</time></trkpt><trkpt lat="44.49004" lon="11.3117517"><ele>70.57142857142857</ele><time>2026-03-28T07:12:28.741Z</time></trkpt><trkpt lat="44.4900317" lon="11.3118433"><ele>71.42857142857142</ele><time>2026-03-28T07:12:29.741Z</time></trkpt><trkpt lat="44.4900183" lon="11.3119417"><ele>72.28571428571428</ele><time>2026-03-28T07:12:30.741Z</time></trkpt><trkpt lat="44.490005" lon="11.31203"><ele>73.14285714285714</ele><time>2026-03-28T07:12:31.741Z</time></trkpt><trkpt lat="44.489995" lon="11.3121233"><ele>74.0</ele><time>2026-03-28T07:12:32.741Z</time></trkpt><trkpt lat="44.489995" lon="11.3122183"><ele>74.42857142857143</ele><time>2026-03-28T07:12:33.741Z</time></trkpt><trkpt lat="44.4899917" lon="11.3123117"><ele>74.85714285714286</ele><time>2026-03-28T07:12:34.741Z</time></trkpt><trkpt lat="44.4900017" lon="11.312415"><ele>75.28571428571428</ele><time>2026-03-28T07:12:35.741Z</time></trkpt><trkpt lat="44.4900067" lon="11.3125083"><ele>75.71428571428572</ele><time>2026-03-28T07:12:36.74Z</time></trkpt><trkpt lat="44.4900067" lon="11.3126033"><ele>76.14285714285714</ele><time>2026-03-28T07:12:37.741Z</time></trkpt><trkpt lat="44.4900117" lon="11.3126983"><ele>76.57142857142857</ele><time>2026-03-28T07:12:38.741Z</time></trkpt><trkpt lat="44.4900167" lon="11.3127867"><ele>77.0</ele><time>2026-03-28T07:12:39.741Z</time></trkpt><trkpt lat="44.4900217" lon="11.3128767"><ele>77.0</ele><time>2026-03-28T07:12:40.74Z</time></trkpt><trkpt lat="44.490025" lon="11.3129683"><ele>77.0</ele><time>2026-03-28T07:12:41.741Z</time></trkpt><trkpt lat="44.4900267" lon="11.3130617"><ele>77.0</ele><time>2026-03-28T07:12:42.741Z</time></trkpt><trkpt lat="44.4900283" lon="11.3131567"><ele>77.0</ele><time>2026-03-28T07:12:43.741Z</time></trkpt><trkpt lat="44.49003" lon="11.313245"><ele>77.0</ele><time>2026-03-28T07:12:44.741Z</time></trkpt><trkpt lat="44.490025" lon="11.3134133"><ele>77.0</ele><time>2026-03-28T07:12:46.741Z</time></trkpt><trkpt lat="44.4900283" lon="11.3135867"><ele>77.0</ele><time>2026-03-28T07:12:48.74Z</time></trkpt><trkpt lat="44.4900317" lon="11.313765"><ele>77.0</ele><time>2026-03-28T07:12:50.741Z</time></trkpt><trkpt lat="44.4900317" lon="11.3138533"><ele>77.0</ele><time>2026-03-28T07:12:51.74Z</time></trkpt><trkpt lat="44.4900267" lon="11.3140267"><ele>77.0</ele><time>2026-03-28T07:12:53.741Z</time></trkpt><trkpt lat="44.4900017" lon="11.3141967"><ele>77.0</ele><time>2026-03-28T07:12:55.741Z</time></trkpt><trkpt lat="44.4899467" lon="11.3143517"><ele>77.0</ele><time>2026-03-28T07:12:57.741Z</time></trkpt><trkpt lat="44.48991" lon="11.31443"><ele>77.0</ele><time>2026-03-28T07:12:58.741Z</time></trkpt><trkpt lat="44.4898283" lon="11.3145667"><ele>77.0</ele><time>2026-03-28T07:13:00.741Z</time></trkpt><trkpt lat="44.4897867" lon="11.3146367"><ele>77.0</ele><time>2026-03-28T07:13:01.741Z</time></trkpt><trkpt lat="44.4897417" lon="11.3147133"><ele>77.0</ele><time>2026-03-28T07:13:02.741Z</time></trkpt><trkpt lat="44.4897" lon="11.3147883"><ele>77.0</ele><time>2026-03-28T07:13:03.74Z</time></trkpt><trkpt lat="44.4896583" lon="11.31487"><ele>76.14285714285714</ele><time>2026-03-28T07:13:04.74Z</time></trkpt><trkpt lat="44.4896167" lon="11.3149517"><ele>75.28571428571428</ele><time>2026-03-28T07:13:05.741Z</time></trkpt><trkpt lat="44.4895767" lon="11.31504"><ele>74.42857142857143</ele><time>2026-03-28T07:13:06.741Z</time></trkpt><trkpt lat="44.4895367" lon="11.3151183"><ele>73.57142857142857</ele><time>2026-03-28T07:13:07.74Z</time></trkpt><trkpt lat="44.489495" lon="11.3152017"><ele>72.71428571428571</ele><time>2026-03-28T07:13:08.74Z</time></trkpt><trkpt lat="44.4894533" lon="11.31528"><ele>71.85714285714286</ele><time>2026-03-28T07:13:09.74Z</time></trkpt><trkpt lat="44.4894083" lon="11.31536"><ele>71.0</ele><time>2026-03-28T07:13:10.741Z</time></trkpt><trkpt lat="44.4893667" lon="11.3154433"><ele>71.57142857142857</ele><time>2026-03-28T07:13:11.74Z</time></trkpt><trkpt lat="44.4893217" lon="11.3155267"><ele>72.14285714285714</ele><time>2026-03-28T07:13:12.741Z</time></trkpt><trkpt lat="44.4892783" lon="11.3156067"><ele>72.71428571428571</ele><time>2026-03-28T07:13:13.74Z</time></trkpt><trkpt lat="44.4892333" lon="11.3156833"><ele>73.28571428571428</ele><time>2026-03-28T07:13:14.74Z</time></trkpt><trkpt lat="44.4891883" lon="11.3157667"><ele>73.85714285714286</ele><time>2026-03-28T07:13:15.741Z</time></trkpt><trkpt lat="44.4891483" lon="11.3158467"><ele>74.42857142857142</ele><time>2026-03-28T07:13:16.74Z</time></trkpt><trkpt lat="44.4891067" lon="11.3159217"><ele>75.0</ele><time>2026-03-28T07:13:17.741Z</time></trkpt><trkpt lat="44.489065" lon="11.31599"><ele>75.0</ele><time>2026-03-28T07:13:18.741Z</time></trkpt><trkpt lat="44.4889917" lon="11.3161283"><ele>75.0</ele><time>2026-03-28T07:13:20.74Z</time></trkpt><trkpt lat="44.488915" lon="11.3162417"><ele>75.0</ele><time>2026-03-28T07:13:22.741Z</time></trkpt><trkpt lat="44.4888367" lon="11.3162667"><ele>75.0</ele><time>2026-03-28T07:13:24.741Z</time></trkpt><trkpt lat="44.4887733" lon="11.3161617"><ele>75.0</ele><time>2026-03-28T07:13:26.741Z</time></trkpt><trkpt lat="44.4887133" lon="11.316025"><ele>75.2</ele><time>2026-03-28T07:13:28.741Z</time></trkpt><trkpt lat="44.4886317" lon="11.315925"><ele>75.4</ele><time>2026-03-28T07:13:30.74Z</time></trkpt><trkpt lat="44.48852" lon="11.3158617"><ele>75.6</ele><time>2026-03-28T07:13:32.741Z</time></trkpt><trkpt lat="44.4883967" lon="11.3158117"><ele>75.8</ele><time>2026-03-28T07:13:34.741Z</time></trkpt><trkpt lat="44.488335" lon="11.315785"><ele>76.0</ele><time>2026-03-28T07:13:35.74Z</time></trkpt><trkpt lat="44.4882133" lon="11.31574"><ele>76.0</ele><time>2026-03-28T07:13:37.741Z</time></trkpt><trkpt lat="44.488095" lon="11.315695"><ele>76.0</ele><time>2026-03-28T07:13:39.741Z</time></trkpt><trkpt lat="44.4879767" lon="11.315645"><ele>76.0</ele><time>2026-03-28T07:13:41.74Z</time></trkpt><trkpt lat="44.4878633" lon="11.3155917"><ele>76.0</ele><time>2026-03-28T07:13:43.741Z</time></trkpt><trkpt lat="44.48775" lon="11.315555"><ele>78.25</ele><time>2026-03-28T07:13:45.741Z</time></trkpt><trkpt lat="44.4876333" lon="11.3155117"><ele>80.5</ele><time>2026-03-28T07:13:47.741Z</time></trkpt><trkpt lat="44.4875217" lon="11.3154633"><ele>82.75</ele><time>2026-03-28T07:13:49.74Z</time></trkpt><trkpt lat="44.4874083" lon="11.3154067"><ele>85.0</ele><time>2026-03-28T07:13:51.741Z</time></trkpt><trkpt lat="44.487585" lon="11.3150867"><ele>85.0</ele><time>2026-03-28T07:13:54.237Z</time></trkpt><trkpt lat="44.4875" lon="11.3151283"><ele>85.0</ele><time>2026-03-28T07:13:55.429Z</time></trkpt><trkpt lat="44.4873783" lon="11.3151783"><ele>85.0</ele><time>2026-03-28T07:13:56.74Z</time></trkpt><trkpt lat="44.4872" lon="11.3153517"><ele>85.0</ele><time>2026-03-28T07:13:57.741Z</time></trkpt><trkpt lat="44.4871217" lon="11.3153533"><ele>83.6</ele><time>2026-03-28T07:13:58.741Z</time></trkpt><trkpt lat="44.4870567" lon="11.3153617"><ele>82.2</ele><time>2026-03-28T07:13:59.741Z</time></trkpt><trkpt lat="44.4869867" lon="11.3153567"><ele>80.8</ele><time>2026-03-28T07:14:00.741Z</time></trkpt><trkpt lat="44.486875" lon="11.3153017"><ele>79.4</ele><time>2026-03-28T07:14:02.741Z</time></trkpt><trkpt lat="44.4867817" lon="11.3152183"><ele>78.0</ele><time>2026-03-28T07:14:04.741Z</time></trkpt><trkpt lat="44.48668" lon="11.3151533"><ele>78.0</ele><time>2026-03-28T07:14:06.74Z</time></trkpt><trkpt lat="44.4866033" lon="11.3151017"><ele>78.0</ele><time>2026-03-28T07:14:08.741Z</time></trkpt><trkpt lat="44.4865233" lon="11.3150683"><ele>78.0</ele><time>2026-03-28T07:14:10.741Z</time></trkpt><trkpt lat="44.4864383" lon="11.3150433"><ele>78.0</ele><time>2026-03-28T07:14:12.741Z</time></trkpt><trkpt lat="44.486355" lon="11.3150317"><ele>78.0</ele><time>2026-03-28T07:14:14.741Z</time></trkpt><trkpt lat="44.486265" lon="11.3150383"><ele>78.0</ele><time>2026-03-28T07:14:16.741Z</time></trkpt><trkpt lat="44.48617" lon="11.3150283"><ele>78.8</ele><time>2026-03-28T07:14:18.741Z</time></trkpt><trkpt lat="44.4860633" lon="11.3150183"><ele>79.6</ele><time>2026-03-28T07:14:20.741Z</time></trkpt><trkpt lat="44.4859617" lon="11.3149683"><ele>80.39999999999999</ele><time>2026-03-28T07:14:22.74Z</time></trkpt><trkpt lat="44.4858633" lon="11.3149633"><ele>81.19999999999999</ele><time>2026-03-28T07:14:24.741Z</time></trkpt><trkpt lat="44.4857767" lon="11.314945"><ele>82.0</ele><time>2026-03-28T07:14:26.742Z</time></trkpt><trkpt lat="44.4856983" lon="11.3149367"><ele>82.0</ele><time>2026-03-28T07:14:28.741Z</time></trkpt><trkpt lat="44.4856133" lon="11.314945"><ele>82.0</ele><time>2026-03-28T07:14:30.742Z</time></trkpt><trkpt lat="44.4855317" lon="11.3149317"><ele>82.0</ele><time>2026-03-28T07:14:32.741Z</time></trkpt><trkpt lat="44.48544" lon="11.314915"><ele>82.0</ele><time>2026-03-28T07:14:34.742Z</time></trkpt><trkpt lat="44.4853317" lon="11.3149033"><ele>82.0</ele><time>2026-03-28T07:14:36.742Z</time></trkpt><trkpt lat="44.4852683" lon="11.3149033"><ele>82.0</ele><time>2026-03-28T07:14:37.742Z</time></trkpt><trkpt lat="44.4851583" lon="11.3149033"><ele>82.0</ele><time>2026-03-28T07:14:39.742Z</time></trkpt><trkpt lat="44.4850333" lon="11.31491"><ele>82.0</ele><time>2026-03-28T07:14:41.742Z</time></trkpt><trkpt lat="44.4849133" lon="11.3149483"><ele>82.0</ele><time>2026-03-28T07:14:43.742Z</time></trkpt><trkpt lat="44.4847933" lon="11.3149667"><ele>82.0</ele><time>2026-03-28T07:14:45.742Z</time></trkpt><trkpt lat="44.4846817" lon="11.31498"><ele>82.39999999999999</ele><time>2026-03-28T07:14:47.741Z</time></trkpt><trkpt lat="44.4845833" lon="11.314985"><ele>82.8</ele><time>2026-03-28T07:14:49.742Z</time></trkpt><trkpt lat="44.4844783" lon="11.31498"><ele>83.2</ele><time>2026-03-28T07:14:51.742Z</time></trkpt><trkpt lat="44.4843767" lon="11.3149983"><ele>83.6</ele><time>2026-03-28T07:14:53.741Z</time></trkpt><trkpt lat="44.48427" lon="11.3150083"><ele>84.0</ele><time>2026-03-28T07:14:55.742Z</time></trkpt><trkpt lat="44.4841517" lon="11.3150183"><ele>84.0</ele><time>2026-03-28T07:14:57.742Z</time></trkpt><trkpt lat="44.484085" lon="11.31501"><ele>84.0</ele><time>2026-03-28T07:14:58.742Z</time></trkpt><trkpt lat="44.4840217" lon="11.3150083"><ele>84.0</ele><time>2026-03-28T07:14:59.741Z</time></trkpt><trkpt lat="44.4839567" lon="11.3149817"><ele>84.0</ele><time>2026-03-28T07:15:00.742Z</time></trkpt><trkpt lat="44.483895" lon="11.3149467"><ele>84.0</ele><time>2026-03-28T07:15:01.741Z</time></trkpt><trkpt lat="44.4838283" lon="11.3148967"><ele>84.0</ele><time>2026-03-28T07:15:02.742Z</time></trkpt><trkpt lat="44.4837683" lon="11.314845"><ele>84.0</ele><time>2026-03-28T07:15:03.742Z</time></trkpt><trkpt lat="44.4837117" lon="11.3147917"><ele>83.66666666666667</ele><time>2026-03-28T07:15:04.742Z</time></trkpt><trkpt lat="44.483655" lon="11.31474"><ele>83.33333333333333</ele><time>2026-03-28T07:15:05.742Z</time></trkpt><trkpt lat="44.483595" lon="11.31469"><ele>83.0</ele><time>2026-03-28T07:15:06.742Z</time></trkpt><trkpt lat="44.4835367" lon="11.3146517"><ele>82.66666666666666</ele><time>2026-03-28T07:15:07.742Z</time></trkpt><trkpt lat="44.4834367" lon="11.3145683"><ele>82.33333333333333</ele><time>2026-03-28T07:15:09.741Z</time></trkpt><trkpt lat="44.4833467" lon="11.3145333"><ele>82.0</ele><time>2026-03-28T07:15:11.742Z</time></trkpt><trkpt lat="44.4832783" lon="11.31463"><ele>82.0</ele><time>2026-03-28T07:15:13.742Z</time></trkpt><trkpt lat="44.4832433" lon="11.31478"><ele>82.0</ele><time>2026-03-28T07:15:15.742Z</time></trkpt><trkpt lat="44.4832117" lon="11.3149133"><ele>82.0</ele><time>2026-03-28T07:15:17.742Z</time></trkpt><trkpt lat="44.48317" lon="11.3150483"><ele>82.0</ele><time>2026-03-28T07:15:19.742Z</time></trkpt><trkpt lat="44.4831433" lon="11.3151883"><ele>82.0</ele><time>2026-03-28T07:15:21.741Z</time></trkpt><trkpt lat="44.483135" lon="11.3153233"><ele>82.0</ele><time>2026-03-28T07:15:23.741Z</time></trkpt><trkpt lat="44.4831667" lon="11.3154283"><ele>82.0</ele><time>2026-03-28T07:15:25.742Z</time></trkpt><trkpt lat="44.4832383" lon="11.3155133"><ele>82.0</ele><time>2026-03-28T07:15:27.741Z</time></trkpt><trkpt lat="44.4833267" lon="11.31558"><ele>82.0</ele><time>2026-03-28T07:15:29.742Z</time></trkpt><trkpt lat="44.4833883" lon="11.31564"><ele>82.0</ele><time>2026-03-28T07:15:31.742Z</time></trkpt><trkpt lat="44.4834467" lon="11.315715"><ele>82.0</ele><time>2026-03-28T07:15:33.742Z</time></trkpt><trkpt lat="44.4835167" lon="11.3157883"><ele>82.0</ele><time>2026-03-28T07:15:35.741Z</time></trkpt><trkpt lat="44.483575" lon="11.31588"><ele>82.0</ele><time>2026-03-28T07:15:37.742Z</time></trkpt><trkpt lat="44.4836383" lon="11.3159617"><ele>82.0</ele><time>2026-03-28T07:15:39.742Z</time></trkpt><trkpt lat="44.4836983" lon="11.3160583"><ele>82.0</ele><time>2026-03-28T07:15:41.741Z</time></trkpt><trkpt lat="44.48374" lon="11.3161483"><ele>82.0</ele><time>2026-03-28T07:15:43.742Z</time></trkpt><trkpt lat="44.4837517" lon="11.316235"><ele>82.0</ele><time>2026-03-28T07:15:45.741Z</time></trkpt><trkpt lat="44.483745" lon="11.3163317"><ele>81.99999999999999</ele><time>2026-03-28T07:15:47.742Z</time></trkpt><trkpt lat="44.4837183" lon="11.316415"><ele>82.0</ele><time>2026-03-28T07:15:49.741Z</time></trkpt><trkpt lat="44.4836567" lon="11.316465"><ele>82.0</ele><time>2026-03-28T07:15:51.741Z</time></trkpt><trkpt lat="44.4835867" lon="11.316465"><ele>82.0</ele><time>2026-03-28T07:15:53.741Z</time></trkpt><trkpt lat="44.4835233" lon="11.3164133"><ele>82.0</ele><time>2026-03-28T07:15:55.741Z</time></trkpt><trkpt lat="44.48345" lon="11.316335"><ele>81.99999999999999</ele><time>2026-03-28T07:15:58.742Z</time></trkpt><trkpt lat="44.483385" lon="11.316285"><ele>82.0</ele><time>2026-03-28T07:16:01.741Z</time></trkpt><trkpt lat="44.4833433" lon="11.3163683"><ele>83.16666666666666</ele><time>2026-03-28T07:16:04.741Z</time></trkpt><trkpt lat="44.4833533" lon="11.3164667"><ele>84.33333333333333</ele><time>2026-03-28T07:16:06.742Z</time></trkpt><trkpt lat="44.483365" lon="11.316555"><ele>85.5</ele><time>2026-03-28T07:16:08.741Z</time></trkpt><trkpt lat="44.4833667" lon="11.316645"><ele>86.66666666666667</ele><time>2026-03-28T07:16:10.741Z</time></trkpt><trkpt lat="44.48336" lon="11.3167717"><ele>87.83333333333334</ele><time>2026-03-28T07:16:13.742Z</time></trkpt><trkpt lat="44.483355" lon="11.3169017"><ele>89.0</ele><time>2026-03-28T07:16:16.742Z</time></trkpt><trkpt lat="44.4833667" lon="11.3170217"><ele>88.99999999999999</ele><time>2026-03-28T07:16:19.741Z</time></trkpt><trkpt lat="44.4833283" lon="11.3171117"><ele>89.0</ele><time>2026-03-28T07:16:22.741Z</time></trkpt><trkpt lat="44.4832633" lon="11.3170717"><ele>89.0</ele><time>2026-03-28T07:16:25.742Z</time></trkpt><trkpt lat="44.4832383" lon="11.3169717"><ele>89.0</ele><time>2026-03-28T07:16:27.742Z</time></trkpt><trkpt lat="44.4832133" lon="11.3168833"><ele>89.0</ele><time>2026-03-28T07:16:29.742Z</time></trkpt><trkpt lat="44.4831867" lon="11.3168033"><ele>88.99999999999999</ele><time>2026-03-28T07:16:31.742Z</time></trkpt><trkpt lat="44.4831333" lon="11.3166983"><ele>89.0</ele><time>2026-03-28T07:16:34.742Z</time></trkpt><trkpt lat="44.4830817" lon="11.3166017"><ele>89.0</ele><time>2026-03-28T07:16:37.742Z</time></trkpt><trkpt lat="44.483005" lon="11.3165833"><ele>89.0</ele><time>2026-03-28T07:16:40.742Z</time></trkpt><trkpt lat="44.4830067" lon="11.3166883"><ele>89.0</ele><time>2026-03-28T07:16:43.741Z</time></trkpt><trkpt lat="44.4830417" lon="11.3167933"><ele>89.0</ele><time>2026-03-28T07:16:46.742Z</time></trkpt><trkpt lat="44.483065" lon="11.3169033"><ele>89.0</ele><time>2026-03-28T07:16:49.742Z</time></trkpt><trkpt lat="44.483075" lon="11.3170133"><ele>89.0</ele><time>2026-03-28T07:16:52.742Z</time></trkpt><trkpt lat="44.483015" lon="11.3170667"><ele>89.0</ele><time>2026-03-28T07:16:55.742Z</time></trkpt><trkpt lat="44.482975" lon="11.3169867"><ele>89.0</ele><time>2026-03-28T07:16:58.742Z</time></trkpt><trkpt lat="44.4829267" lon="11.31689"><ele>89.0</ele><time>2026-03-28T07:17:01.742Z</time></trkpt><trkpt lat="44.4828717" lon="11.3168083"><ele>89.0</ele><time>2026-03-28T07:17:04.742Z</time></trkpt><trkpt lat="44.4827983" lon="11.3167617"><ele>89.0</ele><time>2026-03-28T07:17:07.742Z</time></trkpt><trkpt lat="44.4827617" lon="11.3168617"><ele>89.0</ele><time>2026-03-28T07:17:11.742Z</time></trkpt><trkpt lat="44.482775" lon="11.3169867"><ele>91.16666666666667</ele><time>2026-03-28T07:17:14.742Z</time></trkpt><trkpt lat="44.48278" lon="11.3171033"><ele>93.33333333333334</ele><time>2026-03-28T07:17:17.742Z</time></trkpt><trkpt lat="44.4827717" lon="11.3172217"><ele>95.5</ele><time>2026-03-28T07:17:20.742Z</time></trkpt><trkpt lat="44.482765" lon="11.3173383"><ele>97.66666666666667</ele><time>2026-03-28T07:17:23.742Z</time></trkpt><trkpt lat="44.4827517" lon="11.31745"><ele>99.83333333333333</ele><time>2026-03-28T07:17:26.742Z</time></trkpt><trkpt lat="44.48268" lon="11.317485"><ele>102.0</ele><time>2026-03-28T07:17:30.741Z</time></trkpt><trkpt lat="44.482635" lon="11.3173783"><ele>102.0</ele><time>2026-03-28T07:17:33.742Z</time></trkpt><trkpt lat="44.4825983" lon="11.3172767"><ele>102.0</ele><time>2026-03-28T07:17:36.742Z</time></trkpt><trkpt lat="44.4825667" lon="11.3171633"><ele>102.0</ele><time>2026-03-28T07:17:39.742Z</time></trkpt><trkpt lat="44.4825383" lon="11.3170683"><ele>102.0</ele><time>2026-03-28T07:17:42.741Z</time></trkpt><trkpt lat="44.4824683" lon="11.3169967"><ele>102.0</ele><time>2026-03-28T07:17:45.742Z</time></trkpt><trkpt lat="44.4824017" lon="11.316935"><ele>102.0</ele><time>2026-03-28T07:17:48.742Z</time></trkpt><trkpt lat="44.4823233" lon="11.3168883"><ele>102.0</ele><time>2026-03-28T07:17:51.741Z</time></trkpt><trkpt lat="44.4822383" lon="11.31685"><ele>102.0</ele><time>2026-03-28T07:17:54.741Z</time></trkpt><trkpt lat="44.4821667" lon="11.3168183"><ele>102.0</ele><time>2026-03-28T07:17:57.741Z</time></trkpt><trkpt lat="44.4820967" lon="11.3167767"><ele>102.0</ele><time>2026-03-28T07:18:00.742Z</time></trkpt><trkpt lat="44.4820183" lon="11.31673"><ele>102.0</ele><time>2026-03-28T07:18:03.742Z</time></trkpt><trkpt lat="44.48196" lon="11.3166967"><ele>102.0</ele><time>2026-03-28T07:18:05.742Z</time></trkpt><trkpt lat="44.4818833" lon="11.3166433"><ele>105.0</ele><time>2026-03-28T07:18:08.743Z</time></trkpt><trkpt lat="44.4818133" lon="11.3165917"><ele>108.0</ele><time>2026-03-28T07:18:11.742Z</time></trkpt><trkpt lat="44.481735" lon="11.31656"><ele>111.0</ele><time>2026-03-28T07:18:14.742Z</time></trkpt><trkpt lat="44.4816483" lon="11.3165283"><ele>114.0</ele><time>2026-03-28T07:18:17.743Z</time></trkpt><trkpt lat="44.4815617" lon="11.3165117"><ele>117.0</ele><time>2026-03-28T07:18:20.742Z</time></trkpt><trkpt lat="44.4814783" lon="11.3165"><ele>120.0</ele><time>2026-03-28T07:18:23.743Z</time></trkpt><trkpt lat="44.481415" lon="11.3164917"><ele>120.0</ele><time>2026-03-28T07:18:25.743Z</time></trkpt><trkpt lat="44.4813367" lon="11.3164883"><ele>120.0</ele><time>2026-03-28T07:18:28.742Z</time></trkpt><trkpt lat="44.48125" lon="11.316455"><ele>120.0</ele><time>2026-03-28T07:18:31.743Z</time></trkpt><trkpt lat="44.48117" lon="11.3163883"><ele>120.0</ele><time>2026-03-28T07:18:34.743Z</time></trkpt><trkpt lat="44.4811133" lon="11.3163467"><ele>120.0</ele><time>2026-03-28T07:18:36.742Z</time></trkpt><trkpt lat="44.481055" lon="11.3163117"><ele>120.0</ele><time>2026-03-28T07:18:38.743Z</time></trkpt><trkpt lat="44.480995" lon="11.3162733"><ele>119.33333333333333</ele><time>2026-03-28T07:18:40.743Z</time></trkpt><trkpt lat="44.4809183" lon="11.3162233"><ele>118.66666666666666</ele><time>2026-03-28T07:18:43.743Z</time></trkpt><trkpt lat="44.4808517" lon="11.316185"><ele>118.0</ele><time>2026-03-28T07:18:46.742Z</time></trkpt><trkpt lat="44.48079" lon="11.3161283"><ele>117.33333333333333</ele><time>2026-03-28T07:18:49.743Z</time></trkpt><trkpt lat="44.480725" lon="11.3160733"><ele>116.66666666666666</ele><time>2026-03-28T07:18:52.743Z</time></trkpt><trkpt lat="44.4806717" lon="11.3160183"><ele>116.0</ele><time>2026-03-28T07:18:55.742Z</time></trkpt><trkpt lat="44.480605" lon="11.3159617"><ele>115.99999999999999</ele><time>2026-03-28T07:18:58.743Z</time></trkpt><trkpt lat="44.4805383" lon="11.3159167"><ele>116.0</ele><time>2026-03-28T07:19:01.743Z</time></trkpt><trkpt lat="44.4804667" lon="11.315875"><ele>116.0</ele><time>2026-03-28T07:19:04.742Z</time></trkpt><trkpt lat="44.48039" lon="11.31586"><ele>116.0</ele><time>2026-03-28T07:19:07.743Z</time></trkpt><trkpt lat="44.4803133" lon="11.3158733"><ele>115.99999999999999</ele><time>2026-03-28T07:19:10.742Z</time></trkpt><trkpt lat="44.4802283" lon="11.315895"><ele>116.0</ele><time>2026-03-28T07:19:13.743Z</time></trkpt><trkpt lat="44.4801633" lon="11.3159133"><ele>118.16666666666666</ele><time>2026-03-28T07:19:15.742Z</time></trkpt><trkpt lat="44.4800767" lon="11.3159217"><ele>120.33333333333333</ele><time>2026-03-28T07:19:18.743Z</time></trkpt><trkpt lat="44.4800017" lon="11.3159317"><ele>122.5</ele><time>2026-03-28T07:19:21.743Z</time></trkpt><trkpt lat="44.479915" lon="11.31596"><ele>124.66666666666666</ele><time>2026-03-28T07:19:24.743Z</time></trkpt><trkpt lat="44.479825" lon="11.3159867"><ele>126.83333333333333</ele><time>2026-03-28T07:19:27.743Z</time></trkpt><trkpt lat="44.4797483" lon="11.3160033"><ele>129.0</ele><time>2026-03-28T07:19:30.743Z</time></trkpt><trkpt lat="44.47966" lon="11.316045"><ele>129.0</ele><time>2026-03-28T07:19:33.743Z</time></trkpt><trkpt lat="44.4795883" lon="11.3160817"><ele>129.0</ele><time>2026-03-28T07:19:36.742Z</time></trkpt><trkpt lat="44.479505" lon="11.3161283"><ele>129.0</ele><time>2026-03-28T07:19:39.743Z</time></trkpt><trkpt lat="44.4794917" lon="11.3162367"><ele>129.0</ele><time>2026-03-28T07:19:42.743Z</time></trkpt><trkpt lat="44.4795667" lon="11.3162983"><ele>129.0</ele><time>2026-03-28T07:19:45.743Z</time></trkpt><trkpt lat="44.47965" lon="11.3163317"><ele>129.0</ele><time>2026-03-28T07:19:48.743Z</time></trkpt><trkpt lat="44.4797317" lon="11.3163717"><ele>129.0</ele><time>2026-03-28T07:19:51.743Z</time></trkpt><trkpt lat="44.4798133" lon="11.316395"><ele>129.0</ele><time>2026-03-28T07:19:54.743Z</time></trkpt><trkpt lat="44.4799" lon="11.3164383"><ele>129.0</ele><time>2026-03-28T07:19:57.743Z</time></trkpt><trkpt lat="44.4799783" lon="11.3165017"><ele>129.0</ele><time>2026-03-28T07:20:00.743Z</time></trkpt><trkpt lat="44.4800417" lon="11.31654"><ele>129.0</ele><time>2026-03-28T07:20:02.742Z</time></trkpt><trkpt lat="44.4801033" lon="11.3165667"><ele>129.0</ele><time>2026-03-28T07:20:04.743Z</time></trkpt><trkpt lat="44.480165" lon="11.3165933"><ele>130.16666666666666</ele><time>2026-03-28T07:20:06.743Z</time></trkpt><trkpt lat="44.4802433" lon="11.3166467"><ele>131.33333333333334</ele><time>2026-03-28T07:20:09.742Z</time></trkpt><trkpt lat="44.4803" lon="11.3167017"><ele>132.5</ele><time>2026-03-28T07:20:11.743Z</time></trkpt><trkpt lat="44.4803817" lon="11.3167717"><ele>133.66666666666669</ele><time>2026-03-28T07:20:14.743Z</time></trkpt><trkpt lat="44.4804367" lon="11.3168233"><ele>134.83333333333334</ele><time>2026-03-28T07:20:16.743Z</time></trkpt><trkpt lat="44.4804967" lon="11.31689"><ele>136.0</ele><time>2026-03-28T07:20:18.742Z</time></trkpt><trkpt lat="44.480555" lon="11.3169517"><ele>135.99999999999997</ele><time>2026-03-28T07:20:20.743Z</time></trkpt><trkpt lat="44.4806017" lon="11.3170283"><ele>136.0</ele><time>2026-03-28T07:20:22.743Z</time></trkpt><trkpt lat="44.4806467" lon="11.3171133"><ele>136.0</ele><time>2026-03-28T07:20:24.743Z</time></trkpt><trkpt lat="44.480675" lon="11.317195"><ele>136.0</ele><time>2026-03-28T07:20:26.742Z</time></trkpt><trkpt lat="44.48071" lon="11.317275"><ele>136.0</ele><time>2026-03-28T07:20:28.743Z</time></trkpt><trkpt lat="44.4807517" lon="11.3173483"><ele>135.99999999999997</ele><time>2026-03-28T07:20:30.742Z</time></trkpt><trkpt lat="44.480785" lon="11.3174267"><ele>136.0</ele><time>2026-03-28T07:20:32.743Z</time></trkpt><trkpt lat="44.480835" lon="11.3175167"><ele>138.66666666666669</ele><time>2026-03-28T07:20:35.743Z</time></trkpt><trkpt lat="44.4808933" lon="11.31761"><ele>141.33333333333334</ele><time>2026-03-28T07:20:38.743Z</time></trkpt><trkpt lat="44.48095" lon="11.3177033"><ele>144.0</ele><time>2026-03-28T07:20:41.743Z</time></trkpt><trkpt lat="44.4809983" lon="11.3177933"><ele>146.66666666666666</ele><time>2026-03-28T07:20:44.742Z</time></trkpt><trkpt lat="44.4810783" lon="11.3178467"><ele>149.33333333333331</ele><time>2026-03-28T07:20:47.743Z</time></trkpt><trkpt lat="44.4811567" lon="11.3179067"><ele>152.0</ele><time>2026-03-28T07:20:50.743Z</time></trkpt><trkpt lat="44.4812233" lon="11.3179717"><ele>150.57142857142856</ele><time>2026-03-28T07:20:53.742Z</time></trkpt><trkpt lat="44.4812883" lon="11.318035"><ele>149.14285714285717</ele><time>2026-03-28T07:20:56.742Z</time></trkpt><trkpt lat="44.48132" lon="11.3181117"><ele>147.71428571428572</ele><time>2026-03-28T07:20:59.743Z</time></trkpt><trkpt lat="44.48131" lon="11.3182133"><ele>146.28571428571428</ele><time>2026-03-28T07:21:02.743Z</time></trkpt><trkpt lat="44.481265" lon="11.3182933"><ele>144.85714285714283</ele><time>2026-03-28T07:21:05.743Z</time></trkpt><trkpt lat="44.48121" lon="11.31836"><ele>143.42857142857142</ele><time>2026-03-28T07:21:08.743Z</time></trkpt><trkpt lat="44.48116" lon="11.3184417"><ele>142.0</ele><time>2026-03-28T07:21:11.743Z</time></trkpt><trkpt lat="44.4811267" lon="11.3185367"><ele>145.57142857142856</ele><time>2026-03-28T07:21:14.743Z</time></trkpt><trkpt lat="44.4811" lon="11.318635"><ele>149.14285714285714</ele><time>2026-03-28T07:21:17.742Z</time></trkpt><trkpt lat="44.4810617" lon="11.3187067"><ele>152.71428571428572</ele><time>2026-03-28T07:21:20.743Z</time></trkpt><trkpt lat="44.4810167" lon="11.31864"><ele>156.28571428571428</ele><time>2026-03-28T07:21:23.743Z</time></trkpt><trkpt lat="44.4809983" lon="11.3185367"><ele>159.85714285714286</ele><time>2026-03-28T07:21:26.743Z</time></trkpt><trkpt lat="44.4809783" lon="11.3184417"><ele>163.42857142857142</ele><time>2026-03-28T07:21:29.743Z</time></trkpt><trkpt lat="44.48096" lon="11.3183517"><ele>167.0</ele><time>2026-03-28T07:21:32.743Z</time></trkpt><trkpt lat="44.4809033" lon="11.31831"><ele>167.0</ele><time>2026-03-28T07:21:35.743Z</time></trkpt><trkpt lat="44.4808733" lon="11.31841"><ele>167.0</ele><time>2026-03-28T07:21:39.744Z</time></trkpt><trkpt lat="44.48089" lon="11.3185033"><ele>167.0</ele><time>2026-03-28T07:21:42.744Z</time></trkpt><trkpt lat="44.4808867" lon="11.31861"><ele>167.0</ele><time>2026-03-28T07:21:45.744Z</time></trkpt><trkpt lat="44.4808683" lon="11.318725"><ele>167.0</ele><time>2026-03-28T07:21:48.744Z</time></trkpt><trkpt lat="44.4808033" lon="11.3187567"><ele>167.0</ele><time>2026-03-28T07:21:52.744Z</time></trkpt><trkpt lat="44.4807833" lon="11.3186583"><ele>167.0</ele><time>2026-03-28T07:21:55.744Z</time></trkpt><trkpt lat="44.48077" lon="11.3185633"><ele>167.0</ele><time>2026-03-28T07:21:58.744Z</time></trkpt><trkpt lat="44.4807583" lon="11.3184633"><ele>167.0</ele><time>2026-03-28T07:22:01.744Z</time></trkpt><trkpt lat="44.480705" lon="11.3184017"><ele>167.0</ele><time>2026-03-28T07:22:04.743Z</time></trkpt><trkpt lat="44.480655" lon="11.318465"><ele>167.0</ele><time>2026-03-28T07:22:07.744Z</time></trkpt><trkpt lat="44.4806533" lon="11.3185617"><ele>167.0</ele><time>2026-03-28T07:22:10.744Z</time></trkpt><trkpt lat="44.480655" lon="11.3186717"><ele>167.0</ele><time>2026-03-28T07:22:13.744Z</time></trkpt><trkpt lat="44.4806517" lon="11.318775"><ele>167.0</ele><time>2026-03-28T07:22:16.743Z</time></trkpt><trkpt lat="44.4805783" lon="11.31879"><ele>167.0</ele><time>2026-03-28T07:22:20.743Z</time></trkpt><trkpt lat="44.4805767" lon="11.3186867"><ele>167.0</ele><time>2026-03-28T07:22:23.744Z</time></trkpt><trkpt lat="44.4805783" lon="11.3185867"><ele>167.0</ele><time>2026-03-28T07:22:26.743Z</time></trkpt><trkpt lat="44.48052" lon="11.3185317"><ele>167.0</ele><time>2026-03-28T07:22:29.743Z</time></trkpt><trkpt lat="44.4804767" lon="11.3185983"><ele>167.0</ele><time>2026-03-28T07:22:32.744Z</time></trkpt><trkpt lat="44.4804783" lon="11.3187"><ele>167.0</ele><time>2026-03-28T07:22:35.744Z</time></trkpt><trkpt lat="44.48048" lon="11.3188117"><ele>167.0</ele><time>2026-03-28T07:22:38.743Z</time></trkpt><trkpt lat="44.4804567" lon="11.318915"><ele>168.57142857142856</ele><time>2026-03-28T07:22:41.744Z</time></trkpt><trkpt lat="44.48042" lon="11.3190083"><ele>170.14285714285714</ele><time>2026-03-28T07:22:44.743Z</time></trkpt><trkpt lat="44.4803517" lon="11.318965"><ele>171.71428571428572</ele><time>2026-03-28T07:22:48.744Z</time></trkpt><trkpt lat="44.48034" lon="11.3188633"><ele>173.28571428571428</ele><time>2026-03-28T07:22:51.743Z</time></trkpt><trkpt lat="44.4803233" lon="11.318765"><ele>174.85714285714286</ele><time>2026-03-28T07:22:54.743Z</time></trkpt><trkpt lat="44.480295" lon="11.3186667"><ele>176.42857142857142</ele><time>2026-03-28T07:22:57.744Z</time></trkpt><trkpt lat="44.48024" lon="11.3185917"><ele>178.0</ele><time>2026-03-28T07:23:00.744Z</time></trkpt><trkpt lat="44.4801667" lon="11.318555"><ele>178.0</ele><time>2026-03-28T07:23:03.744Z</time></trkpt><trkpt lat="44.480055" lon="11.31859"><ele>178.0</ele><time>2026-03-28T07:23:42.744Z</time></trkpt><trkpt lat="44.4799933" lon="11.3186617"><ele>178.0</ele><time>2026-03-28T07:23:46.744Z</time></trkpt><trkpt lat="44.4799633" lon="11.3187417"><ele>178.0</ele><time>2026-03-28T07:23:48.744Z</time></trkpt><trkpt lat="44.479955" lon="11.3188683"><ele>178.0</ele><time>2026-03-28T07:23:51.743Z</time></trkpt><trkpt lat="44.47996" lon="11.3189633"><ele>178.0</ele><time>2026-03-28T07:23:53.744Z</time></trkpt><trkpt lat="44.479955" lon="11.3190783"><ele>179.66666666666669</ele><time>2026-03-28T07:23:56.744Z</time></trkpt><trkpt lat="44.4799417" lon="11.3191883"><ele>181.33333333333334</ele><time>2026-03-28T07:23:59.743Z</time></trkpt><trkpt lat="44.47991" lon="11.3192967"><ele>183.0</ele><time>2026-03-28T07:24:02.744Z</time></trkpt><trkpt lat="44.4798633" lon="11.3193917"><ele>184.66666666666666</ele><time>2026-03-28T07:24:05.743Z</time></trkpt><trkpt lat="44.4798517" lon="11.3194967"><ele>186.33333333333331</ele><time>2026-03-28T07:24:08.744Z</time></trkpt><trkpt lat="44.4799017" lon="11.3195783"><ele>188.0</ele><time>2026-03-28T07:24:11.744Z</time></trkpt><trkpt lat="44.4799683" lon="11.3196567"><ele>189.42857142857142</ele><time>2026-03-28T07:24:14.744Z</time></trkpt><trkpt lat="44.4800167" lon="11.31975"><ele>190.85714285714283</ele><time>2026-03-28T07:24:17.744Z</time></trkpt><trkpt lat="44.48005" lon="11.3198383"><ele>192.28571428571428</ele><time>2026-03-28T07:24:20.744Z</time></trkpt><trkpt lat="44.48007" lon="11.319935"><ele>193.71428571428572</ele><time>2026-03-28T07:24:23.744Z</time></trkpt><trkpt lat="44.48008" lon="11.3200367"><ele>195.14285714285714</ele><time>2026-03-28T07:24:26.744Z</time></trkpt><trkpt lat="44.48001" lon="11.3200333"><ele>196.57142857142858</ele><time>2026-03-28T07:24:31.744Z</time></trkpt><trkpt lat="44.47995" lon="11.3199867"><ele>198.0</ele><time>2026-03-28T07:24:34.743Z</time></trkpt><trkpt lat="44.4798817" lon="11.3199517"><ele>198.0</ele><time>2026-03-28T07:24:37.744Z</time></trkpt><trkpt lat="44.4798467" lon="11.3200367"><ele>198.0</ele><time>2026-03-28T07:24:41.743Z</time></trkpt><trkpt lat="44.47988" lon="11.3201217"><ele>198.0</ele><time>2026-03-28T07:24:44.744Z</time></trkpt><trkpt lat="44.4799267" lon="11.320205"><ele>198.0</ele><time>2026-03-28T07:24:47.743Z</time></trkpt><trkpt lat="44.479965" lon="11.3203083"><ele>198.0</ele><time>2026-03-28T07:24:51.743Z</time></trkpt><trkpt lat="44.4799883" lon="11.3203917"><ele>198.0</ele><time>2026-03-28T07:24:54.744Z</time></trkpt><trkpt lat="44.4800233" lon="11.32048"><ele>198.0</ele><time>2026-03-28T07:24:57.743Z</time></trkpt><trkpt lat="44.4800617" lon="11.3205567"><ele>200.42857142857144</ele><time>2026-03-28T07:25:00.744Z</time></trkpt><trkpt lat="44.4800683" lon="11.3206467"><ele>202.85714285714283</ele><time>2026-03-28T07:25:03.744Z</time></trkpt><trkpt lat="44.48" lon="11.3206517"><ele>205.28571428571428</ele><time>2026-03-28T07:25:08.744Z</time></trkpt><trkpt lat="44.4799383" lon="11.3206"><ele>207.71428571428572</ele><time>2026-03-28T07:25:12.744Z</time></trkpt><trkpt lat="44.479865" lon="11.3205667"><ele>210.14285714285717</ele><time>2026-03-28T07:25:16.744Z</time></trkpt><trkpt lat="44.4798017" lon="11.3206367"><ele>212.57142857142856</ele><time>2026-03-28T07:25:20.744Z</time></trkpt><trkpt lat="44.4798183" lon="11.3207233"><ele>215.0</ele><time>2026-03-28T07:25:23.743Z</time></trkpt><trkpt lat="44.4798883" lon="11.320775"><ele>215.00000000000003</ele><time>2026-03-28T07:25:27.744Z</time></trkpt><trkpt lat="44.47996" lon="11.320845"><ele>215.0</ele><time>2026-03-28T07:25:31.744Z</time></trkpt><trkpt lat="44.4799967" lon="11.3209217"><ele>215.0</ele><time>2026-03-28T07:25:34.744Z</time></trkpt><trkpt lat="44.4799533" lon="11.32099"><ele>215.0</ele><time>2026-03-28T07:25:38.745Z</time></trkpt><trkpt lat="44.4798767" lon="11.32094"><ele>215.00000000000003</ele><time>2026-03-28T07:25:42.745Z</time></trkpt><trkpt lat="44.4797967" lon="11.32096"><ele>215.0</ele><time>2026-03-28T07:25:46.745Z</time></trkpt><trkpt lat="44.479735" lon="11.321015"><ele>215.00000000000003</ele><time>2026-03-28T07:25:49.745Z</time></trkpt><trkpt lat="44.4796667" lon="11.3210717"><ele>215.0</ele><time>2026-03-28T07:25:53.745Z</time></trkpt><trkpt lat="44.4796067" lon="11.32114"><ele>215.0</ele><time>2026-03-28T07:25:56.745Z</time></trkpt><trkpt lat="44.4795517" lon="11.321205"><ele>215.0</ele><time>2026-03-28T07:25:59.745Z</time></trkpt><trkpt lat="44.479495" lon="11.3212633"><ele>215.00000000000003</ele><time>2026-03-28T07:26:02.745Z</time></trkpt><trkpt lat="44.47942" lon="11.3213217"><ele>215.0</ele><time>2026-03-28T07:26:05.744Z</time></trkpt><trkpt lat="44.4793367" lon="11.3214"><ele>215.6</ele><time>2026-03-28T07:26:08.745Z</time></trkpt><trkpt lat="44.4792717" lon="11.3214667"><ele>216.2</ele><time>2026-03-28T07:26:10.745Z</time></trkpt><trkpt lat="44.4792" lon="11.321555"><ele>216.8</ele><time>2026-03-28T07:26:12.744Z</time></trkpt><trkpt lat="44.4791367" lon="11.3216767"><ele>217.4</ele><time>2026-03-28T07:26:14.745Z</time></trkpt><trkpt lat="44.4790917" lon="11.3218517"><ele>218.0</ele><time>2026-03-28T07:26:16.745Z</time></trkpt><trkpt lat="44.479065" lon="11.3219467"><ele>218.0</ele><time>2026-03-28T07:26:17.744Z</time></trkpt><trkpt lat="44.4790467" lon="11.322055"><ele>218.0</ele><time>2026-03-28T07:26:18.745Z</time></trkpt><trkpt lat="44.4790367" lon="11.3221567"><ele>218.0</ele><time>2026-03-28T07:26:19.745Z</time></trkpt><trkpt lat="44.479045" lon="11.3222633"><ele>218.0</ele><time>2026-03-28T07:26:20.745Z</time></trkpt><trkpt lat="44.479065" lon="11.32237"><ele>218.0</ele><time>2026-03-28T07:26:21.745Z</time></trkpt><trkpt lat="44.4790883" lon="11.3224633"><ele>218.0</ele><time>2026-03-28T07:26:22.745Z</time></trkpt><trkpt lat="44.4791167" lon="11.3225433"><ele>218.0</ele><time>2026-03-28T07:26:23.745Z</time></trkpt><trkpt lat="44.4791617" lon="11.3226433"><ele>218.28571428571428</ele><time>2026-03-28T07:26:25.744Z</time></trkpt><trkpt lat="44.479175" lon="11.32274"><ele>218.57142857142858</ele><time>2026-03-28T07:26:28.745Z</time></trkpt><trkpt lat="44.4791067" lon="11.322725"><ele>218.85714285714283</ele><time>2026-03-28T07:26:30.745Z</time></trkpt><trkpt lat="44.4790167" lon="11.3226367"><ele>219.14285714285714</ele><time>2026-03-28T07:26:32.744Z</time></trkpt><trkpt lat="44.4789633" lon="11.3225883"><ele>219.42857142857142</ele><time>2026-03-28T07:26:33.744Z</time></trkpt><trkpt lat="44.47891" lon="11.3225367"><ele>219.7142857142857</ele><time>2026-03-28T07:26:34.745Z</time></trkpt><trkpt lat="44.478855" lon="11.3224767"><ele>220.0</ele><time>2026-03-28T07:26:35.745Z</time></trkpt><trkpt lat="44.478795" lon="11.3224133"><ele>217.33333333333331</ele><time>2026-03-28T07:26:36.744Z</time></trkpt><trkpt lat="44.4787333" lon="11.3223467"><ele>214.66666666666666</ele><time>2026-03-28T07:26:37.745Z</time></trkpt><trkpt lat="44.4786717" lon="11.3222683"><ele>212.0</ele><time>2026-03-28T07:26:38.745Z</time></trkpt><trkpt lat="44.4786133" lon="11.32219"><ele>209.33333333333331</ele><time>2026-03-28T07:26:39.745Z</time></trkpt><trkpt lat="44.478555" lon="11.3221083"><ele>206.66666666666666</ele><time>2026-03-28T07:26:40.744Z</time></trkpt><trkpt lat="44.4784967" lon="11.3220167"><ele>204.0</ele><time>2026-03-28T07:26:41.745Z</time></trkpt><trkpt lat="44.478435" lon="11.3219233"><ele>204.0</ele><time>2026-03-28T07:26:42.745Z</time></trkpt><trkpt lat="44.478375" lon="11.3218333"><ele>204.0</ele><time>2026-03-28T07:26:43.744Z</time></trkpt><trkpt lat="44.47833" lon="11.321755"><ele>204.0</ele><time>2026-03-28T07:26:44.744Z</time></trkpt><trkpt lat="44.4782867" lon="11.32168"><ele>204.0</ele><time>2026-03-28T07:26:45.745Z</time></trkpt><trkpt lat="44.4782467" lon="11.32161"><ele>204.0</ele><time>2026-03-28T07:26:46.745Z</time></trkpt><trkpt lat="44.4781717" lon="11.3214567"><ele>204.0</ele><time>2026-03-28T07:26:48.745Z</time></trkpt><trkpt lat="44.47813" lon="11.3213817"><ele>203.71428571428572</ele><time>2026-03-28T07:26:49.745Z</time></trkpt><trkpt lat="44.4780867" lon="11.3213033"><ele>203.42857142857144</ele><time>2026-03-28T07:26:50.745Z</time></trkpt><trkpt lat="44.478045" lon="11.3212217"><ele>203.14285714285714</ele><time>2026-03-28T07:26:51.744Z</time></trkpt><trkpt lat="44.4779983" lon="11.3211483"><ele>202.85714285714286</ele><time>2026-03-28T07:26:52.745Z</time></trkpt><trkpt lat="44.4779467" lon="11.32109"><ele>202.57142857142856</ele><time>2026-03-28T07:26:53.744Z</time></trkpt><trkpt lat="44.4778883" lon="11.3210433"><ele>202.28571428571428</ele><time>2026-03-28T07:26:54.744Z</time></trkpt><trkpt lat="44.477825" lon="11.32099"><ele>202.0</ele><time>2026-03-28T07:26:55.745Z</time></trkpt><trkpt lat="44.4777633" lon="11.3209417"><ele>201.99999999999997</ele><time>2026-03-28T07:26:56.745Z</time></trkpt><trkpt lat="44.477695" lon="11.320895"><ele>202.0</ele><time>2026-03-28T07:26:57.744Z</time></trkpt><trkpt lat="44.47763" lon="11.3208583"><ele>202.0</ele><time>2026-03-28T07:26:58.744Z</time></trkpt><trkpt lat="44.4775683" lon="11.32082"><ele>202.0</ele><time>2026-03-28T07:26:59.745Z</time></trkpt><trkpt lat="44.4775067" lon="11.3207767"><ele>201.99999999999997</ele><time>2026-03-28T07:27:00.744Z</time></trkpt><trkpt lat="44.4774467" lon="11.3207383"><ele>202.0</ele><time>2026-03-28T07:27:01.744Z</time></trkpt><trkpt lat="44.4773517" lon="11.320655"><ele>201.99999999999997</ele><time>2026-03-28T07:27:03.745Z</time></trkpt><trkpt lat="44.47727" lon="11.3205667"><ele>202.0</ele><time>2026-03-28T07:27:05.745Z</time></trkpt><trkpt lat="44.477205" lon="11.3204683"><ele>202.0</ele><time>2026-03-28T07:27:07.745Z</time></trkpt><trkpt lat="44.47714" lon="11.3203967"><ele>202.0</ele><time>2026-03-28T07:27:09.744Z</time></trkpt><trkpt lat="44.47709" lon="11.3203283"><ele>201.99999999999997</ele><time>2026-03-28T07:27:11.744Z</time></trkpt><trkpt lat="44.47704" lon="11.32025"><ele>202.0</ele><time>2026-03-28T07:27:13.744Z</time></trkpt><trkpt lat="44.4769817" lon="11.3201767"><ele>202.83333333333331</ele><time>2026-03-28T07:27:15.745Z</time></trkpt><trkpt lat="44.476945" lon="11.320085"><ele>203.66666666666666</ele><time>2026-03-28T07:27:17.745Z</time></trkpt><trkpt lat="44.4769183" lon="11.31999"><ele>204.5</ele><time>2026-03-28T07:27:19.745Z</time></trkpt><trkpt lat="44.4768867" lon="11.3198917"><ele>205.33333333333331</ele><time>2026-03-28T07:27:21.744Z</time></trkpt><trkpt lat="44.4768533" lon="11.3197917"><ele>206.16666666666666</ele><time>2026-03-28T07:27:23.745Z</time></trkpt><trkpt lat="44.4768217" lon="11.3197017"><ele>207.0</ele><time>2026-03-28T07:27:25.744Z</time></trkpt><trkpt lat="44.4767867" lon="11.3196083"><ele>207.00000000000003</ele><time>2026-03-28T07:27:27.745Z</time></trkpt><trkpt lat="44.4767483" lon="11.3195233"><ele>207.0</ele><time>2026-03-28T07:27:29.745Z</time></trkpt><trkpt lat="44.4767067" lon="11.3194367"><ele>207.0</ele><time>2026-03-28T07:27:31.745Z</time></trkpt><trkpt lat="44.4766617" lon="11.3193567"><ele>207.0</ele><time>2026-03-28T07:27:33.744Z</time></trkpt><trkpt lat="44.4766317" lon="11.3192767"><ele>207.0</ele><time>2026-03-28T07:27:35.745Z</time></trkpt><trkpt lat="44.4766017" lon="11.3191933"><ele>207.00000000000003</ele><time>2026-03-28T07:27:37.745Z</time></trkpt><trkpt lat="44.4765667" lon="11.3191117"><ele>207.0</ele><time>2026-03-28T07:27:39.745Z</time></trkpt><trkpt lat="44.47653" lon="11.319025"><ele>207.00000000000003</ele><time>2026-03-28T07:27:41.745Z</time></trkpt><trkpt lat="44.4764933" lon="11.31894"><ele>207.0</ele><time>2026-03-28T07:27:43.745Z</time></trkpt><trkpt lat="44.47645" lon="11.3188183"><ele>207.0</ele><time>2026-03-28T07:27:46.745Z</time></trkpt><trkpt lat="44.4764133" lon="11.318735"><ele>207.0</ele><time>2026-03-28T07:27:48.744Z</time></trkpt><trkpt lat="44.4763833" lon="11.3186483"><ele>207.0</ele><time>2026-03-28T07:27:50.745Z</time></trkpt><trkpt lat="44.4763583" lon="11.3185583"><ele>207.00000000000003</ele><time>2026-03-28T07:27:52.745Z</time></trkpt><trkpt lat="44.4763217" lon="11.3184783"><ele>207.0</ele><time>2026-03-28T07:27:54.745Z</time></trkpt><trkpt lat="44.4762833" lon="11.3183633"><ele>207.5</ele><time>2026-03-28T07:27:57.745Z</time></trkpt><trkpt lat="44.4762367" lon="11.318255"><ele>208.0</ele><time>2026-03-28T07:28:00.745Z</time></trkpt><trkpt lat="44.4761683" lon="11.3181733"><ele>208.5</ele><time>2026-03-28T07:28:03.744Z</time></trkpt><trkpt lat="44.4761017" lon="11.318105"><ele>209.0</ele><time>2026-03-28T07:28:06.745Z</time></trkpt><trkpt lat="44.4760467" lon="11.3180583"><ele>209.5</ele><time>2026-03-28T07:28:09.745Z</time></trkpt><trkpt lat="44.4759833" lon="11.318035"><ele>210.0</ele><time>2026-03-28T07:29:43.746Z</time></trkpt><trkpt lat="44.4759033" lon="11.3179683"><ele>210.0</ele><time>2026-03-28T07:29:46.745Z</time></trkpt><trkpt lat="44.4758467" lon="11.3179117"><ele>210.0</ele><time>2026-03-28T07:29:48.746Z</time></trkpt><trkpt lat="44.475785" lon="11.3178683"><ele>210.0</ele><time>2026-03-28T07:29:50.746Z</time></trkpt><trkpt lat="44.47572" lon="11.31784"><ele>210.0</ele><time>2026-03-28T07:29:52.746Z</time></trkpt><trkpt lat="44.47566" lon="11.3178917"><ele>210.0</ele><time>2026-03-28T07:29:54.746Z</time></trkpt><trkpt lat="44.47568" lon="11.3179833"><ele>210.0</ele><time>2026-03-28T07:29:56.746Z</time></trkpt><trkpt lat="44.4757383" lon="11.3180483"><ele>210.0</ele><time>2026-03-28T07:29:58.746Z</time></trkpt><trkpt lat="44.4758033" lon="11.3180933"><ele>212.16666666666666</ele><time>2026-03-28T07:30:00.746Z</time></trkpt><trkpt lat="44.475855" lon="11.3181633"><ele>214.33333333333331</ele><time>2026-03-28T07:30:02.746Z</time></trkpt><trkpt lat="44.4759067" lon="11.318235"><ele>216.5</ele><time>2026-03-28T07:30:04.746Z</time></trkpt><trkpt lat="44.475945" lon="11.3183083"><ele>218.66666666666666</ele><time>2026-03-28T07:30:06.745Z</time></trkpt><trkpt lat="44.4759183" lon="11.318405"><ele>220.83333333333331</ele><time>2026-03-28T07:30:09.746Z</time></trkpt><trkpt lat="44.4758617" lon="11.3183183"><ele>223.0</ele><time>2026-03-28T07:30:12.746Z</time></trkpt><trkpt lat="44.4757917" lon="11.3182417"><ele>222.99999999999997</ele><time>2026-03-28T07:30:15.746Z</time></trkpt><trkpt lat="44.47571" lon="11.318175"><ele>223.0</ele><time>2026-03-28T07:30:18.746Z</time></trkpt><trkpt lat="44.475625" lon="11.3181367"><ele>223.0</ele><time>2026-03-28T07:30:21.745Z</time></trkpt><trkpt lat="44.475545" lon="11.3181367"><ele>223.0</ele><time>2026-03-28T07:30:24.746Z</time></trkpt><trkpt lat="44.4754667" lon="11.3181717"><ele>222.99999999999997</ele><time>2026-03-28T07:30:27.746Z</time></trkpt><trkpt lat="44.4753817" lon="11.3182367"><ele>223.0</ele><time>2026-03-28T07:30:30.746Z</time></trkpt><trkpt lat="44.47531" lon="11.318325"><ele>222.85714285714286</ele><time>2026-03-28T07:30:33.746Z</time></trkpt><trkpt lat="44.4752683" lon="11.3184"><ele>222.71428571428572</ele><time>2026-03-28T07:30:35.746Z</time></trkpt><trkpt lat="44.475225" lon="11.3184667"><ele>222.57142857142856</ele><time>2026-03-28T07:30:37.745Z</time></trkpt><trkpt lat="44.475185" lon="11.3185383"><ele>222.42857142857144</ele><time>2026-03-28T07:30:39.746Z</time></trkpt><trkpt lat="44.47515" lon="11.3186117"><ele>222.2857142857143</ele><time>2026-03-28T07:30:41.745Z</time></trkpt><trkpt lat="44.4751017" lon="11.3187167"><ele>222.14285714285714</ele><time>2026-03-28T07:30:44.746Z</time></trkpt><trkpt lat="44.4750583" lon="11.3188183"><ele>222.0</ele><time>2026-03-28T07:30:47.746Z</time></trkpt><trkpt lat="44.474995" lon="11.3189017"><ele>225.0</ele><time>2026-03-28T07:30:50.746Z</time></trkpt><trkpt lat="44.4749283" lon="11.3189567"><ele>228.0</ele><time>2026-03-28T07:30:53.745Z</time></trkpt><trkpt lat="44.4748617" lon="11.3190333"><ele>231.0</ele><time>2026-03-28T07:30:56.746Z</time></trkpt><trkpt lat="44.4748017" lon="11.3191033"><ele>234.0</ele><time>2026-03-28T07:30:59.746Z</time></trkpt><trkpt lat="44.474755" lon="11.3191633"><ele>237.0</ele><time>2026-03-28T07:31:01.745Z</time></trkpt><trkpt lat="44.4747033" lon="11.319215"><ele>240.0</ele><time>2026-03-28T07:31:03.745Z</time></trkpt><trkpt lat="44.47462" lon="11.319285"><ele>238.33333333333334</ele><time>2026-03-28T07:31:06.746Z</time></trkpt><trkpt lat="44.4745483" lon="11.3193633"><ele>236.66666666666669</ele><time>2026-03-28T07:31:09.746Z</time></trkpt><trkpt lat="44.4745" lon="11.31942"><ele>235.0</ele><time>2026-03-28T07:31:11.746Z</time></trkpt><trkpt lat="44.4744483" lon="11.3194783"><ele>233.33333333333334</ele><time>2026-03-28T07:31:13.746Z</time></trkpt><trkpt lat="44.4743817" lon="11.319565"><ele>231.66666666666669</ele><time>2026-03-28T07:31:16.746Z</time></trkpt><trkpt lat="44.4743083" lon="11.3196283"><ele>230.0</ele><time>2026-03-28T07:31:19.746Z</time></trkpt><trkpt lat="44.4742433" lon="11.3197017"><ele>233.00000000000003</ele><time>2026-03-28T07:31:22.746Z</time></trkpt><trkpt lat="44.4741833" lon="11.319765"><ele>236.0</ele><time>2026-03-28T07:31:25.745Z</time></trkpt><trkpt lat="44.4741033" lon="11.3198117"><ele>239.0</ele><time>2026-03-28T07:31:28.745Z</time></trkpt><trkpt lat="44.4740333" lon="11.31989"><ele>242.0</ele><time>2026-03-28T07:31:31.746Z</time></trkpt><trkpt lat="44.47397" lon="11.3199617"><ele>245.00000000000003</ele><time>2026-03-28T07:31:34.746Z</time></trkpt><trkpt lat="44.473905" lon="11.320035"><ele>248.0</ele><time>2026-03-28T07:31:37.746Z</time></trkpt><trkpt lat="44.4738583" lon="11.3201017"><ele>248.00000000000003</ele><time>2026-03-28T07:31:39.746Z</time></trkpt><trkpt lat="44.4738117" lon="11.3201667"><ele>248.0</ele><time>2026-03-28T07:31:41.746Z</time></trkpt><trkpt lat="44.4737433" lon="11.3202417"><ele>248.0</ele><time>2026-03-28T07:31:44.746Z</time></trkpt><trkpt lat="44.4736867" lon="11.32032"><ele>248.0</ele><time>2026-03-28T07:31:47.745Z</time></trkpt><trkpt lat="44.4736267" lon="11.32041"><ele>248.00000000000003</ele><time>2026-03-28T07:31:50.746Z</time></trkpt><trkpt lat="44.4735717" lon="11.320515"><ele>248.0</ele><time>2026-03-28T07:31:53.746Z</time></trkpt><trkpt lat="44.4735067" lon="11.3205833"><ele>250.33333333333334</ele><time>2026-03-28T07:31:56.746Z</time></trkpt><trkpt lat="44.4734417" lon="11.3206483"><ele>252.66666666666669</ele><time>2026-03-28T07:31:59.746Z</time></trkpt><trkpt lat="44.4733783" lon="11.32071"><ele>255.0</ele><time>2026-03-28T07:32:02.746Z</time></trkpt><trkpt lat="44.4733167" lon="11.3207667"><ele>257.3333333333333</ele><time>2026-03-28T07:32:05.746Z</time></trkpt><trkpt lat="44.4732417" lon="11.3208233"><ele>259.66666666666663</ele><time>2026-03-28T07:32:08.746Z</time></trkpt><trkpt lat="44.4731633" lon="11.3208483"><ele>262.0</ele><time>2026-03-28T07:32:11.746Z</time></trkpt><trkpt lat="44.473085" lon="11.32082"><ele>262.0</ele><time>2026-03-28T07:32:14.746Z</time></trkpt><trkpt lat="44.4730117" lon="11.3207717"><ele>262.0</ele><time>2026-03-28T07:32:17.746Z</time></trkpt><trkpt lat="44.4729317" lon="11.3207317"><ele>262.0</ele><time>2026-03-28T07:32:20.746Z</time></trkpt><trkpt lat="44.4728433" lon="11.3206883"><ele>262.0</ele><time>2026-03-28T07:32:23.746Z</time></trkpt><trkpt lat="44.4727833" lon="11.32066"><ele>262.0</ele><time>2026-03-28T07:32:25.745Z</time></trkpt><trkpt lat="44.472695" lon="11.3206283"><ele>262.0</ele><time>2026-03-28T07:32:28.746Z</time></trkpt><trkpt lat="44.4726267" lon="11.3206117"><ele>261.0</ele><time>2026-03-28T07:32:30.745Z</time></trkpt><trkpt lat="44.472565" lon="11.3205917"><ele>260.0</ele><time>2026-03-28T07:32:32.746Z</time></trkpt><trkpt lat="44.4724817" lon="11.320555"><ele>259.0</ele><time>2026-03-28T07:32:35.746Z</time></trkpt><trkpt lat="44.4724033" lon="11.320535"><ele>258.0</ele><time>2026-03-28T07:32:38.745Z</time></trkpt><trkpt lat="44.4723417" lon="11.3205117"><ele>257.0</ele><time>2026-03-28T07:32:40.745Z</time></trkpt><trkpt lat="44.472275" lon="11.3204767"><ele>256.0</ele><time>2026-03-28T07:32:43.746Z</time></trkpt><trkpt lat="44.4722" lon="11.32045"><ele>255.0</ele><time>2026-03-28T07:32:46.746Z</time></trkpt><trkpt lat="44.47211" lon="11.3204283"><ele>255.71428571428572</ele><time>2026-03-28T07:32:49.745Z</time></trkpt><trkpt lat="44.4720367" lon="11.3204183"><ele>256.42857142857144</ele><time>2026-03-28T07:32:51.746Z</time></trkpt><trkpt lat="44.4719667" lon="11.32041"><ele>257.14285714285717</ele><time>2026-03-28T07:32:53.746Z</time></trkpt><trkpt lat="44.4718817" lon="11.32038"><ele>257.8571428571429</ele><time>2026-03-28T07:32:56.746Z</time></trkpt><trkpt lat="44.4718133" lon="11.3203517"><ele>258.57142857142856</ele><time>2026-03-28T07:32:58.746Z</time></trkpt><trkpt lat="44.4717533" lon="11.3203067"><ele>259.28571428571433</ele><time>2026-03-28T07:33:00.745Z</time></trkpt><trkpt lat="44.471685" lon="11.3202633"><ele>260.0</ele><time>2026-03-28T07:33:02.746Z</time></trkpt><trkpt lat="44.4716083" lon="11.320225"><ele>260.0</ele><time>2026-03-28T07:33:04.746Z</time></trkpt><trkpt lat="44.47153" lon="11.3201867"><ele>260.0</ele><time>2026-03-28T07:33:06.746Z</time></trkpt><trkpt lat="44.4714417" lon="11.3201367"><ele>260.0</ele><time>2026-03-28T07:33:08.746Z</time></trkpt><trkpt lat="44.4713317" lon="11.3200783"><ele>260.0</ele><time>2026-03-28T07:33:10.746Z</time></trkpt><trkpt lat="44.47127" lon="11.3200417"><ele>260.0</ele><time>2026-03-28T07:33:11.746Z</time></trkpt><trkpt lat="44.4712067" lon="11.3200083"><ele>260.0</ele><time>2026-03-28T07:33:12.746Z</time></trkpt><trkpt lat="44.471145" lon="11.3199833"><ele>258.83333333333337</ele><time>2026-03-28T07:33:13.746Z</time></trkpt><trkpt lat="44.4710733" lon="11.31999"><ele>257.6666666666667</ele><time>2026-03-28T07:33:14.745Z</time></trkpt><trkpt lat="44.4710017" lon="11.3200183"><ele>256.5</ele><time>2026-03-28T07:33:15.747Z</time></trkpt><trkpt lat="44.4709233" lon="11.3200783"><ele>255.33333333333331</ele><time>2026-03-28T07:33:16.746Z</time></trkpt><trkpt lat="44.4708483" lon="11.3201533"><ele>254.16666666666666</ele><time>2026-03-28T07:33:17.747Z</time></trkpt><trkpt lat="44.4707733" lon="11.320235"><ele>253.0</ele><time>2026-03-28T07:33:18.747Z</time></trkpt><trkpt lat="44.4706983" lon="11.3203083"><ele>253.0</ele><time>2026-03-28T07:33:19.747Z</time></trkpt><trkpt lat="44.4706217" lon="11.3203633"><ele>253.0</ele><time>2026-03-28T07:33:20.747Z</time></trkpt><trkpt lat="44.4705417" lon="11.3204333"><ele>253.0</ele><time>2026-03-28T07:33:21.746Z</time></trkpt><trkpt lat="44.4704767" lon="11.320485"><ele>253.0</ele><time>2026-03-28T07:33:22.746Z</time></trkpt><trkpt lat="44.47042" lon="11.3205367"><ele>253.0</ele><time>2026-03-28T07:33:23.747Z</time></trkpt><trkpt lat="44.470325" lon="11.3206667"><ele>252.2</ele><time>2026-03-28T07:33:25.746Z</time></trkpt><trkpt lat="44.4702717" lon="11.3207417"><ele>251.4</ele><time>2026-03-28T07:33:26.747Z</time></trkpt><trkpt lat="44.4702333" lon="11.3208183"><ele>250.59999999999997</ele><time>2026-03-28T07:33:27.747Z</time></trkpt><trkpt lat="44.47016" lon="11.3209417"><ele>249.79999999999998</ele><time>2026-03-28T07:33:29.747Z</time></trkpt><trkpt lat="44.4700883" lon="11.32104"><ele>249.0</ele><time>2026-03-28T07:33:31.747Z</time></trkpt><trkpt lat="44.4699917" lon="11.3211183"><ele>249.0</ele><time>2026-03-28T07:33:33.747Z</time></trkpt><trkpt lat="44.4698667" lon="11.3211683"><ele>249.0</ele><time>2026-03-28T07:33:35.747Z</time></trkpt><trkpt lat="44.46975" lon="11.3211983"><ele>249.0</ele><time>2026-03-28T07:33:37.747Z</time></trkpt><trkpt lat="44.469625" lon="11.3212517"><ele>249.0</ele><time>2026-03-28T07:33:39.746Z</time></trkpt><trkpt lat="44.46955" lon="11.3212933"><ele>248.83333333333334</ele><time>2026-03-28T07:33:40.747Z</time></trkpt><trkpt lat="44.4694767" lon="11.3213567"><ele>248.66666666666669</ele><time>2026-03-28T07:33:41.746Z</time></trkpt><trkpt lat="44.469405" lon="11.32141"><ele>248.5</ele><time>2026-03-28T07:33:42.746Z</time></trkpt><trkpt lat="44.4693283" lon="11.321465"><ele>248.33333333333334</ele><time>2026-03-28T07:33:43.747Z</time></trkpt><trkpt lat="44.4692267" lon="11.3215083"><ele>248.16666666666669</ele><time>2026-03-28T07:33:44.747Z</time></trkpt><trkpt lat="44.46915" lon="11.3215667"><ele>248.0</ele><time>2026-03-28T07:33:45.747Z</time></trkpt><trkpt lat="44.4690717" lon="11.3216167"><ele>248.0</ele><time>2026-03-28T07:33:46.746Z</time></trkpt><trkpt lat="44.4689817" lon="11.3216417"><ele>248.0</ele><time>2026-03-28T07:33:47.747Z</time></trkpt><trkpt lat="44.468885" lon="11.32161"><ele>248.0</ele><time>2026-03-28T07:33:48.747Z</time></trkpt><trkpt lat="44.4687983" lon="11.3215383"><ele>248.0</ele><time>2026-03-28T07:33:49.746Z</time></trkpt><trkpt lat="44.46871" lon="11.3214483"><ele>248.0</ele><time>2026-03-28T07:33:50.746Z</time></trkpt><trkpt lat="44.4686233" lon="11.3213617"><ele>246.4</ele><time>2026-03-28T07:33:51.747Z</time></trkpt><trkpt lat="44.468535" lon="11.3212667"><ele>244.8</ele><time>2026-03-28T07:33:52.746Z</time></trkpt><trkpt lat="44.4684717" lon="11.3211567"><ele>243.2</ele><time>2026-03-28T07:33:53.747Z</time></trkpt><trkpt lat="44.4684233" lon="11.3210333"><ele>241.6</ele><time>2026-03-28T07:33:54.746Z</time></trkpt><trkpt lat="44.4683717" lon="11.3209133"><ele>240.0</ele><time>2026-03-28T07:33:55.747Z</time></trkpt><trkpt lat="44.4683217" lon="11.320805"><ele>240.0</ele><time>2026-03-28T07:33:56.747Z</time></trkpt><trkpt lat="44.4682717" lon="11.3207117"><ele>240.0</ele><time>2026-03-28T07:33:57.746Z</time></trkpt><trkpt lat="44.4682083" lon="11.3206367"><ele>240.0</ele><time>2026-03-28T07:33:58.747Z</time></trkpt><trkpt lat="44.4681367" lon="11.32058"><ele>240.0</ele><time>2026-03-28T07:33:59.747Z</time></trkpt><trkpt lat="44.4680583" lon="11.32055"><ele>240.0</ele><time>2026-03-28T07:34:00.747Z</time></trkpt><trkpt lat="44.4679767" lon="11.3205283"><ele>240.0</ele><time>2026-03-28T07:34:01.747Z</time></trkpt><trkpt lat="44.4678833" lon="11.320525"><ele>237.6</ele><time>2026-03-28T07:34:02.746Z</time></trkpt><trkpt lat="44.4677883" lon="11.32052"><ele>235.2</ele><time>2026-03-28T07:34:03.747Z</time></trkpt><trkpt lat="44.467685" lon="11.32052"><ele>232.8</ele><time>2026-03-28T07:34:04.747Z</time></trkpt><trkpt lat="44.4675817" lon="11.32052"><ele>230.4</ele><time>2026-03-28T07:34:05.747Z</time></trkpt><trkpt lat="44.4674767" lon="11.320505"><ele>228.0</ele><time>2026-03-28T07:34:06.747Z</time></trkpt><trkpt lat="44.46737" lon="11.3204783"><ele>228.0</ele><time>2026-03-28T07:34:07.746Z</time></trkpt><trkpt lat="44.4672617" lon="11.32044"><ele>228.0</ele><time>2026-03-28T07:34:08.747Z</time></trkpt><trkpt lat="44.4671517" lon="11.3204017"><ele>228.0</ele><time>2026-03-28T07:34:09.746Z</time></trkpt><trkpt lat="44.46705" lon="11.320355"><ele>228.0</ele><time>2026-03-28T07:34:10.747Z</time></trkpt><trkpt lat="44.4669417" lon="11.3203133"><ele>228.0</ele><time>2026-03-28T07:34:11.747Z</time></trkpt><trkpt lat="44.466835" lon="11.3202617"><ele>228.0</ele><time>2026-03-28T07:34:12.747Z</time></trkpt><trkpt lat="44.4667317" lon="11.3202167"><ele>228.0</ele><time>2026-03-28T07:34:13.747Z</time></trkpt><trkpt lat="44.4666317" lon="11.3201767"><ele>228.0</ele><time>2026-03-28T07:34:14.747Z</time></trkpt><trkpt lat="44.4665367" lon="11.3201317"><ele>228.0</ele><time>2026-03-28T07:34:15.746Z</time></trkpt><trkpt lat="44.4664383" lon="11.3200917"><ele>228.0</ele><time>2026-03-28T07:34:16.747Z</time></trkpt><trkpt lat="44.4663617" lon="11.3200567"><ele>228.0</ele><time>2026-03-28T07:34:17.747Z</time></trkpt><trkpt lat="44.466285" lon="11.32003"><ele>228.0</ele><time>2026-03-28T07:34:18.747Z</time></trkpt><trkpt lat="44.4662083" lon="11.32"><ele>228.0</ele><time>2026-03-28T07:34:19.747Z</time></trkpt><trkpt lat="44.4661433" lon="11.31996"><ele>228.0</ele><time>2026-03-28T07:34:20.747Z</time></trkpt><trkpt lat="44.4660767" lon="11.3199283"><ele>228.0</ele><time>2026-03-28T07:34:21.746Z</time></trkpt><trkpt lat="44.4659633" lon="11.3198883"><ele>228.0</ele><time>2026-03-28T07:34:23.747Z</time></trkpt><trkpt lat="44.4658567" lon="11.3198583"><ele>228.2</ele><time>2026-03-28T07:34:25.746Z</time></trkpt><trkpt lat="44.4657667" lon="11.3198167"><ele>228.4</ele><time>2026-03-28T07:34:27.747Z</time></trkpt><trkpt lat="44.465655" lon="11.3197983"><ele>228.59999999999997</ele><time>2026-03-28T07:34:29.746Z</time></trkpt><trkpt lat="44.4655917" lon="11.3197867"><ele>228.79999999999998</ele><time>2026-03-28T07:34:30.747Z</time></trkpt><trkpt lat="44.4654617" lon="11.3197633"><ele>229.0</ele><time>2026-03-28T07:34:32.747Z</time></trkpt><trkpt lat="44.4653967" lon="11.3197717"><ele>228.99999999999997</ele><time>2026-03-28T07:34:33.747Z</time></trkpt><trkpt lat="44.4653317" lon="11.3197767"><ele>229.0</ele><time>2026-03-28T07:34:34.747Z</time></trkpt><trkpt lat="44.4652667" lon="11.319775"><ele>229.0</ele><time>2026-03-28T07:34:35.747Z</time></trkpt><trkpt lat="44.4651983" lon="11.3197733"><ele>229.0</ele><time>2026-03-28T07:34:36.747Z</time></trkpt><trkpt lat="44.4651317" lon="11.3197783"><ele>228.99999999999997</ele><time>2026-03-28T07:34:37.747Z</time></trkpt><trkpt lat="44.465065" lon="11.3197833"><ele>229.0</ele><time>2026-03-28T07:34:38.747Z</time></trkpt><trkpt lat="44.4649417" lon="11.31978"><ele>228.99999999999997</ele><time>2026-03-28T07:34:40.747Z</time></trkpt><trkpt lat="44.464875" lon="11.3197633"><ele>229.0</ele><time>2026-03-28T07:34:41.746Z</time></trkpt><trkpt lat="44.4648117" lon="11.31974"><ele>229.0</ele><time>2026-03-28T07:34:42.747Z</time></trkpt><trkpt lat="44.4647483" lon="11.3197167"><ele>229.0</ele><time>2026-03-28T07:34:43.747Z</time></trkpt><trkpt lat="44.4646333" lon="11.319665"><ele>228.99999999999997</ele><time>2026-03-28T07:34:45.746Z</time></trkpt><trkpt lat="44.464525" lon="11.3196167"><ele>229.0</ele><time>2026-03-28T07:34:47.746Z</time></trkpt><trkpt lat="44.4644083" lon="11.3195767"><ele>229.5</ele><time>2026-03-28T07:34:49.747Z</time></trkpt><trkpt lat="44.4642883" lon="11.319545"><ele>230.0</ele><time>2026-03-28T07:34:51.747Z</time></trkpt><trkpt lat="44.46418" lon="11.3195233"><ele>230.5</ele><time>2026-03-28T07:34:53.747Z</time></trkpt><trkpt lat="44.4640633" lon="11.3195"><ele>231.0</ele><time>2026-03-28T07:34:55.746Z</time></trkpt><trkpt lat="44.4639483" lon="11.319495"><ele>231.0</ele><time>2026-03-28T07:34:57.747Z</time></trkpt><trkpt lat="44.46384" lon="11.3194683"><ele>231.0</ele><time>2026-03-28T07:34:59.747Z</time></trkpt><trkpt lat="44.4637433" lon="11.3194517"><ele>231.0</ele><time>2026-03-28T07:35:01.746Z</time></trkpt><trkpt lat="44.463625" lon="11.3194533"><ele>231.0</ele><time>2026-03-28T07:35:03.747Z</time></trkpt><trkpt lat="44.4635" lon="11.3194833"><ele>231.8</ele><time>2026-03-28T07:35:05.747Z</time></trkpt><trkpt lat="44.4634367" lon="11.3195"><ele>232.60000000000002</ele><time>2026-03-28T07:35:06.747Z</time></trkpt><trkpt lat="44.46331" lon="11.3195217"><ele>233.4</ele><time>2026-03-28T07:35:08.746Z</time></trkpt><trkpt lat="44.4631933" lon="11.3195433"><ele>234.2</ele><time>2026-03-28T07:35:10.747Z</time></trkpt><trkpt lat="44.4630917" lon="11.31954"><ele>235.0</ele><time>2026-03-28T07:35:12.747Z</time></trkpt><trkpt lat="44.4629767" lon="11.3195633"><ele>234.2</ele><time>2026-03-28T07:35:14.747Z</time></trkpt><trkpt lat="44.462875" lon="11.3195533"><ele>233.4</ele><time>2026-03-28T07:35:16.747Z</time></trkpt><trkpt lat="44.4628117" lon="11.31956"><ele>232.60000000000002</ele><time>2026-03-28T07:35:17.746Z</time></trkpt><trkpt lat="44.4626967" lon="11.3195717"><ele>231.8</ele><time>2026-03-28T07:35:19.747Z</time></trkpt><trkpt lat="44.4625917" lon="11.3196017"><ele>231.0</ele><time>2026-03-28T07:35:21.747Z</time></trkpt><trkpt lat="44.4624983" lon="11.3196683"><ele>232.0</ele><time>2026-03-28T07:35:23.746Z</time></trkpt><trkpt lat="44.4624333" lon="11.3198117"><ele>233.00000000000003</ele><time>2026-03-28T07:35:25.746Z</time></trkpt><trkpt lat="44.4624017" lon="11.3199483"><ele>234.00000000000003</ele><time>2026-03-28T07:35:27.746Z</time></trkpt><trkpt lat="44.4623867" lon="11.3200617"><ele>235.0</ele><time>2026-03-28T07:35:29.747Z</time></trkpt><trkpt lat="44.46238" lon="11.320175"><ele>236.0</ele><time>2026-03-28T07:35:31.747Z</time></trkpt><trkpt lat="44.462375" lon="11.3202667"><ele>236.00000000000003</ele><time>2026-03-28T07:35:33.747Z</time></trkpt><trkpt lat="44.4623667" lon="11.3203767"><ele>236.0</ele><time>2026-03-28T07:35:35.747Z</time></trkpt><trkpt lat="44.4623583" lon="11.320485"><ele>236.0</ele><time>2026-03-28T07:35:37.747Z</time></trkpt><trkpt lat="44.4623483" lon="11.3206067"><ele>236.0</ele><time>2026-03-28T07:35:39.747Z</time></trkpt><trkpt lat="44.4623367" lon="11.320735"><ele>236.00000000000003</ele><time>2026-03-28T07:35:41.747Z</time></trkpt><trkpt lat="44.46232" lon="11.3208683"><ele>236.0</ele><time>2026-03-28T07:35:43.747Z</time></trkpt><trkpt lat="44.4623033" lon="11.3210067"><ele>235.60000000000002</ele><time>2026-03-28T07:35:45.746Z</time></trkpt><trkpt lat="44.4622867" lon="11.32115"><ele>235.20000000000002</ele><time>2026-03-28T07:35:47.747Z</time></trkpt><trkpt lat="44.4622767" lon="11.3213033"><ele>234.79999999999998</ele><time>2026-03-28T07:35:49.747Z</time></trkpt><trkpt lat="44.462265" lon="11.3214467"><ele>234.39999999999998</ele><time>2026-03-28T07:35:51.746Z</time></trkpt><trkpt lat="44.4622467" lon="11.3215917"><ele>234.0</ele><time>2026-03-28T07:35:53.746Z</time></trkpt><trkpt lat="44.4622383" lon="11.3217233"><ele>233.66666666666666</ele><time>2026-03-28T07:35:55.747Z</time></trkpt><trkpt lat="44.462225" lon="11.3218633"><ele>233.33333333333331</ele><time>2026-03-28T07:35:57.747Z</time></trkpt><trkpt lat="44.4622067" lon="11.3219883"><ele>233.0</ele><time>2026-03-28T07:35:59.746Z</time></trkpt><trkpt lat="44.46219" lon="11.322105"><ele>232.66666666666666</ele><time>2026-03-28T07:36:01.747Z</time></trkpt><trkpt lat="44.462175" lon="11.3221967"><ele>232.33333333333331</ele><time>2026-03-28T07:36:03.747Z</time></trkpt><trkpt lat="44.4621633" lon="11.322295"><ele>232.0</ele><time>2026-03-28T07:36:05.747Z</time></trkpt><trkpt lat="44.46215" lon="11.3223933"><ele>231.99999999999997</ele><time>2026-03-28T07:36:07.747Z</time></trkpt><trkpt lat="44.46213" lon="11.3224833"><ele>232.0</ele><time>2026-03-28T07:36:09.746Z</time></trkpt><trkpt lat="44.4621167" lon="11.3225867"><ele>232.0</ele><time>2026-03-28T07:36:11.747Z</time></trkpt><trkpt lat="44.4621" lon="11.3226767"><ele>232.0</ele><time>2026-03-28T07:36:13.747Z</time></trkpt><trkpt lat="44.4620883" lon="11.3227733"><ele>231.99999999999997</ele><time>2026-03-28T07:36:15.747Z</time></trkpt><trkpt lat="44.46208" lon="11.3228983"><ele>232.0</ele><time>2026-03-28T07:36:18.747Z</time></trkpt><trkpt lat="44.4620667" lon="11.3230267"><ele>234.99999999999997</ele><time>2026-03-28T07:36:21.747Z</time></trkpt><trkpt lat="44.4620617" lon="11.32314"><ele>238.0</ele><time>2026-03-28T07:36:24.747Z</time></trkpt><trkpt lat="44.46206" lon="11.323235"><ele>241.0</ele><time>2026-03-28T07:36:26.746Z</time></trkpt><trkpt lat="44.46204" lon="11.323365"><ele>244.0</ele><time>2026-03-28T07:36:29.746Z</time></trkpt><trkpt lat="44.462035" lon="11.3234533"><ele>246.99999999999997</ele><time>2026-03-28T07:36:31.747Z</time></trkpt><trkpt lat="44.46203" lon="11.3235633"><ele>250.0</ele><time>2026-03-28T07:36:33.747Z</time></trkpt><trkpt lat="44.4620217" lon="11.323665"><ele>249.99999999999997</ele><time>2026-03-28T07:36:35.746Z</time></trkpt><trkpt lat="44.46201" lon="11.32376"><ele>250.0</ele><time>2026-03-28T07:36:37.747Z</time></trkpt><trkpt lat="44.4619967" lon="11.3238667"><ele>250.0</ele><time>2026-03-28T07:36:40.746Z</time></trkpt><trkpt lat="44.4620017" lon="11.323965"><ele>250.0</ele><time>2026-03-28T07:37:35.748Z</time></trkpt><trkpt lat="44.46198" lon="11.3240617"><ele>249.99999999999997</ele><time>2026-03-28T07:37:37.748Z</time></trkpt><trkpt lat="44.4619667" lon="11.3241817"><ele>250.0</ele><time>2026-03-28T07:37:39.748Z</time></trkpt><trkpt lat="44.4619483" lon="11.3243167"><ele>250.2</ele><time>2026-03-28T07:37:41.748Z</time></trkpt><trkpt lat="44.461925" lon="11.324455"><ele>250.4</ele><time>2026-03-28T07:37:43.748Z</time></trkpt><trkpt lat="44.4619083" lon="11.3245917"><ele>250.60000000000002</ele><time>2026-03-28T07:37:45.748Z</time></trkpt><trkpt lat="44.4618933" lon="11.32474"><ele>250.8</ele><time>2026-03-28T07:37:47.748Z</time></trkpt><trkpt lat="44.4618767" lon="11.3248833"><ele>251.0</ele><time>2026-03-28T07:37:49.748Z</time></trkpt><trkpt lat="44.4618633" lon="11.3250183"><ele>251.00000000000003</ele><time>2026-03-28T07:37:51.747Z</time></trkpt><trkpt lat="44.4618417" lon="11.3251533"><ele>251.0</ele><time>2026-03-28T07:37:53.747Z</time></trkpt><trkpt lat="44.46182" lon="11.3252883"><ele>251.0</ele><time>2026-03-28T07:37:55.748Z</time></trkpt><trkpt lat="44.4617967" lon="11.3254117"><ele>251.0</ele><time>2026-03-28T07:37:57.748Z</time></trkpt><trkpt lat="44.4617417" lon="11.325485"><ele>251.00000000000003</ele><time>2026-03-28T07:37:59.748Z</time></trkpt><trkpt lat="44.4616733" lon="11.3254833"><ele>251.0</ele><time>2026-03-28T07:38:01.748Z</time></trkpt><trkpt lat="44.4615933" lon="11.32546"><ele>251.0</ele><time>2026-03-28T07:38:03.748Z</time></trkpt><trkpt lat="44.4615033" lon="11.3254383"><ele>251.00000000000003</ele><time>2026-03-28T07:38:05.747Z</time></trkpt><trkpt lat="44.461425" lon="11.32541"><ele>251.00000000000003</ele><time>2026-03-28T07:38:07.747Z</time></trkpt><trkpt lat="44.4613467" lon="11.3253683"><ele>251.0</ele><time>2026-03-28T07:38:09.748Z</time></trkpt><trkpt lat="44.4612633" lon="11.3253133"><ele>251.0</ele><time>2026-03-28T07:38:11.748Z</time></trkpt><trkpt lat="44.4611633" lon="11.32528"><ele>251.4</ele><time>2026-03-28T07:38:13.747Z</time></trkpt><trkpt lat="44.46106" lon="11.3252183"><ele>251.8</ele><time>2026-03-28T07:38:15.748Z</time></trkpt><trkpt lat="44.46096" lon="11.32515"><ele>252.20000000000002</ele><time>2026-03-28T07:38:17.748Z</time></trkpt><trkpt lat="44.4608533" lon="11.32506"><ele>252.60000000000002</ele><time>2026-03-28T07:38:19.748Z</time></trkpt><trkpt lat="44.4608" lon="11.3250117"><ele>253.0</ele><time>2026-03-28T07:38:20.748Z</time></trkpt><trkpt lat="44.4607517" lon="11.3249517"><ele>253.00000000000003</ele><time>2026-03-28T07:38:21.748Z</time></trkpt><trkpt lat="44.4606983" lon="11.3249033"><ele>253.0</ele><time>2026-03-28T07:38:22.747Z</time></trkpt><trkpt lat="44.4606417" lon="11.3248483"><ele>253.00000000000003</ele><time>2026-03-28T07:38:23.748Z</time></trkpt><trkpt lat="44.4605833" lon="11.3247983"><ele>253.00000000000003</ele><time>2026-03-28T07:38:24.748Z</time></trkpt><trkpt lat="44.4605217" lon="11.3247483"><ele>253.0</ele><time>2026-03-28T07:38:25.747Z</time></trkpt><trkpt lat="44.460455" lon="11.3246917"><ele>253.00000000000003</ele><time>2026-03-28T07:38:26.748Z</time></trkpt><trkpt lat="44.4603883" lon="11.32465"><ele>253.00000000000003</ele><time>2026-03-28T07:38:27.748Z</time></trkpt><trkpt lat="44.4603233" lon="11.3245983"><ele>252.71428571428575</ele><time>2026-03-28T07:38:28.748Z</time></trkpt><trkpt lat="44.460255" lon="11.32455"><ele>252.42857142857144</ele><time>2026-03-28T07:38:29.748Z</time></trkpt><trkpt lat="44.4601933" lon="11.3245017"><ele>252.14285714285714</ele><time>2026-03-28T07:38:30.748Z</time></trkpt><trkpt lat="44.4601317" lon="11.3244467"><ele>251.85714285714286</ele><time>2026-03-28T07:38:31.748Z</time></trkpt><trkpt lat="44.460075" lon="11.3243883"><ele>251.57142857142856</ele><time>2026-03-28T07:38:32.747Z</time></trkpt><trkpt lat="44.4600217" lon="11.324325"><ele>251.28571428571425</ele><time>2026-03-28T07:38:33.748Z</time></trkpt><trkpt lat="44.4599633" lon="11.3242583"><ele>250.99999999999997</ele><time>2026-03-28T07:38:34.747Z</time></trkpt><trkpt lat="44.459905" lon="11.3241917"><ele>251.00000000000003</ele><time>2026-03-28T07:38:35.747Z</time></trkpt><trkpt lat="44.4598467" lon="11.32411"><ele>251.0</ele><time>2026-03-28T07:38:36.748Z</time></trkpt><trkpt lat="44.4597933" lon="11.3240283"><ele>251.0</ele><time>2026-03-28T07:38:37.748Z</time></trkpt><trkpt lat="44.4597383" lon="11.323945"><ele>251.0</ele><time>2026-03-28T07:38:38.747Z</time></trkpt><trkpt lat="44.459685" lon="11.323855"><ele>251.00000000000003</ele><time>2026-03-28T07:38:39.747Z</time></trkpt><trkpt lat="44.4596333" lon="11.3237683"><ele>251.0</ele><time>2026-03-28T07:38:40.748Z</time></trkpt><trkpt lat="44.4595767" lon="11.3236717"><ele>249.4</ele><time>2026-03-28T07:38:41.748Z</time></trkpt><trkpt lat="44.45952" lon="11.3235633"><ele>247.8</ele><time>2026-03-28T07:38:42.748Z</time></trkpt><trkpt lat="44.45945" lon="11.3234533"><ele>246.20000000000002</ele><time>2026-03-28T07:38:43.747Z</time></trkpt><trkpt lat="44.45937" lon="11.323335"><ele>244.60000000000002</ele><time>2026-03-28T07:38:44.748Z</time></trkpt><trkpt lat="44.4592967" lon="11.3232167"><ele>243.0</ele><time>2026-03-28T07:38:45.748Z</time></trkpt><trkpt lat="44.4592267" lon="11.3230933"><ele>244.2</ele><time>2026-03-28T07:38:46.748Z</time></trkpt><trkpt lat="44.4591633" lon="11.3229717"><ele>245.4</ele><time>2026-03-28T07:38:47.748Z</time></trkpt><trkpt lat="44.4591017" lon="11.32285"><ele>246.59999999999997</ele><time>2026-03-28T07:38:48.748Z</time></trkpt><trkpt lat="44.4590433" lon="11.3227417"><ele>247.79999999999998</ele><time>2026-03-28T07:38:49.748Z</time></trkpt><trkpt lat="44.4589833" lon="11.3226333"><ele>249.0</ele><time>2026-03-28T07:38:50.748Z</time></trkpt><trkpt lat="44.4589233" lon="11.3225317"><ele>249.0</ele><time>2026-03-28T07:38:51.748Z</time></trkpt><trkpt lat="44.45887" lon="11.3224483"><ele>249.0</ele><time>2026-03-28T07:38:52.747Z</time></trkpt><trkpt lat="44.4588167" lon="11.32237"><ele>249.0</ele><time>2026-03-28T07:38:53.748Z</time></trkpt><trkpt lat="44.4587633" lon="11.3223017"><ele>249.0</ele><time>2026-03-28T07:38:54.748Z</time></trkpt><trkpt lat="44.4587083" lon="11.3222267"><ele>249.0</ele><time>2026-03-28T07:38:55.747Z</time></trkpt><trkpt lat="44.4586567" lon="11.3221533"><ele>249.0</ele><time>2026-03-28T07:38:56.748Z</time></trkpt><trkpt lat="44.4586117" lon="11.3220783"><ele>247.85714285714283</ele><time>2026-03-28T07:38:57.748Z</time></trkpt><trkpt lat="44.458565" lon="11.3220083"><ele>246.7142857142857</ele><time>2026-03-28T07:38:58.748Z</time></trkpt><trkpt lat="44.4585133" lon="11.3219417"><ele>245.57142857142856</ele><time>2026-03-28T07:38:59.747Z</time></trkpt><trkpt lat="44.458455" lon="11.3218767"><ele>244.42857142857144</ele><time>2026-03-28T07:39:00.748Z</time></trkpt><trkpt lat="44.4584033" lon="11.3218183"><ele>243.2857142857143</ele><time>2026-03-28T07:39:01.748Z</time></trkpt><trkpt lat="44.458345" lon="11.32176"><ele>242.14285714285717</ele><time>2026-03-28T07:39:02.748Z</time></trkpt><trkpt lat="44.4582883" lon="11.3216933"><ele>241.0</ele><time>2026-03-28T07:39:03.748Z</time></trkpt><trkpt lat="44.45823" lon="11.3216417"><ele>240.99999999999997</ele><time>2026-03-28T07:39:04.748Z</time></trkpt><trkpt lat="44.4581633" lon="11.3215867"><ele>241.0</ele><time>2026-03-28T07:39:05.748Z</time></trkpt><trkpt lat="44.4580983" lon="11.3215283"><ele>241.0</ele><time>2026-03-28T07:39:06.748Z</time></trkpt><trkpt lat="44.4580233" lon="11.3214883"><ele>241.0</ele><time>2026-03-28T07:39:07.748Z</time></trkpt><trkpt lat="44.4579517" lon="11.32143"><ele>240.99999999999997</ele><time>2026-03-28T07:39:08.748Z</time></trkpt><trkpt lat="44.45789" lon="11.3213733"><ele>241.0</ele><time>2026-03-28T07:39:09.748Z</time></trkpt><trkpt lat="44.4578183" lon="11.3213233"><ele>240.16666666666666</ele><time>2026-03-28T07:39:10.747Z</time></trkpt><trkpt lat="44.45775" lon="11.32126"><ele>239.33333333333331</ele><time>2026-03-28T07:39:11.748Z</time></trkpt><trkpt lat="44.457685" lon="11.3211983"><ele>238.5</ele><time>2026-03-28T07:39:12.748Z</time></trkpt><trkpt lat="44.457615" lon="11.32114"><ele>237.66666666666669</ele><time>2026-03-28T07:39:13.748Z</time></trkpt><trkpt lat="44.4575467" lon="11.3210833"><ele>236.83333333333334</ele><time>2026-03-28T07:39:14.748Z</time></trkpt><trkpt lat="44.4574767" lon="11.3210317"><ele>236.0</ele><time>2026-03-28T07:39:15.748Z</time></trkpt><trkpt lat="44.4574083" lon="11.3209733"><ele>236.0</ele><time>2026-03-28T07:39:16.748Z</time></trkpt><trkpt lat="44.4573483" lon="11.3209083"><ele>236.0</ele><time>2026-03-28T07:39:17.748Z</time></trkpt><trkpt lat="44.4572917" lon="11.3208417"><ele>236.0</ele><time>2026-03-28T07:39:18.747Z</time></trkpt><trkpt lat="44.4572267" lon="11.3207967"><ele>236.0</ele><time>2026-03-28T07:39:19.747Z</time></trkpt><trkpt lat="44.4571567" lon="11.32074"><ele>236.0</ele><time>2026-03-28T07:39:20.748Z</time></trkpt><trkpt lat="44.457095" lon="11.3206817"><ele>236.0</ele><time>2026-03-28T07:39:21.748Z</time></trkpt><trkpt lat="44.4570367" lon="11.3206317"><ele>236.0</ele><time>2026-03-28T07:39:22.748Z</time></trkpt><trkpt lat="44.4569783" lon="11.3205833"><ele>236.20000000000002</ele><time>2026-03-28T07:39:23.748Z</time></trkpt><trkpt lat="44.456875" lon="11.3204867"><ele>236.40000000000003</ele><time>2026-03-28T07:39:25.748Z</time></trkpt><trkpt lat="44.4568133" lon="11.3204467"><ele>236.6</ele><time>2026-03-28T07:39:26.747Z</time></trkpt><trkpt lat="44.4567117" lon="11.3203617"><ele>236.8</ele><time>2026-03-28T07:39:28.748Z</time></trkpt><trkpt lat="44.4566183" lon="11.3202633"><ele>237.0</ele><time>2026-03-28T07:39:30.747Z</time></trkpt><trkpt lat="44.45653" lon="11.3201433"><ele>237.0</ele><time>2026-03-28T07:39:32.748Z</time></trkpt><trkpt lat="44.456445" lon="11.32002"><ele>237.0</ele><time>2026-03-28T07:39:34.748Z</time></trkpt><trkpt lat="44.45636" lon="11.319895"><ele>237.0</ele><time>2026-03-28T07:39:36.747Z</time></trkpt><trkpt lat="44.45631" lon="11.319835"><ele>237.0</ele><time>2026-03-28T07:39:37.748Z</time></trkpt><trkpt lat="44.4562617" lon="11.3197733"><ele>237.0</ele><time>2026-03-28T07:39:38.748Z</time></trkpt><trkpt lat="44.4561717" lon="11.3196567"><ele>237.33333333333334</ele><time>2026-03-28T07:39:40.747Z</time></trkpt><trkpt lat="44.4560983" lon="11.31955"><ele>237.66666666666669</ele><time>2026-03-28T07:39:42.747Z</time></trkpt><trkpt lat="44.456" lon="11.3194667"><ele>238.0</ele><time>2026-03-28T07:39:44.748Z</time></trkpt><trkpt lat="44.4559433" lon="11.3194183"><ele>238.33333333333334</ele><time>2026-03-28T07:39:45.748Z</time></trkpt><trkpt lat="44.45589" lon="11.3193683"><ele>238.66666666666669</ele><time>2026-03-28T07:39:46.748Z</time></trkpt><trkpt lat="44.4558367" lon="11.3193133"><ele>239.0</ele><time>2026-03-28T07:39:47.747Z</time></trkpt><trkpt lat="44.45573" lon="11.31923"><ele>239.00000000000003</ele><time>2026-03-28T07:39:49.747Z</time></trkpt><trkpt lat="44.455675" lon="11.3191867"><ele>239.0</ele><time>2026-03-28T07:39:50.747Z</time></trkpt><trkpt lat="44.45557" lon="11.31911"><ele>239.0</ele><time>2026-03-28T07:39:52.748Z</time></trkpt><trkpt lat="44.4555083" lon="11.3190667"><ele>239.0</ele><time>2026-03-28T07:39:53.748Z</time></trkpt><trkpt lat="44.4554517" lon="11.3190267"><ele>239.00000000000003</ele><time>2026-03-28T07:39:54.748Z</time></trkpt><trkpt lat="44.45534" lon="11.318935"><ele>239.0</ele><time>2026-03-28T07:39:56.748Z</time></trkpt><trkpt lat="44.4552817" lon="11.3188933"><ele>238.2</ele><time>2026-03-28T07:39:57.748Z</time></trkpt><trkpt lat="44.455175" lon="11.3188"><ele>237.39999999999998</ele><time>2026-03-28T07:39:59.748Z</time></trkpt><trkpt lat="44.4550767" lon="11.3187083"><ele>236.6</ele><time>2026-03-28T07:40:01.747Z</time></trkpt><trkpt lat="44.45502" lon="11.318665"><ele>235.8</ele><time>2026-03-28T07:40:02.747Z</time></trkpt><trkpt lat="44.4549133" lon="11.3185867"><ele>235.0</ele><time>2026-03-28T07:40:04.748Z</time></trkpt><trkpt lat="44.4548533" lon="11.3185483"><ele>235.0</ele><time>2026-03-28T07:40:05.748Z</time></trkpt><trkpt lat="44.454755" lon="11.3184717"><ele>235.0</ele><time>2026-03-28T07:40:07.748Z</time></trkpt><trkpt lat="44.454655" lon="11.3184067"><ele>235.0</ele><time>2026-03-28T07:40:09.748Z</time></trkpt><trkpt lat="44.4545483" lon="11.3183533"><ele>235.0</ele><time>2026-03-28T07:40:11.748Z</time></trkpt><trkpt lat="44.454455" lon="11.3183067"><ele>235.0</ele><time>2026-03-28T07:40:13.748Z</time></trkpt><trkpt lat="44.4543567" lon="11.3182517"><ele>236.49999999999997</ele><time>2026-03-28T07:40:15.748Z</time></trkpt><trkpt lat="44.4542667" lon="11.3182033"><ele>238.0</ele><time>2026-03-28T07:40:17.748Z</time></trkpt><trkpt lat="44.4542117" lon="11.3181217"><ele>239.5</ele><time>2026-03-28T07:40:19.748Z</time></trkpt><trkpt lat="44.4541667" lon="11.3180367"><ele>241.0</ele><time>2026-03-28T07:40:21.748Z</time></trkpt><trkpt lat="44.4541367" lon="11.31795"><ele>242.49999999999997</ele><time>2026-03-28T07:40:23.748Z</time></trkpt><trkpt lat="44.4541083" lon="11.317855"><ele>244.0</ele><time>2026-03-28T07:40:25.748Z</time></trkpt><trkpt lat="44.4540767" lon="11.3177367"><ele>243.99999999999997</ele><time>2026-03-28T07:40:28.749Z</time></trkpt><trkpt lat="44.4540583" lon="11.3176467"><ele>244.0</ele><time>2026-03-28T07:40:30.749Z</time></trkpt><trkpt lat="44.4540333" lon="11.3175633"><ele>243.99999999999997</ele><time>2026-03-28T07:40:32.749Z</time></trkpt><trkpt lat="44.4539967" lon="11.317485"><ele>243.99999999999997</ele><time>2026-03-28T07:40:34.748Z</time></trkpt><trkpt lat="44.4539533" lon="11.3173917"><ele>244.0</ele><time>2026-03-28T07:40:37.748Z</time></trkpt><trkpt lat="44.453915" lon="11.3173"><ele>243.99999999999997</ele><time>2026-03-28T07:40:40.749Z</time></trkpt><trkpt lat="44.4538683" lon="11.3171983"><ele>243.99999999999997</ele><time>2026-03-28T07:40:43.749Z</time></trkpt><trkpt lat="44.4538167" lon="11.3171133"><ele>247.66666666666666</ele><time>2026-03-28T07:40:46.749Z</time></trkpt><trkpt lat="44.4537583" lon="11.3170183"><ele>251.33333333333331</ele><time>2026-03-28T07:40:49.749Z</time></trkpt><trkpt lat="44.4537033" lon="11.3169433"><ele>255.0</ele><time>2026-03-28T07:40:52.749Z</time></trkpt><trkpt lat="44.4536617" lon="11.3168533"><ele>258.6666666666667</ele><time>2026-03-28T07:40:55.749Z</time></trkpt><trkpt lat="44.45361" lon="11.3167667"><ele>262.33333333333337</ele><time>2026-03-28T07:40:58.748Z</time></trkpt><trkpt lat="44.4535833" lon="11.3166433"><ele>266.0</ele><time>2026-03-28T07:41:01.748Z</time></trkpt><trkpt lat="44.4535267" lon="11.3165483"><ele>266.0</ele><time>2026-03-28T07:41:04.749Z</time></trkpt><trkpt lat="44.45348" lon="11.31647"><ele>266.0</ele><time>2026-03-28T07:41:07.749Z</time></trkpt><trkpt lat="44.45343" lon="11.3163933"><ele>266.0</ele><time>2026-03-28T07:41:10.749Z</time></trkpt><trkpt lat="44.4533733" lon="11.31632"><ele>266.0</ele><time>2026-03-28T07:41:13.748Z</time></trkpt><trkpt lat="44.45333" lon="11.3162533"><ele>266.0</ele><time>2026-03-28T07:41:16.748Z</time></trkpt><trkpt lat="44.4532767" lon="11.3161883"><ele>266.0</ele><time>2026-03-28T07:41:19.748Z</time></trkpt><trkpt lat="44.4532117" lon="11.3161183"><ele>266.0</ele><time>2026-03-28T07:41:22.749Z</time></trkpt><trkpt lat="44.4531433" lon="11.3160817"><ele>267.0</ele><time>2026-03-28T07:41:25.749Z</time></trkpt><trkpt lat="44.4530783" lon="11.3160483"><ele>268.0</ele><time>2026-03-28T07:41:28.749Z</time></trkpt><trkpt lat="44.4530117" lon="11.3160083"><ele>269.0</ele><time>2026-03-28T07:41:31.749Z</time></trkpt><trkpt lat="44.4529367" lon="11.315975"><ele>270.0</ele><time>2026-03-28T07:41:34.749Z</time></trkpt><trkpt lat="44.45287" lon="11.3159567"><ele>271.0</ele><time>2026-03-28T07:41:37.749Z</time></trkpt><trkpt lat="44.452805" lon="11.3159617"><ele>272.0</ele><time>2026-03-28T07:41:40.749Z</time></trkpt><trkpt lat="44.4527267" lon="11.3159667"><ele>273.0</ele><time>2026-03-28T07:41:43.749Z</time></trkpt><trkpt lat="44.452665" lon="11.3160133"><ele>273.0</ele><time>2026-03-28T07:41:46.748Z</time></trkpt><trkpt lat="44.4525983" lon="11.3160783"><ele>273.0</ele><time>2026-03-28T07:41:49.749Z</time></trkpt><trkpt lat="44.4525433" lon="11.3161317"><ele>273.0</ele><time>2026-03-28T07:41:52.748Z</time></trkpt><trkpt lat="44.45248" lon="11.3162017"><ele>273.0</ele><time>2026-03-28T07:41:55.749Z</time></trkpt><trkpt lat="44.4524167" lon="11.3162983"><ele>273.0</ele><time>2026-03-28T07:41:58.748Z</time></trkpt><trkpt lat="44.4523533" lon="11.31636"><ele>273.0</ele><time>2026-03-28T07:42:00.749Z</time></trkpt><trkpt lat="44.4523" lon="11.3164083"><ele>273.8333333333333</ele><time>2026-03-28T07:42:02.749Z</time></trkpt><trkpt lat="44.45224" lon="11.3164467"><ele>274.6666666666667</ele><time>2026-03-28T07:42:04.749Z</time></trkpt><trkpt lat="44.4521583" lon="11.3164967"><ele>275.5</ele><time>2026-03-28T07:42:06.749Z</time></trkpt><trkpt lat="44.452065" lon="11.3165033"><ele>276.33333333333337</ele><time>2026-03-28T07:42:08.749Z</time></trkpt><trkpt lat="44.4519783" lon="11.3164783"><ele>277.1666666666667</ele><time>2026-03-28T07:42:10.748Z</time></trkpt><trkpt lat="44.4518917" lon="11.3164533"><ele>278.0</ele><time>2026-03-28T07:42:12.749Z</time></trkpt><trkpt lat="44.4517983" lon="11.316425"><ele>278.33333333333337</ele><time>2026-03-28T07:42:14.748Z</time></trkpt><trkpt lat="44.45169" lon="11.3164067"><ele>278.6666666666667</ele><time>2026-03-28T07:42:16.749Z</time></trkpt><trkpt lat="44.4516217" lon="11.3164"><ele>279.0</ele><time>2026-03-28T07:42:17.749Z</time></trkpt><trkpt lat="44.4515583" lon="11.3163933"><ele>279.3333333333333</ele><time>2026-03-28T07:42:18.749Z</time></trkpt><trkpt lat="44.45149" lon="11.3163783"><ele>279.66666666666663</ele><time>2026-03-28T07:42:19.749Z</time></trkpt><trkpt lat="44.4514217" lon="11.3163733"><ele>280.0</ele><time>2026-03-28T07:42:20.748Z</time></trkpt><trkpt lat="44.4513433" lon="11.3163733"><ele>276.16666666666663</ele><time>2026-03-28T07:42:21.749Z</time></trkpt><trkpt lat="44.4512683" lon="11.31637"><ele>272.3333333333333</ele><time>2026-03-28T07:42:22.749Z</time></trkpt><trkpt lat="44.4511783" lon="11.31637"><ele>268.5</ele><time>2026-03-28T07:42:23.749Z</time></trkpt><trkpt lat="44.4510833" lon="11.3163583"><ele>264.6666666666667</ele><time>2026-03-28T07:42:24.749Z</time></trkpt><trkpt lat="44.4509967" lon="11.3163367"><ele>260.83333333333337</ele><time>2026-03-28T07:42:25.748Z</time></trkpt><trkpt lat="44.450905" lon="11.3163133"><ele>257.0</ele><time>2026-03-28T07:42:26.749Z</time></trkpt><trkpt lat="44.45082" lon="11.3162783"><ele>257.0</ele><time>2026-03-28T07:42:27.749Z</time></trkpt><trkpt lat="44.4507383" lon="11.3162433"><ele>257.0</ele><time>2026-03-28T07:42:28.748Z</time></trkpt><trkpt lat="44.450655" lon="11.3161983"><ele>257.0</ele><time>2026-03-28T07:42:29.748Z</time></trkpt><trkpt lat="44.4505783" lon="11.3161533"><ele>257.0</ele><time>2026-03-28T07:42:30.749Z</time></trkpt><trkpt lat="44.4505017" lon="11.316115"><ele>257.0</ele><time>2026-03-28T07:42:31.748Z</time></trkpt><trkpt lat="44.4503867" lon="11.3160517"><ele>258.0</ele><time>2026-03-28T07:42:33.749Z</time></trkpt><trkpt lat="44.4503167" lon="11.3160217"><ele>259.0</ele><time>2026-03-28T07:42:34.749Z</time></trkpt><trkpt lat="44.4502483" lon="11.315995"><ele>260.0</ele><time>2026-03-28T07:42:35.748Z</time></trkpt><trkpt lat="44.450175" lon="11.3159633"><ele>261.0</ele><time>2026-03-28T07:42:36.748Z</time></trkpt><trkpt lat="44.45011" lon="11.3159383"><ele>262.0</ele><time>2026-03-28T07:42:37.748Z</time></trkpt><trkpt lat="44.450035" lon="11.3159117"><ele>263.0</ele><time>2026-03-28T07:42:38.748Z</time></trkpt><trkpt lat="44.4499717" lon="11.3158867"><ele>264.0</ele><time>2026-03-28T07:42:39.748Z</time></trkpt><trkpt lat="44.4499033" lon="11.315865"><ele>264.0</ele><time>2026-03-28T07:42:40.749Z</time></trkpt><trkpt lat="44.449835" lon="11.3158417"><ele>264.0</ele><time>2026-03-28T07:42:41.749Z</time></trkpt><trkpt lat="44.44977" lon="11.3158217"><ele>264.0</ele><time>2026-03-28T07:42:42.749Z</time></trkpt><trkpt lat="44.4496483" lon="11.31577"><ele>264.0</ele><time>2026-03-28T07:42:44.748Z</time></trkpt><trkpt lat="44.4495867" lon="11.3157317"><ele>264.0</ele><time>2026-03-28T07:42:45.749Z</time></trkpt><trkpt lat="44.449525" lon="11.31569"><ele>264.0</ele><time>2026-03-28T07:42:46.749Z</time></trkpt><trkpt lat="44.449465" lon="11.3156533"><ele>263.1666666666667</ele><time>2026-03-28T07:42:47.749Z</time></trkpt><trkpt lat="44.4494033" lon="11.3156217"><ele>262.3333333333333</ele><time>2026-03-28T07:42:48.749Z</time></trkpt><trkpt lat="44.4493017" lon="11.315565"><ele>261.5</ele><time>2026-03-28T07:42:50.749Z</time></trkpt><trkpt lat="44.44921" lon="11.3155117"><ele>260.66666666666663</ele><time>2026-03-28T07:42:52.749Z</time></trkpt><trkpt lat="44.4491367" lon="11.315475"><ele>259.8333333333333</ele><time>2026-03-28T07:42:54.749Z</time></trkpt><trkpt lat="44.4490783" lon="11.3154133"><ele>259.0</ele><time>2026-03-28T07:42:56.748Z</time></trkpt><trkpt lat="44.4489967" lon="11.31539"><ele>259.0</ele><time>2026-03-28T07:42:58.748Z</time></trkpt><trkpt lat="44.448895" lon="11.315405"><ele>259.0</ele><time>2026-03-28T07:43:00.749Z</time></trkpt><trkpt lat="44.4488283" lon="11.3154283"><ele>259.0</ele><time>2026-03-28T07:43:01.749Z</time></trkpt><trkpt lat="44.4487617" lon="11.3154533"><ele>259.0</ele><time>2026-03-28T07:43:02.749Z</time></trkpt><trkpt lat="44.4486533" lon="11.3154983"><ele>259.0</ele><time>2026-03-28T07:43:04.748Z</time></trkpt><trkpt lat="44.4485617" lon="11.3155267"><ele>259.0</ele><time>2026-03-28T07:43:06.749Z</time></trkpt><trkpt lat="44.4484967" lon="11.31554"><ele>259.3333333333333</ele><time>2026-03-28T07:43:08.748Z</time></trkpt><trkpt lat="44.448425" lon="11.3155333"><ele>259.66666666666663</ele><time>2026-03-28T07:43:10.748Z</time></trkpt><trkpt lat="44.4483317" lon="11.315525"><ele>260.0</ele><time>2026-03-28T07:43:12.749Z</time></trkpt><trkpt lat="44.4482417" lon="11.31551"><ele>260.3333333333333</ele><time>2026-03-28T07:43:14.749Z</time></trkpt><trkpt lat="44.448145" lon="11.3155"><ele>260.6666666666667</ele><time>2026-03-28T07:43:16.748Z</time></trkpt><trkpt lat="44.4480567" lon="11.315455"><ele>261.0</ele><time>2026-03-28T07:43:18.748Z</time></trkpt><trkpt lat="44.447965" lon="11.3153867"><ele>261.40000000000003</ele><time>2026-03-28T07:43:20.749Z</time></trkpt><trkpt lat="44.4478783" lon="11.3153167"><ele>261.8</ele><time>2026-03-28T07:43:22.748Z</time></trkpt><trkpt lat="44.4477917" lon="11.3152283"><ele>262.20000000000005</ele><time>2026-03-28T07:43:24.749Z</time></trkpt><trkpt lat="44.4477067" lon="11.3151233"><ele>262.6</ele><time>2026-03-28T07:43:26.749Z</time></trkpt><trkpt lat="44.4476567" lon="11.3150667"><ele>263.0</ele><time>2026-03-28T07:43:27.748Z</time></trkpt><trkpt lat="44.4476067" lon="11.314935"><ele>263.0</ele><time>2026-03-28T07:43:29.749Z</time></trkpt><trkpt lat="44.4476067" lon="11.314795"><ele>263.0</ele><time>2026-03-28T07:43:31.749Z</time></trkpt><trkpt lat="44.4476217" lon="11.314645"><ele>263.0</ele><time>2026-03-28T07:43:33.748Z</time></trkpt><trkpt lat="44.4476483" lon="11.314495"><ele>263.0</ele><time>2026-03-28T07:43:35.749Z</time></trkpt><trkpt lat="44.4476717" lon="11.3143467"><ele>263.0</ele><time>2026-03-28T07:43:37.749Z</time></trkpt><trkpt lat="44.4476833" lon="11.3141867"><ele>262.6</ele><time>2026-03-28T07:43:39.749Z</time></trkpt><trkpt lat="44.44768" lon="11.3140417"><ele>262.20000000000005</ele><time>2026-03-28T07:43:41.749Z</time></trkpt><trkpt lat="44.4476517" lon="11.3139"><ele>261.8</ele><time>2026-03-28T07:43:43.748Z</time></trkpt><trkpt lat="44.4475983" lon="11.313765"><ele>261.40000000000003</ele><time>2026-03-28T07:43:45.749Z</time></trkpt><trkpt lat="44.44753" lon="11.3136467"><ele>261.0</ele><time>2026-03-28T07:43:47.749Z</time></trkpt><trkpt lat="44.4474483" lon="11.3135367"><ele>261.0</ele><time>2026-03-28T07:43:49.748Z</time></trkpt><trkpt lat="44.447375" lon="11.3134583"><ele>261.0</ele><time>2026-03-28T07:43:51.749Z</time></trkpt><trkpt lat="44.4473117" lon="11.313415"><ele>261.0</ele><time>2026-03-28T07:43:53.749Z</time></trkpt><trkpt lat="44.4472483" lon="11.3133717"><ele>261.0</ele><time>2026-03-28T07:43:55.749Z</time></trkpt><trkpt lat="44.4471633" lon="11.3133233"><ele>261.0</ele><time>2026-03-28T07:43:57.75Z</time></trkpt><trkpt lat="44.4470533" lon="11.3132783"><ele>261.0</ele><time>2026-03-28T07:43:59.75Z</time></trkpt><trkpt lat="44.4469283" lon="11.3132317"><ele>259.8571428571429</ele><time>2026-03-28T07:44:01.749Z</time></trkpt><trkpt lat="44.4468617" lon="11.31321"><ele>258.7142857142857</ele><time>2026-03-28T07:44:02.75Z</time></trkpt><trkpt lat="44.4467883" lon="11.3131933"><ele>257.57142857142856</ele><time>2026-03-28T07:44:03.75Z</time></trkpt><trkpt lat="44.44672" lon="11.31318"><ele>256.42857142857144</ele><time>2026-03-28T07:44:04.749Z</time></trkpt><trkpt lat="44.4466483" lon="11.3131717"><ele>255.28571428571428</ele><time>2026-03-28T07:44:05.75Z</time></trkpt><trkpt lat="44.4465717" lon="11.3131783"><ele>254.14285714285717</ele><time>2026-03-28T07:44:06.749Z</time></trkpt><trkpt lat="44.4464883" lon="11.31319"><ele>253.00000000000003</ele><time>2026-03-28T07:44:07.749Z</time></trkpt><trkpt lat="44.446405" lon="11.3131917"><ele>252.99999999999997</ele><time>2026-03-28T07:44:08.749Z</time></trkpt><trkpt lat="44.44632" lon="11.3131967"><ele>253.0</ele><time>2026-03-28T07:44:09.75Z</time></trkpt><trkpt lat="44.4462317" lon="11.3132033"><ele>253.0</ele><time>2026-03-28T07:44:10.749Z</time></trkpt><trkpt lat="44.4461417" lon="11.3131917"><ele>253.0</ele><time>2026-03-28T07:44:11.75Z</time></trkpt><trkpt lat="44.446055" lon="11.3131683"><ele>252.99999999999997</ele><time>2026-03-28T07:44:12.75Z</time></trkpt><trkpt lat="44.4459683" lon="11.3131317"><ele>253.0</ele><time>2026-03-28T07:44:13.75Z</time></trkpt><trkpt lat="44.4458783" lon="11.3130933"><ele>252.2</ele><time>2026-03-28T07:44:14.75Z</time></trkpt><trkpt lat="44.445795" lon="11.3130483"><ele>251.4</ele><time>2026-03-28T07:44:15.75Z</time></trkpt><trkpt lat="44.4457067" lon="11.3129983"><ele>250.59999999999997</ele><time>2026-03-28T07:44:16.75Z</time></trkpt><trkpt lat="44.4456233" lon="11.3129483"><ele>249.79999999999998</ele><time>2026-03-28T07:44:17.75Z</time></trkpt><trkpt lat="44.4455383" lon="11.3128917"><ele>249.0</ele><time>2026-03-28T07:44:18.75Z</time></trkpt><trkpt lat="44.445455" lon="11.3128383"><ele>249.0</ele><time>2026-03-28T07:44:19.75Z</time></trkpt><trkpt lat="44.4453817" lon="11.312785"><ele>249.0</ele><time>2026-03-28T07:44:20.75Z</time></trkpt><trkpt lat="44.4453083" lon="11.31273"><ele>249.0</ele><time>2026-03-28T07:44:21.75Z</time></trkpt><trkpt lat="44.4452433" lon="11.3126733"><ele>249.0</ele><time>2026-03-28T07:44:22.75Z</time></trkpt><trkpt lat="44.4451817" lon="11.31261"><ele>249.0</ele><time>2026-03-28T07:44:23.749Z</time></trkpt><trkpt lat="44.44512" lon="11.3125483"><ele>249.0</ele><time>2026-03-28T07:44:24.75Z</time></trkpt><trkpt lat="44.4450617" lon="11.312485"><ele>249.0</ele><time>2026-03-28T07:44:25.75Z</time></trkpt><trkpt lat="44.4450017" lon="11.312425"><ele>248.99999999999997</ele><time>2026-03-28T07:44:26.75Z</time></trkpt><trkpt lat="44.44494" lon="11.3123583"><ele>249.0</ele><time>2026-03-28T07:44:27.749Z</time></trkpt><trkpt lat="44.4448883" lon="11.312285"><ele>249.0</ele><time>2026-03-28T07:44:28.749Z</time></trkpt><trkpt lat="44.444845" lon="11.3122083"><ele>248.99999999999997</ele><time>2026-03-28T07:44:29.75Z</time></trkpt><trkpt lat="44.4447967" lon="11.3121267"><ele>249.0</ele><time>2026-03-28T07:44:30.75Z</time></trkpt><trkpt lat="44.4447583" lon="11.31204"><ele>249.0</ele><time>2026-03-28T07:44:31.749Z</time></trkpt><trkpt lat="44.4447183" lon="11.3119617"><ele>249.14285714285714</ele><time>2026-03-28T07:44:32.75Z</time></trkpt><trkpt lat="44.4446733" lon="11.3118817"><ele>249.28571428571428</ele><time>2026-03-28T07:44:33.75Z</time></trkpt><trkpt lat="44.444635" lon="11.3117983"><ele>249.42857142857142</ele><time>2026-03-28T07:44:34.75Z</time></trkpt><trkpt lat="44.4445967" lon="11.3117133"><ele>249.57142857142856</ele><time>2026-03-28T07:44:35.75Z</time></trkpt><trkpt lat="44.444555" lon="11.3116283"><ele>249.71428571428572</ele><time>2026-03-28T07:44:36.75Z</time></trkpt><trkpt lat="44.4445217" lon="11.3115483"><ele>249.85714285714283</ele><time>2026-03-28T07:44:37.75Z</time></trkpt><trkpt lat="44.4444817" lon="11.3114617"><ele>250.0</ele><time>2026-03-28T07:44:38.749Z</time></trkpt><trkpt lat="44.4444483" lon="11.311375"><ele>250.0</ele><time>2026-03-28T07:44:39.75Z</time></trkpt><trkpt lat="44.4444117" lon="11.31129"><ele>250.0</ele><time>2026-03-28T07:44:40.749Z</time></trkpt><trkpt lat="44.444375" lon="11.3112"><ele>250.0</ele><time>2026-03-28T07:44:41.75Z</time></trkpt><trkpt lat="44.4443417" lon="11.311105"><ele>250.0</ele><time>2026-03-28T07:44:42.75Z</time></trkpt><trkpt lat="44.4443083" lon="11.3110067"><ele>250.0</ele><time>2026-03-28T07:44:43.75Z</time></trkpt><trkpt lat="44.4442733" lon="11.3109117"><ele>250.0</ele><time>2026-03-28T07:44:44.75Z</time></trkpt><trkpt lat="44.4442433" lon="11.310825"><ele>250.0</ele><time>2026-03-28T07:44:45.749Z</time></trkpt><trkpt lat="44.4442083" lon="11.3107267"><ele>249.99999999999997</ele><time>2026-03-28T07:44:46.75Z</time></trkpt><trkpt lat="44.4441767" lon="11.3106283"><ele>250.0</ele><time>2026-03-28T07:44:47.749Z</time></trkpt><trkpt lat="44.4441517" lon="11.3105333"><ele>250.0</ele><time>2026-03-28T07:44:48.75Z</time></trkpt><trkpt lat="44.4441233" lon="11.3104383"><ele>250.0</ele><time>2026-03-28T07:44:49.75Z</time></trkpt><trkpt lat="44.4440983" lon="11.31035"><ele>249.99999999999997</ele><time>2026-03-28T07:44:50.75Z</time></trkpt><trkpt lat="44.444075" lon="11.31026"><ele>250.0</ele><time>2026-03-28T07:44:51.75Z</time></trkpt><trkpt lat="44.4440333" lon="11.3100983"><ele>250.2</ele><time>2026-03-28T07:44:53.75Z</time></trkpt><trkpt lat="44.4439867" lon="11.30994"><ele>250.4</ele><time>2026-03-28T07:44:55.75Z</time></trkpt><trkpt lat="44.44393" lon="11.3098033"><ele>250.60000000000002</ele><time>2026-03-28T07:44:57.75Z</time></trkpt><trkpt lat="44.4438783" lon="11.30967"><ele>250.8</ele><time>2026-03-28T07:44:59.75Z</time></trkpt><trkpt lat="44.4438317" lon="11.30954"><ele>251.0</ele><time>2026-03-28T07:45:01.749Z</time></trkpt><trkpt lat="44.4437617" lon="11.309415"><ele>251.0</ele><time>2026-03-28T07:45:03.749Z</time></trkpt><trkpt lat="44.4436867" lon="11.3092883"><ele>251.00000000000003</ele><time>2026-03-28T07:45:05.749Z</time></trkpt><trkpt lat="44.4436" lon="11.3091583"><ele>251.00000000000003</ele><time>2026-03-28T07:45:07.75Z</time></trkpt><trkpt lat="44.4435083" lon="11.309035"><ele>251.0</ele><time>2026-03-28T07:45:09.749Z</time></trkpt><trkpt lat="44.4434567" lon="11.3089667"><ele>251.0</ele><time>2026-03-28T07:45:10.75Z</time></trkpt><trkpt lat="44.4434067" lon="11.3088967"><ele>250.71428571428567</ele><time>2026-03-28T07:45:11.75Z</time></trkpt><trkpt lat="44.4433517" lon="11.3088317"><ele>250.42857142857142</ele><time>2026-03-28T07:45:12.749Z</time></trkpt><trkpt lat="44.443295" lon="11.3087617"><ele>250.1428571428571</ele><time>2026-03-28T07:45:13.75Z</time></trkpt><trkpt lat="44.4432417" lon="11.308695"><ele>249.85714285714283</ele><time>2026-03-28T07:45:14.75Z</time></trkpt><trkpt lat="44.44319" lon="11.3086217"><ele>249.57142857142856</ele><time>2026-03-28T07:45:15.75Z</time></trkpt><trkpt lat="44.4431333" lon="11.3085583"><ele>249.28571428571428</ele><time>2026-03-28T07:45:16.749Z</time></trkpt><trkpt lat="44.4430633" lon="11.3085033"><ele>249.0</ele><time>2026-03-28T07:45:17.75Z</time></trkpt><trkpt lat="44.4429933" lon="11.30845"><ele>249.0</ele><time>2026-03-28T07:45:18.749Z</time></trkpt><trkpt lat="44.4429283" lon="11.3084183"><ele>249.0</ele><time>2026-03-28T07:45:19.75Z</time></trkpt><trkpt lat="44.4427983" lon="11.3083767"><ele>249.0</ele><time>2026-03-28T07:45:21.75Z</time></trkpt><trkpt lat="44.4427183" lon="11.3083583"><ele>249.0</ele><time>2026-03-28T07:45:22.749Z</time></trkpt><trkpt lat="44.4426433" lon="11.308345"><ele>249.0</ele><time>2026-03-28T07:45:23.75Z</time></trkpt><trkpt lat="44.4425683" lon="11.3083333"><ele>249.0</ele><time>2026-03-28T07:45:24.75Z</time></trkpt><trkpt lat="44.4425017" lon="11.308315"><ele>249.0</ele><time>2026-03-28T07:45:25.749Z</time></trkpt><trkpt lat="44.4424383" lon="11.308305"><ele>248.99999999999997</ele><time>2026-03-28T07:45:26.749Z</time></trkpt><trkpt lat="44.4423317" lon="11.3082617"><ele>248.99999999999997</ele><time>2026-03-28T07:45:28.75Z</time></trkpt><trkpt lat="44.4422283" lon="11.308215"><ele>249.0</ele><time>2026-03-28T07:45:30.75Z</time></trkpt><trkpt lat="44.4421383" lon="11.3081633"><ele>249.0</ele><time>2026-03-28T07:45:32.75Z</time></trkpt><trkpt lat="44.4420533" lon="11.308125"><ele>250.5</ele><time>2026-03-28T07:45:34.75Z</time></trkpt><trkpt lat="44.44197" lon="11.3081083"><ele>252.0</ele><time>2026-03-28T07:45:36.75Z</time></trkpt><trkpt lat="44.4418883" lon="11.3080783"><ele>253.5</ele><time>2026-03-28T07:45:38.75Z</time></trkpt><trkpt lat="44.44182" lon="11.3080383"><ele>255.0</ele><time>2026-03-28T07:45:40.75Z</time></trkpt><trkpt lat="44.4417367" lon="11.3079883"><ele>256.5</ele><time>2026-03-28T07:45:43.75Z</time></trkpt><trkpt lat="44.4416633" lon="11.30796"><ele>258.0</ele><time>2026-03-28T07:45:46.75Z</time></trkpt><trkpt lat="44.4415983" lon="11.30794"><ele>257.99999999999994</ele><time>2026-03-28T07:45:49.75Z</time></trkpt><trkpt lat="44.44153" lon="11.3079383"><ele>258.0</ele><time>2026-03-28T07:45:52.749Z</time></trkpt><trkpt lat="44.4414633" lon="11.30792"><ele>258.0</ele><time>2026-03-28T07:45:55.75Z</time></trkpt><trkpt lat="44.4413933" lon="11.3079083"><ele>258.0</ele><time>2026-03-28T07:45:58.75Z</time></trkpt><trkpt lat="44.4413267" lon="11.3078883"><ele>258.0</ele><time>2026-03-28T07:46:01.75Z</time></trkpt><trkpt lat="44.4412483" lon="11.307875"><ele>257.99999999999994</ele><time>2026-03-28T07:46:05.75Z</time></trkpt><trkpt lat="44.4411717" lon="11.3078817"><ele>258.0</ele><time>2026-03-28T07:46:09.75Z</time></trkpt><trkpt lat="44.4410983" lon="11.3079083"><ele>259.85714285714283</ele><time>2026-03-28T07:46:13.75Z</time></trkpt><trkpt lat="44.4410333" lon="11.3079217"><ele>261.7142857142857</ele><time>2026-03-28T07:46:16.75Z</time></trkpt><trkpt lat="44.4409667" lon="11.3079517"><ele>263.57142857142856</ele><time>2026-03-28T07:46:19.75Z</time></trkpt><trkpt lat="44.4408867" lon="11.3079583"><ele>265.42857142857144</ele><time>2026-03-28T07:46:23.75Z</time></trkpt><trkpt lat="44.4408233" lon="11.3079617"><ele>267.2857142857143</ele><time>2026-03-28T07:46:26.75Z</time></trkpt><trkpt lat="44.4407483" lon="11.3079483"><ele>269.1428571428571</ele><time>2026-03-28T07:46:30.75Z</time></trkpt><trkpt lat="44.4406717" lon="11.30792"><ele>271.0</ele><time>2026-03-28T07:46:34.75Z</time></trkpt><trkpt lat="44.4405917" lon="11.3079133"><ele>271.0</ele><time>2026-03-28T07:46:38.75Z</time></trkpt><trkpt lat="44.44052" lon="11.30792"><ele>271.0</ele><time>2026-03-28T07:46:42.75Z</time></trkpt><trkpt lat="44.4404567" lon="11.3079417"><ele>271.0</ele><time>2026-03-28T07:46:45.75Z</time></trkpt><trkpt lat="44.4403833" lon="11.30798"><ele>271.0</ele><time>2026-03-28T07:46:49.75Z</time></trkpt><trkpt lat="44.4403217" lon="11.308005"><ele>271.0</ele><time>2026-03-28T07:46:52.75Z</time></trkpt><trkpt lat="44.4402483" lon="11.3080383"><ele>271.0</ele><time>2026-03-28T07:46:56.75Z</time></trkpt><trkpt lat="44.4401783" lon="11.3081033"><ele>271.0</ele><time>2026-03-28T07:47:00.749Z</time></trkpt><trkpt lat="44.44012" lon="11.3081633"><ele>273.57142857142856</ele><time>2026-03-28T07:47:03.75Z</time></trkpt><trkpt lat="44.4400633" lon="11.3082183"><ele>276.14285714285717</ele><time>2026-03-28T07:47:06.75Z</time></trkpt><trkpt lat="44.44001" lon="11.3082683"><ele>278.7142857142857</ele><time>2026-03-28T07:47:09.749Z</time></trkpt><trkpt lat="44.4399517" lon="11.3083333"><ele>281.2857142857143</ele><time>2026-03-28T07:47:12.75Z</time></trkpt><trkpt lat="44.439895" lon="11.3083983"><ele>283.85714285714283</ele><time>2026-03-28T07:47:15.75Z</time></trkpt><trkpt lat="44.4398433" lon="11.30846"><ele>286.42857142857144</ele><time>2026-03-28T07:47:18.75Z</time></trkpt><trkpt lat="44.4397883" lon="11.308535"><ele>289.0</ele><time>2026-03-28T07:47:21.75Z</time></trkpt><trkpt lat="44.4397383" lon="11.308615"><ele>289.0</ele><time>2026-03-28T07:47:24.75Z</time></trkpt><trkpt lat="44.43969" lon="11.3087"><ele>289.0</ele><time>2026-03-28T07:47:27.751Z</time></trkpt><trkpt lat="44.43965" lon="11.3087883"><ele>289.0</ele><time>2026-03-28T07:47:30.75Z</time></trkpt><trkpt lat="44.43959" lon="11.30887"><ele>289.0</ele><time>2026-03-28T07:47:33.751Z</time></trkpt><trkpt lat="44.43954" lon="11.3089617"><ele>289.0</ele><time>2026-03-28T07:47:36.751Z</time></trkpt><trkpt lat="44.4394717" lon="11.3090383"><ele>289.0</ele><time>2026-03-28T07:47:39.75Z</time></trkpt><trkpt lat="44.4394333" lon="11.3091117"><ele>288.8333333333333</ele><time>2026-03-28T07:47:42.751Z</time></trkpt><trkpt lat="44.439385" lon="11.30917"><ele>288.66666666666663</ele><time>2026-03-28T07:47:45.751Z</time></trkpt><trkpt lat="44.4393117" lon="11.3092233"><ele>288.5</ele><time>2026-03-28T07:47:48.751Z</time></trkpt><trkpt lat="44.43925" lon="11.3092667"><ele>288.3333333333333</ele><time>2026-03-28T07:47:50.751Z</time></trkpt><trkpt lat="44.439175" lon="11.3093"><ele>288.1666666666667</ele><time>2026-03-28T07:47:52.751Z</time></trkpt><trkpt lat="44.4391033" lon="11.3093333"><ele>288.0</ele><time>2026-03-28T07:47:54.75Z</time></trkpt><trkpt lat="44.4390117" lon="11.30937"><ele>288.0</ele><time>2026-03-28T07:47:56.751Z</time></trkpt><trkpt lat="44.438915" lon="11.3094267"><ele>288.0</ele><time>2026-03-28T07:47:58.75Z</time></trkpt><trkpt lat="44.4388017" lon="11.3094833"><ele>288.0</ele><time>2026-03-28T07:48:00.75Z</time></trkpt><trkpt lat="44.438735" lon="11.3095"><ele>288.0</ele><time>2026-03-28T07:48:01.751Z</time></trkpt><trkpt lat="44.43866" lon="11.30952"><ele>288.0</ele><time>2026-03-28T07:48:02.751Z</time></trkpt><trkpt lat="44.4385817" lon="11.30953"><ele>288.0</ele><time>2026-03-28T07:48:03.751Z</time></trkpt><trkpt lat="44.4385017" lon="11.30953"><ele>286.6666666666667</ele><time>2026-03-28T07:48:04.751Z</time></trkpt><trkpt lat="44.43842" lon="11.309525"><ele>285.3333333333333</ele><time>2026-03-28T07:48:05.751Z</time></trkpt><trkpt lat="44.438335" lon="11.30951"><ele>284.0</ele><time>2026-03-28T07:48:06.751Z</time></trkpt><trkpt lat="44.4382467" lon="11.3095"><ele>282.66666666666663</ele><time>2026-03-28T07:48:07.751Z</time></trkpt><trkpt lat="44.4381583" lon="11.309495"><ele>281.3333333333333</ele><time>2026-03-28T07:48:08.75Z</time></trkpt><trkpt lat="44.438075" lon="11.309485"><ele>280.0</ele><time>2026-03-28T07:48:09.751Z</time></trkpt><trkpt lat="44.4379817" lon="11.309475"><ele>277.4</ele><time>2026-03-28T07:48:10.751Z</time></trkpt><trkpt lat="44.4378833" lon="11.3094683"><ele>274.8</ele><time>2026-03-28T07:48:11.751Z</time></trkpt><trkpt lat="44.437785" lon="11.30948"><ele>272.2</ele><time>2026-03-28T07:48:12.75Z</time></trkpt><trkpt lat="44.4376883" lon="11.3095067"><ele>269.6</ele><time>2026-03-28T07:48:13.75Z</time></trkpt><trkpt lat="44.4375933" lon="11.3095667"><ele>267.0</ele><time>2026-03-28T07:48:14.751Z</time></trkpt><trkpt lat="44.437505" lon="11.3096467"><ele>267.0</ele><time>2026-03-28T07:48:15.751Z</time></trkpt><trkpt lat="44.4374217" lon="11.3097267"><ele>267.0</ele><time>2026-03-28T07:48:16.751Z</time></trkpt><trkpt lat="44.437355" lon="11.309815"><ele>267.0</ele><time>2026-03-28T07:48:17.751Z</time></trkpt><trkpt lat="44.4372783" lon="11.3098967"><ele>267.0</ele><time>2026-03-28T07:48:18.75Z</time></trkpt><trkpt lat="44.43721" lon="11.309985"><ele>267.0</ele><time>2026-03-28T07:48:19.751Z</time></trkpt><trkpt lat="44.4371383" lon="11.3100717"><ele>266.6</ele><time>2026-03-28T07:48:20.751Z</time></trkpt><trkpt lat="44.4370617" lon="11.3101583"><ele>266.2</ele><time>2026-03-28T07:48:21.751Z</time></trkpt><trkpt lat="44.4369883" lon="11.3102417"><ele>265.8</ele><time>2026-03-28T07:48:22.751Z</time></trkpt><trkpt lat="44.4369117" lon="11.3103217"><ele>265.4</ele><time>2026-03-28T07:48:23.75Z</time></trkpt><trkpt lat="44.4368367" lon="11.31041"><ele>265.0</ele><time>2026-03-28T07:48:24.751Z</time></trkpt><trkpt lat="44.4367567" lon="11.3105"><ele>265.8</ele><time>2026-03-28T07:48:25.751Z</time></trkpt><trkpt lat="44.43668" lon="11.3105883"><ele>266.6</ele><time>2026-03-28T07:48:26.75Z</time></trkpt><trkpt lat="44.4366" lon="11.3106783"><ele>267.4</ele><time>2026-03-28T07:48:27.751Z</time></trkpt><trkpt lat="44.4365233" lon="11.3107683"><ele>268.2</ele><time>2026-03-28T07:48:28.751Z</time></trkpt><trkpt lat="44.4364483" lon="11.310855"><ele>269.0</ele><time>2026-03-28T07:48:29.751Z</time></trkpt><trkpt lat="44.436375" lon="11.31095"><ele>269.0</ele><time>2026-03-28T07:48:30.751Z</time></trkpt><trkpt lat="44.43632" lon="11.3110567"><ele>269.0</ele><time>2026-03-28T07:48:31.751Z</time></trkpt><trkpt lat="44.4362817" lon="11.31117"><ele>269.0</ele><time>2026-03-28T07:48:32.751Z</time></trkpt><trkpt lat="44.4362617" lon="11.311285"><ele>269.0</ele><time>2026-03-28T07:48:33.751Z</time></trkpt><trkpt lat="44.4362583" lon="11.3114017"><ele>269.0</ele><time>2026-03-28T07:48:34.751Z</time></trkpt><trkpt lat="44.436265" lon="11.3115083"><ele>269.0</ele><time>2026-03-28T07:48:35.75Z</time></trkpt><trkpt lat="44.43628" lon="11.3116083"><ele>268.33333333333337</ele><time>2026-03-28T07:48:36.75Z</time></trkpt><trkpt lat="44.4363" lon="11.3117033"><ele>267.6666666666667</ele><time>2026-03-28T07:48:37.751Z</time></trkpt><trkpt lat="44.436325" lon="11.311795"><ele>267.0</ele><time>2026-03-28T07:48:38.75Z</time></trkpt><trkpt lat="44.4363583" lon="11.311885"><ele>266.3333333333333</ele><time>2026-03-28T07:48:39.751Z</time></trkpt><trkpt lat="44.43639" lon="11.311975"><ele>265.66666666666663</ele><time>2026-03-28T07:48:40.751Z</time></trkpt><trkpt lat="44.43642" lon="11.31206"><ele>265.0</ele><time>2026-03-28T07:48:41.751Z</time></trkpt><trkpt lat="44.4364517" lon="11.31223"><ele>265.4</ele><time>2026-03-28T07:48:43.751Z</time></trkpt><trkpt lat="44.4364517" lon="11.3123217"><ele>265.8</ele><time>2026-03-28T07:48:44.751Z</time></trkpt><trkpt lat="44.4364417" lon="11.3124117"><ele>266.2</ele><time>2026-03-28T07:48:45.751Z</time></trkpt><trkpt lat="44.4363917" lon="11.3125633"><ele>266.6</ele><time>2026-03-28T07:48:47.751Z</time></trkpt><trkpt lat="44.43633" lon="11.31269"><ele>267.0</ele><time>2026-03-28T07:48:49.75Z</time></trkpt><trkpt lat="44.436275" lon="11.3128017"><ele>267.5</ele><time>2026-03-28T07:48:51.751Z</time></trkpt><trkpt lat="44.4362117" lon="11.3128833"><ele>268.0</ele><time>2026-03-28T07:48:53.751Z</time></trkpt><trkpt lat="44.436155" lon="11.3129533"><ele>268.5</ele><time>2026-03-28T07:48:55.751Z</time></trkpt><trkpt lat="44.4361" lon="11.3130033"><ele>269.0</ele><time>2026-03-28T07:48:57.751Z</time></trkpt><trkpt lat="44.4360417" lon="11.3130483"><ele>269.5</ele><time>2026-03-28T07:48:59.751Z</time></trkpt><trkpt lat="44.4359617" lon="11.3131017"><ele>270.0</ele><time>2026-03-28T07:49:02.751Z</time></trkpt><trkpt lat="44.43588" lon="11.31316"><ele>272.1666666666667</ele><time>2026-03-28T07:49:05.751Z</time></trkpt><trkpt lat="44.43582" lon="11.3131867"><ele>274.3333333333333</ele><time>2026-03-28T07:49:07.751Z</time></trkpt><trkpt lat="44.4357567" lon="11.3132133"><ele>276.5</ele><time>2026-03-28T07:49:09.751Z</time></trkpt><trkpt lat="44.4356933" lon="11.3132317"><ele>278.66666666666663</ele><time>2026-03-28T07:49:11.75Z</time></trkpt><trkpt lat="44.435605" lon="11.3132467"><ele>280.8333333333333</ele><time>2026-03-28T07:49:14.751Z</time></trkpt><trkpt lat="44.4355233" lon="11.3132633"><ele>283.0</ele><time>2026-03-28T07:49:17.751Z</time></trkpt><trkpt lat="44.4354333" lon="11.31329"><ele>283.8333333333333</ele><time>2026-03-28T07:49:20.75Z</time></trkpt><trkpt lat="44.4353467" lon="11.313315"><ele>284.66666666666663</ele><time>2026-03-28T07:49:23.75Z</time></trkpt><trkpt lat="44.4352667" lon="11.3133467"><ele>285.5</ele><time>2026-03-28T07:49:26.751Z</time></trkpt><trkpt lat="44.4351817" lon="11.3133883"><ele>286.3333333333333</ele><time>2026-03-28T07:49:29.751Z</time></trkpt><trkpt lat="44.4351183" lon="11.3134583"><ele>287.1666666666667</ele><time>2026-03-28T07:49:32.751Z</time></trkpt><trkpt lat="44.4350567" lon="11.3135283"><ele>288.0</ele><time>2026-03-28T07:49:35.751Z</time></trkpt><trkpt lat="44.4349817" lon="11.31358"><ele>288.0</ele><time>2026-03-28T07:49:38.751Z</time></trkpt><trkpt lat="44.4348967" lon="11.3136"><ele>288.0</ele><time>2026-03-28T07:49:41.75Z</time></trkpt><trkpt lat="44.43481" lon="11.3136017"><ele>288.0</ele><time>2026-03-28T07:49:44.751Z</time></trkpt><trkpt lat="44.4347267" lon="11.31358"><ele>288.0</ele><time>2026-03-28T07:49:47.751Z</time></trkpt><trkpt lat="44.4346467" lon="11.3135367"><ele>288.0</ele><time>2026-03-28T07:49:50.75Z</time></trkpt><trkpt lat="44.4345733" lon="11.3134817"><ele>288.0</ele><time>2026-03-28T07:49:53.751Z</time></trkpt><trkpt lat="44.4345067" lon="11.313415"><ele>286.8333333333333</ele><time>2026-03-28T07:49:56.751Z</time></trkpt><trkpt lat="44.4344283" lon="11.3133567"><ele>285.6666666666667</ele><time>2026-03-28T07:49:59.751Z</time></trkpt><trkpt lat="44.4343567" lon="11.3132917"><ele>284.5</ele><time>2026-03-28T07:50:02.751Z</time></trkpt><trkpt lat="44.4342867" lon="11.3132167"><ele>283.33333333333337</ele><time>2026-03-28T07:50:05.751Z</time></trkpt><trkpt lat="44.4342317" lon="11.3131633"><ele>282.1666666666667</ele><time>2026-03-28T07:50:07.751Z</time></trkpt><trkpt lat="44.434175" lon="11.3131167"><ele>281.0</ele><time>2026-03-28T07:50:09.75Z</time></trkpt><trkpt lat="44.4340983" lon="11.31305"><ele>281.0</ele><time>2026-03-28T07:50:12.751Z</time></trkpt><trkpt lat="44.4340283" lon="11.31297"><ele>281.0</ele><time>2026-03-28T07:50:15.751Z</time></trkpt><trkpt lat="44.4339733" lon="11.31291"><ele>281.0</ele><time>2026-03-28T07:50:17.75Z</time></trkpt><trkpt lat="44.4339117" lon="11.3128483"><ele>281.0</ele><time>2026-03-28T07:50:19.751Z</time></trkpt><trkpt lat="44.4338467" lon="11.3127767"><ele>281.0</ele><time>2026-03-28T07:50:21.751Z</time></trkpt><trkpt lat="44.433785" lon="11.3126933"><ele>281.0</ele><time>2026-03-28T07:50:23.751Z</time></trkpt><trkpt lat="44.433725" lon="11.3126067"><ele>283.6666666666667</ele><time>2026-03-28T07:50:25.751Z</time></trkpt><trkpt lat="44.433685" lon="11.3125267"><ele>286.33333333333337</ele><time>2026-03-28T07:50:27.751Z</time></trkpt><trkpt lat="44.4336283" lon="11.3124267"><ele>289.0</ele><time>2026-03-28T07:50:29.75Z</time></trkpt><trkpt lat="44.4335833" lon="11.3123317"><ele>291.6666666666667</ele><time>2026-03-28T07:50:31.751Z</time></trkpt><trkpt lat="44.4335217" lon="11.3122417"><ele>294.3333333333333</ele><time>2026-03-28T07:50:33.751Z</time></trkpt><trkpt lat="44.4334633" lon="11.31215"><ele>297.0</ele><time>2026-03-28T07:50:35.751Z</time></trkpt><trkpt lat="44.4334033" lon="11.312075"><ele>297.0</ele><time>2026-03-28T07:50:37.751Z</time></trkpt><trkpt lat="44.4333433" lon="11.3119833"><ele>297.0</ele><time>2026-03-28T07:50:39.751Z</time></trkpt><trkpt lat="44.4332817" lon="11.3119033"><ele>297.0</ele><time>2026-03-28T07:50:41.751Z</time></trkpt><trkpt lat="44.4332317" lon="11.3118217"><ele>297.0</ele><time>2026-03-28T07:50:43.751Z</time></trkpt><trkpt lat="44.433195" lon="11.3117483"><ele>297.0</ele><time>2026-03-28T07:50:45.751Z</time></trkpt><trkpt lat="44.4331367" lon="11.3116633"><ele>297.0</ele><time>2026-03-28T07:51:17.751Z</time></trkpt><trkpt lat="44.433085" lon="11.311565"><ele>297.0</ele><time>2026-03-28T07:51:20.751Z</time></trkpt><trkpt lat="44.4330533" lon="11.3114833"><ele>297.0</ele><time>2026-03-28T07:51:22.752Z</time></trkpt><trkpt lat="44.43301" lon="11.3114167"><ele>297.0</ele><time>2026-03-28T07:51:24.752Z</time></trkpt><trkpt lat="44.4329567" lon="11.3113383"><ele>297.0</ele><time>2026-03-28T07:51:26.752Z</time></trkpt><trkpt lat="44.4328983" lon="11.31127"><ele>297.0</ele><time>2026-03-28T07:51:28.751Z</time></trkpt><trkpt lat="44.43284" lon="11.3112217"><ele>297.0</ele><time>2026-03-28T07:51:30.751Z</time></trkpt><trkpt lat="44.4327767" lon="11.311195"><ele>297.0</ele><time>2026-03-28T07:51:32.752Z</time></trkpt><trkpt lat="44.4327117" lon="11.3111967"><ele>296.7142857142857</ele><time>2026-03-28T07:51:34.752Z</time></trkpt><trkpt lat="44.4326333" lon="11.311215"><ele>296.42857142857144</ele><time>2026-03-28T07:51:37.752Z</time></trkpt><trkpt lat="44.43256" lon="11.3112483"><ele>296.14285714285717</ele><time>2026-03-28T07:51:40.752Z</time></trkpt><trkpt lat="44.4324967" lon="11.31129"><ele>295.8571428571429</ele><time>2026-03-28T07:51:43.752Z</time></trkpt><trkpt lat="44.4324383" lon="11.3113383"><ele>295.57142857142856</ele><time>2026-03-28T07:51:46.752Z</time></trkpt><trkpt lat="44.4323733" lon="11.3114133"><ele>295.28571428571433</ele><time>2026-03-28T07:51:49.752Z</time></trkpt><trkpt lat="44.4323267" lon="11.31148"><ele>295.0</ele><time>2026-03-28T07:51:51.752Z</time></trkpt><trkpt lat="44.4322633" lon="11.3115683"><ele>297.8333333333333</ele><time>2026-03-28T07:51:54.752Z</time></trkpt><trkpt lat="44.43222" lon="11.3116583"><ele>300.66666666666663</ele><time>2026-03-28T07:51:57.752Z</time></trkpt><trkpt lat="44.4321867" lon="11.3117333"><ele>303.5</ele><time>2026-03-28T07:51:59.752Z</time></trkpt><trkpt lat="44.4321433" lon="11.3118167"><ele>306.3333333333333</ele><time>2026-03-28T07:52:01.751Z</time></trkpt><trkpt lat="44.432095" lon="11.3118983"><ele>309.1666666666667</ele><time>2026-03-28T07:52:03.752Z</time></trkpt><trkpt lat="44.4320433" lon="11.31199"><ele>312.0</ele><time>2026-03-28T07:52:05.752Z</time></trkpt><trkpt lat="44.432005" lon="11.3120917"><ele>312.0</ele><time>2026-03-28T07:52:07.752Z</time></trkpt><trkpt lat="44.4319617" lon="11.312185"><ele>312.0</ele><time>2026-03-28T07:52:09.751Z</time></trkpt><trkpt lat="44.431905" lon="11.3122717"><ele>312.0</ele><time>2026-03-28T07:52:11.752Z</time></trkpt><trkpt lat="44.431825" lon="11.3123483"><ele>312.0</ele><time>2026-03-28T07:52:13.752Z</time></trkpt><trkpt lat="44.431735" lon="11.31239"><ele>312.0</ele><time>2026-03-28T07:52:15.752Z</time></trkpt><trkpt lat="44.43163" lon="11.3123767"><ele>312.0</ele><time>2026-03-28T07:52:17.752Z</time></trkpt><trkpt lat="44.4315417" lon="11.3122983"><ele>312.0</ele><time>2026-03-28T07:52:19.752Z</time></trkpt><trkpt lat="44.4314967" lon="11.3121583"><ele>312.0</ele><time>2026-03-28T07:52:21.752Z</time></trkpt><trkpt lat="44.431465" lon="11.3120133"><ele>312.0</ele><time>2026-03-28T07:52:23.752Z</time></trkpt><trkpt lat="44.4314267" lon="11.3118867"><ele>312.0</ele><time>2026-03-28T07:52:25.752Z</time></trkpt><trkpt lat="44.43137" lon="11.3117733"><ele>313.8</ele><time>2026-03-28T07:52:27.751Z</time></trkpt><trkpt lat="44.431295" lon="11.3116917"><ele>315.6</ele><time>2026-03-28T07:52:29.752Z</time></trkpt><trkpt lat="44.4312083" lon="11.3116217"><ele>317.40000000000003</ele><time>2026-03-28T07:52:31.752Z</time></trkpt><trkpt lat="44.4311167" lon="11.31156"><ele>319.2</ele><time>2026-03-28T07:52:33.752Z</time></trkpt><trkpt lat="44.4310317" lon="11.31151"><ele>321.0</ele><time>2026-03-28T07:52:35.752Z</time></trkpt><trkpt lat="44.4309483" lon="11.3114633"><ele>321.0</ele><time>2026-03-28T07:52:37.752Z</time></trkpt><trkpt lat="44.4308617" lon="11.3114417"><ele>321.0</ele><time>2026-03-28T07:52:39.751Z</time></trkpt><trkpt lat="44.4307717" lon="11.311415"><ele>321.0</ele><time>2026-03-28T07:52:41.752Z</time></trkpt><trkpt lat="44.43068" lon="11.3114067"><ele>321.0</ele><time>2026-03-28T07:52:43.752Z</time></trkpt><trkpt lat="44.4305817" lon="11.31139"><ele>321.0</ele><time>2026-03-28T07:52:45.751Z</time></trkpt><trkpt lat="44.430485" lon="11.3113917"><ele>320.6666666666667</ele><time>2026-03-28T07:52:47.752Z</time></trkpt><trkpt lat="44.430395" lon="11.3113983"><ele>320.3333333333333</ele><time>2026-03-28T07:52:49.751Z</time></trkpt><trkpt lat="44.4303133" lon="11.3114217"><ele>320.0</ele><time>2026-03-28T07:52:51.752Z</time></trkpt><trkpt lat="44.4302317" lon="11.31146"><ele>319.66666666666663</ele><time>2026-03-28T07:52:53.752Z</time></trkpt><trkpt lat="44.4301617" lon="11.3115067"><ele>319.3333333333333</ele><time>2026-03-28T07:52:55.752Z</time></trkpt><trkpt lat="44.4301" lon="11.3115817"><ele>319.0</ele><time>2026-03-28T07:52:57.752Z</time></trkpt><trkpt lat="44.4300483" lon="11.3116733"><ele>319.0</ele><time>2026-03-28T07:52:59.752Z</time></trkpt><trkpt lat="44.43001" lon="11.3117783"><ele>319.0</ele><time>2026-03-28T07:53:01.752Z</time></trkpt><trkpt lat="44.429965" lon="11.3119117"><ele>319.0</ele><time>2026-03-28T07:53:03.752Z</time></trkpt><trkpt lat="44.4299267" lon="11.31205"><ele>319.0</ele><time>2026-03-28T07:53:05.752Z</time></trkpt><trkpt lat="44.4298833" lon="11.3122"><ele>319.0</ele><time>2026-03-28T07:53:07.751Z</time></trkpt><trkpt lat="44.42985" lon="11.3123317"><ele>320.6</ele><time>2026-03-28T07:53:09.752Z</time></trkpt><trkpt lat="44.4298033" lon="11.3124617"><ele>322.2</ele><time>2026-03-28T07:53:11.752Z</time></trkpt><trkpt lat="44.4297517" lon="11.3126"><ele>323.8</ele><time>2026-03-28T07:53:13.752Z</time></trkpt><trkpt lat="44.4296917" lon="11.3127367"><ele>325.40000000000003</ele><time>2026-03-28T07:53:15.752Z</time></trkpt><trkpt lat="44.42962" lon="11.3128633"><ele>327.0</ele><time>2026-03-28T07:53:17.752Z</time></trkpt><trkpt lat="44.4295433" lon="11.3129883"><ele>324.6666666666667</ele><time>2026-03-28T07:53:19.752Z</time></trkpt><trkpt lat="44.4294617" lon="11.313115"><ele>322.3333333333333</ele><time>2026-03-28T07:53:21.752Z</time></trkpt><trkpt lat="44.4294267" lon="11.3132033"><ele>320.0</ele><time>2026-03-28T07:53:22.752Z</time></trkpt><trkpt lat="44.4293883" lon="11.3132817"><ele>317.66666666666663</ele><time>2026-03-28T07:53:23.752Z</time></trkpt><trkpt lat="44.4293533" lon="11.313375"><ele>315.3333333333333</ele><time>2026-03-28T07:53:24.752Z</time></trkpt><trkpt lat="44.429325" lon="11.313465"><ele>313.0</ele><time>2026-03-28T07:53:25.752Z</time></trkpt><trkpt lat="44.429285" lon="11.3135583"><ele>313.0</ele><time>2026-03-28T07:53:26.752Z</time></trkpt><trkpt lat="44.42926" lon="11.313655"><ele>313.0</ele><time>2026-03-28T07:53:27.752Z</time></trkpt><trkpt lat="44.4292283" lon="11.3137567"><ele>313.0</ele><time>2026-03-28T07:53:28.752Z</time></trkpt><trkpt lat="44.42919" lon="11.31386"><ele>313.0</ele><time>2026-03-28T07:53:29.752Z</time></trkpt><trkpt lat="44.4291617" lon="11.3139667"><ele>313.0</ele><time>2026-03-28T07:53:30.752Z</time></trkpt><trkpt lat="44.4291367" lon="11.314075"><ele>313.0</ele><time>2026-03-28T07:53:31.752Z</time></trkpt><trkpt lat="44.4291033" lon="11.31419"><ele>313.8</ele><time>2026-03-28T07:53:32.752Z</time></trkpt><trkpt lat="44.429075" lon="11.314305"><ele>314.6</ele><time>2026-03-28T07:53:33.752Z</time></trkpt><trkpt lat="44.4290417" lon="11.3144267"><ele>315.4</ele><time>2026-03-28T07:53:34.752Z</time></trkpt><trkpt lat="44.4290167" lon="11.3145483"><ele>316.2</ele><time>2026-03-28T07:53:35.752Z</time></trkpt><trkpt lat="44.4289967" lon="11.314675"><ele>317.0</ele><time>2026-03-28T07:53:36.751Z</time></trkpt><trkpt lat="44.42897" lon="11.3148033"><ele>317.5</ele><time>2026-03-28T07:53:37.752Z</time></trkpt><trkpt lat="44.4289467" lon="11.3149367"><ele>318.0</ele><time>2026-03-28T07:53:38.752Z</time></trkpt><trkpt lat="44.42891" lon="11.3150517"><ele>318.5</ele><time>2026-03-28T07:53:39.751Z</time></trkpt><trkpt lat="44.4288617" lon="11.3151467"><ele>319.0</ele><time>2026-03-28T07:53:40.751Z</time></trkpt><trkpt lat="44.4287933" lon="11.31522"><ele>319.5</ele><time>2026-03-28T07:53:41.752Z</time></trkpt><trkpt lat="44.4287083" lon="11.3152567"><ele>320.0</ele><time>2026-03-28T07:53:42.751Z</time></trkpt><trkpt lat="44.4286083" lon="11.31526"><ele>316.4</ele><time>2026-03-28T07:53:43.752Z</time></trkpt><trkpt lat="44.428505" lon="11.3152433"><ele>312.8</ele><time>2026-03-28T07:53:44.752Z</time></trkpt><trkpt lat="44.4284133" lon="11.315235"><ele>309.2</ele><time>2026-03-28T07:53:45.752Z</time></trkpt><trkpt lat="44.4283333" lon="11.31522"><ele>305.6</ele><time>2026-03-28T07:53:46.752Z</time></trkpt><trkpt lat="44.42824" lon="11.31525"><ele>302.0</ele><time>2026-03-28T07:53:47.752Z</time></trkpt><trkpt lat="44.4281717" lon="11.3153167"><ele>302.0</ele><time>2026-03-28T07:53:48.752Z</time></trkpt><trkpt lat="44.4281167" lon="11.3154333"><ele>302.0</ele><time>2026-03-28T07:53:49.751Z</time></trkpt><trkpt lat="44.4280733" lon="11.3155483"><ele>302.0</ele><time>2026-03-28T07:53:50.751Z</time></trkpt><trkpt lat="44.4280067" lon="11.315645"><ele>302.0</ele><time>2026-03-28T07:53:51.752Z</time></trkpt><trkpt lat="44.42792" lon="11.3157183"><ele>302.0</ele><time>2026-03-28T07:53:52.751Z</time></trkpt><trkpt lat="44.42782" lon="11.3157617"><ele>299.2</ele><time>2026-03-28T07:53:53.752Z</time></trkpt><trkpt lat="44.4277083" lon="11.3158017"><ele>296.4</ele><time>2026-03-28T07:53:54.752Z</time></trkpt><trkpt lat="44.4276" lon="11.31582"><ele>293.6</ele><time>2026-03-28T07:53:55.752Z</time></trkpt><trkpt lat="44.4274917" lon="11.315845"><ele>290.8</ele><time>2026-03-28T07:53:56.751Z</time></trkpt><trkpt lat="44.42738" lon="11.3158717"><ele>288.0</ele><time>2026-03-28T07:53:57.752Z</time></trkpt><trkpt lat="44.4272717" lon="11.3159033"><ele>288.0</ele><time>2026-03-28T07:53:58.752Z</time></trkpt><trkpt lat="44.4271567" lon="11.315925"><ele>288.0</ele><time>2026-03-28T07:53:59.752Z</time></trkpt><trkpt lat="44.4270467" lon="11.31592"><ele>288.0</ele><time>2026-03-28T07:54:00.752Z</time></trkpt><trkpt lat="44.4269433" lon="11.315895"><ele>288.0</ele><time>2026-03-28T07:54:01.752Z</time></trkpt><trkpt lat="44.42684" lon="11.3158717"><ele>288.0</ele><time>2026-03-28T07:54:02.751Z</time></trkpt><trkpt lat="44.42674" lon="11.3158483"><ele>288.0</ele><time>2026-03-28T07:54:03.752Z</time></trkpt><trkpt lat="44.4266367" lon="11.315815"><ele>288.0</ele><time>2026-03-28T07:54:04.752Z</time></trkpt><trkpt lat="44.4265433" lon="11.31578"><ele>288.0</ele><time>2026-03-28T07:54:05.752Z</time></trkpt><trkpt lat="44.4264483" lon="11.3157567"><ele>288.0</ele><time>2026-03-28T07:54:06.751Z</time></trkpt><trkpt lat="44.4263533" lon="11.3157417"><ele>288.0</ele><time>2026-03-28T07:54:07.752Z</time></trkpt><trkpt lat="44.4262633" lon="11.3157217"><ele>288.0</ele><time>2026-03-28T07:54:08.752Z</time></trkpt><trkpt lat="44.4261733" lon="11.3156917"><ele>288.0</ele><time>2026-03-28T07:54:09.752Z</time></trkpt><trkpt lat="44.42609" lon="11.3156733"><ele>288.0</ele><time>2026-03-28T07:54:10.752Z</time></trkpt><trkpt lat="44.426005" lon="11.3156567"><ele>288.0</ele><time>2026-03-28T07:54:11.752Z</time></trkpt><trkpt lat="44.42592" lon="11.31564"><ele>288.0</ele><time>2026-03-28T07:54:12.752Z</time></trkpt><trkpt lat="44.4258383" lon="11.3156333"><ele>288.0</ele><time>2026-03-28T07:54:13.752Z</time></trkpt><trkpt lat="44.4257567" lon="11.315625"><ele>288.0</ele><time>2026-03-28T07:54:14.752Z</time></trkpt><trkpt lat="44.4256733" lon="11.3156183"><ele>288.0</ele><time>2026-03-28T07:54:15.752Z</time></trkpt><trkpt lat="44.425595" lon="11.3156117"><ele>288.0</ele><time>2026-03-28T07:54:16.751Z</time></trkpt><trkpt lat="44.4255167" lon="11.315625"><ele>288.0</ele><time>2026-03-28T07:54:17.752Z</time></trkpt><trkpt lat="44.4254317" lon="11.3156667"><ele>288.0</ele><time>2026-03-28T07:54:18.752Z</time></trkpt><trkpt lat="44.42536" lon="11.3157117"><ele>288.0</ele><time>2026-03-28T07:54:19.752Z</time></trkpt><trkpt lat="44.4252917" lon="11.3157683"><ele>288.3333333333333</ele><time>2026-03-28T07:54:20.752Z</time></trkpt><trkpt lat="44.4252283" lon="11.3158367"><ele>288.6666666666667</ele><time>2026-03-28T07:54:21.752Z</time></trkpt><trkpt lat="44.4251717" lon="11.3159033"><ele>289.0</ele><time>2026-03-28T07:54:22.752Z</time></trkpt><trkpt lat="44.4251167" lon="11.31597"><ele>289.33333333333337</ele><time>2026-03-28T07:54:23.752Z</time></trkpt><trkpt lat="44.42507" lon="11.316035"><ele>289.6666666666667</ele><time>2026-03-28T07:54:24.752Z</time></trkpt><trkpt lat="44.425025" lon="11.3161033"><ele>290.0</ele><time>2026-03-28T07:54:25.752Z</time></trkpt><trkpt lat="44.4249367" lon="11.3162117"><ele>290.0</ele><time>2026-03-28T07:54:27.752Z</time></trkpt><trkpt lat="44.4248483" lon="11.3162967"><ele>290.0</ele><time>2026-03-28T07:54:29.752Z</time></trkpt><trkpt lat="44.4247533" lon="11.3163683"><ele>290.0</ele><time>2026-03-28T07:54:31.752Z</time></trkpt><trkpt lat="44.4246733" lon="11.3164367"><ele>290.0</ele><time>2026-03-28T07:54:33.752Z</time></trkpt><trkpt lat="44.4245883" lon="11.3165033"><ele>290.0</ele><time>2026-03-28T07:54:35.752Z</time></trkpt><trkpt lat="44.4244867" lon="11.3165683"><ele>291.4</ele><time>2026-03-28T07:54:37.752Z</time></trkpt><trkpt lat="44.42438" lon="11.3166133"><ele>292.8</ele><time>2026-03-28T07:54:39.751Z</time></trkpt><trkpt lat="44.4242583" lon="11.31664"><ele>294.2</ele><time>2026-03-28T07:54:41.752Z</time></trkpt><trkpt lat="44.4241333" lon="11.3166283"><ele>295.6</ele><time>2026-03-28T07:54:43.752Z</time></trkpt><trkpt lat="44.42407" lon="11.3166083"><ele>297.0</ele><time>2026-03-28T07:54:44.752Z</time></trkpt><trkpt lat="44.42401" lon="11.31658"><ele>297.0</ele><time>2026-03-28T07:54:45.751Z</time></trkpt><trkpt lat="44.4239133" lon="11.3165117"><ele>297.0</ele><time>2026-03-28T07:54:47.752Z</time></trkpt><trkpt lat="44.4238067" lon="11.31643"><ele>297.0</ele><time>2026-03-28T07:54:49.752Z</time></trkpt><trkpt lat="44.4237017" lon="11.3163417"><ele>297.0</ele><time>2026-03-28T07:54:51.752Z</time></trkpt><trkpt lat="44.4235933" lon="11.3162567"><ele>297.0</ele><time>2026-03-28T07:54:53.753Z</time></trkpt><trkpt lat="44.42349" lon="11.31618"><ele>297.0</ele><time>2026-03-28T07:54:55.753Z</time></trkpt><trkpt lat="44.4233833" lon="11.3160983"><ele>297.0</ele><time>2026-03-28T07:54:57.753Z</time></trkpt><trkpt lat="44.4232767" lon="11.3160083"><ele>297.0</ele><time>2026-03-28T07:54:59.753Z</time></trkpt><trkpt lat="44.4232183" lon="11.315965"><ele>297.0</ele><time>2026-03-28T07:55:00.753Z</time></trkpt><trkpt lat="44.4231617" lon="11.3159233"><ele>297.0</ele><time>2026-03-28T07:55:01.752Z</time></trkpt><trkpt lat="44.4230567" lon="11.315845"><ele>297.0</ele><time>2026-03-28T07:55:03.752Z</time></trkpt><trkpt lat="44.423" lon="11.3157967"><ele>297.0</ele><time>2026-03-28T07:55:04.753Z</time></trkpt><trkpt lat="44.4229417" lon="11.3157633"><ele>297.0</ele><time>2026-03-28T07:55:05.753Z</time></trkpt><trkpt lat="44.42284" lon="11.3156833"><ele>297.0</ele><time>2026-03-28T07:55:07.753Z</time></trkpt><trkpt lat="44.4227383" lon="11.3155917"><ele>295.4</ele><time>2026-03-28T07:55:09.753Z</time></trkpt><trkpt lat="44.422635" lon="11.31553"><ele>293.79999999999995</ele><time>2026-03-28T07:55:11.753Z</time></trkpt><trkpt lat="44.422535" lon="11.3154983"><ele>292.2</ele><time>2026-03-28T07:55:13.753Z</time></trkpt><trkpt lat="44.42244" lon="11.315495"><ele>290.59999999999997</ele><time>2026-03-28T07:55:15.753Z</time></trkpt><trkpt lat="44.4223483" lon="11.3155067"><ele>289.0</ele><time>2026-03-28T07:55:17.753Z</time></trkpt><trkpt lat="44.4222633" lon="11.3155467"><ele>290.66666666666663</ele><time>2026-03-28T07:55:19.753Z</time></trkpt><trkpt lat="44.422185" lon="11.3155967"><ele>292.3333333333333</ele><time>2026-03-28T07:55:21.752Z</time></trkpt><trkpt lat="44.4221083" lon="11.3156533"><ele>294.0</ele><time>2026-03-28T07:55:23.752Z</time></trkpt><trkpt lat="44.42203" lon="11.3156983"><ele>295.6666666666667</ele><time>2026-03-28T07:55:25.752Z</time></trkpt><trkpt lat="44.421945" lon="11.3157233"><ele>297.33333333333337</ele><time>2026-03-28T07:55:27.752Z</time></trkpt><trkpt lat="44.421845" lon="11.3157233"><ele>299.0</ele><time>2026-03-28T07:55:29.753Z</time></trkpt><trkpt lat="44.42176" lon="11.315695"><ele>299.4</ele><time>2026-03-28T07:55:31.752Z</time></trkpt><trkpt lat="44.42169" lon="11.3156333"><ele>299.79999999999995</ele><time>2026-03-28T07:55:33.753Z</time></trkpt><trkpt lat="44.42164" lon="11.315525"><ele>300.20000000000005</ele><time>2026-03-28T07:55:35.753Z</time></trkpt><trkpt lat="44.421605" lon="11.3154117"><ele>300.6</ele><time>2026-03-28T07:55:37.753Z</time></trkpt><trkpt lat="44.4215833" lon="11.3152733"><ele>301.0</ele><time>2026-03-28T07:55:39.753Z</time></trkpt><trkpt lat="44.4215667" lon="11.3151367"><ele>301.2</ele><time>2026-03-28T07:55:41.753Z</time></trkpt><trkpt lat="44.4215583" lon="11.3149933"><ele>301.40000000000003</ele><time>2026-03-28T07:55:43.753Z</time></trkpt><trkpt lat="44.4215533" lon="11.3148567"><ele>301.6</ele><time>2026-03-28T07:55:45.753Z</time></trkpt><trkpt lat="44.421535" lon="11.3147083"><ele>301.8</ele><time>2026-03-28T07:55:47.753Z</time></trkpt><trkpt lat="44.4215267" lon="11.3145633"><ele>302.0</ele><time>2026-03-28T07:55:49.752Z</time></trkpt><trkpt lat="44.4215067" lon="11.314415"><ele>300.0</ele><time>2026-03-28T07:55:51.753Z</time></trkpt><trkpt lat="44.4214833" lon="11.314295"><ele>298.0</ele><time>2026-03-28T07:55:53.752Z</time></trkpt><trkpt lat="44.4214533" lon="11.3141783"><ele>296.0</ele><time>2026-03-28T07:55:55.753Z</time></trkpt><trkpt lat="44.42142" lon="11.3140517"><ele>294.0</ele><time>2026-03-28T07:55:57.752Z</time></trkpt><trkpt lat="44.4213767" lon="11.3139333"><ele>292.0</ele><time>2026-03-28T07:55:59.752Z</time></trkpt><trkpt lat="44.421325" lon="11.31381"><ele>294.2</ele><time>2026-03-28T07:56:01.752Z</time></trkpt><trkpt lat="44.4212717" lon="11.3136883"><ele>296.4</ele><time>2026-03-28T07:56:03.753Z</time></trkpt><trkpt lat="44.42121" lon="11.3135733"><ele>298.6</ele><time>2026-03-28T07:56:05.753Z</time></trkpt><trkpt lat="44.4211317" lon="11.313475"><ele>300.8</ele><time>2026-03-28T07:56:07.753Z</time></trkpt><trkpt lat="44.4210483" lon="11.3133767"><ele>303.0</ele><time>2026-03-28T07:56:09.752Z</time></trkpt><trkpt lat="44.4209617" lon="11.31328"><ele>303.0</ele><time>2026-03-28T07:56:11.753Z</time></trkpt><trkpt lat="44.4208617" lon="11.313195"><ele>303.0</ele><time>2026-03-28T07:56:13.753Z</time></trkpt><trkpt lat="44.4207633" lon="11.313105"><ele>303.0</ele><time>2026-03-28T07:56:15.752Z</time></trkpt><trkpt lat="44.4206683" lon="11.3130217"><ele>303.0</ele><time>2026-03-28T07:56:17.753Z</time></trkpt><trkpt lat="44.4205717" lon="11.312945"><ele>302.8</ele><time>2026-03-28T07:56:19.752Z</time></trkpt><trkpt lat="44.4204817" lon="11.3128767"><ele>302.6</ele><time>2026-03-28T07:56:21.753Z</time></trkpt><trkpt lat="44.4203833" lon="11.3128033"><ele>302.4</ele><time>2026-03-28T07:56:23.753Z</time></trkpt><trkpt lat="44.4202817" lon="11.3127367"><ele>302.2</ele><time>2026-03-28T07:56:25.753Z</time></trkpt><trkpt lat="44.4201733" lon="11.3126667"><ele>302.0</ele><time>2026-03-28T07:56:27.753Z</time></trkpt><trkpt lat="44.420065" lon="11.312595"><ele>302.0</ele><time>2026-03-28T07:56:29.753Z</time></trkpt><trkpt lat="44.41995" lon="11.3125233"><ele>302.0</ele><time>2026-03-28T07:56:31.753Z</time></trkpt><trkpt lat="44.4198883" lon="11.3124817"><ele>302.0</ele><time>2026-03-28T07:56:32.753Z</time></trkpt><trkpt lat="44.4197767" lon="11.3124233"><ele>302.0</ele><time>2026-03-28T07:56:34.752Z</time></trkpt><trkpt lat="44.419715" lon="11.3123933"><ele>302.0</ele><time>2026-03-28T07:56:35.753Z</time></trkpt><trkpt lat="44.4196" lon="11.3123267"><ele>302.4</ele><time>2026-03-28T07:56:37.753Z</time></trkpt><trkpt lat="44.4195383" lon="11.312295"><ele>302.79999999999995</ele><time>2026-03-28T07:56:38.753Z</time></trkpt><trkpt lat="44.41942" lon="11.3122333"><ele>303.2</ele><time>2026-03-28T07:56:40.753Z</time></trkpt><trkpt lat="44.419355" lon="11.3122133"><ele>303.59999999999997</ele><time>2026-03-28T07:56:41.753Z</time></trkpt><trkpt lat="44.419295" lon="11.312185"><ele>304.0</ele><time>2026-03-28T07:56:42.753Z</time></trkpt><trkpt lat="44.4191733" lon="11.3121217"><ele>304.7142857142857</ele><time>2026-03-28T07:56:44.753Z</time></trkpt><trkpt lat="44.4190617" lon="11.312075"><ele>305.42857142857144</ele><time>2026-03-28T07:56:46.753Z</time></trkpt><trkpt lat="44.419" lon="11.3120483"><ele>306.14285714285717</ele><time>2026-03-28T07:56:47.752Z</time></trkpt><trkpt lat="44.4189367" lon="11.31202"><ele>306.8571428571429</ele><time>2026-03-28T07:56:48.753Z</time></trkpt><trkpt lat="44.4188767" lon="11.3119833"><ele>307.57142857142856</ele><time>2026-03-28T07:56:49.753Z</time></trkpt><trkpt lat="44.4188183" lon="11.3119433"><ele>308.28571428571433</ele><time>2026-03-28T07:56:50.753Z</time></trkpt><trkpt lat="44.4187567" lon="11.3119033"><ele>309.0</ele><time>2026-03-28T07:56:51.753Z</time></trkpt><trkpt lat="44.4186367" lon="11.3118317"><ele>309.0</ele><time>2026-03-28T07:56:53.752Z</time></trkpt><trkpt lat="44.418585" lon="11.3117767"><ele>309.0</ele><time>2026-03-28T07:56:54.753Z</time></trkpt><trkpt lat="44.4185017" lon="11.3116733"><ele>309.0</ele><time>2026-03-28T07:56:56.752Z</time></trkpt><trkpt lat="44.4184433" lon="11.31155"><ele>309.0</ele><time>2026-03-28T07:56:58.753Z</time></trkpt><trkpt lat="44.41841" lon="11.31142"><ele>309.0</ele><time>2026-03-28T07:57:00.753Z</time></trkpt><trkpt lat="44.4183717" lon="11.3113133"><ele>308.5</ele><time>2026-03-28T07:57:02.752Z</time></trkpt><trkpt lat="44.4183383" lon="11.3112117"><ele>308.0</ele><time>2026-03-28T07:57:04.752Z</time></trkpt><trkpt lat="44.4183067" lon="11.31111"><ele>307.5</ele><time>2026-03-28T07:57:06.753Z</time></trkpt><trkpt lat="44.4182783" lon="11.3110133"><ele>307.0</ele><time>2026-03-28T07:57:08.753Z</time></trkpt><trkpt lat="44.4182383" lon="11.3109233"><ele>306.5</ele><time>2026-03-28T07:57:10.753Z</time></trkpt><trkpt lat="44.4182067" lon="11.3108267"><ele>306.0</ele><time>2026-03-28T07:57:12.753Z</time></trkpt><trkpt lat="44.4181783" lon="11.31072"><ele>306.0</ele><time>2026-03-28T07:57:14.752Z</time></trkpt><trkpt lat="44.4181517" lon="11.31062"><ele>306.0</ele><time>2026-03-28T07:57:16.752Z</time></trkpt><trkpt lat="44.4181367" lon="11.31052"><ele>306.0</ele><time>2026-03-28T07:57:18.753Z</time></trkpt><trkpt lat="44.4181017" lon="11.310425"><ele>306.0</ele><time>2026-03-28T07:57:20.753Z</time></trkpt><trkpt lat="44.418095" lon="11.310315"><ele>306.0</ele><time>2026-03-28T07:57:22.752Z</time></trkpt><trkpt lat="44.4180917" lon="11.3102117"><ele>306.0</ele><time>2026-03-28T07:57:24.753Z</time></trkpt><trkpt lat="44.418085" lon="11.3101033"><ele>306.0</ele><time>2026-03-28T07:57:26.753Z</time></trkpt><trkpt lat="44.418075" lon="11.3100067"><ele>306.0</ele><time>2026-03-28T07:57:28.753Z</time></trkpt><trkpt lat="44.41805" lon="11.30988"><ele>306.0</ele><time>2026-03-28T07:57:31.752Z</time></trkpt><trkpt lat="44.4180433" lon="11.309775"><ele>306.0</ele><time>2026-03-28T07:57:34.752Z</time></trkpt><trkpt lat="44.41803" lon="11.3096717"><ele>306.0</ele><time>2026-03-28T07:57:37.753Z</time></trkpt><trkpt lat="44.4179917" lon="11.3095583"><ele>306.0</ele><time>2026-03-28T07:57:40.752Z</time></trkpt><trkpt lat="44.4179367" lon="11.3094483"><ele>310.0</ele><time>2026-03-28T07:57:43.753Z</time></trkpt><trkpt lat="44.4178833" lon="11.3093483"><ele>314.0</ele><time>2026-03-28T07:57:46.752Z</time></trkpt><trkpt lat="44.4178367" lon="11.3092883"><ele>318.0</ele><time>2026-03-28T07:57:48.752Z</time></trkpt><trkpt lat="44.4177667" lon="11.3092117"><ele>322.0</ele><time>2026-03-28T07:57:51.753Z</time></trkpt><trkpt lat="44.4177" lon="11.309145"><ele>326.0</ele><time>2026-03-28T07:57:54.753Z</time></trkpt><trkpt lat="44.4176267" lon="11.3090867"><ele>330.0</ele><time>2026-03-28T07:57:57.753Z</time></trkpt><trkpt lat="44.41755" lon="11.3090433"><ele>330.0</ele><time>2026-03-28T07:58:00.753Z</time></trkpt><trkpt lat="44.4174717" lon="11.30901"><ele>330.0</ele><time>2026-03-28T07:58:03.753Z</time></trkpt><trkpt lat="44.41738" lon="11.3089767"><ele>330.0</ele><time>2026-03-28T07:58:06.753Z</time></trkpt><trkpt lat="44.417295" lon="11.30896"><ele>330.0</ele><time>2026-03-28T07:58:09.752Z</time></trkpt><trkpt lat="44.41721" lon="11.3089283"><ele>330.0</ele><time>2026-03-28T07:58:12.753Z</time></trkpt><trkpt lat="44.4171233" lon="11.3089183"><ele>330.0</ele><time>2026-03-28T07:58:15.753Z</time></trkpt><trkpt lat="44.4170333" lon="11.3088967"><ele>330.14285714285717</ele><time>2026-03-28T07:58:18.753Z</time></trkpt><trkpt lat="44.416945" lon="11.3088967"><ele>330.2857142857143</ele><time>2026-03-28T07:58:21.752Z</time></trkpt><trkpt lat="44.4168467" lon="11.3088883"><ele>330.42857142857144</ele><time>2026-03-28T07:58:24.752Z</time></trkpt><trkpt lat="44.4167833" lon="11.3088917"><ele>330.57142857142856</ele><time>2026-03-28T07:58:26.753Z</time></trkpt><trkpt lat="44.4167167" lon="11.3088967"><ele>330.7142857142857</ele><time>2026-03-28T07:58:28.753Z</time></trkpt><trkpt lat="44.4166483" lon="11.30891"><ele>330.8571428571429</ele><time>2026-03-28T07:58:30.752Z</time></trkpt><trkpt lat="44.416585" lon="11.3089167"><ele>331.0</ele><time>2026-03-28T07:58:32.753Z</time></trkpt><trkpt lat="44.4164883" lon="11.308935"><ele>331.0</ele><time>2026-03-28T07:58:35.753Z</time></trkpt><trkpt lat="44.4164017" lon="11.3089467"><ele>331.0</ele><time>2026-03-28T07:58:38.753Z</time></trkpt><trkpt lat="44.4163383" lon="11.30894"><ele>331.0</ele><time>2026-03-28T07:58:40.753Z</time></trkpt><trkpt lat="44.416275" lon="11.3089467"><ele>331.0</ele><time>2026-03-28T07:58:42.753Z</time></trkpt><trkpt lat="44.4162033" lon="11.308955"><ele>331.0</ele><time>2026-03-28T07:58:44.754Z</time></trkpt><trkpt lat="44.416135" lon="11.3089683"><ele>331.0</ele><time>2026-03-28T07:58:46.754Z</time></trkpt><trkpt lat="44.41605" lon="11.3089867"><ele>331.0</ele><time>2026-03-28T07:58:49.754Z</time></trkpt><trkpt lat="44.41598" lon="11.3090067"><ele>332.14285714285717</ele><time>2026-03-28T07:58:51.754Z</time></trkpt><trkpt lat="44.41592" lon="11.3090367"><ele>333.2857142857143</ele><time>2026-03-28T07:58:53.753Z</time></trkpt><trkpt lat="44.4158617" lon="11.3090733"><ele>334.42857142857144</ele><time>2026-03-28T07:58:55.753Z</time></trkpt><trkpt lat="44.4157983" lon="11.3090883"><ele>335.57142857142856</ele><time>2026-03-28T07:58:57.753Z</time></trkpt><trkpt lat="44.4157067" lon="11.3091183"><ele>336.7142857142857</ele><time>2026-03-28T07:59:00.753Z</time></trkpt><trkpt lat="44.415645" lon="11.30915"><ele>337.85714285714283</ele><time>2026-03-28T07:59:02.754Z</time></trkpt><trkpt lat="44.4155817" lon="11.3091733"><ele>339.0</ele><time>2026-03-28T07:59:04.754Z</time></trkpt><trkpt lat="44.415495" lon="11.3092067"><ele>340.85714285714283</ele><time>2026-03-28T07:59:07.754Z</time></trkpt><trkpt lat="44.4154333" lon="11.3092483"><ele>342.7142857142857</ele><time>2026-03-28T07:59:09.754Z</time></trkpt><trkpt lat="44.4153417" lon="11.3092683"><ele>344.57142857142856</ele><time>2026-03-28T07:59:12.754Z</time></trkpt><trkpt lat="44.4152783" lon="11.3093017"><ele>346.42857142857144</ele><time>2026-03-28T07:59:14.753Z</time></trkpt><trkpt lat="44.4152067" lon="11.30934"><ele>348.2857142857143</ele><time>2026-03-28T07:59:16.754Z</time></trkpt><trkpt lat="44.4151417" lon="11.3093783"><ele>350.14285714285717</ele><time>2026-03-28T07:59:18.754Z</time></trkpt><trkpt lat="44.4150783" lon="11.309405"><ele>352.0</ele><time>2026-03-28T07:59:20.753Z</time></trkpt><trkpt lat="44.4150067" lon="11.3094183"><ele>352.0</ele><time>2026-03-28T07:59:22.753Z</time></trkpt><trkpt lat="44.4149233" lon="11.3094233"><ele>352.0</ele><time>2026-03-28T07:59:24.754Z</time></trkpt><trkpt lat="44.4148333" lon="11.309405"><ele>352.0</ele><time>2026-03-28T07:59:27.753Z</time></trkpt><trkpt lat="44.41477" lon="11.30938"><ele>352.0</ele><time>2026-03-28T07:59:29.754Z</time></trkpt><trkpt lat="44.4147033" lon="11.30936"><ele>352.0</ele><time>2026-03-28T07:59:31.754Z</time></trkpt><trkpt lat="44.4146367" lon="11.3093367"><ele>352.0</ele><time>2026-03-28T07:59:33.754Z</time></trkpt><trkpt lat="44.4145783" lon="11.3092967"><ele>352.0</ele><time>2026-03-28T07:59:35.753Z</time></trkpt><trkpt lat="44.41451" lon="11.309285"><ele>352.16666666666663</ele><time>2026-03-28T07:59:37.754Z</time></trkpt><trkpt lat="44.41442" lon="11.3092667"><ele>352.3333333333333</ele><time>2026-03-28T07:59:40.754Z</time></trkpt><trkpt lat="44.414355" lon="11.3092567"><ele>352.5</ele><time>2026-03-28T07:59:42.754Z</time></trkpt><trkpt lat="44.414285" lon="11.3092317"><ele>352.6666666666667</ele><time>2026-03-28T07:59:45.754Z</time></trkpt><trkpt lat="44.4142117" lon="11.3092333"><ele>352.83333333333337</ele><time>2026-03-28T07:59:47.753Z</time></trkpt><trkpt lat="44.41414" lon="11.309225"><ele>353.0</ele><time>2026-03-28T07:59:49.753Z</time></trkpt><trkpt lat="44.41405" lon="11.3092483"><ele>353.0</ele><time>2026-03-28T07:59:53.754Z</time></trkpt><trkpt lat="44.4139883" lon="11.30927"><ele>353.0</ele><time>2026-03-28T07:59:55.754Z</time></trkpt><trkpt lat="44.413905" lon="11.30929"><ele>353.0</ele><time>2026-03-28T07:59:58.754Z</time></trkpt><trkpt lat="44.41381" lon="11.3093117"><ele>353.0</ele><time>2026-03-28T08:00:01.754Z</time></trkpt><trkpt lat="44.41373" lon="11.3093117"><ele>353.0</ele><time>2026-03-28T08:00:04.754Z</time></trkpt><trkpt lat="44.4136533" lon="11.309345"><ele>353.0</ele><time>2026-03-28T08:00:07.753Z</time></trkpt><trkpt lat="44.41359" lon="11.309365"><ele>353.7142857142857</ele><time>2026-03-28T08:00:09.754Z</time></trkpt><trkpt lat="44.4135183" lon="11.3093867"><ele>354.42857142857144</ele><time>2026-03-28T08:00:11.754Z</time></trkpt><trkpt lat="44.4134533" lon="11.30941"><ele>355.14285714285717</ele><time>2026-03-28T08:00:13.754Z</time></trkpt><trkpt lat="44.413385" lon="11.3094333"><ele>355.8571428571429</ele><time>2026-03-28T08:00:15.754Z</time></trkpt><trkpt lat="44.4133133" lon="11.3094533"><ele>356.57142857142856</ele><time>2026-03-28T08:00:17.754Z</time></trkpt><trkpt lat="44.4132367" lon="11.30947"><ele>357.28571428571433</ele><time>2026-03-28T08:00:19.754Z</time></trkpt><trkpt lat="44.413175" lon="11.3095017"><ele>358.0</ele><time>2026-03-28T08:00:21.754Z</time></trkpt><trkpt lat="44.4131067" lon="11.3095267"><ele>358.0</ele><time>2026-03-28T08:00:23.754Z</time></trkpt><trkpt lat="44.4130433" lon="11.3095467"><ele>358.0</ele><time>2026-03-28T08:00:25.754Z</time></trkpt><trkpt lat="44.4129567" lon="11.3095733"><ele>358.0</ele><time>2026-03-28T08:00:28.753Z</time></trkpt><trkpt lat="44.4128633" lon="11.309585"><ele>358.0</ele><time>2026-03-28T08:00:31.754Z</time></trkpt><trkpt lat="44.4128" lon="11.3096117"><ele>358.0</ele><time>2026-03-28T08:00:33.754Z</time></trkpt><trkpt lat="44.4127117" lon="11.3096567"><ele>358.0</ele><time>2026-03-28T08:00:36.754Z</time></trkpt><trkpt lat="44.4126267" lon="11.3096967"><ele>358.66666666666663</ele><time>2026-03-28T08:00:39.754Z</time></trkpt><trkpt lat="44.412545" lon="11.30974"><ele>359.3333333333333</ele><time>2026-03-28T08:00:42.754Z</time></trkpt><trkpt lat="44.41246" lon="11.309785"><ele>360.0</ele><time>2026-03-28T08:00:45.754Z</time></trkpt><trkpt lat="44.41239" lon="11.3098333"><ele>360.6666666666667</ele><time>2026-03-28T08:00:48.754Z</time></trkpt><trkpt lat="44.4123033" lon="11.3098733"><ele>361.33333333333337</ele><time>2026-03-28T08:00:51.753Z</time></trkpt><trkpt lat="44.412235" lon="11.3099033"><ele>362.0</ele><time>2026-03-28T08:00:53.754Z</time></trkpt><trkpt lat="44.4121617" lon="11.3099267"><ele>361.6</ele><time>2026-03-28T08:00:55.754Z</time></trkpt><trkpt lat="44.4120783" lon="11.3099617"><ele>361.20000000000005</ele><time>2026-03-28T08:00:57.754Z</time></trkpt><trkpt lat="44.4119817" lon="11.3099933"><ele>360.8</ele><time>2026-03-28T08:00:59.754Z</time></trkpt><trkpt lat="44.4118717" lon="11.3099983"><ele>360.4</ele><time>2026-03-28T08:01:01.754Z</time></trkpt><trkpt lat="44.41176" lon="11.3099717"><ele>360.0</ele><time>2026-03-28T08:01:03.754Z</time></trkpt><trkpt lat="44.4116583" lon="11.309915"><ele>360.0</ele><time>2026-03-28T08:01:05.753Z</time></trkpt><trkpt lat="44.411565" lon="11.3098733"><ele>360.0</ele><time>2026-03-28T08:01:07.754Z</time></trkpt><trkpt lat="44.411445" lon="11.3098283"><ele>360.0</ele><time>2026-03-28T08:01:09.753Z</time></trkpt><trkpt lat="44.4113383" lon="11.3097933"><ele>360.0</ele><time>2026-03-28T08:01:11.754Z</time></trkpt><trkpt lat="44.4112367" lon="11.309745"><ele>360.0</ele><time>2026-03-28T08:01:13.753Z</time></trkpt><trkpt lat="44.4111367" lon="11.3096933"><ele>363.4</ele><time>2026-03-28T08:01:15.753Z</time></trkpt><trkpt lat="44.4110583" lon="11.3096117"><ele>366.8</ele><time>2026-03-28T08:01:17.754Z</time></trkpt><trkpt lat="44.4109583" lon="11.3095717"><ele>370.20000000000005</ele><time>2026-03-28T08:01:19.753Z</time></trkpt><trkpt lat="44.4108567" lon="11.3095367"><ele>373.6</ele><time>2026-03-28T08:01:21.754Z</time></trkpt><trkpt lat="44.4107483" lon="11.3094883"><ele>377.0</ele><time>2026-03-28T08:01:23.754Z</time></trkpt><trkpt lat="44.4106817" lon="11.3094783"><ele>377.0</ele><time>2026-03-28T08:01:24.754Z</time></trkpt><trkpt lat="44.4106083" lon="11.3094767"><ele>377.0</ele><time>2026-03-28T08:01:25.754Z</time></trkpt><trkpt lat="44.4105367" lon="11.3094783"><ele>377.0</ele><time>2026-03-28T08:01:26.754Z</time></trkpt><trkpt lat="44.4104633" lon="11.3094717"><ele>377.0</ele><time>2026-03-28T08:01:27.753Z</time></trkpt><trkpt lat="44.4103883" lon="11.3094633"><ele>377.0</ele><time>2026-03-28T08:01:28.754Z</time></trkpt><trkpt lat="44.4103117" lon="11.309465"><ele>377.0</ele><time>2026-03-28T08:01:29.754Z</time></trkpt><trkpt lat="44.4102267" lon="11.3094767"><ele>375.0</ele><time>2026-03-28T08:01:30.754Z</time></trkpt><trkpt lat="44.4101467" lon="11.3095"><ele>373.0</ele><time>2026-03-28T08:01:31.754Z</time></trkpt><trkpt lat="44.4100667" lon="11.3095467"><ele>371.0</ele><time>2026-03-28T08:01:32.754Z</time></trkpt><trkpt lat="44.4099767" lon="11.309595"><ele>369.0</ele><time>2026-03-28T08:01:33.754Z</time></trkpt><trkpt lat="44.4098883" lon="11.3096317"><ele>367.0</ele><time>2026-03-28T08:01:34.754Z</time></trkpt><trkpt lat="44.409795" lon="11.3096517"><ele>367.0</ele><time>2026-03-28T08:01:35.754Z</time></trkpt><trkpt lat="44.4096983" lon="11.3096583"><ele>367.0</ele><time>2026-03-28T08:01:36.754Z</time></trkpt><trkpt lat="44.4096017" lon="11.30966"><ele>367.0</ele><time>2026-03-28T08:01:37.754Z</time></trkpt><trkpt lat="44.4094967" lon="11.3096383"><ele>367.0</ele><time>2026-03-28T08:01:38.754Z</time></trkpt><trkpt lat="44.4093883" lon="11.3096217"><ele>367.0</ele><time>2026-03-28T08:01:39.754Z</time></trkpt><trkpt lat="44.4092933" lon="11.3095317"><ele>364.8</ele><time>2026-03-28T08:01:40.754Z</time></trkpt><trkpt lat="44.409195" lon="11.3094783"><ele>362.6</ele><time>2026-03-28T08:01:41.754Z</time></trkpt><trkpt lat="44.4090983" lon="11.3094167"><ele>360.40000000000003</ele><time>2026-03-28T08:01:42.754Z</time></trkpt><trkpt lat="44.4089983" lon="11.30933"><ele>358.20000000000005</ele><time>2026-03-28T08:01:43.753Z</time></trkpt><trkpt lat="44.4089033" lon="11.30924"><ele>356.0</ele><time>2026-03-28T08:01:44.753Z</time></trkpt><trkpt lat="44.4088117" lon="11.3091467"><ele>354.8</ele><time>2026-03-28T08:01:45.754Z</time></trkpt><trkpt lat="44.4087233" lon="11.3090433"><ele>353.6</ele><time>2026-03-28T08:01:46.754Z</time></trkpt><trkpt lat="44.4086367" lon="11.308935"><ele>352.4</ele><time>2026-03-28T08:01:47.754Z</time></trkpt><trkpt lat="44.4085633" lon="11.30882"><ele>351.2</ele><time>2026-03-28T08:01:48.754Z</time></trkpt><trkpt lat="44.4084883" lon="11.3087133"><ele>350.0</ele><time>2026-03-28T08:01:49.753Z</time></trkpt><trkpt lat="44.408405" lon="11.3086067"><ele>350.0</ele><time>2026-03-28T08:01:50.754Z</time></trkpt><trkpt lat="44.4083117" lon="11.3085267"><ele>350.0</ele><time>2026-03-28T08:01:51.754Z</time></trkpt><trkpt lat="44.4082167" lon="11.3084617"><ele>350.0</ele><time>2026-03-28T08:01:52.754Z</time></trkpt><trkpt lat="44.408125" lon="11.30839"><ele>350.0</ele><time>2026-03-28T08:01:53.754Z</time></trkpt><trkpt lat="44.4080383" lon="11.3083283"><ele>350.0</ele><time>2026-03-28T08:01:54.754Z</time></trkpt><trkpt lat="44.4079483" lon="11.308275"><ele>347.8</ele><time>2026-03-28T08:01:55.753Z</time></trkpt><trkpt lat="44.4078533" lon="11.3082283"><ele>345.6</ele><time>2026-03-28T08:01:56.754Z</time></trkpt><trkpt lat="44.407755" lon="11.3082"><ele>343.4</ele><time>2026-03-28T08:01:57.754Z</time></trkpt><trkpt lat="44.40765" lon="11.308175"><ele>341.2</ele><time>2026-03-28T08:01:58.754Z</time></trkpt><trkpt lat="44.4075483" lon="11.3081617"><ele>339.0</ele><time>2026-03-28T08:01:59.754Z</time></trkpt><trkpt lat="44.4074383" lon="11.30814"><ele>339.0</ele><time>2026-03-28T08:02:00.754Z</time></trkpt><trkpt lat="44.4073217" lon="11.3081183"><ele>339.0</ele><time>2026-03-28T08:02:01.754Z</time></trkpt><trkpt lat="44.4071983" lon="11.3080883"><ele>339.0</ele><time>2026-03-28T08:02:02.754Z</time></trkpt><trkpt lat="44.407085" lon="11.308055"><ele>339.0</ele><time>2026-03-28T08:02:03.754Z</time></trkpt><trkpt lat="44.4069683" lon="11.3080267"><ele>340.0</ele><time>2026-03-28T08:02:04.754Z</time></trkpt><trkpt lat="44.4068517" lon="11.308005"><ele>341.0</ele><time>2026-03-28T08:02:05.753Z</time></trkpt><trkpt lat="44.4067333" lon="11.30798"><ele>342.0</ele><time>2026-03-28T08:02:06.754Z</time></trkpt><trkpt lat="44.4066183" lon="11.307945"><ele>343.0</ele><time>2026-03-28T08:02:07.754Z</time></trkpt><trkpt lat="44.406515" lon="11.3079233"><ele>343.0</ele><time>2026-03-28T08:02:08.753Z</time></trkpt><trkpt lat="44.4064133" lon="11.3078917"><ele>343.0</ele><time>2026-03-28T08:02:09.753Z</time></trkpt><trkpt lat="44.40631" lon="11.30787"><ele>343.0</ele><time>2026-03-28T08:02:10.754Z</time></trkpt><trkpt lat="44.4062067" lon="11.3078367"><ele>343.0</ele><time>2026-03-28T08:02:11.754Z</time></trkpt><trkpt lat="44.4061117" lon="11.3078083"><ele>343.0</ele><time>2026-03-28T08:02:12.754Z</time></trkpt><trkpt lat="44.406015" lon="11.30777"><ele>341.5</ele><time>2026-03-28T08:02:13.753Z</time></trkpt><trkpt lat="44.4059317" lon="11.3077383"><ele>340.0</ele><time>2026-03-28T08:02:14.754Z</time></trkpt><trkpt lat="44.4058433" lon="11.307725"><ele>338.5</ele><time>2026-03-28T08:02:15.754Z</time></trkpt><trkpt lat="44.405755" lon="11.3077033"><ele>337.0</ele><time>2026-03-28T08:02:16.753Z</time></trkpt><trkpt lat="44.4056683" lon="11.3076833"><ele>335.5</ele><time>2026-03-28T08:02:17.754Z</time></trkpt><trkpt lat="44.4055967" lon="11.3076417"><ele>334.0</ele><time>2026-03-28T08:02:18.753Z</time></trkpt><trkpt lat="44.4055333" lon="11.3075917"><ele>333.5</ele><time>2026-03-28T08:02:19.754Z</time></trkpt><trkpt lat="44.405445" lon="11.3074633"><ele>333.0</ele><time>2026-03-28T08:02:21.754Z</time></trkpt><trkpt lat="44.4054" lon="11.3074"><ele>332.5</ele><time>2026-03-28T08:02:22.753Z</time></trkpt><trkpt lat="44.4053583" lon="11.3073333"><ele>332.0</ele><time>2026-03-28T08:02:23.754Z</time></trkpt><trkpt lat="44.4053133" lon="11.3072667"><ele>331.5</ele><time>2026-03-28T08:02:24.754Z</time></trkpt><trkpt lat="44.4052617" lon="11.3072133"><ele>331.0</ele><time>2026-03-28T08:02:25.753Z</time></trkpt><trkpt lat="44.4051633" lon="11.3071717"><ele>331.0</ele><time>2026-03-28T08:02:27.753Z</time></trkpt><trkpt lat="44.405055" lon="11.30718"><ele>331.0</ele><time>2026-03-28T08:02:29.754Z</time></trkpt><trkpt lat="44.4049583" lon="11.3072233"><ele>331.0</ele><time>2026-03-28T08:02:31.753Z</time></trkpt><trkpt lat="44.4048583" lon="11.3073167"><ele>331.0</ele><time>2026-03-28T08:02:33.754Z</time></trkpt><trkpt lat="44.4047633" lon="11.307445"><ele>331.0</ele><time>2026-03-28T08:02:35.754Z</time></trkpt><trkpt lat="44.404725" lon="11.307525"><ele>331.0</ele><time>2026-03-28T08:02:36.754Z</time></trkpt><trkpt lat="44.4046783" lon="11.3076167"><ele>331.0</ele><time>2026-03-28T08:02:37.754Z</time></trkpt><trkpt lat="44.404625" lon="11.3077317"><ele>331.0</ele><time>2026-03-28T08:02:38.754Z</time></trkpt><trkpt lat="44.4045767" lon="11.3078533"><ele>331.0</ele><time>2026-03-28T08:02:39.754Z</time></trkpt><trkpt lat="44.404525" lon="11.307985"><ele>329.4</ele><time>2026-03-28T08:02:40.754Z</time></trkpt><trkpt lat="44.40447" lon="11.3081067"><ele>327.8</ele><time>2026-03-28T08:02:41.755Z</time></trkpt><trkpt lat="44.4044117" lon="11.3082317"><ele>326.2</ele><time>2026-03-28T08:02:42.755Z</time></trkpt><trkpt lat="44.4043583" lon="11.308345"><ele>324.59999999999997</ele><time>2026-03-28T08:02:43.755Z</time></trkpt><trkpt lat="44.4043017" lon="11.308465"><ele>323.0</ele><time>2026-03-28T08:02:44.755Z</time></trkpt><trkpt lat="44.4042367" lon="11.3085817"><ele>323.0</ele><time>2026-03-28T08:02:45.754Z</time></trkpt><trkpt lat="44.4041717" lon="11.3087033"><ele>323.0</ele><time>2026-03-28T08:02:46.754Z</time></trkpt><trkpt lat="44.4041117" lon="11.3088383"><ele>323.0</ele><time>2026-03-28T08:02:47.755Z</time></trkpt><trkpt lat="44.4040433" lon="11.3089867"><ele>323.0</ele><time>2026-03-28T08:02:48.755Z</time></trkpt><trkpt lat="44.40397" lon="11.3091233"><ele>323.0</ele><time>2026-03-28T08:02:49.755Z</time></trkpt><trkpt lat="44.4038867" lon="11.3092517"><ele>323.0</ele><time>2026-03-28T08:02:50.754Z</time></trkpt><trkpt lat="44.4038033" lon="11.3093833"><ele>323.0</ele><time>2026-03-28T08:02:51.755Z</time></trkpt><trkpt lat="44.4037083" lon="11.3094817"><ele>323.0</ele><time>2026-03-28T08:02:52.755Z</time></trkpt><trkpt lat="44.4036067" lon="11.30956"><ele>323.25</ele><time>2026-03-28T08:02:53.754Z</time></trkpt><trkpt lat="44.4035" lon="11.30963"><ele>323.5</ele><time>2026-03-28T08:02:54.755Z</time></trkpt><trkpt lat="44.4033867" lon="11.309685"><ele>323.75</ele><time>2026-03-28T08:02:55.755Z</time></trkpt><trkpt lat="44.403275" lon="11.3097233"><ele>324.0</ele><time>2026-03-28T08:02:56.755Z</time></trkpt><trkpt lat="44.403165" lon="11.3097617"><ele>324.0</ele><time>2026-03-28T08:02:57.755Z</time></trkpt><trkpt lat="44.40305" lon="11.3098117"><ele>324.0</ele><time>2026-03-28T08:02:58.755Z</time></trkpt><trkpt lat="44.4029383" lon="11.3098667"><ele>324.0</ele><time>2026-03-28T08:02:59.755Z</time></trkpt><trkpt lat="44.40283" lon="11.30991"><ele>324.0</ele><time>2026-03-28T08:03:00.755Z</time></trkpt><trkpt lat="44.4027283" lon="11.3099433"><ele>322.2</ele><time>2026-03-28T08:03:01.755Z</time></trkpt><trkpt lat="44.402625" lon="11.3099617"><ele>320.4</ele><time>2026-03-28T08:03:02.755Z</time></trkpt><trkpt lat="44.40252" lon="11.3099667"><ele>318.6</ele><time>2026-03-28T08:03:03.755Z</time></trkpt><trkpt lat="44.4024217" lon="11.309965"><ele>316.8</ele><time>2026-03-28T08:03:04.755Z</time></trkpt><trkpt lat="44.4023317" lon="11.3099583"><ele>315.0</ele><time>2026-03-28T08:03:05.754Z</time></trkpt><trkpt lat="44.4022367" lon="11.309945"><ele>314.3333333333333</ele><time>2026-03-28T08:03:06.755Z</time></trkpt><trkpt lat="44.402145" lon="11.3099233"><ele>313.6666666666667</ele><time>2026-03-28T08:03:07.755Z</time></trkpt><trkpt lat="44.4020533" lon="11.3099133"><ele>313.0</ele><time>2026-03-28T08:03:08.755Z</time></trkpt><trkpt lat="44.4019733" lon="11.3099067"><ele>312.33333333333337</ele><time>2026-03-28T08:03:09.755Z</time></trkpt><trkpt lat="44.4018967" lon="11.309885"><ele>311.6666666666667</ele><time>2026-03-28T08:03:10.755Z</time></trkpt><trkpt lat="44.4018217" lon="11.3098717"><ele>311.0</ele><time>2026-03-28T08:03:11.755Z</time></trkpt><trkpt lat="44.4017433" lon="11.3098633"><ele>311.0</ele><time>2026-03-28T08:03:12.755Z</time></trkpt><trkpt lat="44.40166" lon="11.309855"><ele>311.0</ele><time>2026-03-28T08:03:13.755Z</time></trkpt><trkpt lat="44.401585" lon="11.3098433"><ele>311.0</ele><time>2026-03-28T08:03:14.755Z</time></trkpt><trkpt lat="44.4015083" lon="11.3098267"><ele>311.0</ele><time>2026-03-28T08:03:15.755Z</time></trkpt><trkpt lat="44.4014333" lon="11.30982"><ele>311.0</ele><time>2026-03-28T08:03:16.755Z</time></trkpt><trkpt lat="44.4013633" lon="11.309805"><ele>311.0</ele><time>2026-03-28T08:03:17.755Z</time></trkpt><trkpt lat="44.4012983" lon="11.3097933"><ele>311.0</ele><time>2026-03-28T08:03:18.755Z</time></trkpt><trkpt lat="44.4012317" lon="11.30979"><ele>309.83333333333337</ele><time>2026-03-28T08:03:19.755Z</time></trkpt><trkpt lat="44.401165" lon="11.309795"><ele>308.6666666666667</ele><time>2026-03-28T08:03:20.755Z</time></trkpt><trkpt lat="44.4011017" lon="11.30979"><ele>307.5</ele><time>2026-03-28T08:03:21.755Z</time></trkpt><trkpt lat="44.401025" lon="11.3097933"><ele>306.3333333333333</ele><time>2026-03-28T08:03:22.755Z</time></trkpt><trkpt lat="44.4009583" lon="11.30978"><ele>305.16666666666663</ele><time>2026-03-28T08:03:23.754Z</time></trkpt><trkpt lat="44.400835" lon="11.3097217"><ele>304.0</ele><time>2026-03-28T08:03:25.754Z</time></trkpt><trkpt lat="44.4007333" lon="11.309645"><ele>303.59999999999997</ele><time>2026-03-28T08:03:27.755Z</time></trkpt><trkpt lat="44.40063" lon="11.309565"><ele>303.2</ele><time>2026-03-28T08:03:29.755Z</time></trkpt><trkpt lat="44.4005333" lon="11.3095"><ele>302.79999999999995</ele><time>2026-03-28T08:03:31.755Z</time></trkpt><trkpt lat="44.400425" lon="11.3094617"><ele>302.4</ele><time>2026-03-28T08:03:33.754Z</time></trkpt><trkpt lat="44.4003183" lon="11.309455"><ele>302.0</ele><time>2026-03-28T08:03:35.755Z</time></trkpt><trkpt lat="44.4002117" lon="11.30948"><ele>303.0</ele><time>2026-03-28T08:03:37.755Z</time></trkpt><trkpt lat="44.4001017" lon="11.30953"><ele>304.0</ele><time>2026-03-28T08:03:39.754Z</time></trkpt><trkpt lat="44.4000033" lon="11.3095933"><ele>305.0</ele><time>2026-03-28T08:03:41.755Z</time></trkpt><trkpt lat="44.399905" lon="11.3096717"><ele>306.0</ele><time>2026-03-28T08:03:43.754Z</time></trkpt><trkpt lat="44.39982" lon="11.3097483"><ele>307.0</ele><time>2026-03-28T08:03:45.755Z</time></trkpt><trkpt lat="44.3997267" lon="11.30982"><ele>308.4</ele><time>2026-03-28T08:03:47.755Z</time></trkpt><trkpt lat="44.3996317" lon="11.3098667"><ele>309.79999999999995</ele><time>2026-03-28T08:03:49.755Z</time></trkpt><trkpt lat="44.39953" lon="11.3099117"><ele>311.2</ele><time>2026-03-28T08:03:51.755Z</time></trkpt><trkpt lat="44.3994233" lon="11.3099267"><ele>312.59999999999997</ele><time>2026-03-28T08:03:53.755Z</time></trkpt><trkpt lat="44.3993083" lon="11.3099133"><ele>314.0</ele><time>2026-03-28T08:03:55.755Z</time></trkpt><trkpt lat="44.3992067" lon="11.3098683"><ele>314.0</ele><time>2026-03-28T08:03:57.754Z</time></trkpt><trkpt lat="44.3991017" lon="11.3098067"><ele>314.0</ele><time>2026-03-28T08:03:59.755Z</time></trkpt><trkpt lat="44.3989983" lon="11.3097367"><ele>314.0</ele><time>2026-03-28T08:04:01.755Z</time></trkpt><trkpt lat="44.3988967" lon="11.3096867"><ele>314.0</ele><time>2026-03-28T08:04:03.755Z</time></trkpt><trkpt lat="44.398795" lon="11.30963"><ele>314.0</ele><time>2026-03-28T08:04:05.754Z</time></trkpt><trkpt lat="44.3986933" lon="11.309575"><ele>315.0</ele><time>2026-03-28T08:04:07.754Z</time></trkpt><trkpt lat="44.398595" lon="11.3095083"><ele>316.0</ele><time>2026-03-28T08:04:09.755Z</time></trkpt><trkpt lat="44.3985" lon="11.3094417"><ele>317.0</ele><time>2026-03-28T08:04:11.755Z</time></trkpt><trkpt lat="44.3983983" lon="11.309395"><ele>318.0</ele><time>2026-03-28T08:04:13.755Z</time></trkpt><trkpt lat="44.398295" lon="11.3093383"><ele>319.0</ele><time>2026-03-28T08:04:15.755Z</time></trkpt><trkpt lat="44.3981967" lon="11.309315"><ele>319.0</ele><time>2026-03-28T08:04:17.755Z</time></trkpt><trkpt lat="44.3980867" lon="11.3093183"><ele>319.0</ele><time>2026-03-28T08:04:19.755Z</time></trkpt><trkpt lat="44.3979667" lon="11.3093417"><ele>319.0</ele><time>2026-03-28T08:04:21.755Z</time></trkpt><trkpt lat="44.397855" lon="11.3093767"><ele>319.0</ele><time>2026-03-28T08:04:23.755Z</time></trkpt><trkpt lat="44.397755" lon="11.309445"><ele>318.59999999999997</ele><time>2026-03-28T08:04:25.755Z</time></trkpt><trkpt lat="44.397655" lon="11.3095217"><ele>318.2</ele><time>2026-03-28T08:04:27.755Z</time></trkpt><trkpt lat="44.397585" lon="11.3096267"><ele>317.79999999999995</ele><time>2026-03-28T08:04:29.755Z</time></trkpt><trkpt lat="44.3975633" lon="11.30975"><ele>317.4</ele><time>2026-03-28T08:04:31.755Z</time></trkpt><trkpt lat="44.3975733" lon="11.30987"><ele>317.0</ele><time>2026-03-28T08:04:33.754Z</time></trkpt><trkpt lat="44.39759" lon="11.3099933"><ele>317.0</ele><time>2026-03-28T08:04:36.755Z</time></trkpt><trkpt lat="44.3976017" lon="11.3101083"><ele>317.0</ele><time>2026-03-28T08:04:39.755Z</time></trkpt><trkpt lat="44.3976017" lon="11.3101983"><ele>317.0</ele><time>2026-03-28T08:04:41.755Z</time></trkpt><trkpt lat="44.39756" lon="11.310305"><ele>317.0</ele><time>2026-03-28T08:04:44.754Z</time></trkpt><trkpt lat="44.3975" lon="11.3103933"><ele>317.0</ele><time>2026-03-28T08:04:47.755Z</time></trkpt><trkpt lat="44.3974183" lon="11.3104567"><ele>317.0</ele><time>2026-03-28T08:04:50.755Z</time></trkpt><trkpt lat="44.3973317" lon="11.310485"><ele>317.0</ele><time>2026-03-28T08:04:53.755Z</time></trkpt><trkpt lat="44.3972367" lon="11.31051"><ele>317.0</ele><time>2026-03-28T08:04:56.754Z</time></trkpt><trkpt lat="44.3971633" lon="11.31054"><ele>317.0</ele><time>2026-03-28T08:04:58.755Z</time></trkpt><trkpt lat="44.3970867" lon="11.3105517"><ele>317.0</ele><time>2026-03-28T08:05:00.755Z</time></trkpt><trkpt lat="44.3970017" lon="11.3105383"><ele>317.0</ele><time>2026-03-28T08:05:02.755Z</time></trkpt><trkpt lat="44.3969217" lon="11.31052"><ele>317.0</ele><time>2026-03-28T08:05:04.755Z</time></trkpt><trkpt lat="44.3968417" lon="11.31047"><ele>316.83333333333337</ele><time>2026-03-28T08:05:06.755Z</time></trkpt><trkpt lat="44.3967483" lon="11.3103933"><ele>316.6666666666667</ele><time>2026-03-28T08:05:08.754Z</time></trkpt><trkpt lat="44.3966567" lon="11.31031"><ele>316.5</ele><time>2026-03-28T08:05:10.755Z</time></trkpt><trkpt lat="44.3966033" lon="11.31026"><ele>316.3333333333333</ele><time>2026-03-28T08:05:11.755Z</time></trkpt><trkpt lat="44.3965483" lon="11.3102067"><ele>316.16666666666663</ele><time>2026-03-28T08:05:12.754Z</time></trkpt><trkpt lat="44.39649" lon="11.3101467"><ele>316.0</ele><time>2026-03-28T08:05:13.754Z</time></trkpt><trkpt lat="44.396435" lon="11.3100783"><ele>316.0</ele><time>2026-03-28T08:05:14.755Z</time></trkpt><trkpt lat="44.396375" lon="11.3100067"><ele>316.0</ele><time>2026-03-28T08:05:15.755Z</time></trkpt><trkpt lat="44.3963083" lon="11.309925"><ele>316.0</ele><time>2026-03-28T08:05:16.755Z</time></trkpt><trkpt lat="44.39624" lon="11.30984"><ele>316.0</ele><time>2026-03-28T08:05:17.754Z</time></trkpt><trkpt lat="44.39616" lon="11.30975"><ele>316.0</ele><time>2026-03-28T08:05:18.755Z</time></trkpt><trkpt lat="44.396065" lon="11.3096633"><ele>312.25</ele><time>2026-03-28T08:05:19.754Z</time></trkpt><trkpt lat="44.395965" lon="11.3096067"><ele>308.5</ele><time>2026-03-28T08:05:20.755Z</time></trkpt><trkpt lat="44.39585" lon="11.309575"><ele>304.75</ele><time>2026-03-28T08:05:21.755Z</time></trkpt><trkpt lat="44.3957283" lon="11.3095467"><ele>301.0</ele><time>2026-03-28T08:05:22.755Z</time></trkpt><trkpt lat="44.3956083" lon="11.3095283"><ele>303.75</ele><time>2026-03-28T08:05:23.755Z</time></trkpt><trkpt lat="44.3954967" lon="11.3094983"><ele>306.5</ele><time>2026-03-28T08:05:24.754Z</time></trkpt><trkpt lat="44.3953817" lon="11.30946"><ele>309.25</ele><time>2026-03-28T08:05:25.754Z</time></trkpt><trkpt lat="44.3952717" lon="11.30942"><ele>312.0</ele><time>2026-03-28T08:05:26.755Z</time></trkpt><trkpt lat="44.39517" lon="11.3093767"><ele>312.0</ele><time>2026-03-28T08:05:27.754Z</time></trkpt><trkpt lat="44.395085" lon="11.3093183"><ele>312.0</ele><time>2026-03-28T08:05:28.754Z</time></trkpt><trkpt lat="44.395005" lon="11.3092583"><ele>312.0</ele><time>2026-03-28T08:05:29.755Z</time></trkpt><trkpt lat="44.394935" lon="11.30919"><ele>312.0</ele><time>2026-03-28T08:05:30.755Z</time></trkpt><trkpt lat="44.39486" lon="11.3091267"><ele>312.0</ele><time>2026-03-28T08:05:31.754Z</time></trkpt><trkpt lat="44.3947883" lon="11.3090717"><ele>312.0</ele><time>2026-03-28T08:05:32.755Z</time></trkpt><trkpt lat="44.3947217" lon="11.30901"><ele>312.5</ele><time>2026-03-28T08:05:33.755Z</time></trkpt><trkpt lat="44.3946617" lon="11.3089533"><ele>313.0</ele><time>2026-03-28T08:05:34.755Z</time></trkpt><trkpt lat="44.3945983" lon="11.3089083"><ele>313.5</ele><time>2026-03-28T08:05:35.754Z</time></trkpt><trkpt lat="44.3945383" lon="11.30886"><ele>314.0</ele><time>2026-03-28T08:05:36.755Z</time></trkpt><trkpt lat="44.3944383" lon="11.3087767"><ele>314.5</ele><time>2026-03-28T08:05:38.754Z</time></trkpt><trkpt lat="44.394385" lon="11.3087283"><ele>315.0</ele><time>2026-03-28T08:05:39.755Z</time></trkpt><trkpt lat="44.39429" lon="11.3086417"><ele>315.0</ele><time>2026-03-28T08:05:41.755Z</time></trkpt><trkpt lat="44.3942" lon="11.3085533"><ele>315.0</ele><time>2026-03-28T08:05:43.755Z</time></trkpt><trkpt lat="44.3941183" lon="11.3084817"><ele>315.0</ele><time>2026-03-28T08:05:45.755Z</time></trkpt><trkpt lat="44.394045" lon="11.3084017"><ele>315.0</ele><time>2026-03-28T08:05:47.755Z</time></trkpt><trkpt lat="44.3939667" lon="11.3083167"><ele>315.0</ele><time>2026-03-28T08:05:49.755Z</time></trkpt><trkpt lat="44.3938967" lon="11.308205"><ele>315.0</ele><time>2026-03-28T08:05:51.755Z</time></trkpt><trkpt lat="44.3938583" lon="11.308135"><ele>315.0</ele><time>2026-03-28T08:05:52.755Z</time></trkpt><trkpt lat="44.3938233" lon="11.308055"><ele>315.0</ele><time>2026-03-28T08:05:53.755Z</time></trkpt><trkpt lat="44.3937867" lon="11.307965"><ele>315.0</ele><time>2026-03-28T08:05:54.755Z</time></trkpt><trkpt lat="44.3937517" lon="11.3078633"><ele>315.0</ele><time>2026-03-28T08:05:55.755Z</time></trkpt><trkpt lat="44.3937167" lon="11.3077467"><ele>315.0</ele><time>2026-03-28T08:05:56.755Z</time></trkpt><trkpt lat="44.3936733" lon="11.307635"><ele>312.6</ele><time>2026-03-28T08:05:57.755Z</time></trkpt><trkpt lat="44.3936367" lon="11.30751"><ele>310.2</ele><time>2026-03-28T08:05:58.754Z</time></trkpt><trkpt lat="44.3935983" lon="11.3073783"><ele>307.8</ele><time>2026-03-28T08:05:59.755Z</time></trkpt><trkpt lat="44.39356" lon="11.3072417"><ele>305.4</ele><time>2026-03-28T08:06:00.755Z</time></trkpt><trkpt lat="44.39352" lon="11.3071017"><ele>303.0</ele><time>2026-03-28T08:06:01.755Z</time></trkpt><trkpt lat="44.3934883" lon="11.3069583"><ele>301.8</ele><time>2026-03-28T08:06:02.755Z</time></trkpt><trkpt lat="44.3934533" lon="11.30683"><ele>300.6</ele><time>2026-03-28T08:06:03.754Z</time></trkpt><trkpt lat="44.39342" lon="11.30671"><ele>299.4</ele><time>2026-03-28T08:06:04.754Z</time></trkpt><trkpt lat="44.3933883" lon="11.3065817"><ele>298.2</ele><time>2026-03-28T08:06:05.755Z</time></trkpt><trkpt lat="44.3933667" lon="11.3064583"><ele>297.0</ele><time>2026-03-28T08:06:06.755Z</time></trkpt><trkpt lat="44.3933483" lon="11.3063383"><ele>295.8</ele><time>2026-03-28T08:06:07.755Z</time></trkpt><trkpt lat="44.393345" lon="11.3062"><ele>294.6</ele><time>2026-03-28T08:06:08.755Z</time></trkpt><trkpt lat="44.3933433" lon="11.3060567"><ele>293.40000000000003</ele><time>2026-03-28T08:06:09.755Z</time></trkpt><trkpt lat="44.3933533" lon="11.3059133"><ele>292.2</ele><time>2026-03-28T08:06:10.755Z</time></trkpt><trkpt lat="44.3933817" lon="11.305765"><ele>291.0</ele><time>2026-03-28T08:06:11.755Z</time></trkpt><trkpt lat="44.3934083" lon="11.305605"><ele>288.25</ele><time>2026-03-28T08:06:12.755Z</time></trkpt><trkpt lat="44.393445" lon="11.305425"><ele>285.5</ele><time>2026-03-28T08:06:13.755Z</time></trkpt><trkpt lat="44.39347" lon="11.3052467"><ele>282.75</ele><time>2026-03-28T08:06:14.754Z</time></trkpt><trkpt lat="44.39349" lon="11.3050617"><ele>280.0</ele><time>2026-03-28T08:06:15.755Z</time></trkpt><trkpt lat="44.393515" lon="11.30488"><ele>278.5</ele><time>2026-03-28T08:06:16.755Z</time></trkpt><trkpt lat="44.3935283" lon="11.3046933"><ele>277.0</ele><time>2026-03-28T08:06:17.754Z</time></trkpt><trkpt lat="44.39353" lon="11.30451"><ele>275.5</ele><time>2026-03-28T08:06:18.755Z</time></trkpt><trkpt lat="44.3935333" lon="11.304325"><ele>274.0</ele><time>2026-03-28T08:06:19.755Z</time></trkpt><trkpt lat="44.3935367" lon="11.3041417"><ele>274.0</ele><time>2026-03-28T08:06:20.754Z</time></trkpt><trkpt lat="44.3935283" lon="11.3039567"><ele>274.0</ele><time>2026-03-28T08:06:21.755Z</time></trkpt><trkpt lat="44.3935283" lon="11.3037717"><ele>274.0</ele><time>2026-03-28T08:06:22.754Z</time></trkpt><trkpt lat="44.3935217" lon="11.3035967"><ele>274.0</ele><time>2026-03-28T08:06:23.754Z</time></trkpt><trkpt lat="44.3935117" lon="11.303425"><ele>273.75</ele><time>2026-03-28T08:06:24.755Z</time></trkpt><trkpt lat="44.393505" lon="11.303255"><ele>273.5</ele><time>2026-03-28T08:06:25.754Z</time></trkpt><trkpt lat="44.3935067" lon="11.30309"><ele>273.25</ele><time>2026-03-28T08:06:26.755Z</time></trkpt><trkpt lat="44.3935083" lon="11.3029317"><ele>273.0</ele><time>2026-03-28T08:06:27.755Z</time></trkpt><trkpt lat="44.3935067" lon="11.30277"><ele>273.0</ele><time>2026-03-28T08:06:28.754Z</time></trkpt><trkpt lat="44.3935033" lon="11.3026167"><ele>273.0</ele><time>2026-03-28T08:06:29.756Z</time></trkpt><trkpt lat="44.3934933" lon="11.302465"><ele>273.0</ele><time>2026-03-28T08:06:30.755Z</time></trkpt><trkpt lat="44.3934733" lon="11.3023183"><ele>273.0</ele><time>2026-03-28T08:06:31.756Z</time></trkpt><trkpt lat="44.3934483" lon="11.3021783"><ele>273.0</ele><time>2026-03-28T08:06:32.756Z</time></trkpt><trkpt lat="44.393415" lon="11.3020433"><ele>272.8</ele><time>2026-03-28T08:06:33.756Z</time></trkpt><trkpt lat="44.3933767" lon="11.301905"><ele>272.6</ele><time>2026-03-28T08:06:34.755Z</time></trkpt><trkpt lat="44.3933383" lon="11.3017667"><ele>272.4</ele><time>2026-03-28T08:06:35.755Z</time></trkpt><trkpt lat="44.393295" lon="11.3016183"><ele>272.2</ele><time>2026-03-28T08:06:36.756Z</time></trkpt><trkpt lat="44.3932483" lon="11.30147"><ele>272.0</ele><time>2026-03-28T08:06:37.756Z</time></trkpt><trkpt lat="44.39319" lon="11.3013217"><ele>272.0</ele><time>2026-03-28T08:06:38.756Z</time></trkpt><trkpt lat="44.3931267" lon="11.3011783"><ele>272.0</ele><time>2026-03-28T08:06:39.755Z</time></trkpt><trkpt lat="44.39308" lon="11.301025"><ele>272.0</ele><time>2026-03-28T08:06:40.755Z</time></trkpt><trkpt lat="44.39303" lon="11.3008867"><ele>272.0</ele><time>2026-03-28T08:06:41.756Z</time></trkpt><trkpt lat="44.39299" lon="11.300735"><ele>266.75</ele><time>2026-03-28T08:06:42.756Z</time></trkpt><trkpt lat="44.392955" lon="11.3005867"><ele>261.5</ele><time>2026-03-28T08:06:43.755Z</time></trkpt><trkpt lat="44.3929667" lon="11.3004133"><ele>256.25</ele><time>2026-03-28T08:06:44.755Z</time></trkpt><trkpt lat="44.3929683" lon="11.3002433"><ele>251.0</ele><time>2026-03-28T08:06:45.756Z</time></trkpt><trkpt lat="44.3929683" lon="11.300065"><ele>251.0</ele><time>2026-03-28T08:06:46.755Z</time></trkpt><trkpt lat="44.39297" lon="11.2998883"><ele>251.0</ele><time>2026-03-28T08:06:47.756Z</time></trkpt><trkpt lat="44.3929767" lon="11.29971"><ele>251.0</ele><time>2026-03-28T08:06:48.756Z</time></trkpt><trkpt lat="44.39297" lon="11.2995333"><ele>251.0</ele><time>2026-03-28T08:06:49.756Z</time></trkpt><trkpt lat="44.392965" lon="11.2993583"><ele>250.25</ele><time>2026-03-28T08:06:50.756Z</time></trkpt><trkpt lat="44.39297" lon="11.299195"><ele>249.5</ele><time>2026-03-28T08:06:51.756Z</time></trkpt><trkpt lat="44.3929733" lon="11.2990317"><ele>248.75</ele><time>2026-03-28T08:06:52.756Z</time></trkpt><trkpt lat="44.39298" lon="11.2988733"><ele>248.0</ele><time>2026-03-28T08:06:53.756Z</time></trkpt><trkpt lat="44.392985" lon="11.2987117"><ele>248.0</ele><time>2026-03-28T08:06:54.755Z</time></trkpt><trkpt lat="44.3929817" lon="11.2985367"><ele>248.0</ele><time>2026-03-28T08:06:55.756Z</time></trkpt><trkpt lat="44.39297" lon="11.2983633"><ele>248.0</ele><time>2026-03-28T08:06:56.756Z</time></trkpt><trkpt lat="44.39294" lon="11.2982"><ele>248.0</ele><time>2026-03-28T08:06:57.756Z</time></trkpt><trkpt lat="44.39291" lon="11.29803"><ele>248.0</ele><time>2026-03-28T08:06:58.756Z</time></trkpt><trkpt lat="44.392855" lon="11.2978733"><ele>248.0</ele><time>2026-03-28T08:06:59.756Z</time></trkpt><trkpt lat="44.3928067" lon="11.2977167"><ele>248.0</ele><time>2026-03-28T08:07:00.756Z</time></trkpt><trkpt lat="44.3927583" lon="11.2975517"><ele>248.0</ele><time>2026-03-28T08:07:01.756Z</time></trkpt><trkpt lat="44.3927033" lon="11.2974067"><ele>248.0</ele><time>2026-03-28T08:07:02.756Z</time></trkpt><trkpt lat="44.3926467" lon="11.2972583"><ele>248.0</ele><time>2026-03-28T08:07:03.756Z</time></trkpt><trkpt lat="44.39259" lon="11.2971217"><ele>248.0</ele><time>2026-03-28T08:07:04.755Z</time></trkpt><trkpt lat="44.392525" lon="11.2969867"><ele>248.0</ele><time>2026-03-28T08:07:05.756Z</time></trkpt><trkpt lat="44.392455" lon="11.296865"><ele>246.5</ele><time>2026-03-28T08:07:06.755Z</time></trkpt><trkpt lat="44.3923717" lon="11.2967433"><ele>245.0</ele><time>2026-03-28T08:07:07.756Z</time></trkpt><trkpt lat="44.39229" lon="11.2966367"><ele>243.5</ele><time>2026-03-28T08:07:08.756Z</time></trkpt><trkpt lat="44.3922017" lon="11.296535"><ele>242.0</ele><time>2026-03-28T08:07:09.755Z</time></trkpt><trkpt lat="44.392115" lon="11.2964267"><ele>242.0</ele><time>2026-03-28T08:07:10.755Z</time></trkpt><trkpt lat="44.39202" lon="11.296325"><ele>242.0</ele><time>2026-03-28T08:07:11.756Z</time></trkpt><trkpt lat="44.3919283" lon="11.2962317"><ele>242.0</ele><time>2026-03-28T08:07:12.756Z</time></trkpt><trkpt lat="44.3918333" lon="11.296125"><ele>242.0</ele><time>2026-03-28T08:07:13.756Z</time></trkpt><trkpt lat="44.39174" lon="11.29601"><ele>242.0</ele><time>2026-03-28T08:07:14.756Z</time></trkpt><trkpt lat="44.39164" lon="11.2958867"><ele>242.0</ele><time>2026-03-28T08:07:15.755Z</time></trkpt><trkpt lat="44.3915417" lon="11.2957633"><ele>242.0</ele><time>2026-03-28T08:07:16.756Z</time></trkpt><trkpt lat="44.391445" lon="11.2956333"><ele>242.0</ele><time>2026-03-28T08:07:17.755Z</time></trkpt><trkpt lat="44.3913567" lon="11.2954867"><ele>237.75</ele><time>2026-03-28T08:07:18.756Z</time></trkpt><trkpt lat="44.391285" lon="11.2953283"><ele>233.5</ele><time>2026-03-28T08:07:19.756Z</time></trkpt><trkpt lat="44.3912283" lon="11.295155"><ele>229.25</ele><time>2026-03-28T08:07:20.756Z</time></trkpt><trkpt lat="44.3911833" lon="11.2949733"><ele>225.0</ele><time>2026-03-28T08:07:21.756Z</time></trkpt><trkpt lat="44.391155" lon="11.2947867"><ele>224.0</ele><time>2026-03-28T08:07:22.756Z</time></trkpt><trkpt lat="44.3911433" lon="11.2945933"><ele>223.0</ele><time>2026-03-28T08:07:23.756Z</time></trkpt><trkpt lat="44.3911483" lon="11.2943883"><ele>222.0</ele><time>2026-03-28T08:07:24.756Z</time></trkpt><trkpt lat="44.39116" lon="11.2942083"><ele>221.0</ele><time>2026-03-28T08:07:25.756Z</time></trkpt><trkpt lat="44.3911733" lon="11.2940367"><ele>221.4</ele><time>2026-03-28T08:07:26.755Z</time></trkpt><trkpt lat="44.3911883" lon="11.29387"><ele>221.8</ele><time>2026-03-28T08:07:27.756Z</time></trkpt><trkpt lat="44.3912033" lon="11.2937117"><ele>222.20000000000002</ele><time>2026-03-28T08:07:28.756Z</time></trkpt><trkpt lat="44.3912217" lon="11.2935833"><ele>222.60000000000002</ele><time>2026-03-28T08:07:29.755Z</time></trkpt><trkpt lat="44.3912467" lon="11.2934667"><ele>223.0</ele><time>2026-03-28T08:07:30.755Z</time></trkpt><trkpt lat="44.39128" lon="11.2933617"><ele>222.99999999999997</ele><time>2026-03-28T08:07:31.756Z</time></trkpt><trkpt lat="44.391325" lon="11.293265"><ele>223.0</ele><time>2026-03-28T08:07:32.756Z</time></trkpt><trkpt lat="44.3913983" lon="11.2931983"><ele>223.0</ele><time>2026-03-28T08:07:33.756Z</time></trkpt><trkpt lat="44.3914767" lon="11.2931533"><ele>223.0</ele><time>2026-03-28T08:07:34.756Z</time></trkpt><trkpt lat="44.3915633" lon="11.2931483"><ele>222.99999999999997</ele><time>2026-03-28T08:07:35.756Z</time></trkpt><trkpt lat="44.391655" lon="11.2931617"><ele>223.0</ele><time>2026-03-28T08:07:36.756Z</time></trkpt><trkpt lat="44.3917517" lon="11.293185"><ele>224.0</ele><time>2026-03-28T08:07:37.755Z</time></trkpt><trkpt lat="44.391835" lon="11.2932067"><ele>225.0</ele><time>2026-03-28T08:07:38.756Z</time></trkpt><trkpt lat="44.39191" lon="11.2932417"><ele>226.0</ele><time>2026-03-28T08:07:39.756Z</time></trkpt><trkpt lat="44.39199" lon="11.293295"><ele>227.0</ele><time>2026-03-28T08:07:40.756Z</time></trkpt><trkpt lat="44.3920683" lon="11.293365"><ele>228.0</ele><time>2026-03-28T08:07:41.755Z</time></trkpt><trkpt lat="44.3921383" lon="11.2934733"><ele>222.25</ele><time>2026-03-28T08:07:42.756Z</time></trkpt><trkpt lat="44.3922133" lon="11.29361"><ele>216.5</ele><time>2026-03-28T08:07:43.755Z</time></trkpt><trkpt lat="44.39228" lon="11.29376"><ele>210.75</ele><time>2026-03-28T08:07:44.755Z</time></trkpt><trkpt lat="44.39235" lon="11.2939083"><ele>205.0</ele><time>2026-03-28T08:07:45.756Z</time></trkpt><trkpt lat="44.39242" lon="11.2940633"><ele>205.0</ele><time>2026-03-28T08:07:46.756Z</time></trkpt><trkpt lat="44.3925017" lon="11.29421"><ele>205.0</ele><time>2026-03-28T08:07:47.756Z</time></trkpt><trkpt lat="44.3925817" lon="11.2943483"><ele>205.0</ele><time>2026-03-28T08:07:48.755Z</time></trkpt><trkpt lat="44.3926733" lon="11.2944683"><ele>205.0</ele><time>2026-03-28T08:07:49.756Z</time></trkpt><trkpt lat="44.3927667" lon="11.2945683"><ele>205.0</ele><time>2026-03-28T08:07:50.756Z</time></trkpt><trkpt lat="44.3928617" lon="11.29464"><ele>205.0</ele><time>2026-03-28T08:07:51.756Z</time></trkpt><trkpt lat="44.39296" lon="11.2946883"><ele>205.0</ele><time>2026-03-28T08:07:52.755Z</time></trkpt><trkpt lat="44.39306" lon="11.2947"><ele>205.0</ele><time>2026-03-28T08:07:53.755Z</time></trkpt><trkpt lat="44.39317" lon="11.294655"><ele>205.0</ele><time>2026-03-28T08:07:54.756Z</time></trkpt><trkpt lat="44.3932883" lon="11.294595"><ele>199.0</ele><time>2026-03-28T08:07:55.756Z</time></trkpt><trkpt lat="44.3934183" lon="11.2945383"><ele>193.0</ele><time>2026-03-28T08:07:56.755Z</time></trkpt><trkpt lat="44.3935383" lon="11.2944733"><ele>187.0</ele><time>2026-03-28T08:07:57.755Z</time></trkpt><trkpt lat="44.39365" lon="11.294385"><ele>181.0</ele><time>2026-03-28T08:07:58.756Z</time></trkpt><trkpt lat="44.3937433" lon="11.2942983"><ele>181.0</ele><time>2026-03-28T08:07:59.756Z</time></trkpt><trkpt lat="44.3938267" lon="11.2941567"><ele>181.0</ele><time>2026-03-28T08:08:00.756Z</time></trkpt><trkpt lat="44.393895" lon="11.294"><ele>181.0</ele><time>2026-03-28T08:08:01.756Z</time></trkpt><trkpt lat="44.3939583" lon="11.293825"><ele>181.0</ele><time>2026-03-28T08:08:02.755Z</time></trkpt><trkpt lat="44.394025" lon="11.2936567"><ele>177.25</ele><time>2026-03-28T08:08:03.756Z</time></trkpt><trkpt lat="44.3940917" lon="11.2935017"><ele>173.5</ele><time>2026-03-28T08:08:04.755Z</time></trkpt><trkpt lat="44.3941433" lon="11.2933383"><ele>169.75</ele><time>2026-03-28T08:08:05.756Z</time></trkpt><trkpt lat="44.3941867" lon="11.293165"><ele>166.0</ele><time>2026-03-28T08:08:06.755Z</time></trkpt><trkpt lat="44.3942167" lon="11.2929783"><ele>164.75</ele><time>2026-03-28T08:08:07.756Z</time></trkpt><trkpt lat="44.3942367" lon="11.29279"><ele>163.5</ele><time>2026-03-28T08:08:08.755Z</time></trkpt><trkpt lat="44.39424" lon="11.2925983"><ele>162.25</ele><time>2026-03-28T08:08:09.756Z</time></trkpt><trkpt lat="44.3942317" lon="11.29241"><ele>161.0</ele><time>2026-03-28T08:08:10.755Z</time></trkpt><trkpt lat="44.3942033" lon="11.2922167"><ele>159.75</ele><time>2026-03-28T08:08:11.756Z</time></trkpt><trkpt lat="44.3941633" lon="11.2920267"><ele>158.5</ele><time>2026-03-28T08:08:12.755Z</time></trkpt><trkpt lat="44.3941167" lon="11.291855"><ele>157.25</ele><time>2026-03-28T08:08:13.756Z</time></trkpt><trkpt lat="44.394085" lon="11.291685"><ele>156.0</ele><time>2026-03-28T08:08:14.756Z</time></trkpt><trkpt lat="44.3940783" lon="11.2915067"><ele>155.25</ele><time>2026-03-28T08:08:15.755Z</time></trkpt><trkpt lat="44.394085" lon="11.2913317"><ele>154.5</ele><time>2026-03-28T08:08:16.756Z</time></trkpt><trkpt lat="44.3941033" lon="11.29115"><ele>153.75</ele><time>2026-03-28T08:08:17.756Z</time></trkpt><trkpt lat="44.3941383" lon="11.2909717"><ele>153.0</ele><time>2026-03-28T08:08:18.755Z</time></trkpt><trkpt lat="44.3941833" lon="11.2907967"><ele>153.0</ele><time>2026-03-28T08:08:19.756Z</time></trkpt><trkpt lat="44.394205" lon="11.2906167"><ele>153.0</ele><time>2026-03-28T08:08:20.756Z</time></trkpt><trkpt lat="44.3942267" lon="11.2904283"><ele>153.0</ele><time>2026-03-28T08:08:21.755Z</time></trkpt><trkpt lat="44.39425" lon="11.2902383"><ele>153.0</ele><time>2026-03-28T08:08:22.756Z</time></trkpt><trkpt lat="44.3942533" lon="11.2900467"><ele>151.0</ele><time>2026-03-28T08:08:23.756Z</time></trkpt><trkpt lat="44.3942467" lon="11.289855"><ele>149.0</ele><time>2026-03-28T08:08:24.756Z</time></trkpt><trkpt lat="44.3942233" lon="11.2896467"><ele>147.0</ele><time>2026-03-28T08:08:25.756Z</time></trkpt><trkpt lat="44.3941867" lon="11.289445"><ele>145.0</ele><time>2026-03-28T08:08:26.756Z</time></trkpt><trkpt lat="44.3941417" lon="11.28926"><ele>143.4</ele><time>2026-03-28T08:08:27.756Z</time></trkpt><trkpt lat="44.394085" lon="11.2890967"><ele>141.8</ele><time>2026-03-28T08:08:28.755Z</time></trkpt><trkpt lat="44.39405" lon="11.28895"><ele>140.2</ele><time>2026-03-28T08:08:29.755Z</time></trkpt><trkpt lat="44.3940233" lon="11.2888167"><ele>138.6</ele><time>2026-03-28T08:08:30.756Z</time></trkpt><trkpt lat="44.3940267" lon="11.2886717"><ele>137.0</ele><time>2026-03-28T08:08:31.756Z</time></trkpt><trkpt lat="44.394045" lon="11.2885417"><ele>134.79999999999998</ele><time>2026-03-28T08:08:32.755Z</time></trkpt><trkpt lat="44.3941" lon="11.288425"><ele>132.6</ele><time>2026-03-28T08:08:33.756Z</time></trkpt><trkpt lat="44.3941783" lon="11.2883283"><ele>130.39999999999998</ele><time>2026-03-28T08:08:34.756Z</time></trkpt><trkpt lat="44.3942683" lon="11.288245"><ele>128.2</ele><time>2026-03-28T08:08:35.756Z</time></trkpt><trkpt lat="44.3943633" lon="11.2881583"><ele>126.0</ele><time>2026-03-28T08:08:36.756Z</time></trkpt><trkpt lat="44.3944583" lon="11.2880617"><ele>122.75</ele><time>2026-03-28T08:08:37.756Z</time></trkpt><trkpt lat="44.3945467" lon="11.2879417"><ele>119.5</ele><time>2026-03-28T08:08:38.756Z</time></trkpt><trkpt lat="44.3946317" lon="11.2877967"><ele>116.25</ele><time>2026-03-28T08:08:39.756Z</time></trkpt><trkpt lat="44.3947167" lon="11.2876517"><ele>113.0</ele><time>2026-03-28T08:08:40.756Z</time></trkpt><trkpt lat="44.3948183" lon="11.287525"><ele>113.0</ele><time>2026-03-28T08:08:41.755Z</time></trkpt><trkpt lat="44.39493" lon="11.28742"><ele>113.0</ele><time>2026-03-28T08:08:42.756Z</time></trkpt><trkpt lat="44.3950383" lon="11.287345"><ele>113.0</ele><time>2026-03-28T08:08:43.756Z</time></trkpt><trkpt lat="44.395155" lon="11.28728"><ele>113.0</ele><time>2026-03-28T08:08:44.756Z</time></trkpt><trkpt lat="44.3952517" lon="11.2871933"><ele>111.75</ele><time>2026-03-28T08:08:45.756Z</time></trkpt><trkpt lat="44.39533" lon="11.2870683"><ele>110.5</ele><time>2026-03-28T08:08:46.756Z</time></trkpt><trkpt lat="44.3953817" lon="11.2869217"><ele>109.25</ele><time>2026-03-28T08:08:47.756Z</time></trkpt><trkpt lat="44.3954217" lon="11.2867783"><ele>108.0</ele><time>2026-03-28T08:08:48.755Z</time></trkpt><trkpt lat="44.3954467" lon="11.28663"><ele>108.0</ele><time>2026-03-28T08:08:49.756Z</time></trkpt><trkpt lat="44.3954683" lon="11.2864983"><ele>108.00000000000001</ele><time>2026-03-28T08:08:50.756Z</time></trkpt><trkpt lat="44.39549" lon="11.2863633"><ele>108.00000000000001</ele><time>2026-03-28T08:08:51.756Z</time></trkpt><trkpt lat="44.3955183" lon="11.2862367"><ele>108.0</ele><time>2026-03-28T08:08:52.756Z</time></trkpt><trkpt lat="44.3955383" lon="11.28611"><ele>108.0</ele><time>2026-03-28T08:08:53.756Z</time></trkpt><trkpt lat="44.395555" lon="11.2859833"><ele>108.66666666666667</ele><time>2026-03-28T08:08:54.756Z</time></trkpt><trkpt lat="44.3955667" lon="11.2858533"><ele>109.33333333333334</ele><time>2026-03-28T08:08:55.756Z</time></trkpt><trkpt lat="44.3955833" lon="11.28574"><ele>110.0</ele><time>2026-03-28T08:08:56.756Z</time></trkpt><trkpt lat="44.3955933" lon="11.2856333"><ele>110.66666666666667</ele><time>2026-03-28T08:08:57.756Z</time></trkpt><trkpt lat="44.3956067" lon="11.28552"><ele>111.33333333333334</ele><time>2026-03-28T08:08:58.756Z</time></trkpt><trkpt lat="44.3956183" lon="11.285415"><ele>112.0</ele><time>2026-03-28T08:08:59.756Z</time></trkpt><trkpt lat="44.3956317" lon="11.2853117"><ele>112.00000000000001</ele><time>2026-03-28T08:09:00.756Z</time></trkpt><trkpt lat="44.3956417" lon="11.285205"><ele>112.0</ele><time>2026-03-28T08:09:01.755Z</time></trkpt><trkpt lat="44.3956517" lon="11.2851033"><ele>112.0</ele><time>2026-03-28T08:09:02.756Z</time></trkpt><trkpt lat="44.3956617" lon="11.2849983"><ele>112.0</ele><time>2026-03-28T08:09:03.756Z</time></trkpt><trkpt lat="44.3956733" lon="11.2848867"><ele>112.00000000000001</ele><time>2026-03-28T08:09:04.756Z</time></trkpt><trkpt lat="44.395685" lon="11.2847783"><ele>112.0</ele><time>2026-03-28T08:09:05.755Z</time></trkpt><trkpt lat="44.3957" lon="11.284675"><ele>110.83333333333334</ele><time>2026-03-28T08:09:06.756Z</time></trkpt><trkpt lat="44.39571" lon="11.284565"><ele>109.66666666666667</ele><time>2026-03-28T08:09:07.756Z</time></trkpt><trkpt lat="44.395715" lon="11.2844533"><ele>108.5</ele><time>2026-03-28T08:09:08.756Z</time></trkpt><trkpt lat="44.3957333" lon="11.2843333"><ele>107.33333333333334</ele><time>2026-03-28T08:09:09.756Z</time></trkpt><trkpt lat="44.39573" lon="11.2842083"><ele>106.16666666666667</ele><time>2026-03-28T08:09:10.755Z</time></trkpt><trkpt lat="44.3957233" lon="11.2840733"><ele>105.0</ele><time>2026-03-28T08:09:11.755Z</time></trkpt><trkpt lat="44.3957083" lon="11.2839417"><ele>104.2</ele><time>2026-03-28T08:09:12.755Z</time></trkpt><trkpt lat="44.3956983" lon="11.28381"><ele>103.4</ele><time>2026-03-28T08:09:13.755Z</time></trkpt><trkpt lat="44.39568" lon="11.2836783"><ele>102.6</ele><time>2026-03-28T08:09:14.756Z</time></trkpt><trkpt lat="44.3956633" lon="11.2835483"><ele>101.8</ele><time>2026-03-28T08:09:15.756Z</time></trkpt><trkpt lat="44.3956417" lon="11.2834217"><ele>101.0</ele><time>2026-03-28T08:09:16.756Z</time></trkpt><trkpt lat="44.3956267" lon="11.2833"><ele>100.99999999999999</ele><time>2026-03-28T08:09:17.755Z</time></trkpt><trkpt lat="44.39561" lon="11.2831833"><ele>101.0</ele><time>2026-03-28T08:09:18.756Z</time></trkpt><trkpt lat="44.3955933" lon="11.2830617"><ele>101.0</ele><time>2026-03-28T08:09:19.756Z</time></trkpt><trkpt lat="44.3955767" lon="11.282945"><ele>101.0</ele><time>2026-03-28T08:09:20.756Z</time></trkpt><trkpt lat="44.39557" lon="11.2828333"><ele>100.99999999999999</ele><time>2026-03-28T08:09:21.756Z</time></trkpt><trkpt lat="44.3955583" lon="11.2827183"><ele>101.0</ele><time>2026-03-28T08:09:22.756Z</time></trkpt><trkpt lat="44.39554" lon="11.2826083"><ele>100.66666666666666</ele><time>2026-03-28T08:09:23.755Z</time></trkpt><trkpt lat="44.3955233" lon="11.2824967"><ele>100.33333333333333</ele><time>2026-03-28T08:09:24.756Z</time></trkpt><trkpt lat="44.39551" lon="11.2823817"><ele>100.0</ele><time>2026-03-28T08:09:25.756Z</time></trkpt><trkpt lat="44.3955" lon="11.2822733"><ele>99.66666666666666</ele><time>2026-03-28T08:09:26.756Z</time></trkpt><trkpt lat="44.3954933" lon="11.2821683"><ele>99.33333333333333</ele><time>2026-03-28T08:09:27.756Z</time></trkpt><trkpt lat="44.3954783" lon="11.28207"><ele>99.0</ele><time>2026-03-28T08:09:28.755Z</time></trkpt><trkpt lat="44.3954617" lon="11.2819667"><ele>101.66666666666667</ele><time>2026-03-28T08:09:29.755Z</time></trkpt><trkpt lat="44.3954533" lon="11.2818717"><ele>104.33333333333334</ele><time>2026-03-28T08:09:30.756Z</time></trkpt><trkpt lat="44.3954467" lon="11.28178"><ele>107.0</ele><time>2026-03-28T08:09:31.756Z</time></trkpt><trkpt lat="44.395445" lon="11.2816917"><ele>109.66666666666667</ele><time>2026-03-28T08:09:32.756Z</time></trkpt><trkpt lat="44.395435" lon="11.28152"><ele>112.33333333333334</ele><time>2026-03-28T08:09:34.756Z</time></trkpt><trkpt lat="44.3954417" lon="11.28137"><ele>115.0</ele><time>2026-03-28T08:09:36.755Z</time></trkpt><trkpt lat="44.3954517" lon="11.2812183"><ele>115.0</ele><time>2026-03-28T08:09:38.756Z</time></trkpt><trkpt lat="44.39546" lon="11.2810717"><ele>115.0</ele><time>2026-03-28T08:09:40.755Z</time></trkpt><trkpt lat="44.3954683" lon="11.2809283"><ele>115.0</ele><time>2026-03-28T08:09:42.755Z</time></trkpt><trkpt lat="44.3954883" lon="11.28078"><ele>115.0</ele><time>2026-03-28T08:09:44.756Z</time></trkpt><trkpt lat="44.3955017" lon="11.2806217"><ele>115.0</ele><time>2026-03-28T08:09:46.756Z</time></trkpt><trkpt lat="44.3955183" lon="11.2804683"><ele>114.0</ele><time>2026-03-28T08:09:48.756Z</time></trkpt><trkpt lat="44.39552" lon="11.2803117"><ele>113.0</ele><time>2026-03-28T08:09:50.756Z</time></trkpt><trkpt lat="44.3955217" lon="11.2802233"><ele>112.0</ele><time>2026-03-28T08:09:51.756Z</time></trkpt><trkpt lat="44.3955067" lon="11.280075"><ele>111.0</ele><time>2026-03-28T08:09:53.756Z</time></trkpt><trkpt lat="44.3954733" lon="11.2799183"><ele>110.0</ele><time>2026-03-28T08:09:55.756Z</time></trkpt><trkpt lat="44.395425" lon="11.2797783"><ele>109.6</ele><time>2026-03-28T08:09:57.756Z</time></trkpt><trkpt lat="44.3954133" lon="11.27964"><ele>109.2</ele><time>2026-03-28T08:09:59.756Z</time></trkpt><trkpt lat="44.395485" lon="11.2795333"><ele>108.80000000000001</ele><time>2026-03-28T08:10:01.756Z</time></trkpt><trkpt lat="44.3956117" lon="11.2795217"><ele>108.4</ele><time>2026-03-28T08:10:03.756Z</time></trkpt><trkpt lat="44.3956817" lon="11.279525"><ele>108.0</ele><time>2026-03-28T08:10:04.756Z</time></trkpt><trkpt lat="44.3957533" lon="11.2795217"><ele>108.0</ele><time>2026-03-28T08:10:05.757Z</time></trkpt><trkpt lat="44.3958233" lon="11.2795183"><ele>108.0</ele><time>2026-03-28T08:10:06.757Z</time></trkpt><trkpt lat="44.3958917" lon="11.27953"><ele>108.0</ele><time>2026-03-28T08:10:07.757Z</time></trkpt><trkpt lat="44.3959583" lon="11.2795233"><ele>108.0</ele><time>2026-03-28T08:10:08.757Z</time></trkpt><trkpt lat="44.3960283" lon="11.2795133"><ele>108.0</ele><time>2026-03-28T08:10:09.757Z</time></trkpt><trkpt lat="44.3961017" lon="11.2795033"><ele>108.0</ele><time>2026-03-28T08:10:10.757Z</time></trkpt><trkpt lat="44.3961717" lon="11.27951"><ele>108.0</ele><time>2026-03-28T08:10:11.756Z</time></trkpt><trkpt lat="44.3962383" lon="11.2795"><ele>108.0</ele><time>2026-03-28T08:10:12.757Z</time></trkpt><trkpt lat="44.39631" lon="11.2794983"><ele>108.0</ele><time>2026-03-28T08:10:13.757Z</time></trkpt><trkpt lat="44.39638" lon="11.279495"><ele>108.0</ele><time>2026-03-28T08:10:14.756Z</time></trkpt><trkpt lat="44.3964533" lon="11.27949"><ele>108.0</ele><time>2026-03-28T08:10:15.757Z</time></trkpt><trkpt lat="44.39653" lon="11.2794867"><ele>108.0</ele><time>2026-03-28T08:10:16.757Z</time></trkpt><trkpt lat="44.3966017" lon="11.2795033"><ele>108.0</ele><time>2026-03-28T08:10:17.757Z</time></trkpt><trkpt lat="44.3966667" lon="11.2795"><ele>108.0</ele><time>2026-03-28T08:10:18.757Z</time></trkpt><trkpt lat="44.3967333" lon="11.2795"><ele>108.0</ele><time>2026-03-28T08:10:19.757Z</time></trkpt><trkpt lat="44.3968067" lon="11.2795"><ele>108.0</ele><time>2026-03-28T08:10:20.756Z</time></trkpt><trkpt lat="44.39688" lon="11.2795017"><ele>108.0</ele><time>2026-03-28T08:10:21.756Z</time></trkpt><trkpt lat="44.39695" lon="11.279495"><ele>108.0</ele><time>2026-03-28T08:10:22.757Z</time></trkpt><trkpt lat="44.397015" lon="11.2794933"><ele>108.0</ele><time>2026-03-28T08:10:23.757Z</time></trkpt><trkpt lat="44.3970883" lon="11.2794833"><ele>108.0</ele><time>2026-03-28T08:10:24.757Z</time></trkpt><trkpt lat="44.3971683" lon="11.279455"><ele>108.0</ele><time>2026-03-28T08:10:25.757Z</time></trkpt><trkpt lat="44.3972433" lon="11.279425"><ele>108.0</ele><time>2026-03-28T08:10:26.757Z</time></trkpt><trkpt lat="44.39732" lon="11.2793967"><ele>108.0</ele><time>2026-03-28T08:10:27.757Z</time></trkpt><trkpt lat="44.3973933" lon="11.279355"><ele>108.0</ele><time>2026-03-28T08:10:28.757Z</time></trkpt><trkpt lat="44.3974717" lon="11.2793167"><ele>108.0</ele><time>2026-03-28T08:10:29.756Z</time></trkpt><trkpt lat="44.3975483" lon="11.2792617"><ele>108.0</ele><time>2026-03-28T08:10:30.757Z</time></trkpt><trkpt lat="44.3976233" lon="11.2792117"><ele>108.0</ele><time>2026-03-28T08:10:31.756Z</time></trkpt><trkpt lat="44.397705" lon="11.2791617"><ele>108.0</ele><time>2026-03-28T08:10:32.757Z</time></trkpt><trkpt lat="44.3977833" lon="11.2791067"><ele>108.00000000000001</ele><time>2026-03-28T08:10:33.757Z</time></trkpt><trkpt lat="44.3978633" lon="11.2790567"><ele>108.00000000000001</ele><time>2026-03-28T08:10:34.757Z</time></trkpt><trkpt lat="44.3979433" lon="11.2790017"><ele>108.0</ele><time>2026-03-28T08:10:35.757Z</time></trkpt><trkpt lat="44.3980283" lon="11.2789533"><ele>108.0</ele><time>2026-03-28T08:10:36.757Z</time></trkpt><trkpt lat="44.398115" lon="11.2789"><ele>107.16666666666667</ele><time>2026-03-28T08:10:37.757Z</time></trkpt><trkpt lat="44.3982" lon="11.27885"><ele>106.33333333333334</ele><time>2026-03-28T08:10:38.756Z</time></trkpt><trkpt lat="44.3982833" lon="11.2788083"><ele>105.5</ele><time>2026-03-28T08:10:39.757Z</time></trkpt><trkpt lat="44.3983633" lon="11.278755"><ele>104.66666666666667</ele><time>2026-03-28T08:10:40.756Z</time></trkpt><trkpt lat="44.398445" lon="11.278705"><ele>103.83333333333334</ele><time>2026-03-28T08:10:41.757Z</time></trkpt><trkpt lat="44.3985217" lon="11.2786517"><ele>103.0</ele><time>2026-03-28T08:10:42.756Z</time></trkpt><trkpt lat="44.3986" lon="11.2786067"><ele>103.00000000000001</ele><time>2026-03-28T08:10:43.757Z</time></trkpt><trkpt lat="44.3986767" lon="11.27856"><ele>103.0</ele><time>2026-03-28T08:10:44.757Z</time></trkpt><trkpt lat="44.39875" lon="11.2785067"><ele>103.0</ele><time>2026-03-28T08:10:45.756Z</time></trkpt><trkpt lat="44.3988267" lon="11.2784517"><ele>103.0</ele><time>2026-03-28T08:10:46.756Z</time></trkpt><trkpt lat="44.398905" lon="11.2784017"><ele>103.00000000000001</ele><time>2026-03-28T08:10:47.757Z</time></trkpt><trkpt lat="44.3989783" lon="11.27836"><ele>103.0</ele><time>2026-03-28T08:10:48.757Z</time></trkpt><trkpt lat="44.3990467" lon="11.2783217"><ele>102.50000000000001</ele><time>2026-03-28T08:10:49.757Z</time></trkpt><trkpt lat="44.39912" lon="11.2782767"><ele>102.0</ele><time>2026-03-28T08:10:50.756Z</time></trkpt><trkpt lat="44.399195" lon="11.2782367"><ele>101.5</ele><time>2026-03-28T08:10:51.757Z</time></trkpt><trkpt lat="44.3992667" lon="11.2781917"><ele>101.0</ele><time>2026-03-28T08:10:52.757Z</time></trkpt><trkpt lat="44.3993367" lon="11.278155"><ele>100.50000000000001</ele><time>2026-03-28T08:10:53.757Z</time></trkpt><trkpt lat="44.3994083" lon="11.27811"><ele>100.0</ele><time>2026-03-28T08:10:54.757Z</time></trkpt><trkpt lat="44.39948" lon="11.2780733"><ele>100.00000000000001</ele><time>2026-03-28T08:10:55.757Z</time></trkpt><trkpt lat="44.3995483" lon="11.2780333"><ele>100.0</ele><time>2026-03-28T08:10:56.757Z</time></trkpt><trkpt lat="44.3996117" lon="11.2780017"><ele>100.0</ele><time>2026-03-28T08:10:57.757Z</time></trkpt><trkpt lat="44.3996767" lon="11.27796"><ele>100.0</ele><time>2026-03-28T08:10:58.757Z</time></trkpt><trkpt lat="44.39974" lon="11.2779183"><ele>100.0</ele><time>2026-03-28T08:10:59.757Z</time></trkpt><trkpt lat="44.3998" lon="11.2778767"><ele>100.00000000000001</ele><time>2026-03-28T08:11:00.757Z</time></trkpt><trkpt lat="44.3998617" lon="11.27783"><ele>100.0</ele><time>2026-03-28T08:11:01.757Z</time></trkpt><trkpt lat="44.3999233" lon="11.2777783"><ele>99.50000000000001</ele><time>2026-03-28T08:11:02.756Z</time></trkpt><trkpt lat="44.399975" lon="11.277715"><ele>99.0</ele><time>2026-03-28T08:11:03.757Z</time></trkpt><trkpt lat="44.4000217" lon="11.2776417"><ele>98.5</ele><time>2026-03-28T08:11:04.757Z</time></trkpt><trkpt lat="44.4000617" lon="11.2775633"><ele>98.0</ele><time>2026-03-28T08:11:05.756Z</time></trkpt><trkpt lat="44.4000983" lon="11.27749"><ele>97.50000000000001</ele><time>2026-03-28T08:11:06.757Z</time></trkpt><trkpt lat="44.400175" lon="11.2773733"><ele>97.0</ele><time>2026-03-28T08:11:08.756Z</time></trkpt><trkpt lat="44.40024" lon="11.2772317"><ele>97.00000000000001</ele><time>2026-03-28T08:11:10.757Z</time></trkpt><trkpt lat="44.4003117" lon="11.277115"><ele>97.0</ele><time>2026-03-28T08:11:12.757Z</time></trkpt><trkpt lat="44.400385" lon="11.2769833"><ele>97.0</ele><time>2026-03-28T08:11:14.757Z</time></trkpt><trkpt lat="44.4004267" lon="11.2769117"><ele>97.0</ele><time>2026-03-28T08:11:15.757Z</time></trkpt><trkpt lat="44.4004683" lon="11.2768333"><ele>97.00000000000001</ele><time>2026-03-28T08:11:16.757Z</time></trkpt><trkpt lat="44.4005083" lon="11.2767533"><ele>97.0</ele><time>2026-03-28T08:11:17.757Z</time></trkpt><trkpt lat="44.4005533" lon="11.2766683"><ele>96.57142857142857</ele><time>2026-03-28T08:11:18.757Z</time></trkpt><trkpt lat="44.4006" lon="11.2765917"><ele>96.14285714285715</ele><time>2026-03-28T08:11:19.756Z</time></trkpt><trkpt lat="44.4006483" lon="11.2765167"><ele>95.71428571428572</ele><time>2026-03-28T08:11:20.757Z</time></trkpt><trkpt lat="44.4006983" lon="11.2764367"><ele>95.28571428571428</ele><time>2026-03-28T08:11:21.756Z</time></trkpt><trkpt lat="44.40075" lon="11.2763517"><ele>94.85714285714286</ele><time>2026-03-28T08:11:22.756Z</time></trkpt><trkpt lat="44.4007933" lon="11.2762717"><ele>94.42857142857143</ele><time>2026-03-28T08:11:23.757Z</time></trkpt><trkpt lat="44.400835" lon="11.2761917"><ele>94.0</ele><time>2026-03-28T08:11:24.757Z</time></trkpt><trkpt lat="44.4008817" lon="11.2761117"><ele>94.0</ele><time>2026-03-28T08:11:25.757Z</time></trkpt><trkpt lat="44.4009267" lon="11.2760383"><ele>94.0</ele><time>2026-03-28T08:11:26.757Z</time></trkpt><trkpt lat="44.4009717" lon="11.275965"><ele>94.0</ele><time>2026-03-28T08:11:27.757Z</time></trkpt><trkpt lat="44.4010183" lon="11.2758917"><ele>94.0</ele><time>2026-03-28T08:11:28.757Z</time></trkpt><trkpt lat="44.4010667" lon="11.275825"><ele>94.0</ele><time>2026-03-28T08:11:29.757Z</time></trkpt><trkpt lat="44.4011217" lon="11.27578"><ele>94.0</ele><time>2026-03-28T08:11:30.757Z</time></trkpt><trkpt lat="44.40117" lon="11.2757083"><ele>94.0</ele><time>2026-03-28T08:11:31.756Z</time></trkpt><trkpt lat="44.4012217" lon="11.2756433"><ele>93.42857142857143</ele><time>2026-03-28T08:11:32.757Z</time></trkpt><trkpt lat="44.4012717" lon="11.27557"><ele>92.85714285714286</ele><time>2026-03-28T08:11:33.757Z</time></trkpt><trkpt lat="44.401325" lon="11.2755033"><ele>92.28571428571428</ele><time>2026-03-28T08:11:34.757Z</time></trkpt><trkpt lat="44.40138" lon="11.2754417"><ele>91.71428571428572</ele><time>2026-03-28T08:11:35.757Z</time></trkpt><trkpt lat="44.4014383" lon="11.2753817"><ele>91.14285714285715</ele><time>2026-03-28T08:11:36.756Z</time></trkpt><trkpt lat="44.4015" lon="11.2753267"><ele>90.57142857142857</ele><time>2026-03-28T08:11:37.756Z</time></trkpt><trkpt lat="44.4015567" lon="11.2752733"><ele>90.0</ele><time>2026-03-28T08:11:38.756Z</time></trkpt><trkpt lat="44.40162" lon="11.2752167"><ele>90.0</ele><time>2026-03-28T08:11:39.756Z</time></trkpt><trkpt lat="44.4016833" lon="11.27516"><ele>90.0</ele><time>2026-03-28T08:11:40.756Z</time></trkpt><trkpt lat="44.4017433" lon="11.27511"><ele>90.0</ele><time>2026-03-28T08:11:41.757Z</time></trkpt><trkpt lat="44.4018033" lon="11.2750567"><ele>90.0</ele><time>2026-03-28T08:11:42.757Z</time></trkpt><trkpt lat="44.40186" lon="11.275005"><ele>90.0</ele><time>2026-03-28T08:11:43.757Z</time></trkpt><trkpt lat="44.40192" lon="11.2749567"><ele>90.0</ele><time>2026-03-28T08:11:44.757Z</time></trkpt><trkpt lat="44.4019767" lon="11.2749017"><ele>90.0</ele><time>2026-03-28T08:11:45.757Z</time></trkpt><trkpt lat="44.4020417" lon="11.2748483"><ele>90.0</ele><time>2026-03-28T08:11:46.757Z</time></trkpt><trkpt lat="44.4021033" lon="11.2747983"><ele>90.0</ele><time>2026-03-28T08:11:47.757Z</time></trkpt><trkpt lat="44.402165" lon="11.2747467"><ele>90.0</ele><time>2026-03-28T08:11:48.756Z</time></trkpt><trkpt lat="44.402225" lon="11.2746867"><ele>90.0</ele><time>2026-03-28T08:11:49.757Z</time></trkpt><trkpt lat="44.402285" lon="11.27464"><ele>90.0</ele><time>2026-03-28T08:11:50.757Z</time></trkpt><trkpt lat="44.4023483" lon="11.274595"><ele>90.0</ele><time>2026-03-28T08:11:51.757Z</time></trkpt><trkpt lat="44.4024033" lon="11.2745483"><ele>90.0</ele><time>2026-03-28T08:11:52.757Z</time></trkpt><trkpt lat="44.40246" lon="11.2745017"><ele>90.0</ele><time>2026-03-28T08:11:53.757Z</time></trkpt><trkpt lat="44.40252" lon="11.27445"><ele>90.0</ele><time>2026-03-28T08:11:54.757Z</time></trkpt><trkpt lat="44.402625" lon="11.27435"><ele>90.0</ele><time>2026-03-28T08:11:56.756Z</time></trkpt><trkpt lat="44.402685" lon="11.2743033"><ele>90.0</ele><time>2026-03-28T08:11:57.756Z</time></trkpt><trkpt lat="44.4027433" lon="11.2742567"><ele>90.0</ele><time>2026-03-28T08:11:58.757Z</time></trkpt><trkpt lat="44.4028033" lon="11.2742117"><ele>90.0</ele><time>2026-03-28T08:11:59.757Z</time></trkpt><trkpt lat="44.402865" lon="11.2741567"><ele>90.0</ele><time>2026-03-28T08:12:00.757Z</time></trkpt><trkpt lat="44.4029783" lon="11.27407"><ele>90.0</ele><time>2026-03-28T08:12:02.756Z</time></trkpt><trkpt lat="44.4030317" lon="11.2740233"><ele>90.0</ele><time>2026-03-28T08:12:03.757Z</time></trkpt><trkpt lat="44.4031417" lon="11.2739367"><ele>90.0</ele><time>2026-03-28T08:12:05.756Z</time></trkpt><trkpt lat="44.4032" lon="11.273895"><ele>90.0</ele><time>2026-03-28T08:12:06.757Z</time></trkpt><trkpt lat="44.4033117" lon="11.2738433"><ele>90.66666666666667</ele><time>2026-03-28T08:12:08.756Z</time></trkpt><trkpt lat="44.4034333" lon="11.2738167"><ele>91.33333333333333</ele><time>2026-03-28T08:12:10.757Z</time></trkpt><trkpt lat="44.403525" lon="11.2737867"><ele>92.0</ele><time>2026-03-28T08:12:12.757Z</time></trkpt><trkpt lat="44.4035933" lon="11.2737567"><ele>92.66666666666666</ele><time>2026-03-28T08:12:14.756Z</time></trkpt><trkpt lat="44.4036667" lon="11.2737283"><ele>93.33333333333333</ele><time>2026-03-28T08:12:16.757Z</time></trkpt><trkpt lat="44.4037367" lon="11.2736967"><ele>94.0</ele><time>2026-03-28T08:12:18.757Z</time></trkpt><trkpt lat="44.4037933" lon="11.2736483"><ele>94.57142857142857</ele><time>2026-03-28T08:12:20.756Z</time></trkpt><trkpt lat="44.4038533" lon="11.27358"><ele>95.14285714285714</ele><time>2026-03-28T08:12:22.756Z</time></trkpt><trkpt lat="44.4039183" lon="11.2735317"><ele>95.71428571428572</ele><time>2026-03-28T08:12:24.756Z</time></trkpt><trkpt lat="44.4039833" lon="11.2734783"><ele>96.28571428571428</ele><time>2026-03-28T08:12:26.757Z</time></trkpt><trkpt lat="44.40405" lon="11.27345"><ele>96.85714285714286</ele><time>2026-03-28T08:12:28.757Z</time></trkpt><trkpt lat="44.40412" lon="11.273435"><ele>97.42857142857143</ele><time>2026-03-28T08:12:30.757Z</time></trkpt><trkpt lat="44.40419" lon="11.2734233"><ele>98.0</ele><time>2026-03-28T08:12:32.756Z</time></trkpt><trkpt lat="44.4042583" lon="11.273415"><ele>98.0</ele><time>2026-03-28T08:12:34.756Z</time></trkpt><trkpt lat="44.4043217" lon="11.2734167"><ele>98.0</ele><time>2026-03-28T08:12:36.757Z</time></trkpt><trkpt lat="44.4043867" lon="11.27344"><ele>98.0</ele><time>2026-03-28T08:12:38.756Z</time></trkpt><trkpt lat="44.40445" lon="11.2734783"><ele>98.0</ele><time>2026-03-28T08:12:40.757Z</time></trkpt><trkpt lat="44.4045083" lon="11.2735267"><ele>98.0</ele><time>2026-03-28T08:12:42.757Z</time></trkpt><trkpt lat="44.404565" lon="11.2735717"><ele>98.0</ele><time>2026-03-28T08:12:44.757Z</time></trkpt><trkpt lat="44.404625" lon="11.2736267"><ele>98.0</ele><time>2026-03-28T08:12:46.757Z</time></trkpt><trkpt lat="44.4046733" lon="11.2736967"><ele>97.49999999999999</ele><time>2026-03-28T08:12:48.756Z</time></trkpt><trkpt lat="44.404735" lon="11.2738033"><ele>97.0</ele><time>2026-03-28T08:12:51.757Z</time></trkpt><trkpt lat="44.404795" lon="11.2739017"><ele>96.5</ele><time>2026-03-28T08:12:54.757Z</time></trkpt><trkpt lat="44.40486" lon="11.274"><ele>96.0</ele><time>2026-03-28T08:12:57.756Z</time></trkpt><trkpt lat="44.4049083" lon="11.2740667"><ele>95.5</ele><time>2026-03-28T08:12:59.757Z</time></trkpt><trkpt lat="44.4049633" lon="11.27413"><ele>95.0</ele><time>2026-03-28T08:13:01.756Z</time></trkpt><trkpt lat="44.4050233" lon="11.2741967"><ele>97.0</ele><time>2026-03-28T08:13:03.756Z</time></trkpt><trkpt lat="44.4050883" lon="11.274265"><ele>99.0</ele><time>2026-03-28T08:13:05.757Z</time></trkpt><trkpt lat="44.40514" lon="11.2743183"><ele>101.0</ele><time>2026-03-28T08:13:07.756Z</time></trkpt><trkpt lat="44.4051817" lon="11.2744017"><ele>103.0</ele><time>2026-03-28T08:13:09.757Z</time></trkpt><trkpt lat="44.4052167" lon="11.2744917"><ele>104.99999999999999</ele><time>2026-03-28T08:13:11.757Z</time></trkpt><trkpt lat="44.4052633" lon="11.2745983"><ele>107.0</ele><time>2026-03-28T08:13:13.757Z</time></trkpt><trkpt lat="44.405315" lon="11.2747117"><ele>107.0</ele><time>2026-03-28T08:13:15.756Z</time></trkpt><trkpt lat="44.4053617" lon="11.2748217"><ele>106.99999999999999</ele><time>2026-03-28T08:13:17.757Z</time></trkpt><trkpt lat="44.4054033" lon="11.2749367"><ele>106.99999999999999</ele><time>2026-03-28T08:13:19.757Z</time></trkpt><trkpt lat="44.4054683" lon="11.2750717"><ele>107.0</ele><time>2026-03-28T08:13:21.757Z</time></trkpt><trkpt lat="44.4055617" lon="11.2751767"><ele>107.0</ele><time>2026-03-28T08:13:23.757Z</time></trkpt><trkpt lat="44.40562" lon="11.2752133"><ele>107.0</ele><time>2026-03-28T08:13:24.757Z</time></trkpt><trkpt lat="44.4057417" lon="11.2752517"><ele>106.99999999999999</ele><time>2026-03-28T08:13:26.756Z</time></trkpt><trkpt lat="44.4058083" lon="11.2752567"><ele>106.99999999999999</ele><time>2026-03-28T08:13:27.757Z</time></trkpt><trkpt lat="44.4059217" lon="11.2752467"><ele>107.0</ele><time>2026-03-28T08:13:29.756Z</time></trkpt><trkpt lat="44.4060283" lon="11.2752133"><ele>107.0</ele><time>2026-03-28T08:13:31.757Z</time></trkpt><trkpt lat="44.4061267" lon="11.27518"><ele>107.0</ele><time>2026-03-28T08:13:33.756Z</time></trkpt><trkpt lat="44.4062367" lon="11.2751683"><ele>106.99999999999999</ele><time>2026-03-28T08:13:35.757Z</time></trkpt><trkpt lat="44.4063417" lon="11.2751683"><ele>106.99999999999999</ele><time>2026-03-28T08:13:37.757Z</time></trkpt><trkpt lat="44.40643" lon="11.27521"><ele>107.0</ele><time>2026-03-28T08:13:39.757Z</time></trkpt><trkpt lat="44.4064917" lon="11.2752817"><ele>107.0</ele><time>2026-03-28T08:13:41.757Z</time></trkpt><trkpt lat="44.406575" lon="11.2753417"><ele>105.39999999999999</ele><time>2026-03-28T08:13:43.757Z</time></trkpt><trkpt lat="44.406685" lon="11.2753717"><ele>103.79999999999998</ele><time>2026-03-28T08:13:45.757Z</time></trkpt><trkpt lat="44.4067883" lon="11.2753883"><ele>102.2</ele><time>2026-03-28T08:13:47.757Z</time></trkpt><trkpt lat="44.4068817" lon="11.2753967"><ele>100.6</ele><time>2026-03-28T08:13:49.758Z</time></trkpt><trkpt lat="44.4069733" lon="11.2754017"><ele>99.0</ele><time>2026-03-28T08:13:51.757Z</time></trkpt><trkpt lat="44.4070717" lon="11.275405"><ele>97.6</ele><time>2026-03-28T08:13:53.758Z</time></trkpt><trkpt lat="44.4071717" lon="11.27542"><ele>96.2</ele><time>2026-03-28T08:13:55.758Z</time></trkpt><trkpt lat="44.407265" lon="11.27544"><ele>94.8</ele><time>2026-03-28T08:13:57.758Z</time></trkpt><trkpt lat="44.4073567" lon="11.2754633"><ele>93.39999999999999</ele><time>2026-03-28T08:13:59.758Z</time></trkpt><trkpt lat="44.40745" lon="11.2754883"><ele>92.0</ele><time>2026-03-28T08:14:01.757Z</time></trkpt><trkpt lat="44.4075417" lon="11.2754917"><ele>92.0</ele><time>2026-03-28T08:14:03.758Z</time></trkpt><trkpt lat="44.4076417" lon="11.2755133"><ele>92.0</ele><time>2026-03-28T08:14:05.758Z</time></trkpt><trkpt lat="44.4077383" lon="11.2755367"><ele>92.0</ele><time>2026-03-28T08:14:07.758Z</time></trkpt><trkpt lat="44.40784" lon="11.27554"><ele>92.0</ele><time>2026-03-28T08:14:09.758Z</time></trkpt><trkpt lat="44.4079467" lon="11.275545"><ele>92.0</ele><time>2026-03-28T08:14:11.758Z</time></trkpt><trkpt lat="44.4080483" lon="11.2755533"><ele>92.0</ele><time>2026-03-28T08:14:13.758Z</time></trkpt><trkpt lat="44.40816" lon="11.2755717"><ele>92.0</ele><time>2026-03-28T08:14:15.758Z</time></trkpt><trkpt lat="44.408245" lon="11.275605"><ele>92.0</ele><time>2026-03-28T08:14:17.757Z</time></trkpt><trkpt lat="44.408345" lon="11.2756333"><ele>92.0</ele><time>2026-03-28T08:14:19.757Z</time></trkpt><trkpt lat="44.4084617" lon="11.2756683"><ele>92.0</ele><time>2026-03-28T08:14:21.758Z</time></trkpt><trkpt lat="44.4085783" lon="11.275715"><ele>92.57142857142857</ele><time>2026-03-28T08:14:23.757Z</time></trkpt><trkpt lat="44.4086383" lon="11.2757417"><ele>93.14285714285714</ele><time>2026-03-28T08:14:24.758Z</time></trkpt><trkpt lat="44.408705" lon="11.27576"><ele>93.71428571428571</ele><time>2026-03-28T08:14:25.758Z</time></trkpt><trkpt lat="44.4087783" lon="11.275765"><ele>94.28571428571428</ele><time>2026-03-28T08:14:26.758Z</time></trkpt><trkpt lat="44.4088417" lon="11.2757483"><ele>94.85714285714286</ele><time>2026-03-28T08:14:27.757Z</time></trkpt><trkpt lat="44.4089033" lon="11.2756967"><ele>95.42857142857142</ele><time>2026-03-28T08:14:28.758Z</time></trkpt><trkpt lat="44.4089517" lon="11.275625"><ele>96.0</ele><time>2026-03-28T08:14:29.758Z</time></trkpt><trkpt lat="44.408995" lon="11.2755367"><ele>96.0</ele><time>2026-03-28T08:14:30.757Z</time></trkpt><trkpt lat="44.4090317" lon="11.275445"><ele>96.0</ele><time>2026-03-28T08:14:31.757Z</time></trkpt><trkpt lat="44.4090683" lon="11.27535"><ele>96.0</ele><time>2026-03-28T08:14:32.757Z</time></trkpt><trkpt lat="44.4091083" lon="11.2752533"><ele>96.0</ele><time>2026-03-28T08:14:33.757Z</time></trkpt><trkpt lat="44.4091467" lon="11.2751567"><ele>96.0</ele><time>2026-03-28T08:14:34.757Z</time></trkpt><trkpt lat="44.4091817" lon="11.2750583"><ele>96.0</ele><time>2026-03-28T08:14:35.758Z</time></trkpt><trkpt lat="44.4092233" lon="11.274965"><ele>96.0</ele><time>2026-03-28T08:14:36.758Z</time></trkpt><trkpt lat="44.4092617" lon="11.27487"><ele>96.0</ele><time>2026-03-28T08:14:37.758Z</time></trkpt><trkpt lat="44.409305" lon="11.27478"><ele>96.0</ele><time>2026-03-28T08:14:38.758Z</time></trkpt><trkpt lat="44.4093533" lon="11.274705"><ele>96.0</ele><time>2026-03-28T08:14:39.758Z</time></trkpt><trkpt lat="44.40941" lon="11.2746233"><ele>96.0</ele><time>2026-03-28T08:14:40.757Z</time></trkpt><trkpt lat="44.409465" lon="11.2745533"><ele>96.0</ele><time>2026-03-28T08:14:41.758Z</time></trkpt><trkpt lat="44.40953" lon="11.2744783"><ele>96.66666666666667</ele><time>2026-03-28T08:14:42.758Z</time></trkpt><trkpt lat="44.4095883" lon="11.274415"><ele>97.33333333333334</ele><time>2026-03-28T08:14:43.758Z</time></trkpt><trkpt lat="44.4096467" lon="11.274345"><ele>98.0</ele><time>2026-03-28T08:14:44.757Z</time></trkpt><trkpt lat="44.4097083" lon="11.27427"><ele>98.66666666666667</ele><time>2026-03-28T08:14:45.758Z</time></trkpt><trkpt lat="44.40977" lon="11.2741983"><ele>99.33333333333334</ele><time>2026-03-28T08:14:46.758Z</time></trkpt><trkpt lat="44.409825" lon="11.274125"><ele>100.0</ele><time>2026-03-28T08:14:47.758Z</time></trkpt><trkpt lat="44.4098833" lon="11.274035"><ele>100.00000000000001</ele><time>2026-03-28T08:14:48.758Z</time></trkpt><trkpt lat="44.4099417" lon="11.2739583"><ele>100.0</ele><time>2026-03-28T08:14:49.758Z</time></trkpt><trkpt lat="44.4100117" lon="11.273895"><ele>100.0</ele><time>2026-03-28T08:14:50.758Z</time></trkpt><trkpt lat="44.41008" lon="11.2738617"><ele>100.0</ele><time>2026-03-28T08:14:51.758Z</time></trkpt><trkpt lat="44.4101533" lon="11.2738483"><ele>100.00000000000001</ele><time>2026-03-28T08:14:52.758Z</time></trkpt><trkpt lat="44.41024" lon="11.27387"><ele>100.0</ele><time>2026-03-28T08:14:53.757Z</time></trkpt><trkpt lat="44.41032" lon="11.2738967"><ele>100.16666666666667</ele><time>2026-03-28T08:14:54.757Z</time></trkpt><trkpt lat="44.4103967" lon="11.2739117"><ele>100.33333333333334</ele><time>2026-03-28T08:14:55.758Z</time></trkpt><trkpt lat="44.4104767" lon="11.2739183"><ele>100.5</ele><time>2026-03-28T08:14:56.758Z</time></trkpt><trkpt lat="44.41056" lon="11.273935"><ele>100.66666666666666</ele><time>2026-03-28T08:14:57.757Z</time></trkpt><trkpt lat="44.4106483" lon="11.2739367"><ele>100.83333333333333</ele><time>2026-03-28T08:14:58.758Z</time></trkpt><trkpt lat="44.4107383" lon="11.2739383"><ele>101.0</ele><time>2026-03-28T08:14:59.758Z</time></trkpt><trkpt lat="44.4108217" lon="11.2739433"><ele>100.99999999999999</ele><time>2026-03-28T08:15:00.758Z</time></trkpt><trkpt lat="44.4108983" lon="11.2739533"><ele>101.0</ele><time>2026-03-28T08:15:01.758Z</time></trkpt><trkpt lat="44.41098" lon="11.2739617"><ele>101.0</ele><time>2026-03-28T08:15:02.758Z</time></trkpt><trkpt lat="44.4110567" lon="11.27396"><ele>101.0</ele><time>2026-03-28T08:15:03.758Z</time></trkpt><trkpt lat="44.4111367" lon="11.2739617"><ele>100.99999999999999</ele><time>2026-03-28T08:15:04.758Z</time></trkpt><trkpt lat="44.4112133" lon="11.2739667"><ele>101.0</ele><time>2026-03-28T08:15:05.758Z</time></trkpt><trkpt lat="44.41129" lon="11.2739767"><ele>101.0</ele><time>2026-03-28T08:15:06.758Z</time></trkpt><trkpt lat="44.411365" lon="11.2739867"><ele>101.0</ele><time>2026-03-28T08:15:07.758Z</time></trkpt><trkpt lat="44.4114367" lon="11.2739933"><ele>101.0</ele><time>2026-03-28T08:15:08.758Z</time></trkpt><trkpt lat="44.4115117" lon="11.274005"><ele>101.0</ele><time>2026-03-28T08:15:09.758Z</time></trkpt><trkpt lat="44.41158" lon="11.2740067"><ele>101.0</ele><time>2026-03-28T08:15:10.758Z</time></trkpt><trkpt lat="44.4116517" lon="11.2740017"><ele>101.0</ele><time>2026-03-28T08:15:11.758Z</time></trkpt><trkpt lat="44.4117233" lon="11.2740017"><ele>101.0</ele><time>2026-03-28T08:15:12.758Z</time></trkpt><trkpt lat="44.41179" lon="11.2740067"><ele>101.0</ele><time>2026-03-28T08:15:13.758Z</time></trkpt><trkpt lat="44.4119067" lon="11.2740367"><ele>101.0</ele><time>2026-03-28T08:15:15.758Z</time></trkpt><trkpt lat="44.41197" lon="11.2740417"><ele>101.0</ele><time>2026-03-28T08:15:16.757Z</time></trkpt><trkpt lat="44.41209" lon="11.2740517"><ele>101.0</ele><time>2026-03-28T08:15:18.758Z</time></trkpt><trkpt lat="44.412195" lon="11.2740633"><ele>101.0</ele><time>2026-03-28T08:15:20.758Z</time></trkpt><trkpt lat="44.41229" lon="11.27408"><ele>100.8</ele><time>2026-03-28T08:15:22.758Z</time></trkpt><trkpt lat="44.412395" lon="11.27406"><ele>100.6</ele><time>2026-03-28T08:15:24.757Z</time></trkpt><trkpt lat="44.41251" lon="11.27399"><ele>100.4</ele><time>2026-03-28T08:15:26.757Z</time></trkpt><trkpt lat="44.4125767" lon="11.2739533"><ele>100.2</ele><time>2026-03-28T08:15:27.758Z</time></trkpt><trkpt lat="44.4126417" lon="11.2739117"><ele>100.0</ele><time>2026-03-28T08:15:28.758Z</time></trkpt><trkpt lat="44.412715" lon="11.2738767"><ele>99.33333333333334</ele><time>2026-03-28T08:15:29.758Z</time></trkpt><trkpt lat="44.4127933" lon="11.2738433"><ele>98.66666666666667</ele><time>2026-03-28T08:15:30.758Z</time></trkpt><trkpt lat="44.412875" lon="11.2738083"><ele>98.0</ele><time>2026-03-28T08:15:31.758Z</time></trkpt><trkpt lat="44.4129533" lon="11.273775"><ele>97.33333333333334</ele><time>2026-03-28T08:15:32.758Z</time></trkpt><trkpt lat="44.4130317" lon="11.2737317"><ele>96.66666666666667</ele><time>2026-03-28T08:15:33.757Z</time></trkpt><trkpt lat="44.4131067" lon="11.2736917"><ele>96.0</ele><time>2026-03-28T08:15:34.758Z</time></trkpt><trkpt lat="44.4131833" lon="11.273635"><ele>95.66666666666667</ele><time>2026-03-28T08:15:35.757Z</time></trkpt><trkpt lat="44.4132533" lon="11.2735633"><ele>95.33333333333333</ele><time>2026-03-28T08:15:36.758Z</time></trkpt><trkpt lat="44.4133033" lon="11.2734683"><ele>95.0</ele><time>2026-03-28T08:15:37.758Z</time></trkpt><trkpt lat="44.4133333" lon="11.2733467"><ele>94.66666666666666</ele><time>2026-03-28T08:15:38.757Z</time></trkpt><trkpt lat="44.41336" lon="11.2732283"><ele>94.33333333333333</ele><time>2026-03-28T08:15:39.758Z</time></trkpt><trkpt lat="44.4133833" lon="11.2731067"><ele>94.0</ele><time>2026-03-28T08:15:40.758Z</time></trkpt><trkpt lat="44.4134083" lon="11.2729883"><ele>93.83333333333333</ele><time>2026-03-28T08:15:41.758Z</time></trkpt><trkpt lat="44.4134417" lon="11.272865"><ele>93.66666666666666</ele><time>2026-03-28T08:15:42.758Z</time></trkpt><trkpt lat="44.4134717" lon="11.272745"><ele>93.5</ele><time>2026-03-28T08:15:43.758Z</time></trkpt><trkpt lat="44.4134967" lon="11.2726317"><ele>93.33333333333333</ele><time>2026-03-28T08:15:44.757Z</time></trkpt><trkpt lat="44.4135217" lon="11.2725183"><ele>93.16666666666667</ele><time>2026-03-28T08:15:45.758Z</time></trkpt><trkpt lat="44.413545" lon="11.2724233"><ele>93.0</ele><time>2026-03-28T08:15:46.758Z</time></trkpt><trkpt lat="44.4135933" lon="11.27235"><ele>93.0</ele><time>2026-03-28T08:15:47.758Z</time></trkpt><trkpt lat="44.4136933" lon="11.2723083"><ele>93.0</ele><time>2026-03-28T08:15:49.757Z</time></trkpt><trkpt lat="44.4138067" lon="11.272365"><ele>93.0</ele><time>2026-03-28T08:15:51.757Z</time></trkpt><trkpt lat="44.4139233" lon="11.272425"><ele>93.0</ele><time>2026-03-28T08:15:53.757Z</time></trkpt><trkpt lat="44.4139817" lon="11.272465"><ele>93.0</ele><time>2026-03-28T08:15:54.758Z</time></trkpt><trkpt lat="44.4140417" lon="11.2724967"><ele>91.80000000000001</ele><time>2026-03-28T08:15:55.758Z</time></trkpt><trkpt lat="44.4141533" lon="11.2725667"><ele>90.6</ele><time>2026-03-28T08:15:57.758Z</time></trkpt><trkpt lat="44.4142117" lon="11.2726"><ele>89.4</ele><time>2026-03-28T08:15:58.758Z</time></trkpt><trkpt lat="44.41433" lon="11.2726633"><ele>88.19999999999999</ele><time>2026-03-28T08:16:00.758Z</time></trkpt><trkpt lat="44.414455" lon="11.2727267"><ele>87.0</ele><time>2026-03-28T08:16:02.758Z</time></trkpt><trkpt lat="44.41452" lon="11.2727483"><ele>87.0</ele><time>2026-03-28T08:16:03.758Z</time></trkpt><trkpt lat="44.4145833" lon="11.2727783"><ele>87.0</ele><time>2026-03-28T08:16:04.758Z</time></trkpt><trkpt lat="44.4146483" lon="11.2727983"><ele>87.0</ele><time>2026-03-28T08:16:05.758Z</time></trkpt><trkpt lat="44.4147533" lon="11.272815"><ele>87.0</ele><time>2026-03-28T08:16:07.758Z</time></trkpt><trkpt lat="44.41483" lon="11.2728033"><ele>87.0</ele><time>2026-03-28T08:16:09.758Z</time></trkpt><trkpt lat="44.41492" lon="11.27274"><ele>87.0</ele><time>2026-03-28T08:16:12.758Z</time></trkpt><trkpt lat="44.414995" lon="11.2726883"><ele>86.5</ele><time>2026-03-28T08:16:14.758Z</time></trkpt><trkpt lat="44.4150533" lon="11.2726317"><ele>86.0</ele><time>2026-03-28T08:16:16.757Z</time></trkpt><trkpt lat="44.4151283" lon="11.2725733"><ele>85.5</ele><time>2026-03-28T08:16:18.758Z</time></trkpt><trkpt lat="44.415195" lon="11.2725133"><ele>85.0</ele><time>2026-03-28T08:16:20.758Z</time></trkpt><trkpt lat="44.415265" lon="11.2724683"><ele>84.5</ele><time>2026-03-28T08:16:22.758Z</time></trkpt><trkpt lat="44.415335" lon="11.2724167"><ele>84.0</ele><time>2026-03-28T08:16:24.758Z</time></trkpt><trkpt lat="44.4154133" lon="11.2723567"><ele>84.0</ele><time>2026-03-28T08:16:26.758Z</time></trkpt><trkpt lat="44.4154917" lon="11.2722883"><ele>84.0</ele><time>2026-03-28T08:16:28.758Z</time></trkpt><trkpt lat="44.415575" lon="11.27222"><ele>84.0</ele><time>2026-03-28T08:16:30.758Z</time></trkpt><trkpt lat="44.4156517" lon="11.27217"><ele>84.0</ele><time>2026-03-28T08:16:32.758Z</time></trkpt><trkpt lat="44.4157267" lon="11.2721083"><ele>84.0</ele><time>2026-03-28T08:16:34.757Z</time></trkpt><trkpt lat="44.41579" lon="11.2720467"><ele>84.0</ele><time>2026-03-28T08:16:36.758Z</time></trkpt><trkpt lat="44.4158567" lon="11.2719967"><ele>84.2</ele><time>2026-03-28T08:16:38.758Z</time></trkpt><trkpt lat="44.4159367" lon="11.271945"><ele>84.4</ele><time>2026-03-28T08:16:40.757Z</time></trkpt><trkpt lat="44.4160083" lon="11.2718817"><ele>84.6</ele><time>2026-03-28T08:16:42.757Z</time></trkpt><trkpt lat="44.416085" lon="11.2718167"><ele>84.8</ele><time>2026-03-28T08:16:44.757Z</time></trkpt><trkpt lat="44.416175" lon="11.2717617"><ele>85.0</ele><time>2026-03-28T08:16:46.758Z</time></trkpt><trkpt lat="44.416255" lon="11.271705"><ele>85.0</ele><time>2026-03-28T08:16:48.758Z</time></trkpt><trkpt lat="44.416335" lon="11.2716417"><ele>85.0</ele><time>2026-03-28T08:16:50.758Z</time></trkpt><trkpt lat="44.416405" lon="11.2715917"><ele>85.0</ele><time>2026-03-28T08:16:52.758Z</time></trkpt><trkpt lat="44.41647" lon="11.2715417"><ele>85.0</ele><time>2026-03-28T08:16:54.758Z</time></trkpt><trkpt lat="44.4165233" lon="11.2714867"><ele>85.0</ele><time>2026-03-28T08:16:56.758Z</time></trkpt><trkpt lat="44.4165933" lon="11.2714333"><ele>85.0</ele><time>2026-03-28T08:16:59.757Z</time></trkpt><trkpt lat="44.4166683" lon="11.2714017"><ele>85.16666666666666</ele><time>2026-03-28T08:17:03.758Z</time></trkpt><trkpt lat="44.4167383" lon="11.2713583"><ele>85.33333333333333</ele><time>2026-03-28T08:17:06.758Z</time></trkpt><trkpt lat="44.4167767" lon="11.2712533"><ele>85.5</ele><time>2026-03-28T08:17:09.757Z</time></trkpt><trkpt lat="44.4167367" lon="11.2711567"><ele>85.66666666666667</ele><time>2026-03-28T08:17:11.758Z</time></trkpt><trkpt lat="44.416685" lon="11.2710567"><ele>85.83333333333334</ele><time>2026-03-28T08:17:13.759Z</time></trkpt><trkpt lat="44.41664" lon="11.2709567"><ele>86.0</ele><time>2026-03-28T08:17:15.759Z</time></trkpt><trkpt lat="44.4165983" lon="11.2708417"><ele>86.0</ele><time>2026-03-28T08:17:17.759Z</time></trkpt><trkpt lat="44.4165567" lon="11.2707283"><ele>86.0</ele><time>2026-03-28T08:17:19.758Z</time></trkpt><trkpt lat="44.41651" lon="11.2706067"><ele>86.0</ele><time>2026-03-28T08:17:21.758Z</time></trkpt><trkpt lat="44.41646" lon="11.270495"><ele>86.0</ele><time>2026-03-28T08:17:23.759Z</time></trkpt><trkpt lat="44.4164" lon="11.2703817"><ele>86.0</ele><time>2026-03-28T08:17:25.759Z</time></trkpt><trkpt lat="44.416355" lon="11.27026"><ele>86.19999999999999</ele><time>2026-03-28T08:17:27.759Z</time></trkpt><trkpt lat="44.4163" lon="11.2701417"><ele>86.39999999999999</ele><time>2026-03-28T08:17:29.759Z</time></trkpt><trkpt lat="44.4162483" lon="11.2700133"><ele>86.6</ele><time>2026-03-28T08:17:31.759Z</time></trkpt><trkpt lat="44.416195" lon="11.2698917"><ele>86.8</ele><time>2026-03-28T08:17:33.758Z</time></trkpt><trkpt lat="44.4161433" lon="11.269775"><ele>87.0</ele><time>2026-03-28T08:17:35.758Z</time></trkpt><trkpt lat="44.4160883" lon="11.269665"><ele>87.39999999999999</ele><time>2026-03-28T08:17:37.759Z</time></trkpt><trkpt lat="44.4160267" lon="11.2695133"><ele>87.8</ele><time>2026-03-28T08:17:40.758Z</time></trkpt><trkpt lat="44.4159667" lon="11.2694"><ele>88.2</ele><time>2026-03-28T08:17:42.759Z</time></trkpt><trkpt lat="44.415915" lon="11.2692717"><ele>88.6</ele><time>2026-03-28T08:17:44.758Z</time></trkpt><trkpt lat="44.4158633" lon="11.2691367"><ele>89.0</ele><time>2026-03-28T08:17:46.758Z</time></trkpt><trkpt lat="44.41583" lon="11.268965"><ele>89.28571428571428</ele><time>2026-03-28T08:17:48.759Z</time></trkpt><trkpt lat="44.4158217" lon="11.2688683"><ele>89.57142857142857</ele><time>2026-03-28T08:17:49.759Z</time></trkpt><trkpt lat="44.4158167" lon="11.2687717"><ele>89.85714285714286</ele><time>2026-03-28T08:17:50.759Z</time></trkpt><trkpt lat="44.4158267" lon="11.2686833"><ele>90.14285714285714</ele><time>2026-03-28T08:17:51.758Z</time></trkpt><trkpt lat="44.41583" lon="11.2685783"><ele>90.42857142857143</ele><time>2026-03-28T08:17:52.759Z</time></trkpt><trkpt lat="44.4158517" lon="11.2684933"><ele>90.71428571428571</ele><time>2026-03-28T08:17:53.758Z</time></trkpt><trkpt lat="44.415865" lon="11.268405"><ele>91.0</ele><time>2026-03-28T08:17:54.759Z</time></trkpt><trkpt lat="44.4158817" lon="11.2683133"><ele>91.0</ele><time>2026-03-28T08:17:55.759Z</time></trkpt><trkpt lat="44.4159317" lon="11.2681667"><ele>91.0</ele><time>2026-03-28T08:17:57.759Z</time></trkpt><trkpt lat="44.4159317" lon="11.26805"><ele>91.0</ele><time>2026-03-28T08:17:58.759Z</time></trkpt><trkpt lat="44.4159483" lon="11.267935"><ele>91.0</ele><time>2026-03-28T08:17:59.758Z</time></trkpt><trkpt lat="44.4159283" lon="11.2678117"><ele>91.0</ele><time>2026-03-28T08:18:00.759Z</time></trkpt><trkpt lat="44.4159283" lon="11.26771"><ele>91.0</ele><time>2026-03-28T08:18:01.759Z</time></trkpt><trkpt lat="44.4159267" lon="11.2675367"><ele>91.4</ele><time>2026-03-28T08:18:03.758Z</time></trkpt><trkpt lat="44.4159217" lon="11.2674467"><ele>91.8</ele><time>2026-03-28T08:18:04.759Z</time></trkpt><trkpt lat="44.41593" lon="11.2672883"><ele>92.2</ele><time>2026-03-28T08:18:06.759Z</time></trkpt><trkpt lat="44.4159633" lon="11.26714"><ele>92.60000000000001</ele><time>2026-03-28T08:18:08.758Z</time></trkpt><trkpt lat="44.4160233" lon="11.26704"><ele>93.0</ele><time>2026-03-28T08:18:10.759Z</time></trkpt><trkpt lat="44.4161067" lon="11.2669767"><ele>93.0</ele><time>2026-03-28T08:18:12.758Z</time></trkpt><trkpt lat="44.4161917" lon="11.2669367"><ele>93.0</ele><time>2026-03-28T08:18:14.758Z</time></trkpt><trkpt lat="44.4162717" lon="11.26688"><ele>93.0</ele><time>2026-03-28T08:18:16.759Z</time></trkpt><trkpt lat="44.4163367" lon="11.2668383"><ele>93.0</ele><time>2026-03-28T08:18:18.759Z</time></trkpt><trkpt lat="44.4163967" lon="11.2667983"><ele>93.0</ele><time>2026-03-28T08:18:20.758Z</time></trkpt><trkpt lat="44.4165017" lon="11.2667583"><ele>93.0</ele><time>2026-03-28T08:18:23.758Z</time></trkpt><trkpt lat="44.4165583" lon="11.2667133"><ele>93.42857142857143</ele><time>2026-03-28T08:18:25.758Z</time></trkpt><trkpt lat="44.4166217" lon="11.266665"><ele>93.85714285714286</ele><time>2026-03-28T08:18:27.759Z</time></trkpt><trkpt lat="44.41668" lon="11.2666267"><ele>94.28571428571428</ele><time>2026-03-28T08:18:29.759Z</time></trkpt><trkpt lat="44.416735" lon="11.266575"><ele>94.71428571428572</ele><time>2026-03-28T08:18:31.758Z</time></trkpt><trkpt lat="44.416785" lon="11.2665067"><ele>95.14285714285714</ele><time>2026-03-28T08:18:33.758Z</time></trkpt><trkpt lat="44.416835" lon="11.2664417"><ele>95.57142857142857</ele><time>2026-03-28T08:18:35.758Z</time></trkpt><trkpt lat="44.4168833" lon="11.266385"><ele>96.0</ele><time>2026-03-28T08:18:37.759Z</time></trkpt><trkpt lat="44.416925" lon="11.2663133"><ele>96.85714285714285</ele><time>2026-03-28T08:18:39.759Z</time></trkpt><trkpt lat="44.4169883" lon="11.2662317"><ele>97.71428571428571</ele><time>2026-03-28T08:18:42.759Z</time></trkpt><trkpt lat="44.41705" lon="11.2661467"><ele>98.57142857142857</ele><time>2026-03-28T08:18:45.758Z</time></trkpt><trkpt lat="44.4170983" lon="11.2660867"><ele>99.42857142857142</ele><time>2026-03-28T08:18:47.759Z</time></trkpt><trkpt lat="44.4171467" lon="11.266025"><ele>100.28571428571429</ele><time>2026-03-28T08:18:49.759Z</time></trkpt><trkpt lat="44.4171917" lon="11.2659617"><ele>101.14285714285714</ele><time>2026-03-28T08:18:51.759Z</time></trkpt><trkpt lat="44.4172467" lon="11.2659067"><ele>102.0</ele><time>2026-03-28T08:18:53.759Z</time></trkpt><trkpt lat="44.417325" lon="11.2658283"><ele>102.5</ele><time>2026-03-28T08:18:56.758Z</time></trkpt><trkpt lat="44.4173833" lon="11.265735"><ele>103.0</ele><time>2026-03-28T08:18:59.758Z</time></trkpt><trkpt lat="44.4174267" lon="11.26561"><ele>103.5</ele><time>2026-03-28T08:19:02.758Z</time></trkpt><trkpt lat="44.4174567" lon="11.2655317"><ele>104.0</ele><time>2026-03-28T08:19:04.759Z</time></trkpt><trkpt lat="44.41749" lon="11.2654433"><ele>104.5</ele><time>2026-03-28T08:19:06.758Z</time></trkpt><trkpt lat="44.41754" lon="11.2653417"><ele>105.0</ele><time>2026-03-28T08:19:09.759Z</time></trkpt><trkpt lat="44.4175733" lon="11.2652583"><ele>105.57142857142857</ele><time>2026-03-28T08:19:11.758Z</time></trkpt><trkpt lat="44.417595" lon="11.2651733"><ele>106.14285714285714</ele><time>2026-03-28T08:19:13.759Z</time></trkpt><trkpt lat="44.4176267" lon="11.2650667"><ele>106.71428571428572</ele><time>2026-03-28T08:19:16.759Z</time></trkpt><trkpt lat="44.4176433" lon="11.2649717"><ele>107.28571428571428</ele><time>2026-03-28T08:19:18.759Z</time></trkpt><trkpt lat="44.4176633" lon="11.264885"><ele>107.85714285714286</ele><time>2026-03-28T08:19:20.759Z</time></trkpt><trkpt lat="44.4176883" lon="11.2648017"><ele>108.42857142857143</ele><time>2026-03-28T08:19:22.758Z</time></trkpt><trkpt lat="44.41773" lon="11.2646917"><ele>109.0</ele><time>2026-03-28T08:19:25.759Z</time></trkpt><trkpt lat="44.4177783" lon="11.2645783"><ele>109.0</ele><time>2026-03-28T08:19:28.758Z</time></trkpt><trkpt lat="44.4178167" lon="11.2645"><ele>109.0</ele><time>2026-03-28T08:19:30.759Z</time></trkpt><trkpt lat="44.4178517" lon="11.26442"><ele>109.0</ele><time>2026-03-28T08:19:32.759Z</time></trkpt><trkpt lat="44.4178883" lon="11.2643117"><ele>109.0</ele><time>2026-03-28T08:19:34.759Z</time></trkpt><trkpt lat="44.417925" lon="11.264215"><ele>109.0</ele><time>2026-03-28T08:19:36.759Z</time></trkpt><trkpt lat="44.4179667" lon="11.2641267"><ele>109.0</ele><time>2026-03-28T08:19:38.759Z</time></trkpt><trkpt lat="44.418" lon="11.2640383"><ele>109.0</ele><time>2026-03-28T08:19:40.759Z</time></trkpt><trkpt lat="44.4180517" lon="11.2639533"><ele>109.33333333333334</ele><time>2026-03-28T08:19:42.759Z</time></trkpt><trkpt lat="44.418085" lon="11.2638533"><ele>109.66666666666667</ele><time>2026-03-28T08:19:44.758Z</time></trkpt><trkpt lat="44.418135" lon="11.2637467"><ele>110.0</ele><time>2026-03-28T08:19:46.759Z</time></trkpt><trkpt lat="44.418185" lon="11.26365"><ele>110.33333333333334</ele><time>2026-03-28T08:19:48.759Z</time></trkpt><trkpt lat="44.4182333" lon="11.2635467"><ele>110.66666666666667</ele><time>2026-03-28T08:19:50.759Z</time></trkpt><trkpt lat="44.4182833" lon="11.2634533"><ele>111.0</ele><time>2026-03-28T08:19:52.759Z</time></trkpt><trkpt lat="44.418325" lon="11.2633283"><ele>111.0</ele><time>2026-03-28T08:19:54.759Z</time></trkpt><trkpt lat="44.4183783" lon="11.2632083"><ele>111.0</ele><time>2026-03-28T08:19:56.759Z</time></trkpt><trkpt lat="44.4184283" lon="11.263105"><ele>111.0</ele><time>2026-03-28T08:19:58.758Z</time></trkpt><trkpt lat="44.4184833" lon="11.262995"><ele>111.0</ele><time>2026-03-28T08:20:00.759Z</time></trkpt><trkpt lat="44.4185267" lon="11.2628883"><ele>111.0</ele><time>2026-03-28T08:20:02.759Z</time></trkpt><trkpt lat="44.4185767" lon="11.2627833"><ele>111.16666666666667</ele><time>2026-03-28T08:20:04.759Z</time></trkpt><trkpt lat="44.4186267" lon="11.262675"><ele>111.33333333333334</ele><time>2026-03-28T08:20:06.759Z</time></trkpt><trkpt lat="44.4186767" lon="11.2625933"><ele>111.5</ele><time>2026-03-28T08:20:08.759Z</time></trkpt><trkpt lat="44.41873" lon="11.2625117"><ele>111.66666666666667</ele><time>2026-03-28T08:20:10.759Z</time></trkpt><trkpt lat="44.4187867" lon="11.2624183"><ele>111.83333333333334</ele><time>2026-03-28T08:20:12.758Z</time></trkpt><trkpt lat="44.4188467" lon="11.2623233"><ele>112.0</ele><time>2026-03-28T08:20:14.758Z</time></trkpt><trkpt lat="44.4189067" lon="11.2622317"><ele>112.50000000000001</ele><time>2026-03-28T08:20:16.759Z</time></trkpt><trkpt lat="44.4189533" lon="11.2621283"><ele>113.0</ele><time>2026-03-28T08:20:18.759Z</time></trkpt><trkpt lat="44.4189967" lon="11.26202"><ele>113.5</ele><time>2026-03-28T08:20:20.758Z</time></trkpt><trkpt lat="44.4190233" lon="11.2618967"><ele>114.0</ele><time>2026-03-28T08:20:22.759Z</time></trkpt><trkpt lat="44.419055" lon="11.2617833"><ele>114.50000000000001</ele><time>2026-03-28T08:20:24.758Z</time></trkpt><trkpt lat="44.419085" lon="11.2616767"><ele>115.0</ele><time>2026-03-28T08:20:26.758Z</time></trkpt><trkpt lat="44.41911" lon="11.261575"><ele>115.00000000000001</ele><time>2026-03-28T08:20:28.759Z</time></trkpt><trkpt lat="44.419155" lon="11.261455"><ele>115.0</ele><time>2026-03-28T08:20:31.759Z</time></trkpt><trkpt lat="44.419175" lon="11.261355"><ele>115.0</ele><time>2026-03-28T08:20:33.758Z</time></trkpt><trkpt lat="44.4192033" lon="11.261275"><ele>115.0</ele><time>2026-03-28T08:20:35.758Z</time></trkpt><trkpt lat="44.4192333" lon="11.2611833"><ele>115.00000000000001</ele><time>2026-03-28T08:20:37.758Z</time></trkpt><trkpt lat="44.4192567" lon="11.2610967"><ele>115.0</ele><time>2026-03-28T08:20:39.759Z</time></trkpt><trkpt lat="44.419305" lon="11.2609467"><ele>115.16666666666667</ele><time>2026-03-28T08:20:47.758Z</time></trkpt><trkpt lat="44.419275" lon="11.2608433"><ele>115.33333333333334</ele><time>2026-03-28T08:20:49.759Z</time></trkpt><trkpt lat="44.4192067" lon="11.2607733"><ele>115.5</ele><time>2026-03-28T08:20:51.759Z</time></trkpt><trkpt lat="44.4191417" lon="11.260715"><ele>115.66666666666666</ele><time>2026-03-28T08:20:53.759Z</time></trkpt><trkpt lat="44.41907" lon="11.2606667"><ele>115.83333333333333</ele><time>2026-03-28T08:20:55.759Z</time></trkpt><trkpt lat="44.4189883" lon="11.2606233"><ele>116.0</ele><time>2026-03-28T08:20:57.759Z</time></trkpt><trkpt lat="44.4188967" lon="11.2605783"><ele>116.33333333333333</ele><time>2026-03-28T08:20:59.76Z</time></trkpt><trkpt lat="44.4188183" lon="11.2605233"><ele>116.66666666666666</ele><time>2026-03-28T08:21:01.76Z</time></trkpt><trkpt lat="44.4187383" lon="11.26048"><ele>117.0</ele><time>2026-03-28T08:21:03.759Z</time></trkpt><trkpt lat="44.418665" lon="11.2604267"><ele>117.33333333333334</ele><time>2026-03-28T08:21:05.76Z</time></trkpt><trkpt lat="44.4185833" lon="11.2603883"><ele>117.66666666666667</ele><time>2026-03-28T08:21:07.76Z</time></trkpt><trkpt lat="44.4185133" lon="11.260335"><ele>118.0</ele><time>2026-03-28T08:21:09.76Z</time></trkpt><trkpt lat="44.4184417" lon="11.260285"><ele>119.00000000000001</ele><time>2026-03-28T08:21:11.76Z</time></trkpt><trkpt lat="44.418365" lon="11.2602383"><ele>120.0</ele><time>2026-03-28T08:21:13.76Z</time></trkpt><trkpt lat="44.41829" lon="11.2601883"><ele>121.0</ele><time>2026-03-28T08:21:15.76Z</time></trkpt><trkpt lat="44.418215" lon="11.2601383"><ele>122.0</ele><time>2026-03-28T08:21:17.76Z</time></trkpt><trkpt lat="44.4181317" lon="11.2600983"><ele>123.00000000000001</ele><time>2026-03-28T08:21:19.76Z</time></trkpt><trkpt lat="44.41806" lon="11.26004"><ele>124.0</ele><time>2026-03-28T08:21:21.759Z</time></trkpt><trkpt lat="44.417985" lon="11.2599817"><ele>124.0</ele><time>2026-03-28T08:21:23.76Z</time></trkpt><trkpt lat="44.4179017" lon="11.2599483"><ele>124.0</ele><time>2026-03-28T08:21:25.759Z</time></trkpt><trkpt lat="44.4178083" lon="11.259905"><ele>124.0</ele><time>2026-03-28T08:21:27.76Z</time></trkpt><trkpt lat="44.4177167" lon="11.2598683"><ele>124.0</ele><time>2026-03-28T08:21:29.759Z</time></trkpt><trkpt lat="44.4176317" lon="11.2598133"><ele>124.0</ele><time>2026-03-28T08:21:31.76Z</time></trkpt><trkpt lat="44.4175433" lon="11.25976"><ele>124.2</ele><time>2026-03-28T08:21:33.76Z</time></trkpt><trkpt lat="44.417455" lon="11.2597"><ele>124.4</ele><time>2026-03-28T08:21:35.76Z</time></trkpt><trkpt lat="44.41738" lon="11.2596417"><ele>124.6</ele><time>2026-03-28T08:21:37.76Z</time></trkpt><trkpt lat="44.4172917" lon="11.25958"><ele>124.8</ele><time>2026-03-28T08:21:39.76Z</time></trkpt><trkpt lat="44.4171967" lon="11.2595317"><ele>125.0</ele><time>2026-03-28T08:21:41.76Z</time></trkpt><trkpt lat="44.4171" lon="11.25948"><ele>124.0</ele><time>2026-03-28T08:21:43.76Z</time></trkpt><trkpt lat="44.417" lon="11.259425"><ele>123.0</ele><time>2026-03-28T08:21:45.759Z</time></trkpt><trkpt lat="44.4168917" lon="11.2593717"><ele>122.0</ele><time>2026-03-28T08:21:47.759Z</time></trkpt><trkpt lat="44.416775" lon="11.259315"><ele>121.0</ele><time>2026-03-28T08:21:49.76Z</time></trkpt><trkpt lat="44.4166617" lon="11.2592583"><ele>121.0</ele><time>2026-03-28T08:21:51.759Z</time></trkpt><trkpt lat="44.4165483" lon="11.2592183"><ele>121.0</ele><time>2026-03-28T08:21:53.76Z</time></trkpt><trkpt lat="44.4164383" lon="11.25917"><ele>121.0</ele><time>2026-03-28T08:21:55.76Z</time></trkpt><trkpt lat="44.4163167" lon="11.2591317"><ele>121.0</ele><time>2026-03-28T08:21:57.759Z</time></trkpt><trkpt lat="44.4161933" lon="11.2590817"><ele>121.16666666666667</ele><time>2026-03-28T08:21:59.76Z</time></trkpt><trkpt lat="44.4161233" lon="11.25906"><ele>121.33333333333334</ele><time>2026-03-28T08:22:00.76Z</time></trkpt><trkpt lat="44.4160617" lon="11.25903"><ele>121.5</ele><time>2026-03-28T08:22:01.76Z</time></trkpt><trkpt lat="44.416" lon="11.2590017"><ele>121.66666666666666</ele><time>2026-03-28T08:22:02.759Z</time></trkpt><trkpt lat="44.4158717" lon="11.2589617"><ele>121.83333333333333</ele><time>2026-03-28T08:22:04.759Z</time></trkpt><trkpt lat="44.415805" lon="11.2589317"><ele>122.0</ele><time>2026-03-28T08:22:05.76Z</time></trkpt><trkpt lat="44.4157417" lon="11.258915"><ele>121.99999999999999</ele><time>2026-03-28T08:22:06.76Z</time></trkpt><trkpt lat="44.4156733" lon="11.25889"><ele>122.0</ele><time>2026-03-28T08:22:07.76Z</time></trkpt><trkpt lat="44.41561" lon="11.258875"><ele>122.0</ele><time>2026-03-28T08:22:08.76Z</time></trkpt><trkpt lat="44.4155433" lon="11.25885"><ele>122.0</ele><time>2026-03-28T08:22:09.76Z</time></trkpt><trkpt lat="44.4154833" lon="11.2588233"><ele>121.99999999999999</ele><time>2026-03-28T08:22:10.76Z</time></trkpt><trkpt lat="44.4153633" lon="11.2587733"><ele>122.0</ele><time>2026-03-28T08:22:12.76Z</time></trkpt><trkpt lat="44.4152983" lon="11.25875"><ele>121.85714285714283</ele><time>2026-03-28T08:22:13.759Z</time></trkpt><trkpt lat="44.415235" lon="11.258725"><ele>121.71428571428571</ele><time>2026-03-28T08:22:14.76Z</time></trkpt><trkpt lat="44.4151717" lon="11.2586967"><ele>121.57142857142856</ele><time>2026-03-28T08:22:15.76Z</time></trkpt><trkpt lat="44.4151067" lon="11.2586717"><ele>121.42857142857142</ele><time>2026-03-28T08:22:16.76Z</time></trkpt><trkpt lat="44.4150417" lon="11.2586517"><ele>121.28571428571428</ele><time>2026-03-28T08:22:17.759Z</time></trkpt><trkpt lat="44.41498" lon="11.2586283"><ele>121.14285714285714</ele><time>2026-03-28T08:22:18.76Z</time></trkpt><trkpt lat="44.4149183" lon="11.2586033"><ele>121.0</ele><time>2026-03-28T08:22:19.759Z</time></trkpt><trkpt lat="44.4148533" lon="11.2585817"><ele>121.00000000000001</ele><time>2026-03-28T08:22:20.759Z</time></trkpt><trkpt lat="44.4147883" lon="11.2585633"><ele>121.0</ele><time>2026-03-28T08:22:21.76Z</time></trkpt><trkpt lat="44.4147233" lon="11.25854"><ele>121.0</ele><time>2026-03-28T08:22:22.759Z</time></trkpt><trkpt lat="44.4146567" lon="11.2585083"><ele>121.0</ele><time>2026-03-28T08:22:23.759Z</time></trkpt><trkpt lat="44.41459" lon="11.258485"><ele>121.00000000000001</ele><time>2026-03-28T08:22:24.76Z</time></trkpt><trkpt lat="44.4145267" lon="11.2584633"><ele>121.0</ele><time>2026-03-28T08:22:25.76Z</time></trkpt><trkpt lat="44.41441" lon="11.2584117"><ele>121.28571428571428</ele><time>2026-03-28T08:22:27.76Z</time></trkpt><trkpt lat="44.4143483" lon="11.2583883"><ele>121.57142857142856</ele><time>2026-03-28T08:22:28.759Z</time></trkpt><trkpt lat="44.4142817" lon="11.2583717"><ele>121.85714285714286</ele><time>2026-03-28T08:22:29.76Z</time></trkpt><trkpt lat="44.4142167" lon="11.2583483"><ele>122.14285714285714</ele><time>2026-03-28T08:22:30.76Z</time></trkpt><trkpt lat="44.414155" lon="11.2583267"><ele>122.42857142857143</ele><time>2026-03-28T08:22:31.76Z</time></trkpt><trkpt lat="44.4140933" lon="11.258305"><ele>122.71428571428572</ele><time>2026-03-28T08:22:32.76Z</time></trkpt><trkpt lat="44.4140283" lon="11.2582817"><ele>123.00000000000001</ele><time>2026-03-28T08:22:33.759Z</time></trkpt><trkpt lat="44.4139667" lon="11.2582583"><ele>123.0</ele><time>2026-03-28T08:22:34.76Z</time></trkpt><trkpt lat="44.4138417" lon="11.25821"><ele>123.00000000000001</ele><time>2026-03-28T08:22:36.76Z</time></trkpt><trkpt lat="44.4137817" lon="11.2581783"><ele>123.00000000000001</ele><time>2026-03-28T08:22:37.759Z</time></trkpt><trkpt lat="44.413665" lon="11.258115"><ele>123.0</ele><time>2026-03-28T08:22:39.76Z</time></trkpt><trkpt lat="44.4136" lon="11.2580883"><ele>123.0</ele><time>2026-03-28T08:22:40.76Z</time></trkpt><trkpt lat="44.4135383" lon="11.2580517"><ele>123.66666666666667</ele><time>2026-03-28T08:22:41.76Z</time></trkpt><trkpt lat="44.4134717" lon="11.258035"><ele>124.33333333333334</ele><time>2026-03-28T08:22:42.76Z</time></trkpt><trkpt lat="44.4133483" lon="11.2579867"><ele>125.0</ele><time>2026-03-28T08:22:44.76Z</time></trkpt><trkpt lat="44.413285" lon="11.2579517"><ele>125.66666666666667</ele><time>2026-03-28T08:22:45.76Z</time></trkpt><trkpt lat="44.4132233" lon="11.25793"><ele>126.33333333333334</ele><time>2026-03-28T08:22:46.759Z</time></trkpt><trkpt lat="44.41316" lon="11.2579"><ele>127.0</ele><time>2026-03-28T08:22:47.759Z</time></trkpt><trkpt lat="44.4130983" lon="11.2578817"><ele>126.50000000000001</ele><time>2026-03-28T08:22:48.76Z</time></trkpt><trkpt lat="44.4129733" lon="11.257835"><ele>126.0</ele><time>2026-03-28T08:22:50.76Z</time></trkpt><trkpt lat="44.41291" lon="11.25781"><ele>125.5</ele><time>2026-03-28T08:22:51.76Z</time></trkpt><trkpt lat="44.4128417" lon="11.2578067"><ele>125.0</ele><time>2026-03-28T08:22:52.76Z</time></trkpt><trkpt lat="44.4127733" lon="11.2577933"><ele>124.50000000000001</ele><time>2026-03-28T08:22:53.76Z</time></trkpt><trkpt lat="44.412705" lon="11.2577767"><ele>124.0</ele><time>2026-03-28T08:22:54.76Z</time></trkpt><trkpt lat="44.4125783" lon="11.2577533"><ele>124.0</ele><time>2026-03-28T08:22:56.76Z</time></trkpt><trkpt lat="44.4125083" lon="11.25775"><ele>124.00000000000001</ele><time>2026-03-28T08:22:57.759Z</time></trkpt><trkpt lat="44.4124383" lon="11.2577417"><ele>124.0</ele><time>2026-03-28T08:22:58.76Z</time></trkpt><trkpt lat="44.4123717" lon="11.2577267"><ele>124.0</ele><time>2026-03-28T08:22:59.76Z</time></trkpt><trkpt lat="44.4123033" lon="11.2577117"><ele>124.00000000000001</ele><time>2026-03-28T08:23:00.76Z</time></trkpt><trkpt lat="44.4122367" lon="11.2577017"><ele>124.0</ele><time>2026-03-28T08:23:01.76Z</time></trkpt><trkpt lat="44.41217" lon="11.2576933"><ele>124.0</ele><time>2026-03-28T08:23:02.76Z</time></trkpt><trkpt lat="44.4121" lon="11.25769"><ele>124.00000000000001</ele><time>2026-03-28T08:23:03.76Z</time></trkpt><trkpt lat="44.41203" lon="11.2576883"><ele>124.0</ele><time>2026-03-28T08:23:04.76Z</time></trkpt><trkpt lat="44.4119583" lon="11.2576783"><ele>124.0</ele><time>2026-03-28T08:23:05.76Z</time></trkpt><trkpt lat="44.4118833" lon="11.2576683"><ele>124.0</ele><time>2026-03-28T08:23:06.76Z</time></trkpt><trkpt lat="44.4118083" lon="11.2576583"><ele>124.00000000000001</ele><time>2026-03-28T08:23:07.76Z</time></trkpt><trkpt lat="44.4117283" lon="11.257655"><ele>124.0</ele><time>2026-03-28T08:23:08.76Z</time></trkpt><trkpt lat="44.4116517" lon="11.257645"><ele>124.00000000000001</ele><time>2026-03-28T08:23:09.76Z</time></trkpt><trkpt lat="44.4115733" lon="11.257635"><ele>124.0</ele><time>2026-03-28T08:23:10.76Z</time></trkpt><trkpt lat="44.4114933" lon="11.2576217"><ele>124.0</ele><time>2026-03-28T08:23:11.76Z</time></trkpt><trkpt lat="44.411415" lon="11.2576"><ele>124.0</ele><time>2026-03-28T08:23:12.76Z</time></trkpt><trkpt lat="44.4113333" lon="11.2575883"><ele>124.00000000000001</ele><time>2026-03-28T08:23:13.76Z</time></trkpt><trkpt lat="44.4112533" lon="11.2575767"><ele>124.0</ele><time>2026-03-28T08:23:14.76Z</time></trkpt><trkpt lat="44.411175" lon="11.25756"><ele>123.83333333333334</ele><time>2026-03-28T08:23:15.759Z</time></trkpt><trkpt lat="44.4111017" lon="11.2575517"><ele>123.66666666666667</ele><time>2026-03-28T08:23:16.759Z</time></trkpt><trkpt lat="44.41102" lon="11.257535"><ele>123.5</ele><time>2026-03-28T08:23:17.76Z</time></trkpt><trkpt lat="44.4109433" lon="11.2575133"><ele>123.33333333333334</ele><time>2026-03-28T08:23:18.76Z</time></trkpt><trkpt lat="44.4108683" lon="11.257485"><ele>123.16666666666667</ele><time>2026-03-28T08:23:19.76Z</time></trkpt><trkpt lat="44.4107967" lon="11.2574417"><ele>123.0</ele><time>2026-03-28T08:23:20.76Z</time></trkpt><trkpt lat="44.4107217" lon="11.2573967"><ele>123.0</ele><time>2026-03-28T08:23:21.76Z</time></trkpt><trkpt lat="44.4106467" lon="11.2573433"><ele>123.0</ele><time>2026-03-28T08:23:22.759Z</time></trkpt><trkpt lat="44.4105767" lon="11.2572833"><ele>123.0</ele><time>2026-03-28T08:23:23.76Z</time></trkpt><trkpt lat="44.4105133" lon="11.2572183"><ele>123.0</ele><time>2026-03-28T08:23:24.76Z</time></trkpt><trkpt lat="44.4104533" lon="11.2571433"><ele>123.0</ele><time>2026-03-28T08:23:25.759Z</time></trkpt><trkpt lat="44.4103967" lon="11.2570633"><ele>123.0</ele><time>2026-03-28T08:23:26.76Z</time></trkpt><trkpt lat="44.41033" lon="11.25698"><ele>121.83333333333333</ele><time>2026-03-28T08:23:27.76Z</time></trkpt><trkpt lat="44.41027" lon="11.2569"><ele>120.66666666666666</ele><time>2026-03-28T08:23:28.759Z</time></trkpt><trkpt lat="44.4102233" lon="11.2568183"><ele>119.5</ele><time>2026-03-28T08:23:29.76Z</time></trkpt><trkpt lat="44.4101717" lon="11.2567417"><ele>118.33333333333333</ele><time>2026-03-28T08:23:30.76Z</time></trkpt><trkpt lat="44.4101233" lon="11.2566533"><ele>117.16666666666666</ele><time>2026-03-28T08:23:31.76Z</time></trkpt><trkpt lat="44.4100667" lon="11.256565"><ele>116.0</ele><time>2026-03-28T08:23:32.76Z</time></trkpt><trkpt lat="44.4100117" lon="11.2564817"><ele>116.2857142857143</ele><time>2026-03-28T08:23:33.76Z</time></trkpt><trkpt lat="44.4099617" lon="11.2564067"><ele>116.57142857142858</ele><time>2026-03-28T08:23:34.76Z</time></trkpt><trkpt lat="44.4099183" lon="11.2563317"><ele>116.85714285714286</ele><time>2026-03-28T08:23:35.76Z</time></trkpt><trkpt lat="44.409875" lon="11.2562517"><ele>117.14285714285715</ele><time>2026-03-28T08:23:36.759Z</time></trkpt><trkpt lat="44.4098317" lon="11.256175"><ele>117.42857142857144</ele><time>2026-03-28T08:23:37.759Z</time></trkpt><trkpt lat="44.4097967" lon="11.2561017"><ele>117.71428571428571</ele><time>2026-03-28T08:23:38.759Z</time></trkpt><trkpt lat="44.409755" lon="11.2560317"><ele>118.0</ele><time>2026-03-28T08:23:39.76Z</time></trkpt><trkpt lat="44.4097133" lon="11.25596"><ele>118.0</ele><time>2026-03-28T08:23:40.76Z</time></trkpt><trkpt lat="44.409665" lon="11.255895"><ele>118.0</ele><time>2026-03-28T08:23:41.759Z</time></trkpt><trkpt lat="44.40962" lon="11.2558233"><ele>118.0</ele><time>2026-03-28T08:23:42.76Z</time></trkpt><trkpt lat="44.4095733" lon="11.2557583"><ele>118.0</ele><time>2026-03-28T08:23:43.76Z</time></trkpt><trkpt lat="44.4095233" lon="11.2556933"><ele>118.0</ele><time>2026-03-28T08:23:44.76Z</time></trkpt><trkpt lat="44.4094833" lon="11.2556167"><ele>118.0</ele><time>2026-03-28T08:23:45.76Z</time></trkpt><trkpt lat="44.4094533" lon="11.2555317"><ele>118.0</ele><time>2026-03-28T08:23:46.76Z</time></trkpt><trkpt lat="44.409435" lon="11.2553483"><ele>117.42857142857142</ele><time>2026-03-28T08:23:48.76Z</time></trkpt><trkpt lat="44.409415" lon="11.25526"><ele>116.85714285714286</ele><time>2026-03-28T08:23:49.76Z</time></trkpt><trkpt lat="44.4093767" lon="11.25519"><ele>116.28571428571428</ele><time>2026-03-28T08:23:50.76Z</time></trkpt><trkpt lat="44.40932" lon="11.25514"><ele>115.71428571428571</ele><time>2026-03-28T08:23:51.76Z</time></trkpt><trkpt lat="44.4092567" lon="11.255105"><ele>115.14285714285714</ele><time>2026-03-28T08:23:52.76Z</time></trkpt><trkpt lat="44.4092033" lon="11.2550583"><ele>114.57142857142857</ele><time>2026-03-28T08:23:53.759Z</time></trkpt><trkpt lat="44.4091517" lon="11.2549917"><ele>114.0</ele><time>2026-03-28T08:23:54.76Z</time></trkpt><trkpt lat="44.4091117" lon="11.2549233"><ele>114.0</ele><time>2026-03-28T08:23:55.76Z</time></trkpt><trkpt lat="44.4090683" lon="11.2548483"><ele>114.0</ele><time>2026-03-28T08:23:56.759Z</time></trkpt><trkpt lat="44.4090283" lon="11.254775"><ele>114.0</ele><time>2026-03-28T08:23:57.76Z</time></trkpt><trkpt lat="44.40899" lon="11.2547033"><ele>114.0</ele><time>2026-03-28T08:23:58.759Z</time></trkpt><trkpt lat="44.408955" lon="11.25463"><ele>114.0</ele><time>2026-03-28T08:23:59.76Z</time></trkpt><trkpt lat="44.4088817" lon="11.254485"><ele>114.0</ele><time>2026-03-28T08:24:01.76Z</time></trkpt><trkpt lat="44.408805" lon="11.25435"><ele>114.0</ele><time>2026-03-28T08:24:03.76Z</time></trkpt><trkpt lat="44.4087367" lon="11.2542133"><ele>114.0</ele><time>2026-03-28T08:24:05.76Z</time></trkpt><trkpt lat="44.408695" lon="11.254145"><ele>114.0</ele><time>2026-03-28T08:24:06.759Z</time></trkpt><trkpt lat="44.4086267" lon="11.2540167"><ele>114.0</ele><time>2026-03-28T08:24:08.76Z</time></trkpt><trkpt lat="44.4085617" lon="11.2538833"><ele>114.0</ele><time>2026-03-28T08:24:10.76Z</time></trkpt><trkpt lat="44.4085133" lon="11.25374"><ele>114.4</ele><time>2026-03-28T08:24:12.76Z</time></trkpt><trkpt lat="44.4085117" lon="11.253585"><ele>114.80000000000001</ele><time>2026-03-28T08:24:14.76Z</time></trkpt><trkpt lat="44.4085283" lon="11.25346"><ele>115.19999999999999</ele><time>2026-03-28T08:24:16.76Z</time></trkpt><trkpt lat="44.40856" lon="11.25333"><ele>115.6</ele><time>2026-03-28T08:24:18.76Z</time></trkpt><trkpt lat="44.4085883" lon="11.2532017"><ele>116.0</ele><time>2026-03-28T08:24:20.76Z</time></trkpt><trkpt lat="44.4086233" lon="11.2530667"><ele>116.5</ele><time>2026-03-28T08:24:22.76Z</time></trkpt><trkpt lat="44.40867" lon="11.2529233"><ele>117.0</ele><time>2026-03-28T08:24:24.76Z</time></trkpt><trkpt lat="44.4087233" lon="11.252785"><ele>117.5</ele><time>2026-03-28T08:24:26.76Z</time></trkpt><trkpt lat="44.4087917" lon="11.2526517"><ele>118.0</ele><time>2026-03-28T08:24:28.76Z</time></trkpt><trkpt lat="44.40886" lon="11.2525283"><ele>118.2</ele><time>2026-03-28T08:24:30.76Z</time></trkpt><trkpt lat="44.4089217" lon="11.252405"><ele>118.4</ele><time>2026-03-28T08:24:32.759Z</time></trkpt><trkpt lat="44.40898" lon="11.2522783"><ele>118.60000000000001</ele><time>2026-03-28T08:24:34.759Z</time></trkpt><trkpt lat="44.4090467" lon="11.252145"><ele>118.80000000000001</ele><time>2026-03-28T08:24:36.76Z</time></trkpt><trkpt lat="44.4091033" lon="11.2520167"><ele>119.0</ele><time>2026-03-28T08:24:38.76Z</time></trkpt><trkpt lat="44.40916" lon="11.2518867"><ele>119.6</ele><time>2026-03-28T08:24:40.76Z</time></trkpt><trkpt lat="44.4092217" lon="11.2517483"><ele>120.2</ele><time>2026-03-28T08:24:42.76Z</time></trkpt><trkpt lat="44.40927" lon="11.2516067"><ele>120.79999999999998</ele><time>2026-03-28T08:24:44.76Z</time></trkpt><trkpt lat="44.4093117" lon="11.251465"><ele>121.39999999999999</ele><time>2026-03-28T08:24:46.76Z</time></trkpt><trkpt lat="44.4093217" lon="11.251315"><ele>122.0</ele><time>2026-03-28T08:24:48.76Z</time></trkpt><trkpt lat="44.4093233" lon="11.2511633"><ele>122.6</ele><time>2026-03-28T08:24:50.76Z</time></trkpt><trkpt lat="44.4093383" lon="11.2510083"><ele>123.19999999999999</ele><time>2026-03-28T08:24:52.76Z</time></trkpt><trkpt lat="44.4093583" lon="11.250855"><ele>123.8</ele><time>2026-03-28T08:24:54.759Z</time></trkpt><trkpt lat="44.4093967" lon="11.2507217"><ele>124.4</ele><time>2026-03-28T08:24:56.76Z</time></trkpt><trkpt lat="44.4094567" lon="11.2505917"><ele>125.0</ele><time>2026-03-28T08:24:58.76Z</time></trkpt><trkpt lat="44.4095133" lon="11.250455"><ele>125.83333333333333</ele><time>2026-03-28T08:25:00.76Z</time></trkpt><trkpt lat="44.4095567" lon="11.2503333"><ele>126.66666666666666</ele><time>2026-03-28T08:25:02.76Z</time></trkpt><trkpt lat="44.4096083" lon="11.2502367"><ele>127.5</ele><time>2026-03-28T08:25:04.759Z</time></trkpt><trkpt lat="44.409645" lon="11.2501283"><ele>128.33333333333334</ele><time>2026-03-28T08:25:06.76Z</time></trkpt><trkpt lat="44.4096883" lon="11.250015"><ele>129.16666666666669</ele><time>2026-03-28T08:25:08.76Z</time></trkpt><trkpt lat="44.40973" lon="11.2499167"><ele>130.0</ele><time>2026-03-28T08:25:10.761Z</time></trkpt><trkpt lat="44.4097767" lon="11.249815"><ele>130.8</ele><time>2026-03-28T08:25:12.761Z</time></trkpt><trkpt lat="44.40979" lon="11.24969"><ele>131.6</ele><time>2026-03-28T08:25:14.761Z</time></trkpt><trkpt lat="44.4097767" lon="11.2495583"><ele>132.4</ele><time>2026-03-28T08:25:16.761Z</time></trkpt><trkpt lat="44.4097633" lon="11.2494167"><ele>133.2</ele><time>2026-03-28T08:25:18.76Z</time></trkpt><trkpt lat="44.40973" lon="11.2492783"><ele>134.0</ele><time>2026-03-28T08:25:20.761Z</time></trkpt><trkpt lat="44.40969" lon="11.2491433"><ele>134.0</ele><time>2026-03-28T08:25:22.761Z</time></trkpt><trkpt lat="44.409645" lon="11.2490267"><ele>134.0</ele><time>2026-03-28T08:25:24.761Z</time></trkpt><trkpt lat="44.4096033" lon="11.2489017"><ele>134.0</ele><time>2026-03-28T08:25:26.76Z</time></trkpt><trkpt lat="44.4095633" lon="11.2487683"><ele>134.0</ele><time>2026-03-28T08:25:28.76Z</time></trkpt><trkpt lat="44.4095333" lon="11.2486217"><ele>134.0</ele><time>2026-03-28T08:25:30.761Z</time></trkpt><trkpt lat="44.4095117" lon="11.2484767"><ele>133.0</ele><time>2026-03-28T08:25:32.76Z</time></trkpt><trkpt lat="44.4094967" lon="11.2483383"><ele>132.0</ele><time>2026-03-28T08:25:34.76Z</time></trkpt><trkpt lat="44.4094833" lon="11.2481917"><ele>131.0</ele><time>2026-03-28T08:25:36.76Z</time></trkpt><trkpt lat="44.4094617" lon="11.2480517"><ele>130.0</ele><time>2026-03-28T08:25:38.761Z</time></trkpt><trkpt lat="44.409435" lon="11.2479167"><ele>129.0</ele><time>2026-03-28T08:25:40.761Z</time></trkpt><trkpt lat="44.4094267" lon="11.2477733"><ele>129.0</ele><time>2026-03-28T08:25:42.761Z</time></trkpt><trkpt lat="44.409415" lon="11.2476317"><ele>129.0</ele><time>2026-03-28T08:25:44.761Z</time></trkpt><trkpt lat="44.40943" lon="11.247505"><ele>129.0</ele><time>2026-03-28T08:25:46.76Z</time></trkpt><trkpt lat="44.4094667" lon="11.2473833"><ele>129.0</ele><time>2026-03-28T08:25:48.761Z</time></trkpt><trkpt lat="44.4095183" lon="11.2472583"><ele>129.0</ele><time>2026-03-28T08:25:50.76Z</time></trkpt><trkpt lat="44.4095667" lon="11.247155"><ele>129.66666666666666</ele><time>2026-03-28T08:25:52.761Z</time></trkpt><trkpt lat="44.4096067" lon="11.24706"><ele>130.33333333333334</ele><time>2026-03-28T08:25:54.761Z</time></trkpt><trkpt lat="44.4096467" lon="11.2469483"><ele>131.0</ele><time>2026-03-28T08:25:56.761Z</time></trkpt><trkpt lat="44.4096717" lon="11.2468367"><ele>131.66666666666669</ele><time>2026-03-28T08:25:58.76Z</time></trkpt><trkpt lat="44.40967" lon="11.24672"><ele>132.33333333333334</ele><time>2026-03-28T08:26:00.761Z</time></trkpt><trkpt lat="44.4096367" lon="11.2466017"><ele>133.0</ele><time>2026-03-28T08:26:02.761Z</time></trkpt><trkpt lat="44.4096" lon="11.2464817"><ele>132.8</ele><time>2026-03-28T08:26:04.761Z</time></trkpt><trkpt lat="44.4095517" lon="11.2463783"><ele>132.60000000000002</ele><time>2026-03-28T08:26:06.761Z</time></trkpt><trkpt lat="44.409485" lon="11.2462883"><ele>132.39999999999998</ele><time>2026-03-28T08:26:08.761Z</time></trkpt><trkpt lat="44.409415" lon="11.2462033"><ele>132.2</ele><time>2026-03-28T08:26:10.76Z</time></trkpt><trkpt lat="44.40933" lon="11.246145"><ele>132.0</ele><time>2026-03-28T08:26:12.761Z</time></trkpt><trkpt lat="44.409235" lon="11.2460917"><ele>132.0</ele><time>2026-03-28T08:26:14.761Z</time></trkpt><trkpt lat="44.4091467" lon="11.2460283"><ele>132.0</ele><time>2026-03-28T08:26:16.76Z</time></trkpt><trkpt lat="44.409065" lon="11.2459433"><ele>132.0</ele><time>2026-03-28T08:26:18.761Z</time></trkpt><trkpt lat="44.4089983" lon="11.24584"><ele>132.0</ele><time>2026-03-28T08:26:20.761Z</time></trkpt><trkpt lat="44.4089617" lon="11.245695"><ele>132.0</ele><time>2026-03-28T08:26:22.761Z</time></trkpt><trkpt lat="44.40895" lon="11.2455467"><ele>133.6</ele><time>2026-03-28T08:26:24.761Z</time></trkpt><trkpt lat="44.4089767" lon="11.2454133"><ele>135.2</ele><time>2026-03-28T08:26:26.761Z</time></trkpt><trkpt lat="44.4090183" lon="11.2452767"><ele>136.8</ele><time>2026-03-28T08:26:28.761Z</time></trkpt><trkpt lat="44.40905" lon="11.2451483"><ele>138.4</ele><time>2026-03-28T08:26:30.761Z</time></trkpt><trkpt lat="44.409095" lon="11.2450233"><ele>140.0</ele><time>2026-03-28T08:26:32.761Z</time></trkpt><trkpt lat="44.4091267" lon="11.24489"><ele>139.8</ele><time>2026-03-28T08:26:34.761Z</time></trkpt><trkpt lat="44.4091367" lon="11.2447467"><ele>139.6</ele><time>2026-03-28T08:26:36.761Z</time></trkpt><trkpt lat="44.4091283" lon="11.2446067"><ele>139.4</ele><time>2026-03-28T08:26:38.761Z</time></trkpt><trkpt lat="44.409105" lon="11.2444683"><ele>139.2</ele><time>2026-03-28T08:26:40.761Z</time></trkpt><trkpt lat="44.4090767" lon="11.244335"><ele>139.0</ele><time>2026-03-28T08:26:42.76Z</time></trkpt><trkpt lat="44.4090533" lon="11.244195"><ele>139.0</ele><time>2026-03-28T08:26:44.76Z</time></trkpt><trkpt lat="44.4090233" lon="11.2440583"><ele>139.0</ele><time>2026-03-28T08:26:46.761Z</time></trkpt><trkpt lat="44.409005" lon="11.2439233"><ele>139.0</ele><time>2026-03-28T08:26:48.761Z</time></trkpt><trkpt lat="44.409" lon="11.2437833"><ele>139.0</ele><time>2026-03-28T08:26:50.76Z</time></trkpt><trkpt lat="44.4090067" lon="11.2436567"><ele>139.0</ele><time>2026-03-28T08:26:52.76Z</time></trkpt><trkpt lat="44.4090417" lon="11.2435317"><ele>138.8</ele><time>2026-03-28T08:26:54.761Z</time></trkpt><trkpt lat="44.4090833" lon="11.24341"><ele>138.60000000000002</ele><time>2026-03-28T08:26:56.761Z</time></trkpt><trkpt lat="44.4091533" lon="11.243315"><ele>138.4</ele><time>2026-03-28T08:26:58.761Z</time></trkpt><trkpt lat="44.4092233" lon="11.2432367"><ele>138.20000000000002</ele><time>2026-03-28T08:27:00.76Z</time></trkpt><trkpt lat="44.4092967" lon="11.2431583"><ele>138.0</ele><time>2026-03-28T08:27:02.761Z</time></trkpt><trkpt lat="44.409365" lon="11.243055"><ele>139.33333333333334</ele><time>2026-03-28T08:27:04.761Z</time></trkpt><trkpt lat="44.40943" lon="11.242965"><ele>140.66666666666666</ele><time>2026-03-28T08:27:06.761Z</time></trkpt><trkpt lat="44.409485" lon="11.2428667"><ele>142.0</ele><time>2026-03-28T08:27:08.76Z</time></trkpt><trkpt lat="44.40954" lon="11.2427717"><ele>143.33333333333331</ele><time>2026-03-28T08:27:10.761Z</time></trkpt><trkpt lat="44.409605" lon="11.24268"><ele>144.66666666666666</ele><time>2026-03-28T08:27:12.761Z</time></trkpt><trkpt lat="44.409665" lon="11.2425967"><ele>146.0</ele><time>2026-03-28T08:27:14.761Z</time></trkpt><trkpt lat="44.4097183" lon="11.2424883"><ele>146.2</ele><time>2026-03-28T08:27:16.761Z</time></trkpt><trkpt lat="44.40977" lon="11.2423933"><ele>146.39999999999998</ele><time>2026-03-28T08:27:18.761Z</time></trkpt><trkpt lat="44.40981" lon="11.2422733"><ele>146.6</ele><time>2026-03-28T08:27:20.761Z</time></trkpt><trkpt lat="44.409835" lon="11.2421383"><ele>146.79999999999998</ele><time>2026-03-28T08:27:22.76Z</time></trkpt><trkpt lat="44.4098317" lon="11.2419933"><ele>147.0</ele><time>2026-03-28T08:27:24.761Z</time></trkpt><trkpt lat="44.4098167" lon="11.241845"><ele>146.6</ele><time>2026-03-28T08:27:26.76Z</time></trkpt><trkpt lat="44.4097883" lon="11.241705"><ele>146.2</ele><time>2026-03-28T08:27:28.761Z</time></trkpt><trkpt lat="44.40979" lon="11.2415667"><ele>145.8</ele><time>2026-03-28T08:27:30.76Z</time></trkpt><trkpt lat="44.4097933" lon="11.241425"><ele>145.4</ele><time>2026-03-28T08:27:32.761Z</time></trkpt><trkpt lat="44.4098183" lon="11.241295"><ele>145.0</ele><time>2026-03-28T08:27:34.761Z</time></trkpt><trkpt lat="44.4098533" lon="11.241165"><ele>145.0</ele><time>2026-03-28T08:27:36.761Z</time></trkpt><trkpt lat="44.4099017" lon="11.2410467"><ele>145.0</ele><time>2026-03-28T08:27:38.761Z</time></trkpt><trkpt lat="44.4099617" lon="11.2409283"><ele>145.0</ele><time>2026-03-28T08:27:40.761Z</time></trkpt><trkpt lat="44.4100267" lon="11.2408183"><ele>145.0</ele><time>2026-03-28T08:27:42.761Z</time></trkpt><trkpt lat="44.4100967" lon="11.240715"><ele>145.0</ele><time>2026-03-28T08:27:44.761Z</time></trkpt><trkpt lat="44.4101617" lon="11.2406217"><ele>147.6</ele><time>2026-03-28T08:27:46.761Z</time></trkpt><trkpt lat="44.410235" lon="11.2405283"><ele>150.2</ele><time>2026-03-28T08:27:48.761Z</time></trkpt><trkpt lat="44.410305" lon="11.2404483"><ele>152.8</ele><time>2026-03-28T08:27:50.76Z</time></trkpt><trkpt lat="44.4103767" lon="11.2403633"><ele>155.4</ele><time>2026-03-28T08:27:52.76Z</time></trkpt><trkpt lat="44.4104417" lon="11.2402683"><ele>158.0</ele><time>2026-03-28T08:27:54.761Z</time></trkpt><trkpt lat="44.4104983" lon="11.2401683"><ele>158.0</ele><time>2026-03-28T08:27:56.76Z</time></trkpt><trkpt lat="44.410545" lon="11.24005"><ele>158.0</ele><time>2026-03-28T08:27:58.761Z</time></trkpt><trkpt lat="44.4105783" lon="11.2399333"><ele>158.0</ele><time>2026-03-28T08:28:00.761Z</time></trkpt><trkpt lat="44.41059" lon="11.2398117"><ele>158.0</ele><time>2026-03-28T08:28:02.761Z</time></trkpt><trkpt lat="44.410595" lon="11.23968"><ele>158.0</ele><time>2026-03-28T08:28:04.761Z</time></trkpt><trkpt lat="44.4106017" lon="11.2395467"><ele>157.8</ele><time>2026-03-28T08:28:06.761Z</time></trkpt><trkpt lat="44.410605" lon="11.2394083"><ele>157.60000000000002</ele><time>2026-03-28T08:28:08.761Z</time></trkpt><trkpt lat="44.4106183" lon="11.2392717"><ele>157.39999999999998</ele><time>2026-03-28T08:28:10.761Z</time></trkpt><trkpt lat="44.41064" lon="11.2391483"><ele>157.2</ele><time>2026-03-28T08:28:12.761Z</time></trkpt><trkpt lat="44.4106617" lon="11.2390217"><ele>157.0</ele><time>2026-03-28T08:28:14.761Z</time></trkpt><trkpt lat="44.410685" lon="11.2389083"><ele>157.0</ele><time>2026-03-28T08:28:16.761Z</time></trkpt><trkpt lat="44.4107167" lon="11.2387967"><ele>157.0</ele><time>2026-03-28T08:28:18.761Z</time></trkpt><trkpt lat="44.4107367" lon="11.23868"><ele>157.0</ele><time>2026-03-28T08:28:20.76Z</time></trkpt><trkpt lat="44.4107533" lon="11.2385617"><ele>157.0</ele><time>2026-03-28T08:28:22.761Z</time></trkpt><trkpt lat="44.410775" lon="11.2384483"><ele>157.0</ele><time>2026-03-28T08:28:24.761Z</time></trkpt><trkpt lat="44.4107867" lon="11.23834"><ele>157.0</ele><time>2026-03-28T08:28:26.761Z</time></trkpt><trkpt lat="44.4108033" lon="11.2382417"><ele>156.99999999999997</ele><time>2026-03-28T08:28:28.761Z</time></trkpt><trkpt lat="44.41082" lon="11.2381433"><ele>157.0</ele><time>2026-03-28T08:28:30.761Z</time></trkpt><trkpt lat="44.4108333" lon="11.23805"><ele>157.0</ele><time>2026-03-28T08:28:32.761Z</time></trkpt><trkpt lat="44.4108383" lon="11.237935"><ele>157.0</ele><time>2026-03-28T08:28:34.761Z</time></trkpt><trkpt lat="44.41082" lon="11.23783"><ele>157.0</ele><time>2026-03-28T08:28:36.761Z</time></trkpt><trkpt lat="44.410795" lon="11.2377333"><ele>156.99999999999997</ele><time>2026-03-28T08:28:38.761Z</time></trkpt><trkpt lat="44.4107717" lon="11.2376417"><ele>157.0</ele><time>2026-03-28T08:28:40.761Z</time></trkpt><trkpt lat="44.4107583" lon="11.2375417"><ele>157.75</ele><time>2026-03-28T08:28:42.76Z</time></trkpt><trkpt lat="44.4108867" lon="11.2375533"><ele>158.5</ele><time>2026-03-28T08:28:46.106Z</time></trkpt><trkpt lat="44.41084" lon="11.23742"><ele>159.25</ele><time>2026-03-28T08:28:47.302Z</time></trkpt><trkpt lat="44.41073" lon="11.237295"><ele>160.0</ele><time>2026-03-28T08:28:48.744Z</time></trkpt><trkpt lat="44.41074" lon="11.2371733"><ele>160.83333333333334</ele><time>2026-03-28T08:28:50.743Z</time></trkpt><trkpt lat="44.41075" lon="11.2370533"><ele>161.66666666666669</ele><time>2026-03-28T08:28:52.744Z</time></trkpt><trkpt lat="44.4107667" lon="11.2369233"><ele>162.5</ele><time>2026-03-28T08:28:54.743Z</time></trkpt><trkpt lat="44.41078" lon="11.2368133"><ele>163.33333333333334</ele><time>2026-03-28T08:28:56.743Z</time></trkpt><trkpt lat="44.4107967" lon="11.2367083"><ele>164.16666666666666</ele><time>2026-03-28T08:28:58.744Z</time></trkpt><trkpt lat="44.410815" lon="11.236615"><ele>165.0</ele><time>2026-03-28T08:29:00.744Z</time></trkpt><trkpt lat="44.4108317" lon="11.2365183"><ele>165.5</ele><time>2026-03-28T08:29:02.743Z</time></trkpt><trkpt lat="44.41082" lon="11.236415"><ele>166.0</ele><time>2026-03-28T08:29:04.743Z</time></trkpt><trkpt lat="44.410805" lon="11.2363033"><ele>166.5</ele><time>2026-03-28T08:29:06.744Z</time></trkpt><trkpt lat="44.4107867" lon="11.2361867"><ele>167.0</ele><time>2026-03-28T08:29:08.743Z</time></trkpt><trkpt lat="44.4107733" lon="11.2360667"><ele>167.5</ele><time>2026-03-28T08:29:10.743Z</time></trkpt><trkpt lat="44.4107717" lon="11.2359417"><ele>168.0</ele><time>2026-03-28T08:29:12.743Z</time></trkpt><trkpt lat="44.4107517" lon="11.2358"><ele>168.0</ele><time>2026-03-28T08:29:14.744Z</time></trkpt><trkpt lat="44.4107567" lon="11.2356733"><ele>168.0</ele><time>2026-03-28T08:29:16.744Z</time></trkpt><trkpt lat="44.410765" lon="11.2355417"><ele>168.0</ele><time>2026-03-28T08:29:18.744Z</time></trkpt><trkpt lat="44.410765" lon="11.23541"><ele>168.0</ele><time>2026-03-28T08:29:20.744Z</time></trkpt><trkpt lat="44.4107767" lon="11.2352717"><ele>168.0</ele><time>2026-03-28T08:29:22.744Z</time></trkpt><trkpt lat="44.4107967" lon="11.23514"><ele>168.0</ele><time>2026-03-28T08:29:24.744Z</time></trkpt><trkpt lat="44.41083" lon="11.2350217"><ele>168.0</ele><time>2026-03-28T08:29:26.743Z</time></trkpt><trkpt lat="44.41087" lon="11.234905"><ele>168.0</ele><time>2026-03-28T08:29:28.744Z</time></trkpt><trkpt lat="44.4108817" lon="11.2347683"><ele>168.0</ele><time>2026-03-28T08:29:30.745Z</time></trkpt><trkpt lat="44.410875" lon="11.2346333"><ele>168.0</ele><time>2026-03-28T08:29:32.745Z</time></trkpt><trkpt lat="44.4108583" lon="11.2344933"><ele>168.0</ele><time>2026-03-28T08:29:34.745Z</time></trkpt><trkpt lat="44.4108383" lon="11.2343617"><ele>168.0</ele><time>2026-03-28T08:29:36.744Z</time></trkpt><trkpt lat="44.4108" lon="11.2342317"><ele>168.0</ele><time>2026-03-28T08:29:38.745Z</time></trkpt><trkpt lat="44.4107667" lon="11.2340967"><ele>168.0</ele><time>2026-03-28T08:29:40.744Z</time></trkpt><trkpt lat="44.4107517" lon="11.2339683"><ele>168.0</ele><time>2026-03-28T08:29:42.745Z</time></trkpt><trkpt lat="44.4107367" lon="11.2338467"><ele>167.83333333333334</ele><time>2026-03-28T08:29:44.745Z</time></trkpt><trkpt lat="44.41072" lon="11.2337333"><ele>167.66666666666666</ele><time>2026-03-28T08:29:46.745Z</time></trkpt><trkpt lat="44.4107067" lon="11.2336033"><ele>167.5</ele><time>2026-03-28T08:29:48.745Z</time></trkpt><trkpt lat="44.4106983" lon="11.2334833"><ele>167.33333333333331</ele><time>2026-03-28T08:29:50.744Z</time></trkpt><trkpt lat="44.4106933" lon="11.2333617"><ele>167.16666666666666</ele><time>2026-03-28T08:29:52.745Z</time></trkpt><trkpt lat="44.4107017" lon="11.2332433"><ele>167.0</ele><time>2026-03-28T08:29:54.745Z</time></trkpt><trkpt lat="44.410725" lon="11.2331317"><ele>168.0</ele><time>2026-03-28T08:29:56.745Z</time></trkpt><trkpt lat="44.4107633" lon="11.2330267"><ele>169.0</ele><time>2026-03-28T08:29:58.745Z</time></trkpt><trkpt lat="44.4108133" lon="11.2329317"><ele>170.0</ele><time>2026-03-28T08:30:00.745Z</time></trkpt><trkpt lat="44.4108767" lon="11.2328417"><ele>171.0</ele><time>2026-03-28T08:30:02.744Z</time></trkpt><trkpt lat="44.41094" lon="11.2327617"><ele>172.0</ele><time>2026-03-28T08:30:04.745Z</time></trkpt><trkpt lat="44.4110067" lon="11.232675"><ele>173.0</ele><time>2026-03-28T08:30:06.745Z</time></trkpt><trkpt lat="44.4110683" lon="11.2325833"><ele>173.0</ele><time>2026-03-28T08:30:08.745Z</time></trkpt><trkpt lat="44.4111183" lon="11.232475"><ele>173.0</ele><time>2026-03-28T08:30:10.745Z</time></trkpt><trkpt lat="44.4111467" lon="11.2323583"><ele>173.0</ele><time>2026-03-28T08:30:12.745Z</time></trkpt><trkpt lat="44.4111483" lon="11.2322333"><ele>173.0</ele><time>2026-03-28T08:30:14.745Z</time></trkpt><trkpt lat="44.4111433" lon="11.232115"><ele>173.0</ele><time>2026-03-28T08:30:16.745Z</time></trkpt><trkpt lat="44.4111217" lon="11.2319933"><ele>173.0</ele><time>2026-03-28T08:30:18.745Z</time></trkpt><trkpt lat="44.4110917" lon="11.231875"><ele>174.0</ele><time>2026-03-28T08:30:20.745Z</time></trkpt><trkpt lat="44.411075" lon="11.2317633"><ele>175.0</ele><time>2026-03-28T08:30:22.744Z</time></trkpt><trkpt lat="44.4110383" lon="11.23166"><ele>176.0</ele><time>2026-03-28T08:30:24.745Z</time></trkpt><trkpt lat="44.411005" lon="11.2315383"><ele>177.0</ele><time>2026-03-28T08:30:26.745Z</time></trkpt><trkpt lat="44.411" lon="11.23142"><ele>178.0</ele><time>2026-03-28T08:30:28.744Z</time></trkpt><trkpt lat="44.4110183" lon="11.2313033"><ele>179.0</ele><time>2026-03-28T08:30:30.745Z</time></trkpt><trkpt lat="44.4110517" lon="11.2312033"><ele>180.33333333333331</ele><time>2026-03-28T08:30:32.745Z</time></trkpt><trkpt lat="44.4110983" lon="11.2311117"><ele>181.66666666666666</ele><time>2026-03-28T08:30:34.745Z</time></trkpt><trkpt lat="44.41115" lon="11.2310233"><ele>183.0</ele><time>2026-03-28T08:30:36.744Z</time></trkpt><trkpt lat="44.4112017" lon="11.2309533"><ele>184.33333333333334</ele><time>2026-03-28T08:30:38.744Z</time></trkpt><trkpt lat="44.4112517" lon="11.2308733"><ele>185.66666666666669</ele><time>2026-03-28T08:30:40.745Z</time></trkpt><trkpt lat="44.4112917" lon="11.230765"><ele>187.0</ele><time>2026-03-28T08:30:42.744Z</time></trkpt><trkpt lat="44.411325" lon="11.2306533"><ele>187.33333333333334</ele><time>2026-03-28T08:30:44.745Z</time></trkpt><trkpt lat="44.4113467" lon="11.2305383"><ele>187.66666666666669</ele><time>2026-03-28T08:30:46.745Z</time></trkpt><trkpt lat="44.4113583" lon="11.2304333"><ele>188.0</ele><time>2026-03-28T08:30:48.745Z</time></trkpt><trkpt lat="44.41135" lon="11.23032"><ele>188.33333333333334</ele><time>2026-03-28T08:30:50.744Z</time></trkpt><trkpt lat="44.4113333" lon="11.2302133"><ele>188.66666666666666</ele><time>2026-03-28T08:30:52.745Z</time></trkpt><trkpt lat="44.4113167" lon="11.230115"><ele>189.0</ele><time>2026-03-28T08:30:54.744Z</time></trkpt><trkpt lat="44.411295" lon="11.2300283"><ele>189.0</ele><time>2026-03-28T08:30:56.744Z</time></trkpt><trkpt lat="44.41126" lon="11.229905"><ele>189.0</ele><time>2026-03-28T08:30:59.745Z</time></trkpt><trkpt lat="44.4112417" lon="11.2298117"><ele>189.0</ele><time>2026-03-28T08:31:01.745Z</time></trkpt><trkpt lat="44.41124" lon="11.2297217"><ele>189.0</ele><time>2026-03-28T08:31:03.745Z</time></trkpt><trkpt lat="44.41126" lon="11.2295983"><ele>189.0</ele><time>2026-03-28T08:31:06.745Z</time></trkpt><trkpt lat="44.41131" lon="11.2294983"><ele>189.0</ele><time>2026-03-28T08:31:09.745Z</time></trkpt><trkpt lat="44.41138" lon="11.229415"><ele>188.5</ele><time>2026-03-28T08:31:12.745Z</time></trkpt><trkpt lat="44.4114633" lon="11.2293567"><ele>188.0</ele><time>2026-03-28T08:31:15.745Z</time></trkpt><trkpt lat="44.4115217" lon="11.2293083"><ele>187.5</ele><time>2026-03-28T08:31:17.745Z</time></trkpt><trkpt lat="44.4115867" lon="11.2292433"><ele>187.0</ele><time>2026-03-28T08:31:20.745Z</time></trkpt><trkpt lat="44.4116533" lon="11.2291617"><ele>186.5</ele><time>2026-03-28T08:31:23.745Z</time></trkpt><trkpt lat="44.4117183" lon="11.2290933"><ele>186.0</ele><time>2026-03-28T08:31:26.745Z</time></trkpt><trkpt lat="44.4117617" lon="11.229"><ele>185.5</ele><time>2026-03-28T08:31:29.745Z</time></trkpt><trkpt lat="44.4117983" lon="11.2288833"><ele>185.0</ele><time>2026-03-28T08:31:32.745Z</time></trkpt><trkpt lat="44.4118117" lon="11.228765"><ele>184.5</ele><time>2026-03-28T08:31:35.744Z</time></trkpt><trkpt lat="44.4118233" lon="11.22864"><ele>184.0</ele><time>2026-03-28T08:31:38.745Z</time></trkpt><trkpt lat="44.4118417" lon="11.22853"><ele>183.5</ele><time>2026-03-28T08:31:41.745Z</time></trkpt><trkpt lat="44.4118483" lon="11.2284117"><ele>183.0</ele><time>2026-03-28T08:31:44.745Z</time></trkpt><trkpt lat="44.4118617" lon="11.2282967"><ele>183.0</ele><time>2026-03-28T08:31:47.744Z</time></trkpt><trkpt lat="44.4118767" lon="11.2281883"><ele>183.0</ele><time>2026-03-28T08:31:50.745Z</time></trkpt><trkpt lat="44.4118833" lon="11.2280767"><ele>183.0</ele><time>2026-03-28T08:31:53.745Z</time></trkpt><trkpt lat="44.4118983" lon="11.2279633"><ele>183.0</ele><time>2026-03-28T08:31:56.744Z</time></trkpt><trkpt lat="44.4119367" lon="11.2278617"><ele>183.0</ele><time>2026-03-28T08:31:59.745Z</time></trkpt><trkpt lat="44.4119833" lon="11.2277633"><ele>183.0</ele><time>2026-03-28T08:32:02.744Z</time></trkpt><trkpt lat="44.41205" lon="11.2276767"><ele>183.16666666666666</ele><time>2026-03-28T08:32:05.745Z</time></trkpt><trkpt lat="44.412115" lon="11.2276167"><ele>183.33333333333334</ele><time>2026-03-28T08:32:08.745Z</time></trkpt><trkpt lat="44.41217" lon="11.2275367"><ele>183.5</ele><time>2026-03-28T08:32:11.745Z</time></trkpt><trkpt lat="44.4122167" lon="11.2274317"><ele>183.66666666666669</ele><time>2026-03-28T08:32:14.745Z</time></trkpt><trkpt lat="44.4122133" lon="11.2273017"><ele>183.83333333333334</ele><time>2026-03-28T08:32:17.744Z</time></trkpt><trkpt lat="44.41218" lon="11.2271817"><ele>184.0</ele><time>2026-03-28T08:32:20.745Z</time></trkpt><trkpt lat="44.4121433" lon="11.227075"><ele>184.66666666666669</ele><time>2026-03-28T08:32:23.744Z</time></trkpt><trkpt lat="44.4121117" lon="11.2269683"><ele>185.33333333333334</ele><time>2026-03-28T08:32:26.744Z</time></trkpt><trkpt lat="44.4120683" lon="11.2268667"><ele>186.0</ele><time>2026-03-28T08:32:29.744Z</time></trkpt><trkpt lat="44.4120383" lon="11.2267667"><ele>186.66666666666666</ele><time>2026-03-28T08:32:32.745Z</time></trkpt><trkpt lat="44.4120117" lon="11.226665"><ele>187.33333333333331</ele><time>2026-03-28T08:32:35.745Z</time></trkpt><trkpt lat="44.41199" lon="11.22655"><ele>188.0</ele><time>2026-03-28T08:32:38.745Z</time></trkpt><trkpt lat="44.411975" lon="11.2264383"><ele>189.14285714285714</ele><time>2026-03-28T08:32:41.745Z</time></trkpt><trkpt lat="44.4119767" lon="11.2263383"><ele>190.28571428571428</ele><time>2026-03-28T08:32:44.745Z</time></trkpt><trkpt lat="44.4119767" lon="11.2262433"><ele>191.42857142857144</ele><time>2026-03-28T08:32:47.745Z</time></trkpt><trkpt lat="44.4119833" lon="11.2261517"><ele>192.57142857142856</ele><time>2026-03-28T08:32:50.745Z</time></trkpt><trkpt lat="44.4119917" lon="11.2260467"><ele>193.71428571428572</ele><time>2026-03-28T08:32:53.745Z</time></trkpt><trkpt lat="44.4119883" lon="11.2259517"><ele>194.85714285714286</ele><time>2026-03-28T08:32:56.744Z</time></trkpt><trkpt lat="44.4119883" lon="11.2258567"><ele>196.0</ele><time>2026-03-28T08:32:59.745Z</time></trkpt><trkpt lat="44.41196" lon="11.225755"><ele>196.0</ele><time>2026-03-28T08:33:02.745Z</time></trkpt><trkpt lat="44.4119317" lon="11.2256583"><ele>196.0</ele><time>2026-03-28T08:33:05.744Z</time></trkpt><trkpt lat="44.411905" lon="11.22556"><ele>196.0</ele><time>2026-03-28T08:33:08.745Z</time></trkpt><trkpt lat="44.4118767" lon="11.2254733"><ele>196.0</ele><time>2026-03-28T08:33:11.745Z</time></trkpt><trkpt lat="44.41184" lon="11.22537"><ele>196.0</ele><time>2026-03-28T08:33:15.744Z</time></trkpt><trkpt lat="44.4118083" lon="11.2252817"><ele>196.0</ele><time>2026-03-28T08:33:18.744Z</time></trkpt><trkpt lat="44.41179" lon="11.22518"><ele>196.0</ele><time>2026-03-28T08:33:21.745Z</time></trkpt><trkpt lat="44.4117933" lon="11.225085"><ele>196.83333333333331</ele><time>2026-03-28T08:33:24.745Z</time></trkpt><trkpt lat="44.41181" lon="11.224995"><ele>197.66666666666666</ele><time>2026-03-28T08:33:27.745Z</time></trkpt><trkpt lat="44.41183" lon="11.224895"><ele>198.5</ele><time>2026-03-28T08:33:30.744Z</time></trkpt><trkpt lat="44.4118733" lon="11.22482"><ele>199.33333333333331</ele><time>2026-03-28T08:33:33.745Z</time></trkpt><trkpt lat="44.4119367" lon="11.2247533"><ele>200.16666666666666</ele><time>2026-03-28T08:33:36.745Z</time></trkpt><trkpt lat="44.4119867" lon="11.2246717"><ele>201.0</ele><time>2026-03-28T08:33:39.745Z</time></trkpt><trkpt lat="44.4120533" lon="11.2245983"><ele>201.0</ele><time>2026-03-28T08:33:42.745Z</time></trkpt><trkpt lat="44.4121283" lon="11.2245583"><ele>201.0</ele><time>2026-03-28T08:33:45.745Z</time></trkpt><trkpt lat="44.4121683" lon="11.224645"><ele>201.0</ele><time>2026-03-28T08:33:48.744Z</time></trkpt><trkpt lat="44.4121483" lon="11.2247417"><ele>201.0</ele><time>2026-03-28T08:33:51.745Z</time></trkpt><trkpt lat="44.4121233" lon="11.2248367"><ele>201.0</ele><time>2026-03-28T08:33:54.745Z</time></trkpt><trkpt lat="44.4121133" lon="11.22493"><ele>201.0</ele><time>2026-03-28T08:33:57.745Z</time></trkpt><trkpt lat="44.4120917" lon="11.2250317"><ele>201.0</ele><time>2026-03-28T08:34:00.745Z</time></trkpt><trkpt lat="44.412105" lon="11.225135"><ele>201.14285714285714</ele><time>2026-03-28T08:34:03.744Z</time></trkpt><trkpt lat="44.4121117" lon="11.2252267"><ele>201.2857142857143</ele><time>2026-03-28T08:34:06.745Z</time></trkpt><trkpt lat="44.412125" lon="11.2253217"><ele>201.42857142857144</ele><time>2026-03-28T08:34:09.745Z</time></trkpt><trkpt lat="44.4121483" lon="11.2254183"><ele>201.57142857142856</ele><time>2026-03-28T08:34:12.744Z</time></trkpt><trkpt lat="44.4121783" lon="11.2255083"><ele>201.71428571428572</ele><time>2026-03-28T08:34:15.746Z</time></trkpt><trkpt lat="44.4122233" lon="11.2255867"><ele>201.85714285714286</ele><time>2026-03-28T08:34:18.746Z</time></trkpt><trkpt lat="44.412265" lon="11.2256717"><ele>202.0</ele><time>2026-03-28T08:34:21.746Z</time></trkpt><trkpt lat="44.4122917" lon="11.2257567"><ele>207.83333333333331</ele><time>2026-03-28T08:34:24.746Z</time></trkpt><trkpt lat="44.412315" lon="11.22587"><ele>213.66666666666666</ele><time>2026-03-28T08:34:27.745Z</time></trkpt><trkpt lat="44.4123" lon="11.2259767"><ele>219.5</ele><time>2026-03-28T08:34:30.745Z</time></trkpt><trkpt lat="44.4122883" lon="11.2260917"><ele>225.33333333333331</ele><time>2026-03-28T08:34:33.746Z</time></trkpt><trkpt lat="44.412295" lon="11.2262117"><ele>231.16666666666666</ele><time>2026-03-28T08:34:36.745Z</time></trkpt><trkpt lat="44.41235" lon="11.22629"><ele>237.0</ele><time>2026-03-28T08:34:39.745Z</time></trkpt><trkpt lat="44.4124217" lon="11.2262417"><ele>237.0</ele><time>2026-03-28T08:34:42.746Z</time></trkpt><trkpt lat="44.4124533" lon="11.22613"><ele>237.0</ele><time>2026-03-28T08:34:45.746Z</time></trkpt><trkpt lat="44.4124683" lon="11.22601"><ele>237.0</ele><time>2026-03-28T08:34:48.746Z</time></trkpt><trkpt lat="44.41247" lon="11.2258983"><ele>237.0</ele><time>2026-03-28T08:34:51.745Z</time></trkpt><trkpt lat="44.4124667" lon="11.2257867"><ele>237.0</ele><time>2026-03-28T08:34:54.746Z</time></trkpt><trkpt lat="44.41246" lon="11.22567"><ele>237.0</ele><time>2026-03-28T08:34:57.745Z</time></trkpt><trkpt lat="44.4124533" lon="11.225555"><ele>237.1428571428571</ele><time>2026-03-28T08:35:00.746Z</time></trkpt><trkpt lat="44.41244" lon="11.2254517"><ele>237.28571428571428</ele><time>2026-03-28T08:35:03.745Z</time></trkpt><trkpt lat="44.412425" lon="11.2253467"><ele>237.42857142857142</ele><time>2026-03-28T08:35:06.746Z</time></trkpt><trkpt lat="44.412405" lon="11.225255"><ele>237.57142857142856</ele><time>2026-03-28T08:35:09.745Z</time></trkpt><trkpt lat="44.41239" lon="11.22515"><ele>237.71428571428572</ele><time>2026-03-28T08:35:12.746Z</time></trkpt><trkpt lat="44.4123917" lon="11.2250433"><ele>237.85714285714286</ele><time>2026-03-28T08:35:15.746Z</time></trkpt><trkpt lat="44.4124033" lon="11.2249467"><ele>238.0</ele><time>2026-03-28T08:35:18.745Z</time></trkpt><trkpt lat="44.4124367" lon="11.22486"><ele>235.49999999999997</ele><time>2026-03-28T08:35:21.746Z</time></trkpt><trkpt lat="44.4124833" lon="11.22479"><ele>233.0</ele><time>2026-03-28T08:35:24.746Z</time></trkpt><trkpt lat="44.4125483" lon="11.22473"><ele>230.5</ele><time>2026-03-28T08:35:27.746Z</time></trkpt><trkpt lat="44.412615" lon="11.2246683"><ele>228.0</ele><time>2026-03-28T08:35:30.746Z</time></trkpt><trkpt lat="44.412685" lon="11.224625"><ele>225.49999999999997</ele><time>2026-03-28T08:35:33.745Z</time></trkpt><trkpt lat="44.41275" lon="11.224575"><ele>223.0</ele><time>2026-03-28T08:35:36.746Z</time></trkpt><trkpt lat="44.41282" lon="11.22453"><ele>222.99999999999997</ele><time>2026-03-28T08:35:39.746Z</time></trkpt><trkpt lat="44.4128867" lon="11.2244817"><ele>223.0</ele><time>2026-03-28T08:35:42.746Z</time></trkpt><trkpt lat="44.4129467" lon="11.224425"><ele>223.0</ele><time>2026-03-28T08:35:45.745Z</time></trkpt><trkpt lat="44.4130167" lon="11.224365"><ele>223.0</ele><time>2026-03-28T08:35:48.746Z</time></trkpt><trkpt lat="44.4130783" lon="11.2243117"><ele>222.99999999999997</ele><time>2026-03-28T08:35:51.745Z</time></trkpt><trkpt lat="44.4131467" lon="11.22426"><ele>223.0</ele><time>2026-03-28T08:35:54.746Z</time></trkpt><trkpt lat="44.4132167" lon="11.2242167"><ele>224.49999999999997</ele><time>2026-03-28T08:35:57.745Z</time></trkpt><trkpt lat="44.4132933" lon="11.2241833"><ele>226.0</ele><time>2026-03-28T08:36:00.746Z</time></trkpt><trkpt lat="44.4133683" lon="11.2241383"><ele>227.5</ele><time>2026-03-28T08:36:03.745Z</time></trkpt><trkpt lat="44.413435" lon="11.2241"><ele>229.0</ele><time>2026-03-28T08:36:06.746Z</time></trkpt><trkpt lat="44.4135" lon="11.22404"><ele>230.49999999999997</ele><time>2026-03-28T08:36:09.746Z</time></trkpt><trkpt lat="44.4135617" lon="11.22397"><ele>232.0</ele><time>2026-03-28T08:36:12.746Z</time></trkpt><trkpt lat="44.4136233" lon="11.2239067"><ele>231.99999999999997</ele><time>2026-03-28T08:36:15.746Z</time></trkpt><trkpt lat="44.4136833" lon="11.2238367"><ele>232.0</ele><time>2026-03-28T08:36:18.745Z</time></trkpt><trkpt lat="44.413745" lon="11.223765"><ele>232.0</ele><time>2026-03-28T08:36:21.746Z</time></trkpt><trkpt lat="44.4138067" lon="11.2237017"><ele>232.0</ele><time>2026-03-28T08:36:24.746Z</time></trkpt><trkpt lat="44.41387" lon="11.2236417"><ele>231.99999999999997</ele><time>2026-03-28T08:36:27.745Z</time></trkpt><trkpt lat="44.413925" lon="11.2235717"><ele>232.0</ele><time>2026-03-28T08:36:30.746Z</time></trkpt><trkpt lat="44.4139733" lon="11.2234933"><ele>234.83333333333331</ele><time>2026-03-28T08:36:33.746Z</time></trkpt><trkpt lat="44.4140283" lon="11.2234183"><ele>237.66666666666666</ele><time>2026-03-28T08:36:36.746Z</time></trkpt><trkpt lat="44.41407" lon="11.223335"><ele>240.5</ele><time>2026-03-28T08:36:39.746Z</time></trkpt><trkpt lat="44.4141133" lon="11.223245"><ele>243.33333333333331</ele><time>2026-03-28T08:36:42.746Z</time></trkpt><trkpt lat="44.4141533" lon="11.223145"><ele>246.16666666666666</ele><time>2026-03-28T08:36:45.746Z</time></trkpt><trkpt lat="44.4141817" lon="11.2230483"><ele>249.0</ele><time>2026-03-28T08:36:48.746Z</time></trkpt><trkpt lat="44.4142017" lon="11.222935"><ele>249.0</ele><time>2026-03-28T08:36:51.746Z</time></trkpt><trkpt lat="44.414215" lon="11.2228267"><ele>249.0</ele><time>2026-03-28T08:36:54.745Z</time></trkpt><trkpt lat="44.4142333" lon="11.2227233"><ele>249.0</ele><time>2026-03-28T08:36:57.746Z</time></trkpt><trkpt lat="44.4142617" lon="11.2226133"><ele>249.0</ele><time>2026-03-28T08:37:00.746Z</time></trkpt><trkpt lat="44.4143167" lon="11.22253"><ele>249.0</ele><time>2026-03-28T08:37:03.746Z</time></trkpt><trkpt lat="44.4143767" lon="11.222455"><ele>249.0</ele><time>2026-03-28T08:37:06.746Z</time></trkpt><trkpt lat="44.4144417" lon="11.2224"><ele>249.0</ele><time>2026-03-28T08:37:09.746Z</time></trkpt><trkpt lat="44.4145117" lon="11.2223217"><ele>249.0</ele><time>2026-03-28T08:37:12.746Z</time></trkpt><trkpt lat="44.41457" lon="11.222225"><ele>249.0</ele><time>2026-03-28T08:37:15.746Z</time></trkpt><trkpt lat="44.4145967" lon="11.222145"><ele>249.0</ele><time>2026-03-28T08:37:17.746Z</time></trkpt><trkpt lat="44.4146167" lon="11.2220167"><ele>249.0</ele><time>2026-03-28T08:37:20.745Z</time></trkpt><trkpt lat="44.4146367" lon="11.2218917"><ele>249.0</ele><time>2026-03-28T08:37:23.746Z</time></trkpt><trkpt lat="44.41465" lon="11.221765"><ele>255.0</ele><time>2026-03-28T08:37:26.745Z</time></trkpt><trkpt lat="44.414685" lon="11.2216433"><ele>261.0</ele><time>2026-03-28T08:37:29.746Z</time></trkpt><trkpt lat="44.41472" lon="11.22153"><ele>267.0</ele><time>2026-03-28T08:37:32.746Z</time></trkpt><trkpt lat="44.41474" lon="11.221405"><ele>273.0</ele><time>2026-03-28T08:37:35.746Z</time></trkpt><trkpt lat="44.4147433" lon="11.22128"><ele>279.0</ele><time>2026-03-28T08:37:38.746Z</time></trkpt><trkpt lat="44.4147367" lon="11.2211567"><ele>279.1666666666667</ele><time>2026-03-28T08:37:41.746Z</time></trkpt><trkpt lat="44.4147267" lon="11.221035"><ele>279.3333333333333</ele><time>2026-03-28T08:37:44.746Z</time></trkpt><trkpt lat="44.4147133" lon="11.2209483"><ele>279.5</ele><time>2026-03-28T08:37:46.745Z</time></trkpt><trkpt lat="44.4146967" lon="11.22086"><ele>279.66666666666663</ele><time>2026-03-28T08:37:48.746Z</time></trkpt><trkpt lat="44.41468" lon="11.2207417"><ele>279.8333333333333</ele><time>2026-03-28T08:37:51.746Z</time></trkpt><trkpt lat="44.4146833" lon="11.2206233"><ele>280.0</ele><time>2026-03-28T08:37:54.745Z</time></trkpt><trkpt lat="44.414705" lon="11.2204983"><ele>280.0</ele><time>2026-03-28T08:37:57.746Z</time></trkpt><trkpt lat="44.4147417" lon="11.2203767"><ele>280.0</ele><time>2026-03-28T08:38:00.746Z</time></trkpt><trkpt lat="44.4147667" lon="11.2202933"><ele>280.0</ele><time>2026-03-28T08:38:02.745Z</time></trkpt><trkpt lat="44.4148083" lon="11.2201833"><ele>280.0</ele><time>2026-03-28T08:38:05.745Z</time></trkpt><trkpt lat="44.414845" lon="11.2200733"><ele>280.0</ele><time>2026-03-28T08:38:08.746Z</time></trkpt><trkpt lat="44.414865" lon="11.2199667"><ele>280.0</ele><time>2026-03-28T08:38:11.745Z</time></trkpt><trkpt lat="44.41489" lon="11.21987"><ele>280.2</ele><time>2026-03-28T08:38:14.746Z</time></trkpt><trkpt lat="44.4149217" lon="11.2197533"><ele>280.4</ele><time>2026-03-28T08:38:17.746Z</time></trkpt><trkpt lat="44.414965" lon="11.2196533"><ele>280.6</ele><time>2026-03-28T08:38:20.746Z</time></trkpt><trkpt lat="44.4150033" lon="11.2195283"><ele>280.8</ele><time>2026-03-28T08:38:23.745Z</time></trkpt><trkpt lat="44.4150383" lon="11.2194083"><ele>281.0</ele><time>2026-03-28T08:38:26.745Z</time></trkpt><trkpt lat="44.4150467" lon="11.2192817"><ele>281.0</ele><time>2026-03-28T08:38:29.746Z</time></trkpt><trkpt lat="44.41504" lon="11.21916"><ele>281.0</ele><time>2026-03-28T08:38:32.746Z</time></trkpt><trkpt lat="44.4150083" lon="11.219075"><ele>281.0</ele><time>2026-03-28T08:38:34.746Z</time></trkpt><trkpt lat="44.414955" lon="11.21899"><ele>281.0</ele><time>2026-03-28T08:38:37.746Z</time></trkpt><trkpt lat="44.414885" lon="11.2189067"><ele>281.0</ele><time>2026-03-28T08:38:40.746Z</time></trkpt><trkpt lat="44.41482" lon="11.218845"><ele>281.0</ele><time>2026-03-28T08:38:43.746Z</time></trkpt><trkpt lat="44.4147417" lon="11.2187917"><ele>282.33333333333337</ele><time>2026-03-28T08:38:46.746Z</time></trkpt><trkpt lat="44.4146683" lon="11.2187417"><ele>283.6666666666667</ele><time>2026-03-28T08:38:49.745Z</time></trkpt><trkpt lat="44.414595" lon="11.2186917"><ele>285.0</ele><time>2026-03-28T08:38:52.746Z</time></trkpt><trkpt lat="44.4145383" lon="11.2185967"><ele>286.3333333333333</ele><time>2026-03-28T08:38:55.746Z</time></trkpt><trkpt lat="44.41449" lon="11.218495"><ele>287.66666666666663</ele><time>2026-03-28T08:38:58.746Z</time></trkpt><trkpt lat="44.4144267" lon="11.2184183"><ele>289.0</ele><time>2026-03-28T08:39:01.746Z</time></trkpt><trkpt lat="44.4143667" lon="11.2183517"><ele>289.0</ele><time>2026-03-28T08:39:04.745Z</time></trkpt><trkpt lat="44.414305" lon="11.21832"><ele>289.0</ele><time>2026-03-28T08:39:06.745Z</time></trkpt><trkpt lat="44.4142167" lon="11.2183"><ele>289.0</ele><time>2026-03-28T08:39:09.746Z</time></trkpt><trkpt lat="44.4141517" lon="11.2183117"><ele>289.0</ele><time>2026-03-28T08:39:11.746Z</time></trkpt><trkpt lat="44.4140867" lon="11.21832"><ele>289.0</ele><time>2026-03-28T08:39:13.745Z</time></trkpt><trkpt lat="44.4139983" lon="11.2183467"><ele>289.0</ele><time>2026-03-28T08:39:16.746Z</time></trkpt><trkpt lat="44.4139183" lon="11.2183617"><ele>289.0</ele><time>2026-03-28T08:39:19.745Z</time></trkpt><trkpt lat="44.41386" lon="11.218395"><ele>289.0</ele><time>2026-03-28T08:39:21.746Z</time></trkpt><trkpt lat="44.4137783" lon="11.21845"><ele>289.0</ele><time>2026-03-28T08:39:24.745Z</time></trkpt><trkpt lat="44.413705" lon="11.2185217"><ele>289.0</ele><time>2026-03-28T08:39:27.745Z</time></trkpt><trkpt lat="44.4136517" lon="11.2185767"><ele>289.0</ele><time>2026-03-28T08:39:29.746Z</time></trkpt><trkpt lat="44.4135633" lon="11.2185967"><ele>289.0</ele><time>2026-03-28T08:39:32.747Z</time></trkpt><trkpt lat="44.413515" lon="11.2185367"><ele>289.0</ele><time>2026-03-28T08:39:34.747Z</time></trkpt><trkpt lat="44.413585" lon="11.2184367"><ele>289.0</ele><time>2026-03-28T08:39:37.746Z</time></trkpt><trkpt lat="44.4136583" lon="11.21841"><ele>289.0</ele><time>2026-03-28T08:39:39.746Z</time></trkpt><trkpt lat="44.4137183" lon="11.2183783"><ele>289.0</ele><time>2026-03-28T08:39:41.747Z</time></trkpt><trkpt lat="44.4138017" lon="11.2183167"><ele>289.0</ele><time>2026-03-28T08:39:44.746Z</time></trkpt><trkpt lat="44.41386" lon="11.21828"><ele>289.0</ele><time>2026-03-28T08:39:46.747Z</time></trkpt><trkpt lat="44.4139383" lon="11.2182067"><ele>289.0</ele><time>2026-03-28T08:39:49.746Z</time></trkpt><trkpt lat="44.4139933" lon="11.2181583"><ele>289.0</ele><time>2026-03-28T08:39:51.747Z</time></trkpt><trkpt lat="44.4140633" lon="11.21808"><ele>289.0</ele><time>2026-03-28T08:39:54.747Z</time></trkpt><trkpt lat="44.414145" lon="11.2180217"><ele>289.0</ele><time>2026-03-28T08:39:57.747Z</time></trkpt><trkpt lat="44.414225" lon="11.2179717"><ele>289.0</ele><time>2026-03-28T08:40:00.747Z</time></trkpt><trkpt lat="44.4142817" lon="11.217915"><ele>289.0</ele><time>2026-03-28T08:40:03.746Z</time></trkpt><trkpt lat="44.41434" lon="11.21784"><ele>290.3333333333333</ele><time>2026-03-28T08:40:06.746Z</time></trkpt><trkpt lat="44.41438" lon="11.2177433"><ele>291.66666666666663</ele><time>2026-03-28T08:40:09.747Z</time></trkpt><trkpt lat="44.4143967" lon="11.2176433"><ele>293.0</ele><time>2026-03-28T08:40:12.747Z</time></trkpt><trkpt lat="44.4143917" lon="11.2175283"><ele>294.3333333333333</ele><time>2026-03-28T08:40:15.747Z</time></trkpt><trkpt lat="44.4143767" lon="11.2174217"><ele>295.6666666666667</ele><time>2026-03-28T08:40:18.746Z</time></trkpt><trkpt lat="44.4143583" lon="11.21731"><ele>297.0</ele><time>2026-03-28T08:40:21.747Z</time></trkpt><trkpt lat="44.4143567" lon="11.2172067"><ele>299.0</ele><time>2026-03-28T08:40:24.746Z</time></trkpt><trkpt lat="44.414345" lon="11.2170933"><ele>301.0</ele><time>2026-03-28T08:40:27.747Z</time></trkpt><trkpt lat="44.4143233" lon="11.2170017"><ele>303.0</ele><time>2026-03-28T08:40:30.746Z</time></trkpt><trkpt lat="44.414305" lon="11.2169"><ele>305.0</ele><time>2026-03-28T08:40:33.747Z</time></trkpt><trkpt lat="44.41429" lon="11.2167883"><ele>307.0</ele><time>2026-03-28T08:40:36.747Z</time></trkpt><trkpt lat="44.414275" lon="11.2166767"><ele>309.0</ele><time>2026-03-28T08:40:39.747Z</time></trkpt><trkpt lat="44.4142567" lon="11.21656"><ele>310.3333333333333</ele><time>2026-03-28T08:40:43.747Z</time></trkpt><trkpt lat="44.41422" lon="11.2164683"><ele>311.6666666666667</ele><time>2026-03-28T08:40:46.747Z</time></trkpt><trkpt lat="44.4141617" lon="11.2163833"><ele>313.0</ele><time>2026-03-28T08:40:50.746Z</time></trkpt><trkpt lat="44.4141083" lon="11.2163217"><ele>314.33333333333337</ele><time>2026-03-28T08:40:53.747Z</time></trkpt><trkpt lat="44.4140633" lon="11.2162417"><ele>315.6666666666667</ele><time>2026-03-28T08:40:56.747Z</time></trkpt><trkpt lat="44.4140267" lon="11.216145"><ele>317.0</ele><time>2026-03-28T08:40:59.747Z</time></trkpt><trkpt lat="44.4139933" lon="11.2160483"><ele>317.0</ele><time>2026-03-28T08:41:02.747Z</time></trkpt><trkpt lat="44.41398" lon="11.2159567"><ele>317.0</ele><time>2026-03-28T08:41:05.747Z</time></trkpt><trkpt lat="44.4139817" lon="11.215855"><ele>317.0</ele><time>2026-03-28T08:41:09.747Z</time></trkpt><trkpt lat="44.4140267" lon="11.2157617"><ele>317.0</ele><time>2026-03-28T08:41:13.747Z</time></trkpt><trkpt lat="44.414085" lon="11.21571"><ele>317.0</ele><time>2026-03-28T08:41:16.747Z</time></trkpt><trkpt lat="44.4141417" lon="11.21565"><ele>317.0</ele><time>2026-03-28T08:41:19.747Z</time></trkpt><trkpt lat="44.4141983" lon="11.2155917"><ele>317.0</ele><time>2026-03-28T08:41:22.746Z</time></trkpt><trkpt lat="44.4142417" lon="11.2155133"><ele>317.0</ele><time>2026-03-28T08:41:25.747Z</time></trkpt><trkpt lat="44.41429" lon="11.21544"><ele>317.0</ele><time>2026-03-28T08:41:28.746Z</time></trkpt><trkpt lat="44.4143333" lon="11.2153533"><ele>317.0</ele><time>2026-03-28T08:41:31.746Z</time></trkpt><trkpt lat="44.41437" lon="11.215275"><ele>317.0</ele><time>2026-03-28T08:41:34.747Z</time></trkpt><trkpt lat="44.4143983" lon="11.2151867"><ele>317.0</ele><time>2026-03-28T08:41:37.747Z</time></trkpt><trkpt lat="44.4144217" lon="11.2150983"><ele>317.0</ele><time>2026-03-28T08:41:40.746Z</time></trkpt><trkpt lat="44.4144583" lon="11.21499"><ele>317.0</ele><time>2026-03-28T08:41:44.747Z</time></trkpt><trkpt lat="44.4145133" lon="11.2149067"><ele>317.0</ele><time>2026-03-28T08:41:48.747Z</time></trkpt><trkpt lat="44.4145667" lon="11.214855"><ele>317.0</ele><time>2026-03-28T08:41:51.747Z</time></trkpt><trkpt lat="44.4146317" lon="11.2147867"><ele>317.0</ele><time>2026-03-28T08:41:55.746Z</time></trkpt><trkpt lat="44.414685" lon="11.2147217"><ele>317.0</ele><time>2026-03-28T08:41:58.747Z</time></trkpt><trkpt lat="44.41474" lon="11.2146633"><ele>317.0</ele><time>2026-03-28T08:42:01.747Z</time></trkpt><trkpt lat="44.4147917" lon="11.214605"><ele>317.0</ele><time>2026-03-28T08:42:04.746Z</time></trkpt><trkpt lat="44.4148433" lon="11.214545"><ele>317.0</ele><time>2026-03-28T08:42:07.747Z</time></trkpt><trkpt lat="44.4149" lon="11.2144933"><ele>318.2857142857143</ele><time>2026-03-28T08:42:10.747Z</time></trkpt><trkpt lat="44.4149533" lon="11.21443"><ele>319.57142857142856</ele><time>2026-03-28T08:42:13.747Z</time></trkpt><trkpt lat="44.415005" lon="11.2143667"><ele>320.8571428571429</ele><time>2026-03-28T08:42:16.746Z</time></trkpt><trkpt lat="44.4150617" lon="11.21431"><ele>322.1428571428571</ele><time>2026-03-28T08:42:19.746Z</time></trkpt><trkpt lat="44.4151183" lon="11.214245"><ele>323.4285714285714</ele><time>2026-03-28T08:42:22.747Z</time></trkpt><trkpt lat="44.4151667" lon="11.2141767"><ele>324.7142857142857</ele><time>2026-03-28T08:42:25.747Z</time></trkpt><trkpt lat="44.4152117" lon="11.2141133"><ele>326.0</ele><time>2026-03-28T08:42:28.746Z</time></trkpt><trkpt lat="44.415265" lon="11.2140467"><ele>325.42857142857144</ele><time>2026-03-28T08:42:31.747Z</time></trkpt><trkpt lat="44.4153067" lon="11.2139717"><ele>324.85714285714283</ele><time>2026-03-28T08:42:34.747Z</time></trkpt><trkpt lat="44.415355" lon="11.2139033"><ele>324.2857142857143</ele><time>2026-03-28T08:42:37.747Z</time></trkpt><trkpt lat="44.4154017" lon="11.2138283"><ele>323.7142857142857</ele><time>2026-03-28T08:42:40.747Z</time></trkpt><trkpt lat="44.415445" lon="11.2137433"><ele>323.1428571428571</ele><time>2026-03-28T08:42:43.747Z</time></trkpt><trkpt lat="44.415485" lon="11.213665"><ele>322.57142857142856</ele><time>2026-03-28T08:42:46.747Z</time></trkpt><trkpt lat="44.4155233" lon="11.2135783"><ele>322.0</ele><time>2026-03-28T08:42:49.747Z</time></trkpt><trkpt lat="44.41555" lon="11.21348"><ele>324.0</ele><time>2026-03-28T08:42:53.747Z</time></trkpt><trkpt lat="44.4155567" lon="11.21338"><ele>326.0</ele><time>2026-03-28T08:42:56.746Z</time></trkpt><trkpt lat="44.4155733" lon="11.213265"><ele>328.0</ele><time>2026-03-28T08:43:00.746Z</time></trkpt><trkpt lat="44.4155983" lon="11.21318"><ele>330.0</ele><time>2026-03-28T08:43:03.747Z</time></trkpt><trkpt lat="44.4156217" lon="11.213075"><ele>332.0</ele><time>2026-03-28T08:43:06.746Z</time></trkpt><trkpt lat="44.4156483" lon="11.212975"><ele>334.0</ele><time>2026-03-28T08:43:09.746Z</time></trkpt><trkpt lat="44.4156783" lon="11.2128867"><ele>336.0</ele><time>2026-03-28T08:43:12.747Z</time></trkpt><trkpt lat="44.4157383" lon="11.21282"><ele>336.0</ele><time>2026-03-28T08:43:15.746Z</time></trkpt><trkpt lat="44.4158067" lon="11.2128117"><ele>336.0</ele><time>2026-03-28T08:43:18.747Z</time></trkpt><trkpt lat="44.415875" lon="11.2128367"><ele>336.0</ele><time>2026-03-28T08:43:21.747Z</time></trkpt><trkpt lat="44.4159367" lon="11.2128567"><ele>336.0</ele><time>2026-03-28T08:43:23.747Z</time></trkpt><trkpt lat="44.4160283" lon="11.2128867"><ele>336.0</ele><time>2026-03-28T08:43:26.746Z</time></trkpt><trkpt lat="44.4161183" lon="11.2129"><ele>336.0</ele><time>2026-03-28T08:43:29.747Z</time></trkpt><trkpt lat="44.416215" lon="11.2128917"><ele>336.0</ele><time>2026-03-28T08:43:32.747Z</time></trkpt><trkpt lat="44.416305" lon="11.2128767"><ele>336.0</ele><time>2026-03-28T08:43:35.747Z</time></trkpt><trkpt lat="44.4163683" lon="11.2128467"><ele>336.0</ele><time>2026-03-28T08:43:37.747Z</time></trkpt><trkpt lat="44.4164317" lon="11.2128083"><ele>336.0</ele><time>2026-03-28T08:43:39.747Z</time></trkpt><trkpt lat="44.4164917" lon="11.2127533"><ele>336.0</ele><time>2026-03-28T08:43:41.747Z</time></trkpt><trkpt lat="44.4165583" lon="11.212705"><ele>336.0</ele><time>2026-03-28T08:43:43.747Z</time></trkpt><trkpt lat="44.4166217" lon="11.2126383"><ele>337.5</ele><time>2026-03-28T08:43:45.746Z</time></trkpt><trkpt lat="44.416685" lon="11.2125783"><ele>339.0</ele><time>2026-03-28T08:43:47.747Z</time></trkpt><trkpt lat="44.4167467" lon="11.2125183"><ele>340.5</ele><time>2026-03-28T08:43:49.746Z</time></trkpt><trkpt lat="44.4168083" lon="11.212455"><ele>342.0</ele><time>2026-03-28T08:43:51.747Z</time></trkpt><trkpt lat="44.416875" lon="11.2123717"><ele>343.5</ele><time>2026-03-28T08:43:53.746Z</time></trkpt><trkpt lat="44.41694" lon="11.21229"><ele>345.0</ele><time>2026-03-28T08:43:55.746Z</time></trkpt><trkpt lat="44.417005" lon="11.212215"><ele>345.0</ele><time>2026-03-28T08:43:57.747Z</time></trkpt><trkpt lat="44.4170683" lon="11.212135"><ele>345.0</ele><time>2026-03-28T08:43:59.746Z</time></trkpt><trkpt lat="44.41713" lon="11.212055"><ele>345.0</ele><time>2026-03-28T08:44:01.747Z</time></trkpt><trkpt lat="44.4171983" lon="11.211985"><ele>345.0</ele><time>2026-03-28T08:44:03.746Z</time></trkpt><trkpt lat="44.417255" lon="11.2119217"><ele>345.0</ele><time>2026-03-28T08:44:05.746Z</time></trkpt><trkpt lat="44.4173117" lon="11.21185"><ele>345.0</ele><time>2026-03-28T08:44:07.747Z</time></trkpt><trkpt lat="44.4173717" lon="11.21178"><ele>346.14285714285717</ele><time>2026-03-28T08:44:09.746Z</time></trkpt><trkpt lat="44.417425" lon="11.21171"><ele>347.2857142857143</ele><time>2026-03-28T08:44:11.747Z</time></trkpt><trkpt lat="44.4174783" lon="11.2116417"><ele>348.42857142857144</ele><time>2026-03-28T08:44:13.746Z</time></trkpt><trkpt lat="44.4175283" lon="11.21157"><ele>349.57142857142856</ele><time>2026-03-28T08:44:15.747Z</time></trkpt><trkpt lat="44.41758" lon="11.2115133"><ele>350.7142857142857</ele><time>2026-03-28T08:44:17.747Z</time></trkpt><trkpt lat="44.4176317" lon="11.21145"><ele>351.85714285714283</ele><time>2026-03-28T08:44:19.746Z</time></trkpt><trkpt lat="44.41768" lon="11.211365"><ele>353.0</ele><time>2026-03-28T08:44:22.746Z</time></trkpt><trkpt lat="44.4177283" lon="11.211305"><ele>354.0</ele><time>2026-03-28T08:44:25.747Z</time></trkpt><trkpt lat="44.4177467" lon="11.2111033"><ele>355.0</ele><time>2026-03-28T08:49:03.748Z</time></trkpt><trkpt lat="44.4177717" lon="11.21101"><ele>356.0</ele><time>2026-03-28T08:49:05.747Z</time></trkpt><trkpt lat="44.4178017" lon="11.21092"><ele>357.0</ele><time>2026-03-28T08:49:07.748Z</time></trkpt><trkpt lat="44.41784" lon="11.210815"><ele>358.0</ele><time>2026-03-28T08:49:09.748Z</time></trkpt><trkpt lat="44.417875" lon="11.21068"><ele>357.59999999999997</ele><time>2026-03-28T08:49:11.748Z</time></trkpt><trkpt lat="44.41791" lon="11.2105417"><ele>357.2</ele><time>2026-03-28T08:49:13.747Z</time></trkpt><trkpt lat="44.41796" lon="11.21042"><ele>356.8</ele><time>2026-03-28T08:49:15.748Z</time></trkpt><trkpt lat="44.4180183" lon="11.2103033"><ele>356.4</ele><time>2026-03-28T08:49:17.748Z</time></trkpt><trkpt lat="44.4180967" lon="11.2101833"><ele>356.0</ele><time>2026-03-28T08:49:19.747Z</time></trkpt><trkpt lat="44.4181783" lon="11.2100817"><ele>356.0</ele><time>2026-03-28T08:49:21.748Z</time></trkpt><trkpt lat="44.41827" lon="11.2100033"><ele>356.0</ele><time>2026-03-28T08:49:23.748Z</time></trkpt><trkpt lat="44.4183617" lon="11.2099133"><ele>356.0</ele><time>2026-03-28T08:49:25.748Z</time></trkpt><trkpt lat="44.4184467" lon="11.2097967"><ele>356.0</ele><time>2026-03-28T08:49:27.748Z</time></trkpt><trkpt lat="44.4185267" lon="11.2096733"><ele>361.0</ele><time>2026-03-28T08:49:29.748Z</time></trkpt><trkpt lat="44.418595" lon="11.20954"><ele>366.0</ele><time>2026-03-28T08:49:31.748Z</time></trkpt><trkpt lat="44.4186483" lon="11.2093983"><ele>371.0</ele><time>2026-03-28T08:49:33.748Z</time></trkpt><trkpt lat="44.418685" lon="11.209245"><ele>376.0</ele><time>2026-03-28T08:49:35.748Z</time></trkpt><trkpt lat="44.4187133" lon="11.209085"><ele>378.5</ele><time>2026-03-28T08:49:37.747Z</time></trkpt><trkpt lat="44.418735" lon="11.2089183"><ele>381.0</ele><time>2026-03-28T08:49:39.748Z</time></trkpt><trkpt lat="44.4187767" lon="11.2087583"><ele>383.5</ele><time>2026-03-28T08:49:41.748Z</time></trkpt><trkpt lat="44.4188333" lon="11.2086067"><ele>386.0</ele><time>2026-03-28T08:49:43.748Z</time></trkpt><trkpt lat="44.418885" lon="11.2084567"><ele>378.20000000000005</ele><time>2026-03-28T08:49:45.747Z</time></trkpt><trkpt lat="44.4189267" lon="11.2083"><ele>370.40000000000003</ele><time>2026-03-28T08:49:47.748Z</time></trkpt><trkpt lat="44.418965" lon="11.20813"><ele>362.6</ele><time>2026-03-28T08:49:49.747Z</time></trkpt><trkpt lat="44.4189867" lon="11.2079717"><ele>354.8</ele><time>2026-03-28T08:49:51.748Z</time></trkpt><trkpt lat="44.41899" lon="11.2078817"><ele>347.0</ele><time>2026-03-28T08:49:52.747Z</time></trkpt><trkpt lat="44.418995" lon="11.20771"><ele>346.5714285714286</ele><time>2026-03-28T08:49:54.748Z</time></trkpt><trkpt lat="44.41898" lon="11.2076117"><ele>346.1428571428571</ele><time>2026-03-28T08:49:55.748Z</time></trkpt><trkpt lat="44.4189583" lon="11.20752"><ele>345.7142857142857</ele><time>2026-03-28T08:49:56.747Z</time></trkpt><trkpt lat="44.418945" lon="11.2074283"><ele>345.28571428571433</ele><time>2026-03-28T08:49:57.748Z</time></trkpt><trkpt lat="44.4189283" lon="11.207325"><ele>344.8571428571429</ele><time>2026-03-28T08:49:58.748Z</time></trkpt><trkpt lat="44.4189067" lon="11.20723"><ele>344.42857142857144</ele><time>2026-03-28T08:49:59.747Z</time></trkpt><trkpt lat="44.4188883" lon="11.20712"><ele>344.0</ele><time>2026-03-28T08:50:00.748Z</time></trkpt><trkpt lat="44.4188833" lon="11.2070067"><ele>343.83333333333337</ele><time>2026-03-28T08:50:01.748Z</time></trkpt><trkpt lat="44.4189" lon="11.2068933"><ele>343.6666666666667</ele><time>2026-03-28T08:50:02.748Z</time></trkpt><trkpt lat="44.418925" lon="11.2067783"><ele>343.5</ele><time>2026-03-28T08:50:03.748Z</time></trkpt><trkpt lat="44.418955" lon="11.206675"><ele>343.3333333333333</ele><time>2026-03-28T08:50:04.748Z</time></trkpt><trkpt lat="44.4189783" lon="11.2065667"><ele>343.16666666666663</ele><time>2026-03-28T08:50:05.748Z</time></trkpt><trkpt lat="44.418985" lon="11.2064533"><ele>343.0</ele><time>2026-03-28T08:50:06.748Z</time></trkpt><trkpt lat="44.4189733" lon="11.2063317"><ele>341.5</ele><time>2026-03-28T08:50:07.748Z</time></trkpt><trkpt lat="44.4189483" lon="11.2062217"><ele>340.0</ele><time>2026-03-28T08:50:08.748Z</time></trkpt><trkpt lat="44.4189133" lon="11.2061117"><ele>338.5</ele><time>2026-03-28T08:50:09.747Z</time></trkpt><trkpt lat="44.41887" lon="11.20601"><ele>337.0</ele><time>2026-03-28T08:50:10.748Z</time></trkpt><trkpt lat="44.4188367" lon="11.2058883"><ele>335.5</ele><time>2026-03-28T08:50:11.747Z</time></trkpt><trkpt lat="44.41882" lon="11.2057583"><ele>334.0</ele><time>2026-03-28T08:50:12.748Z</time></trkpt><trkpt lat="44.4188217" lon="11.2056417"><ele>332.0</ele><time>2026-03-28T08:50:13.747Z</time></trkpt><trkpt lat="44.4188233" lon="11.20551"><ele>330.0</ele><time>2026-03-28T08:50:14.748Z</time></trkpt><trkpt lat="44.418825" lon="11.2053833"><ele>328.0</ele><time>2026-03-28T08:50:15.748Z</time></trkpt><trkpt lat="44.4188217" lon="11.2052567"><ele>326.0</ele><time>2026-03-28T08:50:16.748Z</time></trkpt><trkpt lat="44.418815" lon="11.205125"><ele>324.0</ele><time>2026-03-28T08:50:17.747Z</time></trkpt><trkpt lat="44.418805" lon="11.20499"><ele>326.4</ele><time>2026-03-28T08:50:18.748Z</time></trkpt><trkpt lat="44.4187917" lon="11.2048583"><ele>328.79999999999995</ele><time>2026-03-28T08:50:19.748Z</time></trkpt><trkpt lat="44.4187783" lon="11.2047283"><ele>331.20000000000005</ele><time>2026-03-28T08:50:20.748Z</time></trkpt><trkpt lat="44.4187633" lon="11.2045983"><ele>333.6</ele><time>2026-03-28T08:50:21.748Z</time></trkpt><trkpt lat="44.4187517" lon="11.2044633"><ele>336.0</ele><time>2026-03-28T08:50:22.748Z</time></trkpt><trkpt lat="44.4187483" lon="11.2043233"><ele>336.0</ele><time>2026-03-28T08:50:23.748Z</time></trkpt><trkpt lat="44.4187683" lon="11.204185"><ele>336.0</ele><time>2026-03-28T08:50:24.746Z</time></trkpt><trkpt lat="44.418795" lon="11.204065"><ele>336.0</ele><time>2026-03-28T08:50:25.747Z</time></trkpt><trkpt lat="44.418825" lon="11.2039417"><ele>336.0</ele><time>2026-03-28T08:50:26.748Z</time></trkpt><trkpt lat="44.4188683" lon="11.20383"><ele>336.0</ele><time>2026-03-28T08:50:27.748Z</time></trkpt><trkpt lat="44.4189033" lon="11.2037183"><ele>333.1666666666667</ele><time>2026-03-28T08:50:28.747Z</time></trkpt><trkpt lat="44.4189167" lon="11.203615"><ele>330.3333333333333</ele><time>2026-03-28T08:50:29.748Z</time></trkpt><trkpt lat="44.418905" lon="11.2035167"><ele>327.5</ele><time>2026-03-28T08:50:30.748Z</time></trkpt><trkpt lat="44.4188617" lon="11.203445"><ele>324.66666666666663</ele><time>2026-03-28T08:50:31.747Z</time></trkpt><trkpt lat="44.4187867" lon="11.2034"><ele>321.8333333333333</ele><time>2026-03-28T08:50:32.748Z</time></trkpt><trkpt lat="44.4187017" lon="11.2033967"><ele>319.0</ele><time>2026-03-28T08:50:33.748Z</time></trkpt><trkpt lat="44.4186083" lon="11.20344"><ele>319.0</ele><time>2026-03-28T08:50:34.748Z</time></trkpt><trkpt lat="44.418515" lon="11.2035033"><ele>319.0</ele><time>2026-03-28T08:50:35.747Z</time></trkpt><trkpt lat="44.4184233" lon="11.2035667"><ele>319.0</ele><time>2026-03-28T08:50:36.748Z</time></trkpt><trkpt lat="44.4183333" lon="11.2036217"><ele>319.0</ele><time>2026-03-28T08:50:37.747Z</time></trkpt><trkpt lat="44.41824" lon="11.20365"><ele>319.0</ele><time>2026-03-28T08:50:38.748Z</time></trkpt><trkpt lat="44.41814" lon="11.2036617"><ele>319.0</ele><time>2026-03-28T08:50:39.748Z</time></trkpt><trkpt lat="44.4180433" lon="11.20366"><ele>319.0</ele><time>2026-03-28T08:50:40.748Z</time></trkpt><trkpt lat="44.417945" lon="11.2036633"><ele>319.0</ele><time>2026-03-28T08:50:41.748Z</time></trkpt><trkpt lat="44.4178483" lon="11.2036933"><ele>319.0</ele><time>2026-03-28T08:50:42.748Z</time></trkpt><trkpt lat="44.4177617" lon="11.20375"><ele>319.0</ele><time>2026-03-28T08:50:43.748Z</time></trkpt><trkpt lat="44.4176917" lon="11.2038317"><ele>318.8</ele><time>2026-03-28T08:50:44.748Z</time></trkpt><trkpt lat="44.4176367" lon="11.203935"><ele>318.59999999999997</ele><time>2026-03-28T08:50:45.748Z</time></trkpt><trkpt lat="44.4175933" lon="11.2040483"><ele>318.4</ele><time>2026-03-28T08:50:46.747Z</time></trkpt><trkpt lat="44.4175567" lon="11.2041617"><ele>318.2</ele><time>2026-03-28T08:50:47.747Z</time></trkpt><trkpt lat="44.41752" lon="11.204285"><ele>318.0</ele><time>2026-03-28T08:50:48.748Z</time></trkpt><trkpt lat="44.4174767" lon="11.204395"><ele>318.0</ele><time>2026-03-28T08:50:49.748Z</time></trkpt><trkpt lat="44.417435" lon="11.2045033"><ele>318.0</ele><time>2026-03-28T08:50:50.748Z</time></trkpt><trkpt lat="44.4173783" lon="11.2046033"><ele>318.0</ele><time>2026-03-28T08:50:51.747Z</time></trkpt><trkpt lat="44.41731" lon="11.204685"><ele>318.0</ele><time>2026-03-28T08:50:52.748Z</time></trkpt><trkpt lat="44.4172383" lon="11.20475"><ele>318.0</ele><time>2026-03-28T08:50:53.748Z</time></trkpt><trkpt lat="44.4171667" lon="11.2048133"><ele>318.0</ele><time>2026-03-28T08:50:54.747Z</time></trkpt><trkpt lat="44.4170933" lon="11.2048483"><ele>317.0</ele><time>2026-03-28T08:50:55.748Z</time></trkpt><trkpt lat="44.4169817" lon="11.204835"><ele>316.0</ele><time>2026-03-28T08:50:57.747Z</time></trkpt><trkpt lat="44.4169367" lon="11.2047717"><ele>315.0</ele><time>2026-03-28T08:50:58.747Z</time></trkpt><trkpt lat="44.4169567" lon="11.204635"><ele>314.0</ele><time>2026-03-28T08:51:00.748Z</time></trkpt><trkpt lat="44.417005" lon="11.2045783"><ele>313.0</ele><time>2026-03-28T08:51:01.748Z</time></trkpt><trkpt lat="44.4170667" lon="11.2045583"><ele>312.0</ele><time>2026-03-28T08:51:02.747Z</time></trkpt><trkpt lat="44.41713" lon="11.2045317"><ele>313.0</ele><time>2026-03-28T08:51:03.748Z</time></trkpt><trkpt lat="44.4171917" lon="11.2044917"><ele>314.0</ele><time>2026-03-28T08:51:04.748Z</time></trkpt><trkpt lat="44.4172517" lon="11.20442"><ele>315.0</ele><time>2026-03-28T08:51:05.748Z</time></trkpt><trkpt lat="44.4172867" lon="11.2043383"><ele>316.0</ele><time>2026-03-28T08:51:06.748Z</time></trkpt><trkpt lat="44.4172967" lon="11.2042333"><ele>317.0</ele><time>2026-03-28T08:51:07.747Z</time></trkpt><trkpt lat="44.4172983" lon="11.2041217"><ele>318.0</ele><time>2026-03-28T08:51:08.748Z</time></trkpt><trkpt lat="44.4172817" lon="11.2040033"><ele>315.6666666666667</ele><time>2026-03-28T08:51:09.747Z</time></trkpt><trkpt lat="44.4172633" lon="11.2038883"><ele>313.3333333333333</ele><time>2026-03-28T08:51:10.748Z</time></trkpt><trkpt lat="44.4172333" lon="11.2037617"><ele>311.0</ele><time>2026-03-28T08:51:11.748Z</time></trkpt><trkpt lat="44.4172067" lon="11.203655"><ele>308.66666666666663</ele><time>2026-03-28T08:51:12.748Z</time></trkpt><trkpt lat="44.4171983" lon="11.2035417"><ele>306.3333333333333</ele><time>2026-03-28T08:51:13.749Z</time></trkpt><trkpt lat="44.4172183" lon="11.2034233"><ele>304.0</ele><time>2026-03-28T08:51:14.749Z</time></trkpt><trkpt lat="44.41726" lon="11.203325"><ele>304.0</ele><time>2026-03-28T08:51:15.749Z</time></trkpt><trkpt lat="44.417325" lon="11.2032267"><ele>304.0</ele><time>2026-03-28T08:51:16.748Z</time></trkpt><trkpt lat="44.4173933" lon="11.2031367"><ele>304.0</ele><time>2026-03-28T08:51:17.749Z</time></trkpt><trkpt lat="44.4174717" lon="11.20305"><ele>304.0</ele><time>2026-03-28T08:51:18.749Z</time></trkpt><trkpt lat="44.4175417" lon="11.20294"><ele>304.0</ele><time>2026-03-28T08:51:19.748Z</time></trkpt><trkpt lat="44.4176167" lon="11.20283"><ele>299.5</ele><time>2026-03-28T08:51:20.748Z</time></trkpt><trkpt lat="44.417695" lon="11.20271"><ele>295.0</ele><time>2026-03-28T08:51:21.749Z</time></trkpt><trkpt lat="44.4177583" lon="11.20256"><ele>290.5</ele><time>2026-03-28T08:51:22.749Z</time></trkpt><trkpt lat="44.41783" lon="11.202425"><ele>286.0</ele><time>2026-03-28T08:51:23.748Z</time></trkpt><trkpt lat="44.4178917" lon="11.202275"><ele>286.0</ele><time>2026-03-28T08:51:24.749Z</time></trkpt><trkpt lat="44.4179583" lon="11.2021267"><ele>286.0</ele><time>2026-03-28T08:51:25.749Z</time></trkpt><trkpt lat="44.4180283" lon="11.2019783"><ele>286.0</ele><time>2026-03-28T08:51:26.748Z</time></trkpt><trkpt lat="44.4180967" lon="11.201825"><ele>286.0</ele><time>2026-03-28T08:51:27.748Z</time></trkpt><trkpt lat="44.4181567" lon="11.20168"><ele>286.0</ele><time>2026-03-28T08:51:28.748Z</time></trkpt><trkpt lat="44.418205" lon="11.201535"><ele>286.0</ele><time>2026-03-28T08:51:29.749Z</time></trkpt><trkpt lat="44.418245" lon="11.20138"><ele>286.0</ele><time>2026-03-28T08:51:30.749Z</time></trkpt><trkpt lat="44.4182717" lon="11.20123"><ele>286.0</ele><time>2026-03-28T08:51:31.749Z</time></trkpt><trkpt lat="44.418285" lon="11.20109"><ele>286.0</ele><time>2026-03-28T08:51:32.749Z</time></trkpt><trkpt lat="44.4182933" lon="11.20097"><ele>284.5</ele><time>2026-03-28T08:51:33.749Z</time></trkpt><trkpt lat="44.418305" lon="11.2008517"><ele>283.0</ele><time>2026-03-28T08:51:34.749Z</time></trkpt><trkpt lat="44.41833" lon="11.2007483"><ele>281.5</ele><time>2026-03-28T08:51:35.749Z</time></trkpt><trkpt lat="44.41838" lon="11.2006533"><ele>280.0</ele><time>2026-03-28T08:51:36.749Z</time></trkpt><trkpt lat="44.41845" lon="11.2005667"><ele>278.5</ele><time>2026-03-28T08:51:37.748Z</time></trkpt><trkpt lat="44.4185233" lon="11.20049"><ele>277.0</ele><time>2026-03-28T08:51:38.749Z</time></trkpt><trkpt lat="44.4186017" lon="11.2004167"><ele>276.4</ele><time>2026-03-28T08:51:39.748Z</time></trkpt><trkpt lat="44.418685" lon="11.2003383"><ele>275.79999999999995</ele><time>2026-03-28T08:51:40.748Z</time></trkpt><trkpt lat="44.4187717" lon="11.2002583"><ele>275.2</ele><time>2026-03-28T08:51:41.748Z</time></trkpt><trkpt lat="44.41885" lon="11.200155"><ele>274.59999999999997</ele><time>2026-03-28T08:51:42.749Z</time></trkpt><trkpt lat="44.4189267" lon="11.2000467"><ele>274.0</ele><time>2026-03-28T08:51:43.748Z</time></trkpt><trkpt lat="44.419" lon="11.199915"><ele>271.16666666666663</ele><time>2026-03-28T08:51:44.749Z</time></trkpt><trkpt lat="44.4190633" lon="11.1998067"><ele>268.3333333333333</ele><time>2026-03-28T08:51:45.749Z</time></trkpt><trkpt lat="44.41911" lon="11.1997083"><ele>265.5</ele><time>2026-03-28T08:51:46.749Z</time></trkpt><trkpt lat="44.4191417" lon="11.1995983"><ele>262.6666666666667</ele><time>2026-03-28T08:51:47.749Z</time></trkpt><trkpt lat="44.4191567" lon="11.1995083"><ele>259.83333333333337</ele><time>2026-03-28T08:51:48.749Z</time></trkpt><trkpt lat="44.41914" lon="11.1994233"><ele>257.0</ele><time>2026-03-28T08:51:49.748Z</time></trkpt><trkpt lat="44.4190167" lon="11.1993783"><ele>257.0</ele><time>2026-03-28T08:51:51.748Z</time></trkpt><trkpt lat="44.41894" lon="11.1994433"><ele>257.0</ele><time>2026-03-28T08:51:52.749Z</time></trkpt><trkpt lat="44.4188667" lon="11.1995133"><ele>257.0</ele><time>2026-03-28T08:51:53.749Z</time></trkpt><trkpt lat="44.418785" lon="11.199585"><ele>257.0</ele><time>2026-03-28T08:51:54.749Z</time></trkpt><trkpt lat="44.41871" lon="11.19965"><ele>257.0</ele><time>2026-03-28T08:51:55.749Z</time></trkpt><trkpt lat="44.4186233" lon="11.1997017"><ele>256.2</ele><time>2026-03-28T08:51:56.749Z</time></trkpt><trkpt lat="44.4185333" lon="11.199735"><ele>255.39999999999998</ele><time>2026-03-28T08:51:57.749Z</time></trkpt><trkpt lat="44.4184333" lon="11.19975"><ele>254.60000000000002</ele><time>2026-03-28T08:51:58.749Z</time></trkpt><trkpt lat="44.41833" lon="11.199765"><ele>253.8</ele><time>2026-03-28T08:51:59.749Z</time></trkpt><trkpt lat="44.4182283" lon="11.1997717"><ele>253.0</ele><time>2026-03-28T08:52:00.749Z</time></trkpt><trkpt lat="44.4181283" lon="11.1997733"><ele>253.0</ele><time>2026-03-28T08:52:01.749Z</time></trkpt><trkpt lat="44.4180367" lon="11.19975"><ele>253.0</ele><time>2026-03-28T08:52:02.749Z</time></trkpt><trkpt lat="44.41795" lon="11.199705"><ele>253.0</ele><time>2026-03-28T08:52:03.748Z</time></trkpt><trkpt lat="44.4178733" lon="11.199635"><ele>253.0</ele><time>2026-03-28T08:52:04.749Z</time></trkpt><trkpt lat="44.4178083" lon="11.1995167"><ele>253.0</ele><time>2026-03-28T08:52:05.748Z</time></trkpt><trkpt lat="44.41778" lon="11.1993933"><ele>253.16666666666666</ele><time>2026-03-28T08:52:06.749Z</time></trkpt><trkpt lat="44.4177733" lon="11.1992617"><ele>253.33333333333331</ele><time>2026-03-28T08:52:07.749Z</time></trkpt><trkpt lat="44.417795" lon="11.1991517"><ele>253.5</ele><time>2026-03-28T08:52:08.749Z</time></trkpt><trkpt lat="44.4178467" lon="11.1990517"><ele>253.66666666666669</ele><time>2026-03-28T08:52:09.748Z</time></trkpt><trkpt lat="44.417905" lon="11.1989583"><ele>253.83333333333334</ele><time>2026-03-28T08:52:10.749Z</time></trkpt><trkpt lat="44.4179683" lon="11.1988583"><ele>254.0</ele><time>2026-03-28T08:52:11.749Z</time></trkpt><trkpt lat="44.4179967" lon="11.1987517"><ele>251.2</ele><time>2026-03-28T08:52:12.749Z</time></trkpt><trkpt lat="44.4180067" lon="11.1986333"><ele>248.39999999999998</ele><time>2026-03-28T08:52:13.748Z</time></trkpt><trkpt lat="44.4179933" lon="11.1985267"><ele>245.6</ele><time>2026-03-28T08:52:14.749Z</time></trkpt><trkpt lat="44.4179883" lon="11.19843"><ele>242.8</ele><time>2026-03-28T08:52:15.748Z</time></trkpt><trkpt lat="44.41802" lon="11.1982667"><ele>240.0</ele><time>2026-03-28T08:52:17.749Z</time></trkpt><trkpt lat="44.4181533" lon="11.1982333"><ele>240.0</ele><time>2026-03-28T08:52:19.749Z</time></trkpt><trkpt lat="44.4182383" lon="11.198255"><ele>240.0</ele><time>2026-03-28T08:52:20.749Z</time></trkpt><trkpt lat="44.418315" lon="11.1982817"><ele>240.0</ele><time>2026-03-28T08:52:21.748Z</time></trkpt><trkpt lat="44.41839" lon="11.1983117"><ele>240.0</ele><time>2026-03-28T08:52:22.748Z</time></trkpt><trkpt lat="44.4184617" lon="11.19835"><ele>240.0</ele><time>2026-03-28T08:52:23.749Z</time></trkpt><trkpt lat="44.41853" lon="11.1984017"><ele>240.0</ele><time>2026-03-28T08:52:24.749Z</time></trkpt><trkpt lat="44.4185983" lon="11.1984617"><ele>240.0</ele><time>2026-03-28T08:52:25.749Z</time></trkpt><trkpt lat="44.4186717" lon="11.1985183"><ele>240.0</ele><time>2026-03-28T08:52:26.749Z</time></trkpt><trkpt lat="44.4187433" lon="11.1985767"><ele>240.0</ele><time>2026-03-28T08:52:27.749Z</time></trkpt><trkpt lat="44.4188183" lon="11.198635"><ele>240.0</ele><time>2026-03-28T08:52:28.749Z</time></trkpt><trkpt lat="44.4189" lon="11.1986917"><ele>240.0</ele><time>2026-03-28T08:52:29.748Z</time></trkpt><trkpt lat="44.41898" lon="11.198755"><ele>240.0</ele><time>2026-03-28T08:52:30.749Z</time></trkpt><trkpt lat="44.4190717" lon="11.198805"><ele>238.66666666666666</ele><time>2026-03-28T08:52:31.749Z</time></trkpt><trkpt lat="44.4191667" lon="11.19883"><ele>237.33333333333331</ele><time>2026-03-28T08:52:32.749Z</time></trkpt><trkpt lat="44.419265" lon="11.1988483"><ele>236.0</ele><time>2026-03-28T08:52:33.749Z</time></trkpt><trkpt lat="44.4193333" lon="11.1988367"><ele>234.66666666666666</ele><time>2026-03-28T08:52:34.749Z</time></trkpt><trkpt lat="44.4193967" lon="11.1987833"><ele>233.33333333333331</ele><time>2026-03-28T08:52:35.749Z</time></trkpt><trkpt lat="44.4194517" lon="11.1986933"><ele>232.0</ele><time>2026-03-28T08:52:36.749Z</time></trkpt><trkpt lat="44.419485" lon="11.1985817"><ele>232.0</ele><time>2026-03-28T08:52:37.749Z</time></trkpt><trkpt lat="44.4194783" lon="11.19845"><ele>232.0</ele><time>2026-03-28T08:52:38.749Z</time></trkpt><trkpt lat="44.4194483" lon="11.19832"><ele>232.0</ele><time>2026-03-28T08:52:39.749Z</time></trkpt><trkpt lat="44.4194167" lon="11.1981883"><ele>232.0</ele><time>2026-03-28T08:52:40.748Z</time></trkpt><trkpt lat="44.4193833" lon="11.1980517"><ele>232.0</ele><time>2026-03-28T08:52:41.749Z</time></trkpt><trkpt lat="44.419355" lon="11.197915"><ele>229.8</ele><time>2026-03-28T08:52:42.749Z</time></trkpt><trkpt lat="44.4193217" lon="11.1977683"><ele>227.6</ele><time>2026-03-28T08:52:43.748Z</time></trkpt><trkpt lat="44.4192867" lon="11.1976267"><ele>225.40000000000003</ele><time>2026-03-28T08:52:44.749Z</time></trkpt><trkpt lat="44.4192467" lon="11.1974933"><ele>223.20000000000002</ele><time>2026-03-28T08:52:45.749Z</time></trkpt><trkpt lat="44.419205" lon="11.1973683"><ele>221.0</ele><time>2026-03-28T08:52:46.748Z</time></trkpt><trkpt lat="44.4191583" lon="11.1972667"><ele>219.60000000000002</ele><time>2026-03-28T08:52:47.749Z</time></trkpt><trkpt lat="44.4191167" lon="11.1971783"><ele>218.20000000000002</ele><time>2026-03-28T08:52:48.749Z</time></trkpt><trkpt lat="44.419085" lon="11.1970917"><ele>216.79999999999998</ele><time>2026-03-28T08:52:49.749Z</time></trkpt><trkpt lat="44.4190667" lon="11.1969483"><ele>215.39999999999998</ele><time>2026-03-28T08:52:51.748Z</time></trkpt><trkpt lat="44.4191433" lon="11.1968933"><ele>214.0</ele><time>2026-03-28T08:52:53.748Z</time></trkpt><trkpt lat="44.41926" lon="11.1969667"><ele>213.99999999999997</ele><time>2026-03-28T08:52:55.749Z</time></trkpt><trkpt lat="44.4193233" lon="11.1970133"><ele>214.0</ele><time>2026-03-28T08:52:56.749Z</time></trkpt><trkpt lat="44.4193933" lon="11.1970567"><ele>214.0</ele><time>2026-03-28T08:52:57.749Z</time></trkpt><trkpt lat="44.419465" lon="11.1970883"><ele>214.0</ele><time>2026-03-28T08:52:58.748Z</time></trkpt><trkpt lat="44.4195517" lon="11.1971017"><ele>213.99999999999997</ele><time>2026-03-28T08:52:59.749Z</time></trkpt><trkpt lat="44.4196383" lon="11.19712"><ele>214.0</ele><time>2026-03-28T08:53:00.749Z</time></trkpt><trkpt lat="44.4197267" lon="11.197115"><ele>213.83333333333331</ele><time>2026-03-28T08:53:01.749Z</time></trkpt><trkpt lat="44.41981" lon="11.19707"><ele>213.66666666666666</ele><time>2026-03-28T08:53:02.749Z</time></trkpt><trkpt lat="44.4198917" lon="11.19699"><ele>213.5</ele><time>2026-03-28T08:53:03.749Z</time></trkpt><trkpt lat="44.41993" lon="11.1969"><ele>213.33333333333331</ele><time>2026-03-28T08:53:04.749Z</time></trkpt><trkpt lat="44.4199467" lon="11.1967783"><ele>213.16666666666666</ele><time>2026-03-28T08:53:05.749Z</time></trkpt><trkpt lat="44.41995" lon="11.1966717"><ele>213.0</ele><time>2026-03-28T08:53:06.749Z</time></trkpt><trkpt lat="44.4199533" lon="11.1965533"><ele>214.83333333333334</ele><time>2026-03-28T08:53:07.749Z</time></trkpt><trkpt lat="44.419985" lon="11.19639"><ele>216.66666666666669</ele><time>2026-03-28T08:53:09.749Z</time></trkpt><trkpt lat="44.4200233" lon="11.1963133"><ele>218.5</ele><time>2026-03-28T08:53:10.749Z</time></trkpt><trkpt lat="44.4201233" lon="11.19625"><ele>220.33333333333334</ele><time>2026-03-28T08:53:12.749Z</time></trkpt><trkpt lat="44.4201883" lon="11.1962583"><ele>222.16666666666669</ele><time>2026-03-28T08:53:13.749Z</time></trkpt><trkpt lat="44.4202517" lon="11.1962683"><ele>224.0</ele><time>2026-03-28T08:53:14.748Z</time></trkpt><trkpt lat="44.420375" lon="11.19628"><ele>225.50000000000003</ele><time>2026-03-28T08:53:16.749Z</time></trkpt><trkpt lat="44.420485" lon="11.1963067"><ele>227.0</ele><time>2026-03-28T08:53:18.748Z</time></trkpt><trkpt lat="44.420555" lon="11.1963267"><ele>228.5</ele><time>2026-03-28T08:53:19.748Z</time></trkpt><trkpt lat="44.4206217" lon="11.196345"><ele>230.0</ele><time>2026-03-28T08:53:20.749Z</time></trkpt><trkpt lat="44.420695" lon="11.1963533"><ele>231.50000000000003</ele><time>2026-03-28T08:53:21.749Z</time></trkpt><trkpt lat="44.42077" lon="11.1963633"><ele>233.0</ele><time>2026-03-28T08:53:22.748Z</time></trkpt><trkpt lat="44.420855" lon="11.1963867"><ele>233.0</ele><time>2026-03-28T08:53:23.749Z</time></trkpt><trkpt lat="44.4209417" lon="11.1964183"><ele>233.0</ele><time>2026-03-28T08:53:24.749Z</time></trkpt><trkpt lat="44.4210283" lon="11.19648"><ele>233.0</ele><time>2026-03-28T08:53:25.748Z</time></trkpt><trkpt lat="44.4211033" lon="11.1965517"><ele>233.0</ele><time>2026-03-28T08:53:26.748Z</time></trkpt><trkpt lat="44.4211683" lon="11.1966467"><ele>233.0</ele><time>2026-03-28T08:53:27.749Z</time></trkpt><trkpt lat="44.4212233" lon="11.1967483"><ele>228.8</ele><time>2026-03-28T08:53:28.748Z</time></trkpt><trkpt lat="44.4212833" lon="11.1968467"><ele>224.60000000000002</ele><time>2026-03-28T08:53:29.749Z</time></trkpt><trkpt lat="44.4213383" lon="11.1969567"><ele>220.39999999999998</ele><time>2026-03-28T08:53:30.749Z</time></trkpt><trkpt lat="44.42139" lon="11.1970667"><ele>216.2</ele><time>2026-03-28T08:53:31.749Z</time></trkpt><trkpt lat="44.4214317" lon="11.1971983"><ele>212.0</ele><time>2026-03-28T08:53:32.748Z</time></trkpt><trkpt lat="44.42146" lon="11.1973217"><ele>210.39999999999998</ele><time>2026-03-28T08:53:33.748Z</time></trkpt><trkpt lat="44.4214833" lon="11.1974433"><ele>208.79999999999998</ele><time>2026-03-28T08:53:34.748Z</time></trkpt><trkpt lat="44.4215133" lon="11.19757"><ele>207.2</ele><time>2026-03-28T08:53:35.749Z</time></trkpt><trkpt lat="44.42154" lon="11.197695"><ele>205.6</ele><time>2026-03-28T08:53:36.748Z</time></trkpt><trkpt lat="44.42158" lon="11.19783"><ele>204.0</ele><time>2026-03-28T08:53:37.749Z</time></trkpt><trkpt lat="44.4216317" lon="11.1979417"><ele>204.0</ele><time>2026-03-28T08:53:38.748Z</time></trkpt><trkpt lat="44.421705" lon="11.1980283"><ele>204.0</ele><time>2026-03-28T08:53:39.748Z</time></trkpt><trkpt lat="44.4217883" lon="11.1981017"><ele>204.0</ele><time>2026-03-28T08:53:40.748Z</time></trkpt><trkpt lat="44.4218817" lon="11.19814"><ele>204.0</ele><time>2026-03-28T08:53:41.748Z</time></trkpt><trkpt lat="44.421985" lon="11.1981683"><ele>204.0</ele><time>2026-03-28T08:53:42.749Z</time></trkpt><trkpt lat="44.4220833" lon="11.1981833"><ele>204.0</ele><time>2026-03-28T08:53:43.749Z</time></trkpt><trkpt lat="44.4221783" lon="11.1981967"><ele>204.0</ele><time>2026-03-28T08:53:44.749Z</time></trkpt><trkpt lat="44.4222733" lon="11.1981983"><ele>204.0</ele><time>2026-03-28T08:53:45.749Z</time></trkpt><trkpt lat="44.4223683" lon="11.198185"><ele>204.0</ele><time>2026-03-28T08:53:46.748Z</time></trkpt><trkpt lat="44.4224567" lon="11.1981333"><ele>204.0</ele><time>2026-03-28T08:53:47.748Z</time></trkpt><trkpt lat="44.4225517" lon="11.198075"><ele>203.2</ele><time>2026-03-28T08:53:48.749Z</time></trkpt><trkpt lat="44.4226367" lon="11.1979917"><ele>202.39999999999998</ele><time>2026-03-28T08:53:49.749Z</time></trkpt><trkpt lat="44.422705" lon="11.1979117"><ele>201.6</ele><time>2026-03-28T08:53:50.748Z</time></trkpt><trkpt lat="44.4227783" lon="11.1978333"><ele>200.8</ele><time>2026-03-28T08:53:51.749Z</time></trkpt><trkpt lat="44.4228567" lon="11.1977533"><ele>200.0</ele><time>2026-03-28T08:53:52.748Z</time></trkpt><trkpt lat="44.4229317" lon="11.197675"><ele>199.8</ele><time>2026-03-28T08:53:53.748Z</time></trkpt><trkpt lat="44.423005" lon="11.1976"><ele>199.6</ele><time>2026-03-28T08:53:54.749Z</time></trkpt><trkpt lat="44.4230717" lon="11.1975133"><ele>199.39999999999998</ele><time>2026-03-28T08:53:55.748Z</time></trkpt><trkpt lat="44.4231383" lon="11.1974283"><ele>199.2</ele><time>2026-03-28T08:53:56.749Z</time></trkpt><trkpt lat="44.4232067" lon="11.1973367"><ele>199.0</ele><time>2026-03-28T08:53:57.748Z</time></trkpt><trkpt lat="44.423275" lon="11.1972533"><ele>199.0</ele><time>2026-03-28T08:53:58.749Z</time></trkpt><trkpt lat="44.4233517" lon="11.1971717"><ele>199.0</ele><time>2026-03-28T08:53:59.749Z</time></trkpt><trkpt lat="44.4234267" lon="11.1970883"><ele>199.0</ele><time>2026-03-28T08:54:00.749Z</time></trkpt><trkpt lat="44.42349" lon="11.1970117"><ele>199.0</ele><time>2026-03-28T08:54:01.748Z</time></trkpt><trkpt lat="44.4235617" lon="11.1969367"><ele>199.0</ele><time>2026-03-28T08:54:02.749Z</time></trkpt><trkpt lat="44.4236417" lon="11.19687"><ele>198.99999999999997</ele><time>2026-03-28T08:54:03.749Z</time></trkpt><trkpt lat="44.42371" lon="11.1968133"><ele>199.0</ele><time>2026-03-28T08:54:04.749Z</time></trkpt><trkpt lat="44.4237917" lon="11.19677"><ele>199.0</ele><time>2026-03-28T08:54:05.748Z</time></trkpt><trkpt lat="44.4238617" lon="11.1967367"><ele>199.0</ele><time>2026-03-28T08:54:06.749Z</time></trkpt><trkpt lat="44.4239383" lon="11.196725"><ele>198.99999999999997</ele><time>2026-03-28T08:54:07.748Z</time></trkpt><trkpt lat="44.4240167" lon="11.1967167"><ele>199.0</ele><time>2026-03-28T08:54:08.749Z</time></trkpt><trkpt lat="44.4241" lon="11.1967183"><ele>197.99999999999997</ele><time>2026-03-28T08:54:09.748Z</time></trkpt><trkpt lat="44.4241833" lon="11.1967317"><ele>197.0</ele><time>2026-03-28T08:54:10.749Z</time></trkpt><trkpt lat="44.42426" lon="11.1967517"><ele>196.0</ele><time>2026-03-28T08:54:11.748Z</time></trkpt><trkpt lat="44.4243467" lon="11.1967667"><ele>195.0</ele><time>2026-03-28T08:54:12.749Z</time></trkpt><trkpt lat="44.424435" lon="11.196775"><ele>193.99999999999997</ele><time>2026-03-28T08:54:13.749Z</time></trkpt><trkpt lat="44.42452" lon="11.1967833"><ele>193.0</ele><time>2026-03-28T08:54:14.748Z</time></trkpt><trkpt lat="44.4245983" lon="11.196795"><ele>192.83333333333331</ele><time>2026-03-28T08:54:15.748Z</time></trkpt><trkpt lat="44.4246717" lon="11.1967917"><ele>192.66666666666666</ele><time>2026-03-28T08:54:16.749Z</time></trkpt><trkpt lat="44.42475" lon="11.1967983"><ele>192.5</ele><time>2026-03-28T08:54:17.749Z</time></trkpt><trkpt lat="44.4248333" lon="11.1968133"><ele>192.33333333333331</ele><time>2026-03-28T08:54:18.749Z</time></trkpt><trkpt lat="44.4249083" lon="11.196815"><ele>192.16666666666666</ele><time>2026-03-28T08:54:19.748Z</time></trkpt><trkpt lat="44.4249867" lon="11.1968183"><ele>192.0</ele><time>2026-03-28T08:54:20.749Z</time></trkpt><trkpt lat="44.4250683" lon="11.1968183"><ele>192.0</ele><time>2026-03-28T08:54:21.748Z</time></trkpt><trkpt lat="44.4251517" lon="11.19681"><ele>192.0</ele><time>2026-03-28T08:54:22.749Z</time></trkpt><trkpt lat="44.4252317" lon="11.1968017"><ele>192.0</ele><time>2026-03-28T08:54:23.749Z</time></trkpt><trkpt lat="44.4253117" lon="11.196785"><ele>192.0</ele><time>2026-03-28T08:54:24.748Z</time></trkpt><trkpt lat="44.4253983" lon="11.1967733"><ele>192.0</ele><time>2026-03-28T08:54:25.749Z</time></trkpt><trkpt lat="44.4254767" lon="11.196745"><ele>192.0</ele><time>2026-03-28T08:54:26.749Z</time></trkpt><trkpt lat="44.4255567" lon="11.1967267"><ele>192.16666666666666</ele><time>2026-03-28T08:54:27.749Z</time></trkpt><trkpt lat="44.4256383" lon="11.1967083"><ele>192.33333333333331</ele><time>2026-03-28T08:54:28.749Z</time></trkpt><trkpt lat="44.4257183" lon="11.1966967"><ele>192.5</ele><time>2026-03-28T08:54:29.749Z</time></trkpt><trkpt lat="44.4258017" lon="11.1966817"><ele>192.66666666666666</ele><time>2026-03-28T08:54:30.749Z</time></trkpt><trkpt lat="44.42588" lon="11.1966767"><ele>192.83333333333331</ele><time>2026-03-28T08:54:31.749Z</time></trkpt><trkpt lat="44.4259517" lon="11.196675"><ele>193.0</ele><time>2026-03-28T08:54:32.749Z</time></trkpt><trkpt lat="44.4260333" lon="11.19668"><ele>192.99999999999997</ele><time>2026-03-28T08:54:33.749Z</time></trkpt><trkpt lat="44.42612" lon="11.1966717"><ele>193.0</ele><time>2026-03-28T08:54:34.748Z</time></trkpt><trkpt lat="44.4262033" lon="11.1966817"><ele>193.0</ele><time>2026-03-28T08:54:35.749Z</time></trkpt><trkpt lat="44.4262817" lon="11.1966967"><ele>193.0</ele><time>2026-03-28T08:54:36.749Z</time></trkpt><trkpt lat="44.4263617" lon="11.1966967"><ele>192.99999999999997</ele><time>2026-03-28T08:54:37.748Z</time></trkpt><trkpt lat="44.4264417" lon="11.196695"><ele>193.0</ele><time>2026-03-28T08:54:38.749Z</time></trkpt><trkpt lat="44.42652" lon="11.1966967"><ele>192.33333333333331</ele><time>2026-03-28T08:54:39.749Z</time></trkpt><trkpt lat="44.426595" lon="11.1966883"><ele>191.66666666666666</ele><time>2026-03-28T08:54:40.748Z</time></trkpt><trkpt lat="44.4266683" lon="11.1966833"><ele>191.0</ele><time>2026-03-28T08:54:41.749Z</time></trkpt><trkpt lat="44.4267483" lon="11.1966683"><ele>190.33333333333331</ele><time>2026-03-28T08:54:42.748Z</time></trkpt><trkpt lat="44.4268283" lon="11.1966533"><ele>189.66666666666666</ele><time>2026-03-28T08:54:43.749Z</time></trkpt><trkpt lat="44.42691" lon="11.196645"><ele>189.0</ele><time>2026-03-28T08:54:44.748Z</time></trkpt><trkpt lat="44.4270017" lon="11.1966417"><ele>189.0</ele><time>2026-03-28T08:54:45.748Z</time></trkpt><trkpt lat="44.427085" lon="11.1966367"><ele>189.0</ele><time>2026-03-28T08:54:46.749Z</time></trkpt><trkpt lat="44.427165" lon="11.1966217"><ele>189.0</ele><time>2026-03-28T08:54:47.749Z</time></trkpt><trkpt lat="44.42724" lon="11.19661"><ele>189.0</ele><time>2026-03-28T08:54:48.749Z</time></trkpt><trkpt lat="44.4273217" lon="11.1966017"><ele>189.0</ele><time>2026-03-28T08:54:49.749Z</time></trkpt><trkpt lat="44.427395" lon="11.1965917"><ele>189.0</ele><time>2026-03-28T08:54:50.748Z</time></trkpt><trkpt lat="44.4274717" lon="11.196585"><ele>188.66666666666666</ele><time>2026-03-28T08:54:51.748Z</time></trkpt><trkpt lat="44.4275483" lon="11.19657"><ele>188.33333333333334</ele><time>2026-03-28T08:54:52.749Z</time></trkpt><trkpt lat="44.42763" lon="11.1965567"><ele>188.0</ele><time>2026-03-28T08:54:53.749Z</time></trkpt><trkpt lat="44.4277133" lon="11.1965433"><ele>187.66666666666669</ele><time>2026-03-28T08:54:54.749Z</time></trkpt><trkpt lat="44.4278" lon="11.1965333"><ele>187.33333333333334</ele><time>2026-03-28T08:54:55.749Z</time></trkpt><trkpt lat="44.4278833" lon="11.1965233"><ele>187.0</ele><time>2026-03-28T08:54:56.749Z</time></trkpt><trkpt lat="44.42796" lon="11.1965117"><ele>186.66666666666669</ele><time>2026-03-28T08:54:57.748Z</time></trkpt><trkpt lat="44.4280417" lon="11.1964967"><ele>186.33333333333334</ele><time>2026-03-28T08:54:58.749Z</time></trkpt><trkpt lat="44.42812" lon="11.1964767"><ele>186.0</ele><time>2026-03-28T08:54:59.749Z</time></trkpt><trkpt lat="44.4282067" lon="11.196465"><ele>185.66666666666666</ele><time>2026-03-28T08:55:00.749Z</time></trkpt><trkpt lat="44.428285" lon="11.1964517"><ele>185.33333333333331</ele><time>2026-03-28T08:55:01.748Z</time></trkpt><trkpt lat="44.4283683" lon="11.196435"><ele>185.0</ele><time>2026-03-28T08:55:02.749Z</time></trkpt><trkpt lat="44.4284533" lon="11.196415"><ele>185.0</ele><time>2026-03-28T08:55:03.749Z</time></trkpt><trkpt lat="44.428535" lon="11.1963883"><ele>185.0</ele><time>2026-03-28T08:55:04.749Z</time></trkpt><trkpt lat="44.4286167" lon="11.19637"><ele>185.0</ele><time>2026-03-28T08:55:05.749Z</time></trkpt><trkpt lat="44.428695" lon="11.1963483"><ele>185.0</ele><time>2026-03-28T08:55:06.749Z</time></trkpt><trkpt lat="44.4287733" lon="11.1963317"><ele>185.0</ele><time>2026-03-28T08:55:07.749Z</time></trkpt><trkpt lat="44.4288617" lon="11.19632"><ele>185.0</ele><time>2026-03-28T08:55:08.749Z</time></trkpt><trkpt lat="44.4289383" lon="11.1962983"><ele>184.66666666666666</ele><time>2026-03-28T08:55:09.749Z</time></trkpt><trkpt lat="44.4290233" lon="11.1962883"><ele>184.33333333333331</ele><time>2026-03-28T08:55:10.749Z</time></trkpt><trkpt lat="44.429105" lon="11.1962767"><ele>184.0</ele><time>2026-03-28T08:55:11.749Z</time></trkpt><trkpt lat="44.429195" lon="11.1962633"><ele>183.66666666666666</ele><time>2026-03-28T08:55:12.748Z</time></trkpt><trkpt lat="44.429285" lon="11.196245"><ele>183.33333333333334</ele><time>2026-03-28T08:55:13.749Z</time></trkpt><trkpt lat="44.4293733" lon="11.1962417"><ele>183.0</ele><time>2026-03-28T08:55:14.749Z</time></trkpt><trkpt lat="44.4294583" lon="11.1962383"><ele>183.0</ele><time>2026-03-28T08:55:15.749Z</time></trkpt><trkpt lat="44.4295383" lon="11.19623"><ele>183.0</ele><time>2026-03-28T08:55:16.749Z</time></trkpt><trkpt lat="44.4296267" lon="11.1962267"><ele>183.0</ele><time>2026-03-28T08:55:17.749Z</time></trkpt><trkpt lat="44.429715" lon="11.196225"><ele>183.0</ele><time>2026-03-28T08:55:18.748Z</time></trkpt><trkpt lat="44.4298033" lon="11.1962267"><ele>183.0</ele><time>2026-03-28T08:55:19.749Z</time></trkpt><trkpt lat="44.4298917" lon="11.196235"><ele>183.0</ele><time>2026-03-28T08:55:20.749Z</time></trkpt><trkpt lat="44.4299783" lon="11.196245"><ele>183.0</ele><time>2026-03-28T08:55:21.749Z</time></trkpt><trkpt lat="44.4300567" lon="11.1962617"><ele>183.0</ele><time>2026-03-28T08:55:22.749Z</time></trkpt><trkpt lat="44.43014" lon="11.196285"><ele>183.0</ele><time>2026-03-28T08:55:23.749Z</time></trkpt><trkpt lat="44.4302167" lon="11.1963017"><ele>183.0</ele><time>2026-03-28T08:55:24.749Z</time></trkpt><trkpt lat="44.4302917" lon="11.1963217"><ele>183.0</ele><time>2026-03-28T08:55:25.749Z</time></trkpt><trkpt lat="44.4303683" lon="11.1963417"><ele>183.0</ele><time>2026-03-28T08:55:26.749Z</time></trkpt><trkpt lat="44.4304433" lon="11.1963667"><ele>182.66666666666666</ele><time>2026-03-28T08:55:27.749Z</time></trkpt><trkpt lat="44.43052" lon="11.1963917"><ele>182.33333333333334</ele><time>2026-03-28T08:55:28.749Z</time></trkpt><trkpt lat="44.4306033" lon="11.1964167"><ele>182.0</ele><time>2026-03-28T08:55:29.749Z</time></trkpt><trkpt lat="44.4306833" lon="11.1964433"><ele>181.66666666666669</ele><time>2026-03-28T08:55:30.749Z</time></trkpt><trkpt lat="44.4307633" lon="11.19647"><ele>181.33333333333334</ele><time>2026-03-28T08:55:31.749Z</time></trkpt><trkpt lat="44.4308383" lon="11.1965033"><ele>181.0</ele><time>2026-03-28T08:55:32.749Z</time></trkpt><trkpt lat="44.4309133" lon="11.19654"><ele>179.66666666666669</ele><time>2026-03-28T08:55:33.749Z</time></trkpt><trkpt lat="44.4309883" lon="11.1965817"><ele>178.33333333333334</ele><time>2026-03-28T08:55:34.749Z</time></trkpt><trkpt lat="44.4310617" lon="11.1966317"><ele>177.0</ele><time>2026-03-28T08:55:35.749Z</time></trkpt><trkpt lat="44.431135" lon="11.1966817"><ele>175.66666666666666</ele><time>2026-03-28T08:55:36.749Z</time></trkpt><trkpt lat="44.43121" lon="11.1967283"><ele>174.33333333333331</ele><time>2026-03-28T08:55:37.748Z</time></trkpt><trkpt lat="44.4312883" lon="11.1967767"><ele>173.0</ele><time>2026-03-28T08:55:38.749Z</time></trkpt><trkpt lat="44.431365" lon="11.1968267"><ele>172.83333333333331</ele><time>2026-03-28T08:55:39.749Z</time></trkpt><trkpt lat="44.4314417" lon="11.1968783"><ele>172.66666666666666</ele><time>2026-03-28T08:55:40.749Z</time></trkpt><trkpt lat="44.4315217" lon="11.19692"><ele>172.5</ele><time>2026-03-28T08:55:41.748Z</time></trkpt><trkpt lat="44.431605" lon="11.19695"><ele>172.33333333333334</ele><time>2026-03-28T08:55:42.749Z</time></trkpt><trkpt lat="44.431685" lon="11.1969767"><ele>172.16666666666669</ele><time>2026-03-28T08:55:43.749Z</time></trkpt><trkpt lat="44.4317633" lon="11.1970033"><ele>172.0</ele><time>2026-03-28T08:55:44.749Z</time></trkpt><trkpt lat="44.4318383" lon="11.1970267"><ele>172.0</ele><time>2026-03-28T08:55:45.75Z</time></trkpt><trkpt lat="44.4319233" lon="11.1970483"><ele>172.0</ele><time>2026-03-28T08:55:46.75Z</time></trkpt><trkpt lat="44.432005" lon="11.19706"><ele>172.0</ele><time>2026-03-28T08:55:47.75Z</time></trkpt><trkpt lat="44.432085" lon="11.1970667"><ele>172.0</ele><time>2026-03-28T08:55:48.749Z</time></trkpt><trkpt lat="44.432175" lon="11.1970783"><ele>172.0</ele><time>2026-03-28T08:55:49.749Z</time></trkpt><trkpt lat="44.4322633" lon="11.197085"><ele>172.0</ele><time>2026-03-28T08:55:50.749Z</time></trkpt><trkpt lat="44.4323567" lon="11.1970717"><ele>171.2</ele><time>2026-03-28T08:55:51.75Z</time></trkpt><trkpt lat="44.432445" lon="11.1970417"><ele>170.39999999999998</ele><time>2026-03-28T08:55:52.75Z</time></trkpt><trkpt lat="44.43253" lon="11.1969983"><ele>169.60000000000002</ele><time>2026-03-28T08:55:53.75Z</time></trkpt><trkpt lat="44.432605" lon="11.196945"><ele>168.8</ele><time>2026-03-28T08:55:54.75Z</time></trkpt><trkpt lat="44.4326933" lon="11.1969017"><ele>168.0</ele><time>2026-03-28T08:55:55.75Z</time></trkpt><trkpt lat="44.4327767" lon="11.19685"><ele>168.0</ele><time>2026-03-28T08:55:56.749Z</time></trkpt><trkpt lat="44.4328533" lon="11.1968083"><ele>168.0</ele><time>2026-03-28T08:55:57.75Z</time></trkpt><trkpt lat="44.4329317" lon="11.196765"><ele>168.0</ele><time>2026-03-28T08:55:58.75Z</time></trkpt><trkpt lat="44.4330183" lon="11.19673"><ele>168.0</ele><time>2026-03-28T08:55:59.75Z</time></trkpt><trkpt lat="44.433105" lon="11.1967117"><ele>168.0</ele><time>2026-03-28T08:56:00.75Z</time></trkpt><trkpt lat="44.4331917" lon="11.1967017"><ele>168.0</ele><time>2026-03-28T08:56:01.75Z</time></trkpt><trkpt lat="44.433275" lon="11.1967033"><ele>168.33333333333334</ele><time>2026-03-28T08:56:02.749Z</time></trkpt><trkpt lat="44.43336" lon="11.1967167"><ele>168.66666666666666</ele><time>2026-03-28T08:56:03.749Z</time></trkpt><trkpt lat="44.433445" lon="11.1967383"><ele>169.0</ele><time>2026-03-28T08:56:04.749Z</time></trkpt><trkpt lat="44.4335283" lon="11.1967683"><ele>169.33333333333331</ele><time>2026-03-28T08:56:05.75Z</time></trkpt><trkpt lat="44.43361" lon="11.1968133"><ele>169.66666666666666</ele><time>2026-03-28T08:56:06.75Z</time></trkpt><trkpt lat="44.43369" lon="11.1968667"><ele>170.0</ele><time>2026-03-28T08:56:07.75Z</time></trkpt><trkpt lat="44.433765" lon="11.1969317"><ele>170.8</ele><time>2026-03-28T08:56:08.749Z</time></trkpt><trkpt lat="44.4338367" lon="11.1970083"><ele>171.6</ele><time>2026-03-28T08:56:09.75Z</time></trkpt><trkpt lat="44.4339" lon="11.1971017"><ele>172.39999999999998</ele><time>2026-03-28T08:56:10.75Z</time></trkpt><trkpt lat="44.4339583" lon="11.1972017"><ele>173.2</ele><time>2026-03-28T08:56:11.75Z</time></trkpt><trkpt lat="44.4340117" lon="11.197305"><ele>174.0</ele><time>2026-03-28T08:56:12.75Z</time></trkpt><trkpt lat="44.4340633" lon="11.19741"><ele>172.5</ele><time>2026-03-28T08:56:13.75Z</time></trkpt><trkpt lat="44.4341167" lon="11.19751"><ele>171.0</ele><time>2026-03-28T08:56:14.75Z</time></trkpt><trkpt lat="44.4341717" lon="11.1976067"><ele>169.5</ele><time>2026-03-28T08:56:15.75Z</time></trkpt><trkpt lat="44.4342283" lon="11.1977"><ele>168.0</ele><time>2026-03-28T08:56:16.75Z</time></trkpt><trkpt lat="44.4342883" lon="11.19779"><ele>166.5</ele><time>2026-03-28T08:56:17.75Z</time></trkpt><trkpt lat="44.4343517" lon="11.1978733"><ele>165.0</ele><time>2026-03-28T08:56:18.75Z</time></trkpt><trkpt lat="44.4344217" lon="11.1979467"><ele>165.0</ele><time>2026-03-28T08:56:19.75Z</time></trkpt><trkpt lat="44.4344967" lon="11.19802"><ele>165.0</ele><time>2026-03-28T08:56:20.749Z</time></trkpt><trkpt lat="44.4345783" lon="11.1980833"><ele>165.0</ele><time>2026-03-28T08:56:21.749Z</time></trkpt><trkpt lat="44.4346667" lon="11.1981383"><ele>165.0</ele><time>2026-03-28T08:56:22.75Z</time></trkpt><trkpt lat="44.4347567" lon="11.1981817"><ele>165.0</ele><time>2026-03-28T08:56:23.75Z</time></trkpt><trkpt lat="44.434845" lon="11.1982233"><ele>164.0</ele><time>2026-03-28T08:56:24.749Z</time></trkpt><trkpt lat="44.4349317" lon="11.1982767"><ele>163.0</ele><time>2026-03-28T08:56:25.75Z</time></trkpt><trkpt lat="44.4350217" lon="11.198305"><ele>162.0</ele><time>2026-03-28T08:56:26.749Z</time></trkpt><trkpt lat="44.4351133" lon="11.1983267"><ele>161.0</ele><time>2026-03-28T08:56:27.749Z</time></trkpt><trkpt lat="44.4352083" lon="11.19835"><ele>160.0</ele><time>2026-03-28T08:56:28.75Z</time></trkpt><trkpt lat="44.4353083" lon="11.1983717"><ele>160.0</ele><time>2026-03-28T08:56:29.75Z</time></trkpt><trkpt lat="44.4354" lon="11.1984033"><ele>160.0</ele><time>2026-03-28T08:56:30.75Z</time></trkpt><trkpt lat="44.4354983" lon="11.1984283"><ele>160.0</ele><time>2026-03-28T08:56:31.75Z</time></trkpt><trkpt lat="44.4355933" lon="11.1984517"><ele>160.0</ele><time>2026-03-28T08:56:32.75Z</time></trkpt><trkpt lat="44.4356967" lon="11.1984783"><ele>160.0</ele><time>2026-03-28T08:56:33.75Z</time></trkpt><trkpt lat="44.4357883" lon="11.1984983"><ele>159.6</ele><time>2026-03-28T08:56:34.749Z</time></trkpt><trkpt lat="44.4358767" lon="11.1985167"><ele>159.2</ele><time>2026-03-28T08:56:35.749Z</time></trkpt><trkpt lat="44.4359667" lon="11.198535"><ele>158.8</ele><time>2026-03-28T08:56:36.75Z</time></trkpt><trkpt lat="44.436055" lon="11.198555"><ele>158.4</ele><time>2026-03-28T08:56:37.749Z</time></trkpt><trkpt lat="44.4361433" lon="11.1985783"><ele>158.0</ele><time>2026-03-28T08:56:38.749Z</time></trkpt><trkpt lat="44.4362317" lon="11.1986017"><ele>158.20000000000002</ele><time>2026-03-28T08:56:39.75Z</time></trkpt><trkpt lat="44.4363217" lon="11.1986217"><ele>158.4</ele><time>2026-03-28T08:56:40.75Z</time></trkpt><trkpt lat="44.4364117" lon="11.198645"><ele>158.60000000000002</ele><time>2026-03-28T08:56:41.75Z</time></trkpt><trkpt lat="44.4365017" lon="11.1986683"><ele>158.8</ele><time>2026-03-28T08:56:42.749Z</time></trkpt><trkpt lat="44.4365917" lon="11.198695"><ele>159.0</ele><time>2026-03-28T08:56:43.749Z</time></trkpt><trkpt lat="44.4366833" lon="11.198715"><ele>159.0</ele><time>2026-03-28T08:56:44.75Z</time></trkpt><trkpt lat="44.4367717" lon="11.1987333"><ele>159.0</ele><time>2026-03-28T08:56:45.75Z</time></trkpt><trkpt lat="44.4368583" lon="11.19875"><ele>159.0</ele><time>2026-03-28T08:56:46.75Z</time></trkpt><trkpt lat="44.4369417" lon="11.1987683"><ele>159.0</ele><time>2026-03-28T08:56:47.75Z</time></trkpt><trkpt lat="44.437025" lon="11.198785"><ele>159.0</ele><time>2026-03-28T08:56:48.749Z</time></trkpt><trkpt lat="44.4371117" lon="11.1988133"><ele>159.0</ele><time>2026-03-28T08:56:49.749Z</time></trkpt><trkpt lat="44.4371983" lon="11.1988333"><ele>159.0</ele><time>2026-03-28T08:56:50.749Z</time></trkpt><trkpt lat="44.4372867" lon="11.1988533"><ele>159.0</ele><time>2026-03-28T08:56:51.75Z</time></trkpt><trkpt lat="44.4373683" lon="11.1988717"><ele>159.0</ele><time>2026-03-28T08:56:52.75Z</time></trkpt><trkpt lat="44.43745" lon="11.1988883"><ele>159.0</ele><time>2026-03-28T08:56:53.75Z</time></trkpt><trkpt lat="44.4375333" lon="11.19891"><ele>159.0</ele><time>2026-03-28T08:56:54.75Z</time></trkpt><trkpt lat="44.4376167" lon="11.1989283"><ele>159.0</ele><time>2026-03-28T08:56:55.75Z</time></trkpt><trkpt lat="44.4377017" lon="11.1989467"><ele>159.0</ele><time>2026-03-28T08:56:56.749Z</time></trkpt><trkpt lat="44.4377867" lon="11.1989617"><ele>159.0</ele><time>2026-03-28T08:56:57.75Z</time></trkpt><trkpt lat="44.4378717" lon="11.198975"><ele>159.0</ele><time>2026-03-28T08:56:58.749Z</time></trkpt><trkpt lat="44.43796" lon="11.1989867"><ele>159.0</ele><time>2026-03-28T08:56:59.75Z</time></trkpt><trkpt lat="44.4380467" lon="11.1990017"><ele>159.0</ele><time>2026-03-28T08:57:00.749Z</time></trkpt><trkpt lat="44.438135" lon="11.1990183"><ele>159.0</ele><time>2026-03-28T08:57:01.75Z</time></trkpt><trkpt lat="44.43822" lon="11.1990333"><ele>157.83333333333334</ele><time>2026-03-28T08:57:02.75Z</time></trkpt><trkpt lat="44.4383017" lon="11.1990417"><ele>156.66666666666666</ele><time>2026-03-28T08:57:03.75Z</time></trkpt><trkpt lat="44.4383883" lon="11.1990567"><ele>155.5</ele><time>2026-03-28T08:57:04.75Z</time></trkpt><trkpt lat="44.438475" lon="11.1990767"><ele>154.33333333333331</ele><time>2026-03-28T08:57:05.749Z</time></trkpt><trkpt lat="44.43856" lon="11.199095"><ele>153.16666666666666</ele><time>2026-03-28T08:57:06.75Z</time></trkpt><trkpt lat="44.4386433" lon="11.1991233"><ele>152.0</ele><time>2026-03-28T08:57:07.75Z</time></trkpt><trkpt lat="44.4387217" lon="11.1991583"><ele>152.0</ele><time>2026-03-28T08:57:08.749Z</time></trkpt><trkpt lat="44.4387983" lon="11.199205"><ele>152.0</ele><time>2026-03-28T08:57:09.75Z</time></trkpt><trkpt lat="44.4388717" lon="11.19926"><ele>152.0</ele><time>2026-03-28T08:57:10.75Z</time></trkpt><trkpt lat="44.4389417" lon="11.1993133"><ele>152.0</ele><time>2026-03-28T08:57:11.749Z</time></trkpt><trkpt lat="44.4390117" lon="11.19938"><ele>152.0</ele><time>2026-03-28T08:57:12.75Z</time></trkpt><trkpt lat="44.4390767" lon="11.199455"><ele>152.0</ele><time>2026-03-28T08:57:13.75Z</time></trkpt><trkpt lat="44.4391383" lon="11.1995333"><ele>151.83333333333331</ele><time>2026-03-28T08:57:14.749Z</time></trkpt><trkpt lat="44.4391983" lon="11.1996183"><ele>151.66666666666666</ele><time>2026-03-28T08:57:15.75Z</time></trkpt><trkpt lat="44.43926" lon="11.1997017"><ele>151.5</ele><time>2026-03-28T08:57:16.75Z</time></trkpt><trkpt lat="44.4393217" lon="11.1997833"><ele>151.33333333333334</ele><time>2026-03-28T08:57:17.749Z</time></trkpt><trkpt lat="44.4393867" lon="11.1998667"><ele>151.16666666666669</ele><time>2026-03-28T08:57:18.75Z</time></trkpt><trkpt lat="44.439455" lon="11.1999467"><ele>151.0</ele><time>2026-03-28T08:57:19.75Z</time></trkpt><trkpt lat="44.439525" lon="11.20002"><ele>150.6</ele><time>2026-03-28T08:57:20.75Z</time></trkpt><trkpt lat="44.4396017" lon="11.2000783"><ele>150.2</ele><time>2026-03-28T08:57:21.75Z</time></trkpt><trkpt lat="44.439685" lon="11.2001233"><ele>149.8</ele><time>2026-03-28T08:57:22.75Z</time></trkpt><trkpt lat="44.439775" lon="11.2001517"><ele>149.4</ele><time>2026-03-28T08:57:23.75Z</time></trkpt><trkpt lat="44.4398667" lon="11.2001583"><ele>149.0</ele><time>2026-03-28T08:57:24.75Z</time></trkpt><trkpt lat="44.43996" lon="11.2001533"><ele>148.4</ele><time>2026-03-28T08:57:25.75Z</time></trkpt><trkpt lat="44.4400583" lon="11.2001433"><ele>147.8</ele><time>2026-03-28T08:57:26.749Z</time></trkpt><trkpt lat="44.4401483" lon="11.200125"><ele>147.2</ele><time>2026-03-28T08:57:27.75Z</time></trkpt><trkpt lat="44.44024" lon="11.200105"><ele>146.6</ele><time>2026-03-28T08:57:28.75Z</time></trkpt><trkpt lat="44.440325" lon="11.200065"><ele>146.0</ele><time>2026-03-28T08:57:29.75Z</time></trkpt><trkpt lat="44.44041" lon="11.2000117"><ele>146.2</ele><time>2026-03-28T08:57:30.749Z</time></trkpt><trkpt lat="44.44049" lon="11.1999483"><ele>146.39999999999998</ele><time>2026-03-28T08:57:31.749Z</time></trkpt><trkpt lat="44.44057" lon="11.1998783"><ele>146.6</ele><time>2026-03-28T08:57:32.749Z</time></trkpt><trkpt lat="44.4406467" lon="11.1998033"><ele>146.79999999999998</ele><time>2026-03-28T08:57:33.75Z</time></trkpt><trkpt lat="44.4407283" lon="11.19973"><ele>147.0</ele><time>2026-03-28T08:57:34.75Z</time></trkpt><trkpt lat="44.4408" lon="11.1996583"><ele>147.0</ele><time>2026-03-28T08:57:35.75Z</time></trkpt><trkpt lat="44.4408767" lon="11.1995917"><ele>147.0</ele><time>2026-03-28T08:57:36.75Z</time></trkpt><trkpt lat="44.4409583" lon="11.19954"><ele>147.0</ele><time>2026-03-28T08:57:37.75Z</time></trkpt><trkpt lat="44.4410433" lon="11.1994983"><ele>147.0</ele><time>2026-03-28T08:57:38.75Z</time></trkpt><trkpt lat="44.441125" lon="11.1994533"><ele>147.0</ele><time>2026-03-28T08:57:39.75Z</time></trkpt><trkpt lat="44.4412133" lon="11.199415"><ele>147.0</ele><time>2026-03-28T08:57:40.75Z</time></trkpt><trkpt lat="44.4412917" lon="11.199385"><ele>147.0</ele><time>2026-03-28T08:57:41.75Z</time></trkpt><trkpt lat="44.441375" lon="11.199365"><ele>147.0</ele><time>2026-03-28T08:57:42.75Z</time></trkpt><trkpt lat="44.441455" lon="11.1993417"><ele>147.0</ele><time>2026-03-28T08:57:43.75Z</time></trkpt><trkpt lat="44.4415383" lon="11.1993217"><ele>147.0</ele><time>2026-03-28T08:57:44.75Z</time></trkpt><trkpt lat="44.4416267" lon="11.1993033"><ele>147.0</ele><time>2026-03-28T08:57:45.75Z</time></trkpt><trkpt lat="44.4417133" lon="11.1992983"><ele>147.33333333333334</ele><time>2026-03-28T08:57:46.749Z</time></trkpt><trkpt lat="44.4418" lon="11.19929"><ele>147.66666666666666</ele><time>2026-03-28T08:57:47.75Z</time></trkpt><trkpt lat="44.441885" lon="11.1992967"><ele>148.0</ele><time>2026-03-28T08:57:48.75Z</time></trkpt><trkpt lat="44.4419717" lon="11.1993033"><ele>148.33333333333331</ele><time>2026-03-28T08:57:49.75Z</time></trkpt><trkpt lat="44.4420533" lon="11.1993233"><ele>148.66666666666666</ele><time>2026-03-28T08:57:50.75Z</time></trkpt><trkpt lat="44.4421333" lon="11.199345"><ele>149.0</ele><time>2026-03-28T08:57:51.75Z</time></trkpt><trkpt lat="44.4422133" lon="11.199375"><ele>149.0</ele><time>2026-03-28T08:57:52.749Z</time></trkpt><trkpt lat="44.4422867" lon="11.199415"><ele>149.0</ele><time>2026-03-28T08:57:53.75Z</time></trkpt><trkpt lat="44.4423533" lon="11.1994633"><ele>149.0</ele><time>2026-03-28T08:57:54.75Z</time></trkpt><trkpt lat="44.44242" lon="11.1995317"><ele>149.0</ele><time>2026-03-28T08:57:55.75Z</time></trkpt><trkpt lat="44.442475" lon="11.1995917"><ele>149.0</ele><time>2026-03-28T08:57:56.749Z</time></trkpt><trkpt lat="44.4425367" lon="11.1996583"><ele>149.0</ele><time>2026-03-28T08:57:57.75Z</time></trkpt><trkpt lat="44.4425933" lon="11.1997367"><ele>149.0</ele><time>2026-03-28T08:57:58.749Z</time></trkpt><trkpt lat="44.4426533" lon="11.19982"><ele>149.0</ele><time>2026-03-28T08:57:59.749Z</time></trkpt><trkpt lat="44.44272" lon="11.199885"><ele>149.0</ele><time>2026-03-28T08:58:00.75Z</time></trkpt><trkpt lat="44.442795" lon="11.19995"><ele>149.0</ele><time>2026-03-28T08:58:01.75Z</time></trkpt><trkpt lat="44.4428667" lon="11.199995"><ele>149.0</ele><time>2026-03-28T08:58:02.75Z</time></trkpt><trkpt lat="44.44294" lon="11.2000167"><ele>149.0</ele><time>2026-03-28T08:58:03.749Z</time></trkpt><trkpt lat="44.4430217" lon="11.2000133"><ele>148.33333333333331</ele><time>2026-03-28T08:58:04.749Z</time></trkpt><trkpt lat="44.4430983" lon="11.199985"><ele>147.66666666666666</ele><time>2026-03-28T08:58:05.75Z</time></trkpt><trkpt lat="44.44317" lon="11.1999367"><ele>147.0</ele><time>2026-03-28T08:58:06.75Z</time></trkpt><trkpt lat="44.4432417" lon="11.1998767"><ele>146.33333333333334</ele><time>2026-03-28T08:58:07.749Z</time></trkpt><trkpt lat="44.4433067" lon="11.199805"><ele>145.66666666666669</ele><time>2026-03-28T08:58:08.749Z</time></trkpt><trkpt lat="44.4433667" lon="11.1997317"><ele>145.0</ele><time>2026-03-28T08:58:09.75Z</time></trkpt><trkpt lat="44.4434267" lon="11.1996517"><ele>145.0</ele><time>2026-03-28T08:58:10.75Z</time></trkpt><trkpt lat="44.4434883" lon="11.19958"><ele>145.0</ele><time>2026-03-28T08:58:11.749Z</time></trkpt><trkpt lat="44.4435533" lon="11.1995067"><ele>145.0</ele><time>2026-03-28T08:58:12.75Z</time></trkpt><trkpt lat="44.44362" lon="11.1994333"><ele>145.0</ele><time>2026-03-28T08:58:13.75Z</time></trkpt><trkpt lat="44.443685" lon="11.19936"><ele>145.0</ele><time>2026-03-28T08:58:14.749Z</time></trkpt><trkpt lat="44.4437617" lon="11.1993"><ele>145.0</ele><time>2026-03-28T08:58:15.75Z</time></trkpt><trkpt lat="44.4438417" lon="11.1992433"><ele>144.0</ele><time>2026-03-28T08:58:16.75Z</time></trkpt><trkpt lat="44.4439117" lon="11.199205"><ele>143.0</ele><time>2026-03-28T08:58:17.749Z</time></trkpt><trkpt lat="44.4439817" lon="11.1991783"><ele>142.0</ele><time>2026-03-28T08:58:18.75Z</time></trkpt><trkpt lat="44.4440567" lon="11.1991567"><ele>141.0</ele><time>2026-03-28T08:58:19.75Z</time></trkpt><trkpt lat="44.4441383" lon="11.1991467"><ele>140.0</ele><time>2026-03-28T08:58:20.749Z</time></trkpt><trkpt lat="44.4442167" lon="11.1991367"><ele>139.0</ele><time>2026-03-28T08:58:21.75Z</time></trkpt><trkpt lat="44.4442983" lon="11.1991367"><ele>139.0</ele><time>2026-03-28T08:58:22.75Z</time></trkpt><trkpt lat="44.4443767" lon="11.1991383"><ele>139.0</ele><time>2026-03-28T08:58:23.75Z</time></trkpt><trkpt lat="44.4444483" lon="11.19914"><ele>139.0</ele><time>2026-03-28T08:58:24.75Z</time></trkpt><trkpt lat="44.4445267" lon="11.1991417"><ele>139.0</ele><time>2026-03-28T08:58:25.75Z</time></trkpt><trkpt lat="44.444605" lon="11.1991433"><ele>139.0</ele><time>2026-03-28T08:58:26.749Z</time></trkpt><trkpt lat="44.4446867" lon="11.1991467"><ele>139.0</ele><time>2026-03-28T08:58:27.749Z</time></trkpt><trkpt lat="44.4447617" lon="11.1991483"><ele>138.83333333333334</ele><time>2026-03-28T08:58:28.75Z</time></trkpt><trkpt lat="44.4448433" lon="11.1991433"><ele>138.66666666666669</ele><time>2026-03-28T08:58:29.75Z</time></trkpt><trkpt lat="44.444925" lon="11.1991333"><ele>138.5</ele><time>2026-03-28T08:58:30.749Z</time></trkpt><trkpt lat="44.4450067" lon="11.199115"><ele>138.33333333333334</ele><time>2026-03-28T08:58:31.75Z</time></trkpt><trkpt lat="44.445085" lon="11.199095"><ele>138.16666666666666</ele><time>2026-03-28T08:58:32.75Z</time></trkpt><trkpt lat="44.4451633" lon="11.19907"><ele>138.0</ele><time>2026-03-28T08:58:33.749Z</time></trkpt><trkpt lat="44.4452367" lon="11.1990417"><ele>138.0</ele><time>2026-03-28T08:58:34.75Z</time></trkpt><trkpt lat="44.4453083" lon="11.1990133"><ele>138.0</ele><time>2026-03-28T08:58:35.749Z</time></trkpt><trkpt lat="44.4453917" lon="11.1989783"><ele>138.0</ele><time>2026-03-28T08:58:36.75Z</time></trkpt><trkpt lat="44.4454667" lon="11.198935"><ele>138.0</ele><time>2026-03-28T08:58:37.75Z</time></trkpt><trkpt lat="44.4455333" lon="11.1988883"><ele>138.0</ele><time>2026-03-28T08:58:38.75Z</time></trkpt><trkpt lat="44.44559" lon="11.1988317"><ele>138.0</ele><time>2026-03-28T08:58:39.75Z</time></trkpt><trkpt lat="44.445645" lon="11.19877"><ele>137.83333333333334</ele><time>2026-03-28T08:58:40.75Z</time></trkpt><trkpt lat="44.4457083" lon="11.19871"><ele>137.66666666666666</ele><time>2026-03-28T08:58:41.75Z</time></trkpt><trkpt lat="44.445765" lon="11.1986333"><ele>137.5</ele><time>2026-03-28T08:58:42.75Z</time></trkpt><trkpt lat="44.445825" lon="11.198565"><ele>137.33333333333331</ele><time>2026-03-28T08:58:43.75Z</time></trkpt><trkpt lat="44.4458833" lon="11.1984917"><ele>137.16666666666666</ele><time>2026-03-28T08:58:44.75Z</time></trkpt><trkpt lat="44.445935" lon="11.1984233"><ele>137.0</ele><time>2026-03-28T08:58:45.75Z</time></trkpt><trkpt lat="44.44599" lon="11.1983467"><ele>137.00000000000003</ele><time>2026-03-28T08:58:46.749Z</time></trkpt><trkpt lat="44.4460467" lon="11.198275"><ele>137.0</ele><time>2026-03-28T08:58:47.75Z</time></trkpt><trkpt lat="44.4461017" lon="11.1982067"><ele>137.0</ele><time>2026-03-28T08:58:48.75Z</time></trkpt><trkpt lat="44.446165" lon="11.1981467"><ele>137.0</ele><time>2026-03-28T08:58:49.75Z</time></trkpt><trkpt lat="44.44622" lon="11.1980967"><ele>137.0</ele><time>2026-03-28T08:58:50.75Z</time></trkpt><trkpt lat="44.4462767" lon="11.1980417"><ele>137.00000000000003</ele><time>2026-03-28T08:58:51.749Z</time></trkpt><trkpt lat="44.446345" lon="11.1979883"><ele>137.0</ele><time>2026-03-28T08:58:52.75Z</time></trkpt><trkpt lat="44.44641" lon="11.197945"><ele>138.6</ele><time>2026-03-28T08:58:53.75Z</time></trkpt><trkpt lat="44.4464733" lon="11.1979067"><ele>140.2</ele><time>2026-03-28T08:58:54.75Z</time></trkpt><trkpt lat="44.4465333" lon="11.1978717"><ele>141.8</ele><time>2026-03-28T08:58:55.749Z</time></trkpt><trkpt lat="44.44665" lon="11.1978217"><ele>143.4</ele><time>2026-03-28T08:58:57.749Z</time></trkpt><trkpt lat="44.4467467" lon="11.197785"><ele>145.0</ele><time>2026-03-28T08:58:59.749Z</time></trkpt><trkpt lat="44.4468567" lon="11.19776"><ele>145.0</ele><time>2026-03-28T08:59:01.749Z</time></trkpt><trkpt lat="44.44696" lon="11.1977583"><ele>145.0</ele><time>2026-03-28T08:59:03.75Z</time></trkpt><trkpt lat="44.4470717" lon="11.1977017"><ele>145.0</ele><time>2026-03-28T08:59:05.75Z</time></trkpt><trkpt lat="44.447185" lon="11.1976483"><ele>145.0</ele><time>2026-03-28T08:59:07.75Z</time></trkpt><trkpt lat="44.4472467" lon="11.1976167"><ele>145.0</ele><time>2026-03-28T08:59:08.75Z</time></trkpt><trkpt lat="44.4473133" lon="11.19759"><ele>145.16666666666669</ele><time>2026-03-28T08:59:09.75Z</time></trkpt><trkpt lat="44.4473833" lon="11.1975633"><ele>145.33333333333334</ele><time>2026-03-28T08:59:10.75Z</time></trkpt><trkpt lat="44.44746" lon="11.197545"><ele>145.5</ele><time>2026-03-28T08:59:11.749Z</time></trkpt><trkpt lat="44.4475417" lon="11.19753"><ele>145.66666666666666</ele><time>2026-03-28T08:59:12.75Z</time></trkpt><trkpt lat="44.4476183" lon="11.1975167"><ele>145.83333333333331</ele><time>2026-03-28T08:59:13.75Z</time></trkpt><trkpt lat="44.447705" lon="11.1974967"><ele>146.0</ele><time>2026-03-28T08:59:14.75Z</time></trkpt><trkpt lat="44.4477817" lon="11.1974683"><ele>146.0</ele><time>2026-03-28T08:59:15.75Z</time></trkpt><trkpt lat="44.4478533" lon="11.19743"><ele>146.0</ele><time>2026-03-28T08:59:16.75Z</time></trkpt><trkpt lat="44.4479267" lon="11.1973717"><ele>146.0</ele><time>2026-03-28T08:59:17.75Z</time></trkpt><trkpt lat="44.4479933" lon="11.1973033"><ele>146.0</ele><time>2026-03-28T08:59:18.749Z</time></trkpt><trkpt lat="44.448055" lon="11.19723"><ele>146.0</ele><time>2026-03-28T08:59:19.75Z</time></trkpt><trkpt lat="44.4481233" lon="11.1971433"><ele>146.0</ele><time>2026-03-28T08:59:20.75Z</time></trkpt><trkpt lat="44.4481833" lon="11.1970517"><ele>146.33333333333331</ele><time>2026-03-28T08:59:21.75Z</time></trkpt><trkpt lat="44.4482533" lon="11.1969617"><ele>146.66666666666666</ele><time>2026-03-28T08:59:22.75Z</time></trkpt><trkpt lat="44.448315" lon="11.19689"><ele>147.0</ele><time>2026-03-28T08:59:23.75Z</time></trkpt><trkpt lat="44.44838" lon="11.196805"><ele>147.33333333333334</ele><time>2026-03-28T08:59:24.75Z</time></trkpt><trkpt lat="44.4484533" lon="11.1967183"><ele>147.66666666666669</ele><time>2026-03-28T08:59:25.75Z</time></trkpt><trkpt lat="44.44852" lon="11.196635"><ele>148.0</ele><time>2026-03-28T08:59:26.75Z</time></trkpt><trkpt lat="44.4485917" lon="11.196575"><ele>148.0</ele><time>2026-03-28T08:59:27.75Z</time></trkpt><trkpt lat="44.4486717" lon="11.196525"><ele>148.0</ele><time>2026-03-28T08:59:28.75Z</time></trkpt><trkpt lat="44.448755" lon="11.1964767"><ele>148.0</ele><time>2026-03-28T08:59:29.75Z</time></trkpt><trkpt lat="44.4488383" lon="11.1964367"><ele>148.0</ele><time>2026-03-28T08:59:30.749Z</time></trkpt><trkpt lat="44.4489283" lon="11.196405"><ele>148.0</ele><time>2026-03-28T08:59:31.75Z</time></trkpt><trkpt lat="44.4490117" lon="11.1963783"><ele>148.0</ele><time>2026-03-28T08:59:32.75Z</time></trkpt><trkpt lat="44.4490933" lon="11.1963617"><ele>145.5</ele><time>2026-03-28T08:59:33.75Z</time></trkpt><trkpt lat="44.4491767" lon="11.1963333"><ele>143.0</ele><time>2026-03-28T08:59:34.749Z</time></trkpt><trkpt lat="44.449265" lon="11.1963017"><ele>140.5</ele><time>2026-03-28T08:59:35.75Z</time></trkpt><trkpt lat="44.4493517" lon="11.1962833"><ele>138.0</ele><time>2026-03-28T08:59:36.749Z</time></trkpt><trkpt lat="44.4494367" lon="11.1962833"><ele>135.5</ele><time>2026-03-28T08:59:37.75Z</time></trkpt><trkpt lat="44.4495217" lon="11.19625"><ele>133.0</ele><time>2026-03-28T08:59:38.75Z</time></trkpt><trkpt lat="44.4496017" lon="11.1961933"><ele>131.4</ele><time>2026-03-28T08:59:39.75Z</time></trkpt><trkpt lat="44.44968" lon="11.1961383"><ele>129.8</ele><time>2026-03-28T08:59:40.749Z</time></trkpt><trkpt lat="44.44976" lon="11.1960867"><ele>128.2</ele><time>2026-03-28T08:59:41.75Z</time></trkpt><trkpt lat="44.44984" lon="11.196035"><ele>126.6</ele><time>2026-03-28T08:59:42.75Z</time></trkpt><trkpt lat="44.4499333" lon="11.195985"><ele>125.0</ele><time>2026-03-28T08:59:43.75Z</time></trkpt><trkpt lat="44.4500333" lon="11.19594"><ele>125.0</ele><time>2026-03-28T08:59:44.75Z</time></trkpt><trkpt lat="44.4501217" lon="11.19589"><ele>125.0</ele><time>2026-03-28T08:59:45.749Z</time></trkpt><trkpt lat="44.4502033" lon="11.19583"><ele>125.0</ele><time>2026-03-28T08:59:46.75Z</time></trkpt><trkpt lat="44.45029" lon="11.1957633"><ele>125.0</ele><time>2026-03-28T08:59:47.75Z</time></trkpt><trkpt lat="44.4503667" lon="11.19569"><ele>125.0</ele><time>2026-03-28T08:59:48.75Z</time></trkpt><trkpt lat="44.4504283" lon="11.19559"><ele>124.66666666666666</ele><time>2026-03-28T08:59:49.75Z</time></trkpt><trkpt lat="44.4504767" lon="11.1954767"><ele>124.33333333333333</ele><time>2026-03-28T08:59:50.75Z</time></trkpt><trkpt lat="44.4505183" lon="11.1953633"><ele>124.0</ele><time>2026-03-28T08:59:51.749Z</time></trkpt><trkpt lat="44.4505483" lon="11.195245"><ele>123.66666666666666</ele><time>2026-03-28T08:59:52.75Z</time></trkpt><trkpt lat="44.4505767" lon="11.1951383"><ele>123.33333333333333</ele><time>2026-03-28T08:59:53.75Z</time></trkpt><trkpt lat="44.4506017" lon="11.195035"><ele>123.0</ele><time>2026-03-28T08:59:54.749Z</time></trkpt><trkpt lat="44.4506333" lon="11.194935"><ele>123.0</ele><time>2026-03-28T08:59:55.75Z</time></trkpt><trkpt lat="44.45066" lon="11.19484"><ele>123.0</ele><time>2026-03-28T08:59:56.75Z</time></trkpt><trkpt lat="44.4506883" lon="11.19475"><ele>123.0</ele><time>2026-03-28T08:59:57.749Z</time></trkpt><trkpt lat="44.4507133" lon="11.1946667"><ele>123.0</ele><time>2026-03-28T08:59:58.75Z</time></trkpt><trkpt lat="44.4507567" lon="11.1945217"><ele>123.0</ele><time>2026-03-28T09:00:00.749Z</time></trkpt><trkpt lat="44.4507933" lon="11.1944033"><ele>123.0</ele><time>2026-03-28T09:00:02.749Z</time></trkpt><trkpt lat="44.4508317" lon="11.1943267"><ele>123.60000000000001</ele><time>2026-03-28T09:00:05.75Z</time></trkpt><trkpt lat="44.450915" lon="11.1942817"><ele>124.20000000000002</ele><time>2026-03-28T09:00:09.751Z</time></trkpt><trkpt lat="44.4509917" lon="11.1943083"><ele>124.8</ele><time>2026-03-28T09:00:11.751Z</time></trkpt><trkpt lat="44.4510883" lon="11.194365"><ele>125.4</ele><time>2026-03-28T09:00:13.75Z</time></trkpt><trkpt lat="44.45119" lon="11.1944467"><ele>126.0</ele><time>2026-03-28T09:00:15.75Z</time></trkpt><trkpt lat="44.45125" lon="11.1944833"><ele>126.42857142857143</ele><time>2026-03-28T09:00:16.75Z</time></trkpt><trkpt lat="44.4513083" lon="11.1945217"><ele>126.85714285714286</ele><time>2026-03-28T09:00:17.751Z</time></trkpt><trkpt lat="44.45137" lon="11.1945633"><ele>127.28571428571428</ele><time>2026-03-28T09:00:18.751Z</time></trkpt><trkpt lat="44.4514383" lon="11.1946117"><ele>127.71428571428571</ele><time>2026-03-28T09:00:19.751Z</time></trkpt><trkpt lat="44.451505" lon="11.1946533"><ele>128.14285714285714</ele><time>2026-03-28T09:00:20.751Z</time></trkpt><trkpt lat="44.45157" lon="11.1946933"><ele>128.57142857142856</ele><time>2026-03-28T09:00:21.751Z</time></trkpt><trkpt lat="44.4516367" lon="11.19473"><ele>129.0</ele><time>2026-03-28T09:00:22.75Z</time></trkpt><trkpt lat="44.4517017" lon="11.1947683"><ele>128.99999999999997</ele><time>2026-03-28T09:00:23.751Z</time></trkpt><trkpt lat="44.45177" lon="11.1948183"><ele>129.0</ele><time>2026-03-28T09:00:24.75Z</time></trkpt><trkpt lat="44.4518317" lon="11.19486"><ele>129.0</ele><time>2026-03-28T09:00:25.751Z</time></trkpt><trkpt lat="44.4518967" lon="11.19489"><ele>129.0</ele><time>2026-03-28T09:00:26.751Z</time></trkpt><trkpt lat="44.451965" lon="11.1949333"><ele>129.0</ele><time>2026-03-28T09:00:27.75Z</time></trkpt><trkpt lat="44.4520333" lon="11.1949717"><ele>128.99999999999997</ele><time>2026-03-28T09:00:28.751Z</time></trkpt><trkpt lat="44.4520967" lon="11.195015"><ele>129.0</ele><time>2026-03-28T09:00:29.751Z</time></trkpt><trkpt lat="44.4521617" lon="11.1950483"><ele>128.57142857142856</ele><time>2026-03-28T09:00:30.751Z</time></trkpt><trkpt lat="44.4522267" lon="11.1950933"><ele>128.14285714285714</ele><time>2026-03-28T09:00:31.751Z</time></trkpt><trkpt lat="44.4522883" lon="11.195125"><ele>127.71428571428571</ele><time>2026-03-28T09:00:32.75Z</time></trkpt><trkpt lat="44.452355" lon="11.1951583"><ele>127.28571428571428</ele><time>2026-03-28T09:00:33.75Z</time></trkpt><trkpt lat="44.4524183" lon="11.1951967"><ele>126.85714285714286</ele><time>2026-03-28T09:00:34.751Z</time></trkpt><trkpt lat="44.4524783" lon="11.1952383"><ele>126.42857142857143</ele><time>2026-03-28T09:00:35.751Z</time></trkpt><trkpt lat="44.45254" lon="11.195275"><ele>126.0</ele><time>2026-03-28T09:00:36.751Z</time></trkpt><trkpt lat="44.4526017" lon="11.1953133"><ele>126.0</ele><time>2026-03-28T09:00:37.751Z</time></trkpt><trkpt lat="44.4526617" lon="11.19535"><ele>126.0</ele><time>2026-03-28T09:00:38.751Z</time></trkpt><trkpt lat="44.4527233" lon="11.1953917"><ele>126.0</ele><time>2026-03-28T09:00:39.75Z</time></trkpt><trkpt lat="44.4527833" lon="11.195435"><ele>126.0</ele><time>2026-03-28T09:00:40.75Z</time></trkpt><trkpt lat="44.45284" lon="11.1954783"><ele>126.0</ele><time>2026-03-28T09:00:41.751Z</time></trkpt><trkpt lat="44.4528967" lon="11.1955183"><ele>126.0</ele><time>2026-03-28T09:00:42.751Z</time></trkpt><trkpt lat="44.453005" lon="11.1955917"><ele>126.6</ele><time>2026-03-28T09:00:44.751Z</time></trkpt><trkpt lat="44.4531133" lon="11.1956683"><ele>127.19999999999999</ele><time>2026-03-28T09:00:46.751Z</time></trkpt><trkpt lat="44.4532283" lon="11.1957467"><ele>127.80000000000001</ele><time>2026-03-28T09:00:48.751Z</time></trkpt><trkpt lat="44.4532933" lon="11.195785"><ele>128.4</ele><time>2026-03-28T09:00:49.751Z</time></trkpt><trkpt lat="44.45336" lon="11.1958283"><ele>129.0</ele><time>2026-03-28T09:00:50.75Z</time></trkpt><trkpt lat="44.453425" lon="11.1958733"><ele>128.5</ele><time>2026-03-28T09:00:51.75Z</time></trkpt><trkpt lat="44.4534867" lon="11.1959183"><ele>128.0</ele><time>2026-03-28T09:00:52.751Z</time></trkpt><trkpt lat="44.4535483" lon="11.19597"><ele>127.5</ele><time>2026-03-28T09:00:53.751Z</time></trkpt><trkpt lat="44.4536117" lon="11.196025"><ele>127.0</ele><time>2026-03-28T09:00:54.751Z</time></trkpt><trkpt lat="44.4536733" lon="11.1960817"><ele>126.5</ele><time>2026-03-28T09:00:55.75Z</time></trkpt><trkpt lat="44.45374" lon="11.1961433"><ele>126.0</ele><time>2026-03-28T09:00:56.751Z</time></trkpt><trkpt lat="44.4538083" lon="11.1962033"><ele>126.0</ele><time>2026-03-28T09:00:57.75Z</time></trkpt><trkpt lat="44.4538733" lon="11.1962683"><ele>126.0</ele><time>2026-03-28T09:00:58.751Z</time></trkpt><trkpt lat="44.4539367" lon="11.196335"><ele>126.0</ele><time>2026-03-28T09:00:59.75Z</time></trkpt><trkpt lat="44.4539983" lon="11.1964033"><ele>126.0</ele><time>2026-03-28T09:01:00.75Z</time></trkpt><trkpt lat="44.4540583" lon="11.1964717"><ele>126.0</ele><time>2026-03-28T09:01:01.75Z</time></trkpt><trkpt lat="44.45412" lon="11.1965417"><ele>126.0</ele><time>2026-03-28T09:01:02.75Z</time></trkpt><trkpt lat="44.4541817" lon="11.1966117"><ele>124.66666666666667</ele><time>2026-03-28T09:01:03.75Z</time></trkpt><trkpt lat="44.4542417" lon="11.1966833"><ele>123.33333333333334</ele><time>2026-03-28T09:01:04.75Z</time></trkpt><trkpt lat="44.4543017" lon="11.1967533"><ele>122.0</ele><time>2026-03-28T09:01:05.751Z</time></trkpt><trkpt lat="44.4543617" lon="11.1968217"><ele>120.66666666666667</ele><time>2026-03-28T09:01:06.75Z</time></trkpt><trkpt lat="44.4544217" lon="11.1968883"><ele>119.33333333333334</ele><time>2026-03-28T09:01:07.751Z</time></trkpt><trkpt lat="44.45448" lon="11.196955"><ele>118.0</ele><time>2026-03-28T09:01:08.75Z</time></trkpt><trkpt lat="44.4545467" lon="11.1970233"><ele>118.0</ele><time>2026-03-28T09:01:09.751Z</time></trkpt><trkpt lat="44.45461" lon="11.1970817"><ele>118.0</ele><time>2026-03-28T09:01:10.751Z</time></trkpt><trkpt lat="44.4546667" lon="11.19714"><ele>118.0</ele><time>2026-03-28T09:01:11.751Z</time></trkpt><trkpt lat="44.4547217" lon="11.197205"><ele>118.0</ele><time>2026-03-28T09:01:12.75Z</time></trkpt><trkpt lat="44.4547833" lon="11.1972567"><ele>118.0</ele><time>2026-03-28T09:01:13.751Z</time></trkpt><trkpt lat="44.4548383" lon="11.197315"><ele>118.0</ele><time>2026-03-28T09:01:14.75Z</time></trkpt><trkpt lat="44.4548933" lon="11.19738"><ele>118.0</ele><time>2026-03-28T09:01:15.75Z</time></trkpt><trkpt lat="44.4549483" lon="11.1974417"><ele>117.66666666666667</ele><time>2026-03-28T09:01:16.751Z</time></trkpt><trkpt lat="44.4550117" lon="11.1975017"><ele>117.33333333333334</ele><time>2026-03-28T09:01:17.751Z</time></trkpt><trkpt lat="44.4550717" lon="11.1975633"><ele>117.0</ele><time>2026-03-28T09:01:18.75Z</time></trkpt><trkpt lat="44.4551317" lon="11.197625"><ele>116.66666666666666</ele><time>2026-03-28T09:01:19.751Z</time></trkpt><trkpt lat="44.45519" lon="11.1976917"><ele>116.33333333333333</ele><time>2026-03-28T09:01:20.75Z</time></trkpt><trkpt lat="44.4552483" lon="11.1977567"><ele>116.0</ele><time>2026-03-28T09:01:21.751Z</time></trkpt><trkpt lat="44.4553083" lon="11.19782"><ele>115.99999999999999</ele><time>2026-03-28T09:01:22.75Z</time></trkpt><trkpt lat="44.45537" lon="11.1978833"><ele>116.0</ele><time>2026-03-28T09:01:23.75Z</time></trkpt><trkpt lat="44.4554333" lon="11.1979433"><ele>116.0</ele><time>2026-03-28T09:01:24.75Z</time></trkpt><trkpt lat="44.4554933" lon="11.1980083"><ele>116.0</ele><time>2026-03-28T09:01:25.751Z</time></trkpt><trkpt lat="44.4555533" lon="11.1980717"><ele>115.99999999999999</ele><time>2026-03-28T09:01:26.751Z</time></trkpt><trkpt lat="44.4556083" lon="11.1981417"><ele>116.0</ele><time>2026-03-28T09:01:27.751Z</time></trkpt><trkpt lat="44.45567" lon="11.1982017"><ele>115.66666666666666</ele><time>2026-03-28T09:01:28.751Z</time></trkpt><trkpt lat="44.4557333" lon="11.1982617"><ele>115.33333333333333</ele><time>2026-03-28T09:01:29.751Z</time></trkpt><trkpt lat="44.455795" lon="11.1983267"><ele>115.0</ele><time>2026-03-28T09:01:30.75Z</time></trkpt><trkpt lat="44.455855" lon="11.1983883"><ele>114.66666666666666</ele><time>2026-03-28T09:01:31.751Z</time></trkpt><trkpt lat="44.4559183" lon="11.19845"><ele>114.33333333333333</ele><time>2026-03-28T09:01:32.75Z</time></trkpt><trkpt lat="44.4559733" lon="11.1985133"><ele>114.0</ele><time>2026-03-28T09:01:33.751Z</time></trkpt><trkpt lat="44.4560367" lon="11.198575"><ele>114.0</ele><time>2026-03-28T09:01:34.751Z</time></trkpt><trkpt lat="44.4561033" lon="11.1986333"><ele>113.99999999999999</ele><time>2026-03-28T09:01:35.751Z</time></trkpt><trkpt lat="44.4561583" lon="11.198695"><ele>114.0</ele><time>2026-03-28T09:01:36.75Z</time></trkpt><trkpt lat="44.4562183" lon="11.1987483"><ele>114.0</ele><time>2026-03-28T09:01:37.751Z</time></trkpt><trkpt lat="44.45627" lon="11.198815"><ele>113.99999999999999</ele><time>2026-03-28T09:01:38.751Z</time></trkpt><trkpt lat="44.4563267" lon="11.1988717"><ele>114.0</ele><time>2026-03-28T09:01:39.751Z</time></trkpt><trkpt lat="44.4563783" lon="11.1989283"><ele>114.0</ele><time>2026-03-28T09:01:40.75Z</time></trkpt><trkpt lat="44.45643" lon="11.19898"><ele>113.83333333333333</ele><time>2026-03-28T09:01:41.751Z</time></trkpt><trkpt lat="44.456485" lon="11.1990367"><ele>113.66666666666666</ele><time>2026-03-28T09:01:42.75Z</time></trkpt><trkpt lat="44.45654" lon="11.1990883"><ele>113.5</ele><time>2026-03-28T09:01:43.751Z</time></trkpt><trkpt lat="44.456595" lon="11.1991417"><ele>113.33333333333333</ele><time>2026-03-28T09:01:44.751Z</time></trkpt><trkpt lat="44.4566883" lon="11.1992417"><ele>113.16666666666666</ele><time>2026-03-28T09:01:46.75Z</time></trkpt><trkpt lat="44.4567733" lon="11.1993283"><ele>113.0</ele><time>2026-03-28T09:01:48.751Z</time></trkpt><trkpt lat="44.4568417" lon="11.199405"><ele>112.99999999999999</ele><time>2026-03-28T09:01:50.75Z</time></trkpt><trkpt lat="44.4568967" lon="11.1994583"><ele>113.0</ele><time>2026-03-28T09:01:52.751Z</time></trkpt><trkpt lat="44.4569717" lon="11.19954"><ele>113.0</ele><time>2026-03-28T09:01:55.751Z</time></trkpt><trkpt lat="44.4570183" lon="11.1996017"><ele>113.0</ele><time>2026-03-28T09:01:57.751Z</time></trkpt><trkpt lat="44.4570833" lon="11.1996667"><ele>112.99999999999999</ele><time>2026-03-28T09:01:59.751Z</time></trkpt><trkpt lat="44.45716" lon="11.19974"><ele>113.0</ele><time>2026-03-28T09:02:01.75Z</time></trkpt><trkpt lat="44.4572517" lon="11.19982"><ele>112.4</ele><time>2026-03-28T09:02:03.751Z</time></trkpt><trkpt lat="44.4573717" lon="11.1998833"><ele>111.80000000000001</ele><time>2026-03-28T09:02:05.751Z</time></trkpt><trkpt lat="44.457445" lon="11.1999133"><ele>111.2</ele><time>2026-03-28T09:02:06.751Z</time></trkpt><trkpt lat="44.4575717" lon="11.1999383"><ele>110.6</ele><time>2026-03-28T09:02:08.751Z</time></trkpt><trkpt lat="44.4576583" lon="11.199935"><ele>110.0</ele><time>2026-03-28T09:02:10.75Z</time></trkpt><trkpt lat="44.4577367" lon="11.1999333"><ele>109.99999999999999</ele><time>2026-03-28T09:02:11.751Z</time></trkpt><trkpt lat="44.457815" lon="11.1999367"><ele>110.0</ele><time>2026-03-28T09:02:12.751Z</time></trkpt><trkpt lat="44.457885" lon="11.1999417"><ele>110.0</ele><time>2026-03-28T09:02:13.751Z</time></trkpt><trkpt lat="44.4579583" lon="11.1999433"><ele>110.0</ele><time>2026-03-28T09:02:14.751Z</time></trkpt><trkpt lat="44.458035" lon="11.1999567"><ele>109.99999999999999</ele><time>2026-03-28T09:02:15.751Z</time></trkpt><trkpt lat="44.4581" lon="11.199975"><ele>110.0</ele><time>2026-03-28T09:02:16.751Z</time></trkpt><trkpt lat="44.4581867" lon="11.199985"><ele>109.99999999999999</ele><time>2026-03-28T09:02:17.75Z</time></trkpt><trkpt lat="44.45826" lon="11.199995"><ele>110.0</ele><time>2026-03-28T09:02:18.751Z</time></trkpt><trkpt lat="44.458335" lon="11.2000017"><ele>110.0</ele><time>2026-03-28T09:02:19.751Z</time></trkpt><trkpt lat="44.4584067" lon="11.2000067"><ele>110.0</ele><time>2026-03-28T09:02:20.751Z</time></trkpt><trkpt lat="44.4585383" lon="11.2000217"><ele>109.99999999999999</ele><time>2026-03-28T09:02:22.751Z</time></trkpt><trkpt lat="44.4586183" lon="11.2000383"><ele>110.0</ele><time>2026-03-28T09:02:23.751Z</time></trkpt><trkpt lat="44.458695" lon="11.20005"><ele>109.99999999999999</ele><time>2026-03-28T09:02:24.751Z</time></trkpt><trkpt lat="44.4587733" lon="11.2000567"><ele>110.0</ele><time>2026-03-28T09:02:25.751Z</time></trkpt><trkpt lat="44.4588467" lon="11.2000567"><ele>110.0</ele><time>2026-03-28T09:02:26.751Z</time></trkpt><trkpt lat="44.4589167" lon="11.2000467"><ele>110.0</ele><time>2026-03-28T09:02:27.751Z</time></trkpt><trkpt lat="44.4589867" lon="11.2000333"><ele>110.0</ele><time>2026-03-28T09:02:28.75Z</time></trkpt><trkpt lat="44.4590583" lon="11.2000133"><ele>109.99999999999999</ele><time>2026-03-28T09:02:29.751Z</time></trkpt><trkpt lat="44.459135" lon="11.1999917"><ele>110.0</ele><time>2026-03-28T09:02:30.751Z</time></trkpt><trkpt lat="44.4592117" lon="11.19997"><ele>110.16666666666666</ele><time>2026-03-28T09:02:31.75Z</time></trkpt><trkpt lat="44.45929" lon="11.199945"><ele>110.33333333333333</ele><time>2026-03-28T09:02:32.751Z</time></trkpt><trkpt lat="44.459365" lon="11.1999183"><ele>110.5</ele><time>2026-03-28T09:02:33.751Z</time></trkpt><trkpt lat="44.4594333" lon="11.1998883"><ele>110.66666666666666</ele><time>2026-03-28T09:02:34.751Z</time></trkpt><trkpt lat="44.4595067" lon="11.1998533"><ele>110.83333333333333</ele><time>2026-03-28T09:02:35.751Z</time></trkpt><trkpt lat="44.4595783" lon="11.199815"><ele>111.0</ele><time>2026-03-28T09:02:36.751Z</time></trkpt><trkpt lat="44.4596467" lon="11.199775"><ele>110.33333333333333</ele><time>2026-03-28T09:02:37.751Z</time></trkpt><trkpt lat="44.45972" lon="11.19974"><ele>109.66666666666666</ele><time>2026-03-28T09:02:38.751Z</time></trkpt><trkpt lat="44.45979" lon="11.1996983"><ele>109.0</ele><time>2026-03-28T09:02:39.751Z</time></trkpt><trkpt lat="44.4598617" lon="11.1996633"><ele>108.33333333333333</ele><time>2026-03-28T09:02:40.75Z</time></trkpt><trkpt lat="44.4599283" lon="11.1996317"><ele>107.66666666666666</ele><time>2026-03-28T09:02:41.75Z</time></trkpt><trkpt lat="44.46" lon="11.199595"><ele>107.0</ele><time>2026-03-28T09:02:42.751Z</time></trkpt><trkpt lat="44.4600733" lon="11.1995583"><ele>106.99999999999999</ele><time>2026-03-28T09:02:43.751Z</time></trkpt><trkpt lat="44.460145" lon="11.1995217"><ele>107.0</ele><time>2026-03-28T09:02:44.751Z</time></trkpt><trkpt lat="44.4602083" lon="11.199475"><ele>107.0</ele><time>2026-03-28T09:02:45.751Z</time></trkpt><trkpt lat="44.4602767" lon="11.1994317"><ele>107.0</ele><time>2026-03-28T09:02:46.751Z</time></trkpt><trkpt lat="44.4603517" lon="11.1993867"><ele>106.99999999999999</ele><time>2026-03-28T09:02:47.751Z</time></trkpt><trkpt lat="44.4604183" lon="11.199335"><ele>107.0</ele><time>2026-03-28T09:02:48.75Z</time></trkpt><trkpt lat="44.4604917" lon="11.1992867"><ele>107.28571428571429</ele><time>2026-03-28T09:02:49.75Z</time></trkpt><trkpt lat="44.4605533" lon="11.1992367"><ele>107.57142857142857</ele><time>2026-03-28T09:02:50.751Z</time></trkpt><trkpt lat="44.4606167" lon="11.1991833"><ele>107.85714285714286</ele><time>2026-03-28T09:02:51.751Z</time></trkpt><trkpt lat="44.4606733" lon="11.1991283"><ele>108.14285714285714</ele><time>2026-03-28T09:02:52.75Z</time></trkpt><trkpt lat="44.4607367" lon="11.1990733"><ele>108.42857142857143</ele><time>2026-03-28T09:02:53.751Z</time></trkpt><trkpt lat="44.4608017" lon="11.199025"><ele>108.71428571428572</ele><time>2026-03-28T09:02:54.75Z</time></trkpt><trkpt lat="44.4608733" lon="11.19896"><ele>109.0</ele><time>2026-03-28T09:02:55.751Z</time></trkpt><trkpt lat="44.46094" lon="11.19891"><ele>108.83333333333334</ele><time>2026-03-28T09:02:56.751Z</time></trkpt><trkpt lat="44.461005" lon="11.19886"><ele>108.66666666666667</ele><time>2026-03-28T09:02:57.751Z</time></trkpt><trkpt lat="44.4610783" lon="11.19882"><ele>108.5</ele><time>2026-03-28T09:02:58.75Z</time></trkpt><trkpt lat="44.46115" lon="11.1987767"><ele>108.33333333333334</ele><time>2026-03-28T09:02:59.751Z</time></trkpt><trkpt lat="44.461225" lon="11.19874"><ele>108.16666666666667</ele><time>2026-03-28T09:03:00.75Z</time></trkpt><trkpt lat="44.4612967" lon="11.198715"><ele>108.0</ele><time>2026-03-28T09:03:01.751Z</time></trkpt><trkpt lat="44.4613733" lon="11.1986933"><ele>108.0</ele><time>2026-03-28T09:03:02.751Z</time></trkpt><trkpt lat="44.46145" lon="11.19867"><ele>108.0</ele><time>2026-03-28T09:03:03.751Z</time></trkpt><trkpt lat="44.4615217" lon="11.1986517"><ele>108.0</ele><time>2026-03-28T09:03:04.751Z</time></trkpt><trkpt lat="44.461595" lon="11.198635"><ele>108.0</ele><time>2026-03-28T09:03:05.75Z</time></trkpt><trkpt lat="44.4616667" lon="11.1986183"><ele>108.0</ele><time>2026-03-28T09:03:06.751Z</time></trkpt><trkpt lat="44.4617417" lon="11.1986017"><ele>108.0</ele><time>2026-03-28T09:03:07.751Z</time></trkpt><trkpt lat="44.46182" lon="11.1985883"><ele>108.0</ele><time>2026-03-28T09:03:08.75Z</time></trkpt><trkpt lat="44.4618967" lon="11.1985733"><ele>108.0</ele><time>2026-03-28T09:03:09.75Z</time></trkpt><trkpt lat="44.4619783" lon="11.1985567"><ele>108.0</ele><time>2026-03-28T09:03:10.75Z</time></trkpt><trkpt lat="44.46205" lon="11.1985383"><ele>108.0</ele><time>2026-03-28T09:03:11.751Z</time></trkpt><trkpt lat="44.4621233" lon="11.1985283"><ele>108.0</ele><time>2026-03-28T09:03:12.751Z</time></trkpt><trkpt lat="44.4621933" lon="11.1985133"><ele>108.0</ele><time>2026-03-28T09:03:13.751Z</time></trkpt><trkpt lat="44.4622633" lon="11.198495"><ele>108.0</ele><time>2026-03-28T09:03:14.751Z</time></trkpt><trkpt lat="44.4623333" lon="11.198475"><ele>108.28571428571428</ele><time>2026-03-28T09:03:15.751Z</time></trkpt><trkpt lat="44.462405" lon="11.1984583"><ele>108.57142857142857</ele><time>2026-03-28T09:03:16.751Z</time></trkpt><trkpt lat="44.4624833" lon="11.1984333"><ele>108.85714285714286</ele><time>2026-03-28T09:03:17.751Z</time></trkpt><trkpt lat="44.4625517" lon="11.198425"><ele>109.14285714285714</ele><time>2026-03-28T09:03:18.751Z</time></trkpt><trkpt lat="44.46262" lon="11.1984033"><ele>109.42857142857143</ele><time>2026-03-28T09:03:19.751Z</time></trkpt><trkpt lat="44.46269" lon="11.1983833"><ele>109.71428571428571</ele><time>2026-03-28T09:03:20.751Z</time></trkpt><trkpt lat="44.4627617" lon="11.19836"><ele>110.0</ele><time>2026-03-28T09:03:21.75Z</time></trkpt><trkpt lat="44.4628333" lon="11.1983367"><ele>109.99999999999999</ele><time>2026-03-28T09:03:22.751Z</time></trkpt><trkpt lat="44.4629" lon="11.1983083"><ele>110.0</ele><time>2026-03-28T09:03:23.751Z</time></trkpt><trkpt lat="44.4629717" lon="11.198285"><ele>110.0</ele><time>2026-03-28T09:03:24.75Z</time></trkpt><trkpt lat="44.463045" lon="11.1982833"><ele>110.0</ele><time>2026-03-28T09:03:25.75Z</time></trkpt><trkpt lat="44.463115" lon="11.1982767"><ele>109.99999999999999</ele><time>2026-03-28T09:03:26.751Z</time></trkpt><trkpt lat="44.46318" lon="11.1982767"><ele>110.0</ele><time>2026-03-28T09:03:27.751Z</time></trkpt><trkpt lat="44.4633117" lon="11.1982817"><ele>109.85714285714285</ele><time>2026-03-28T09:03:29.751Z</time></trkpt><trkpt lat="44.4633783" lon="11.1982867"><ele>109.71428571428571</ele><time>2026-03-28T09:03:30.751Z</time></trkpt><trkpt lat="44.4634483" lon="11.1983"><ele>109.57142857142857</ele><time>2026-03-28T09:03:31.751Z</time></trkpt><trkpt lat="44.4635117" lon="11.1983333"><ele>109.42857142857142</ele><time>2026-03-28T09:03:32.75Z</time></trkpt><trkpt lat="44.463565" lon="11.198385"><ele>109.28571428571429</ele><time>2026-03-28T09:03:33.751Z</time></trkpt><trkpt lat="44.46361" lon="11.198455"><ele>109.14285714285714</ele><time>2026-03-28T09:03:34.751Z</time></trkpt><trkpt lat="44.4636383" lon="11.198535"><ele>109.0</ele><time>2026-03-28T09:03:35.751Z</time></trkpt><trkpt lat="44.4636533" lon="11.1986233"><ele>109.0</ele><time>2026-03-28T09:03:36.75Z</time></trkpt><trkpt lat="44.4636683" lon="11.1987117"><ele>109.0</ele><time>2026-03-28T09:03:37.751Z</time></trkpt><trkpt lat="44.4636833" lon="11.1988"><ele>109.0</ele><time>2026-03-28T09:03:38.75Z</time></trkpt><trkpt lat="44.4636933" lon="11.1988883"><ele>109.0</ele><time>2026-03-28T09:03:39.751Z</time></trkpt><trkpt lat="44.46371" lon="11.1989783"><ele>109.0</ele><time>2026-03-28T09:03:40.751Z</time></trkpt><trkpt lat="44.4637267" lon="11.1990683"><ele>109.0</ele><time>2026-03-28T09:03:41.75Z</time></trkpt><trkpt lat="44.4637433" lon="11.19916"><ele>109.0</ele><time>2026-03-28T09:03:42.75Z</time></trkpt><trkpt lat="44.4637583" lon="11.19925"><ele>108.14285714285714</ele><time>2026-03-28T09:03:43.75Z</time></trkpt><trkpt lat="44.463775" lon="11.1993433"><ele>107.28571428571429</ele><time>2026-03-28T09:03:44.751Z</time></trkpt><trkpt lat="44.463785" lon="11.1994383"><ele>106.42857142857142</ele><time>2026-03-28T09:03:45.75Z</time></trkpt><trkpt lat="44.4637983" lon="11.1995333"><ele>105.57142857142857</ele><time>2026-03-28T09:03:46.75Z</time></trkpt><trkpt lat="44.463815" lon="11.19963"><ele>104.71428571428571</ele><time>2026-03-28T09:03:47.751Z</time></trkpt><trkpt lat="44.46384" lon="11.1997217"><ele>103.85714285714285</ele><time>2026-03-28T09:03:48.751Z</time></trkpt><trkpt lat="44.4638733" lon="11.1998067"><ele>103.0</ele><time>2026-03-28T09:03:49.751Z</time></trkpt><trkpt lat="44.463915" lon="11.1998817"><ele>102.99999999999999</ele><time>2026-03-28T09:03:50.751Z</time></trkpt><trkpt lat="44.463965" lon="11.1999467"><ele>103.0</ele><time>2026-03-28T09:03:51.751Z</time></trkpt><trkpt lat="44.4640217" lon="11.2000067"><ele>103.0</ele><time>2026-03-28T09:03:52.75Z</time></trkpt><trkpt lat="44.4640833" lon="11.2000533"><ele>103.0</ele><time>2026-03-28T09:03:53.75Z</time></trkpt><trkpt lat="44.46415" lon="11.20008"><ele>103.0</ele><time>2026-03-28T09:03:54.751Z</time></trkpt><trkpt lat="44.464215" lon="11.200085"><ele>102.99999999999999</ele><time>2026-03-28T09:03:55.751Z</time></trkpt><trkpt lat="44.4642833" lon="11.20007"><ele>103.0</ele><time>2026-03-28T09:03:56.751Z</time></trkpt><trkpt lat="44.4643483" lon="11.2000333"><ele>102.99999999999999</ele><time>2026-03-28T09:03:57.751Z</time></trkpt><trkpt lat="44.464395" lon="11.1999717"><ele>103.0</ele><time>2026-03-28T09:03:58.751Z</time></trkpt><trkpt lat="44.4644333" lon="11.199895"><ele>103.0</ele><time>2026-03-28T09:03:59.75Z</time></trkpt><trkpt lat="44.4644617" lon="11.19981"><ele>103.0</ele><time>2026-03-28T09:04:00.751Z</time></trkpt><trkpt lat="44.4644933" lon="11.1997233"><ele>103.0</ele><time>2026-03-28T09:04:01.751Z</time></trkpt><trkpt lat="44.46453" lon="11.1996417"><ele>102.99999999999999</ele><time>2026-03-28T09:04:02.751Z</time></trkpt><trkpt lat="44.464565" lon="11.19956"><ele>103.0</ele><time>2026-03-28T09:04:03.751Z</time></trkpt><trkpt lat="44.4645983" lon="11.1994767"><ele>103.28571428571428</ele><time>2026-03-28T09:04:04.751Z</time></trkpt><trkpt lat="44.4646317" lon="11.199395"><ele>103.57142857142857</ele><time>2026-03-28T09:04:05.751Z</time></trkpt><trkpt lat="44.464665" lon="11.1993117"><ele>103.85714285714286</ele><time>2026-03-28T09:04:06.75Z</time></trkpt><trkpt lat="44.4646967" lon="11.199225"><ele>104.14285714285714</ele><time>2026-03-28T09:04:07.75Z</time></trkpt><trkpt lat="44.4647267" lon="11.1991367"><ele>104.42857142857143</ele><time>2026-03-28T09:04:08.75Z</time></trkpt><trkpt lat="44.4647583" lon="11.1990567"><ele>104.71428571428571</ele><time>2026-03-28T09:04:09.75Z</time></trkpt><trkpt lat="44.4647883" lon="11.1989733"><ele>105.0</ele><time>2026-03-28T09:04:10.75Z</time></trkpt><trkpt lat="44.4648183" lon="11.19889"><ele>105.42857142857143</ele><time>2026-03-28T09:04:11.751Z</time></trkpt><trkpt lat="44.4648467" lon="11.19881"><ele>105.85714285714286</ele><time>2026-03-28T09:04:12.751Z</time></trkpt><trkpt lat="44.4648733" lon="11.19873"><ele>106.28571428571428</ele><time>2026-03-28T09:04:13.751Z</time></trkpt><trkpt lat="44.4649067" lon="11.19865"><ele>106.71428571428572</ele><time>2026-03-28T09:04:14.751Z</time></trkpt><trkpt lat="44.4649383" lon="11.1985683"><ele>107.14285714285714</ele><time>2026-03-28T09:04:15.751Z</time></trkpt><trkpt lat="44.4649583" lon="11.1984833"><ele>107.57142857142857</ele><time>2026-03-28T09:04:16.751Z</time></trkpt><trkpt lat="44.46499" lon="11.1984033"><ele>108.0</ele><time>2026-03-28T09:04:17.751Z</time></trkpt><trkpt lat="44.4650233" lon="11.1983283"><ele>108.0</ele><time>2026-03-28T09:04:18.75Z</time></trkpt><trkpt lat="44.465045" lon="11.1982333"><ele>108.0</ele><time>2026-03-28T09:04:19.751Z</time></trkpt><trkpt lat="44.465075" lon="11.1981433"><ele>108.0</ele><time>2026-03-28T09:04:20.751Z</time></trkpt><trkpt lat="44.4651067" lon="11.1980533"><ele>108.0</ele><time>2026-03-28T09:04:21.75Z</time></trkpt><trkpt lat="44.46514" lon="11.197965"><ele>108.0</ele><time>2026-03-28T09:04:22.75Z</time></trkpt><trkpt lat="44.4651767" lon="11.19788"><ele>108.0</ele><time>2026-03-28T09:04:23.751Z</time></trkpt><trkpt lat="44.4652133" lon="11.197795"><ele>108.0</ele><time>2026-03-28T09:04:24.751Z</time></trkpt><trkpt lat="44.4652533" lon="11.1977067"><ele>108.57142857142857</ele><time>2026-03-28T09:04:25.75Z</time></trkpt><trkpt lat="44.4652917" lon="11.1976233"><ele>109.14285714285714</ele><time>2026-03-28T09:04:26.751Z</time></trkpt><trkpt lat="44.4653367" lon="11.1975433"><ele>109.71428571428572</ele><time>2026-03-28T09:04:27.751Z</time></trkpt><trkpt lat="44.4653817" lon="11.1974633"><ele>110.28571428571428</ele><time>2026-03-28T09:04:28.751Z</time></trkpt><trkpt lat="44.46543" lon="11.1973933"><ele>110.85714285714286</ele><time>2026-03-28T09:04:29.751Z</time></trkpt><trkpt lat="44.465475" lon="11.197325"><ele>111.42857142857143</ele><time>2026-03-28T09:04:30.752Z</time></trkpt><trkpt lat="44.4655217" lon="11.19726"><ele>112.0</ele><time>2026-03-28T09:04:31.752Z</time></trkpt><trkpt lat="44.4655767" lon="11.1972067"><ele>110.42857142857143</ele><time>2026-03-28T09:04:32.752Z</time></trkpt><trkpt lat="44.46563" lon="11.1971467"><ele>108.85714285714286</ele><time>2026-03-28T09:04:33.752Z</time></trkpt><trkpt lat="44.4656833" lon="11.1970817"><ele>107.28571428571428</ele><time>2026-03-28T09:04:34.752Z</time></trkpt><trkpt lat="44.4657383" lon="11.197015"><ele>105.71428571428572</ele><time>2026-03-28T09:04:35.752Z</time></trkpt><trkpt lat="44.4657967" lon="11.196965"><ele>104.14285714285714</ele><time>2026-03-28T09:04:36.752Z</time></trkpt><trkpt lat="44.4658567" lon="11.1969067"><ele>102.57142857142857</ele><time>2026-03-28T09:04:37.752Z</time></trkpt><trkpt lat="44.4659167" lon="11.1968467"><ele>101.0</ele><time>2026-03-28T09:04:38.751Z</time></trkpt><trkpt lat="44.4659733" lon="11.19678"><ele>101.0</ele><time>2026-03-28T09:04:39.751Z</time></trkpt><trkpt lat="44.466025" lon="11.19671"><ele>101.0</ele><time>2026-03-28T09:04:40.752Z</time></trkpt><trkpt lat="44.4660767" lon="11.1966433"><ele>101.0</ele><time>2026-03-28T09:04:41.752Z</time></trkpt><trkpt lat="44.46613" lon="11.1965817"><ele>101.0</ele><time>2026-03-28T09:04:42.752Z</time></trkpt><trkpt lat="44.4661883" lon="11.1965183"><ele>101.0</ele><time>2026-03-28T09:04:43.752Z</time></trkpt><trkpt lat="44.46624" lon="11.1964567"><ele>101.0</ele><time>2026-03-28T09:04:44.752Z</time></trkpt><trkpt lat="44.466295" lon="11.1963883"><ele>101.0</ele><time>2026-03-28T09:04:45.752Z</time></trkpt><trkpt lat="44.4663517" lon="11.19633"><ele>101.0</ele><time>2026-03-28T09:04:46.752Z</time></trkpt><trkpt lat="44.46641" lon="11.196265"><ele>101.0</ele><time>2026-03-28T09:04:47.752Z</time></trkpt><trkpt lat="44.46646" lon="11.1962033"><ele>101.0</ele><time>2026-03-28T09:04:48.752Z</time></trkpt><trkpt lat="44.4665117" lon="11.1961467"><ele>101.0</ele><time>2026-03-28T09:04:49.752Z</time></trkpt><trkpt lat="44.46657" lon="11.1960867"><ele>101.0</ele><time>2026-03-28T09:04:50.752Z</time></trkpt><trkpt lat="44.4666333" lon="11.196025"><ele>101.0</ele><time>2026-03-28T09:04:51.752Z</time></trkpt><trkpt lat="44.4666867" lon="11.19597"><ele>101.0</ele><time>2026-03-28T09:04:52.752Z</time></trkpt><trkpt lat="44.4667417" lon="11.19591"><ele>101.0</ele><time>2026-03-28T09:04:53.751Z</time></trkpt><trkpt lat="44.4667933" lon="11.19584"><ele>101.0</ele><time>2026-03-28T09:04:54.752Z</time></trkpt><trkpt lat="44.4668483" lon="11.19577"><ele>101.0</ele><time>2026-03-28T09:04:55.752Z</time></trkpt><trkpt lat="44.46694" lon="11.19564"><ele>101.0</ele><time>2026-03-28T09:04:57.751Z</time></trkpt><trkpt lat="44.4669833" lon="11.1955733"><ele>101.0</ele><time>2026-03-28T09:04:58.751Z</time></trkpt><trkpt lat="44.467035" lon="11.195425"><ele>101.49999999999999</ele><time>2026-03-28T09:05:00.752Z</time></trkpt><trkpt lat="44.4670417" lon="11.1953367"><ele>102.0</ele><time>2026-03-28T09:05:01.752Z</time></trkpt><trkpt lat="44.4670383" lon="11.1951933"><ele>102.5</ele><time>2026-03-28T09:05:03.752Z</time></trkpt><trkpt lat="44.4670167" lon="11.1950517"><ele>103.0</ele><time>2026-03-28T09:05:05.752Z</time></trkpt><trkpt lat="44.4669833" lon="11.1949233"><ele>103.49999999999999</ele><time>2026-03-28T09:05:07.751Z</time></trkpt><trkpt lat="44.4669867" lon="11.19481"><ele>104.0</ele><time>2026-03-28T09:05:09.752Z</time></trkpt><trkpt lat="44.4669517" lon="11.1946733"><ele>104.49999999999999</ele><time>2026-03-28T09:05:11.752Z</time></trkpt><trkpt lat="44.4669183" lon="11.1945533"><ele>105.0</ele><time>2026-03-28T09:05:13.752Z</time></trkpt><trkpt lat="44.4668883" lon="11.19444"><ele>105.5</ele><time>2026-03-28T09:05:15.752Z</time></trkpt><trkpt lat="44.4668617" lon="11.1943317"><ele>106.0</ele><time>2026-03-28T09:05:17.752Z</time></trkpt><trkpt lat="44.4668433" lon="11.1942283"><ele>106.49999999999999</ele><time>2026-03-28T09:05:19.752Z</time></trkpt><trkpt lat="44.4668167" lon="11.1941217"><ele>107.0</ele><time>2026-03-28T09:05:21.751Z</time></trkpt><trkpt lat="44.46678" lon="11.1940233"><ele>107.49999999999999</ele><time>2026-03-28T09:05:23.751Z</time></trkpt><trkpt lat="44.46675" lon="11.193925"><ele>108.0</ele><time>2026-03-28T09:05:25.752Z</time></trkpt><trkpt lat="44.4667183" lon="11.193815"><ele>108.5</ele><time>2026-03-28T09:05:27.751Z</time></trkpt><trkpt lat="44.466675" lon="11.193715"><ele>109.0</ele><time>2026-03-28T09:05:29.752Z</time></trkpt><trkpt lat="44.4666217" lon="11.1936183"><ele>109.49999999999999</ele><time>2026-03-28T09:05:31.752Z</time></trkpt><trkpt lat="44.4665833" lon="11.19351"><ele>110.0</ele><time>2026-03-28T09:05:33.752Z</time></trkpt><trkpt lat="44.4665333" lon="11.1934067"><ele>110.0</ele><time>2026-03-28T09:05:35.751Z</time></trkpt><trkpt lat="44.4664833" lon="11.193295"><ele>110.0</ele><time>2026-03-28T09:05:37.752Z</time></trkpt><trkpt lat="44.4664283" lon="11.19318"><ele>110.0</ele><time>2026-03-28T09:05:39.752Z</time></trkpt><trkpt lat="44.4663783" lon="11.1930683"><ele>110.0</ele><time>2026-03-28T09:05:41.752Z</time></trkpt><trkpt lat="44.466315" lon="11.1929633"><ele>110.0</ele><time>2026-03-28T09:05:43.752Z</time></trkpt><trkpt lat="44.4662767" lon="11.1928417"><ele>109.8</ele><time>2026-03-28T09:05:45.752Z</time></trkpt><trkpt lat="44.4662317" lon="11.192725"><ele>109.6</ele><time>2026-03-28T09:05:47.752Z</time></trkpt><trkpt lat="44.4661717" lon="11.192605"><ele>109.4</ele><time>2026-03-28T09:05:49.751Z</time></trkpt><trkpt lat="44.4661183" lon="11.1924867"><ele>109.2</ele><time>2026-03-28T09:05:51.752Z</time></trkpt><trkpt lat="44.46606" lon="11.192375"><ele>109.0</ele><time>2026-03-28T09:05:53.751Z</time></trkpt><trkpt lat="44.4659967" lon="11.1922533"><ele>109.6</ele><time>2026-03-28T09:05:55.752Z</time></trkpt><trkpt lat="44.465945" lon="11.1921267"><ele>110.2</ele><time>2026-03-28T09:05:57.752Z</time></trkpt><trkpt lat="44.46589" lon="11.1920133"><ele>110.79999999999998</ele><time>2026-03-28T09:05:59.752Z</time></trkpt><trkpt lat="44.4658217" lon="11.191895"><ele>111.39999999999999</ele><time>2026-03-28T09:06:01.752Z</time></trkpt><trkpt lat="44.4657467" lon="11.1917917"><ele>112.0</ele><time>2026-03-28T09:06:03.752Z</time></trkpt><trkpt lat="44.4656783" lon="11.191675"><ele>112.0</ele><time>2026-03-28T09:06:05.752Z</time></trkpt><trkpt lat="44.4656117" lon="11.19157"><ele>111.99999999999999</ele><time>2026-03-28T09:06:07.752Z</time></trkpt><trkpt lat="44.4655367" lon="11.1914633"><ele>111.99999999999999</ele><time>2026-03-28T09:06:09.752Z</time></trkpt><trkpt lat="44.4654667" lon="11.19135"><ele>112.0</ele><time>2026-03-28T09:06:11.752Z</time></trkpt><trkpt lat="44.46541" lon="11.1912183"><ele>112.0</ele><time>2026-03-28T09:06:13.752Z</time></trkpt><trkpt lat="44.465355" lon="11.191085"><ele>112.0</ele><time>2026-03-28T09:06:15.752Z</time></trkpt><trkpt lat="44.46532" lon="11.1909417"><ele>112.0</ele><time>2026-03-28T09:06:17.751Z</time></trkpt><trkpt lat="44.46528" lon="11.19079"><ele>112.0</ele><time>2026-03-28T09:06:19.752Z</time></trkpt><trkpt lat="44.4652633" lon="11.1906433"><ele>112.0</ele><time>2026-03-28T09:06:21.752Z</time></trkpt><trkpt lat="44.46526" lon="11.1904683"><ele>112.0</ele><time>2026-03-28T09:06:23.752Z</time></trkpt><trkpt lat="44.4652583" lon="11.1903783"><ele>111.99999999999999</ele><time>2026-03-28T09:06:24.752Z</time></trkpt><trkpt lat="44.4652583" lon="11.190205"><ele>111.99999999999999</ele><time>2026-03-28T09:06:26.751Z</time></trkpt><trkpt lat="44.4652567" lon="11.1900283"><ele>112.0</ele><time>2026-03-28T09:06:28.752Z</time></trkpt><trkpt lat="44.4652433" lon="11.1898733"><ele>112.0</ele><time>2026-03-28T09:06:30.751Z</time></trkpt><trkpt lat="44.4652083" lon="11.1897167"><ele>112.39999999999999</ele><time>2026-03-28T09:06:32.752Z</time></trkpt><trkpt lat="44.4651683" lon="11.1895817"><ele>112.79999999999998</ele><time>2026-03-28T09:06:34.752Z</time></trkpt><trkpt lat="44.4651267" lon="11.189455"><ele>113.2</ele><time>2026-03-28T09:06:36.752Z</time></trkpt><trkpt lat="44.4650817" lon="11.1893317"><ele>113.6</ele><time>2026-03-28T09:06:38.752Z</time></trkpt><trkpt lat="44.4650417" lon="11.1892183"><ele>114.0</ele><time>2026-03-28T09:06:40.752Z</time></trkpt><trkpt lat="44.4650033" lon="11.189105"><ele>115.4</ele><time>2026-03-28T09:06:42.752Z</time></trkpt><trkpt lat="44.4649617" lon="11.1889933"><ele>116.80000000000001</ele><time>2026-03-28T09:06:44.752Z</time></trkpt><trkpt lat="44.4649183" lon="11.18888"><ele>118.19999999999999</ele><time>2026-03-28T09:06:46.752Z</time></trkpt><trkpt lat="44.4648767" lon="11.188755"><ele>119.6</ele><time>2026-03-28T09:06:48.752Z</time></trkpt><trkpt lat="44.46484" lon="11.1886367"><ele>121.0</ele><time>2026-03-28T09:06:50.752Z</time></trkpt><trkpt lat="44.4648083" lon="11.1885283"><ele>121.0</ele><time>2026-03-28T09:06:52.752Z</time></trkpt><trkpt lat="44.4647733" lon="11.1884183"><ele>121.0</ele><time>2026-03-28T09:06:54.751Z</time></trkpt><trkpt lat="44.4647433" lon="11.188295"><ele>121.0</ele><time>2026-03-28T09:06:56.752Z</time></trkpt><trkpt lat="44.4647217" lon="11.188165"><ele>121.0</ele><time>2026-03-28T09:06:58.751Z</time></trkpt><trkpt lat="44.4647167" lon="11.1880317"><ele>121.0</ele><time>2026-03-28T09:07:00.751Z</time></trkpt><trkpt lat="44.4647117" lon="11.187895"><ele>120.8</ele><time>2026-03-28T09:07:02.752Z</time></trkpt><trkpt lat="44.464715" lon="11.1877733"><ele>120.6</ele><time>2026-03-28T09:07:04.752Z</time></trkpt><trkpt lat="44.4647233" lon="11.1876367"><ele>120.4</ele><time>2026-03-28T09:07:06.752Z</time></trkpt><trkpt lat="44.4647467" lon="11.187515"><ele>120.2</ele><time>2026-03-28T09:07:08.751Z</time></trkpt><trkpt lat="44.4647833" lon="11.1873983"><ele>120.0</ele><time>2026-03-28T09:07:10.752Z</time></trkpt><trkpt lat="44.46483" lon="11.1872917"><ele>120.0</ele><time>2026-03-28T09:07:12.752Z</time></trkpt><trkpt lat="44.4648867" lon="11.1871883"><ele>120.0</ele><time>2026-03-28T09:07:14.752Z</time></trkpt><trkpt lat="44.46494" lon="11.1870867"><ele>120.0</ele><time>2026-03-28T09:07:16.752Z</time></trkpt><trkpt lat="44.4649983" lon="11.186995"><ele>120.0</ele><time>2026-03-28T09:07:18.752Z</time></trkpt><trkpt lat="44.4650483" lon="11.1868967"><ele>120.0</ele><time>2026-03-28T09:07:20.752Z</time></trkpt><trkpt lat="44.4650883" lon="11.186795"><ele>120.0</ele><time>2026-03-28T09:07:22.751Z</time></trkpt><trkpt lat="44.4651167" lon="11.1866733"><ele>120.0</ele><time>2026-03-28T09:07:24.752Z</time></trkpt><trkpt lat="44.4651283" lon="11.18654"><ele>120.0</ele><time>2026-03-28T09:07:26.752Z</time></trkpt><trkpt lat="44.4651267" lon="11.1863933"><ele>120.0</ele><time>2026-03-28T09:07:28.752Z</time></trkpt><trkpt lat="44.4651133" lon="11.1862383"><ele>120.0</ele><time>2026-03-28T09:07:30.752Z</time></trkpt><trkpt lat="44.4650917" lon="11.18611"><ele>120.0</ele><time>2026-03-28T09:07:32.752Z</time></trkpt><trkpt lat="44.4650617" lon="11.1859833"><ele>120.0</ele><time>2026-03-28T09:07:34.752Z</time></trkpt><trkpt lat="44.46503" lon="11.18585"><ele>120.0</ele><time>2026-03-28T09:07:36.752Z</time></trkpt><trkpt lat="44.4650017" lon="11.1857167"><ele>120.0</ele><time>2026-03-28T09:07:38.752Z</time></trkpt><trkpt lat="44.4649783" lon="11.1855783"><ele>120.0</ele><time>2026-03-28T09:07:40.752Z</time></trkpt><trkpt lat="44.464955" lon="11.185445"><ele>120.0</ele><time>2026-03-28T09:07:42.752Z</time></trkpt><trkpt lat="44.464935" lon="11.1853083"><ele>120.0</ele><time>2026-03-28T09:07:44.752Z</time></trkpt><trkpt lat="44.464925" lon="11.185185"><ele>120.0</ele><time>2026-03-28T09:07:46.752Z</time></trkpt><trkpt lat="44.464925" lon="11.185055"><ele>120.0</ele><time>2026-03-28T09:07:48.752Z</time></trkpt><trkpt lat="44.4649317" lon="11.1849317"><ele>120.0</ele><time>2026-03-28T09:07:50.752Z</time></trkpt><trkpt lat="44.4649467" lon="11.1847933"><ele>120.0</ele><time>2026-03-28T09:07:52.752Z</time></trkpt><trkpt lat="44.4649517" lon="11.1846567"><ele>119.6</ele><time>2026-03-28T09:07:54.751Z</time></trkpt><trkpt lat="44.4649667" lon="11.184515"><ele>119.2</ele><time>2026-03-28T09:07:56.752Z</time></trkpt><trkpt lat="44.46499" lon="11.1843833"><ele>118.80000000000001</ele><time>2026-03-28T09:07:58.751Z</time></trkpt><trkpt lat="44.465" lon="11.1842417"><ele>118.4</ele><time>2026-03-28T09:08:00.752Z</time></trkpt><trkpt lat="44.4650167" lon="11.1840917"><ele>118.0</ele><time>2026-03-28T09:08:02.752Z</time></trkpt><trkpt lat="44.46501" lon="11.1839367"><ele>117.80000000000001</ele><time>2026-03-28T09:08:04.752Z</time></trkpt><trkpt lat="44.464995" lon="11.1837783"><ele>117.60000000000001</ele><time>2026-03-28T09:08:06.752Z</time></trkpt><trkpt lat="44.4649683" lon="11.1836267"><ele>117.39999999999999</ele><time>2026-03-28T09:08:08.752Z</time></trkpt><trkpt lat="44.4649367" lon="11.1834933"><ele>117.19999999999999</ele><time>2026-03-28T09:08:10.752Z</time></trkpt><trkpt lat="44.4649083" lon="11.1833567"><ele>117.0</ele><time>2026-03-28T09:08:12.752Z</time></trkpt><trkpt lat="44.4648817" lon="11.1832083"><ele>117.39999999999999</ele><time>2026-03-28T09:08:14.752Z</time></trkpt><trkpt lat="44.46484" lon="11.1830667"><ele>117.79999999999998</ele><time>2026-03-28T09:08:16.752Z</time></trkpt><trkpt lat="44.4648067" lon="11.182925"><ele>118.2</ele><time>2026-03-28T09:08:18.751Z</time></trkpt><trkpt lat="44.4647817" lon="11.18279"><ele>118.6</ele><time>2026-03-28T09:08:20.752Z</time></trkpt><trkpt lat="44.4647467" lon="11.1826517"><ele>119.0</ele><time>2026-03-28T09:08:22.752Z</time></trkpt><trkpt lat="44.464705" lon="11.18252"><ele>119.0</ele><time>2026-03-28T09:08:24.751Z</time></trkpt><trkpt lat="44.4646783" lon="11.1823883"><ele>119.0</ele><time>2026-03-28T09:08:26.751Z</time></trkpt><trkpt lat="44.4646433" lon="11.1822467"><ele>119.0</ele><time>2026-03-28T09:08:28.752Z</time></trkpt><trkpt lat="44.4646083" lon="11.182105"><ele>119.0</ele><time>2026-03-28T09:08:30.752Z</time></trkpt><trkpt lat="44.4645733" lon="11.181965"><ele>119.0</ele><time>2026-03-28T09:08:32.752Z</time></trkpt><trkpt lat="44.4645417" lon="11.1818267"><ele>118.6</ele><time>2026-03-28T09:08:34.752Z</time></trkpt><trkpt lat="44.464505" lon="11.181685"><ele>118.2</ele><time>2026-03-28T09:08:36.752Z</time></trkpt><trkpt lat="44.46447" lon="11.1815467"><ele>117.79999999999998</ele><time>2026-03-28T09:08:38.752Z</time></trkpt><trkpt lat="44.4644383" lon="11.1814167"><ele>117.39999999999999</ele><time>2026-03-28T09:08:40.752Z</time></trkpt><trkpt lat="44.4644017" lon="11.1812767"><ele>117.0</ele><time>2026-03-28T09:08:42.752Z</time></trkpt><trkpt lat="44.464365" lon="11.1811383"><ele>116.8</ele><time>2026-03-28T09:08:44.751Z</time></trkpt><trkpt lat="44.4643267" lon="11.1809967"><ele>116.6</ele><time>2026-03-28T09:08:46.752Z</time></trkpt><trkpt lat="44.4643" lon="11.18085"><ele>116.39999999999999</ele><time>2026-03-28T09:08:48.752Z</time></trkpt><trkpt lat="44.4642633" lon="11.180715"><ele>116.19999999999999</ele><time>2026-03-28T09:08:50.752Z</time></trkpt><trkpt lat="44.4642233" lon="11.1805783"><ele>116.0</ele><time>2026-03-28T09:08:52.752Z</time></trkpt><trkpt lat="44.4641817" lon="11.1804433"><ele>116.6</ele><time>2026-03-28T09:08:54.751Z</time></trkpt><trkpt lat="44.4641483" lon="11.1802967"><ele>117.19999999999999</ele><time>2026-03-28T09:08:56.751Z</time></trkpt><trkpt lat="44.464115" lon="11.1801567"><ele>117.80000000000001</ele><time>2026-03-28T09:08:58.752Z</time></trkpt><trkpt lat="44.4640783" lon="11.180015"><ele>118.4</ele><time>2026-03-28T09:09:00.752Z</time></trkpt><trkpt lat="44.4640417" lon="11.1798683"><ele>119.0</ele><time>2026-03-28T09:09:02.751Z</time></trkpt><trkpt lat="44.464025" lon="11.1797367"><ele>120.6</ele><time>2026-03-28T09:09:04.752Z</time></trkpt><trkpt lat="44.464" lon="11.1796033"><ele>122.2</ele><time>2026-03-28T09:09:06.752Z</time></trkpt><trkpt lat="44.46397" lon="11.1794717"><ele>123.79999999999998</ele><time>2026-03-28T09:09:08.752Z</time></trkpt><trkpt lat="44.4639333" lon="11.1792933"><ele>125.39999999999999</ele><time>2026-03-28T09:09:11.751Z</time></trkpt><trkpt lat="44.463905" lon="11.179195"><ele>127.0</ele><time>2026-03-28T09:09:13.752Z</time></trkpt><trkpt lat="44.463855" lon="11.1791067"><ele>126.50000000000001</ele><time>2026-03-28T09:09:15.752Z</time></trkpt><trkpt lat="44.4638233" lon="11.17901"><ele>126.0</ele><time>2026-03-28T09:09:17.753Z</time></trkpt><trkpt lat="44.4638067" lon="11.1788983"><ele>125.5</ele><time>2026-03-28T09:09:19.753Z</time></trkpt><trkpt lat="44.4637817" lon="11.1787933"><ele>125.0</ele><time>2026-03-28T09:09:21.752Z</time></trkpt><trkpt lat="44.4637433" lon="11.1786967"><ele>124.50000000000001</ele><time>2026-03-28T09:09:23.753Z</time></trkpt><trkpt lat="44.463715" lon="11.1786033"><ele>124.0</ele><time>2026-03-28T09:09:25.753Z</time></trkpt><trkpt lat="44.4636833" lon="11.1785033"><ele>124.00000000000001</ele><time>2026-03-28T09:09:27.753Z</time></trkpt><trkpt lat="44.463665" lon="11.1784067"><ele>124.0</ele><time>2026-03-28T09:09:29.753Z</time></trkpt><trkpt lat="44.4636333" lon="11.1783"><ele>124.0</ele><time>2026-03-28T09:09:31.753Z</time></trkpt><trkpt lat="44.4636083" lon="11.1781917"><ele>124.0</ele><time>2026-03-28T09:09:33.752Z</time></trkpt><trkpt lat="44.46359" lon="11.1780867"><ele>124.00000000000001</ele><time>2026-03-28T09:09:35.753Z</time></trkpt><trkpt lat="44.46356" lon="11.1779867"><ele>124.0</ele><time>2026-03-28T09:09:37.752Z</time></trkpt><trkpt lat="44.4635383" lon="11.1778817"><ele>124.66666666666667</ele><time>2026-03-28T09:09:39.753Z</time></trkpt><trkpt lat="44.4635067" lon="11.1777767"><ele>125.33333333333334</ele><time>2026-03-28T09:09:41.753Z</time></trkpt><trkpt lat="44.4634883" lon="11.17767"><ele>126.0</ele><time>2026-03-28T09:09:43.752Z</time></trkpt><trkpt lat="44.4634683" lon="11.1775667"><ele>126.66666666666666</ele><time>2026-03-28T09:09:45.753Z</time></trkpt><trkpt lat="44.4634483" lon="11.1774633"><ele>127.33333333333333</ele><time>2026-03-28T09:09:47.753Z</time></trkpt><trkpt lat="44.4634367" lon="11.1773517"><ele>128.0</ele><time>2026-03-28T09:09:49.753Z</time></trkpt><trkpt lat="44.4634333" lon="11.17723"><ele>127.99999999999999</ele><time>2026-03-28T09:09:51.752Z</time></trkpt><trkpt lat="44.463445" lon="11.177115"><ele>128.0</ele><time>2026-03-28T09:09:53.753Z</time></trkpt><trkpt lat="44.4634467" lon="11.1770117"><ele>128.0</ele><time>2026-03-28T09:09:55.752Z</time></trkpt><trkpt lat="44.46345" lon="11.1769"><ele>128.0</ele><time>2026-03-28T09:09:57.753Z</time></trkpt><trkpt lat="44.4634467" lon="11.1767833"><ele>127.99999999999999</ele><time>2026-03-28T09:09:59.753Z</time></trkpt><trkpt lat="44.4634467" lon="11.176675"><ele>128.0</ele><time>2026-03-28T09:10:01.752Z</time></trkpt><trkpt lat="44.4634617" lon="11.176565"><ele>128.33333333333331</ele><time>2026-03-28T09:10:03.753Z</time></trkpt><trkpt lat="44.4634983" lon="11.176445"><ele>128.66666666666666</ele><time>2026-03-28T09:10:05.753Z</time></trkpt><trkpt lat="44.4635233" lon="11.1763333"><ele>129.0</ele><time>2026-03-28T09:10:07.753Z</time></trkpt><trkpt lat="44.463545" lon="11.1762317"><ele>129.33333333333334</ele><time>2026-03-28T09:10:09.752Z</time></trkpt><trkpt lat="44.4635483" lon="11.1761117"><ele>129.66666666666669</ele><time>2026-03-28T09:10:11.753Z</time></trkpt><trkpt lat="44.46355" lon="11.17601"><ele>130.0</ele><time>2026-03-28T09:10:13.753Z</time></trkpt><trkpt lat="44.4635517" lon="11.175905"><ele>130.00000000000003</ele><time>2026-03-28T09:10:15.753Z</time></trkpt><trkpt lat="44.4635517" lon="11.1758167"><ele>130.0</ele><time>2026-03-28T09:10:17.753Z</time></trkpt><trkpt lat="44.46354" lon="11.1757233"><ele>130.0</ele><time>2026-03-28T09:10:19.753Z</time></trkpt><trkpt lat="44.4635383" lon="11.175635"><ele>130.0</ele><time>2026-03-28T09:10:21.753Z</time></trkpt><trkpt lat="44.4635483" lon="11.1755433"><ele>130.0</ele><time>2026-03-28T09:10:23.752Z</time></trkpt><trkpt lat="44.463555" lon="11.175455"><ele>130.00000000000003</ele><time>2026-03-28T09:10:25.753Z</time></trkpt><trkpt lat="44.4635417" lon="11.1753267"><ele>130.0</ele><time>2026-03-28T09:10:28.753Z</time></trkpt><trkpt lat="44.4635383" lon="11.1752383"><ele>130.83333333333334</ele><time>2026-03-28T09:10:30.753Z</time></trkpt><trkpt lat="44.4635317" lon="11.175145"><ele>131.66666666666669</ele><time>2026-03-28T09:10:32.753Z</time></trkpt><trkpt lat="44.4635167" lon="11.1750167"><ele>132.5</ele><time>2026-03-28T09:10:35.753Z</time></trkpt><trkpt lat="44.46351" lon="11.1749267"><ele>133.33333333333334</ele><time>2026-03-28T09:10:37.753Z</time></trkpt><trkpt lat="44.4634983" lon="11.1748333"><ele>134.16666666666666</ele><time>2026-03-28T09:10:39.753Z</time></trkpt><trkpt lat="44.463495" lon="11.1747433"><ele>135.0</ele><time>2026-03-28T09:10:41.753Z</time></trkpt><trkpt lat="44.4634917" lon="11.1746117"><ele>136.5</ele><time>2026-03-28T09:10:44.752Z</time></trkpt><trkpt lat="44.4634683" lon="11.1744917"><ele>138.0</ele><time>2026-03-28T09:10:47.753Z</time></trkpt><trkpt lat="44.4634483" lon="11.1743983"><ele>139.5</ele><time>2026-03-28T09:10:49.753Z</time></trkpt><trkpt lat="44.4634167" lon="11.1742767"><ele>141.0</ele><time>2026-03-28T09:10:52.752Z</time></trkpt><trkpt lat="44.463375" lon="11.174155"><ele>142.5</ele><time>2026-03-28T09:10:55.753Z</time></trkpt><trkpt lat="44.4633533" lon="11.1740683"><ele>144.0</ele><time>2026-03-28T09:10:57.753Z</time></trkpt><trkpt lat="44.4633333" lon="11.17394"><ele>146.00000000000003</ele><time>2026-03-28T09:11:00.752Z</time></trkpt><trkpt lat="44.4633217" lon="11.1738533"><ele>148.0</ele><time>2026-03-28T09:11:02.752Z</time></trkpt><trkpt lat="44.4632967" lon="11.1737683"><ele>150.0</ele><time>2026-03-28T09:11:04.752Z</time></trkpt><trkpt lat="44.4632817" lon="11.1736383"><ele>152.0</ele><time>2026-03-28T09:11:07.753Z</time></trkpt><trkpt lat="44.4632567" lon="11.173555"><ele>154.0</ele><time>2026-03-28T09:11:09.753Z</time></trkpt><trkpt lat="44.4632233" lon="11.173435"><ele>156.00000000000003</ele><time>2026-03-28T09:11:12.752Z</time></trkpt><trkpt lat="44.4631883" lon="11.173355"><ele>158.0</ele><time>2026-03-28T09:11:14.753Z</time></trkpt><trkpt lat="44.46316" lon="11.1732667"><ele>159.16666666666666</ele><time>2026-03-28T09:11:16.753Z</time></trkpt><trkpt lat="44.4631233" lon="11.1731483"><ele>160.33333333333331</ele><time>2026-03-28T09:11:19.752Z</time></trkpt><trkpt lat="44.4631117" lon="11.1730167"><ele>161.5</ele><time>2026-03-28T09:11:22.752Z</time></trkpt><trkpt lat="44.4630983" lon="11.1728917"><ele>162.66666666666666</ele><time>2026-03-28T09:11:25.752Z</time></trkpt><trkpt lat="44.463095" lon="11.1728033"><ele>163.83333333333334</ele><time>2026-03-28T09:11:27.753Z</time></trkpt><trkpt lat="44.4630833" lon="11.1726733"><ele>165.0</ele><time>2026-03-28T09:11:30.753Z</time></trkpt><trkpt lat="44.4630717" lon="11.1725533"><ele>165.0</ele><time>2026-03-28T09:11:33.753Z</time></trkpt><trkpt lat="44.4630617" lon="11.172425"><ele>165.0</ele><time>2026-03-28T09:11:36.753Z</time></trkpt><trkpt lat="44.4630483" lon="11.1723033"><ele>165.0</ele><time>2026-03-28T09:11:39.752Z</time></trkpt><trkpt lat="44.46305" lon="11.1721967"><ele>165.0</ele><time>2026-03-28T09:11:42.753Z</time></trkpt><trkpt lat="44.4631233" lon="11.17218"><ele>165.0</ele><time>2026-03-28T09:11:46.753Z</time></trkpt><trkpt lat="44.463115" lon="11.1723"><ele>165.0</ele><time>2026-03-28T09:11:49.752Z</time></trkpt><trkpt lat="44.4631067" lon="11.1724133"><ele>165.0</ele><time>2026-03-28T09:11:52.753Z</time></trkpt><trkpt lat="44.4631283" lon="11.17252"><ele>165.0</ele><time>2026-03-28T09:11:55.753Z</time></trkpt><trkpt lat="44.4631517" lon="11.1726117"><ele>165.0</ele><time>2026-03-28T09:11:58.753Z</time></trkpt><trkpt lat="44.4631733" lon="11.1727"><ele>165.0</ele><time>2026-03-28T09:12:00.753Z</time></trkpt><trkpt lat="44.4632" lon="11.17282"><ele>165.0</ele><time>2026-03-28T09:12:03.752Z</time></trkpt><trkpt lat="44.4632367" lon="11.172935"><ele>165.0</ele><time>2026-03-28T09:12:06.753Z</time></trkpt><trkpt lat="44.46328" lon="11.17302"><ele>165.0</ele><time>2026-03-28T09:12:09.753Z</time></trkpt><trkpt lat="44.4633183" lon="11.1731267"><ele>165.0</ele><time>2026-03-28T09:12:12.753Z</time></trkpt><trkpt lat="44.4633683" lon="11.1732333"><ele>165.0</ele><time>2026-03-28T09:12:15.753Z</time></trkpt><trkpt lat="44.46342" lon="11.17332"><ele>165.0</ele><time>2026-03-28T09:12:18.753Z</time></trkpt><trkpt lat="44.46349" lon="11.173395"><ele>165.0</ele><time>2026-03-28T09:12:21.753Z</time></trkpt><trkpt lat="44.463555" lon="11.1734667"><ele>165.0</ele><time>2026-03-28T09:12:24.753Z</time></trkpt><trkpt lat="44.4636217" lon="11.17353"><ele>163.83333333333334</ele><time>2026-03-28T09:12:27.752Z</time></trkpt><trkpt lat="44.4636833" lon="11.1736083"><ele>162.66666666666666</ele><time>2026-03-28T09:12:30.753Z</time></trkpt><trkpt lat="44.4637417" lon="11.1736933"><ele>161.5</ele><time>2026-03-28T09:12:33.752Z</time></trkpt><trkpt lat="44.4637883" lon="11.173795"><ele>160.33333333333331</ele><time>2026-03-28T09:12:36.753Z</time></trkpt><trkpt lat="44.4638167" lon="11.1739133"><ele>159.16666666666666</ele><time>2026-03-28T09:12:39.752Z</time></trkpt><trkpt lat="44.4638233" lon="11.1740367"><ele>158.0</ele><time>2026-03-28T09:12:42.752Z</time></trkpt><trkpt lat="44.463835" lon="11.174155"><ele>161.33333333333331</ele><time>2026-03-28T09:12:45.752Z</time></trkpt><trkpt lat="44.4638517" lon="11.174265"><ele>164.66666666666666</ele><time>2026-03-28T09:12:48.753Z</time></trkpt><trkpt lat="44.4638717" lon="11.1743867"><ele>168.0</ele><time>2026-03-28T09:12:51.753Z</time></trkpt><trkpt lat="44.4638933" lon="11.1745067"><ele>171.33333333333334</ele><time>2026-03-28T09:12:54.753Z</time></trkpt><trkpt lat="44.46392" lon="11.17462"><ele>174.66666666666669</ele><time>2026-03-28T09:12:57.753Z</time></trkpt><trkpt lat="44.4639517" lon="11.1747333"><ele>178.0</ele><time>2026-03-28T09:13:00.753Z</time></trkpt><trkpt lat="44.4639783" lon="11.1748483"><ele>178.0</ele><time>2026-03-28T09:13:03.753Z</time></trkpt><trkpt lat="44.4640217" lon="11.17495"><ele>178.0</ele><time>2026-03-28T09:13:06.753Z</time></trkpt><trkpt lat="44.4640883" lon="11.17499"><ele>178.0</ele><time>2026-03-28T09:13:09.752Z</time></trkpt><trkpt lat="44.464135" lon="11.1749283"><ele>178.0</ele><time>2026-03-28T09:13:11.753Z</time></trkpt><trkpt lat="44.4641267" lon="11.1748383"><ele>178.0</ele><time>2026-03-28T09:13:13.753Z</time></trkpt><trkpt lat="44.464095" lon="11.1747233"><ele>178.0</ele><time>2026-03-28T09:13:16.753Z</time></trkpt><trkpt lat="44.4640633" lon="11.1746133"><ele>178.0</ele><time>2026-03-28T09:13:19.753Z</time></trkpt><trkpt lat="44.464045" lon="11.174485"><ele>178.0</ele><time>2026-03-28T09:13:22.753Z</time></trkpt><trkpt lat="44.4640267" lon="11.1743667"><ele>178.0</ele><time>2026-03-28T09:13:25.753Z</time></trkpt><trkpt lat="44.46404" lon="11.1742483"><ele>178.0</ele><time>2026-03-28T09:13:28.753Z</time></trkpt><trkpt lat="44.46408" lon="11.174155"><ele>178.0</ele><time>2026-03-28T09:13:31.753Z</time></trkpt><trkpt lat="44.4641067" lon="11.1740533"><ele>178.0</ele><time>2026-03-28T09:13:34.753Z</time></trkpt><trkpt lat="44.4641233" lon="11.1739483"><ele>179.66666666666669</ele><time>2026-03-28T09:13:37.753Z</time></trkpt><trkpt lat="44.464135" lon="11.1738383"><ele>181.33333333333334</ele><time>2026-03-28T09:13:40.753Z</time></trkpt><trkpt lat="44.4641467" lon="11.1737217"><ele>183.0</ele><time>2026-03-28T09:13:43.752Z</time></trkpt><trkpt lat="44.464135" lon="11.1736333"><ele>184.66666666666666</ele><time>2026-03-28T09:13:45.752Z</time></trkpt><trkpt lat="44.4641033" lon="11.1735517"><ele>186.33333333333331</ele><time>2026-03-28T09:13:47.753Z</time></trkpt><trkpt lat="44.4640467" lon="11.1734533"><ele>188.0</ele><time>2026-03-28T09:13:50.753Z</time></trkpt><trkpt lat="44.4639917" lon="11.1733633"><ele>188.0</ele><time>2026-03-28T09:13:53.752Z</time></trkpt><trkpt lat="44.46393" lon="11.173295"><ele>188.0</ele><time>2026-03-28T09:13:56.752Z</time></trkpt><trkpt lat="44.4638633" lon="11.173245"><ele>188.0</ele><time>2026-03-28T09:13:59.753Z</time></trkpt><trkpt lat="44.4638" lon="11.1731817"><ele>188.0</ele><time>2026-03-28T09:14:02.752Z</time></trkpt><trkpt lat="44.4637367" lon="11.173115"><ele>188.0</ele><time>2026-03-28T09:14:05.753Z</time></trkpt><trkpt lat="44.46369" lon="11.1730217"><ele>188.0</ele><time>2026-03-28T09:14:08.753Z</time></trkpt><trkpt lat="44.4636433" lon="11.1729383"><ele>184.16666666666666</ele><time>2026-03-28T09:14:11.753Z</time></trkpt><trkpt lat="44.4636" lon="11.1728433"><ele>180.33333333333331</ele><time>2026-03-28T09:14:14.753Z</time></trkpt><trkpt lat="44.4635733" lon="11.1727433"><ele>176.5</ele><time>2026-03-28T09:14:17.753Z</time></trkpt><trkpt lat="44.4635633" lon="11.172625"><ele>172.66666666666666</ele><time>2026-03-28T09:14:20.752Z</time></trkpt><trkpt lat="44.46357" lon="11.172495"><ele>168.83333333333334</ele><time>2026-03-28T09:14:23.753Z</time></trkpt><trkpt lat="44.4636067" lon="11.1723817"><ele>165.0</ele><time>2026-03-28T09:14:26.753Z</time></trkpt><trkpt lat="44.4636683" lon="11.1723017"><ele>166.33333333333334</ele><time>2026-03-28T09:14:29.753Z</time></trkpt><trkpt lat="44.4637383" lon="11.1722517"><ele>167.66666666666666</ele><time>2026-03-28T09:14:32.753Z</time></trkpt><trkpt lat="44.46382" lon="11.1722167"><ele>169.0</ele><time>2026-03-28T09:14:35.753Z</time></trkpt><trkpt lat="44.46389" lon="11.1721883"><ele>170.33333333333331</ele><time>2026-03-28T09:14:38.753Z</time></trkpt><trkpt lat="44.4639633" lon="11.1721783"><ele>171.66666666666666</ele><time>2026-03-28T09:14:41.753Z</time></trkpt><trkpt lat="44.46398" lon="11.1722833"><ele>173.0</ele><time>2026-03-28T09:14:44.753Z</time></trkpt><trkpt lat="44.4639083" lon="11.1723167"><ele>171.66666666666666</ele><time>2026-03-28T09:14:47.752Z</time></trkpt><trkpt lat="44.4638333" lon="11.17236"><ele>170.33333333333331</ele><time>2026-03-28T09:14:50.752Z</time></trkpt><trkpt lat="44.4637667" lon="11.172425"><ele>169.0</ele><time>2026-03-28T09:14:53.753Z</time></trkpt><trkpt lat="44.4637183" lon="11.1725083"><ele>167.66666666666666</ele><time>2026-03-28T09:14:56.753Z</time></trkpt><trkpt lat="44.4637133" lon="11.1726267"><ele>166.33333333333334</ele><time>2026-03-28T09:14:59.753Z</time></trkpt><trkpt lat="44.46376" lon="11.1727283"><ele>165.0</ele><time>2026-03-28T09:15:02.752Z</time></trkpt><trkpt lat="44.463825" lon="11.1728"><ele>169.83333333333334</ele><time>2026-03-28T09:15:05.752Z</time></trkpt><trkpt lat="44.4639067" lon="11.1728333"><ele>174.66666666666669</ele><time>2026-03-28T09:15:08.752Z</time></trkpt><trkpt lat="44.463985" lon="11.17286"><ele>179.5</ele><time>2026-03-28T09:15:11.752Z</time></trkpt><trkpt lat="44.4640717" lon="11.1728833"><ele>184.33333333333334</ele><time>2026-03-28T09:15:14.752Z</time></trkpt><trkpt lat="44.4641533" lon="11.1729033"><ele>189.16666666666669</ele><time>2026-03-28T09:15:17.753Z</time></trkpt><trkpt lat="44.464235" lon="11.1729233"><ele>194.0</ele><time>2026-03-28T09:15:20.753Z</time></trkpt><trkpt lat="44.4643117" lon="11.1729633"><ele>194.00000000000003</ele><time>2026-03-28T09:15:23.753Z</time></trkpt><trkpt lat="44.4643867" lon="11.17301"><ele>194.0</ele><time>2026-03-28T09:15:26.753Z</time></trkpt><trkpt lat="44.4644633" lon="11.1730717"><ele>194.0</ele><time>2026-03-28T09:15:29.753Z</time></trkpt><trkpt lat="44.4645317" lon="11.1731233"><ele>194.0</ele><time>2026-03-28T09:15:32.754Z</time></trkpt><trkpt lat="44.4645867" lon="11.1731867"><ele>194.00000000000003</ele><time>2026-03-28T09:15:35.754Z</time></trkpt><trkpt lat="44.4646433" lon="11.1732617"><ele>194.0</ele><time>2026-03-28T09:15:38.754Z</time></trkpt><trkpt lat="44.4646967" lon="11.1733583"><ele>196.83333333333334</ele><time>2026-03-28T09:15:41.754Z</time></trkpt><trkpt lat="44.4647117" lon="11.1734783"><ele>199.66666666666669</ele><time>2026-03-28T09:15:44.754Z</time></trkpt><trkpt lat="44.4647217" lon="11.173585"><ele>202.5</ele><time>2026-03-28T09:15:47.754Z</time></trkpt><trkpt lat="44.4647717" lon="11.1736867"><ele>205.33333333333331</ele><time>2026-03-28T09:15:50.753Z</time></trkpt><trkpt lat="44.4648417" lon="11.17367"><ele>208.16666666666666</ele><time>2026-03-28T09:15:53.754Z</time></trkpt><trkpt lat="44.4648633" lon="11.173565"><ele>211.0</ele><time>2026-03-28T09:15:56.753Z</time></trkpt><trkpt lat="44.4648633" lon="11.173445"><ele>210.99999999999997</ele><time>2026-03-28T09:15:59.753Z</time></trkpt><trkpt lat="44.46486" lon="11.1733267"><ele>211.0</ele><time>2026-03-28T09:16:02.753Z</time></trkpt><trkpt lat="44.4648517" lon="11.1732017"><ele>211.0</ele><time>2026-03-28T09:16:05.754Z</time></trkpt><trkpt lat="44.46484" lon="11.17309"><ele>211.0</ele><time>2026-03-28T09:16:08.753Z</time></trkpt><trkpt lat="44.4647983" lon="11.1729733"><ele>210.99999999999997</ele><time>2026-03-28T09:16:11.754Z</time></trkpt><trkpt lat="44.4647517" lon="11.17288"><ele>211.0</ele><time>2026-03-28T09:16:14.753Z</time></trkpt><trkpt lat="44.464705" lon="11.1727783"><ele>209.83333333333331</ele><time>2026-03-28T09:16:17.753Z</time></trkpt><trkpt lat="44.464675" lon="11.172675"><ele>208.66666666666666</ele><time>2026-03-28T09:16:20.753Z</time></trkpt><trkpt lat="44.4647167" lon="11.17257"><ele>207.5</ele><time>2026-03-28T09:16:23.754Z</time></trkpt><trkpt lat="44.46479" lon="11.17255"><ele>206.33333333333331</ele><time>2026-03-28T09:16:26.754Z</time></trkpt><trkpt lat="44.4648667" lon="11.17261"><ele>205.16666666666666</ele><time>2026-03-28T09:16:29.754Z</time></trkpt><trkpt lat="44.4649283" lon="11.1726817"><ele>204.0</ele><time>2026-03-28T09:16:32.754Z</time></trkpt><trkpt lat="44.4649817" lon="11.172765"><ele>204.0</ele><time>2026-03-28T09:16:35.754Z</time></trkpt><trkpt lat="44.46504" lon="11.1728367"><ele>204.0</ele><time>2026-03-28T09:16:38.754Z</time></trkpt><trkpt lat="44.4650967" lon="11.1729067"><ele>204.0</ele><time>2026-03-28T09:16:41.754Z</time></trkpt><trkpt lat="44.46516" lon="11.1729517"><ele>204.0</ele><time>2026-03-28T09:16:44.754Z</time></trkpt><trkpt lat="44.4652367" lon="11.1729817"><ele>204.0</ele><time>2026-03-28T09:16:47.754Z</time></trkpt><trkpt lat="44.4653117" lon="11.1729833"><ele>204.0</ele><time>2026-03-28T09:16:50.754Z</time></trkpt><trkpt lat="44.46538" lon="11.172965"><ele>204.0</ele><time>2026-03-28T09:16:53.753Z</time></trkpt><trkpt lat="44.4654533" lon="11.1729233"><ele>207.0</ele><time>2026-03-28T09:16:56.754Z</time></trkpt><trkpt lat="44.46552" lon="11.17286"><ele>210.0</ele><time>2026-03-28T09:16:59.754Z</time></trkpt><trkpt lat="44.4655817" lon="11.1727983"><ele>213.0</ele><time>2026-03-28T09:17:02.754Z</time></trkpt><trkpt lat="44.465635" lon="11.172715"><ele>216.0</ele><time>2026-03-28T09:17:05.753Z</time></trkpt><trkpt lat="44.4657" lon="11.17264"><ele>219.0</ele><time>2026-03-28T09:17:08.754Z</time></trkpt><trkpt lat="44.4657533" lon="11.172555"><ele>222.0</ele><time>2026-03-28T09:17:11.754Z</time></trkpt><trkpt lat="44.4658083" lon="11.172455"><ele>220.66666666666666</ele><time>2026-03-28T09:17:14.754Z</time></trkpt><trkpt lat="44.4658467" lon="11.1723517"><ele>219.33333333333331</ele><time>2026-03-28T09:17:17.754Z</time></trkpt><trkpt lat="44.4658967" lon="11.172255"><ele>218.0</ele><time>2026-03-28T09:17:20.754Z</time></trkpt><trkpt lat="44.4659367" lon="11.17216"><ele>216.66666666666666</ele><time>2026-03-28T09:17:23.754Z</time></trkpt><trkpt lat="44.4659817" lon="11.1720583"><ele>215.33333333333331</ele><time>2026-03-28T09:17:26.754Z</time></trkpt><trkpt lat="44.46603" lon="11.1719783"><ele>214.0</ele><time>2026-03-28T09:17:29.753Z</time></trkpt><trkpt lat="44.4660883" lon="11.1719033"><ele>213.99999999999997</ele><time>2026-03-28T09:17:32.754Z</time></trkpt><trkpt lat="44.46614" lon="11.1718217"><ele>214.0</ele><time>2026-03-28T09:17:35.753Z</time></trkpt><trkpt lat="44.4662" lon="11.1717383"><ele>214.0</ele><time>2026-03-28T09:17:38.754Z</time></trkpt><trkpt lat="44.466245" lon="11.17165"><ele>214.0</ele><time>2026-03-28T09:17:41.754Z</time></trkpt><trkpt lat="44.4662883" lon="11.1715467"><ele>213.99999999999997</ele><time>2026-03-28T09:17:44.753Z</time></trkpt><trkpt lat="44.46633" lon="11.17148"><ele>214.0</ele><time>2026-03-28T09:17:46.754Z</time></trkpt><trkpt lat="44.4663817" lon="11.1713883"><ele>217.33333333333331</ele><time>2026-03-28T09:17:49.753Z</time></trkpt><trkpt lat="44.46644" lon="11.1712983"><ele>220.66666666666666</ele><time>2026-03-28T09:17:52.753Z</time></trkpt><trkpt lat="44.4665" lon="11.1712083"><ele>224.0</ele><time>2026-03-28T09:17:55.754Z</time></trkpt><trkpt lat="44.4665567" lon="11.1711133"><ele>227.33333333333331</ele><time>2026-03-28T09:17:58.754Z</time></trkpt><trkpt lat="44.4666017" lon="11.1710133"><ele>230.66666666666666</ele><time>2026-03-28T09:18:01.754Z</time></trkpt><trkpt lat="44.4666433" lon="11.1709117"><ele>234.0</ele><time>2026-03-28T09:18:04.753Z</time></trkpt><trkpt lat="44.4666783" lon="11.1707933"><ele>232.0</ele><time>2026-03-28T09:18:07.754Z</time></trkpt><trkpt lat="44.4667133" lon="11.1706767"><ele>230.0</ele><time>2026-03-28T09:18:10.754Z</time></trkpt><trkpt lat="44.4667267" lon="11.1705867"><ele>228.0</ele><time>2026-03-28T09:18:12.754Z</time></trkpt><trkpt lat="44.4667467" lon="11.170465"><ele>226.0</ele><time>2026-03-28T09:18:15.753Z</time></trkpt><trkpt lat="44.4667683" lon="11.1703417"><ele>224.0</ele><time>2026-03-28T09:18:18.754Z</time></trkpt><trkpt lat="44.4668067" lon="11.170225"><ele>222.0</ele><time>2026-03-28T09:18:21.753Z</time></trkpt><trkpt lat="44.4668517" lon="11.170135"><ele>222.0</ele><time>2026-03-28T09:18:24.753Z</time></trkpt><trkpt lat="44.4669117" lon="11.17006"><ele>222.0</ele><time>2026-03-28T09:18:27.754Z</time></trkpt><trkpt lat="44.4669817" lon="11.1699783"><ele>222.0</ele><time>2026-03-28T09:18:30.753Z</time></trkpt><trkpt lat="44.4670317" lon="11.1699233"><ele>222.0</ele><time>2026-03-28T09:18:32.754Z</time></trkpt><trkpt lat="44.4670883" lon="11.1698733"><ele>222.0</ele><time>2026-03-28T09:18:34.754Z</time></trkpt><trkpt lat="44.4671467" lon="11.1698167"><ele>222.0</ele><time>2026-03-28T09:18:36.754Z</time></trkpt><trkpt lat="44.4672217" lon="11.16974"><ele>225.5</ele><time>2026-03-28T09:18:39.754Z</time></trkpt><trkpt lat="44.4672667" lon="11.1696783"><ele>229.0</ele><time>2026-03-28T09:18:41.754Z</time></trkpt><trkpt lat="44.46733" lon="11.1695917"><ele>232.5</ele><time>2026-03-28T09:18:44.754Z</time></trkpt><trkpt lat="44.46739" lon="11.169495"><ele>236.0</ele><time>2026-03-28T09:18:47.754Z</time></trkpt><trkpt lat="44.4674433" lon="11.1693933"><ele>239.5</ele><time>2026-03-28T09:18:50.753Z</time></trkpt><trkpt lat="44.4674833" lon="11.1692983"><ele>243.0</ele><time>2026-03-28T09:18:53.753Z</time></trkpt><trkpt lat="44.4675367" lon="11.1692017"><ele>243.0</ele><time>2026-03-28T09:18:56.753Z</time></trkpt><trkpt lat="44.467565" lon="11.16912"><ele>243.0</ele><time>2026-03-28T09:18:58.754Z</time></trkpt><trkpt lat="44.4676117" lon="11.1690117"><ele>243.0</ele><time>2026-03-28T09:19:01.754Z</time></trkpt><trkpt lat="44.4676767" lon="11.1689217"><ele>243.0</ele><time>2026-03-28T09:19:04.754Z</time></trkpt><trkpt lat="44.4677333" lon="11.16883"><ele>243.0</ele><time>2026-03-28T09:19:07.754Z</time></trkpt><trkpt lat="44.4677883" lon="11.1687367"><ele>243.0</ele><time>2026-03-28T09:19:10.754Z</time></trkpt><trkpt lat="44.4678433" lon="11.1686433"><ele>242.5</ele><time>2026-03-28T09:19:13.753Z</time></trkpt><trkpt lat="44.4679" lon="11.168555"><ele>242.0</ele><time>2026-03-28T09:19:16.753Z</time></trkpt><trkpt lat="44.4679433" lon="11.168455"><ele>241.5</ele><time>2026-03-28T09:19:19.754Z</time></trkpt><trkpt lat="44.4679783" lon="11.1683417"><ele>241.0</ele><time>2026-03-28T09:19:22.753Z</time></trkpt><trkpt lat="44.4680217" lon="11.1682417"><ele>240.5</ele><time>2026-03-28T09:19:25.754Z</time></trkpt><trkpt lat="44.4680417" lon="11.1681267"><ele>240.0</ele><time>2026-03-28T09:19:28.754Z</time></trkpt><trkpt lat="44.4680317" lon="11.1680167"><ele>240.0</ele><time>2026-03-28T09:19:30.754Z</time></trkpt><trkpt lat="44.4680133" lon="11.1679017"><ele>240.0</ele><time>2026-03-28T09:19:32.754Z</time></trkpt><trkpt lat="44.4679833" lon="11.1678083"><ele>240.0</ele><time>2026-03-28T09:19:34.754Z</time></trkpt><trkpt lat="44.467955" lon="11.1677167"><ele>240.0</ele><time>2026-03-28T09:19:36.753Z</time></trkpt><trkpt lat="44.4678317" lon="11.1676283"><ele>240.0</ele><time>2026-03-28T09:19:39.168Z</time></trkpt><trkpt lat="44.467825" lon="11.1674917"><ele>239.66666666666666</ele><time>2026-03-28T09:19:42.744Z</time></trkpt><trkpt lat="44.4677933" lon="11.16741"><ele>239.33333333333331</ele><time>2026-03-28T09:19:44.744Z</time></trkpt><trkpt lat="44.4677517" lon="11.1673033"><ele>239.0</ele><time>2026-03-28T09:19:46.744Z</time></trkpt><trkpt lat="44.4677117" lon="11.1672033"><ele>238.66666666666666</ele><time>2026-03-28T09:19:48.744Z</time></trkpt><trkpt lat="44.4676683" lon="11.1671067"><ele>238.33333333333331</ele><time>2026-03-28T09:19:50.744Z</time></trkpt><trkpt lat="44.4676333" lon="11.1670183"><ele>238.0</ele><time>2026-03-28T09:19:52.743Z</time></trkpt><trkpt lat="44.4676067" lon="11.1669283"><ele>239.42857142857144</ele><time>2026-03-28T09:19:54.744Z</time></trkpt><trkpt lat="44.46759" lon="11.1668317"><ele>240.85714285714286</ele><time>2026-03-28T09:19:56.744Z</time></trkpt><trkpt lat="44.4676" lon="11.1667333"><ele>242.28571428571428</ele><time>2026-03-28T09:19:58.744Z</time></trkpt><trkpt lat="44.4676117" lon="11.1666333"><ele>243.71428571428572</ele><time>2026-03-28T09:20:00.744Z</time></trkpt><trkpt lat="44.46764" lon="11.1665367"><ele>245.14285714285717</ele><time>2026-03-28T09:20:02.744Z</time></trkpt><trkpt lat="44.4676417" lon="11.16643"><ele>246.57142857142858</ele><time>2026-03-28T09:20:04.743Z</time></trkpt><trkpt lat="44.4676667" lon="11.166325"><ele>248.0</ele><time>2026-03-28T09:20:07.744Z</time></trkpt><trkpt lat="44.467725" lon="11.1662667"><ele>249.4</ele><time>2026-03-28T09:20:09.744Z</time></trkpt><trkpt lat="44.4678083" lon="11.1661833"><ele>250.8</ele><time>2026-03-28T09:20:11.743Z</time></trkpt><trkpt lat="44.46789" lon="11.1660833"><ele>252.2</ele><time>2026-03-28T09:20:13.744Z</time></trkpt><trkpt lat="44.4679567" lon="11.1660017"><ele>253.6</ele><time>2026-03-28T09:20:15.744Z</time></trkpt><trkpt lat="44.4680117" lon="11.1659583"><ele>255.0</ele><time>2026-03-28T09:20:17.744Z</time></trkpt><trkpt lat="44.46809" lon="11.1658517"><ele>254.83333333333334</ele><time>2026-03-28T09:21:57.744Z</time></trkpt><trkpt lat="44.46815" lon="11.1658083"><ele>254.66666666666669</ele><time>2026-03-28T09:21:59.744Z</time></trkpt><trkpt lat="44.4682333" lon="11.165735"><ele>254.5</ele><time>2026-03-28T09:22:01.744Z</time></trkpt><trkpt lat="44.4683267" lon="11.1656417"><ele>254.33333333333334</ele><time>2026-03-28T09:22:03.745Z</time></trkpt><trkpt lat="44.4683817" lon="11.1655917"><ele>254.16666666666669</ele><time>2026-03-28T09:22:04.745Z</time></trkpt><trkpt lat="44.4684383" lon="11.16553"><ele>254.0</ele><time>2026-03-28T09:22:05.745Z</time></trkpt><trkpt lat="44.468505" lon="11.1654533"><ele>254.00000000000003</ele><time>2026-03-28T09:22:06.744Z</time></trkpt><trkpt lat="44.46856" lon="11.16538"><ele>254.0</ele><time>2026-03-28T09:22:07.745Z</time></trkpt><trkpt lat="44.4686233" lon="11.16531"><ele>254.0</ele><time>2026-03-28T09:22:08.745Z</time></trkpt><trkpt lat="44.4687033" lon="11.1652417"><ele>254.0</ele><time>2026-03-28T09:22:09.744Z</time></trkpt><trkpt lat="44.468765" lon="11.1651733"><ele>254.00000000000003</ele><time>2026-03-28T09:22:10.745Z</time></trkpt><trkpt lat="44.4688267" lon="11.1651117"><ele>254.0</ele><time>2026-03-28T09:22:11.745Z</time></trkpt><trkpt lat="44.4688883" lon="11.165055"><ele>250.33333333333334</ele><time>2026-03-28T09:22:12.745Z</time></trkpt><trkpt lat="44.46896" lon="11.16501"><ele>246.66666666666669</ele><time>2026-03-28T09:22:13.744Z</time></trkpt><trkpt lat="44.4690367" lon="11.164975"><ele>243.0</ele><time>2026-03-28T09:22:14.745Z</time></trkpt><trkpt lat="44.4691217" lon="11.1649483"><ele>239.33333333333331</ele><time>2026-03-28T09:22:15.745Z</time></trkpt><trkpt lat="44.469215" lon="11.16493"><ele>235.66666666666666</ele><time>2026-03-28T09:22:16.744Z</time></trkpt><trkpt lat="44.4693017" lon="11.1649133"><ele>232.0</ele><time>2026-03-28T09:22:17.745Z</time></trkpt><trkpt lat="44.4693767" lon="11.164865"><ele>232.8</ele><time>2026-03-28T09:22:18.745Z</time></trkpt><trkpt lat="44.4694533" lon="11.164785"><ele>233.6</ele><time>2026-03-28T09:22:19.745Z</time></trkpt><trkpt lat="44.4695333" lon="11.1646917"><ele>234.40000000000003</ele><time>2026-03-28T09:22:20.745Z</time></trkpt><trkpt lat="44.4696217" lon="11.1646083"><ele>235.20000000000002</ele><time>2026-03-28T09:22:21.745Z</time></trkpt><trkpt lat="44.46972" lon="11.1645283"><ele>236.0</ele><time>2026-03-28T09:22:22.745Z</time></trkpt><trkpt lat="44.4698267" lon="11.1644367"><ele>232.0</ele><time>2026-03-28T09:22:23.744Z</time></trkpt><trkpt lat="44.46993" lon="11.164355"><ele>228.0</ele><time>2026-03-28T09:22:24.745Z</time></trkpt><trkpt lat="44.4700317" lon="11.1642583"><ele>224.0</ele><time>2026-03-28T09:22:25.744Z</time></trkpt><trkpt lat="44.4701417" lon="11.1641783"><ele>220.0</ele><time>2026-03-28T09:22:26.745Z</time></trkpt><trkpt lat="44.47025" lon="11.164095"><ele>218.5</ele><time>2026-03-28T09:22:27.745Z</time></trkpt><trkpt lat="44.4703767" lon="11.1640117"><ele>217.0</ele><time>2026-03-28T09:22:28.744Z</time></trkpt><trkpt lat="44.4705" lon="11.16394"><ele>215.5</ele><time>2026-03-28T09:22:29.745Z</time></trkpt><trkpt lat="44.4706117" lon="11.1638717"><ele>214.0</ele><time>2026-03-28T09:22:30.744Z</time></trkpt><trkpt lat="44.4707383" lon="11.16382"><ele>213.0</ele><time>2026-03-28T09:22:31.745Z</time></trkpt><trkpt lat="44.4708533" lon="11.163775"><ele>212.0</ele><time>2026-03-28T09:22:32.745Z</time></trkpt><trkpt lat="44.47098" lon="11.1637433"><ele>211.0</ele><time>2026-03-28T09:22:33.745Z</time></trkpt><trkpt lat="44.4711167" lon="11.1637333"><ele>210.0</ele><time>2026-03-28T09:22:34.745Z</time></trkpt><trkpt lat="44.4712383" lon="11.1637083"><ele>209.0</ele><time>2026-03-28T09:22:35.745Z</time></trkpt><trkpt lat="44.47137" lon="11.163695"><ele>208.0</ele><time>2026-03-28T09:22:36.744Z</time></trkpt><trkpt lat="44.4715" lon="11.1636983"><ele>207.0</ele><time>2026-03-28T09:22:37.745Z</time></trkpt><trkpt lat="44.4716167" lon="11.1637217"><ele>206.0</ele><time>2026-03-28T09:22:38.745Z</time></trkpt><trkpt lat="44.4717317" lon="11.1637683"><ele>206.0</ele><time>2026-03-28T09:22:39.744Z</time></trkpt><trkpt lat="44.4718283" lon="11.163835"><ele>206.0</ele><time>2026-03-28T09:22:40.745Z</time></trkpt><trkpt lat="44.4719233" lon="11.1639"><ele>206.0</ele><time>2026-03-28T09:22:41.745Z</time></trkpt><trkpt lat="44.4720167" lon="11.163965"><ele>206.0</ele><time>2026-03-28T09:22:42.745Z</time></trkpt><trkpt lat="44.47211" lon="11.1640317"><ele>206.0</ele><time>2026-03-28T09:22:43.745Z</time></trkpt><trkpt lat="44.4722033" lon="11.1641067"><ele>206.0</ele><time>2026-03-28T09:22:44.744Z</time></trkpt><trkpt lat="44.4722867" lon="11.1641717"><ele>206.0</ele><time>2026-03-28T09:22:45.744Z</time></trkpt><trkpt lat="44.4723683" lon="11.1642417"><ele>206.0</ele><time>2026-03-28T09:22:46.745Z</time></trkpt><trkpt lat="44.47244" lon="11.164305"><ele>206.0</ele><time>2026-03-28T09:22:47.745Z</time></trkpt><trkpt lat="44.4725183" lon="11.1643667"><ele>206.0</ele><time>2026-03-28T09:22:48.745Z</time></trkpt><trkpt lat="44.4725917" lon="11.1644283"><ele>206.00000000000003</ele><time>2026-03-28T09:22:49.745Z</time></trkpt><trkpt lat="44.4726583" lon="11.164495"><ele>206.0</ele><time>2026-03-28T09:22:50.745Z</time></trkpt><trkpt lat="44.4727267" lon="11.16455"><ele>206.0</ele><time>2026-03-28T09:22:51.745Z</time></trkpt><trkpt lat="44.472795" lon="11.1645917"><ele>206.0</ele><time>2026-03-28T09:22:52.745Z</time></trkpt><trkpt lat="44.472865" lon="11.1646467"><ele>206.00000000000003</ele><time>2026-03-28T09:22:53.745Z</time></trkpt><trkpt lat="44.47293" lon="11.16471"><ele>206.0</ele><time>2026-03-28T09:22:54.744Z</time></trkpt><trkpt lat="44.472995" lon="11.1647633"><ele>205.8</ele><time>2026-03-28T09:22:55.745Z</time></trkpt><trkpt lat="44.473065" lon="11.1648117"><ele>205.60000000000002</ele><time>2026-03-28T09:22:56.745Z</time></trkpt><trkpt lat="44.473125" lon="11.1648533"><ele>205.4</ele><time>2026-03-28T09:22:57.745Z</time></trkpt><trkpt lat="44.4732383" lon="11.164935"><ele>205.2</ele><time>2026-03-28T09:22:59.744Z</time></trkpt><trkpt lat="44.4733017" lon="11.1649733"><ele>205.0</ele><time>2026-03-28T09:23:00.745Z</time></trkpt><trkpt lat="44.47341" lon="11.1650383"><ele>206.0</ele><time>2026-03-28T09:23:02.745Z</time></trkpt><trkpt lat="44.4735083" lon="11.165075"><ele>207.0</ele><time>2026-03-28T09:23:04.745Z</time></trkpt><trkpt lat="44.4736117" lon="11.1651383"><ele>208.0</ele><time>2026-03-28T09:23:06.744Z</time></trkpt><trkpt lat="44.4737083" lon="11.1651917"><ele>209.0</ele><time>2026-03-28T09:23:08.744Z</time></trkpt><trkpt lat="44.47381" lon="11.1652367"><ele>210.0</ele><time>2026-03-28T09:23:10.744Z</time></trkpt><trkpt lat="44.4739167" lon="11.1652417"><ele>211.2</ele><time>2026-03-28T09:23:12.745Z</time></trkpt><trkpt lat="44.474005" lon="11.1652267"><ele>212.4</ele><time>2026-03-28T09:23:14.745Z</time></trkpt><trkpt lat="44.4740867" lon="11.1651667"><ele>213.60000000000002</ele><time>2026-03-28T09:23:16.745Z</time></trkpt><trkpt lat="44.4741733" lon="11.1651117"><ele>214.8</ele><time>2026-03-28T09:23:18.745Z</time></trkpt><trkpt lat="44.4742617" lon="11.1650467"><ele>216.0</ele><time>2026-03-28T09:23:20.744Z</time></trkpt><trkpt lat="44.474355" lon="11.1649817"><ele>216.0</ele><time>2026-03-28T09:23:22.744Z</time></trkpt><trkpt lat="44.4744467" lon="11.1649283"><ele>216.0</ele><time>2026-03-28T09:23:24.745Z</time></trkpt><trkpt lat="44.47453" lon="11.16488"><ele>216.0</ele><time>2026-03-28T09:23:26.745Z</time></trkpt><trkpt lat="44.4746133" lon="11.1648083"><ele>216.0</ele><time>2026-03-28T09:23:28.744Z</time></trkpt><trkpt lat="44.4746833" lon="11.1647583"><ele>216.0</ele><time>2026-03-28T09:23:30.745Z</time></trkpt><trkpt lat="44.474755" lon="11.1647067"><ele>216.0</ele><time>2026-03-28T09:23:32.744Z</time></trkpt><trkpt lat="44.4748233" lon="11.1646467"><ele>215.85714285714286</ele><time>2026-03-28T09:23:34.744Z</time></trkpt><trkpt lat="44.4748883" lon="11.164595"><ele>215.71428571428572</ele><time>2026-03-28T09:23:36.745Z</time></trkpt><trkpt lat="44.474955" lon="11.1645467"><ele>215.57142857142856</ele><time>2026-03-28T09:23:38.744Z</time></trkpt><trkpt lat="44.4750133" lon="11.1645067"><ele>215.42857142857144</ele><time>2026-03-28T09:23:40.745Z</time></trkpt><trkpt lat="44.475075" lon="11.1644533"><ele>215.2857142857143</ele><time>2026-03-28T09:23:42.745Z</time></trkpt><trkpt lat="44.4751333" lon="11.1644167"><ele>215.14285714285714</ele><time>2026-03-28T09:23:44.745Z</time></trkpt><trkpt lat="44.4751933" lon="11.1643783"><ele>215.0</ele><time>2026-03-28T09:23:46.745Z</time></trkpt><trkpt lat="44.4752617" lon="11.1643467"><ele>215.00000000000003</ele><time>2026-03-28T09:23:48.745Z</time></trkpt><trkpt lat="44.4753267" lon="11.1643233"><ele>215.0</ele><time>2026-03-28T09:23:50.745Z</time></trkpt><trkpt lat="44.4753917" lon="11.164285"><ele>215.0</ele><time>2026-03-28T09:23:52.745Z</time></trkpt><trkpt lat="44.475475" lon="11.16425"><ele>215.0</ele><time>2026-03-28T09:23:54.745Z</time></trkpt><trkpt lat="44.47557" lon="11.164225"><ele>215.00000000000003</ele><time>2026-03-28T09:23:56.744Z</time></trkpt><trkpt lat="44.47566" lon="11.1641783"><ele>215.0</ele><time>2026-03-28T09:23:58.744Z</time></trkpt><trkpt lat="44.4757517" lon="11.164135"><ele>214.50000000000003</ele><time>2026-03-28T09:24:00.745Z</time></trkpt><trkpt lat="44.4758383" lon="11.1640967"><ele>214.0</ele><time>2026-03-28T09:24:02.745Z</time></trkpt><trkpt lat="44.4759167" lon="11.1640617"><ele>213.5</ele><time>2026-03-28T09:24:04.744Z</time></trkpt><trkpt lat="44.4760067" lon="11.164025"><ele>213.0</ele><time>2026-03-28T09:24:06.744Z</time></trkpt><trkpt lat="44.476095" lon="11.1639867"><ele>212.50000000000003</ele><time>2026-03-28T09:24:08.744Z</time></trkpt><trkpt lat="44.4761783" lon="11.1639567"><ele>212.0</ele><time>2026-03-28T09:24:10.744Z</time></trkpt><trkpt lat="44.4762433" lon="11.16393"><ele>214.42857142857144</ele><time>2026-03-28T09:24:12.745Z</time></trkpt><trkpt lat="44.476305" lon="11.163905"><ele>216.85714285714283</ele><time>2026-03-28T09:24:14.745Z</time></trkpt><trkpt lat="44.4763883" lon="11.16386"><ele>219.28571428571428</ele><time>2026-03-28T09:24:17.744Z</time></trkpt><trkpt lat="44.4764517" lon="11.1638067"><ele>221.71428571428572</ele><time>2026-03-28T09:24:19.745Z</time></trkpt><trkpt lat="44.4765167" lon="11.1637717"><ele>224.14285714285717</ele><time>2026-03-28T09:24:21.745Z</time></trkpt><trkpt lat="44.4765817" lon="11.1637317"><ele>226.57142857142856</ele><time>2026-03-28T09:24:23.744Z</time></trkpt><trkpt lat="44.4766433" lon="11.1636917"><ele>229.0</ele><time>2026-03-28T09:24:25.745Z</time></trkpt><trkpt lat="44.4767183" lon="11.1636533"><ele>228.99999999999997</ele><time>2026-03-28T09:24:27.744Z</time></trkpt><trkpt lat="44.4767917" lon="11.163605"><ele>229.0</ele><time>2026-03-28T09:24:29.745Z</time></trkpt><trkpt lat="44.4768667" lon="11.1635467"><ele>229.0</ele><time>2026-03-28T09:24:31.745Z</time></trkpt><trkpt lat="44.47693" lon="11.16347"><ele>229.0</ele><time>2026-03-28T09:24:33.745Z</time></trkpt><trkpt lat="44.4769967" lon="11.1634"><ele>228.99999999999997</ele><time>2026-03-28T09:24:35.745Z</time></trkpt><trkpt lat="44.4770633" lon="11.1633333"><ele>229.0</ele><time>2026-03-28T09:24:37.745Z</time></trkpt><trkpt lat="44.47713" lon="11.16325"><ele>229.66666666666666</ele><time>2026-03-28T09:24:39.745Z</time></trkpt><trkpt lat="44.4771917" lon="11.1631533"><ele>230.33333333333331</ele><time>2026-03-28T09:24:41.744Z</time></trkpt><trkpt lat="44.4772583" lon="11.16307"><ele>231.0</ele><time>2026-03-28T09:24:43.745Z</time></trkpt><trkpt lat="44.4773183" lon="11.1629733"><ele>231.66666666666669</ele><time>2026-03-28T09:24:45.745Z</time></trkpt><trkpt lat="44.47737" lon="11.162875"><ele>232.33333333333334</ele><time>2026-03-28T09:24:47.744Z</time></trkpt><trkpt lat="44.4774283" lon="11.16279"><ele>233.0</ele><time>2026-03-28T09:24:49.745Z</time></trkpt><trkpt lat="44.4774817" lon="11.162705"><ele>233.0</ele><time>2026-03-28T09:24:51.745Z</time></trkpt><trkpt lat="44.4775333" lon="11.1626067"><ele>233.0</ele><time>2026-03-28T09:24:53.744Z</time></trkpt><trkpt lat="44.4776033" lon="11.1625183"><ele>233.0</ele><time>2026-03-28T09:24:55.744Z</time></trkpt><trkpt lat="44.477675" lon="11.1624333"><ele>233.0</ele><time>2026-03-28T09:24:57.744Z</time></trkpt><trkpt lat="44.4777467" lon="11.162355"><ele>233.0</ele><time>2026-03-28T09:24:59.744Z</time></trkpt><trkpt lat="44.477815" lon="11.16228"><ele>231.8</ele><time>2026-03-28T09:25:01.744Z</time></trkpt><trkpt lat="44.477875" lon="11.1621833"><ele>230.60000000000002</ele><time>2026-03-28T09:25:03.745Z</time></trkpt><trkpt lat="44.4779317" lon="11.1620883"><ele>229.39999999999998</ele><time>2026-03-28T09:25:05.745Z</time></trkpt><trkpt lat="44.478" lon="11.1619867"><ele>228.2</ele><time>2026-03-28T09:25:07.745Z</time></trkpt><trkpt lat="44.4780767" lon="11.1619217"><ele>227.0</ele><time>2026-03-28T09:25:09.745Z</time></trkpt><trkpt lat="44.4781617" lon="11.16182"><ele>227.0</ele><time>2026-03-28T09:25:11.745Z</time></trkpt><trkpt lat="44.4782517" lon="11.1616983"><ele>227.0</ele><time>2026-03-28T09:25:13.745Z</time></trkpt><trkpt lat="44.47835" lon="11.1615833"><ele>227.0</ele><time>2026-03-28T09:25:15.745Z</time></trkpt><trkpt lat="44.4783967" lon="11.1615217"><ele>227.0</ele><time>2026-03-28T09:25:16.744Z</time></trkpt><trkpt lat="44.47844" lon="11.1614433"><ele>227.0</ele><time>2026-03-28T09:25:17.745Z</time></trkpt><trkpt lat="44.4784783" lon="11.1613667"><ele>225.50000000000003</ele><time>2026-03-28T09:25:18.745Z</time></trkpt><trkpt lat="44.4785283" lon="11.1612767"><ele>224.0</ele><time>2026-03-28T09:25:19.744Z</time></trkpt><trkpt lat="44.4785717" lon="11.1611783"><ele>222.5</ele><time>2026-03-28T09:25:20.745Z</time></trkpt><trkpt lat="44.4786183" lon="11.161085"><ele>221.0</ele><time>2026-03-28T09:25:21.744Z</time></trkpt><trkpt lat="44.4786633" lon="11.1609817"><ele>219.50000000000003</ele><time>2026-03-28T09:25:22.745Z</time></trkpt><trkpt lat="44.478705" lon="11.1608767"><ele>218.0</ele><time>2026-03-28T09:25:23.745Z</time></trkpt><trkpt lat="44.4787583" lon="11.1607683"><ele>219.00000000000003</ele><time>2026-03-28T09:25:24.744Z</time></trkpt><trkpt lat="44.47881" lon="11.1606667"><ele>220.0</ele><time>2026-03-28T09:25:25.744Z</time></trkpt><trkpt lat="44.4788583" lon="11.160565"><ele>221.0</ele><time>2026-03-28T09:25:26.745Z</time></trkpt><trkpt lat="44.4789067" lon="11.1604633"><ele>222.0</ele><time>2026-03-28T09:25:27.745Z</time></trkpt><trkpt lat="44.47895" lon="11.160365"><ele>223.00000000000003</ele><time>2026-03-28T09:25:28.745Z</time></trkpt><trkpt lat="44.4789967" lon="11.1602683"><ele>224.0</ele><time>2026-03-28T09:25:29.745Z</time></trkpt><trkpt lat="44.4790383" lon="11.1601883"><ele>224.00000000000003</ele><time>2026-03-28T09:25:30.745Z</time></trkpt><trkpt lat="44.4790883" lon="11.16013"><ele>224.0</ele><time>2026-03-28T09:25:31.744Z</time></trkpt><trkpt lat="44.47915" lon="11.1601117"><ele>224.0</ele><time>2026-03-28T09:25:32.745Z</time></trkpt><trkpt lat="44.4792183" lon="11.16013"><ele>224.0</ele><time>2026-03-28T09:25:33.745Z</time></trkpt><trkpt lat="44.47929" lon="11.1601817"><ele>224.00000000000003</ele><time>2026-03-28T09:25:34.745Z</time></trkpt><trkpt lat="44.47936" lon="11.1602583"><ele>224.0</ele><time>2026-03-28T09:25:35.745Z</time></trkpt><trkpt lat="44.4794333" lon="11.1603317"><ele>224.0</ele><time>2026-03-28T09:25:36.745Z</time></trkpt><trkpt lat="44.47951" lon="11.1604217"><ele>223.99999999999997</ele><time>2026-03-28T09:25:37.744Z</time></trkpt><trkpt lat="44.47959" lon="11.160525"><ele>223.99999999999997</ele><time>2026-03-28T09:25:38.745Z</time></trkpt><trkpt lat="44.479685" lon="11.1606183"><ele>224.0</ele><time>2026-03-28T09:25:39.745Z</time></trkpt><trkpt lat="44.4797783" lon="11.16071"><ele>224.0</ele><time>2026-03-28T09:25:40.745Z</time></trkpt><trkpt lat="44.4798783" lon="11.1608117"><ele>221.0</ele><time>2026-03-28T09:25:41.745Z</time></trkpt><trkpt lat="44.479985" lon="11.1609117"><ele>218.0</ele><time>2026-03-28T09:25:42.744Z</time></trkpt><trkpt lat="44.480095" lon="11.1610283"><ele>215.0</ele><time>2026-03-28T09:25:43.745Z</time></trkpt><trkpt lat="44.4802133" lon="11.1611367"><ele>212.0</ele><time>2026-03-28T09:25:44.744Z</time></trkpt><trkpt lat="44.4803217" lon="11.16124"><ele>212.0</ele><time>2026-03-28T09:25:45.745Z</time></trkpt><trkpt lat="44.4804233" lon="11.1613317"><ele>212.0</ele><time>2026-03-28T09:25:46.744Z</time></trkpt><trkpt lat="44.480515" lon="11.1614183"><ele>212.0</ele><time>2026-03-28T09:25:47.745Z</time></trkpt><trkpt lat="44.4806" lon="11.1614933"><ele>212.0</ele><time>2026-03-28T09:25:48.745Z</time></trkpt><trkpt lat="44.480665" lon="11.1615533"><ele>212.0</ele><time>2026-03-28T09:25:49.745Z</time></trkpt><trkpt lat="44.4807317" lon="11.1616017"><ele>210.66666666666669</ele><time>2026-03-28T09:25:50.745Z</time></trkpt><trkpt lat="44.4808467" lon="11.1616217"><ele>209.33333333333334</ele><time>2026-03-28T09:25:52.744Z</time></trkpt><trkpt lat="44.480885" lon="11.161545"><ele>208.0</ele><time>2026-03-28T09:25:53.744Z</time></trkpt><trkpt lat="44.4809167" lon="11.1614583"><ele>206.66666666666669</ele><time>2026-03-28T09:25:54.745Z</time></trkpt><trkpt lat="44.4809367" lon="11.1613683"><ele>205.33333333333334</ele><time>2026-03-28T09:25:55.745Z</time></trkpt><trkpt lat="44.48095" lon="11.1612667"><ele>204.0</ele><time>2026-03-28T09:25:56.745Z</time></trkpt><trkpt lat="44.480965" lon="11.1611583"><ele>204.0</ele><time>2026-03-28T09:25:57.745Z</time></trkpt><trkpt lat="44.4809783" lon="11.16105"><ele>204.0</ele><time>2026-03-28T09:25:58.745Z</time></trkpt><trkpt lat="44.4809933" lon="11.1609433"><ele>204.0</ele><time>2026-03-28T09:25:59.745Z</time></trkpt><trkpt lat="44.4810133" lon="11.1608383"><ele>204.0</ele><time>2026-03-28T09:26:00.745Z</time></trkpt><trkpt lat="44.481035" lon="11.1607383"><ele>204.0</ele><time>2026-03-28T09:26:01.745Z</time></trkpt><trkpt lat="44.4810567" lon="11.160635"><ele>204.0</ele><time>2026-03-28T09:26:02.745Z</time></trkpt><trkpt lat="44.4810767" lon="11.1605433"><ele>204.28571428571428</ele><time>2026-03-28T09:26:03.745Z</time></trkpt><trkpt lat="44.4810983" lon="11.1604483"><ele>204.57142857142858</ele><time>2026-03-28T09:26:04.745Z</time></trkpt><trkpt lat="44.4811217" lon="11.1603633"><ele>204.85714285714283</ele><time>2026-03-28T09:26:05.744Z</time></trkpt><trkpt lat="44.4811467" lon="11.1602717"><ele>205.14285714285714</ele><time>2026-03-28T09:26:06.745Z</time></trkpt><trkpt lat="44.481175" lon="11.16019"><ele>205.42857142857142</ele><time>2026-03-28T09:26:07.745Z</time></trkpt><trkpt lat="44.4812033" lon="11.1601033"><ele>205.7142857142857</ele><time>2026-03-28T09:26:08.745Z</time></trkpt><trkpt lat="44.48123" lon="11.1600117"><ele>206.0</ele><time>2026-03-28T09:26:09.745Z</time></trkpt><trkpt lat="44.4812683" lon="11.1599283"><ele>205.33333333333334</ele><time>2026-03-28T09:26:10.745Z</time></trkpt><trkpt lat="44.4813167" lon="11.1598517"><ele>204.66666666666669</ele><time>2026-03-28T09:26:11.745Z</time></trkpt><trkpt lat="44.481375" lon="11.159785"><ele>204.0</ele><time>2026-03-28T09:26:12.745Z</time></trkpt><trkpt lat="44.4814317" lon="11.1597067"><ele>203.33333333333331</ele><time>2026-03-28T09:26:13.745Z</time></trkpt><trkpt lat="44.4814933" lon="11.1596333"><ele>202.66666666666666</ele><time>2026-03-28T09:26:14.744Z</time></trkpt><trkpt lat="44.4815533" lon="11.1595783"><ele>202.0</ele><time>2026-03-28T09:26:15.744Z</time></trkpt><trkpt lat="44.4816167" lon="11.1595317"><ele>201.99999999999997</ele><time>2026-03-28T09:26:16.745Z</time></trkpt><trkpt lat="44.4816933" lon="11.1594983"><ele>202.0</ele><time>2026-03-28T09:26:17.744Z</time></trkpt><trkpt lat="44.481765" lon="11.1594633"><ele>202.0</ele><time>2026-03-28T09:26:18.745Z</time></trkpt><trkpt lat="44.4818383" lon="11.159425"><ele>202.0</ele><time>2026-03-28T09:26:19.744Z</time></trkpt><trkpt lat="44.4819183" lon="11.1593933"><ele>201.99999999999997</ele><time>2026-03-28T09:26:20.744Z</time></trkpt><trkpt lat="44.482005" lon="11.159355"><ele>202.0</ele><time>2026-03-28T09:26:21.744Z</time></trkpt><trkpt lat="44.4820883" lon="11.1593283"><ele>199.83333333333331</ele><time>2026-03-28T09:26:22.744Z</time></trkpt><trkpt lat="44.4821683" lon="11.1592967"><ele>197.66666666666666</ele><time>2026-03-28T09:26:23.745Z</time></trkpt><trkpt lat="44.48225" lon="11.1592683"><ele>195.5</ele><time>2026-03-28T09:26:24.745Z</time></trkpt><trkpt lat="44.482335" lon="11.1592333"><ele>193.33333333333331</ele><time>2026-03-28T09:26:25.744Z</time></trkpt><trkpt lat="44.482405" lon="11.1591917"><ele>191.16666666666666</ele><time>2026-03-28T09:26:26.744Z</time></trkpt><trkpt lat="44.482485" lon="11.159135"><ele>189.0</ele><time>2026-03-28T09:26:27.744Z</time></trkpt><trkpt lat="44.4825617" lon="11.15907"><ele>189.79999999999998</ele><time>2026-03-28T09:26:28.744Z</time></trkpt><trkpt lat="44.4826417" lon="11.158995"><ele>190.6</ele><time>2026-03-28T09:26:29.745Z</time></trkpt><trkpt lat="44.4827133" lon="11.1589133"><ele>191.4</ele><time>2026-03-28T09:26:30.745Z</time></trkpt><trkpt lat="44.4827817" lon="11.15883"><ele>192.2</ele><time>2026-03-28T09:26:31.745Z</time></trkpt><trkpt lat="44.48285" lon="11.1587467"><ele>193.0</ele><time>2026-03-28T09:26:32.744Z</time></trkpt><trkpt lat="44.4829133" lon="11.1586583"><ele>191.60000000000002</ele><time>2026-03-28T09:26:33.745Z</time></trkpt><trkpt lat="44.4829817" lon="11.1585733"><ele>190.20000000000002</ele><time>2026-03-28T09:26:34.745Z</time></trkpt><trkpt lat="44.4830483" lon="11.1584783"><ele>188.8</ele><time>2026-03-28T09:26:35.745Z</time></trkpt><trkpt lat="44.4831183" lon="11.1583867"><ele>187.4</ele><time>2026-03-28T09:26:36.745Z</time></trkpt><trkpt lat="44.483175" lon="11.15829"><ele>186.0</ele><time>2026-03-28T09:26:37.745Z</time></trkpt><trkpt lat="44.48323" lon="11.1581833"><ele>186.0</ele><time>2026-03-28T09:26:38.745Z</time></trkpt><trkpt lat="44.4832767" lon="11.1580733"><ele>186.0</ele><time>2026-03-28T09:26:39.745Z</time></trkpt><trkpt lat="44.4833267" lon="11.1579667"><ele>186.0</ele><time>2026-03-28T09:26:40.745Z</time></trkpt><trkpt lat="44.483365" lon="11.1578517"><ele>186.0</ele><time>2026-03-28T09:26:41.745Z</time></trkpt><trkpt lat="44.483405" lon="11.1577333"><ele>186.0</ele><time>2026-03-28T09:26:42.745Z</time></trkpt><trkpt lat="44.4834367" lon="11.157605"><ele>186.0</ele><time>2026-03-28T09:26:43.745Z</time></trkpt><trkpt lat="44.483475" lon="11.15748"><ele>186.0</ele><time>2026-03-28T09:26:44.745Z</time></trkpt><trkpt lat="44.4835033" lon="11.1573483"><ele>186.0</ele><time>2026-03-28T09:26:45.745Z</time></trkpt><trkpt lat="44.48354" lon="11.1572133"><ele>186.0</ele><time>2026-03-28T09:26:46.744Z</time></trkpt><trkpt lat="44.4835717" lon="11.15707"><ele>186.0</ele><time>2026-03-28T09:26:47.745Z</time></trkpt><trkpt lat="44.4836117" lon="11.1569317"><ele>184.0</ele><time>2026-03-28T09:26:48.745Z</time></trkpt><trkpt lat="44.4836433" lon="11.1567867"><ele>182.0</ele><time>2026-03-28T09:26:49.745Z</time></trkpt><trkpt lat="44.48368" lon="11.1566483"><ele>180.0</ele><time>2026-03-28T09:26:50.745Z</time></trkpt><trkpt lat="44.4837233" lon="11.1565183"><ele>178.0</ele><time>2026-03-28T09:26:51.745Z</time></trkpt><trkpt lat="44.4837933" lon="11.1564117"><ele>176.0</ele><time>2026-03-28T09:26:52.744Z</time></trkpt><trkpt lat="44.4838733" lon="11.15632"><ele>173.8</ele><time>2026-03-28T09:26:53.745Z</time></trkpt><trkpt lat="44.48396" lon="11.15624"><ele>171.60000000000002</ele><time>2026-03-28T09:26:54.744Z</time></trkpt><trkpt lat="44.484065" lon="11.1561583"><ele>169.4</ele><time>2026-03-28T09:26:55.745Z</time></trkpt><trkpt lat="44.48415" lon="11.1560733"><ele>167.2</ele><time>2026-03-28T09:26:56.745Z</time></trkpt><trkpt lat="44.4842483" lon="11.155995"><ele>165.0</ele><time>2026-03-28T09:26:57.745Z</time></trkpt><trkpt lat="44.48435" lon="11.1559033"><ele>165.0</ele><time>2026-03-28T09:26:58.745Z</time></trkpt><trkpt lat="44.4844383" lon="11.1558183"><ele>165.0</ele><time>2026-03-28T09:26:59.745Z</time></trkpt><trkpt lat="44.4845267" lon="11.1557317"><ele>165.0</ele><time>2026-03-28T09:27:00.745Z</time></trkpt><trkpt lat="44.4846117" lon="11.15564"><ele>165.0</ele><time>2026-03-28T09:27:01.744Z</time></trkpt><trkpt lat="44.4847017" lon="11.15556"><ele>165.0</ele><time>2026-03-28T09:27:02.745Z</time></trkpt><trkpt lat="44.4847933" lon="11.1554833"><ele>164.0</ele><time>2026-03-28T09:27:03.744Z</time></trkpt><trkpt lat="44.4848917" lon="11.1554033"><ele>163.0</ele><time>2026-03-28T09:27:04.745Z</time></trkpt><trkpt lat="44.484985" lon="11.155335"><ele>162.0</ele><time>2026-03-28T09:27:05.745Z</time></trkpt><trkpt lat="44.4850783" lon="11.155265"><ele>161.0</ele><time>2026-03-28T09:27:06.745Z</time></trkpt><trkpt lat="44.4851733" lon="11.15519"><ele>160.0</ele><time>2026-03-28T09:27:07.744Z</time></trkpt><trkpt lat="44.48526" lon="11.15511"><ele>160.0</ele><time>2026-03-28T09:27:08.745Z</time></trkpt><trkpt lat="44.485355" lon="11.155035"><ele>160.0</ele><time>2026-03-28T09:27:09.744Z</time></trkpt><trkpt lat="44.4854483" lon="11.1549633"><ele>160.0</ele><time>2026-03-28T09:27:10.745Z</time></trkpt><trkpt lat="44.485545" lon="11.1548833"><ele>160.0</ele><time>2026-03-28T09:27:11.745Z</time></trkpt><trkpt lat="44.4856417" lon="11.1548067"><ele>160.0</ele><time>2026-03-28T09:27:12.745Z</time></trkpt><trkpt lat="44.4857367" lon="11.1547367"><ele>159.8</ele><time>2026-03-28T09:27:13.745Z</time></trkpt><trkpt lat="44.4858317" lon="11.1546717"><ele>159.6</ele><time>2026-03-28T09:27:14.744Z</time></trkpt><trkpt lat="44.48593" lon="11.1546133"><ele>159.4</ele><time>2026-03-28T09:27:15.745Z</time></trkpt><trkpt lat="44.4860317" lon="11.1545867"><ele>159.2</ele><time>2026-03-28T09:27:16.745Z</time></trkpt><trkpt lat="44.4861317" lon="11.1545833"><ele>159.0</ele><time>2026-03-28T09:27:17.745Z</time></trkpt><trkpt lat="44.4862317" lon="11.1546"><ele>159.8</ele><time>2026-03-28T09:27:18.745Z</time></trkpt><trkpt lat="44.4863333" lon="11.1546267"><ele>160.60000000000002</ele><time>2026-03-28T09:27:19.744Z</time></trkpt><trkpt lat="44.4864283" lon="11.1546533"><ele>161.4</ele><time>2026-03-28T09:27:20.745Z</time></trkpt><trkpt lat="44.48653" lon="11.1546817"><ele>162.20000000000002</ele><time>2026-03-28T09:27:21.745Z</time></trkpt><trkpt lat="44.4866333" lon="11.1547117"><ele>163.0</ele><time>2026-03-28T09:27:22.744Z</time></trkpt><trkpt lat="44.486735" lon="11.1547317"><ele>163.0</ele><time>2026-03-28T09:27:23.744Z</time></trkpt><trkpt lat="44.4868283" lon="11.1547533"><ele>163.0</ele><time>2026-03-28T09:27:24.745Z</time></trkpt><trkpt lat="44.4869283" lon="11.1547867"><ele>163.0</ele><time>2026-03-28T09:27:25.745Z</time></trkpt><trkpt lat="44.4870267" lon="11.1548083"><ele>163.0</ele><time>2026-03-28T09:27:26.744Z</time></trkpt><trkpt lat="44.4871317" lon="11.15483"><ele>163.0</ele><time>2026-03-28T09:27:27.745Z</time></trkpt><trkpt lat="44.4872367" lon="11.1548667"><ele>162.4</ele><time>2026-03-28T09:27:28.745Z</time></trkpt><trkpt lat="44.4873383" lon="11.154895"><ele>161.8</ele><time>2026-03-28T09:27:29.745Z</time></trkpt><trkpt lat="44.4874317" lon="11.1549333"><ele>161.2</ele><time>2026-03-28T09:27:30.745Z</time></trkpt><trkpt lat="44.4875283" lon="11.1549683"><ele>160.6</ele><time>2026-03-28T09:27:31.745Z</time></trkpt><trkpt lat="44.4876283" lon="11.1549983"><ele>160.0</ele><time>2026-03-28T09:27:32.745Z</time></trkpt><trkpt lat="44.4877217" lon="11.1550433"><ele>160.0</ele><time>2026-03-28T09:27:33.745Z</time></trkpt><trkpt lat="44.487815" lon="11.155095"><ele>160.0</ele><time>2026-03-28T09:27:34.744Z</time></trkpt><trkpt lat="44.487905" lon="11.1551383"><ele>160.0</ele><time>2026-03-28T09:27:35.746Z</time></trkpt><trkpt lat="44.4879983" lon="11.1551817"><ele>160.0</ele><time>2026-03-28T09:27:36.746Z</time></trkpt><trkpt lat="44.4880883" lon="11.15523"><ele>160.0</ele><time>2026-03-28T09:27:37.746Z</time></trkpt><trkpt lat="44.4881783" lon="11.1552733"><ele>158.6</ele><time>2026-03-28T09:27:38.746Z</time></trkpt><trkpt lat="44.4882717" lon="11.1553233"><ele>157.2</ele><time>2026-03-28T09:27:39.745Z</time></trkpt><trkpt lat="44.4883617" lon="11.1553733"><ele>155.8</ele><time>2026-03-28T09:27:40.746Z</time></trkpt><trkpt lat="44.4884517" lon="11.1554233"><ele>154.4</ele><time>2026-03-28T09:27:41.746Z</time></trkpt><trkpt lat="44.4885417" lon="11.1554667"><ele>153.0</ele><time>2026-03-28T09:27:42.746Z</time></trkpt><trkpt lat="44.48863" lon="11.155515"><ele>153.0</ele><time>2026-03-28T09:27:43.745Z</time></trkpt><trkpt lat="44.4887167" lon="11.1555767"><ele>153.0</ele><time>2026-03-28T09:27:44.746Z</time></trkpt><trkpt lat="44.4887983" lon="11.1556417"><ele>153.0</ele><time>2026-03-28T09:27:45.746Z</time></trkpt><trkpt lat="44.4888767" lon="11.1557183"><ele>153.0</ele><time>2026-03-28T09:27:46.746Z</time></trkpt><trkpt lat="44.488965" lon="11.1557917"><ele>153.0</ele><time>2026-03-28T09:27:47.746Z</time></trkpt><trkpt lat="44.4890483" lon="11.15588"><ele>152.0</ele><time>2026-03-28T09:27:48.746Z</time></trkpt><trkpt lat="44.4891383" lon="11.1559583"><ele>151.0</ele><time>2026-03-28T09:27:49.746Z</time></trkpt><trkpt lat="44.4892283" lon="11.1560483"><ele>150.0</ele><time>2026-03-28T09:27:50.746Z</time></trkpt><trkpt lat="44.4893133" lon="11.1561333"><ele>149.0</ele><time>2026-03-28T09:27:51.746Z</time></trkpt><trkpt lat="44.4893983" lon="11.1562233"><ele>148.0</ele><time>2026-03-28T09:27:52.745Z</time></trkpt><trkpt lat="44.4894817" lon="11.15632"><ele>148.0</ele><time>2026-03-28T09:27:53.746Z</time></trkpt><trkpt lat="44.48957" lon="11.1564083"><ele>148.0</ele><time>2026-03-28T09:27:54.746Z</time></trkpt><trkpt lat="44.4896633" lon="11.1564933"><ele>148.0</ele><time>2026-03-28T09:27:55.745Z</time></trkpt><trkpt lat="44.48976" lon="11.1565833"><ele>148.0</ele><time>2026-03-28T09:27:56.745Z</time></trkpt><trkpt lat="44.48986" lon="11.15667"><ele>146.5</ele><time>2026-03-28T09:27:57.745Z</time></trkpt><trkpt lat="44.489955" lon="11.1567617"><ele>145.0</ele><time>2026-03-28T09:27:58.746Z</time></trkpt><trkpt lat="44.4900567" lon="11.1568483"><ele>143.5</ele><time>2026-03-28T09:27:59.745Z</time></trkpt><trkpt lat="44.4901517" lon="11.156945"><ele>142.0</ele><time>2026-03-28T09:28:00.745Z</time></trkpt><trkpt lat="44.4902483" lon="11.15703"><ele>142.0</ele><time>2026-03-28T09:28:01.746Z</time></trkpt><trkpt lat="44.4903433" lon="11.1571167"><ele>142.0</ele><time>2026-03-28T09:28:02.745Z</time></trkpt><trkpt lat="44.4904367" lon="11.157205"><ele>142.0</ele><time>2026-03-28T09:28:03.745Z</time></trkpt><trkpt lat="44.4905267" lon="11.1572983"><ele>142.0</ele><time>2026-03-28T09:28:04.745Z</time></trkpt><trkpt lat="44.4906083" lon="11.1574017"><ele>142.0</ele><time>2026-03-28T09:28:05.746Z</time></trkpt><trkpt lat="44.4906883" lon="11.1575"><ele>140.0</ele><time>2026-03-28T09:28:06.746Z</time></trkpt><trkpt lat="44.4907683" lon="11.157615"><ele>138.0</ele><time>2026-03-28T09:28:07.746Z</time></trkpt><trkpt lat="44.490845" lon="11.1577267"><ele>136.0</ele><time>2026-03-28T09:28:08.745Z</time></trkpt><trkpt lat="44.49092" lon="11.1578333"><ele>134.0</ele><time>2026-03-28T09:28:09.746Z</time></trkpt><trkpt lat="44.4909933" lon="11.15794"><ele>132.0</ele><time>2026-03-28T09:28:10.745Z</time></trkpt><trkpt lat="44.4910683" lon="11.15805"><ele>132.0</ele><time>2026-03-28T09:28:11.746Z</time></trkpt><trkpt lat="44.4911367" lon="11.1581517"><ele>132.0</ele><time>2026-03-28T09:28:12.746Z</time></trkpt><trkpt lat="44.4912033" lon="11.1582583"><ele>132.0</ele><time>2026-03-28T09:28:13.746Z</time></trkpt><trkpt lat="44.4912683" lon="11.15836"><ele>132.0</ele><time>2026-03-28T09:28:14.746Z</time></trkpt><trkpt lat="44.4913417" lon="11.1584633"><ele>132.0</ele><time>2026-03-28T09:28:15.746Z</time></trkpt><trkpt lat="44.4914083" lon="11.1585667"><ele>132.0</ele><time>2026-03-28T09:28:16.746Z</time></trkpt><trkpt lat="44.4914733" lon="11.1586617"><ele>132.0</ele><time>2026-03-28T09:28:17.745Z</time></trkpt><trkpt lat="44.4915467" lon="11.158755"><ele>132.0</ele><time>2026-03-28T09:28:18.746Z</time></trkpt><trkpt lat="44.491625" lon="11.1588533"><ele>132.0</ele><time>2026-03-28T09:28:19.746Z</time></trkpt><trkpt lat="44.4916867" lon="11.1589417"><ele>132.0</ele><time>2026-03-28T09:28:20.746Z</time></trkpt><trkpt lat="44.4917517" lon="11.1590267"><ele>132.16666666666666</ele><time>2026-03-28T09:28:21.745Z</time></trkpt><trkpt lat="44.4918083" lon="11.15911"><ele>132.33333333333334</ele><time>2026-03-28T09:28:22.746Z</time></trkpt><trkpt lat="44.4918683" lon="11.1592017"><ele>132.5</ele><time>2026-03-28T09:28:23.746Z</time></trkpt><trkpt lat="44.49192" lon="11.159285"><ele>132.66666666666669</ele><time>2026-03-28T09:28:24.746Z</time></trkpt><trkpt lat="44.491975" lon="11.1593667"><ele>132.83333333333334</ele><time>2026-03-28T09:28:25.745Z</time></trkpt><trkpt lat="44.49203" lon="11.159445"><ele>133.0</ele><time>2026-03-28T09:28:26.745Z</time></trkpt><trkpt lat="44.4920883" lon="11.1595267"><ele>133.0</ele><time>2026-03-28T09:28:27.745Z</time></trkpt><trkpt lat="44.4921433" lon="11.1596033"><ele>133.0</ele><time>2026-03-28T09:28:28.746Z</time></trkpt><trkpt lat="44.492195" lon="11.1596867"><ele>133.0</ele><time>2026-03-28T09:28:29.746Z</time></trkpt><trkpt lat="44.49224" lon="11.159765"><ele>133.0</ele><time>2026-03-28T09:28:30.746Z</time></trkpt><trkpt lat="44.4922817" lon="11.1598533"><ele>133.0</ele><time>2026-03-28T09:28:31.746Z</time></trkpt><trkpt lat="44.4923167" lon="11.15995"><ele>133.0</ele><time>2026-03-28T09:28:32.746Z</time></trkpt><trkpt lat="44.49235" lon="11.16005"><ele>133.0</ele><time>2026-03-28T09:28:33.746Z</time></trkpt><trkpt lat="44.4923783" lon="11.1601533"><ele>133.0</ele><time>2026-03-28T09:28:34.746Z</time></trkpt><trkpt lat="44.49241" lon="11.16026"><ele>133.0</ele><time>2026-03-28T09:28:35.745Z</time></trkpt><trkpt lat="44.4924483" lon="11.1603567"><ele>133.0</ele><time>2026-03-28T09:28:36.746Z</time></trkpt><trkpt lat="44.49247" lon="11.1604583"><ele>133.0</ele><time>2026-03-28T09:28:37.745Z</time></trkpt><trkpt lat="44.49249" lon="11.160555"><ele>133.0</ele><time>2026-03-28T09:28:38.746Z</time></trkpt><trkpt lat="44.492505" lon="11.1606533"><ele>133.14285714285714</ele><time>2026-03-28T09:28:39.746Z</time></trkpt><trkpt lat="44.4925317" lon="11.160745"><ele>133.28571428571428</ele><time>2026-03-28T09:28:40.746Z</time></trkpt><trkpt lat="44.4925517" lon="11.1608433"><ele>133.42857142857144</ele><time>2026-03-28T09:28:41.746Z</time></trkpt><trkpt lat="44.492575" lon="11.160935"><ele>133.57142857142856</ele><time>2026-03-28T09:28:42.746Z</time></trkpt><trkpt lat="44.4925967" lon="11.1610283"><ele>133.71428571428572</ele><time>2026-03-28T09:28:43.746Z</time></trkpt><trkpt lat="44.4926283" lon="11.1611233"><ele>133.85714285714286</ele><time>2026-03-28T09:28:44.746Z</time></trkpt><trkpt lat="44.49265" lon="11.1612183"><ele>134.0</ele><time>2026-03-28T09:28:45.746Z</time></trkpt><trkpt lat="44.4926717" lon="11.161305"><ele>134.0</ele><time>2026-03-28T09:28:46.746Z</time></trkpt><trkpt lat="44.4926967" lon="11.1613967"><ele>134.0</ele><time>2026-03-28T09:28:47.746Z</time></trkpt><trkpt lat="44.4927233" lon="11.1614867"><ele>134.0</ele><time>2026-03-28T09:28:48.746Z</time></trkpt><trkpt lat="44.4927717" lon="11.16165"><ele>134.0</ele><time>2026-03-28T09:28:50.746Z</time></trkpt><trkpt lat="44.4928033" lon="11.16174"><ele>134.0</ele><time>2026-03-28T09:28:51.746Z</time></trkpt><trkpt lat="44.4928333" lon="11.1618233"><ele>134.0</ele><time>2026-03-28T09:28:52.745Z</time></trkpt><trkpt lat="44.4928617" lon="11.1619117"><ele>134.16666666666666</ele><time>2026-03-28T09:28:53.746Z</time></trkpt><trkpt lat="44.4928883" lon="11.16201"><ele>134.33333333333331</ele><time>2026-03-28T09:28:54.746Z</time></trkpt><trkpt lat="44.49292" lon="11.162105"><ele>134.5</ele><time>2026-03-28T09:28:55.746Z</time></trkpt><trkpt lat="44.4929533" lon="11.162195"><ele>134.66666666666666</ele><time>2026-03-28T09:28:56.745Z</time></trkpt><trkpt lat="44.4929933" lon="11.1622883"><ele>134.83333333333334</ele><time>2026-03-28T09:28:57.745Z</time></trkpt><trkpt lat="44.49305" lon="11.1623783"><ele>135.0</ele><time>2026-03-28T09:28:58.746Z</time></trkpt><trkpt lat="44.4931033" lon="11.1624667"><ele>135.0</ele><time>2026-03-28T09:28:59.746Z</time></trkpt><trkpt lat="44.493175" lon="11.1625517"><ele>135.0</ele><time>2026-03-28T09:29:00.746Z</time></trkpt><trkpt lat="44.4932433" lon="11.1626317"><ele>135.0</ele><time>2026-03-28T09:29:01.746Z</time></trkpt><trkpt lat="44.4933117" lon="11.16271"><ele>135.0</ele><time>2026-03-28T09:29:02.745Z</time></trkpt><trkpt lat="44.4933867" lon="11.1627933"><ele>135.0</ele><time>2026-03-28T09:29:03.745Z</time></trkpt><trkpt lat="44.4934567" lon="11.16288"><ele>135.0</ele><time>2026-03-28T09:29:04.745Z</time></trkpt><trkpt lat="44.4935317" lon="11.162965"><ele>135.0</ele><time>2026-03-28T09:29:05.746Z</time></trkpt><trkpt lat="44.4936067" lon="11.16306"><ele>135.0</ele><time>2026-03-28T09:29:06.745Z</time></trkpt><trkpt lat="44.4936783" lon="11.1631633"><ele>135.0</ele><time>2026-03-28T09:29:07.745Z</time></trkpt><trkpt lat="44.4937567" lon="11.1632617"><ele>135.0</ele><time>2026-03-28T09:29:08.746Z</time></trkpt><trkpt lat="44.4938367" lon="11.16336"><ele>133.8</ele><time>2026-03-28T09:29:09.745Z</time></trkpt><trkpt lat="44.4939183" lon="11.163445"><ele>132.6</ele><time>2026-03-28T09:29:10.746Z</time></trkpt><trkpt lat="44.4940083" lon="11.16352"><ele>131.4</ele><time>2026-03-28T09:29:11.746Z</time></trkpt><trkpt lat="44.4941" lon="11.1635983"><ele>130.2</ele><time>2026-03-28T09:29:12.746Z</time></trkpt><trkpt lat="44.4941883" lon="11.1636717"><ele>129.0</ele><time>2026-03-28T09:29:13.745Z</time></trkpt><trkpt lat="44.494285" lon="11.1637367"><ele>129.0</ele><time>2026-03-28T09:29:14.745Z</time></trkpt><trkpt lat="44.4943767" lon="11.1637983"><ele>129.0</ele><time>2026-03-28T09:29:15.746Z</time></trkpt><trkpt lat="44.4944583" lon="11.163865"><ele>129.0</ele><time>2026-03-28T09:29:16.746Z</time></trkpt><trkpt lat="44.4945417" lon="11.1639267"><ele>129.0</ele><time>2026-03-28T09:29:17.746Z</time></trkpt><trkpt lat="44.4946233" lon="11.163995"><ele>129.0</ele><time>2026-03-28T09:29:18.746Z</time></trkpt><trkpt lat="44.4947117" lon="11.1640667"><ele>127.80000000000001</ele><time>2026-03-28T09:29:19.745Z</time></trkpt><trkpt lat="44.4948" lon="11.1641367"><ele>126.60000000000001</ele><time>2026-03-28T09:29:20.745Z</time></trkpt><trkpt lat="44.4948883" lon="11.1642017"><ele>125.4</ele><time>2026-03-28T09:29:21.745Z</time></trkpt><trkpt lat="44.494975" lon="11.1642733"><ele>124.2</ele><time>2026-03-28T09:29:22.746Z</time></trkpt><trkpt lat="44.4950583" lon="11.1643533"><ele>123.0</ele><time>2026-03-28T09:29:23.745Z</time></trkpt><trkpt lat="44.4951367" lon="11.1644317"><ele>123.0</ele><time>2026-03-28T09:29:24.745Z</time></trkpt><trkpt lat="44.4952117" lon="11.1645267"><ele>123.00000000000001</ele><time>2026-03-28T09:29:25.746Z</time></trkpt><trkpt lat="44.4952733" lon="11.1646317"><ele>123.00000000000001</ele><time>2026-03-28T09:29:26.746Z</time></trkpt><trkpt lat="44.49534" lon="11.1647317"><ele>123.0</ele><time>2026-03-28T09:29:27.746Z</time></trkpt><trkpt lat="44.4954183" lon="11.164825"><ele>123.0</ele><time>2026-03-28T09:29:28.746Z</time></trkpt><trkpt lat="44.4954967" lon="11.16493"><ele>122.0</ele><time>2026-03-28T09:29:29.746Z</time></trkpt><trkpt lat="44.4955717" lon="11.1650317"><ele>121.00000000000001</ele><time>2026-03-28T09:29:30.746Z</time></trkpt><trkpt lat="44.495645" lon="11.1651317"><ele>120.00000000000001</ele><time>2026-03-28T09:29:31.746Z</time></trkpt><trkpt lat="44.495715" lon="11.165235"><ele>119.0</ele><time>2026-03-28T09:29:32.746Z</time></trkpt><trkpt lat="44.4957933" lon="11.1653483"><ele>118.0</ele><time>2026-03-28T09:29:33.746Z</time></trkpt><trkpt lat="44.4958633" lon="11.1654567"><ele>118.0</ele><time>2026-03-28T09:29:34.746Z</time></trkpt><trkpt lat="44.4959383" lon="11.1655717"><ele>118.00000000000001</ele><time>2026-03-28T09:29:35.746Z</time></trkpt><trkpt lat="44.496015" lon="11.1656817"><ele>118.00000000000001</ele><time>2026-03-28T09:29:36.746Z</time></trkpt><trkpt lat="44.4960883" lon="11.1657867"><ele>118.0</ele><time>2026-03-28T09:29:37.746Z</time></trkpt><trkpt lat="44.4961617" lon="11.1658883"><ele>118.0</ele><time>2026-03-28T09:29:38.745Z</time></trkpt><trkpt lat="44.4962433" lon="11.1659933"><ele>116.2</ele><time>2026-03-28T09:29:39.745Z</time></trkpt><trkpt lat="44.496305" lon="11.1660983"><ele>114.4</ele><time>2026-03-28T09:29:40.746Z</time></trkpt><trkpt lat="44.4963767" lon="11.1662"><ele>112.60000000000001</ele><time>2026-03-28T09:29:41.746Z</time></trkpt><trkpt lat="44.496445" lon="11.1662967"><ele>110.80000000000001</ele><time>2026-03-28T09:29:42.746Z</time></trkpt><trkpt lat="44.4965233" lon="11.166395"><ele>109.0</ele><time>2026-03-28T09:29:43.746Z</time></trkpt><trkpt lat="44.4965983" lon="11.166495"><ele>109.4</ele><time>2026-03-28T09:29:44.746Z</time></trkpt><trkpt lat="44.49667" lon="11.1665983"><ele>109.80000000000001</ele><time>2026-03-28T09:29:45.746Z</time></trkpt><trkpt lat="44.4967367" lon="11.1667"><ele>110.19999999999999</ele><time>2026-03-28T09:29:46.746Z</time></trkpt><trkpt lat="44.496805" lon="11.1668017"><ele>110.6</ele><time>2026-03-28T09:29:47.745Z</time></trkpt><trkpt lat="44.4968717" lon="11.166905"><ele>111.0</ele><time>2026-03-28T09:29:48.746Z</time></trkpt><trkpt lat="44.4969367" lon="11.16701"><ele>111.0</ele><time>2026-03-28T09:29:49.746Z</time></trkpt><trkpt lat="44.49701" lon="11.1671183"><ele>111.0</ele><time>2026-03-28T09:29:50.746Z</time></trkpt><trkpt lat="44.4970817" lon="11.1672233"><ele>111.0</ele><time>2026-03-28T09:29:51.746Z</time></trkpt><trkpt lat="44.4971583" lon="11.1673267"><ele>111.0</ele><time>2026-03-28T09:29:52.746Z</time></trkpt><trkpt lat="44.4972267" lon="11.16743"><ele>111.0</ele><time>2026-03-28T09:29:53.746Z</time></trkpt><trkpt lat="44.4973033" lon="11.167535"><ele>109.6</ele><time>2026-03-28T09:29:54.745Z</time></trkpt><trkpt lat="44.4973783" lon="11.1676467"><ele>108.19999999999999</ele><time>2026-03-28T09:29:55.745Z</time></trkpt><trkpt lat="44.4974467" lon="11.1677567"><ele>106.80000000000001</ele><time>2026-03-28T09:29:56.746Z</time></trkpt><trkpt lat="44.4975217" lon="11.1678633"><ele>105.4</ele><time>2026-03-28T09:29:57.745Z</time></trkpt><trkpt lat="44.49758" lon="11.1679817"><ele>104.0</ele><time>2026-03-28T09:29:58.746Z</time></trkpt><trkpt lat="44.497635" lon="11.16811"><ele>104.2</ele><time>2026-03-28T09:29:59.746Z</time></trkpt><trkpt lat="44.4976683" lon="11.168245"><ele>104.4</ele><time>2026-03-28T09:30:00.746Z</time></trkpt><trkpt lat="44.497685" lon="11.168385"><ele>104.6</ele><time>2026-03-28T09:30:01.746Z</time></trkpt><trkpt lat="44.4976917" lon="11.16853"><ele>104.8</ele><time>2026-03-28T09:30:02.745Z</time></trkpt><trkpt lat="44.4977017" lon="11.1686667"><ele>105.0</ele><time>2026-03-28T09:30:03.746Z</time></trkpt><trkpt lat="44.4976933" lon="11.168815"><ele>105.0</ele><time>2026-03-28T09:30:04.746Z</time></trkpt><trkpt lat="44.497695" lon="11.1689617"><ele>105.0</ele><time>2026-03-28T09:30:05.746Z</time></trkpt><trkpt lat="44.4976933" lon="11.1691067"><ele>105.0</ele><time>2026-03-28T09:30:06.745Z</time></trkpt><trkpt lat="44.4977083" lon="11.1692517"><ele>105.0</ele><time>2026-03-28T09:30:07.746Z</time></trkpt><trkpt lat="44.4977333" lon="11.16939"><ele>105.0</ele><time>2026-03-28T09:30:08.746Z</time></trkpt><trkpt lat="44.4977633" lon="11.1695383"><ele>104.2</ele><time>2026-03-28T09:30:09.746Z</time></trkpt><trkpt lat="44.497815" lon="11.1696733"><ele>103.4</ele><time>2026-03-28T09:30:10.745Z</time></trkpt><trkpt lat="44.4978717" lon="11.1697967"><ele>102.6</ele><time>2026-03-28T09:30:11.746Z</time></trkpt><trkpt lat="44.497945" lon="11.169915"><ele>101.8</ele><time>2026-03-28T09:30:12.746Z</time></trkpt><trkpt lat="44.4980167" lon="11.170025"><ele>101.0</ele><time>2026-03-28T09:30:13.746Z</time></trkpt><trkpt lat="44.4980867" lon="11.1701283"><ele>100.0</ele><time>2026-03-28T09:30:14.745Z</time></trkpt><trkpt lat="44.498165" lon="11.1702317"><ele>99.0</ele><time>2026-03-28T09:30:15.746Z</time></trkpt><trkpt lat="44.4982467" lon="11.1703333"><ele>98.0</ele><time>2026-03-28T09:30:16.745Z</time></trkpt><trkpt lat="44.49833" lon="11.1704133"><ele>97.0</ele><time>2026-03-28T09:30:17.746Z</time></trkpt><trkpt lat="44.4984183" lon="11.1704783"><ele>96.0</ele><time>2026-03-28T09:30:18.745Z</time></trkpt><trkpt lat="44.4985217" lon="11.1705483"><ele>96.0</ele><time>2026-03-28T09:30:19.746Z</time></trkpt><trkpt lat="44.498615" lon="11.1706183"><ele>96.0</ele><time>2026-03-28T09:30:20.746Z</time></trkpt><trkpt lat="44.4987067" lon="11.170675"><ele>96.0</ele><time>2026-03-28T09:30:21.746Z</time></trkpt><trkpt lat="44.4987983" lon="11.17073"><ele>96.0</ele><time>2026-03-28T09:30:22.745Z</time></trkpt><trkpt lat="44.4988867" lon="11.1707817"><ele>96.0</ele><time>2026-03-28T09:30:23.745Z</time></trkpt><trkpt lat="44.4989667" lon="11.170835"><ele>96.0</ele><time>2026-03-28T09:30:24.745Z</time></trkpt><trkpt lat="44.4990467" lon="11.1708883"><ele>96.0</ele><time>2026-03-28T09:30:25.746Z</time></trkpt><trkpt lat="44.49912" lon="11.1709383"><ele>96.0</ele><time>2026-03-28T09:30:26.745Z</time></trkpt><trkpt lat="44.4991983" lon="11.1709933"><ele>96.0</ele><time>2026-03-28T09:30:27.746Z</time></trkpt><trkpt lat="44.4992733" lon="11.1710533"><ele>96.0</ele><time>2026-03-28T09:30:28.745Z</time></trkpt><trkpt lat="44.49934" lon="11.1711267"><ele>96.0</ele><time>2026-03-28T09:30:29.746Z</time></trkpt><trkpt lat="44.4994017" lon="11.1712"><ele>96.0</ele><time>2026-03-28T09:30:30.746Z</time></trkpt><trkpt lat="44.499465" lon="11.1712817"><ele>96.0</ele><time>2026-03-28T09:30:31.746Z</time></trkpt><trkpt lat="44.49952" lon="11.1713733"><ele>96.0</ele><time>2026-03-28T09:30:32.745Z</time></trkpt><trkpt lat="44.4995767" lon="11.171465"><ele>96.0</ele><time>2026-03-28T09:30:33.745Z</time></trkpt><trkpt lat="44.499625" lon="11.1715583"><ele>96.0</ele><time>2026-03-28T09:30:34.746Z</time></trkpt><trkpt lat="44.4996767" lon="11.171655"><ele>96.0</ele><time>2026-03-28T09:30:35.746Z</time></trkpt><trkpt lat="44.4997267" lon="11.17176"><ele>95.83333333333333</ele><time>2026-03-28T09:30:36.746Z</time></trkpt><trkpt lat="44.4997783" lon="11.1718617"><ele>95.66666666666667</ele><time>2026-03-28T09:30:37.746Z</time></trkpt><trkpt lat="44.4998317" lon="11.1719633"><ele>95.5</ele><time>2026-03-28T09:30:38.746Z</time></trkpt><trkpt lat="44.4998867" lon="11.1720617"><ele>95.33333333333334</ele><time>2026-03-28T09:30:39.746Z</time></trkpt><trkpt lat="44.4999433" lon="11.1721567"><ele>95.16666666666667</ele><time>2026-03-28T09:30:40.745Z</time></trkpt><trkpt lat="44.500005" lon="11.17225"><ele>95.0</ele><time>2026-03-28T09:30:41.746Z</time></trkpt><trkpt lat="44.5000717" lon="11.1723433"><ele>94.4</ele><time>2026-03-28T09:30:42.746Z</time></trkpt><trkpt lat="44.50014" lon="11.1724417"><ele>93.8</ele><time>2026-03-28T09:30:43.745Z</time></trkpt><trkpt lat="44.5002" lon="11.1725433"><ele>93.19999999999999</ele><time>2026-03-28T09:30:44.745Z</time></trkpt><trkpt lat="44.5002617" lon="11.1726483"><ele>92.6</ele><time>2026-03-28T09:30:45.746Z</time></trkpt><trkpt lat="44.50032" lon="11.172755"><ele>92.0</ele><time>2026-03-28T09:30:46.746Z</time></trkpt><trkpt lat="44.500375" lon="11.172875"><ele>91.0</ele><time>2026-03-28T09:30:47.746Z</time></trkpt><trkpt lat="44.50043" lon="11.1729883"><ele>90.0</ele><time>2026-03-28T09:30:48.746Z</time></trkpt><trkpt lat="44.5004883" lon="11.17311"><ele>89.0</ele><time>2026-03-28T09:30:49.746Z</time></trkpt><trkpt lat="44.5005433" lon="11.1732283"><ele>88.0</ele><time>2026-03-28T09:30:50.745Z</time></trkpt><trkpt lat="44.5005983" lon="11.1733533"><ele>87.0</ele><time>2026-03-28T09:30:51.746Z</time></trkpt><trkpt lat="44.50065" lon="11.1734767"><ele>86.8</ele><time>2026-03-28T09:30:52.745Z</time></trkpt><trkpt lat="44.5007017" lon="11.1735967"><ele>86.6</ele><time>2026-03-28T09:30:53.746Z</time></trkpt><trkpt lat="44.5007483" lon="11.173725"><ele>86.39999999999999</ele><time>2026-03-28T09:30:54.745Z</time></trkpt><trkpt lat="44.5008017" lon="11.1738467"><ele>86.19999999999999</ele><time>2026-03-28T09:30:55.746Z</time></trkpt><trkpt lat="44.5008567" lon="11.17397"><ele>86.0</ele><time>2026-03-28T09:30:56.746Z</time></trkpt><trkpt lat="44.5009133" lon="11.1740933"><ele>85.4</ele><time>2026-03-28T09:30:57.746Z</time></trkpt><trkpt lat="44.50097" lon="11.1742217"><ele>84.8</ele><time>2026-03-28T09:30:58.746Z</time></trkpt><trkpt lat="44.501025" lon="11.17435"><ele>84.2</ele><time>2026-03-28T09:30:59.746Z</time></trkpt><trkpt lat="44.5010767" lon="11.1744617"><ele>83.60000000000001</ele><time>2026-03-28T09:31:00.745Z</time></trkpt><trkpt lat="44.501125" lon="11.174575"><ele>83.0</ele><time>2026-03-28T09:31:01.745Z</time></trkpt><trkpt lat="44.5011683" lon="11.17468"><ele>83.0</ele><time>2026-03-28T09:31:02.746Z</time></trkpt><trkpt lat="44.5012133" lon="11.1747767"><ele>83.0</ele><time>2026-03-28T09:31:03.746Z</time></trkpt><trkpt lat="44.501255" lon="11.1748783"><ele>83.0</ele><time>2026-03-28T09:31:04.746Z</time></trkpt><trkpt lat="44.5012917" lon="11.1749633"><ele>83.0</ele><time>2026-03-28T09:31:05.746Z</time></trkpt><trkpt lat="44.50133" lon="11.1750483"><ele>83.0</ele><time>2026-03-28T09:31:06.746Z</time></trkpt><trkpt lat="44.5013867" lon="11.175175"><ele>83.0</ele><time>2026-03-28T09:31:08.746Z</time></trkpt><trkpt lat="44.5014383" lon="11.1753017"><ele>81.2</ele><time>2026-03-28T09:31:10.746Z</time></trkpt><trkpt lat="44.5014933" lon="11.17542"><ele>79.4</ele><time>2026-03-28T09:31:12.746Z</time></trkpt><trkpt lat="44.501555" lon="11.1755433"><ele>77.60000000000001</ele><time>2026-03-28T09:31:14.746Z</time></trkpt><trkpt lat="44.501615" lon="11.17568"><ele>75.80000000000001</ele><time>2026-03-28T09:31:16.746Z</time></trkpt><trkpt lat="44.5016417" lon="11.1757633"><ele>74.0</ele><time>2026-03-28T09:31:17.746Z</time></trkpt><trkpt lat="44.5016683" lon="11.17585"><ele>73.66666666666667</ele><time>2026-03-28T09:31:18.745Z</time></trkpt><trkpt lat="44.5017033" lon="11.1759467"><ele>73.33333333333334</ele><time>2026-03-28T09:31:19.745Z</time></trkpt><trkpt lat="44.5017317" lon="11.1760467"><ele>73.0</ele><time>2026-03-28T09:31:20.746Z</time></trkpt><trkpt lat="44.5017667" lon="11.176145"><ele>72.66666666666667</ele><time>2026-03-28T09:31:21.746Z</time></trkpt><trkpt lat="44.5017967" lon="11.17624"><ele>72.33333333333333</ele><time>2026-03-28T09:31:22.746Z</time></trkpt><trkpt lat="44.5018333" lon="11.1763417"><ele>72.0</ele><time>2026-03-28T09:31:23.746Z</time></trkpt><trkpt lat="44.501875" lon="11.17644"><ele>71.83333333333333</ele><time>2026-03-28T09:31:24.745Z</time></trkpt><trkpt lat="44.501925" lon="11.1765317"><ele>71.66666666666667</ele><time>2026-03-28T09:31:25.746Z</time></trkpt><trkpt lat="44.50197" lon="11.1766217"><ele>71.5</ele><time>2026-03-28T09:31:26.746Z</time></trkpt><trkpt lat="44.5020183" lon="11.1767167"><ele>71.33333333333334</ele><time>2026-03-28T09:31:27.746Z</time></trkpt><trkpt lat="44.5020633" lon="11.1768217"><ele>71.16666666666667</ele><time>2026-03-28T09:31:28.746Z</time></trkpt><trkpt lat="44.5021083" lon="11.176925"><ele>71.0</ele><time>2026-03-28T09:31:29.746Z</time></trkpt><trkpt lat="44.5021617" lon="11.1770283"><ele>69.6</ele><time>2026-03-28T09:31:30.746Z</time></trkpt><trkpt lat="44.5022083" lon="11.1771267"><ele>68.19999999999999</ele><time>2026-03-28T09:31:31.746Z</time></trkpt><trkpt lat="44.5022633" lon="11.17723"><ele>66.80000000000001</ele><time>2026-03-28T09:31:32.745Z</time></trkpt><trkpt lat="44.5023183" lon="11.177335"><ele>65.4</ele><time>2026-03-28T09:31:33.745Z</time></trkpt><trkpt lat="44.502375" lon="11.1774517"><ele>64.0</ele><time>2026-03-28T09:31:34.746Z</time></trkpt><trkpt lat="44.50243" lon="11.1775617"><ele>64.0</ele><time>2026-03-28T09:31:35.745Z</time></trkpt><trkpt lat="44.502485" lon="11.177675"><ele>64.0</ele><time>2026-03-28T09:31:36.746Z</time></trkpt><trkpt lat="44.5025467" lon="11.1777883"><ele>64.0</ele><time>2026-03-28T09:31:37.745Z</time></trkpt><trkpt lat="44.5026117" lon="11.1779017"><ele>64.0</ele><time>2026-03-28T09:31:38.745Z</time></trkpt><trkpt lat="44.5026717" lon="11.17801"><ele>64.0</ele><time>2026-03-28T09:31:39.745Z</time></trkpt><trkpt lat="44.5027433" lon="11.178115"><ele>63.800000000000004</ele><time>2026-03-28T09:31:40.746Z</time></trkpt><trkpt lat="44.5028167" lon="11.1782267"><ele>63.60000000000001</ele><time>2026-03-28T09:31:41.746Z</time></trkpt><trkpt lat="44.5028967" lon="11.178345"><ele>63.4</ele><time>2026-03-28T09:31:42.746Z</time></trkpt><trkpt lat="44.502975" lon="11.1784517"><ele>63.2</ele><time>2026-03-28T09:31:43.746Z</time></trkpt><trkpt lat="44.5030483" lon="11.1785517"><ele>63.0</ele><time>2026-03-28T09:31:44.746Z</time></trkpt><trkpt lat="44.50313" lon="11.17865"><ele>61.599999999999994</ele><time>2026-03-28T09:31:45.745Z</time></trkpt><trkpt lat="44.5032117" lon="11.178745"><ele>60.199999999999996</ele><time>2026-03-28T09:31:46.746Z</time></trkpt><trkpt lat="44.50329" lon="11.1788333"><ele>58.8</ele><time>2026-03-28T09:31:47.745Z</time></trkpt><trkpt lat="44.503375" lon="11.17892"><ele>57.4</ele><time>2026-03-28T09:31:48.746Z</time></trkpt><trkpt lat="44.503465" lon="11.1789967"><ele>56.0</ele><time>2026-03-28T09:31:49.745Z</time></trkpt><trkpt lat="44.503545" lon="11.1790767"><ele>56.0</ele><time>2026-03-28T09:31:50.745Z</time></trkpt><trkpt lat="44.5036267" lon="11.179145"><ele>55.99999999999999</ele><time>2026-03-28T09:31:51.746Z</time></trkpt><trkpt lat="44.5037133" lon="11.179215"><ele>55.99999999999999</ele><time>2026-03-28T09:31:52.746Z</time></trkpt><trkpt lat="44.5037967" lon="11.179275"><ele>56.0</ele><time>2026-03-28T09:31:53.746Z</time></trkpt><trkpt lat="44.50388" lon="11.1793417"><ele>56.0</ele><time>2026-03-28T09:31:54.746Z</time></trkpt><trkpt lat="44.5039567" lon="11.17941"><ele>55.833333333333336</ele><time>2026-03-28T09:31:55.746Z</time></trkpt><trkpt lat="44.5040367" lon="11.1794733"><ele>55.66666666666667</ele><time>2026-03-28T09:31:56.746Z</time></trkpt><trkpt lat="44.50411" lon="11.1795333"><ele>55.5</ele><time>2026-03-28T09:31:57.746Z</time></trkpt><trkpt lat="44.5041817" lon="11.1796033"><ele>55.33333333333333</ele><time>2026-03-28T09:31:58.745Z</time></trkpt><trkpt lat="44.5042583" lon="11.1796633"><ele>55.166666666666664</ele><time>2026-03-28T09:31:59.745Z</time></trkpt><trkpt lat="44.5043283" lon="11.179725"><ele>55.0</ele><time>2026-03-28T09:32:00.746Z</time></trkpt><trkpt lat="44.5043983" lon="11.1797833"><ele>54.99999999999999</ele><time>2026-03-28T09:32:01.746Z</time></trkpt><trkpt lat="44.5044683" lon="11.1798333"><ele>55.0</ele><time>2026-03-28T09:32:02.746Z</time></trkpt><trkpt lat="44.5045333" lon="11.1798867"><ele>55.0</ele><time>2026-03-28T09:32:03.746Z</time></trkpt><trkpt lat="44.5045967" lon="11.1799367"><ele>55.0</ele><time>2026-03-28T09:32:04.745Z</time></trkpt><trkpt lat="44.5046633" lon="11.17999"><ele>55.0</ele><time>2026-03-28T09:32:05.745Z</time></trkpt><trkpt lat="44.50472" lon="11.1800333"><ele>54.99999999999999</ele><time>2026-03-28T09:32:06.745Z</time></trkpt><trkpt lat="44.50478" lon="11.180085"><ele>55.0</ele><time>2026-03-28T09:32:07.745Z</time></trkpt><trkpt lat="44.5048383" lon="11.18013"><ele>54.6</ele><time>2026-03-28T09:32:08.745Z</time></trkpt><trkpt lat="44.504945" lon="11.1802133"><ele>54.2</ele><time>2026-03-28T09:32:10.746Z</time></trkpt><trkpt lat="44.5050383" lon="11.1802833"><ele>53.8</ele><time>2026-03-28T09:32:12.746Z</time></trkpt><trkpt lat="44.5051" lon="11.18036"><ele>53.4</ele><time>2026-03-28T09:32:14.746Z</time></trkpt><trkpt lat="44.50512" lon="11.18046"><ele>53.0</ele><time>2026-03-28T09:32:16.746Z</time></trkpt><trkpt lat="44.5050867" lon="11.1805833"><ele>53.2</ele><time>2026-03-28T09:32:18.746Z</time></trkpt><trkpt lat="44.5050317" lon="11.1807017"><ele>53.4</ele><time>2026-03-28T09:32:20.746Z</time></trkpt><trkpt lat="44.50497" lon="11.1808217"><ele>53.60000000000001</ele><time>2026-03-28T09:32:22.745Z</time></trkpt><trkpt lat="44.5049167" lon="11.18096"><ele>53.800000000000004</ele><time>2026-03-28T09:32:24.746Z</time></trkpt><trkpt lat="44.50486" lon="11.1810967"><ele>54.0</ele><time>2026-03-28T09:32:26.747Z</time></trkpt><trkpt lat="44.5048" lon="11.181225"><ele>54.0</ele><time>2026-03-28T09:32:28.747Z</time></trkpt><trkpt lat="44.5047433" lon="11.1813667"><ele>54.0</ele><time>2026-03-28T09:32:30.747Z</time></trkpt><trkpt lat="44.5046817" lon="11.1814967"><ele>54.0</ele><time>2026-03-28T09:32:32.747Z</time></trkpt><trkpt lat="44.5046367" lon="11.1816467"><ele>54.0</ele><time>2026-03-28T09:32:34.746Z</time></trkpt><trkpt lat="44.5045817" lon="11.1817867"><ele>54.0</ele><time>2026-03-28T09:32:36.747Z</time></trkpt><trkpt lat="44.504525" lon="11.1819283"><ele>54.0</ele><time>2026-03-28T09:32:38.746Z</time></trkpt><trkpt lat="44.5044733" lon="11.1820733"><ele>54.0</ele><time>2026-03-28T09:32:40.747Z</time></trkpt><trkpt lat="44.5044267" lon="11.182215"><ele>54.0</ele><time>2026-03-28T09:32:42.746Z</time></trkpt><trkpt lat="44.50438" lon="11.1823583"><ele>54.25</ele><time>2026-03-28T09:32:44.747Z</time></trkpt><trkpt lat="44.5043267" lon="11.1824967"><ele>54.5</ele><time>2026-03-28T09:32:46.747Z</time></trkpt><trkpt lat="44.5042781" lon="11.1826452"><ele>54.75</ele><time>2026-03-28T09:32:48.747Z</time></trkpt><trkpt lat="44.504222" lon="11.1827926"><ele>55.0</ele><time>2026-03-28T09:32:50.747Z</time></trkpt><trkpt lat="44.5041664" lon="11.1829462"><ele>54.99999999999999</ele><time>2026-03-28T09:32:52.747Z</time></trkpt><trkpt lat="44.5041131" lon="11.1831069"><ele>55.0</ele><time>2026-03-28T09:32:54.746Z</time></trkpt><trkpt lat="44.5040849" lon="11.1831875"><ele>55.0</ele><time>2026-03-28T09:32:55.747Z</time></trkpt><trkpt lat="44.5040544" lon="11.1832658"><ele>55.0</ele><time>2026-03-28T09:32:56.747Z</time></trkpt><trkpt lat="44.504022" lon="11.1833426"><ele>54.99999999999999</ele><time>2026-03-28T09:32:57.747Z</time></trkpt><trkpt lat="44.5039586" lon="11.1834897"><ele>55.0</ele><time>2026-03-28T09:32:59.746Z</time></trkpt><trkpt lat="44.5038893" lon="11.1836291"><ele>54.99999999999999</ele><time>2026-03-28T09:33:01.747Z</time></trkpt><trkpt lat="44.5038531" lon="11.1837037"><ele>55.0</ele><time>2026-03-28T09:33:02.747Z</time></trkpt><trkpt lat="44.5038146" lon="11.1837778"><ele>55.0</ele><time>2026-03-28T09:33:03.747Z</time></trkpt><trkpt lat="44.503778" lon="11.1838539"><ele>55.0</ele><time>2026-03-28T09:33:04.746Z</time></trkpt><trkpt lat="44.5037435" lon="11.1839318"><ele>54.99999999999999</ele><time>2026-03-28T09:33:05.747Z</time></trkpt><trkpt lat="44.5036773" lon="11.1840807"><ele>55.0</ele><time>2026-03-28T09:33:07.747Z</time></trkpt><trkpt lat="44.5036081" lon="11.1842206"><ele>55.33333333333333</ele><time>2026-03-28T09:33:09.747Z</time></trkpt><trkpt lat="44.5035472" lon="11.1843761"><ele>55.666666666666664</ele><time>2026-03-28T09:33:11.747Z</time></trkpt><trkpt lat="44.5035142" lon="11.1844515"><ele>56.0</ele><time>2026-03-28T09:33:12.747Z</time></trkpt><trkpt lat="44.5034458" lon="11.1845951"><ele>56.33333333333333</ele><time>2026-03-28T09:33:14.747Z</time></trkpt><trkpt lat="44.5034071" lon="11.1846662"><ele>56.666666666666664</ele><time>2026-03-28T09:33:15.747Z</time></trkpt><trkpt lat="44.5033684" lon="11.1847409"><ele>57.0</ele><time>2026-03-28T09:33:16.747Z</time></trkpt><trkpt lat="44.5033332" lon="11.1848161"><ele>57.2</ele><time>2026-03-28T09:33:17.746Z</time></trkpt><trkpt lat="44.5032689" lon="11.1849645"><ele>57.400000000000006</ele><time>2026-03-28T09:33:19.746Z</time></trkpt><trkpt lat="44.5031933" lon="11.1851033"><ele>57.599999999999994</ele><time>2026-03-28T09:33:21.746Z</time></trkpt><trkpt lat="44.5031183" lon="11.185245"><ele>57.8</ele><time>2026-03-28T09:33:23.747Z</time></trkpt><trkpt lat="44.503085" lon="11.185325"><ele>58.0</ele><time>2026-03-28T09:33:24.747Z</time></trkpt><trkpt lat="44.5030533" lon="11.1854017"><ele>58.0</ele><time>2026-03-28T09:33:25.747Z</time></trkpt><trkpt lat="44.50299" lon="11.1855433"><ele>58.0</ele><time>2026-03-28T09:33:27.747Z</time></trkpt><trkpt lat="44.5029183" lon="11.1856833"><ele>58.0</ele><time>2026-03-28T09:33:29.747Z</time></trkpt><trkpt lat="44.5028517" lon="11.1858283"><ele>58.0</ele><time>2026-03-28T09:33:31.746Z</time></trkpt><trkpt lat="44.5028" lon="11.1859833"><ele>58.4</ele><time>2026-03-28T09:33:33.747Z</time></trkpt><trkpt lat="44.5027683" lon="11.1860633"><ele>58.8</ele><time>2026-03-28T09:33:34.747Z</time></trkpt><trkpt lat="44.5027033" lon="11.18621"><ele>59.2</ele><time>2026-03-28T09:33:36.747Z</time></trkpt><trkpt lat="44.5026433" lon="11.1863583"><ele>59.6</ele><time>2026-03-28T09:33:38.747Z</time></trkpt><trkpt lat="44.5026117" lon="11.1864433"><ele>60.0</ele><time>2026-03-28T09:33:39.747Z</time></trkpt><trkpt lat="44.5025567" lon="11.1866"><ele>60.6</ele><time>2026-03-28T09:33:41.746Z</time></trkpt><trkpt lat="44.5025267" lon="11.1866783"><ele>61.2</ele><time>2026-03-28T09:33:42.747Z</time></trkpt><trkpt lat="44.502485" lon="11.18682"><ele>61.8</ele><time>2026-03-28T09:33:44.747Z</time></trkpt><trkpt lat="44.50244" lon="11.18696"><ele>62.4</ele><time>2026-03-28T09:33:46.747Z</time></trkpt><trkpt lat="44.5023967" lon="11.18708"><ele>63.0</ele><time>2026-03-28T09:33:48.747Z</time></trkpt><trkpt lat="44.502355" lon="11.1872017"><ele>63.0</ele><time>2026-03-28T09:33:50.747Z</time></trkpt><trkpt lat="44.5023183" lon="11.1873083"><ele>63.0</ele><time>2026-03-28T09:33:52.746Z</time></trkpt><trkpt lat="44.50228" lon="11.18742"><ele>63.0</ele><time>2026-03-28T09:33:54.746Z</time></trkpt><trkpt lat="44.5022333" lon="11.1875517"><ele>63.0</ele><time>2026-03-28T09:33:56.747Z</time></trkpt><trkpt lat="44.50218" lon="11.1877"><ele>63.0</ele><time>2026-03-28T09:33:58.747Z</time></trkpt><trkpt lat="44.5021333" lon="11.1878567"><ele>62.8</ele><time>2026-03-28T09:34:00.747Z</time></trkpt><trkpt lat="44.50208" lon="11.1880083"><ele>62.599999999999994</ele><time>2026-03-28T09:34:02.747Z</time></trkpt><trkpt lat="44.50202" lon="11.1881617"><ele>62.400000000000006</ele><time>2026-03-28T09:34:04.747Z</time></trkpt><trkpt lat="44.5019917" lon="11.1882417"><ele>62.2</ele><time>2026-03-28T09:34:05.747Z</time></trkpt><trkpt lat="44.501945" lon="11.1883983"><ele>62.0</ele><time>2026-03-28T09:34:07.747Z</time></trkpt><trkpt lat="44.5019217" lon="11.1884817"><ele>62.0</ele><time>2026-03-28T09:34:08.747Z</time></trkpt><trkpt lat="44.5018733" lon="11.18864"><ele>62.0</ele><time>2026-03-28T09:34:10.747Z</time></trkpt><trkpt lat="44.5018483" lon="11.1887217"><ele>62.0</ele><time>2026-03-28T09:34:11.747Z</time></trkpt><trkpt lat="44.5018033" lon="11.1888833"><ele>62.0</ele><time>2026-03-28T09:34:13.747Z</time></trkpt><trkpt lat="44.50176" lon="11.18905"><ele>62.0</ele><time>2026-03-28T09:34:15.746Z</time></trkpt><trkpt lat="44.5017117" lon="11.18921"><ele>62.0</ele><time>2026-03-28T09:34:17.747Z</time></trkpt><trkpt lat="44.50169" lon="11.1892983"><ele>62.00000000000001</ele><time>2026-03-28T09:34:18.746Z</time></trkpt><trkpt lat="44.5016667" lon="11.1893817"><ele>62.0</ele><time>2026-03-28T09:34:19.747Z</time></trkpt><trkpt lat="44.5016417" lon="11.1894667"><ele>62.0</ele><time>2026-03-28T09:34:20.747Z</time></trkpt><trkpt lat="44.5016183" lon="11.1895533"><ele>62.00000000000001</ele><time>2026-03-28T09:34:21.747Z</time></trkpt><trkpt lat="44.501585" lon="11.1896333"><ele>62.0</ele><time>2026-03-28T09:34:22.746Z</time></trkpt><trkpt lat="44.5015533" lon="11.1897117"><ele>62.0</ele><time>2026-03-28T09:34:23.746Z</time></trkpt><trkpt lat="44.50151" lon="11.1898817"><ele>62.28571428571429</ele><time>2026-03-28T09:34:25.747Z</time></trkpt><trkpt lat="44.5014867" lon="11.1899667"><ele>62.57142857142858</ele><time>2026-03-28T09:34:26.746Z</time></trkpt><trkpt lat="44.50146" lon="11.1900483"><ele>62.85714285714286</ele><time>2026-03-28T09:34:27.747Z</time></trkpt><trkpt lat="44.5014367" lon="11.190135"><ele>63.14285714285714</ele><time>2026-03-28T09:34:28.747Z</time></trkpt><trkpt lat="44.5014117" lon="11.19022"><ele>63.42857142857142</ele><time>2026-03-28T09:34:29.747Z</time></trkpt><trkpt lat="44.5013883" lon="11.1903033"><ele>63.71428571428571</ele><time>2026-03-28T09:34:30.747Z</time></trkpt><trkpt lat="44.5013667" lon="11.1903917"><ele>64.0</ele><time>2026-03-28T09:34:31.747Z</time></trkpt><trkpt lat="44.50132" lon="11.190555"><ele>64.2</ele><time>2026-03-28T09:34:33.747Z</time></trkpt><trkpt lat="44.501275" lon="11.1907133"><ele>64.4</ele><time>2026-03-28T09:34:35.747Z</time></trkpt><trkpt lat="44.5012517" lon="11.1907967"><ele>64.6</ele><time>2026-03-28T09:34:36.747Z</time></trkpt><trkpt lat="44.5011967" lon="11.190955"><ele>64.8</ele><time>2026-03-28T09:34:38.747Z</time></trkpt><trkpt lat="44.5011533" lon="11.1911183"><ele>65.0</ele><time>2026-03-28T09:34:40.747Z</time></trkpt><trkpt lat="44.5011217" lon="11.1911983"><ele>65.16666666666667</ele><time>2026-03-28T09:34:41.747Z</time></trkpt><trkpt lat="44.5010867" lon="11.191275"><ele>65.33333333333334</ele><time>2026-03-28T09:34:42.747Z</time></trkpt><trkpt lat="44.5010317" lon="11.1914267"><ele>65.5</ele><time>2026-03-28T09:34:44.747Z</time></trkpt><trkpt lat="44.5009967" lon="11.1915133"><ele>65.66666666666667</ele><time>2026-03-28T09:34:45.746Z</time></trkpt><trkpt lat="44.500975" lon="11.1916033"><ele>65.83333333333333</ele><time>2026-03-28T09:34:46.746Z</time></trkpt><trkpt lat="44.5009483" lon="11.191685"><ele>66.0</ele><time>2026-03-28T09:34:47.746Z</time></trkpt><trkpt lat="44.5008933" lon="11.19186"><ele>66.0</ele><time>2026-03-28T09:34:49.747Z</time></trkpt><trkpt lat="44.5008617" lon="11.191945"><ele>66.0</ele><time>2026-03-28T09:34:50.746Z</time></trkpt><trkpt lat="44.5008383" lon="11.1920317"><ele>66.0</ele><time>2026-03-28T09:34:51.747Z</time></trkpt><trkpt lat="44.5008167" lon="11.192115"><ele>66.0</ele><time>2026-03-28T09:34:52.747Z</time></trkpt><trkpt lat="44.5007967" lon="11.192205"><ele>66.0</ele><time>2026-03-28T09:34:53.747Z</time></trkpt><trkpt lat="44.5007767" lon="11.1922933"><ele>66.0</ele><time>2026-03-28T09:34:54.747Z</time></trkpt><trkpt lat="44.5007517" lon="11.1923767"><ele>66.0</ele><time>2026-03-28T09:34:55.747Z</time></trkpt><trkpt lat="44.5007217" lon="11.1924567"><ele>66.0</ele><time>2026-03-28T09:34:56.747Z</time></trkpt><trkpt lat="44.5006983" lon="11.1925417"><ele>66.0</ele><time>2026-03-28T09:34:57.747Z</time></trkpt><trkpt lat="44.5006733" lon="11.19263"><ele>66.0</ele><time>2026-03-28T09:34:58.746Z</time></trkpt><trkpt lat="44.5006467" lon="11.19271"><ele>66.0</ele><time>2026-03-28T09:34:59.747Z</time></trkpt><trkpt lat="44.500615" lon="11.1927917"><ele>66.0</ele><time>2026-03-28T09:35:00.747Z</time></trkpt><trkpt lat="44.5005667" lon="11.192955"><ele>66.0</ele><time>2026-03-28T09:35:02.746Z</time></trkpt><trkpt lat="44.5005417" lon="11.1930417"><ele>66.0</ele><time>2026-03-28T09:35:03.747Z</time></trkpt><trkpt lat="44.5004933" lon="11.1932"><ele>66.0</ele><time>2026-03-28T09:35:05.747Z</time></trkpt><trkpt lat="44.50044" lon="11.193355"><ele>66.0</ele><time>2026-03-28T09:35:07.746Z</time></trkpt><trkpt lat="44.5004133" lon="11.193435"><ele>66.0</ele><time>2026-03-28T09:35:08.746Z</time></trkpt><trkpt lat="44.5003917" lon="11.1935233"><ele>66.0</ele><time>2026-03-28T09:35:09.747Z</time></trkpt><trkpt lat="44.5003667" lon="11.1936117"><ele>66.0</ele><time>2026-03-28T09:35:10.747Z</time></trkpt><trkpt lat="44.5003183" lon="11.1937767"><ele>66.0</ele><time>2026-03-28T09:35:12.747Z</time></trkpt><trkpt lat="44.50029" lon="11.1938633"><ele>66.0</ele><time>2026-03-28T09:35:13.747Z</time></trkpt><trkpt lat="44.500255" lon="11.193955"><ele>66.0</ele><time>2026-03-28T09:35:14.747Z</time></trkpt><trkpt lat="44.500225" lon="11.1940433"><ele>66.0</ele><time>2026-03-28T09:35:15.747Z</time></trkpt><trkpt lat="44.5001983" lon="11.1941283"><ele>66.0</ele><time>2026-03-28T09:35:16.747Z</time></trkpt><trkpt lat="44.5001633" lon="11.1942167"><ele>66.0</ele><time>2026-03-28T09:35:17.747Z</time></trkpt><trkpt lat="44.500135" lon="11.194305"><ele>66.0</ele><time>2026-03-28T09:35:18.747Z</time></trkpt><trkpt lat="44.5001" lon="11.1944017"><ele>65.71428571428571</ele><time>2026-03-28T09:35:19.746Z</time></trkpt><trkpt lat="44.5000683" lon="11.1944967"><ele>65.42857142857143</ele><time>2026-03-28T09:35:20.747Z</time></trkpt><trkpt lat="44.5000417" lon="11.19459"><ele>65.14285714285714</ele><time>2026-03-28T09:35:21.746Z</time></trkpt><trkpt lat="44.5000167" lon="11.1946833"><ele>64.85714285714286</ele><time>2026-03-28T09:35:22.747Z</time></trkpt><trkpt lat="44.49999" lon="11.19478"><ele>64.57142857142857</ele><time>2026-03-28T09:35:23.747Z</time></trkpt><trkpt lat="44.4999633" lon="11.1948683"><ele>64.28571428571428</ele><time>2026-03-28T09:35:24.747Z</time></trkpt><trkpt lat="44.49994" lon="11.1949533"><ele>64.0</ele><time>2026-03-28T09:35:25.747Z</time></trkpt><trkpt lat="44.4998917" lon="11.1951083"><ele>63.2</ele><time>2026-03-28T09:35:27.747Z</time></trkpt><trkpt lat="44.4998317" lon="11.1952583"><ele>62.400000000000006</ele><time>2026-03-28T09:35:29.747Z</time></trkpt><trkpt lat="44.4997833" lon="11.195395"><ele>61.6</ele><time>2026-03-28T09:35:31.747Z</time></trkpt><trkpt lat="44.499815" lon="11.1955267"><ele>60.8</ele><time>2026-03-28T09:35:33.747Z</time></trkpt><trkpt lat="44.499925" lon="11.19558"><ele>60.0</ele><time>2026-03-28T09:35:35.746Z</time></trkpt><trkpt lat="44.49999" lon="11.1955817"><ele>60.0</ele><time>2026-03-28T09:35:36.747Z</time></trkpt><trkpt lat="44.5000617" lon="11.195585"><ele>60.0</ele><time>2026-03-28T09:35:37.747Z</time></trkpt><trkpt lat="44.5001333" lon="11.195595"><ele>60.0</ele><time>2026-03-28T09:35:38.747Z</time></trkpt><trkpt lat="44.5001967" lon="11.1956167"><ele>60.0</ele><time>2026-03-28T09:35:39.747Z</time></trkpt><trkpt lat="44.50026" lon="11.1956367"><ele>60.0</ele><time>2026-03-28T09:35:40.747Z</time></trkpt><trkpt lat="44.5003233" lon="11.1956617"><ele>60.0</ele><time>2026-03-28T09:35:41.746Z</time></trkpt><trkpt lat="44.5003867" lon="11.1956783"><ele>60.0</ele><time>2026-03-28T09:35:42.747Z</time></trkpt><trkpt lat="44.5004517" lon="11.195695"><ele>60.42857142857143</ele><time>2026-03-28T09:35:43.747Z</time></trkpt><trkpt lat="44.500515" lon="11.1957067"><ele>60.857142857142854</ele><time>2026-03-28T09:35:44.746Z</time></trkpt><trkpt lat="44.50058" lon="11.1957233"><ele>61.285714285714285</ele><time>2026-03-28T09:35:45.747Z</time></trkpt><trkpt lat="44.5006467" lon="11.1957367"><ele>61.714285714285715</ele><time>2026-03-28T09:35:46.747Z</time></trkpt><trkpt lat="44.5007117" lon="11.1957633"><ele>62.14285714285714</ele><time>2026-03-28T09:35:47.747Z</time></trkpt><trkpt lat="44.5007783" lon="11.195785"><ele>62.57142857142857</ele><time>2026-03-28T09:35:48.747Z</time></trkpt><trkpt lat="44.50089" lon="11.1958133"><ele>63.0</ele><time>2026-03-28T09:35:50.747Z</time></trkpt><trkpt lat="44.5010033" lon="11.1958383"><ele>63.0</ele><time>2026-03-28T09:35:52.747Z</time></trkpt><trkpt lat="44.5010733" lon="11.1958517"><ele>63.0</ele><time>2026-03-28T09:35:53.747Z</time></trkpt><trkpt lat="44.5011983" lon="11.19588"><ele>63.0</ele><time>2026-03-28T09:35:55.746Z</time></trkpt><trkpt lat="44.5012717" lon="11.195885"><ele>63.0</ele><time>2026-03-28T09:35:56.747Z</time></trkpt><trkpt lat="44.5014033" lon="11.1959017"><ele>63.0</ele><time>2026-03-28T09:35:58.747Z</time></trkpt><trkpt lat="44.5014717" lon="11.1959067"><ele>63.0</ele><time>2026-03-28T09:35:59.746Z</time></trkpt><trkpt lat="44.5015367" lon="11.19591"><ele>63.0</ele><time>2026-03-28T09:36:00.747Z</time></trkpt><trkpt lat="44.5016" lon="11.1959133"><ele>63.0</ele><time>2026-03-28T09:36:01.747Z</time></trkpt><trkpt lat="44.5017233" lon="11.1959317"><ele>63.0</ele><time>2026-03-28T09:36:03.747Z</time></trkpt><trkpt lat="44.50179" lon="11.19594"><ele>63.0</ele><time>2026-03-28T09:36:04.747Z</time></trkpt><trkpt lat="44.501915" lon="11.1959583"><ele>63.0</ele><time>2026-03-28T09:36:06.747Z</time></trkpt><trkpt lat="44.5019833" lon="11.1959633"><ele>63.0</ele><time>2026-03-28T09:36:07.747Z</time></trkpt><trkpt lat="44.5020533" lon="11.1959667"><ele>63.0</ele><time>2026-03-28T09:36:08.747Z</time></trkpt><trkpt lat="44.5021233" lon="11.1959717"><ele>63.0</ele><time>2026-03-28T09:36:09.746Z</time></trkpt><trkpt lat="44.5021933" lon="11.195975"><ele>63.0</ele><time>2026-03-28T09:36:10.747Z</time></trkpt><trkpt lat="44.5022683" lon="11.19599"><ele>63.0</ele><time>2026-03-28T09:36:11.747Z</time></trkpt><trkpt lat="44.502335" lon="11.1959917"><ele>63.0</ele><time>2026-03-28T09:36:12.747Z</time></trkpt><trkpt lat="44.5024017" lon="11.196005"><ele>63.0</ele><time>2026-03-28T09:36:13.746Z</time></trkpt><trkpt lat="44.5024683" lon="11.1960083"><ele>62.833333333333336</ele><time>2026-03-28T09:36:14.747Z</time></trkpt><trkpt lat="44.5025317" lon="11.1960217"><ele>62.66666666666667</ele><time>2026-03-28T09:36:15.747Z</time></trkpt><trkpt lat="44.5026633" lon="11.1960433"><ele>62.5</ele><time>2026-03-28T09:36:17.747Z</time></trkpt><trkpt lat="44.5027283" lon="11.196055"><ele>62.333333333333336</ele><time>2026-03-28T09:36:18.746Z</time></trkpt><trkpt lat="44.5027933" lon="11.196065"><ele>62.16666666666667</ele><time>2026-03-28T09:36:19.746Z</time></trkpt><trkpt lat="44.5028567" lon="11.1960783"><ele>62.0</ele><time>2026-03-28T09:36:20.746Z</time></trkpt><trkpt lat="44.502925" lon="11.1960867"><ele>62.00000000000001</ele><time>2026-03-28T09:36:21.747Z</time></trkpt><trkpt lat="44.5029917" lon="11.1960983"><ele>62.0</ele><time>2026-03-28T09:36:22.747Z</time></trkpt><trkpt lat="44.5031117" lon="11.196115"><ele>62.0</ele><time>2026-03-28T09:36:24.746Z</time></trkpt><trkpt lat="44.5032317" lon="11.1961467"><ele>62.0</ele><time>2026-03-28T09:36:26.747Z</time></trkpt><trkpt lat="44.5032983" lon="11.1961667"><ele>62.00000000000001</ele><time>2026-03-28T09:36:27.747Z</time></trkpt><trkpt lat="44.5033617" lon="11.1961817"><ele>62.0</ele><time>2026-03-28T09:36:28.746Z</time></trkpt><trkpt lat="44.5034267" lon="11.1961883"><ele>62.00000000000001</ele><time>2026-03-28T09:36:29.747Z</time></trkpt><trkpt lat="44.5034933" lon="11.1961983"><ele>62.0</ele><time>2026-03-28T09:36:30.747Z</time></trkpt><trkpt lat="44.5035567" lon="11.196205"><ele>62.0</ele><time>2026-03-28T09:36:31.747Z</time></trkpt><trkpt lat="44.5036233" lon="11.1962083"><ele>62.0</ele><time>2026-03-28T09:36:32.747Z</time></trkpt><trkpt lat="44.5037483" lon="11.1962117"><ele>62.00000000000001</ele><time>2026-03-28T09:36:34.747Z</time></trkpt><trkpt lat="44.5038167" lon="11.1962233"><ele>62.0</ele><time>2026-03-28T09:36:35.747Z</time></trkpt><trkpt lat="44.5038817" lon="11.1962317"><ele>61.333333333333336</ele><time>2026-03-28T09:36:36.746Z</time></trkpt><trkpt lat="44.5040083" lon="11.196245"><ele>60.66666666666667</ele><time>2026-03-28T09:36:38.747Z</time></trkpt><trkpt lat="44.5041333" lon="11.19626"><ele>60.0</ele><time>2026-03-28T09:36:40.747Z</time></trkpt><trkpt lat="44.5041967" lon="11.1962733"><ele>59.33333333333333</ele><time>2026-03-28T09:36:41.747Z</time></trkpt><trkpt lat="44.5042617" lon="11.1962817"><ele>58.666666666666664</ele><time>2026-03-28T09:36:42.747Z</time></trkpt><trkpt lat="44.5043283" lon="11.196295"><ele>58.0</ele><time>2026-03-28T09:36:43.747Z</time></trkpt><trkpt lat="44.5043967" lon="11.196315"><ele>58.0</ele><time>2026-03-28T09:36:44.746Z</time></trkpt><trkpt lat="44.504465" lon="11.1963383"><ele>58.0</ele><time>2026-03-28T09:36:45.747Z</time></trkpt><trkpt lat="44.50453" lon="11.19637"><ele>58.0</ele><time>2026-03-28T09:36:46.747Z</time></trkpt><trkpt lat="44.5046417" lon="11.1964167"><ele>58.0</ele><time>2026-03-28T09:36:48.747Z</time></trkpt><trkpt lat="44.50475" lon="11.1964533"><ele>58.0</ele><time>2026-03-28T09:36:50.747Z</time></trkpt><trkpt lat="44.5048533" lon="11.196495"><ele>57.8</ele><time>2026-03-28T09:36:52.747Z</time></trkpt><trkpt lat="44.50495" lon="11.1965217"><ele>57.599999999999994</ele><time>2026-03-28T09:36:54.746Z</time></trkpt><trkpt lat="44.5050417" lon="11.1965717"><ele>57.400000000000006</ele><time>2026-03-28T09:36:56.747Z</time></trkpt><trkpt lat="44.5051383" lon="11.1966033"><ele>57.2</ele><time>2026-03-28T09:36:58.746Z</time></trkpt><trkpt lat="44.505225" lon="11.1966433"><ele>57.0</ele><time>2026-03-28T09:37:00.747Z</time></trkpt><trkpt lat="44.50531" lon="11.1966867"><ele>57.0</ele><time>2026-03-28T09:37:02.746Z</time></trkpt><trkpt lat="44.505405" lon="11.1967267"><ele>57.0</ele><time>2026-03-28T09:37:04.746Z</time></trkpt><trkpt lat="44.5054883" lon="11.1967633"><ele>57.0</ele><time>2026-03-28T09:37:06.747Z</time></trkpt><trkpt lat="44.5055683" lon="11.1968"><ele>57.0</ele><time>2026-03-28T09:37:08.747Z</time></trkpt><trkpt lat="44.5056517" lon="11.1968467"><ele>57.0</ele><time>2026-03-28T09:37:10.747Z</time></trkpt><trkpt lat="44.5057483" lon="11.1969"><ele>57.0</ele><time>2026-03-28T09:37:12.747Z</time></trkpt><trkpt lat="44.5058467" lon="11.1969433"><ele>57.0</ele><time>2026-03-28T09:37:14.747Z</time></trkpt><trkpt lat="44.5059567" lon="11.196995"><ele>57.0</ele><time>2026-03-28T09:37:16.747Z</time></trkpt><trkpt lat="44.50602" lon="11.1970233"><ele>57.0</ele><time>2026-03-28T09:37:17.747Z</time></trkpt><trkpt lat="44.5060817" lon="11.1970533"><ele>57.0</ele><time>2026-03-28T09:37:18.747Z</time></trkpt><trkpt lat="44.5062" lon="11.1971067"><ele>57.0</ele><time>2026-03-28T09:37:20.747Z</time></trkpt><trkpt lat="44.5062617" lon="11.19714"><ele>57.0</ele><time>2026-03-28T09:37:21.747Z</time></trkpt><trkpt lat="44.5063283" lon="11.197175"><ele>57.0</ele><time>2026-03-28T09:37:22.747Z</time></trkpt><trkpt lat="44.5063983" lon="11.1972067"><ele>57.0</ele><time>2026-03-28T09:37:23.747Z</time></trkpt><trkpt lat="44.5064767" lon="11.19724"><ele>57.0</ele><time>2026-03-28T09:37:24.746Z</time></trkpt><trkpt lat="44.50656" lon="11.1972717"><ele>57.0</ele><time>2026-03-28T09:37:25.747Z</time></trkpt><trkpt lat="44.5066483" lon="11.197295"><ele>57.0</ele><time>2026-03-28T09:37:26.747Z</time></trkpt><trkpt lat="44.506735" lon="11.1973167"><ele>57.0</ele><time>2026-03-28T09:37:27.746Z</time></trkpt><trkpt lat="44.506825" lon="11.1973317"><ele>57.0</ele><time>2026-03-28T09:37:28.747Z</time></trkpt><trkpt lat="44.5069167" lon="11.19734"><ele>57.0</ele><time>2026-03-28T09:37:29.747Z</time></trkpt><trkpt lat="44.507005" lon="11.1973433"><ele>57.0</ele><time>2026-03-28T09:37:30.747Z</time></trkpt><trkpt lat="44.5071" lon="11.19734"><ele>57.166666666666664</ele><time>2026-03-28T09:37:31.747Z</time></trkpt><trkpt lat="44.5071867" lon="11.1973333"><ele>57.33333333333333</ele><time>2026-03-28T09:37:32.747Z</time></trkpt><trkpt lat="44.5072717" lon="11.1973283"><ele>57.5</ele><time>2026-03-28T09:37:33.747Z</time></trkpt><trkpt lat="44.5073567" lon="11.197315"><ele>57.666666666666664</ele><time>2026-03-28T09:37:34.747Z</time></trkpt><trkpt lat="44.5074383" lon="11.1972983"><ele>57.83333333333333</ele><time>2026-03-28T09:37:35.746Z</time></trkpt><trkpt lat="44.507515" lon="11.1972867"><ele>58.0</ele><time>2026-03-28T09:37:36.747Z</time></trkpt><trkpt lat="44.5075833" lon="11.1972833"><ele>58.0</ele><time>2026-03-28T09:37:37.746Z</time></trkpt><trkpt lat="44.5076983" lon="11.1972833"><ele>58.0</ele><time>2026-03-28T09:37:39.747Z</time></trkpt><trkpt lat="44.5077633" lon="11.1972917"><ele>58.0</ele><time>2026-03-28T09:37:40.747Z</time></trkpt><trkpt lat="44.5078733" lon="11.1972967"><ele>58.0</ele><time>2026-03-28T09:37:42.747Z</time></trkpt><trkpt lat="44.50798" lon="11.1973033"><ele>58.0</ele><time>2026-03-28T09:37:44.747Z</time></trkpt><trkpt lat="44.5080883" lon="11.1973133"><ele>57.8</ele><time>2026-03-28T09:37:46.746Z</time></trkpt><trkpt lat="44.5081917" lon="11.1973467"><ele>57.599999999999994</ele><time>2026-03-28T09:37:48.746Z</time></trkpt><trkpt lat="44.5082917" lon="11.197395"><ele>57.400000000000006</ele><time>2026-03-28T09:37:50.747Z</time></trkpt><trkpt lat="44.5083833" lon="11.1974467"><ele>57.2</ele><time>2026-03-28T09:37:52.746Z</time></trkpt><trkpt lat="44.5084783" lon="11.1975083"><ele>57.0</ele><time>2026-03-28T09:37:54.747Z</time></trkpt><trkpt lat="44.50857" lon="11.197565"><ele>57.0</ele><time>2026-03-28T09:37:56.747Z</time></trkpt><trkpt lat="44.5086667" lon="11.19763"><ele>57.0</ele><time>2026-03-28T09:37:58.747Z</time></trkpt><trkpt lat="44.5087717" lon="11.1977117"><ele>57.0</ele><time>2026-03-28T09:38:00.747Z</time></trkpt><trkpt lat="44.5088317" lon="11.1977517"><ele>57.0</ele><time>2026-03-28T09:38:01.747Z</time></trkpt><trkpt lat="44.5088917" lon="11.1977833"><ele>57.0</ele><time>2026-03-28T09:38:02.747Z</time></trkpt><trkpt lat="44.5089567" lon="11.19781"><ele>57.0</ele><time>2026-03-28T09:38:03.747Z</time></trkpt><trkpt lat="44.50902" lon="11.1978417"><ele>57.166666666666664</ele><time>2026-03-28T09:38:04.747Z</time></trkpt><trkpt lat="44.5090917" lon="11.1978783"><ele>57.33333333333333</ele><time>2026-03-28T09:38:05.747Z</time></trkpt><trkpt lat="44.50916" lon="11.1979067"><ele>57.5</ele><time>2026-03-28T09:38:06.747Z</time></trkpt><trkpt lat="44.509235" lon="11.1979433"><ele>57.666666666666664</ele><time>2026-03-28T09:38:07.747Z</time></trkpt><trkpt lat="44.5093083" lon="11.19798"><ele>57.83333333333333</ele><time>2026-03-28T09:38:08.746Z</time></trkpt><trkpt lat="44.509385" lon="11.1980117"><ele>58.0</ele><time>2026-03-28T09:38:09.747Z</time></trkpt><trkpt lat="44.5094617" lon="11.1980383"><ele>57.99999999999999</ele><time>2026-03-28T09:38:10.748Z</time></trkpt><trkpt lat="44.50954" lon="11.1980733"><ele>58.0</ele><time>2026-03-28T09:38:11.748Z</time></trkpt><trkpt lat="44.5096217" lon="11.1981033"><ele>58.0</ele><time>2026-03-28T09:38:12.748Z</time></trkpt><trkpt lat="44.50971" lon="11.1981333"><ele>58.0</ele><time>2026-03-28T09:38:13.748Z</time></trkpt><trkpt lat="44.5098033" lon="11.1981683"><ele>57.99999999999999</ele><time>2026-03-28T09:38:14.748Z</time></trkpt><trkpt lat="44.5098933" lon="11.1982033"><ele>58.0</ele><time>2026-03-28T09:38:15.748Z</time></trkpt><trkpt lat="44.5099783" lon="11.1982417"><ele>57.33333333333333</ele><time>2026-03-28T09:38:16.747Z</time></trkpt><trkpt lat="44.5100617" lon="11.1982833"><ele>56.666666666666664</ele><time>2026-03-28T09:38:17.748Z</time></trkpt><trkpt lat="44.5101467" lon="11.1983217"><ele>56.0</ele><time>2026-03-28T09:38:18.748Z</time></trkpt><trkpt lat="44.5102383" lon="11.198355"><ele>55.33333333333333</ele><time>2026-03-28T09:38:19.748Z</time></trkpt><trkpt lat="44.5103233" lon="11.1983867"><ele>54.666666666666664</ele><time>2026-03-28T09:38:20.747Z</time></trkpt><trkpt lat="44.5104033" lon="11.198425"><ele>54.0</ele><time>2026-03-28T09:38:21.748Z</time></trkpt><trkpt lat="44.510485" lon="11.1984617"><ele>54.0</ele><time>2026-03-28T09:38:22.748Z</time></trkpt><trkpt lat="44.5105633" lon="11.198505"><ele>54.0</ele><time>2026-03-28T09:38:23.748Z</time></trkpt><trkpt lat="44.510645" lon="11.1985383"><ele>54.0</ele><time>2026-03-28T09:38:24.748Z</time></trkpt><trkpt lat="44.510725" lon="11.19857"><ele>54.0</ele><time>2026-03-28T09:38:25.747Z</time></trkpt><trkpt lat="44.5108033" lon="11.1986"><ele>54.0</ele><time>2026-03-28T09:38:26.748Z</time></trkpt><trkpt lat="44.5108833" lon="11.198635"><ele>54.0</ele><time>2026-03-28T09:38:27.747Z</time></trkpt><trkpt lat="44.5109617" lon="11.1986633"><ele>54.0</ele><time>2026-03-28T09:38:28.748Z</time></trkpt><trkpt lat="44.5110333" lon="11.19869"><ele>54.0</ele><time>2026-03-28T09:38:29.747Z</time></trkpt><trkpt lat="44.51111" lon="11.1987183"><ele>54.0</ele><time>2026-03-28T09:38:30.748Z</time></trkpt><trkpt lat="44.5111817" lon="11.1987517"><ele>54.0</ele><time>2026-03-28T09:38:31.748Z</time></trkpt><trkpt lat="44.5112533" lon="11.1987767"><ele>54.0</ele><time>2026-03-28T09:38:32.748Z</time></trkpt><trkpt lat="44.5113283" lon="11.19881"><ele>54.0</ele><time>2026-03-28T09:38:33.748Z</time></trkpt><trkpt lat="44.5113967" lon="11.1988467"><ele>54.14285714285714</ele><time>2026-03-28T09:38:34.748Z</time></trkpt><trkpt lat="44.511465" lon="11.198875"><ele>54.285714285714285</ele><time>2026-03-28T09:38:35.748Z</time></trkpt><trkpt lat="44.5115367" lon="11.1989067"><ele>54.42857142857143</ele><time>2026-03-28T09:38:36.748Z</time></trkpt><trkpt lat="44.5116083" lon="11.1989317"><ele>54.57142857142857</ele><time>2026-03-28T09:38:37.748Z</time></trkpt><trkpt lat="44.5116783" lon="11.1989567"><ele>54.714285714285715</ele><time>2026-03-28T09:38:38.747Z</time></trkpt><trkpt lat="44.51175" lon="11.1989867"><ele>54.857142857142854</ele><time>2026-03-28T09:38:39.748Z</time></trkpt><trkpt lat="44.5118283" lon="11.1990117"><ele>55.0</ele><time>2026-03-28T09:38:40.748Z</time></trkpt><trkpt lat="44.5118983" lon="11.199045"><ele>54.99999999999999</ele><time>2026-03-28T09:38:41.747Z</time></trkpt><trkpt lat="44.5119683" lon="11.19908"><ele>55.0</ele><time>2026-03-28T09:38:42.748Z</time></trkpt><trkpt lat="44.5120333" lon="11.1991167"><ele>55.0</ele><time>2026-03-28T09:38:43.747Z</time></trkpt><trkpt lat="44.5120983" lon="11.1991517"><ele>55.0</ele><time>2026-03-28T09:38:44.748Z</time></trkpt><trkpt lat="44.5121633" lon="11.1991967"><ele>55.0</ele><time>2026-03-28T09:38:45.747Z</time></trkpt><trkpt lat="44.5122333" lon="11.1992333"><ele>54.99999999999999</ele><time>2026-03-28T09:38:46.748Z</time></trkpt><trkpt lat="44.5123033" lon="11.1992767"><ele>55.0</ele><time>2026-03-28T09:38:47.748Z</time></trkpt><trkpt lat="44.512375" lon="11.1993167"><ele>54.99999999999999</ele><time>2026-03-28T09:38:48.748Z</time></trkpt><trkpt lat="44.5124483" lon="11.19935"><ele>55.0</ele><time>2026-03-28T09:38:49.748Z</time></trkpt><trkpt lat="44.5125167" lon="11.19939"><ele>55.0</ele><time>2026-03-28T09:38:50.748Z</time></trkpt><trkpt lat="44.51259" lon="11.199425"><ele>55.0</ele><time>2026-03-28T09:38:51.748Z</time></trkpt><trkpt lat="44.512665" lon="11.199455"><ele>54.99999999999999</ele><time>2026-03-28T09:38:52.748Z</time></trkpt><trkpt lat="44.5127317" lon="11.19949"><ele>55.0</ele><time>2026-03-28T09:38:53.748Z</time></trkpt><trkpt lat="44.512805" lon="11.199535"><ele>54.99999999999999</ele><time>2026-03-28T09:38:54.748Z</time></trkpt><trkpt lat="44.512875" lon="11.19956"><ele>55.0</ele><time>2026-03-28T09:38:55.748Z</time></trkpt><trkpt lat="44.5129467" lon="11.1995933"><ele>55.0</ele><time>2026-03-28T09:38:56.747Z</time></trkpt><trkpt lat="44.513015" lon="11.199625"><ele>55.0</ele><time>2026-03-28T09:38:57.748Z</time></trkpt><trkpt lat="44.513085" lon="11.1996583"><ele>55.0</ele><time>2026-03-28T09:38:58.748Z</time></trkpt><trkpt lat="44.5131533" lon="11.1996983"><ele>54.99999999999999</ele><time>2026-03-28T09:38:59.748Z</time></trkpt><trkpt lat="44.5132183" lon="11.199735"><ele>55.0</ele><time>2026-03-28T09:39:00.748Z</time></trkpt><trkpt lat="44.513285" lon="11.1997733"><ele>54.99999999999999</ele><time>2026-03-28T09:39:01.748Z</time></trkpt><trkpt lat="44.5133483" lon="11.199805"><ele>55.0</ele><time>2026-03-28T09:39:02.748Z</time></trkpt><trkpt lat="44.5134167" lon="11.1998483"><ele>55.0</ele><time>2026-03-28T09:39:03.747Z</time></trkpt><trkpt lat="44.5134817" lon="11.19989"><ele>55.0</ele><time>2026-03-28T09:39:04.748Z</time></trkpt><trkpt lat="44.513545" lon="11.1999283"><ele>55.0</ele><time>2026-03-28T09:39:05.747Z</time></trkpt><trkpt lat="44.51361" lon="11.1999667"><ele>54.99999999999999</ele><time>2026-03-28T09:39:06.748Z</time></trkpt><trkpt lat="44.5136783" lon="11.1999917"><ele>55.0</ele><time>2026-03-28T09:39:07.748Z</time></trkpt><trkpt lat="44.5137517" lon="11.20002"><ele>54.99999999999999</ele><time>2026-03-28T09:39:08.748Z</time></trkpt><trkpt lat="44.5138133" lon="11.200045"><ele>55.0</ele><time>2026-03-28T09:39:09.748Z</time></trkpt><trkpt lat="44.513875" lon="11.2000683"><ele>55.0</ele><time>2026-03-28T09:39:10.748Z</time></trkpt><trkpt lat="44.513945" lon="11.2000883"><ele>55.0</ele><time>2026-03-28T09:39:11.747Z</time></trkpt><trkpt lat="44.514015" lon="11.2001083"><ele>55.0</ele><time>2026-03-28T09:39:12.748Z</time></trkpt><trkpt lat="44.5140867" lon="11.200125"><ele>54.99999999999999</ele><time>2026-03-28T09:39:13.748Z</time></trkpt><trkpt lat="44.51415" lon="11.2001317"><ele>55.0</ele><time>2026-03-28T09:39:14.748Z</time></trkpt><trkpt lat="44.5142217" lon="11.2001383"><ele>54.99999999999999</ele><time>2026-03-28T09:39:15.748Z</time></trkpt><trkpt lat="44.5142933" lon="11.2001517"><ele>55.0</ele><time>2026-03-28T09:39:16.748Z</time></trkpt><trkpt lat="44.5143633" lon="11.2001633"><ele>55.0</ele><time>2026-03-28T09:39:17.748Z</time></trkpt><trkpt lat="44.514435" lon="11.20017"><ele>55.0</ele><time>2026-03-28T09:39:18.748Z</time></trkpt><trkpt lat="44.5145083" lon="11.2001833"><ele>55.0</ele><time>2026-03-28T09:39:19.748Z</time></trkpt><trkpt lat="44.5145833" lon="11.2002"><ele>54.99999999999999</ele><time>2026-03-28T09:39:20.748Z</time></trkpt><trkpt lat="44.5146483" lon="11.2002033"><ele>55.0</ele><time>2026-03-28T09:39:21.747Z</time></trkpt><trkpt lat="44.514715" lon="11.2002033"><ele>54.99999999999999</ele><time>2026-03-28T09:39:22.748Z</time></trkpt><trkpt lat="44.5147833" lon="11.200215"><ele>55.0</ele><time>2026-03-28T09:39:23.748Z</time></trkpt><trkpt lat="44.5148483" lon="11.2002267"><ele>55.0</ele><time>2026-03-28T09:39:24.748Z</time></trkpt><trkpt lat="44.514915" lon="11.200235"><ele>55.0</ele><time>2026-03-28T09:39:25.748Z</time></trkpt><trkpt lat="44.51499" lon="11.2002583"><ele>55.0</ele><time>2026-03-28T09:39:26.748Z</time></trkpt><trkpt lat="44.5150533" lon="11.2002667"><ele>54.99999999999999</ele><time>2026-03-28T09:39:27.748Z</time></trkpt><trkpt lat="44.5151233" lon="11.2002883"><ele>55.0</ele><time>2026-03-28T09:39:28.748Z</time></trkpt><trkpt lat="44.5151917" lon="11.2003067"><ele>54.99999999999999</ele><time>2026-03-28T09:39:29.748Z</time></trkpt><trkpt lat="44.51526" lon="11.2003283"><ele>55.0</ele><time>2026-03-28T09:39:30.748Z</time></trkpt><trkpt lat="44.5153367" lon="11.2003433"><ele>55.0</ele><time>2026-03-28T09:39:31.747Z</time></trkpt><trkpt lat="44.5154033" lon="11.20035"><ele>55.0</ele><time>2026-03-28T09:39:32.748Z</time></trkpt><trkpt lat="44.5154683" lon="11.20037"><ele>55.0</ele><time>2026-03-28T09:39:33.748Z</time></trkpt><trkpt lat="44.5155317" lon="11.200395"><ele>54.99999999999999</ele><time>2026-03-28T09:39:34.747Z</time></trkpt><trkpt lat="44.5156" lon="11.20042"><ele>55.0</ele><time>2026-03-28T09:39:35.747Z</time></trkpt><trkpt lat="44.5156667" lon="11.2004417"><ele>54.6</ele><time>2026-03-28T09:39:36.747Z</time></trkpt><trkpt lat="44.51574" lon="11.2004617"><ele>54.2</ele><time>2026-03-28T09:39:37.748Z</time></trkpt><trkpt lat="44.5158533" lon="11.2005033"><ele>53.8</ele><time>2026-03-28T09:39:39.748Z</time></trkpt><trkpt lat="44.5159683" lon="11.2005483"><ele>53.4</ele><time>2026-03-28T09:39:41.747Z</time></trkpt><trkpt lat="44.51607" lon="11.2005867"><ele>53.0</ele><time>2026-03-28T09:39:43.748Z</time></trkpt><trkpt lat="44.5161717" lon="11.2006117"><ele>53.0</ele><time>2026-03-28T09:39:45.748Z</time></trkpt><trkpt lat="44.5162833" lon="11.2006317"><ele>53.0</ele><time>2026-03-28T09:39:47.747Z</time></trkpt><trkpt lat="44.5163917" lon="11.2006533"><ele>53.0</ele><time>2026-03-28T09:39:49.748Z</time></trkpt><trkpt lat="44.5164983" lon="11.2006633"><ele>53.0</ele><time>2026-03-28T09:39:51.748Z</time></trkpt><trkpt lat="44.5165967" lon="11.2006767"><ele>53.0</ele><time>2026-03-28T09:39:53.747Z</time></trkpt><trkpt lat="44.5166933" lon="11.2007033"><ele>53.0</ele><time>2026-03-28T09:39:55.748Z</time></trkpt><trkpt lat="44.5167833" lon="11.2007633"><ele>53.0</ele><time>2026-03-28T09:39:57.747Z</time></trkpt><trkpt lat="44.5168183" lon="11.2008917"><ele>53.0</ele><time>2026-03-28T09:39:59.748Z</time></trkpt><trkpt lat="44.516835" lon="11.20105"><ele>53.0</ele><time>2026-03-28T09:40:01.748Z</time></trkpt><trkpt lat="44.5168533" lon="11.2011383"><ele>53.0</ele><time>2026-03-28T09:40:02.748Z</time></trkpt><trkpt lat="44.51687" lon="11.20132"><ele>53.00000000000001</ele><time>2026-03-28T09:40:04.747Z</time></trkpt><trkpt lat="44.516885" lon="11.2014133"><ele>53.0</ele><time>2026-03-28T09:40:05.748Z</time></trkpt><trkpt lat="44.516895" lon="11.2015183"><ele>53.0</ele><time>2026-03-28T09:40:06.748Z</time></trkpt><trkpt lat="44.5169117" lon="11.2016383"><ele>53.0</ele><time>2026-03-28T09:40:07.748Z</time></trkpt><trkpt lat="44.516925" lon="11.20175"><ele>53.00000000000001</ele><time>2026-03-28T09:40:08.748Z</time></trkpt><trkpt lat="44.5169333" lon="11.2018767"><ele>53.0</ele><time>2026-03-28T09:40:09.748Z</time></trkpt><trkpt lat="44.51694" lon="11.2020033"><ele>52.66666666666667</ele><time>2026-03-28T09:40:10.747Z</time></trkpt><trkpt lat="44.516935" lon="11.2021383"><ele>52.333333333333336</ele><time>2026-03-28T09:40:11.748Z</time></trkpt><trkpt lat="44.5169267" lon="11.2022583"><ele>52.0</ele><time>2026-03-28T09:40:12.747Z</time></trkpt><trkpt lat="44.516915" lon="11.2023817"><ele>51.66666666666667</ele><time>2026-03-28T09:40:13.748Z</time></trkpt><trkpt lat="44.5169017" lon="11.2024983"><ele>51.333333333333336</ele><time>2026-03-28T09:40:14.748Z</time></trkpt><trkpt lat="44.5168983" lon="11.2026117"><ele>51.0</ele><time>2026-03-28T09:40:15.748Z</time></trkpt><trkpt lat="44.5168817" lon="11.202725"><ele>51.0</ele><time>2026-03-28T09:40:16.748Z</time></trkpt><trkpt lat="44.5168617" lon="11.2028417"><ele>51.0</ele><time>2026-03-28T09:40:17.748Z</time></trkpt><trkpt lat="44.5168367" lon="11.2029483"><ele>51.0</ele><time>2026-03-28T09:40:18.748Z</time></trkpt><trkpt lat="44.5168167" lon="11.20305"><ele>51.0</ele><time>2026-03-28T09:40:19.748Z</time></trkpt><trkpt lat="44.5167867" lon="11.2031467"><ele>51.0</ele><time>2026-03-28T09:40:20.748Z</time></trkpt><trkpt lat="44.5167633" lon="11.2032433"><ele>51.0</ele><time>2026-03-28T09:40:21.748Z</time></trkpt><trkpt lat="44.5167367" lon="11.20334"><ele>51.0</ele><time>2026-03-28T09:40:22.748Z</time></trkpt><trkpt lat="44.5167167" lon="11.2034367"><ele>51.0</ele><time>2026-03-28T09:40:23.747Z</time></trkpt><trkpt lat="44.5166983" lon="11.2035433"><ele>51.0</ele><time>2026-03-28T09:40:24.748Z</time></trkpt><trkpt lat="44.516675" lon="11.2036433"><ele>51.0</ele><time>2026-03-28T09:40:25.748Z</time></trkpt><trkpt lat="44.5166483" lon="11.203735"><ele>51.0</ele><time>2026-03-28T09:40:26.747Z</time></trkpt><trkpt lat="44.5166283" lon="11.2038217"><ele>51.0</ele><time>2026-03-28T09:40:27.747Z</time></trkpt><trkpt lat="44.5165983" lon="11.2039917"><ele>51.0</ele><time>2026-03-28T09:40:29.748Z</time></trkpt><trkpt lat="44.5165567" lon="11.2041567"><ele>51.0</ele><time>2026-03-28T09:40:31.747Z</time></trkpt><trkpt lat="44.5165217" lon="11.2043133"><ele>51.0</ele><time>2026-03-28T09:40:33.748Z</time></trkpt><trkpt lat="44.5164733" lon="11.204465"><ele>51.0</ele><time>2026-03-28T09:40:35.747Z</time></trkpt><trkpt lat="44.516425" lon="11.20461"><ele>51.0</ele><time>2026-03-28T09:40:37.747Z</time></trkpt><trkpt lat="44.5164267" lon="11.2047517"><ele>51.0</ele><time>2026-03-28T09:40:39.748Z</time></trkpt><trkpt lat="44.51648" lon="11.2048633"><ele>51.0</ele><time>2026-03-28T09:40:41.748Z</time></trkpt><trkpt lat="44.516585" lon="11.20493"><ele>51.0</ele><time>2026-03-28T09:40:43.748Z</time></trkpt><trkpt lat="44.5167" lon="11.2049967"><ele>51.0</ele><time>2026-03-28T09:40:45.748Z</time></trkpt><trkpt lat="44.5168233" lon="11.2050583"><ele>51.0</ele><time>2026-03-28T09:40:47.747Z</time></trkpt><trkpt lat="44.516935" lon="11.20512"><ele>51.0</ele><time>2026-03-28T09:40:49.747Z</time></trkpt><trkpt lat="44.516995" lon="11.20515"><ele>51.0</ele><time>2026-03-28T09:40:50.747Z</time></trkpt><trkpt lat="44.5171033" lon="11.2052117"><ele>51.0</ele><time>2026-03-28T09:40:52.747Z</time></trkpt><trkpt lat="44.51717" lon="11.2052433"><ele>51.0</ele><time>2026-03-28T09:40:53.748Z</time></trkpt><trkpt lat="44.51728" lon="11.2052867"><ele>50.833333333333336</ele><time>2026-03-28T09:40:55.747Z</time></trkpt><trkpt lat="44.5173967" lon="11.2053433"><ele>50.66666666666667</ele><time>2026-03-28T09:40:57.748Z</time></trkpt><trkpt lat="44.517455" lon="11.2053767"><ele>50.5</ele><time>2026-03-28T09:40:58.747Z</time></trkpt><trkpt lat="44.5175083" lon="11.20543"><ele>50.333333333333336</ele><time>2026-03-28T09:40:59.748Z</time></trkpt><trkpt lat="44.51757" lon="11.2054917"><ele>50.16666666666667</ele><time>2026-03-28T09:41:00.747Z</time></trkpt><trkpt lat="44.5176183" lon="11.2055683"><ele>50.0</ele><time>2026-03-28T09:41:01.748Z</time></trkpt><trkpt lat="44.5176483" lon="11.2056483"><ele>49.85714285714286</ele><time>2026-03-28T09:41:02.748Z</time></trkpt><trkpt lat="44.51767" lon="11.205735"><ele>49.714285714285715</ele><time>2026-03-28T09:41:03.748Z</time></trkpt><trkpt lat="44.5176967" lon="11.205825"><ele>49.57142857142857</ele><time>2026-03-28T09:41:04.748Z</time></trkpt><trkpt lat="44.5177133" lon="11.2059183"><ele>49.42857142857143</ele><time>2026-03-28T09:41:05.747Z</time></trkpt><trkpt lat="44.5177283" lon="11.2060117"><ele>49.285714285714285</ele><time>2026-03-28T09:41:06.747Z</time></trkpt><trkpt lat="44.5177417" lon="11.2061033"><ele>49.142857142857146</ele><time>2026-03-28T09:41:07.747Z</time></trkpt><trkpt lat="44.517755" lon="11.206195"><ele>49.0</ele><time>2026-03-28T09:41:08.747Z</time></trkpt><trkpt lat="44.5177667" lon="11.2062833"><ele>49.0</ele><time>2026-03-28T09:41:09.748Z</time></trkpt><trkpt lat="44.5177767" lon="11.2063767"><ele>49.0</ele><time>2026-03-28T09:41:10.747Z</time></trkpt><trkpt lat="44.5177917" lon="11.206465"><ele>49.0</ele><time>2026-03-28T09:41:11.748Z</time></trkpt><trkpt lat="44.5178033" lon="11.2065567"><ele>49.0</ele><time>2026-03-28T09:41:12.748Z</time></trkpt><trkpt lat="44.5178183" lon="11.2066433"><ele>49.0</ele><time>2026-03-28T09:41:13.748Z</time></trkpt><trkpt lat="44.51783" lon="11.2067367"><ele>49.0</ele><time>2026-03-28T09:41:14.748Z</time></trkpt><trkpt lat="44.5178367" lon="11.2068283"><ele>49.0</ele><time>2026-03-28T09:41:15.748Z</time></trkpt><trkpt lat="44.5178483" lon="11.2069183"><ele>48.857142857142854</ele><time>2026-03-28T09:41:16.747Z</time></trkpt><trkpt lat="44.517865" lon="11.2070117"><ele>48.714285714285715</ele><time>2026-03-28T09:41:17.748Z</time></trkpt><trkpt lat="44.5178767" lon="11.2071067"><ele>48.57142857142857</ele><time>2026-03-28T09:41:18.748Z</time></trkpt><trkpt lat="44.5178883" lon="11.2071967"><ele>48.42857142857143</ele><time>2026-03-28T09:41:19.748Z</time></trkpt><trkpt lat="44.5179" lon="11.207285"><ele>48.285714285714285</ele><time>2026-03-28T09:41:20.747Z</time></trkpt><trkpt lat="44.5179117" lon="11.207375"><ele>48.14285714285714</ele><time>2026-03-28T09:41:21.748Z</time></trkpt><trkpt lat="44.5179233" lon="11.207465"><ele>48.0</ele><time>2026-03-28T09:41:22.747Z</time></trkpt><trkpt lat="44.517935" lon="11.2075617"><ele>47.857142857142854</ele><time>2026-03-28T09:41:23.748Z</time></trkpt><trkpt lat="44.5179483" lon="11.2076533"><ele>47.714285714285715</ele><time>2026-03-28T09:41:24.748Z</time></trkpt><trkpt lat="44.51796" lon="11.207745"><ele>47.57142857142857</ele><time>2026-03-28T09:41:25.748Z</time></trkpt><trkpt lat="44.517975" lon="11.2078383"><ele>47.42857142857143</ele><time>2026-03-28T09:41:26.747Z</time></trkpt><trkpt lat="44.51799" lon="11.207935"><ele>47.285714285714285</ele><time>2026-03-28T09:41:27.748Z</time></trkpt><trkpt lat="44.5180033" lon="11.2080233"><ele>47.14285714285714</ele><time>2026-03-28T09:41:28.747Z</time></trkpt><trkpt lat="44.5180167" lon="11.208115"><ele>47.0</ele><time>2026-03-28T09:41:29.748Z</time></trkpt><trkpt lat="44.51803" lon="11.2082067"><ele>47.400000000000006</ele><time>2026-03-28T09:41:30.748Z</time></trkpt><trkpt lat="44.5180433" lon="11.2083017"><ele>47.800000000000004</ele><time>2026-03-28T09:41:31.748Z</time></trkpt><trkpt lat="44.5180633" lon="11.2084667"><ele>48.2</ele><time>2026-03-28T09:41:33.747Z</time></trkpt><trkpt lat="44.5180817" lon="11.2086267"><ele>48.6</ele><time>2026-03-28T09:41:35.747Z</time></trkpt><trkpt lat="44.518095" lon="11.20878"><ele>49.0</ele><time>2026-03-28T09:41:37.748Z</time></trkpt><trkpt lat="44.5181067" lon="11.208945"><ele>48.83333333333333</ele><time>2026-03-28T09:41:39.748Z</time></trkpt><trkpt lat="44.51811" lon="11.2091167"><ele>48.666666666666664</ele><time>2026-03-28T09:41:41.748Z</time></trkpt><trkpt lat="44.51809" lon="11.20929"><ele>48.5</ele><time>2026-03-28T09:41:43.747Z</time></trkpt><trkpt lat="44.518065" lon="11.2093717"><ele>48.33333333333333</ele><time>2026-03-28T09:41:44.747Z</time></trkpt><trkpt lat="44.5180383" lon="11.2094533"><ele>48.166666666666664</ele><time>2026-03-28T09:41:45.748Z</time></trkpt><trkpt lat="44.518005" lon="11.2095367"><ele>48.0</ele><time>2026-03-28T09:41:46.748Z</time></trkpt><trkpt lat="44.51797" lon="11.2096117"><ele>48.0</ele><time>2026-03-28T09:41:47.748Z</time></trkpt><trkpt lat="44.5179317" lon="11.2096917"><ele>48.0</ele><time>2026-03-28T09:41:48.747Z</time></trkpt><trkpt lat="44.517895" lon="11.2097683"><ele>48.0</ele><time>2026-03-28T09:41:49.748Z</time></trkpt><trkpt lat="44.51786" lon="11.209845"><ele>48.0</ele><time>2026-03-28T09:41:50.748Z</time></trkpt><trkpt lat="44.5178267" lon="11.2099233"><ele>48.0</ele><time>2026-03-28T09:41:51.747Z</time></trkpt><trkpt lat="44.5177967" lon="11.2100017"><ele>48.0</ele><time>2026-03-28T09:41:52.748Z</time></trkpt><trkpt lat="44.5177367" lon="11.2101633"><ele>48.166666666666664</ele><time>2026-03-28T09:41:54.748Z</time></trkpt><trkpt lat="44.5177033" lon="11.2102383"><ele>48.33333333333333</ele><time>2026-03-28T09:41:55.748Z</time></trkpt><trkpt lat="44.5176733" lon="11.2103167"><ele>48.5</ele><time>2026-03-28T09:41:56.747Z</time></trkpt><trkpt lat="44.517615" lon="11.2104667"><ele>48.666666666666664</ele><time>2026-03-28T09:41:58.748Z</time></trkpt><trkpt lat="44.5175833" lon="11.2105483"><ele>48.83333333333333</ele><time>2026-03-28T09:41:59.748Z</time></trkpt><trkpt lat="44.5175533" lon="11.2106267"><ele>49.0</ele><time>2026-03-28T09:42:00.748Z</time></trkpt><trkpt lat="44.5175017" lon="11.210785"><ele>49.0</ele><time>2026-03-28T09:42:02.748Z</time></trkpt><trkpt lat="44.5174517" lon="11.2109483"><ele>49.0</ele><time>2026-03-28T09:42:04.748Z</time></trkpt><trkpt lat="44.5174" lon="11.2111117"><ele>49.0</ele><time>2026-03-28T09:42:06.748Z</time></trkpt><trkpt lat="44.5173667" lon="11.2111933"><ele>49.0</ele><time>2026-03-28T09:42:07.748Z</time></trkpt><trkpt lat="44.5173333" lon="11.211275"><ele>49.0</ele><time>2026-03-28T09:42:08.747Z</time></trkpt><trkpt lat="44.5172983" lon="11.21135"><ele>49.0</ele><time>2026-03-28T09:42:09.748Z</time></trkpt><trkpt lat="44.5172567" lon="11.2114233"><ele>49.0</ele><time>2026-03-28T09:42:10.748Z</time></trkpt><trkpt lat="44.51721" lon="11.211495"><ele>49.0</ele><time>2026-03-28T09:42:11.747Z</time></trkpt><trkpt lat="44.5171733" lon="11.211575"><ele>49.0</ele><time>2026-03-28T09:42:12.748Z</time></trkpt><trkpt lat="44.517145" lon="11.2116583"><ele>49.0</ele><time>2026-03-28T09:42:13.748Z</time></trkpt><trkpt lat="44.517125" lon="11.2117483"><ele>49.0</ele><time>2026-03-28T09:42:14.748Z</time></trkpt><trkpt lat="44.5171083" lon="11.21184"><ele>49.0</ele><time>2026-03-28T09:42:15.747Z</time></trkpt><trkpt lat="44.517095" lon="11.2119317"><ele>49.0</ele><time>2026-03-28T09:42:16.747Z</time></trkpt><trkpt lat="44.5170733" lon="11.2121083"><ele>49.0</ele><time>2026-03-28T09:42:18.748Z</time></trkpt><trkpt lat="44.5170383" lon="11.21228"><ele>49.0</ele><time>2026-03-28T09:42:20.748Z</time></trkpt><trkpt lat="44.5170167" lon="11.21237"><ele>49.0</ele><time>2026-03-28T09:42:21.747Z</time></trkpt><trkpt lat="44.5169933" lon="11.2124533"><ele>49.0</ele><time>2026-03-28T09:42:22.748Z</time></trkpt><trkpt lat="44.5169583" lon="11.2125383"><ele>48.800000000000004</ele><time>2026-03-28T09:42:23.748Z</time></trkpt><trkpt lat="44.5169267" lon="11.212615"><ele>48.6</ele><time>2026-03-28T09:42:24.747Z</time></trkpt><trkpt lat="44.5168783" lon="11.2127783"><ele>48.4</ele><time>2026-03-28T09:42:26.748Z</time></trkpt><trkpt lat="44.5168583" lon="11.2128717"><ele>48.2</ele><time>2026-03-28T09:42:27.748Z</time></trkpt><trkpt lat="44.5168233" lon="11.2130333"><ele>48.0</ele><time>2026-03-28T09:42:29.748Z</time></trkpt><trkpt lat="44.5167983" lon="11.2131967"><ele>48.333333333333336</ele><time>2026-03-28T09:42:31.747Z</time></trkpt><trkpt lat="44.5167933" lon="11.213285"><ele>48.66666666666667</ele><time>2026-03-28T09:42:32.747Z</time></trkpt><trkpt lat="44.5167867" lon="11.213375"><ele>49.0</ele><time>2026-03-28T09:42:33.748Z</time></trkpt><trkpt lat="44.5167833" lon="11.21355"><ele>49.333333333333336</ele><time>2026-03-28T09:42:35.748Z</time></trkpt><trkpt lat="44.5167783" lon="11.2136383"><ele>49.66666666666667</ele><time>2026-03-28T09:42:36.748Z</time></trkpt><trkpt lat="44.5167733" lon="11.2137267"><ele>50.0</ele><time>2026-03-28T09:42:37.748Z</time></trkpt><trkpt lat="44.51677" lon="11.2138967"><ele>50.2</ele><time>2026-03-28T09:42:39.748Z</time></trkpt><trkpt lat="44.516765" lon="11.21407"><ele>50.4</ele><time>2026-03-28T09:42:41.748Z</time></trkpt><trkpt lat="44.5167533" lon="11.214235"><ele>50.599999999999994</ele><time>2026-03-28T09:42:43.748Z</time></trkpt><trkpt lat="44.5167467" lon="11.214395"><ele>50.8</ele><time>2026-03-28T09:42:45.747Z</time></trkpt><trkpt lat="44.5167367" lon="11.2144833"><ele>51.0</ele><time>2026-03-28T09:42:46.748Z</time></trkpt><trkpt lat="44.51671" lon="11.2145633"><ele>51.0</ele><time>2026-03-28T09:42:47.747Z</time></trkpt><trkpt lat="44.516615" lon="11.2146417"><ele>51.0</ele><time>2026-03-28T09:42:49.748Z</time></trkpt><trkpt lat="44.5165467" lon="11.214635"><ele>51.0</ele><time>2026-03-28T09:42:50.748Z</time></trkpt><trkpt lat="44.51642" lon="11.2146283"><ele>51.0</ele><time>2026-03-28T09:42:52.748Z</time></trkpt><trkpt lat="44.5162967" lon="11.2146283"><ele>51.0</ele><time>2026-03-28T09:42:54.748Z</time></trkpt><trkpt lat="44.5161733" lon="11.2146333"><ele>51.0</ele><time>2026-03-28T09:42:56.748Z</time></trkpt><trkpt lat="44.5160583" lon="11.21464"><ele>51.0</ele><time>2026-03-28T09:42:58.748Z</time></trkpt><trkpt lat="44.51594" lon="11.2146467"><ele>51.0</ele><time>2026-03-28T09:43:00.748Z</time></trkpt><trkpt lat="44.5158233" lon="11.21468"><ele>51.0</ele><time>2026-03-28T09:43:02.748Z</time></trkpt><trkpt lat="44.5157033" lon="11.2147317"><ele>51.0</ele><time>2026-03-28T09:43:04.748Z</time></trkpt><trkpt lat="44.5156433" lon="11.214765"><ele>51.0</ele><time>2026-03-28T09:43:05.748Z</time></trkpt><trkpt lat="44.5155217" lon="11.2148217"><ele>51.0</ele><time>2026-03-28T09:43:07.747Z</time></trkpt><trkpt lat="44.5154033" lon="11.2148767"><ele>51.0</ele><time>2026-03-28T09:43:09.747Z</time></trkpt><trkpt lat="44.5153383" lon="11.2149067"><ele>51.0</ele><time>2026-03-28T09:43:10.748Z</time></trkpt><trkpt lat="44.515275" lon="11.21493"><ele>51.166666666666664</ele><time>2026-03-28T09:43:11.748Z</time></trkpt><trkpt lat="44.5152133" lon="11.214955"><ele>51.33333333333333</ele><time>2026-03-28T09:43:12.748Z</time></trkpt><trkpt lat="44.5151533" lon="11.2149833"><ele>51.5</ele><time>2026-03-28T09:43:13.748Z</time></trkpt><trkpt lat="44.5150917" lon="11.2150067"><ele>51.666666666666664</ele><time>2026-03-28T09:43:14.747Z</time></trkpt><trkpt lat="44.514975" lon="11.215065"><ele>51.83333333333333</ele><time>2026-03-28T09:43:16.748Z</time></trkpt><trkpt lat="44.5148617" lon="11.21512"><ele>52.0</ele><time>2026-03-28T09:43:18.748Z</time></trkpt><trkpt lat="44.514805" lon="11.215175"><ele>51.99999999999999</ele><time>2026-03-28T09:43:19.748Z</time></trkpt><trkpt lat="44.51475" lon="11.215225"><ele>52.0</ele><time>2026-03-28T09:43:20.748Z</time></trkpt><trkpt lat="44.5147083" lon="11.2152917"><ele>52.0</ele><time>2026-03-28T09:43:21.748Z</time></trkpt><trkpt lat="44.5146633" lon="11.215465"><ele>52.0</ele><time>2026-03-28T09:43:23.748Z</time></trkpt><trkpt lat="44.5146517" lon="11.2155617"><ele>51.99999999999999</ele><time>2026-03-28T09:43:24.748Z</time></trkpt><trkpt lat="44.5146467" lon="11.215655"><ele>52.0</ele><time>2026-03-28T09:43:25.748Z</time></trkpt><trkpt lat="44.5146483" lon="11.2157483"><ele>51.83333333333333</ele><time>2026-03-28T09:43:26.748Z</time></trkpt><trkpt lat="44.5146517" lon="11.2158383"><ele>51.666666666666664</ele><time>2026-03-28T09:43:27.748Z</time></trkpt><trkpt lat="44.5146583" lon="11.21593"><ele>51.5</ele><time>2026-03-28T09:43:28.747Z</time></trkpt><trkpt lat="44.5146633" lon="11.216025"><ele>51.33333333333333</ele><time>2026-03-28T09:43:29.748Z</time></trkpt><trkpt lat="44.51467" lon="11.2161133"><ele>51.166666666666664</ele><time>2026-03-28T09:43:30.747Z</time></trkpt><trkpt lat="44.5146633" lon="11.21629"><ele>51.0</ele><time>2026-03-28T09:43:32.748Z</time></trkpt><trkpt lat="44.5146683" lon="11.2164683"><ele>51.0</ele><time>2026-03-28T09:43:34.748Z</time></trkpt><trkpt lat="44.514665" lon="11.2165617"><ele>51.0</ele><time>2026-03-28T09:43:35.748Z</time></trkpt><trkpt lat="44.5146683" lon="11.2166517"><ele>51.0</ele><time>2026-03-28T09:43:36.748Z</time></trkpt><trkpt lat="44.514665" lon="11.216825"><ele>51.0</ele><time>2026-03-28T09:43:38.747Z</time></trkpt><trkpt lat="44.51467" lon="11.2169133"><ele>51.0</ele><time>2026-03-28T09:43:39.747Z</time></trkpt><trkpt lat="44.5146683" lon="11.2170017"><ele>51.0</ele><time>2026-03-28T09:43:40.748Z</time></trkpt><trkpt lat="44.5146717" lon="11.21709"><ele>51.0</ele><time>2026-03-28T09:43:41.747Z</time></trkpt><trkpt lat="44.5146733" lon="11.21718"><ele>51.0</ele><time>2026-03-28T09:43:42.748Z</time></trkpt><trkpt lat="44.5146767" lon="11.2172717"><ele>51.0</ele><time>2026-03-28T09:43:43.748Z</time></trkpt><trkpt lat="44.51468" lon="11.2173633"><ele>51.0</ele><time>2026-03-28T09:43:44.748Z</time></trkpt><trkpt lat="44.51468" lon="11.217455"><ele>51.0</ele><time>2026-03-28T09:43:45.747Z</time></trkpt><trkpt lat="44.5146783" lon="11.2175483"><ele>51.0</ele><time>2026-03-28T09:43:46.747Z</time></trkpt><trkpt lat="44.514675" lon="11.2176383"><ele>51.0</ele><time>2026-03-28T09:43:47.748Z</time></trkpt><trkpt lat="44.5146733" lon="11.2177267"><ele>51.0</ele><time>2026-03-28T09:43:48.748Z</time></trkpt><trkpt lat="44.5146833" lon="11.2178983"><ele>51.142857142857146</ele><time>2026-03-28T09:43:50.747Z</time></trkpt><trkpt lat="44.5146867" lon="11.2179883"><ele>51.28571428571429</ele><time>2026-03-28T09:43:51.748Z</time></trkpt><trkpt lat="44.5146833" lon="11.21808"><ele>51.42857142857143</ele><time>2026-03-28T09:43:52.747Z</time></trkpt><trkpt lat="44.5146867" lon="11.2181733"><ele>51.57142857142857</ele><time>2026-03-28T09:43:53.748Z</time></trkpt><trkpt lat="44.5146883" lon="11.218265"><ele>51.714285714285715</ele><time>2026-03-28T09:43:54.748Z</time></trkpt><trkpt lat="44.5146883" lon="11.2183567"><ele>51.857142857142854</ele><time>2026-03-28T09:43:55.748Z</time></trkpt><trkpt lat="44.5146867" lon="11.218445"><ele>52.0</ele><time>2026-03-28T09:43:56.748Z</time></trkpt><trkpt lat="44.51469" lon="11.218535"><ele>51.666666666666664</ele><time>2026-03-28T09:43:57.748Z</time></trkpt><trkpt lat="44.5146917" lon="11.2186267"><ele>51.33333333333333</ele><time>2026-03-28T09:43:58.748Z</time></trkpt><trkpt lat="44.5146917" lon="11.2187217"><ele>51.0</ele><time>2026-03-28T09:43:59.748Z</time></trkpt><trkpt lat="44.51469" lon="11.2188133"><ele>50.66666666666667</ele><time>2026-03-28T09:44:00.749Z</time></trkpt><trkpt lat="44.51469" lon="11.2189083"><ele>50.333333333333336</ele><time>2026-03-28T09:44:01.748Z</time></trkpt><trkpt lat="44.5146933" lon="11.2190933"><ele>50.0</ele><time>2026-03-28T09:44:03.749Z</time></trkpt><trkpt lat="44.514695" lon="11.2191917"><ele>50.142857142857146</ele><time>2026-03-28T09:44:04.749Z</time></trkpt><trkpt lat="44.5147" lon="11.2192867"><ele>50.285714285714285</ele><time>2026-03-28T09:44:05.749Z</time></trkpt><trkpt lat="44.5147067" lon="11.2193867"><ele>50.42857142857143</ele><time>2026-03-28T09:44:06.749Z</time></trkpt><trkpt lat="44.5147117" lon="11.2194833"><ele>50.57142857142857</ele><time>2026-03-28T09:44:07.748Z</time></trkpt><trkpt lat="44.51471" lon="11.2195783"><ele>50.714285714285715</ele><time>2026-03-28T09:44:08.749Z</time></trkpt><trkpt lat="44.51471" lon="11.219675"><ele>50.85714285714286</ele><time>2026-03-28T09:44:09.749Z</time></trkpt><trkpt lat="44.5147117" lon="11.2197683"><ele>51.0</ele><time>2026-03-28T09:44:10.749Z</time></trkpt><trkpt lat="44.5147117" lon="11.2198683"><ele>51.0</ele><time>2026-03-28T09:44:11.749Z</time></trkpt><trkpt lat="44.514715" lon="11.2199617"><ele>51.0</ele><time>2026-03-28T09:44:12.749Z</time></trkpt><trkpt lat="44.5147167" lon="11.220055"><ele>51.0</ele><time>2026-03-28T09:44:13.749Z</time></trkpt><trkpt lat="44.5147183" lon="11.2201533"><ele>51.0</ele><time>2026-03-28T09:44:14.748Z</time></trkpt><trkpt lat="44.51472" lon="11.220245"><ele>51.0</ele><time>2026-03-28T09:44:15.748Z</time></trkpt><trkpt lat="44.51472" lon="11.2203417"><ele>51.0</ele><time>2026-03-28T09:44:16.749Z</time></trkpt><trkpt lat="44.5147233" lon="11.220435"><ele>51.0</ele><time>2026-03-28T09:44:17.749Z</time></trkpt><trkpt lat="44.5147233" lon="11.2205267"><ele>51.0</ele><time>2026-03-28T09:44:18.748Z</time></trkpt><trkpt lat="44.5147217" lon="11.2206167"><ele>51.0</ele><time>2026-03-28T09:44:19.748Z</time></trkpt><trkpt lat="44.5147233" lon="11.2207817"><ele>51.0</ele><time>2026-03-28T09:44:21.749Z</time></trkpt><trkpt lat="44.5147317" lon="11.220955"><ele>51.0</ele><time>2026-03-28T09:44:23.749Z</time></trkpt><trkpt lat="44.5147333" lon="11.2210483"><ele>51.0</ele><time>2026-03-28T09:44:24.749Z</time></trkpt><trkpt lat="44.5147333" lon="11.2211433"><ele>51.0</ele><time>2026-03-28T09:44:25.749Z</time></trkpt><trkpt lat="44.514735" lon="11.2212367"><ele>50.666666666666664</ele><time>2026-03-28T09:44:26.749Z</time></trkpt><trkpt lat="44.5147333" lon="11.2213267"><ele>50.33333333333333</ele><time>2026-03-28T09:44:27.749Z</time></trkpt><trkpt lat="44.5147367" lon="11.22142"><ele>50.0</ele><time>2026-03-28T09:44:28.749Z</time></trkpt><trkpt lat="44.51474" lon="11.2215083"><ele>49.666666666666664</ele><time>2026-03-28T09:44:29.749Z</time></trkpt><trkpt lat="44.5147433" lon="11.221675"><ele>49.33333333333333</ele><time>2026-03-28T09:44:31.749Z</time></trkpt><trkpt lat="44.5147433" lon="11.2218233"><ele>49.0</ele><time>2026-03-28T09:44:33.749Z</time></trkpt><trkpt lat="44.51474" lon="11.2219683"><ele>48.99999999999999</ele><time>2026-03-28T09:44:35.749Z</time></trkpt><trkpt lat="44.51473" lon="11.2220733"><ele>49.0</ele><time>2026-03-28T09:44:37.749Z</time></trkpt><trkpt lat="44.514735" lon="11.2222033"><ele>49.0</ele><time>2026-03-28T09:44:43.749Z</time></trkpt><trkpt lat="44.514745" lon="11.2222917"><ele>49.0</ele><time>2026-03-28T09:44:45.749Z</time></trkpt><trkpt lat="44.514745" lon="11.222405"><ele>48.99999999999999</ele><time>2026-03-28T09:44:47.749Z</time></trkpt><trkpt lat="44.514745" lon="11.22255"><ele>49.0</ele><time>2026-03-28T09:44:49.749Z</time></trkpt><trkpt lat="44.51475" lon="11.2226967"><ele>49.0</ele><time>2026-03-28T09:44:51.749Z</time></trkpt><trkpt lat="44.5147483" lon="11.222855"><ele>49.0</ele><time>2026-03-28T09:44:53.749Z</time></trkpt><trkpt lat="44.514755" lon="11.222945"><ele>49.0</ele><time>2026-03-28T09:44:54.749Z</time></trkpt><trkpt lat="44.51476" lon="11.2230383"><ele>49.0</ele><time>2026-03-28T09:44:55.748Z</time></trkpt><trkpt lat="44.514765" lon="11.2232017"><ele>49.0</ele><time>2026-03-28T09:44:57.749Z</time></trkpt><trkpt lat="44.514775" lon="11.223375"><ele>49.0</ele><time>2026-03-28T09:44:59.749Z</time></trkpt><trkpt lat="44.5147817" lon="11.223465"><ele>49.0</ele><time>2026-03-28T09:45:00.748Z</time></trkpt><trkpt lat="44.5147817" lon="11.22356"><ele>49.0</ele><time>2026-03-28T09:45:01.748Z</time></trkpt><trkpt lat="44.5147833" lon="11.2236517"><ele>49.0</ele><time>2026-03-28T09:45:02.748Z</time></trkpt><trkpt lat="44.51479" lon="11.2238233"><ele>49.0</ele><time>2026-03-28T09:45:04.749Z</time></trkpt><trkpt lat="44.5147933" lon="11.2239117"><ele>49.0</ele><time>2026-03-28T09:45:05.749Z</time></trkpt><trkpt lat="44.5147933" lon="11.2240017"><ele>49.0</ele><time>2026-03-28T09:45:06.748Z</time></trkpt><trkpt lat="44.5148" lon="11.2240917"><ele>49.42857142857143</ele><time>2026-03-28T09:45:07.749Z</time></trkpt><trkpt lat="44.5147983" lon="11.2241833"><ele>49.85714285714286</ele><time>2026-03-28T09:45:08.749Z</time></trkpt><trkpt lat="44.5148017" lon="11.2242817"><ele>50.285714285714285</ele><time>2026-03-28T09:45:09.749Z</time></trkpt><trkpt lat="44.514805" lon="11.2243767"><ele>50.714285714285715</ele><time>2026-03-28T09:45:10.749Z</time></trkpt><trkpt lat="44.514805" lon="11.2244667"><ele>51.142857142857146</ele><time>2026-03-28T09:45:11.748Z</time></trkpt><trkpt lat="44.514805" lon="11.2245567"><ele>51.57142857142857</ele><time>2026-03-28T09:45:12.748Z</time></trkpt><trkpt lat="44.5148133" lon="11.2246517"><ele>52.0</ele><time>2026-03-28T09:45:13.749Z</time></trkpt><trkpt lat="44.514815" lon="11.2248283"><ele>52.0</ele><time>2026-03-28T09:45:15.748Z</time></trkpt><trkpt lat="44.514815" lon="11.224925"><ele>52.0</ele><time>2026-03-28T09:45:16.749Z</time></trkpt><trkpt lat="44.5148167" lon="11.2250183"><ele>52.0</ele><time>2026-03-28T09:45:17.749Z</time></trkpt><trkpt lat="44.5148117" lon="11.2251083"><ele>52.0</ele><time>2026-03-28T09:45:18.749Z</time></trkpt><trkpt lat="44.5148033" lon="11.2252033"><ele>52.0</ele><time>2026-03-28T09:45:19.749Z</time></trkpt><trkpt lat="44.5147917" lon="11.2252917"><ele>52.0</ele><time>2026-03-28T09:45:20.749Z</time></trkpt><trkpt lat="44.5147783" lon="11.2253833"><ele>52.0</ele><time>2026-03-28T09:45:21.748Z</time></trkpt><trkpt lat="44.51474" lon="11.2255533"><ele>52.0</ele><time>2026-03-28T09:45:23.749Z</time></trkpt><trkpt lat="44.5147133" lon="11.2256333"><ele>52.0</ele><time>2026-03-28T09:45:24.749Z</time></trkpt><trkpt lat="44.5146917" lon="11.2257167"><ele>52.0</ele><time>2026-03-28T09:45:25.749Z</time></trkpt><trkpt lat="44.514665" lon="11.225805"><ele>52.0</ele><time>2026-03-28T09:45:26.749Z</time></trkpt><trkpt lat="44.51464" lon="11.2258867"><ele>52.0</ele><time>2026-03-28T09:45:27.749Z</time></trkpt><trkpt lat="44.5146017" lon="11.2260483"><ele>52.0</ele><time>2026-03-28T09:45:29.748Z</time></trkpt><trkpt lat="44.5145783" lon="11.2261317"><ele>52.0</ele><time>2026-03-28T09:45:30.748Z</time></trkpt><trkpt lat="44.514565" lon="11.2262217"><ele>52.166666666666664</ele><time>2026-03-28T09:45:31.749Z</time></trkpt><trkpt lat="44.5145533" lon="11.226315"><ele>52.33333333333333</ele><time>2026-03-28T09:45:32.749Z</time></trkpt><trkpt lat="44.5145417" lon="11.2264067"><ele>52.5</ele><time>2026-03-28T09:45:33.749Z</time></trkpt><trkpt lat="44.5145433" lon="11.2264967"><ele>52.66666666666667</ele><time>2026-03-28T09:45:34.749Z</time></trkpt><trkpt lat="44.5145433" lon="11.22659"><ele>52.833333333333336</ele><time>2026-03-28T09:45:35.749Z</time></trkpt><trkpt lat="44.5145467" lon="11.2267633"><ele>53.0</ele><time>2026-03-28T09:45:37.748Z</time></trkpt><trkpt lat="44.5145383" lon="11.226925"><ele>53.00000000000001</ele><time>2026-03-28T09:45:39.748Z</time></trkpt><trkpt lat="44.5145317" lon="11.227015"><ele>53.0</ele><time>2026-03-28T09:45:40.748Z</time></trkpt><trkpt lat="44.5145167" lon="11.2271083"><ele>53.0</ele><time>2026-03-28T09:45:41.749Z</time></trkpt><trkpt lat="44.5144933" lon="11.2272783"><ele>53.0</ele><time>2026-03-28T09:45:43.749Z</time></trkpt><trkpt lat="44.51448" lon="11.2273667"><ele>53.00000000000001</ele><time>2026-03-28T09:45:44.749Z</time></trkpt><trkpt lat="44.5144517" lon="11.2274533"><ele>53.0</ele><time>2026-03-28T09:45:45.749Z</time></trkpt><trkpt lat="44.5144217" lon="11.2275417"><ele>52.599999999999994</ele><time>2026-03-28T09:45:46.749Z</time></trkpt><trkpt lat="44.5144017" lon="11.2276267"><ele>52.199999999999996</ele><time>2026-03-28T09:45:47.748Z</time></trkpt><trkpt lat="44.5143467" lon="11.2277833"><ele>51.8</ele><time>2026-03-28T09:45:49.748Z</time></trkpt><trkpt lat="44.5142883" lon="11.22792"><ele>51.4</ele><time>2026-03-28T09:45:51.749Z</time></trkpt><trkpt lat="44.51423" lon="11.2280517"><ele>51.0</ele><time>2026-03-28T09:45:53.749Z</time></trkpt><trkpt lat="44.5141833" lon="11.228185"><ele>50.5</ele><time>2026-03-28T09:45:55.749Z</time></trkpt><trkpt lat="44.5141233" lon="11.2283233"><ele>50.0</ele><time>2026-03-28T09:45:57.749Z</time></trkpt><trkpt lat="44.5140667" lon="11.228465"><ele>49.5</ele><time>2026-03-28T09:45:59.748Z</time></trkpt><trkpt lat="44.5140217" lon="11.2286183"><ele>49.0</ele><time>2026-03-28T09:46:01.749Z</time></trkpt><trkpt lat="44.5139733" lon="11.2287733"><ele>49.0</ele><time>2026-03-28T09:46:03.748Z</time></trkpt><trkpt lat="44.51392" lon="11.2289233"><ele>49.0</ele><time>2026-03-28T09:46:05.749Z</time></trkpt><trkpt lat="44.513865" lon="11.2290783"><ele>49.0</ele><time>2026-03-28T09:46:07.749Z</time></trkpt><trkpt lat="44.5138033" lon="11.229225"><ele>49.0</ele><time>2026-03-28T09:46:09.749Z</time></trkpt><trkpt lat="44.513745" lon="11.2293833"><ele>49.6</ele><time>2026-03-28T09:46:11.749Z</time></trkpt><trkpt lat="44.51371" lon="11.2294567"><ele>50.2</ele><time>2026-03-28T09:46:12.748Z</time></trkpt><trkpt lat="44.5136733" lon="11.2295333"><ele>50.800000000000004</ele><time>2026-03-28T09:46:13.749Z</time></trkpt><trkpt lat="44.5136283" lon="11.2297017"><ele>51.400000000000006</ele><time>2026-03-28T09:46:15.749Z</time></trkpt><trkpt lat="44.513575" lon="11.229855"><ele>52.0</ele><time>2026-03-28T09:46:17.748Z</time></trkpt><trkpt lat="44.5135283" lon="11.2300017"><ele>52.0</ele><time>2026-03-28T09:46:19.749Z</time></trkpt><trkpt lat="44.5134883" lon="11.2301533"><ele>52.0</ele><time>2026-03-28T09:46:21.749Z</time></trkpt><trkpt lat="44.5134667" lon="11.2302383"><ele>52.0</ele><time>2026-03-28T09:46:22.749Z</time></trkpt><trkpt lat="44.5134367" lon="11.2303167"><ele>52.0</ele><time>2026-03-28T09:46:23.749Z</time></trkpt><trkpt lat="44.5134117" lon="11.2304017"><ele>52.0</ele><time>2026-03-28T09:46:24.749Z</time></trkpt><trkpt lat="44.513385" lon="11.2304817"><ele>52.0</ele><time>2026-03-28T09:46:25.748Z</time></trkpt><trkpt lat="44.513355" lon="11.2305683"><ele>52.0</ele><time>2026-03-28T09:46:26.749Z</time></trkpt><trkpt lat="44.5133267" lon="11.2306567"><ele>52.166666666666664</ele><time>2026-03-28T09:46:27.749Z</time></trkpt><trkpt lat="44.5133033" lon="11.2307433"><ele>52.33333333333333</ele><time>2026-03-28T09:46:28.749Z</time></trkpt><trkpt lat="44.513275" lon="11.230825"><ele>52.5</ele><time>2026-03-28T09:46:29.748Z</time></trkpt><trkpt lat="44.5132483" lon="11.2309067"><ele>52.66666666666667</ele><time>2026-03-28T09:46:30.749Z</time></trkpt><trkpt lat="44.5132017" lon="11.23107"><ele>52.833333333333336</ele><time>2026-03-28T09:46:32.749Z</time></trkpt><trkpt lat="44.5131917" lon="11.23125"><ele>53.0</ele><time>2026-03-28T09:46:34.749Z</time></trkpt><trkpt lat="44.51316" lon="11.231425"><ele>52.66666666666667</ele><time>2026-03-28T09:46:36.749Z</time></trkpt><trkpt lat="44.5131533" lon="11.2315183"><ele>52.333333333333336</ele><time>2026-03-28T09:46:37.749Z</time></trkpt><trkpt lat="44.513145" lon="11.2316117"><ele>52.0</ele><time>2026-03-28T09:46:38.749Z</time></trkpt><trkpt lat="44.5131333" lon="11.231785"><ele>51.66666666666667</ele><time>2026-03-28T09:46:40.749Z</time></trkpt><trkpt lat="44.5131133" lon="11.2319567"><ele>51.333333333333336</ele><time>2026-03-28T09:46:42.749Z</time></trkpt><trkpt lat="44.5131067" lon="11.2320483"><ele>51.0</ele><time>2026-03-28T09:46:43.748Z</time></trkpt><trkpt lat="44.5131067" lon="11.2321417"><ele>51.0</ele><time>2026-03-28T09:46:44.749Z</time></trkpt><trkpt lat="44.513105" lon="11.2322367"><ele>51.0</ele><time>2026-03-28T09:46:45.749Z</time></trkpt><trkpt lat="44.5131017" lon="11.232415"><ele>51.0</ele><time>2026-03-28T09:46:47.749Z</time></trkpt><trkpt lat="44.5130967" lon="11.2325067"><ele>51.0</ele><time>2026-03-28T09:46:48.749Z</time></trkpt><trkpt lat="44.51309" lon="11.2326017"><ele>51.0</ele><time>2026-03-28T09:46:49.749Z</time></trkpt><trkpt lat="44.5130767" lon="11.2326883"><ele>51.0</ele><time>2026-03-28T09:46:50.749Z</time></trkpt><trkpt lat="44.5130667" lon="11.2327767"><ele>51.0</ele><time>2026-03-28T09:46:51.749Z</time></trkpt><trkpt lat="44.5130533" lon="11.2328667"><ele>51.0</ele><time>2026-03-28T09:46:52.748Z</time></trkpt><trkpt lat="44.51304" lon="11.2329533"><ele>51.0</ele><time>2026-03-28T09:46:53.749Z</time></trkpt><trkpt lat="44.5130217" lon="11.23304"><ele>51.0</ele><time>2026-03-28T09:46:54.749Z</time></trkpt><trkpt lat="44.5130133" lon="11.2331333"><ele>51.0</ele><time>2026-03-28T09:46:55.749Z</time></trkpt><trkpt lat="44.5129817" lon="11.2333033"><ele>51.0</ele><time>2026-03-28T09:46:57.748Z</time></trkpt><trkpt lat="44.51297" lon="11.2333933"><ele>51.166666666666664</ele><time>2026-03-28T09:46:58.749Z</time></trkpt><trkpt lat="44.5129433" lon="11.23356"><ele>51.33333333333333</ele><time>2026-03-28T09:47:00.749Z</time></trkpt><trkpt lat="44.5129333" lon="11.2336517"><ele>51.5</ele><time>2026-03-28T09:47:01.749Z</time></trkpt><trkpt lat="44.5129233" lon="11.23374"><ele>51.666666666666664</ele><time>2026-03-28T09:47:02.748Z</time></trkpt><trkpt lat="44.51292" lon="11.2338283"><ele>51.83333333333333</ele><time>2026-03-28T09:47:03.749Z</time></trkpt><trkpt lat="44.5129117" lon="11.2339167"><ele>52.0</ele><time>2026-03-28T09:47:04.749Z</time></trkpt><trkpt lat="44.5128933" lon="11.2340833"><ele>52.400000000000006</ele><time>2026-03-28T09:47:06.749Z</time></trkpt><trkpt lat="44.512885" lon="11.2342467"><ele>52.800000000000004</ele><time>2026-03-28T09:47:08.749Z</time></trkpt><trkpt lat="44.5128817" lon="11.234405"><ele>53.2</ele><time>2026-03-28T09:47:10.748Z</time></trkpt><trkpt lat="44.512875" lon="11.2345433"><ele>53.6</ele><time>2026-03-28T09:47:12.749Z</time></trkpt><trkpt lat="44.51287" lon="11.2346917"><ele>54.0</ele><time>2026-03-28T09:47:14.749Z</time></trkpt><trkpt lat="44.5128533" lon="11.2348267"><ele>54.2</ele><time>2026-03-28T09:47:16.748Z</time></trkpt><trkpt lat="44.51281" lon="11.2349783"><ele>54.400000000000006</ele><time>2026-03-28T09:47:18.749Z</time></trkpt><trkpt lat="44.5127583" lon="11.2350967"><ele>54.6</ele><time>2026-03-28T09:47:20.749Z</time></trkpt><trkpt lat="44.5127167" lon="11.2352017"><ele>54.8</ele><time>2026-03-28T09:47:22.749Z</time></trkpt><trkpt lat="44.5127183" lon="11.23531"><ele>55.0</ele><time>2026-03-28T09:47:24.749Z</time></trkpt><trkpt lat="44.51279" lon="11.2353883"><ele>54.99999999999999</ele><time>2026-03-28T09:47:26.749Z</time></trkpt><trkpt lat="44.5129017" lon="11.2354467"><ele>55.0</ele><time>2026-03-28T09:47:28.749Z</time></trkpt><trkpt lat="44.51302" lon="11.2355183"><ele>55.0</ele><time>2026-03-28T09:47:30.749Z</time></trkpt><trkpt lat="44.5130783" lon="11.2355633"><ele>55.0</ele><time>2026-03-28T09:47:31.749Z</time></trkpt><trkpt lat="44.5131383" lon="11.23561"><ele>54.99999999999999</ele><time>2026-03-28T09:47:32.749Z</time></trkpt><trkpt lat="44.5131967" lon="11.2356467"><ele>55.0</ele><time>2026-03-28T09:47:33.749Z</time></trkpt><trkpt lat="44.51326" lon="11.2356767"><ele>54.6</ele><time>2026-03-28T09:47:34.749Z</time></trkpt><trkpt lat="44.5133167" lon="11.2357183"><ele>54.2</ele><time>2026-03-28T09:47:35.749Z</time></trkpt><trkpt lat="44.513375" lon="11.2357567"><ele>53.8</ele><time>2026-03-28T09:47:36.748Z</time></trkpt><trkpt lat="44.513435" lon="11.235795"><ele>53.4</ele><time>2026-03-28T09:47:37.749Z</time></trkpt><trkpt lat="44.5135517" lon="11.235865"><ele>53.0</ele><time>2026-03-28T09:47:39.749Z</time></trkpt><trkpt lat="44.5136733" lon="11.235935"><ele>53.00000000000001</ele><time>2026-03-28T09:47:41.749Z</time></trkpt><trkpt lat="44.5137317" lon="11.23597"><ele>53.0</ele><time>2026-03-28T09:47:42.749Z</time></trkpt><trkpt lat="44.51379" lon="11.2360083"><ele>53.0</ele><time>2026-03-28T09:47:43.748Z</time></trkpt><trkpt lat="44.5139133" lon="11.2360817"><ele>53.0</ele><time>2026-03-28T09:47:45.748Z</time></trkpt><trkpt lat="44.5140183" lon="11.23615"><ele>53.00000000000001</ele><time>2026-03-28T09:47:47.748Z</time></trkpt><trkpt lat="44.5140767" lon="11.2361883"><ele>53.0</ele><time>2026-03-28T09:47:48.749Z</time></trkpt><trkpt lat="44.51418" lon="11.2362583"><ele>52.75</ele><time>2026-03-28T09:47:50.749Z</time></trkpt><trkpt lat="44.514285" lon="11.2363233"><ele>52.5</ele><time>2026-03-28T09:47:52.749Z</time></trkpt><trkpt lat="44.5143983" lon="11.2363767"><ele>52.25</ele><time>2026-03-28T09:47:54.749Z</time></trkpt><trkpt lat="44.5145033" lon="11.2364367"><ele>52.0</ele><time>2026-03-28T09:47:56.749Z</time></trkpt><trkpt lat="44.514615" lon="11.2365183"><ele>52.0</ele><time>2026-03-28T09:47:58.749Z</time></trkpt><trkpt lat="44.5147233" lon="11.2365983"><ele>52.0</ele><time>2026-03-28T09:48:00.748Z</time></trkpt><trkpt lat="44.5148417" lon="11.23668"><ele>52.0</ele><time>2026-03-28T09:48:02.749Z</time></trkpt><trkpt lat="44.51495" lon="11.2367467"><ele>52.0</ele><time>2026-03-28T09:48:04.749Z</time></trkpt><trkpt lat="44.5150367" lon="11.2368017"><ele>51.99999999999999</ele><time>2026-03-28T09:48:06.749Z</time></trkpt><trkpt lat="44.5150967" lon="11.23687"><ele>52.0</ele><time>2026-03-28T09:48:09.749Z</time></trkpt><trkpt lat="44.5151483" lon="11.2369467"><ele>52.0</ele><time>2026-03-28T09:48:11.749Z</time></trkpt><trkpt lat="44.5152" lon="11.2370433"><ele>52.0</ele><time>2026-03-28T09:48:13.749Z</time></trkpt><trkpt lat="44.5152683" lon="11.2371633"><ele>51.99999999999999</ele><time>2026-03-28T09:48:15.749Z</time></trkpt><trkpt lat="44.5153317" lon="11.2372733"><ele>52.0</ele><time>2026-03-28T09:48:17.748Z</time></trkpt><trkpt lat="44.5154283" lon="11.2373533"><ele>51.8</ele><time>2026-03-28T09:48:19.749Z</time></trkpt><trkpt lat="44.515545" lon="11.2374"><ele>51.6</ele><time>2026-03-28T09:48:21.749Z</time></trkpt><trkpt lat="44.515655" lon="11.2374517"><ele>51.4</ele><time>2026-03-28T09:48:23.748Z</time></trkpt><trkpt lat="44.5157717" lon="11.2375067"><ele>51.199999999999996</ele><time>2026-03-28T09:48:25.748Z</time></trkpt><trkpt lat="44.5158367" lon="11.2375317"><ele>51.0</ele><time>2026-03-28T09:48:26.749Z</time></trkpt><trkpt lat="44.5158983" lon="11.23755"><ele>51.0</ele><time>2026-03-28T09:48:27.749Z</time></trkpt><trkpt lat="44.51596" lon="11.23757"><ele>51.0</ele><time>2026-03-28T09:48:28.749Z</time></trkpt><trkpt lat="44.516085" lon="11.2376133"><ele>51.0</ele><time>2026-03-28T09:48:30.749Z</time></trkpt><trkpt lat="44.5161483" lon="11.2376417"><ele>51.0</ele><time>2026-03-28T09:48:31.749Z</time></trkpt><trkpt lat="44.5162667" lon="11.2376967"><ele>51.0</ele><time>2026-03-28T09:48:33.748Z</time></trkpt><trkpt lat="44.5163333" lon="11.2377217"><ele>50.714285714285715</ele><time>2026-03-28T09:48:34.748Z</time></trkpt><trkpt lat="44.5163967" lon="11.2377417"><ele>50.42857142857143</ele><time>2026-03-28T09:48:35.749Z</time></trkpt><trkpt lat="44.51646" lon="11.237765"><ele>50.14285714285714</ele><time>2026-03-28T09:48:36.749Z</time></trkpt><trkpt lat="44.5165283" lon="11.2377867"><ele>49.85714285714286</ele><time>2026-03-28T09:48:37.749Z</time></trkpt><trkpt lat="44.51659" lon="11.23781"><ele>49.57142857142857</ele><time>2026-03-28T09:48:38.749Z</time></trkpt><trkpt lat="44.516655" lon="11.237835"><ele>49.285714285714285</ele><time>2026-03-28T09:48:39.749Z</time></trkpt><trkpt lat="44.5167167" lon="11.2378567"><ele>49.0</ele><time>2026-03-28T09:48:40.749Z</time></trkpt><trkpt lat="44.5167817" lon="11.2378883"><ele>49.0</ele><time>2026-03-28T09:48:41.749Z</time></trkpt><trkpt lat="44.5168433" lon="11.237925"><ele>49.0</ele><time>2026-03-28T09:48:42.749Z</time></trkpt><trkpt lat="44.5169567" lon="11.23797"><ele>49.0</ele><time>2026-03-28T09:48:44.749Z</time></trkpt><trkpt lat="44.51702" lon="11.23799"><ele>49.0</ele><time>2026-03-28T09:48:45.749Z</time></trkpt><trkpt lat="44.51708" lon="11.23802"><ele>49.0</ele><time>2026-03-28T09:48:46.749Z</time></trkpt><trkpt lat="44.5171417" lon="11.238045"><ele>49.0</ele><time>2026-03-28T09:48:47.749Z</time></trkpt><trkpt lat="44.5172033" lon="11.2380717"><ele>49.0</ele><time>2026-03-28T09:48:48.749Z</time></trkpt><trkpt lat="44.517265" lon="11.238095"><ele>49.2</ele><time>2026-03-28T09:48:49.749Z</time></trkpt><trkpt lat="44.5173833" lon="11.238135"><ele>49.400000000000006</ele><time>2026-03-28T09:48:51.749Z</time></trkpt><trkpt lat="44.5175017" lon="11.23819"><ele>49.6</ele><time>2026-03-28T09:48:53.749Z</time></trkpt><trkpt lat="44.5175683" lon="11.2382183"><ele>49.8</ele><time>2026-03-28T09:48:54.749Z</time></trkpt><trkpt lat="44.5176933" lon="11.2382617"><ele>50.0</ele><time>2026-03-28T09:48:56.749Z</time></trkpt><trkpt lat="44.5178133" lon="11.2383133"><ele>50.0</ele><time>2026-03-28T09:48:58.749Z</time></trkpt><trkpt lat="44.5178767" lon="11.23834"><ele>50.0</ele><time>2026-03-28T09:48:59.748Z</time></trkpt><trkpt lat="44.5179383" lon="11.238365"><ele>50.0</ele><time>2026-03-28T09:49:00.749Z</time></trkpt><trkpt lat="44.5180533" lon="11.2384083"><ele>50.0</ele><time>2026-03-28T09:49:02.749Z</time></trkpt><trkpt lat="44.5181733" lon="11.23846"><ele>50.0</ele><time>2026-03-28T09:49:04.749Z</time></trkpt><trkpt lat="44.5182867" lon="11.2385083"><ele>50.0</ele><time>2026-03-28T09:49:06.749Z</time></trkpt><trkpt lat="44.5183483" lon="11.2385333"><ele>50.0</ele><time>2026-03-28T09:49:07.748Z</time></trkpt><trkpt lat="44.518465" lon="11.2385783"><ele>50.0</ele><time>2026-03-28T09:49:09.749Z</time></trkpt><trkpt lat="44.51858" lon="11.2386267"><ele>50.0</ele><time>2026-03-28T09:49:11.749Z</time></trkpt><trkpt lat="44.5186883" lon="11.238655"><ele>50.0</ele><time>2026-03-28T09:49:13.748Z</time></trkpt><trkpt lat="44.51878" lon="11.2386967"><ele>50.00000000000001</ele><time>2026-03-28T09:49:15.749Z</time></trkpt><trkpt lat="44.5188767" lon="11.2387367"><ele>50.0</ele><time>2026-03-28T09:49:17.749Z</time></trkpt><trkpt lat="44.5189667" lon="11.2387633"><ele>50.0</ele><time>2026-03-28T09:49:19.749Z</time></trkpt><trkpt lat="44.519005" lon="11.2388583"><ele>50.0</ele><time>2026-03-28T09:49:21.749Z</time></trkpt><trkpt lat="44.5189917" lon="11.2389717"><ele>50.00000000000001</ele><time>2026-03-28T09:49:23.749Z</time></trkpt><trkpt lat="44.5189667" lon="11.2390967"><ele>50.0</ele><time>2026-03-28T09:49:25.749Z</time></trkpt><trkpt lat="44.518945" lon="11.239235"><ele>50.0</ele><time>2026-03-28T09:49:27.749Z</time></trkpt><trkpt lat="44.5189183" lon="11.2393867"><ele>50.0</ele><time>2026-03-28T09:49:29.749Z</time></trkpt><trkpt lat="44.5188917" lon="11.239545"><ele>50.0</ele><time>2026-03-28T09:49:31.749Z</time></trkpt><trkpt lat="44.5188633" lon="11.2396933"><ele>50.0</ele><time>2026-03-28T09:49:33.749Z</time></trkpt><trkpt lat="44.518845" lon="11.23984"><ele>50.0</ele><time>2026-03-28T09:49:35.749Z</time></trkpt><trkpt lat="44.51883" lon="11.2399917"><ele>50.00000000000001</ele><time>2026-03-28T09:49:37.749Z</time></trkpt><trkpt lat="44.5188033" lon="11.2401483"><ele>50.0</ele><time>2026-03-28T09:49:39.749Z</time></trkpt><trkpt lat="44.5187733" lon="11.2402683"><ele>50.0</ele><time>2026-03-28T09:49:41.748Z</time></trkpt><trkpt lat="44.518715" lon="11.2403283"><ele>50.0</ele><time>2026-03-28T09:49:43.748Z</time></trkpt><trkpt lat="44.51865" lon="11.2403417"><ele>50.00000000000001</ele><time>2026-03-28T09:49:45.749Z</time></trkpt><trkpt lat="44.5186083" lon="11.2404217"><ele>50.0</ele><time>2026-03-28T09:49:47.749Z</time></trkpt><trkpt lat="44.5185733" lon="11.240535"><ele>50.0</ele><time>2026-03-28T09:49:49.748Z</time></trkpt><trkpt lat="44.5185417" lon="11.24066"><ele>50.0</ele><time>2026-03-28T09:49:51.749Z</time></trkpt><trkpt lat="44.5185" lon="11.2407683"><ele>50.0</ele><time>2026-03-28T09:49:53.749Z</time></trkpt><trkpt lat="44.51848" lon="11.2408983"><ele>50.0</ele><time>2026-03-28T09:49:55.749Z</time></trkpt><trkpt lat="44.518485" lon="11.24106"><ele>50.0</ele><time>2026-03-28T09:49:57.749Z</time></trkpt><trkpt lat="44.5184917" lon="11.2412017"><ele>50.00000000000001</ele><time>2026-03-28T09:49:59.749Z</time></trkpt><trkpt lat="44.518475" lon="11.2413217"><ele>50.0</ele><time>2026-03-28T09:50:01.748Z</time></trkpt><trkpt lat="44.5183967" lon="11.241405"><ele>50.0</ele><time>2026-03-28T09:50:11.749Z</time></trkpt><trkpt lat="44.5183317" lon="11.24135"><ele>50.0</ele><time>2026-03-28T09:50:14.749Z</time></trkpt><trkpt lat="44.51827" lon="11.2412733"><ele>50.00000000000001</ele><time>2026-03-28T09:50:16.748Z</time></trkpt><trkpt lat="44.5182033" lon="11.2411783"><ele>50.0</ele><time>2026-03-28T09:50:18.748Z</time></trkpt><trkpt lat="44.5181333" lon="11.2410733"><ele>50.0</ele><time>2026-03-28T09:50:20.749Z</time></trkpt><trkpt lat="44.5180617" lon="11.2409583"><ele>50.0</ele><time>2026-03-28T09:50:22.749Z</time></trkpt><trkpt lat="44.5179967" lon="11.2408367"><ele>50.0</ele><time>2026-03-28T09:50:24.749Z</time></trkpt><trkpt lat="44.51793" lon="11.240715"><ele>50.0</ele><time>2026-03-28T09:50:26.748Z</time></trkpt><trkpt lat="44.5178567" lon="11.240595"><ele>50.0</ele><time>2026-03-28T09:50:28.749Z</time></trkpt><trkpt lat="44.5177867" lon="11.2404783"><ele>50.6</ele><time>2026-03-28T09:50:30.748Z</time></trkpt><trkpt lat="44.517705" lon="11.240375"><ele>51.2</ele><time>2026-03-28T09:50:32.749Z</time></trkpt><trkpt lat="44.5176183" lon="11.2402817"><ele>51.8</ele><time>2026-03-28T09:50:34.748Z</time></trkpt><trkpt lat="44.5175217" lon="11.2402133"><ele>52.4</ele><time>2026-03-28T09:50:36.749Z</time></trkpt><trkpt lat="44.5174217" lon="11.2401367"><ele>53.0</ele><time>2026-03-28T09:50:38.749Z</time></trkpt><trkpt lat="44.5173133" lon="11.2400683"><ele>53.0</ele><time>2026-03-28T09:50:40.749Z</time></trkpt><trkpt lat="44.5171983" lon="11.2400033"><ele>53.0</ele><time>2026-03-28T09:50:42.748Z</time></trkpt><trkpt lat="44.517085" lon="11.2399483"><ele>53.0</ele><time>2026-03-28T09:50:44.748Z</time></trkpt><trkpt lat="44.51697" lon="11.23988"><ele>53.0</ele><time>2026-03-28T09:50:46.75Z</time></trkpt><trkpt lat="44.5168517" lon="11.2398233"><ele>52.714285714285715</ele><time>2026-03-28T09:50:48.749Z</time></trkpt><trkpt lat="44.5167867" lon="11.2397933"><ele>52.42857142857142</ele><time>2026-03-28T09:50:49.75Z</time></trkpt><trkpt lat="44.5167183" lon="11.23977"><ele>52.14285714285714</ele><time>2026-03-28T09:50:50.75Z</time></trkpt><trkpt lat="44.51665" lon="11.23975"><ele>51.85714285714286</ele><time>2026-03-28T09:50:51.75Z</time></trkpt><trkpt lat="44.5165833" lon="11.239735"><ele>51.57142857142857</ele><time>2026-03-28T09:50:52.749Z</time></trkpt><trkpt lat="44.5165167" lon="11.2397183"><ele>51.285714285714285</ele><time>2026-03-28T09:50:53.749Z</time></trkpt><trkpt lat="44.5164533" lon="11.2397"><ele>51.0</ele><time>2026-03-28T09:50:54.75Z</time></trkpt><trkpt lat="44.51639" lon="11.2396967"><ele>51.0</ele><time>2026-03-28T09:50:55.749Z</time></trkpt><trkpt lat="44.5163233" lon="11.2396867"><ele>51.0</ele><time>2026-03-28T09:50:56.749Z</time></trkpt><trkpt lat="44.5162567" lon="11.2396733"><ele>51.0</ele><time>2026-03-28T09:50:57.75Z</time></trkpt><trkpt lat="44.5161317" lon="11.2396567"><ele>51.0</ele><time>2026-03-28T09:50:59.75Z</time></trkpt><trkpt lat="44.51606" lon="11.2396417"><ele>51.0</ele><time>2026-03-28T09:51:00.75Z</time></trkpt><trkpt lat="44.51599" lon="11.239635"><ele>51.0</ele><time>2026-03-28T09:51:01.75Z</time></trkpt><trkpt lat="44.5159183" lon="11.2396217"><ele>51.0</ele><time>2026-03-28T09:51:02.749Z</time></trkpt><trkpt lat="44.5158483" lon="11.2396083"><ele>51.0</ele><time>2026-03-28T09:51:03.75Z</time></trkpt><trkpt lat="44.5157767" lon="11.2396117"><ele>51.0</ele><time>2026-03-28T09:51:04.75Z</time></trkpt><trkpt lat="44.51571" lon="11.239605"><ele>51.0</ele><time>2026-03-28T09:51:05.75Z</time></trkpt><trkpt lat="44.515645" lon="11.2395967"><ele>51.0</ele><time>2026-03-28T09:51:06.75Z</time></trkpt><trkpt lat="44.5155817" lon="11.2395817"><ele>51.0</ele><time>2026-03-28T09:51:07.749Z</time></trkpt><trkpt lat="44.5155167" lon="11.23957"><ele>51.0</ele><time>2026-03-28T09:51:08.75Z</time></trkpt><trkpt lat="44.51545" lon="11.2395567"><ele>51.285714285714285</ele><time>2026-03-28T09:51:09.75Z</time></trkpt><trkpt lat="44.515385" lon="11.23955"><ele>51.57142857142857</ele><time>2026-03-28T09:51:10.75Z</time></trkpt><trkpt lat="44.51532" lon="11.239535"><ele>51.85714285714286</ele><time>2026-03-28T09:51:11.75Z</time></trkpt><trkpt lat="44.515255" lon="11.2395333"><ele>52.14285714285714</ele><time>2026-03-28T09:51:12.749Z</time></trkpt><trkpt lat="44.51519" lon="11.2395267"><ele>52.42857142857142</ele><time>2026-03-28T09:51:13.75Z</time></trkpt><trkpt lat="44.5151233" lon="11.2395083"><ele>52.714285714285715</ele><time>2026-03-28T09:51:14.75Z</time></trkpt><trkpt lat="44.5150567" lon="11.2395017"><ele>53.0</ele><time>2026-03-28T09:51:15.75Z</time></trkpt><trkpt lat="44.5149917" lon="11.23949"><ele>53.00000000000001</ele><time>2026-03-28T09:51:16.75Z</time></trkpt><trkpt lat="44.5149283" lon="11.2394783"><ele>53.0</ele><time>2026-03-28T09:51:17.75Z</time></trkpt><trkpt lat="44.514865" lon="11.2394667"><ele>53.0</ele><time>2026-03-28T09:51:18.749Z</time></trkpt><trkpt lat="44.514735" lon="11.2394417"><ele>53.0</ele><time>2026-03-28T09:51:20.749Z</time></trkpt><trkpt lat="44.5146117" lon="11.23942"><ele>53.00000000000001</ele><time>2026-03-28T09:51:22.75Z</time></trkpt><trkpt lat="44.5145483" lon="11.2394117"><ele>53.0</ele><time>2026-03-28T09:51:23.75Z</time></trkpt><trkpt lat="44.514485" lon="11.2394017"><ele>53.142857142857146</ele><time>2026-03-28T09:51:24.75Z</time></trkpt><trkpt lat="44.5144183" lon="11.2393983"><ele>53.285714285714285</ele><time>2026-03-28T09:51:25.749Z</time></trkpt><trkpt lat="44.5143517" lon="11.2393883"><ele>53.42857142857143</ele><time>2026-03-28T09:51:26.75Z</time></trkpt><trkpt lat="44.5142867" lon="11.2393767"><ele>53.57142857142857</ele><time>2026-03-28T09:51:27.75Z</time></trkpt><trkpt lat="44.51422" lon="11.2393633"><ele>53.71428571428571</ele><time>2026-03-28T09:51:28.75Z</time></trkpt><trkpt lat="44.514155" lon="11.239355"><ele>53.857142857142854</ele><time>2026-03-28T09:51:29.75Z</time></trkpt><trkpt lat="44.5140917" lon="11.239345"><ele>54.0</ele><time>2026-03-28T09:51:30.75Z</time></trkpt><trkpt lat="44.5140283" lon="11.2393383"><ele>54.0</ele><time>2026-03-28T09:51:31.75Z</time></trkpt><trkpt lat="44.513965" lon="11.2393267"><ele>54.0</ele><time>2026-03-28T09:51:32.75Z</time></trkpt><trkpt lat="44.5139" lon="11.2393217"><ele>54.0</ele><time>2026-03-28T09:51:33.749Z</time></trkpt><trkpt lat="44.5137783" lon="11.2393017"><ele>54.0</ele><time>2026-03-28T09:51:35.75Z</time></trkpt><trkpt lat="44.5137133" lon="11.23929"><ele>54.0</ele><time>2026-03-28T09:51:36.75Z</time></trkpt><trkpt lat="44.51365" lon="11.2392817"><ele>54.0</ele><time>2026-03-28T09:51:37.75Z</time></trkpt><trkpt lat="44.5135867" lon="11.239275"><ele>54.0</ele><time>2026-03-28T09:51:38.75Z</time></trkpt><trkpt lat="44.5134617" lon="11.23925"><ele>53.833333333333336</ele><time>2026-03-28T09:51:40.75Z</time></trkpt><trkpt lat="44.5133983" lon="11.239245"><ele>53.66666666666667</ele><time>2026-03-28T09:51:41.75Z</time></trkpt><trkpt lat="44.51333" lon="11.2392333"><ele>53.5</ele><time>2026-03-28T09:51:42.749Z</time></trkpt><trkpt lat="44.513265" lon="11.2392233"><ele>53.333333333333336</ele><time>2026-03-28T09:51:43.75Z</time></trkpt><trkpt lat="44.5132017" lon="11.2392167"><ele>53.16666666666667</ele><time>2026-03-28T09:51:44.749Z</time></trkpt><trkpt lat="44.5130817" lon="11.2391967"><ele>53.0</ele><time>2026-03-28T09:51:46.749Z</time></trkpt><trkpt lat="44.5129617" lon="11.2391767"><ele>52.75</ele><time>2026-03-28T09:51:48.749Z</time></trkpt><trkpt lat="44.5128517" lon="11.2391617"><ele>52.5</ele><time>2026-03-28T09:51:50.75Z</time></trkpt><trkpt lat="44.5127267" lon="11.2391383"><ele>52.25</ele><time>2026-03-28T09:51:52.749Z</time></trkpt><trkpt lat="44.5126183" lon="11.2391217"><ele>52.0</ele><time>2026-03-28T09:51:54.75Z</time></trkpt><trkpt lat="44.5125117" lon="11.239095"><ele>52.0</ele><time>2026-03-28T09:51:56.75Z</time></trkpt><trkpt lat="44.512405" lon="11.239055"><ele>52.0</ele><time>2026-03-28T09:51:58.75Z</time></trkpt><trkpt lat="44.5122967" lon="11.2390117"><ele>52.0</ele><time>2026-03-28T09:52:00.75Z</time></trkpt><trkpt lat="44.51219" lon="11.2389567"><ele>52.0</ele><time>2026-03-28T09:52:02.75Z</time></trkpt><trkpt lat="44.51209" lon="11.2389067"><ele>52.0</ele><time>2026-03-28T09:52:04.75Z</time></trkpt><trkpt lat="44.5119783" lon="11.238845"><ele>52.5</ele><time>2026-03-28T09:52:06.75Z</time></trkpt><trkpt lat="44.51187" lon="11.2387867"><ele>53.0</ele><time>2026-03-28T09:52:08.75Z</time></trkpt><trkpt lat="44.5117567" lon="11.23878"><ele>53.5</ele><time>2026-03-28T09:52:10.75Z</time></trkpt><trkpt lat="44.5116667" lon="11.2388667"><ele>54.0</ele><time>2026-03-28T09:52:12.75Z</time></trkpt><trkpt lat="44.5115917" lon="11.2389983"><ele>54.0</ele><time>2026-03-28T09:52:14.75Z</time></trkpt><trkpt lat="44.5114983" lon="11.2391217"><ele>54.0</ele><time>2026-03-28T09:52:16.75Z</time></trkpt><trkpt lat="44.5114483" lon="11.2391833"><ele>54.0</ele><time>2026-03-28T09:52:17.75Z</time></trkpt><trkpt lat="44.5113933" lon="11.2392383"><ele>54.0</ele><time>2026-03-28T09:52:18.75Z</time></trkpt><trkpt lat="44.5113467" lon="11.239305"><ele>54.0</ele><time>2026-03-28T09:52:19.75Z</time></trkpt><trkpt lat="44.5113033" lon="11.239385"><ele>54.0</ele><time>2026-03-28T09:52:20.75Z</time></trkpt><trkpt lat="44.5112633" lon="11.239465"><ele>54.0</ele><time>2026-03-28T09:52:21.749Z</time></trkpt><trkpt lat="44.5112283" lon="11.239545"><ele>54.0</ele><time>2026-03-28T09:52:22.75Z</time></trkpt><trkpt lat="44.5111833" lon="11.2396333"><ele>54.0</ele><time>2026-03-28T09:52:23.75Z</time></trkpt><trkpt lat="44.511145" lon="11.2397233"><ele>54.0</ele><time>2026-03-28T09:52:24.75Z</time></trkpt><trkpt lat="44.5111017" lon="11.2398083"><ele>54.0</ele><time>2026-03-28T09:52:25.749Z</time></trkpt><trkpt lat="44.5110667" lon="11.239895"><ele>54.0</ele><time>2026-03-28T09:52:26.749Z</time></trkpt><trkpt lat="44.5110217" lon="11.2399817"><ele>54.0</ele><time>2026-03-28T09:52:27.75Z</time></trkpt><trkpt lat="44.510975" lon="11.240065"><ele>53.714285714285715</ele><time>2026-03-28T09:52:28.749Z</time></trkpt><trkpt lat="44.5109317" lon="11.24015"><ele>53.42857142857143</ele><time>2026-03-28T09:52:29.75Z</time></trkpt><trkpt lat="44.5108883" lon="11.2402317"><ele>53.14285714285714</ele><time>2026-03-28T09:52:30.749Z</time></trkpt><trkpt lat="44.5108433" lon="11.2403133"><ele>52.85714285714286</ele><time>2026-03-28T09:52:31.75Z</time></trkpt><trkpt lat="44.5108033" lon="11.240395"><ele>52.57142857142858</ele><time>2026-03-28T09:52:32.75Z</time></trkpt><trkpt lat="44.5107567" lon="11.24048"><ele>52.285714285714285</ele><time>2026-03-28T09:52:33.75Z</time></trkpt><trkpt lat="44.510715" lon="11.2405583"><ele>52.0</ele><time>2026-03-28T09:52:34.75Z</time></trkpt><trkpt lat="44.5106767" lon="11.24065"><ele>52.0</ele><time>2026-03-28T09:52:35.75Z</time></trkpt><trkpt lat="44.5106367" lon="11.2407317"><ele>52.0</ele><time>2026-03-28T09:52:36.75Z</time></trkpt><trkpt lat="44.5105967" lon="11.2408117"><ele>52.0</ele><time>2026-03-28T09:52:37.749Z</time></trkpt><trkpt lat="44.5105567" lon="11.2408967"><ele>52.0</ele><time>2026-03-28T09:52:38.749Z</time></trkpt><trkpt lat="44.510515" lon="11.2409783"><ele>52.0</ele><time>2026-03-28T09:52:39.75Z</time></trkpt><trkpt lat="44.5104783" lon="11.2410567"><ele>52.0</ele><time>2026-03-28T09:52:40.75Z</time></trkpt><trkpt lat="44.5104383" lon="11.2411317"><ele>52.0</ele><time>2026-03-28T09:52:41.75Z</time></trkpt><trkpt lat="44.5104" lon="11.24121"><ele>52.285714285714285</ele><time>2026-03-28T09:52:42.75Z</time></trkpt><trkpt lat="44.5103583" lon="11.2412983"><ele>52.57142857142858</ele><time>2026-03-28T09:52:43.75Z</time></trkpt><trkpt lat="44.5103217" lon="11.241385"><ele>52.85714285714286</ele><time>2026-03-28T09:52:44.749Z</time></trkpt><trkpt lat="44.5102733" lon="11.2414617"><ele>53.14285714285714</ele><time>2026-03-28T09:52:45.75Z</time></trkpt><trkpt lat="44.5102317" lon="11.2415483"><ele>53.42857142857143</ele><time>2026-03-28T09:52:46.75Z</time></trkpt><trkpt lat="44.5101933" lon="11.241625"><ele>53.714285714285715</ele><time>2026-03-28T09:52:47.75Z</time></trkpt><trkpt lat="44.5101583" lon="11.2417017"><ele>54.0</ele><time>2026-03-28T09:52:48.75Z</time></trkpt><trkpt lat="44.5100867" lon="11.2418433"><ele>54.0</ele><time>2026-03-28T09:52:50.75Z</time></trkpt><trkpt lat="44.5100483" lon="11.241915"><ele>54.0</ele><time>2026-03-28T09:52:51.75Z</time></trkpt><trkpt lat="44.5100117" lon="11.2419883"><ele>54.0</ele><time>2026-03-28T09:52:52.75Z</time></trkpt><trkpt lat="44.5099833" lon="11.2420733"><ele>54.0</ele><time>2026-03-28T09:52:53.749Z</time></trkpt><trkpt lat="44.50996" lon="11.24216"><ele>54.0</ele><time>2026-03-28T09:52:54.75Z</time></trkpt><trkpt lat="44.5099467" lon="11.2422517"><ele>54.0</ele><time>2026-03-28T09:52:55.75Z</time></trkpt><trkpt lat="44.5099317" lon="11.2423517"><ele>54.0</ele><time>2026-03-28T09:52:56.749Z</time></trkpt><trkpt lat="44.5099183" lon="11.242445"><ele>53.714285714285715</ele><time>2026-03-28T09:52:57.75Z</time></trkpt><trkpt lat="44.5099117" lon="11.2425433"><ele>53.42857142857143</ele><time>2026-03-28T09:52:58.75Z</time></trkpt><trkpt lat="44.5099017" lon="11.2426383"><ele>53.14285714285714</ele><time>2026-03-28T09:52:59.749Z</time></trkpt><trkpt lat="44.5098933" lon="11.2427333"><ele>52.85714285714286</ele><time>2026-03-28T09:53:00.75Z</time></trkpt><trkpt lat="44.5098683" lon="11.2428283"><ele>52.57142857142858</ele><time>2026-03-28T09:53:01.75Z</time></trkpt><trkpt lat="44.5098567" lon="11.2429283"><ele>52.285714285714285</ele><time>2026-03-28T09:53:02.75Z</time></trkpt><trkpt lat="44.5098433" lon="11.24303"><ele>52.0</ele><time>2026-03-28T09:53:03.75Z</time></trkpt><trkpt lat="44.5098317" lon="11.2431233"><ele>52.0</ele><time>2026-03-28T09:53:04.75Z</time></trkpt><trkpt lat="44.5098133" lon="11.2432183"><ele>52.0</ele><time>2026-03-28T09:53:05.75Z</time></trkpt><trkpt lat="44.5098" lon="11.2433167"><ele>52.0</ele><time>2026-03-28T09:53:06.75Z</time></trkpt><trkpt lat="44.5097933" lon="11.2434117"><ele>52.0</ele><time>2026-03-28T09:53:07.75Z</time></trkpt><trkpt lat="44.5097883" lon="11.2435033"><ele>52.0</ele><time>2026-03-28T09:53:08.75Z</time></trkpt><trkpt lat="44.5097817" lon="11.2436"><ele>52.0</ele><time>2026-03-28T09:53:09.749Z</time></trkpt><trkpt lat="44.5097717" lon="11.243695"><ele>52.0</ele><time>2026-03-28T09:53:10.75Z</time></trkpt><trkpt lat="44.5097633" lon="11.243795"><ele>52.0</ele><time>2026-03-28T09:53:11.75Z</time></trkpt><trkpt lat="44.50976" lon="11.2438967"><ele>52.0</ele><time>2026-03-28T09:53:12.749Z</time></trkpt><trkpt lat="44.5097567" lon="11.2439867"><ele>52.0</ele><time>2026-03-28T09:53:13.75Z</time></trkpt><trkpt lat="44.5097583" lon="11.2440833"><ele>52.0</ele><time>2026-03-28T09:53:14.75Z</time></trkpt><trkpt lat="44.5097633" lon="11.24418"><ele>52.0</ele><time>2026-03-28T09:53:15.749Z</time></trkpt><trkpt lat="44.5097667" lon="11.2442733"><ele>52.0</ele><time>2026-03-28T09:53:16.75Z</time></trkpt><trkpt lat="44.5097733" lon="11.2443667"><ele>52.0</ele><time>2026-03-28T09:53:17.75Z</time></trkpt><trkpt lat="44.5097867" lon="11.244455"><ele>51.857142857142854</ele><time>2026-03-28T09:53:18.75Z</time></trkpt><trkpt lat="44.5097983" lon="11.2445433"><ele>51.714285714285715</ele><time>2026-03-28T09:53:19.749Z</time></trkpt><trkpt lat="44.509815" lon="11.244645"><ele>51.57142857142857</ele><time>2026-03-28T09:53:20.749Z</time></trkpt><trkpt lat="44.509835" lon="11.2447417"><ele>51.42857142857143</ele><time>2026-03-28T09:53:21.75Z</time></trkpt><trkpt lat="44.5098517" lon="11.244845"><ele>51.28571428571429</ele><time>2026-03-28T09:53:22.75Z</time></trkpt><trkpt lat="44.5098817" lon="11.24493"><ele>51.142857142857146</ele><time>2026-03-28T09:53:23.75Z</time></trkpt><trkpt lat="44.5099017" lon="11.245025"><ele>51.0</ele><time>2026-03-28T09:53:24.749Z</time></trkpt><trkpt lat="44.509905" lon="11.24512"><ele>51.0</ele><time>2026-03-28T09:53:25.75Z</time></trkpt><trkpt lat="44.5099167" lon="11.2452117"><ele>51.0</ele><time>2026-03-28T09:53:26.749Z</time></trkpt><trkpt lat="44.5099183" lon="11.2453067"><ele>51.0</ele><time>2026-03-28T09:53:27.75Z</time></trkpt><trkpt lat="44.50992" lon="11.2454033"><ele>51.0</ele><time>2026-03-28T09:53:28.75Z</time></trkpt><trkpt lat="44.509905" lon="11.2455"><ele>51.0</ele><time>2026-03-28T09:53:29.75Z</time></trkpt><trkpt lat="44.5098983" lon="11.2455983"><ele>51.0</ele><time>2026-03-28T09:53:30.749Z</time></trkpt><trkpt lat="44.50989" lon="11.2456967"><ele>51.0</ele><time>2026-03-28T09:53:31.75Z</time></trkpt><trkpt lat="44.5098783" lon="11.2457983"><ele>51.0</ele><time>2026-03-28T09:53:32.75Z</time></trkpt><trkpt lat="44.50987" lon="11.2458883"><ele>51.0</ele><time>2026-03-28T09:53:33.75Z</time></trkpt><trkpt lat="44.50986" lon="11.245985"><ele>51.0</ele><time>2026-03-28T09:53:34.75Z</time></trkpt><trkpt lat="44.5098467" lon="11.2460783"><ele>51.0</ele><time>2026-03-28T09:53:35.75Z</time></trkpt><trkpt lat="44.50983" lon="11.2461783"><ele>51.0</ele><time>2026-03-28T09:53:36.75Z</time></trkpt><trkpt lat="44.50981" lon="11.2462683"><ele>51.0</ele><time>2026-03-28T09:53:37.75Z</time></trkpt><trkpt lat="44.5097933" lon="11.2463633"><ele>51.0</ele><time>2026-03-28T09:53:38.75Z</time></trkpt><trkpt lat="44.50977" lon="11.2464583"><ele>51.166666666666664</ele><time>2026-03-28T09:53:39.75Z</time></trkpt><trkpt lat="44.5097533" lon="11.2465517"><ele>51.33333333333333</ele><time>2026-03-28T09:53:40.75Z</time></trkpt><trkpt lat="44.50972" lon="11.246725"><ele>51.5</ele><time>2026-03-28T09:53:42.75Z</time></trkpt><trkpt lat="44.5097033" lon="11.2468117"><ele>51.666666666666664</ele><time>2026-03-28T09:53:43.75Z</time></trkpt><trkpt lat="44.5096867" lon="11.2469017"><ele>51.83333333333333</ele><time>2026-03-28T09:53:44.75Z</time></trkpt><trkpt lat="44.5096767" lon="11.2469917"><ele>52.0</ele><time>2026-03-28T09:53:45.75Z</time></trkpt><trkpt lat="44.5096633" lon="11.2470883"><ele>52.0</ele><time>2026-03-28T09:53:46.75Z</time></trkpt><trkpt lat="44.5096583" lon="11.2471833"><ele>52.0</ele><time>2026-03-28T09:53:47.75Z</time></trkpt><trkpt lat="44.5096433" lon="11.24727"><ele>52.0</ele><time>2026-03-28T09:53:48.75Z</time></trkpt><trkpt lat="44.50963" lon="11.2473633"><ele>52.0</ele><time>2026-03-28T09:53:49.75Z</time></trkpt><trkpt lat="44.5096083" lon="11.2475417"><ele>52.0</ele><time>2026-03-28T09:53:51.75Z</time></trkpt><trkpt lat="44.5095783" lon="11.24771"><ele>52.2</ele><time>2026-03-28T09:53:53.75Z</time></trkpt><trkpt lat="44.50956" lon="11.2477967"><ele>52.400000000000006</ele><time>2026-03-28T09:53:54.75Z</time></trkpt><trkpt lat="44.5095233" lon="11.24796"><ele>52.599999999999994</ele><time>2026-03-28T09:53:56.75Z</time></trkpt><trkpt lat="44.50948" lon="11.2481233"><ele>52.8</ele><time>2026-03-28T09:53:58.749Z</time></trkpt><trkpt lat="44.5094583" lon="11.24821"><ele>53.0</ele><time>2026-03-28T09:53:59.749Z</time></trkpt><trkpt lat="44.5094267" lon="11.2483817"><ele>53.0</ele><time>2026-03-28T09:54:01.75Z</time></trkpt><trkpt lat="44.5094117" lon="11.24847"><ele>53.0</ele><time>2026-03-28T09:54:02.75Z</time></trkpt><trkpt lat="44.509395" lon="11.2485583"><ele>53.0</ele><time>2026-03-28T09:54:03.749Z</time></trkpt><trkpt lat="44.5093783" lon="11.248645"><ele>53.0</ele><time>2026-03-28T09:54:04.75Z</time></trkpt><trkpt lat="44.5093633" lon="11.2487317"><ele>53.0</ele><time>2026-03-28T09:54:05.75Z</time></trkpt><trkpt lat="44.5093483" lon="11.2488183"><ele>53.0</ele><time>2026-03-28T09:54:06.75Z</time></trkpt><trkpt lat="44.509335" lon="11.248905"><ele>53.0</ele><time>2026-03-28T09:54:07.75Z</time></trkpt><trkpt lat="44.509315" lon="11.248995"><ele>53.16666666666667</ele><time>2026-03-28T09:54:08.75Z</time></trkpt><trkpt lat="44.509295" lon="11.2490833"><ele>53.333333333333336</ele><time>2026-03-28T09:54:09.75Z</time></trkpt><trkpt lat="44.509245" lon="11.2492467"><ele>53.5</ele><time>2026-03-28T09:54:11.75Z</time></trkpt><trkpt lat="44.50922" lon="11.24933"><ele>53.66666666666667</ele><time>2026-03-28T09:54:12.749Z</time></trkpt><trkpt lat="44.5091933" lon="11.2494183"><ele>53.833333333333336</ele><time>2026-03-28T09:54:13.749Z</time></trkpt><trkpt lat="44.5091683" lon="11.2495033"><ele>54.0</ele><time>2026-03-28T09:54:14.75Z</time></trkpt><trkpt lat="44.5091417" lon="11.249585"><ele>54.0</ele><time>2026-03-28T09:54:15.75Z</time></trkpt><trkpt lat="44.5091017" lon="11.2497467"><ele>54.0</ele><time>2026-03-28T09:54:17.75Z</time></trkpt><trkpt lat="44.5090567" lon="11.24991"><ele>54.0</ele><time>2026-03-28T09:54:19.749Z</time></trkpt><trkpt lat="44.5090333" lon="11.2499933"><ele>54.0</ele><time>2026-03-28T09:54:20.75Z</time></trkpt><trkpt lat="44.5090083" lon="11.250075"><ele>54.0</ele><time>2026-03-28T09:54:21.749Z</time></trkpt><trkpt lat="44.508985" lon="11.2501583"><ele>54.0</ele><time>2026-03-28T09:54:22.75Z</time></trkpt><trkpt lat="44.5089617" lon="11.2502483"><ele>53.400000000000006</ele><time>2026-03-28T09:54:23.75Z</time></trkpt><trkpt lat="44.5089167" lon="11.25042"><ele>52.800000000000004</ele><time>2026-03-28T09:54:25.75Z</time></trkpt><trkpt lat="44.5088883" lon="11.250505"><ele>52.2</ele><time>2026-03-28T09:54:26.75Z</time></trkpt><trkpt lat="44.5088617" lon="11.2505883"><ele>51.599999999999994</ele><time>2026-03-28T09:54:27.75Z</time></trkpt><trkpt lat="44.508815" lon="11.2507483"><ele>51.0</ele><time>2026-03-28T09:54:29.75Z</time></trkpt><trkpt lat="44.5087917" lon="11.2508333"><ele>51.0</ele><time>2026-03-28T09:54:30.75Z</time></trkpt><trkpt lat="44.508745" lon="11.2509983"><ele>51.0</ele><time>2026-03-28T09:54:32.75Z</time></trkpt><trkpt lat="44.5087317" lon="11.2510867"><ele>51.0</ele><time>2026-03-28T09:54:33.75Z</time></trkpt><trkpt lat="44.5087183" lon="11.2512517"><ele>51.0</ele><time>2026-03-28T09:54:35.75Z</time></trkpt><trkpt lat="44.508705" lon="11.2513533"><ele>51.0</ele><time>2026-03-28T09:54:36.75Z</time></trkpt><trkpt lat="44.508685" lon="11.2514417"><ele>51.0</ele><time>2026-03-28T09:54:37.75Z</time></trkpt><trkpt lat="44.5086633" lon="11.2515283"><ele>51.8</ele><time>2026-03-28T09:54:38.749Z</time></trkpt><trkpt lat="44.5086367" lon="11.2516117"><ele>52.599999999999994</ele><time>2026-03-28T09:54:39.749Z</time></trkpt><trkpt lat="44.5086133" lon="11.2516983"><ele>53.4</ele><time>2026-03-28T09:54:40.75Z</time></trkpt><trkpt lat="44.5085617" lon="11.2518567"><ele>54.2</ele><time>2026-03-28T09:54:42.749Z</time></trkpt><trkpt lat="44.508535" lon="11.2519433"><ele>55.0</ele><time>2026-03-28T09:54:43.75Z</time></trkpt><trkpt lat="44.5084717" lon="11.2521083"><ele>54.99999999999999</ele><time>2026-03-28T09:54:45.75Z</time></trkpt><trkpt lat="44.5084367" lon="11.2521917"><ele>55.0</ele><time>2026-03-28T09:54:46.75Z</time></trkpt><trkpt lat="44.5084033" lon="11.2522717"><ele>55.0</ele><time>2026-03-28T09:54:47.75Z</time></trkpt><trkpt lat="44.5083733" lon="11.25236"><ele>55.0</ele><time>2026-03-28T09:54:48.75Z</time></trkpt><trkpt lat="44.5083517" lon="11.252445"><ele>55.0</ele><time>2026-03-28T09:54:49.75Z</time></trkpt><trkpt lat="44.5083183" lon="11.2525233"><ele>54.99999999999999</ele><time>2026-03-28T09:54:50.75Z</time></trkpt><trkpt lat="44.5082883" lon="11.2526033"><ele>55.0</ele><time>2026-03-28T09:54:51.749Z</time></trkpt><trkpt lat="44.508225" lon="11.2527467"><ele>55.166666666666664</ele><time>2026-03-28T09:54:53.75Z</time></trkpt><trkpt lat="44.508175" lon="11.2529"><ele>55.33333333333333</ele><time>2026-03-28T09:54:55.75Z</time></trkpt><trkpt lat="44.5081483" lon="11.2529817"><ele>55.5</ele><time>2026-03-28T09:54:56.75Z</time></trkpt><trkpt lat="44.5081233" lon="11.2530633"><ele>55.66666666666667</ele><time>2026-03-28T09:54:57.749Z</time></trkpt><trkpt lat="44.5081033" lon="11.2531483"><ele>55.833333333333336</ele><time>2026-03-28T09:54:58.75Z</time></trkpt><trkpt lat="44.5080833" lon="11.2532383"><ele>56.0</ele><time>2026-03-28T09:54:59.75Z</time></trkpt><trkpt lat="44.50804" lon="11.2534017"><ele>56.0</ele><time>2026-03-28T09:55:01.75Z</time></trkpt><trkpt lat="44.508" lon="11.2535633"><ele>55.99999999999999</ele><time>2026-03-28T09:55:03.749Z</time></trkpt><trkpt lat="44.5079583" lon="11.253715"><ele>55.99999999999999</ele><time>2026-03-28T09:55:05.749Z</time></trkpt><trkpt lat="44.507935" lon="11.2538"><ele>56.0</ele><time>2026-03-28T09:55:07.75Z</time></trkpt><trkpt lat="44.507885" lon="11.2539533"><ele>56.0</ele><time>2026-03-28T09:55:16.75Z</time></trkpt><trkpt lat="44.5078583" lon="11.2540433"><ele>55.599999999999994</ele><time>2026-03-28T09:55:18.75Z</time></trkpt><trkpt lat="44.5078233" lon="11.2541283"><ele>55.199999999999996</ele><time>2026-03-28T09:55:20.75Z</time></trkpt><trkpt lat="44.5077633" lon="11.25423"><ele>54.800000000000004</ele><time>2026-03-28T09:55:38.75Z</time></trkpt><trkpt lat="44.5077367" lon="11.254355"><ele>54.400000000000006</ele><time>2026-03-28T09:55:40.75Z</time></trkpt><trkpt lat="44.5077167" lon="11.2544983"><ele>54.0</ele><time>2026-03-28T09:55:42.75Z</time></trkpt><trkpt lat="44.507665" lon="11.2546383"><ele>54.0</ele><time>2026-03-28T09:55:44.75Z</time></trkpt><trkpt lat="44.507615" lon="11.2547883"><ele>54.00000000000001</ele><time>2026-03-28T09:55:46.75Z</time></trkpt><trkpt lat="44.5075767" lon="11.254955"><ele>54.00000000000001</ele><time>2026-03-28T09:55:48.75Z</time></trkpt><trkpt lat="44.5075383" lon="11.2551283"><ele>54.0</ele><time>2026-03-28T09:55:50.75Z</time></trkpt><trkpt lat="44.5075167" lon="11.2552183"><ele>54.0</ele><time>2026-03-28T09:55:51.75Z</time></trkpt><trkpt lat="44.50749" lon="11.2553083"><ele>54.0</ele><time>2026-03-28T09:55:52.749Z</time></trkpt><trkpt lat="44.5074617" lon="11.2553983"><ele>54.0</ele><time>2026-03-28T09:55:53.75Z</time></trkpt><trkpt lat="44.5074417" lon="11.25549"><ele>54.0</ele><time>2026-03-28T09:55:54.75Z</time></trkpt><trkpt lat="44.5074167" lon="11.255585"><ele>54.0</ele><time>2026-03-28T09:55:55.75Z</time></trkpt><trkpt lat="44.5073883" lon="11.25568"><ele>54.0</ele><time>2026-03-28T09:55:56.75Z</time></trkpt><trkpt lat="44.507365" lon="11.2557783"><ele>54.0</ele><time>2026-03-28T09:55:57.75Z</time></trkpt><trkpt lat="44.5073367" lon="11.2558717"><ele>54.0</ele><time>2026-03-28T09:55:58.75Z</time></trkpt><trkpt lat="44.5073133" lon="11.2559667"><ele>53.666666666666664</ele><time>2026-03-28T09:55:59.75Z</time></trkpt><trkpt lat="44.5072883" lon="11.2560633"><ele>53.33333333333333</ele><time>2026-03-28T09:56:00.75Z</time></trkpt><trkpt lat="44.5072633" lon="11.2561633"><ele>53.0</ele><time>2026-03-28T09:56:01.75Z</time></trkpt><trkpt lat="44.5072367" lon="11.2562633"><ele>52.666666666666664</ele><time>2026-03-28T09:56:02.75Z</time></trkpt><trkpt lat="44.50721" lon="11.2563633"><ele>52.33333333333333</ele><time>2026-03-28T09:56:03.75Z</time></trkpt><trkpt lat="44.5071817" lon="11.2564667"><ele>52.0</ele><time>2026-03-28T09:56:04.749Z</time></trkpt><trkpt lat="44.5071533" lon="11.25657"><ele>51.99999999999999</ele><time>2026-03-28T09:56:05.749Z</time></trkpt><trkpt lat="44.5071267" lon="11.2566733"><ele>52.0</ele><time>2026-03-28T09:56:06.75Z</time></trkpt><trkpt lat="44.5071017" lon="11.25678"><ele>52.0</ele><time>2026-03-28T09:56:07.75Z</time></trkpt><trkpt lat="44.5070767" lon="11.2568817"><ele>52.0</ele><time>2026-03-28T09:56:08.75Z</time></trkpt><trkpt lat="44.50705" lon="11.2569883"><ele>51.99999999999999</ele><time>2026-03-28T09:56:09.75Z</time></trkpt><trkpt lat="44.50702" lon="11.2570983"><ele>52.0</ele><time>2026-03-28T09:56:10.75Z</time></trkpt><trkpt lat="44.5069867" lon="11.2572067"><ele>51.99999999999999</ele><time>2026-03-28T09:56:11.75Z</time></trkpt><trkpt lat="44.50696" lon="11.2573183"><ele>52.0</ele><time>2026-03-28T09:56:12.749Z</time></trkpt><trkpt lat="44.5069333" lon="11.2574233"><ele>52.0</ele><time>2026-03-28T09:56:13.749Z</time></trkpt><trkpt lat="44.506915" lon="11.2575333"><ele>52.0</ele><time>2026-03-28T09:56:14.75Z</time></trkpt><trkpt lat="44.5068933" lon="11.2576467"><ele>51.99999999999999</ele><time>2026-03-28T09:56:15.749Z</time></trkpt><trkpt lat="44.5068683" lon="11.2577483"><ele>52.0</ele><time>2026-03-28T09:56:16.749Z</time></trkpt><trkpt lat="44.506855" lon="11.257845"><ele>52.0</ele><time>2026-03-28T09:56:17.75Z</time></trkpt><trkpt lat="44.5068333" lon="11.2579433"><ele>52.0</ele><time>2026-03-28T09:56:18.75Z</time></trkpt><trkpt lat="44.5068017" lon="11.2580333"><ele>52.0</ele><time>2026-03-28T09:56:19.749Z</time></trkpt><trkpt lat="44.5067517" lon="11.2581133"><ele>52.0</ele><time>2026-03-28T09:56:20.75Z</time></trkpt><trkpt lat="44.506725" lon="11.2582117"><ele>52.0</ele><time>2026-03-28T09:56:21.75Z</time></trkpt><trkpt lat="44.5067067" lon="11.2583117"><ele>52.0</ele><time>2026-03-28T09:56:22.75Z</time></trkpt><trkpt lat="44.5066833" lon="11.25841"><ele>52.0</ele><time>2026-03-28T09:56:23.75Z</time></trkpt><trkpt lat="44.5066633" lon="11.2585017"><ele>52.0</ele><time>2026-03-28T09:56:24.75Z</time></trkpt><trkpt lat="44.5066417" lon="11.2585883"><ele>52.0</ele><time>2026-03-28T09:56:25.75Z</time></trkpt><trkpt lat="44.506625" lon="11.2586867"><ele>52.0</ele><time>2026-03-28T09:56:26.75Z</time></trkpt><trkpt lat="44.506605" lon="11.2587817"><ele>52.0</ele><time>2026-03-28T09:56:27.75Z</time></trkpt><trkpt lat="44.5065767" lon="11.258875"><ele>52.0</ele><time>2026-03-28T09:56:28.749Z</time></trkpt><trkpt lat="44.5065467" lon="11.2589683"><ele>52.0</ele><time>2026-03-28T09:56:29.75Z</time></trkpt><trkpt lat="44.50651" lon="11.259065"><ele>52.0</ele><time>2026-03-28T09:56:30.75Z</time></trkpt><trkpt lat="44.5064683" lon="11.2591567"><ele>52.0</ele><time>2026-03-28T09:56:31.75Z</time></trkpt><trkpt lat="44.5064317" lon="11.25924"><ele>52.0</ele><time>2026-03-28T09:56:32.75Z</time></trkpt><trkpt lat="44.50639" lon="11.2593267"><ele>52.0</ele><time>2026-03-28T09:56:33.75Z</time></trkpt><trkpt lat="44.50635" lon="11.2594083"><ele>52.0</ele><time>2026-03-28T09:56:34.749Z</time></trkpt><trkpt lat="44.5063133" lon="11.2594967"><ele>52.0</ele><time>2026-03-28T09:56:35.749Z</time></trkpt><trkpt lat="44.50628" lon="11.259595"><ele>52.0</ele><time>2026-03-28T09:56:36.75Z</time></trkpt><trkpt lat="44.5062367" lon="11.2596733"><ele>52.0</ele><time>2026-03-28T09:56:37.75Z</time></trkpt><trkpt lat="44.506185" lon="11.25975"><ele>51.857142857142854</ele><time>2026-03-28T09:56:38.75Z</time></trkpt><trkpt lat="44.5061367" lon="11.2598333"><ele>51.714285714285715</ele><time>2026-03-28T09:56:39.75Z</time></trkpt><trkpt lat="44.5060817" lon="11.2599117"><ele>51.57142857142857</ele><time>2026-03-28T09:56:40.75Z</time></trkpt><trkpt lat="44.5060383" lon="11.25999"><ele>51.42857142857143</ele><time>2026-03-28T09:56:41.75Z</time></trkpt><trkpt lat="44.5059867" lon="11.2600683"><ele>51.28571428571429</ele><time>2026-03-28T09:56:42.75Z</time></trkpt><trkpt lat="44.5059433" lon="11.260145"><ele>51.142857142857146</ele><time>2026-03-28T09:56:43.75Z</time></trkpt><trkpt lat="44.505895" lon="11.2602267"><ele>51.0</ele><time>2026-03-28T09:56:44.749Z</time></trkpt><trkpt lat="44.5058533" lon="11.2603033"><ele>51.0</ele><time>2026-03-28T09:56:45.75Z</time></trkpt><trkpt lat="44.505805" lon="11.2603783"><ele>51.0</ele><time>2026-03-28T09:56:46.75Z</time></trkpt><trkpt lat="44.50576" lon="11.2604583"><ele>51.0</ele><time>2026-03-28T09:56:47.75Z</time></trkpt><trkpt lat="44.5057167" lon="11.2605467"><ele>51.0</ele><time>2026-03-28T09:56:48.75Z</time></trkpt><trkpt lat="44.5056767" lon="11.2606367"><ele>51.0</ele><time>2026-03-28T09:56:49.749Z</time></trkpt><trkpt lat="44.5056383" lon="11.2607417"><ele>51.0</ele><time>2026-03-28T09:56:50.75Z</time></trkpt><trkpt lat="44.50561" lon="11.260835"><ele>50.85714285714286</ele><time>2026-03-28T09:56:51.749Z</time></trkpt><trkpt lat="44.5055817" lon="11.2609333"><ele>50.714285714285715</ele><time>2026-03-28T09:56:52.75Z</time></trkpt><trkpt lat="44.5055467" lon="11.2610283"><ele>50.57142857142857</ele><time>2026-03-28T09:56:53.75Z</time></trkpt><trkpt lat="44.505515" lon="11.2611183"><ele>50.42857142857143</ele><time>2026-03-28T09:56:54.749Z</time></trkpt><trkpt lat="44.5054883" lon="11.26121"><ele>50.285714285714285</ele><time>2026-03-28T09:56:55.75Z</time></trkpt><trkpt lat="44.5054667" lon="11.2613083"><ele>50.142857142857146</ele><time>2026-03-28T09:56:56.75Z</time></trkpt><trkpt lat="44.50544" lon="11.2614133"><ele>50.0</ele><time>2026-03-28T09:56:57.749Z</time></trkpt><trkpt lat="44.5054067" lon="11.261505"><ele>50.57142857142858</ele><time>2026-03-28T09:56:58.75Z</time></trkpt><trkpt lat="44.50538" lon="11.26159"><ele>51.142857142857146</ele><time>2026-03-28T09:56:59.75Z</time></trkpt><trkpt lat="44.5053483" lon="11.2616817"><ele>51.714285714285715</ele><time>2026-03-28T09:57:00.75Z</time></trkpt><trkpt lat="44.505315" lon="11.261775"><ele>52.28571428571429</ele><time>2026-03-28T09:57:01.749Z</time></trkpt><trkpt lat="44.5052783" lon="11.2618633"><ele>52.857142857142854</ele><time>2026-03-28T09:57:02.75Z</time></trkpt><trkpt lat="44.5052417" lon="11.2619467"><ele>53.42857142857143</ele><time>2026-03-28T09:57:03.75Z</time></trkpt><trkpt lat="44.5052033" lon="11.2620283"><ele>54.0</ele><time>2026-03-28T09:57:04.75Z</time></trkpt><trkpt lat="44.5051583" lon="11.2621017"><ele>54.0</ele><time>2026-03-28T09:57:05.749Z</time></trkpt><trkpt lat="44.5051217" lon="11.2621783"><ele>54.0</ele><time>2026-03-28T09:57:06.749Z</time></trkpt><trkpt lat="44.5050917" lon="11.2622633"><ele>54.0</ele><time>2026-03-28T09:57:07.75Z</time></trkpt><trkpt lat="44.5050583" lon="11.26234"><ele>54.0</ele><time>2026-03-28T09:57:08.75Z</time></trkpt><trkpt lat="44.50503" lon="11.2624283"><ele>54.0</ele><time>2026-03-28T09:57:09.75Z</time></trkpt><trkpt lat="44.5050033" lon="11.2625133"><ele>54.0</ele><time>2026-03-28T09:57:10.75Z</time></trkpt><trkpt lat="44.5049733" lon="11.262595"><ele>54.0</ele><time>2026-03-28T09:57:11.75Z</time></trkpt><trkpt lat="44.5049483" lon="11.2626767"><ele>53.5</ele><time>2026-03-28T09:57:12.749Z</time></trkpt><trkpt lat="44.50492" lon="11.262765"><ele>53.0</ele><time>2026-03-28T09:57:13.75Z</time></trkpt><trkpt lat="44.5048717" lon="11.2629333"><ele>52.5</ele><time>2026-03-28T09:57:15.75Z</time></trkpt><trkpt lat="44.5048483" lon="11.2630167"><ele>52.0</ele><time>2026-03-28T09:57:16.749Z</time></trkpt><trkpt lat="44.50482" lon="11.2631017"><ele>51.5</ele><time>2026-03-28T09:57:17.75Z</time></trkpt><trkpt lat="44.5048" lon="11.2631917"><ele>51.0</ele><time>2026-03-28T09:57:18.75Z</time></trkpt><trkpt lat="44.504755" lon="11.2633567"><ele>50.85714285714286</ele><time>2026-03-28T09:57:20.749Z</time></trkpt><trkpt lat="44.5047283" lon="11.2634367"><ele>50.714285714285715</ele><time>2026-03-28T09:57:21.75Z</time></trkpt><trkpt lat="44.504705" lon="11.263525"><ele>50.57142857142857</ele><time>2026-03-28T09:57:22.75Z</time></trkpt><trkpt lat="44.5046717" lon="11.2636067"><ele>50.42857142857143</ele><time>2026-03-28T09:57:23.75Z</time></trkpt><trkpt lat="44.5046383" lon="11.2636867"><ele>50.285714285714285</ele><time>2026-03-28T09:57:24.75Z</time></trkpt><trkpt lat="44.5046133" lon="11.2637683"><ele>50.142857142857146</ele><time>2026-03-28T09:57:25.75Z</time></trkpt><trkpt lat="44.50459" lon="11.2638533"><ele>50.0</ele><time>2026-03-28T09:57:26.75Z</time></trkpt><trkpt lat="44.50456" lon="11.263935"><ele>49.833333333333336</ele><time>2026-03-28T09:57:27.75Z</time></trkpt><trkpt lat="44.5045067" lon="11.264085"><ele>49.66666666666667</ele><time>2026-03-28T09:57:29.75Z</time></trkpt><trkpt lat="44.5044783" lon="11.2641667"><ele>49.5</ele><time>2026-03-28T09:57:30.75Z</time></trkpt><trkpt lat="44.5044533" lon="11.26425"><ele>49.33333333333333</ele><time>2026-03-28T09:57:31.749Z</time></trkpt><trkpt lat="44.5043983" lon="11.2644117"><ele>49.166666666666664</ele><time>2026-03-28T09:57:33.75Z</time></trkpt><trkpt lat="44.504375" lon="11.264495"><ele>49.0</ele><time>2026-03-28T09:57:34.75Z</time></trkpt><trkpt lat="44.50434" lon="11.2645767"><ele>48.99999999999999</ele><time>2026-03-28T09:57:35.75Z</time></trkpt><trkpt lat="44.5043067" lon="11.2646583"><ele>49.0</ele><time>2026-03-28T09:57:36.75Z</time></trkpt><trkpt lat="44.5042733" lon="11.2647383"><ele>49.0</ele><time>2026-03-28T09:57:37.75Z</time></trkpt><trkpt lat="44.5042483" lon="11.2648233"><ele>49.0</ele><time>2026-03-28T09:57:38.749Z</time></trkpt><trkpt lat="44.5041967" lon="11.2649867"><ele>48.99999999999999</ele><time>2026-03-28T09:57:40.749Z</time></trkpt><trkpt lat="44.5041733" lon="11.26508"><ele>49.0</ele><time>2026-03-28T09:57:41.75Z</time></trkpt><trkpt lat="44.504145" lon="11.265165"><ele>49.166666666666664</ele><time>2026-03-28T09:57:42.75Z</time></trkpt><trkpt lat="44.5041217" lon="11.2652533"><ele>49.33333333333333</ele><time>2026-03-28T09:57:43.75Z</time></trkpt><trkpt lat="44.5041" lon="11.2653383"><ele>49.5</ele><time>2026-03-28T09:57:44.75Z</time></trkpt><trkpt lat="44.504055" lon="11.2655017"><ele>49.66666666666667</ele><time>2026-03-28T09:57:46.75Z</time></trkpt><trkpt lat="44.5040267" lon="11.26559"><ele>49.833333333333336</ele><time>2026-03-28T09:57:47.75Z</time></trkpt><trkpt lat="44.5040017" lon="11.265675"><ele>50.0</ele><time>2026-03-28T09:57:48.751Z</time></trkpt><trkpt lat="44.50398" lon="11.265765"><ele>50.16666666666667</ele><time>2026-03-28T09:57:49.751Z</time></trkpt><trkpt lat="44.50395" lon="11.265845"><ele>50.333333333333336</ele><time>2026-03-28T09:57:50.751Z</time></trkpt><trkpt lat="44.50389" lon="11.2660033"><ele>50.5</ele><time>2026-03-28T09:57:52.75Z</time></trkpt><trkpt lat="44.5038583" lon="11.2660917"><ele>50.66666666666667</ele><time>2026-03-28T09:57:53.75Z</time></trkpt><trkpt lat="44.5038233" lon="11.2661767"><ele>50.833333333333336</ele><time>2026-03-28T09:57:54.751Z</time></trkpt><trkpt lat="44.5037933" lon="11.2662583"><ele>51.0</ele><time>2026-03-28T09:57:55.75Z</time></trkpt><trkpt lat="44.5037683" lon="11.266345"><ele>51.0</ele><time>2026-03-28T09:57:56.75Z</time></trkpt><trkpt lat="44.503735" lon="11.2664267"><ele>51.0</ele><time>2026-03-28T09:57:57.751Z</time></trkpt><trkpt lat="44.5037033" lon="11.2665117"><ele>51.0</ele><time>2026-03-28T09:57:58.75Z</time></trkpt><trkpt lat="44.5036683" lon="11.2665917"><ele>51.0</ele><time>2026-03-28T09:57:59.75Z</time></trkpt><trkpt lat="44.5036317" lon="11.266675"><ele>51.0</ele><time>2026-03-28T09:58:00.751Z</time></trkpt><trkpt lat="44.5035983" lon="11.2667583"><ele>51.0</ele><time>2026-03-28T09:58:01.751Z</time></trkpt><trkpt lat="44.5035633" lon="11.2668367"><ele>51.0</ele><time>2026-03-28T09:58:02.751Z</time></trkpt><trkpt lat="44.5035267" lon="11.2669117"><ele>51.0</ele><time>2026-03-28T09:58:03.751Z</time></trkpt><trkpt lat="44.5034833" lon="11.26699"><ele>51.0</ele><time>2026-03-28T09:58:04.751Z</time></trkpt><trkpt lat="44.5034483" lon="11.2670817"><ele>51.0</ele><time>2026-03-28T09:58:05.75Z</time></trkpt><trkpt lat="44.5034133" lon="11.26717"><ele>51.0</ele><time>2026-03-28T09:58:06.751Z</time></trkpt><trkpt lat="44.503375" lon="11.2672567"><ele>51.0</ele><time>2026-03-28T09:58:07.751Z</time></trkpt><trkpt lat="44.5033417" lon="11.2673367"><ele>51.0</ele><time>2026-03-28T09:58:08.75Z</time></trkpt><trkpt lat="44.5033067" lon="11.2674233"><ele>51.0</ele><time>2026-03-28T09:58:09.751Z</time></trkpt><trkpt lat="44.5032733" lon="11.2675083"><ele>51.0</ele><time>2026-03-28T09:58:10.751Z</time></trkpt><trkpt lat="44.503245" lon="11.2675967"><ele>51.0</ele><time>2026-03-28T09:58:11.751Z</time></trkpt><trkpt lat="44.503215" lon="11.2676933"><ele>51.0</ele><time>2026-03-28T09:58:12.751Z</time></trkpt><trkpt lat="44.503185" lon="11.2677783"><ele>51.0</ele><time>2026-03-28T09:58:13.751Z</time></trkpt><trkpt lat="44.5031433" lon="11.26796"><ele>51.0</ele><time>2026-03-28T09:58:15.751Z</time></trkpt><trkpt lat="44.503115" lon="11.2680617"><ele>51.0</ele><time>2026-03-28T09:58:16.751Z</time></trkpt><trkpt lat="44.5030917" lon="11.268155"><ele>51.0</ele><time>2026-03-28T09:58:17.751Z</time></trkpt><trkpt lat="44.50307" lon="11.26825"><ele>51.0</ele><time>2026-03-28T09:58:18.751Z</time></trkpt><trkpt lat="44.5030467" lon="11.2683467"><ele>51.0</ele><time>2026-03-28T09:58:19.751Z</time></trkpt><trkpt lat="44.503005" lon="11.2685167"><ele>51.0</ele><time>2026-03-28T09:58:21.751Z</time></trkpt><trkpt lat="44.5029817" lon="11.268615"><ele>51.0</ele><time>2026-03-28T09:58:22.751Z</time></trkpt><trkpt lat="44.50297" lon="11.2687083"><ele>51.0</ele><time>2026-03-28T09:58:23.751Z</time></trkpt><trkpt lat="44.5029567" lon="11.2688"><ele>51.0</ele><time>2026-03-28T09:58:24.75Z</time></trkpt><trkpt lat="44.502945" lon="11.268905"><ele>51.0</ele><time>2026-03-28T09:58:25.751Z</time></trkpt><trkpt lat="44.502925" lon="11.2689983"><ele>51.0</ele><time>2026-03-28T09:58:26.751Z</time></trkpt><trkpt lat="44.5029033" lon="11.2690817"><ele>51.0</ele><time>2026-03-28T09:58:27.75Z</time></trkpt><trkpt lat="44.5028817" lon="11.2691717"><ele>51.0</ele><time>2026-03-28T09:58:28.751Z</time></trkpt><trkpt lat="44.5028617" lon="11.26927"><ele>51.0</ele><time>2026-03-28T09:58:29.751Z</time></trkpt><trkpt lat="44.502835" lon="11.2693633"><ele>51.0</ele><time>2026-03-28T09:58:30.751Z</time></trkpt><trkpt lat="44.50281" lon="11.2694567"><ele>51.166666666666664</ele><time>2026-03-28T09:58:31.751Z</time></trkpt><trkpt lat="44.50278" lon="11.269545"><ele>51.33333333333333</ele><time>2026-03-28T09:58:32.751Z</time></trkpt><trkpt lat="44.5027467" lon="11.2696333"><ele>51.5</ele><time>2026-03-28T09:58:33.751Z</time></trkpt><trkpt lat="44.50271" lon="11.2697133"><ele>51.666666666666664</ele><time>2026-03-28T09:58:34.751Z</time></trkpt><trkpt lat="44.502665" lon="11.2698717"><ele>51.83333333333333</ele><time>2026-03-28T09:58:36.751Z</time></trkpt><trkpt lat="44.5026117" lon="11.270015"><ele>52.0</ele><time>2026-03-28T09:58:38.751Z</time></trkpt><trkpt lat="44.5025633" lon="11.2701433"><ele>51.99999999999999</ele><time>2026-03-28T09:58:40.751Z</time></trkpt><trkpt lat="44.5025233" lon="11.2702467"><ele>52.0</ele><time>2026-03-28T09:58:43.751Z</time></trkpt><trkpt lat="44.5024817" lon="11.2703367"><ele>52.0</ele><time>2026-03-28T09:58:49.751Z</time></trkpt><trkpt lat="44.5024417" lon="11.270455"><ele>52.0</ele><time>2026-03-28T09:58:52.75Z</time></trkpt><trkpt lat="44.5024167" lon="11.2705383"><ele>51.99999999999999</ele><time>2026-03-28T09:58:54.751Z</time></trkpt><trkpt lat="44.50239" lon="11.2706417"><ele>52.0</ele><time>2026-03-28T09:58:56.751Z</time></trkpt><trkpt lat="44.5023567" lon="11.2707383"><ele>51.83333333333333</ele><time>2026-03-28T09:58:58.751Z</time></trkpt><trkpt lat="44.5023317" lon="11.2708283"><ele>51.666666666666664</ele><time>2026-03-28T09:59:00.75Z</time></trkpt><trkpt lat="44.5023033" lon="11.2709217"><ele>51.5</ele><time>2026-03-28T09:59:02.75Z</time></trkpt><trkpt lat="44.5022817" lon="11.271035"><ele>51.33333333333333</ele><time>2026-03-28T09:59:04.75Z</time></trkpt><trkpt lat="44.5022583" lon="11.271145"><ele>51.166666666666664</ele><time>2026-03-28T09:59:06.75Z</time></trkpt><trkpt lat="44.502235" lon="11.2712567"><ele>51.0</ele><time>2026-03-28T09:59:08.751Z</time></trkpt><trkpt lat="44.5022117" lon="11.27137"><ele>50.666666666666664</ele><time>2026-03-28T09:59:10.75Z</time></trkpt><trkpt lat="44.5021983" lon="11.2714833"><ele>50.33333333333333</ele><time>2026-03-28T09:59:12.75Z</time></trkpt><trkpt lat="44.502195" lon="11.2716083"><ele>50.0</ele><time>2026-03-28T09:59:14.751Z</time></trkpt><trkpt lat="44.502185" lon="11.2717317"><ele>49.666666666666664</ele><time>2026-03-28T09:59:16.75Z</time></trkpt><trkpt lat="44.50217" lon="11.2718517"><ele>49.33333333333333</ele><time>2026-03-28T09:59:18.751Z</time></trkpt><trkpt lat="44.50216" lon="11.271975"><ele>49.0</ele><time>2026-03-28T09:59:20.751Z</time></trkpt><trkpt lat="44.5021417" lon="11.2721117"><ele>49.0</ele><time>2026-03-28T09:59:22.75Z</time></trkpt><trkpt lat="44.50213" lon="11.2722483"><ele>49.0</ele><time>2026-03-28T09:59:24.751Z</time></trkpt><trkpt lat="44.5021167" lon="11.27239"><ele>49.0</ele><time>2026-03-28T09:59:26.751Z</time></trkpt><trkpt lat="44.50211" lon="11.2725483"><ele>49.0</ele><time>2026-03-28T09:59:28.751Z</time></trkpt><trkpt lat="44.502095" lon="11.2727"><ele>49.0</ele><time>2026-03-28T09:59:30.751Z</time></trkpt><trkpt lat="44.5020817" lon="11.2728717"><ele>48.75</ele><time>2026-03-28T09:59:32.75Z</time></trkpt><trkpt lat="44.5020683" lon="11.2730417"><ele>48.5</ele><time>2026-03-28T09:59:34.751Z</time></trkpt><trkpt lat="44.502055" lon="11.2732033"><ele>48.25</ele><time>2026-03-28T09:59:36.751Z</time></trkpt><trkpt lat="44.5020417" lon="11.2733583"><ele>48.0</ele><time>2026-03-28T09:59:38.75Z</time></trkpt><trkpt lat="44.5020433" lon="11.2735033"><ele>48.599999999999994</ele><time>2026-03-28T09:59:40.751Z</time></trkpt><trkpt lat="44.5020433" lon="11.2736267"><ele>49.199999999999996</ele><time>2026-03-28T09:59:42.751Z</time></trkpt><trkpt lat="44.50208" lon="11.2737367"><ele>49.8</ele><time>2026-03-28T09:59:44.751Z</time></trkpt><trkpt lat="44.5021517" lon="11.2738133"><ele>50.4</ele><time>2026-03-28T09:59:46.751Z</time></trkpt><trkpt lat="44.502245" lon="11.2738417"><ele>51.0</ele><time>2026-03-28T09:59:48.751Z</time></trkpt><trkpt lat="44.50235" lon="11.2738717"><ele>51.0</ele><time>2026-03-28T09:59:50.751Z</time></trkpt><trkpt lat="44.5024683" lon="11.2739167"><ele>51.0</ele><time>2026-03-28T09:59:52.75Z</time></trkpt><trkpt lat="44.502535" lon="11.273935"><ele>51.0</ele><time>2026-03-28T09:59:53.75Z</time></trkpt><trkpt lat="44.502605" lon="11.2739483"><ele>51.0</ele><time>2026-03-28T09:59:54.751Z</time></trkpt><trkpt lat="44.5026783" lon="11.2739717"><ele>51.0</ele><time>2026-03-28T09:59:55.751Z</time></trkpt><trkpt lat="44.50275" lon="11.274"><ele>51.0</ele><time>2026-03-28T09:59:56.751Z</time></trkpt><trkpt lat="44.502825" lon="11.27402"><ele>51.0</ele><time>2026-03-28T09:59:57.75Z</time></trkpt><trkpt lat="44.5029" lon="11.2740367"><ele>51.0</ele><time>2026-03-28T09:59:58.751Z</time></trkpt><trkpt lat="44.5029783" lon="11.2740617"><ele>51.0</ele><time>2026-03-28T09:59:59.751Z</time></trkpt><trkpt lat="44.5030583" lon="11.2740817"><ele>51.0</ele><time>2026-03-28T10:00:00.751Z</time></trkpt><trkpt lat="44.5031367" lon="11.2741083"><ele>51.0</ele><time>2026-03-28T10:00:01.751Z</time></trkpt><trkpt lat="44.503215" lon="11.2741283"><ele>51.0</ele><time>2026-03-28T10:00:02.751Z</time></trkpt><trkpt lat="44.5032883" lon="11.27415"><ele>51.0</ele><time>2026-03-28T10:00:03.75Z</time></trkpt><trkpt lat="44.5033583" lon="11.2741633"><ele>51.0</ele><time>2026-03-28T10:00:04.751Z</time></trkpt><trkpt lat="44.50346" lon="11.274205"><ele>51.0</ele><time>2026-03-28T10:00:06.751Z</time></trkpt><trkpt lat="44.50352" lon="11.2742883"><ele>51.0</ele><time>2026-03-28T10:00:08.751Z</time></trkpt><trkpt lat="44.5036033" lon="11.2743533"><ele>51.0</ele><time>2026-03-28T10:00:10.751Z</time></trkpt><trkpt lat="44.503705" lon="11.2744083"><ele>50.833333333333336</ele><time>2026-03-28T10:00:12.75Z</time></trkpt><trkpt lat="44.5037983" lon="11.274445"><ele>50.66666666666667</ele><time>2026-03-28T10:00:14.751Z</time></trkpt><trkpt lat="44.503865" lon="11.2744767"><ele>50.5</ele><time>2026-03-28T10:00:16.751Z</time></trkpt><trkpt lat="44.5039067" lon="11.2745817"><ele>50.333333333333336</ele><time>2026-03-28T10:00:19.751Z</time></trkpt><trkpt lat="44.5038783" lon="11.2746733"><ele>50.16666666666667</ele><time>2026-03-28T10:00:23.751Z</time></trkpt><trkpt lat="44.5038167" lon="11.2747417"><ele>50.0</ele><time>2026-03-28T10:00:25.751Z</time></trkpt><trkpt lat="44.503795" lon="11.2748517"><ele>50.00000000000001</ele><time>2026-03-28T10:00:27.751Z</time></trkpt><trkpt lat="44.5037833" lon="11.274965"><ele>50.0</ele><time>2026-03-28T10:00:29.751Z</time></trkpt><trkpt lat="44.5037767" lon="11.2750883"><ele>50.0</ele><time>2026-03-28T10:00:31.751Z</time></trkpt><trkpt lat="44.50376" lon="11.275185"><ele>50.0</ele><time>2026-03-28T10:00:33.75Z</time></trkpt><trkpt lat="44.50374" lon="11.2752767"><ele>50.00000000000001</ele><time>2026-03-28T10:00:35.751Z</time></trkpt><trkpt lat="44.503745" lon="11.2753867"><ele>50.0</ele><time>2026-03-28T10:00:38.751Z</time></trkpt><trkpt lat="44.5038167" lon="11.2754433"><ele>49.8</ele><time>2026-03-28T10:00:42.751Z</time></trkpt><trkpt lat="44.5038767" lon="11.275365"><ele>49.6</ele><time>2026-03-28T10:00:44.75Z</time></trkpt><trkpt lat="44.5039283" lon="11.27528"><ele>49.400000000000006</ele><time>2026-03-28T10:00:46.75Z</time></trkpt><trkpt lat="44.504015" lon="11.275245"><ele>49.2</ele><time>2026-03-28T10:00:48.751Z</time></trkpt><trkpt lat="44.5041233" lon="11.2752667"><ele>49.0</ele><time>2026-03-28T10:00:50.75Z</time></trkpt><trkpt lat="44.5042283" lon="11.2753217"><ele>49.0</ele><time>2026-03-28T10:00:52.751Z</time></trkpt><trkpt lat="44.50433" lon="11.2753817"><ele>49.0</ele><time>2026-03-28T10:00:54.75Z</time></trkpt><trkpt lat="44.5044317" lon="11.2754467"><ele>49.0</ele><time>2026-03-28T10:00:56.751Z</time></trkpt><trkpt lat="44.5045283" lon="11.2755083"><ele>49.0</ele><time>2026-03-28T10:00:58.751Z</time></trkpt><trkpt lat="44.5046233" lon="11.2755717"><ele>49.0</ele><time>2026-03-28T10:01:00.751Z</time></trkpt><trkpt lat="44.50473" lon="11.2756383"><ele>49.0</ele><time>2026-03-28T10:01:02.751Z</time></trkpt><trkpt lat="44.5048333" lon="11.275695"><ele>49.0</ele><time>2026-03-28T10:01:04.751Z</time></trkpt><trkpt lat="44.5049483" lon="11.2757583"><ele>49.0</ele><time>2026-03-28T10:01:06.751Z</time></trkpt><trkpt lat="44.5050583" lon="11.2758133"><ele>49.0</ele><time>2026-03-28T10:01:08.751Z</time></trkpt><trkpt lat="44.5051583" lon="11.2758767"><ele>49.0</ele><time>2026-03-28T10:01:10.75Z</time></trkpt><trkpt lat="44.5052683" lon="11.275945"><ele>49.0</ele><time>2026-03-28T10:01:12.75Z</time></trkpt><trkpt lat="44.5053733" lon="11.2760117"><ele>49.0</ele><time>2026-03-28T10:01:14.751Z</time></trkpt><trkpt lat="44.5054833" lon="11.2760717"><ele>49.0</ele><time>2026-03-28T10:01:16.75Z</time></trkpt><trkpt lat="44.50559" lon="11.2761183"><ele>48.75</ele><time>2026-03-28T10:01:18.751Z</time></trkpt><trkpt lat="44.50569" lon="11.2761833"><ele>48.5</ele><time>2026-03-28T10:01:20.751Z</time></trkpt><trkpt lat="44.5057917" lon="11.2762517"><ele>48.25</ele><time>2026-03-28T10:01:22.751Z</time></trkpt><trkpt lat="44.5058983" lon="11.2763033"><ele>48.0</ele><time>2026-03-28T10:01:24.751Z</time></trkpt><trkpt lat="44.506005" lon="11.2763717"><ele>48.0</ele><time>2026-03-28T10:01:26.751Z</time></trkpt><trkpt lat="44.50607" lon="11.2764033"><ele>48.0</ele><time>2026-03-28T10:01:27.751Z</time></trkpt><trkpt lat="44.5061783" lon="11.2764583"><ele>48.0</ele><time>2026-03-28T10:01:29.751Z</time></trkpt><trkpt lat="44.5062883" lon="11.276525"><ele>48.0</ele><time>2026-03-28T10:01:31.751Z</time></trkpt><trkpt lat="44.5063933" lon="11.2765933"><ele>48.0</ele><time>2026-03-28T10:01:33.75Z</time></trkpt><trkpt lat="44.5065033" lon="11.2766617"><ele>48.4</ele><time>2026-03-28T10:01:35.751Z</time></trkpt><trkpt lat="44.50662" lon="11.2767333"><ele>48.8</ele><time>2026-03-28T10:01:37.751Z</time></trkpt><trkpt lat="44.5067333" lon="11.2768033"><ele>49.2</ele><time>2026-03-28T10:01:39.751Z</time></trkpt><trkpt lat="44.5067967" lon="11.276835"><ele>49.6</ele><time>2026-03-28T10:01:40.751Z</time></trkpt><trkpt lat="44.5068633" lon="11.2768733"><ele>50.0</ele><time>2026-03-28T10:01:41.75Z</time></trkpt><trkpt lat="44.50697" lon="11.2769233"><ele>49.8</ele><time>2026-03-28T10:01:43.751Z</time></trkpt><trkpt lat="44.5070867" lon="11.27697"><ele>49.6</ele><time>2026-03-28T10:01:45.751Z</time></trkpt><trkpt lat="44.5071867" lon="11.2770317"><ele>49.400000000000006</ele><time>2026-03-28T10:01:47.75Z</time></trkpt><trkpt lat="44.50724" lon="11.27712"><ele>49.2</ele><time>2026-03-28T10:01:49.75Z</time></trkpt><trkpt lat="44.50725" lon="11.2772383"><ele>49.0</ele><time>2026-03-28T10:01:51.751Z</time></trkpt><trkpt lat="44.5072533" lon="11.2773583"><ele>48.800000000000004</ele><time>2026-03-28T10:01:53.75Z</time></trkpt><trkpt lat="44.5072467" lon="11.2774833"><ele>48.6</ele><time>2026-03-28T10:01:55.75Z</time></trkpt><trkpt lat="44.5072283" lon="11.2776"><ele>48.4</ele><time>2026-03-28T10:01:57.75Z</time></trkpt><trkpt lat="44.5072033" lon="11.27772"><ele>48.2</ele><time>2026-03-28T10:01:59.751Z</time></trkpt><trkpt lat="44.5071717" lon="11.2778417"><ele>48.0</ele><time>2026-03-28T10:02:01.751Z</time></trkpt><trkpt lat="44.5071333" lon="11.2779683"><ele>48.0</ele><time>2026-03-28T10:02:03.75Z</time></trkpt><trkpt lat="44.5071083" lon="11.2780917"><ele>48.0</ele><time>2026-03-28T10:02:05.751Z</time></trkpt><trkpt lat="44.50708" lon="11.2781883"><ele>48.0</ele><time>2026-03-28T10:02:07.751Z</time></trkpt><trkpt lat="44.5070883" lon="11.2782767"><ele>48.0</ele><time>2026-03-28T10:02:10.751Z</time></trkpt><trkpt lat="44.5071533" lon="11.2783067"><ele>48.0</ele><time>2026-03-28T10:02:12.75Z</time></trkpt><trkpt lat="44.5072267" lon="11.2783517"><ele>48.0</ele><time>2026-03-28T10:02:14.751Z</time></trkpt><trkpt lat="44.5073033" lon="11.2784017"><ele>47.666666666666664</ele><time>2026-03-28T10:02:16.751Z</time></trkpt><trkpt lat="44.50738" lon="11.278455"><ele>47.333333333333336</ele><time>2026-03-28T10:02:18.751Z</time></trkpt><trkpt lat="44.5074483" lon="11.27849"><ele>47.0</ele><time>2026-03-28T10:02:20.75Z</time></trkpt><trkpt lat="44.5075133" lon="11.2785367"><ele>46.66666666666667</ele><time>2026-03-28T10:02:22.751Z</time></trkpt><trkpt lat="44.5075767" lon="11.2785467"><ele>46.333333333333336</ele><time>2026-03-28T10:02:24.751Z</time></trkpt><trkpt lat="44.5076267" lon="11.27844"><ele>46.0</ele><time>2026-03-28T10:02:27.751Z</time></trkpt><trkpt lat="44.5077067" lon="11.2784383"><ele>46.0</ele><time>2026-03-28T10:02:30.75Z</time></trkpt><trkpt lat="44.507775" lon="11.2784883"><ele>46.0</ele><time>2026-03-28T10:02:32.751Z</time></trkpt><trkpt lat="44.50786" lon="11.2785383"><ele>46.0</ele><time>2026-03-28T10:02:34.751Z</time></trkpt><trkpt lat="44.5079517" lon="11.27859"><ele>46.0</ele><time>2026-03-28T10:02:36.751Z</time></trkpt><trkpt lat="44.50803" lon="11.2786417"><ele>46.0</ele><time>2026-03-28T10:02:38.751Z</time></trkpt><trkpt lat="44.5081217" lon="11.2786967"><ele>46.199999999999996</ele><time>2026-03-28T10:02:40.751Z</time></trkpt><trkpt lat="44.50821" lon="11.278745"><ele>46.4</ele><time>2026-03-28T10:02:42.751Z</time></trkpt><trkpt lat="44.5082933" lon="11.278805"><ele>46.6</ele><time>2026-03-28T10:02:44.75Z</time></trkpt><trkpt lat="44.5083617" lon="11.2788817"><ele>46.8</ele><time>2026-03-28T10:02:46.751Z</time></trkpt><trkpt lat="44.50839" lon="11.2790083"><ele>47.0</ele><time>2026-03-28T10:02:48.751Z</time></trkpt><trkpt lat="44.5083683" lon="11.2791267"><ele>46.57142857142857</ele><time>2026-03-28T10:02:50.751Z</time></trkpt><trkpt lat="44.5083433" lon="11.2792283"><ele>46.14285714285714</ele><time>2026-03-28T10:02:52.751Z</time></trkpt><trkpt lat="44.5083483" lon="11.2793383"><ele>45.714285714285715</ele><time>2026-03-28T10:02:54.751Z</time></trkpt><trkpt lat="44.5084033" lon="11.2793867"><ele>45.285714285714285</ele><time>2026-03-28T10:02:56.75Z</time></trkpt><trkpt lat="44.5084667" lon="11.2794283"><ele>44.857142857142854</ele><time>2026-03-28T10:02:58.75Z</time></trkpt><trkpt lat="44.5085367" lon="11.2794717"><ele>44.42857142857143</ele><time>2026-03-28T10:03:00.75Z</time></trkpt><trkpt lat="44.50859" lon="11.279525"><ele>44.0</ele><time>2026-03-28T10:03:02.751Z</time></trkpt><trkpt lat="44.5086517" lon="11.27958"><ele>44.0</ele><time>2026-03-28T10:03:04.75Z</time></trkpt><trkpt lat="44.50872" lon="11.2796467"><ele>44.0</ele><time>2026-03-28T10:03:06.751Z</time></trkpt><trkpt lat="44.508805" lon="11.2797217"><ele>44.0</ele><time>2026-03-28T10:03:08.75Z</time></trkpt><trkpt lat="44.5088917" lon="11.2798017"><ele>44.0</ele><time>2026-03-28T10:03:10.75Z</time></trkpt><trkpt lat="44.5089767" lon="11.2798767"><ele>44.0</ele><time>2026-03-28T10:03:12.751Z</time></trkpt><trkpt lat="44.5090767" lon="11.2799667"><ele>44.2</ele><time>2026-03-28T10:03:14.751Z</time></trkpt><trkpt lat="44.509175" lon="11.2800567"><ele>44.400000000000006</ele><time>2026-03-28T10:03:16.751Z</time></trkpt><trkpt lat="44.50923" lon="11.2801033"><ele>44.6</ele><time>2026-03-28T10:03:17.75Z</time></trkpt><trkpt lat="44.509325" lon="11.2801983"><ele>44.8</ele><time>2026-03-28T10:03:19.751Z</time></trkpt><trkpt lat="44.50938" lon="11.2802417"><ele>45.0</ele><time>2026-03-28T10:03:20.75Z</time></trkpt><trkpt lat="44.5094383" lon="11.2803583"><ele>45.0</ele><time>2026-03-28T10:03:22.75Z</time></trkpt><trkpt lat="44.5095017" lon="11.28046"><ele>45.0</ele><time>2026-03-28T10:03:24.751Z</time></trkpt><trkpt lat="44.5095667" lon="11.28056"><ele>45.0</ele><time>2026-03-28T10:03:26.75Z</time></trkpt><trkpt lat="44.509615" lon="11.2806717"><ele>45.0</ele><time>2026-03-28T10:03:28.751Z</time></trkpt><trkpt lat="44.50967" lon="11.2807767"><ele>45.0</ele><time>2026-03-28T10:03:30.751Z</time></trkpt><trkpt lat="44.5097117" lon="11.2808767"><ele>45.2</ele><time>2026-03-28T10:03:32.751Z</time></trkpt><trkpt lat="44.5097767" lon="11.2809783"><ele>45.4</ele><time>2026-03-28T10:03:34.751Z</time></trkpt><trkpt lat="44.5098467" lon="11.28107"><ele>45.599999999999994</ele><time>2026-03-28T10:03:36.751Z</time></trkpt><trkpt lat="44.5099283" lon="11.281145"><ele>45.8</ele><time>2026-03-28T10:03:38.75Z</time></trkpt><trkpt lat="44.5100083" lon="11.2811833"><ele>46.0</ele><time>2026-03-28T10:03:40.75Z</time></trkpt><trkpt lat="44.51008" lon="11.2812167"><ele>46.0</ele><time>2026-03-28T10:03:42.751Z</time></trkpt><trkpt lat="44.510115" lon="11.2813117"><ele>46.0</ele><time>2026-03-28T10:03:44.751Z</time></trkpt><trkpt lat="44.510105" lon="11.281435"><ele>46.0</ele><time>2026-03-28T10:03:46.75Z</time></trkpt><trkpt lat="44.5100733" lon="11.281555"><ele>46.0</ele><time>2026-03-28T10:03:48.751Z</time></trkpt><trkpt lat="44.5100383" lon="11.281675"><ele>46.0</ele><time>2026-03-28T10:03:50.751Z</time></trkpt><trkpt lat="44.5100033" lon="11.2817833"><ele>46.0</ele><time>2026-03-28T10:03:52.75Z</time></trkpt><trkpt lat="44.509985" lon="11.2819017"><ele>46.16666666666667</ele><time>2026-03-28T10:03:54.751Z</time></trkpt><trkpt lat="44.50995" lon="11.2820217"><ele>46.333333333333336</ele><time>2026-03-28T10:03:56.751Z</time></trkpt><trkpt lat="44.5099083" lon="11.28214"><ele>46.5</ele><time>2026-03-28T10:03:58.751Z</time></trkpt><trkpt lat="44.509865" lon="11.28225"><ele>46.666666666666664</ele><time>2026-03-28T10:04:00.751Z</time></trkpt><trkpt lat="44.50982" lon="11.2823283"><ele>46.83333333333333</ele><time>2026-03-28T10:04:02.751Z</time></trkpt><trkpt lat="44.5097817" lon="11.2824217"><ele>47.0</ele><time>2026-03-28T10:04:04.751Z</time></trkpt><trkpt lat="44.5098183" lon="11.2825067"><ele>47.2</ele><time>2026-03-28T10:04:07.751Z</time></trkpt><trkpt lat="44.5098833" lon="11.2825483"><ele>47.400000000000006</ele><time>2026-03-28T10:04:09.75Z</time></trkpt><trkpt lat="44.5099733" lon="11.2826017"><ele>47.599999999999994</ele><time>2026-03-28T10:04:11.751Z</time></trkpt><trkpt lat="44.51009" lon="11.28267"><ele>47.8</ele><time>2026-03-28T10:04:13.751Z</time></trkpt><trkpt lat="44.51019" lon="11.282715"><ele>48.0</ele><time>2026-03-28T10:04:15.751Z</time></trkpt><trkpt lat="44.5102867" lon="11.2827783"><ele>48.0</ele><time>2026-03-28T10:04:17.75Z</time></trkpt><trkpt lat="44.5103467" lon="11.2828217"><ele>48.0</ele><time>2026-03-28T10:04:18.751Z</time></trkpt><trkpt lat="44.5104433" lon="11.282885"><ele>48.0</ele><time>2026-03-28T10:04:20.751Z</time></trkpt><trkpt lat="44.510535" lon="11.2829633"><ele>48.0</ele><time>2026-03-28T10:04:22.751Z</time></trkpt><trkpt lat="44.5106383" lon="11.2830067"><ele>48.0</ele><time>2026-03-28T10:04:24.751Z</time></trkpt><trkpt lat="44.51072" lon="11.2830767"><ele>47.4</ele><time>2026-03-28T10:04:26.751Z</time></trkpt><trkpt lat="44.510815" lon="11.2831317"><ele>46.8</ele><time>2026-03-28T10:04:28.751Z</time></trkpt><trkpt lat="44.5109033" lon="11.283185"><ele>46.2</ele><time>2026-03-28T10:04:30.751Z</time></trkpt><trkpt lat="44.5109917" lon="11.2832467"><ele>45.6</ele><time>2026-03-28T10:04:32.751Z</time></trkpt><trkpt lat="44.5110783" lon="11.283295"><ele>45.0</ele><time>2026-03-28T10:04:34.751Z</time></trkpt><trkpt lat="44.5111417" lon="11.2833517"><ele>45.0</ele><time>2026-03-28T10:04:36.752Z</time></trkpt><trkpt lat="44.5112" lon="11.2834083"><ele>45.0</ele><time>2026-03-28T10:04:39.752Z</time></trkpt><trkpt lat="44.5111783" lon="11.2834933"><ele>45.0</ele><time>2026-03-28T10:04:42.752Z</time></trkpt><trkpt lat="44.5111467" lon="11.2836033"><ele>45.0</ele><time>2026-03-28T10:04:45.751Z</time></trkpt><trkpt lat="44.5110933" lon="11.2836717"><ele>45.0</ele><time>2026-03-28T10:04:49.752Z</time></trkpt><trkpt lat="44.5110133" lon="11.2836283"><ele>45.0</ele><time>2026-03-28T10:04:52.751Z</time></trkpt><trkpt lat="44.5109533" lon="11.2835883"><ele>45.0</ele><time>2026-03-28T10:04:54.752Z</time></trkpt><trkpt lat="44.5108717" lon="11.2835383"><ele>45.0</ele><time>2026-03-28T10:04:57.752Z</time></trkpt><trkpt lat="44.5108067" lon="11.2835017"><ele>45.0</ele><time>2026-03-28T10:05:00.752Z</time></trkpt><trkpt lat="44.5107417" lon="11.2834733"><ele>45.0</ele><time>2026-03-28T10:05:03.752Z</time></trkpt><trkpt lat="44.5105517" lon="11.283335"><ele>45.0</ele><time>2026-03-28T10:05:11.429Z</time></trkpt><trkpt lat="44.510705" lon="11.2833567"><ele>45.0</ele><time>2026-03-28T10:05:12.603Z</time></trkpt><trkpt lat="44.5106533" lon="11.2834233"><ele>45.0</ele><time>2026-03-28T10:05:14.74Z</time></trkpt></trkseg></trk></gpx>